<?xml version="1.0" encoding="UTF-8" standalone="no" ?>
<gpx xmlns="http://www.topografix.com/GPX/1/1" xmlns:xsi="http://www.w3.org/2001/XMLSchema-instance" xsi:schemaLocation="http://www.topografix.com/GPX/1/1 http://www.topografix.com/GPX/1/1/gpx.xsd" version="1.1" creator="VisuGPX - https://www.visugpx.com">
  <metadata>
    <name>randonnée populaire novillars 14kms </name>
    <desc><![CDATA[a l arrivée nous avons fait 2.5 kms en marche arriere ...lol ]]></desc>
  </metadata>
  <trk>
    <name><![CDATA[Novillars 1]]></name>
    <desc><![CDATA[]]></desc>
    <trkseg>
      <trkpt lat="47.28565" lon="6.13482">
        <ele>324.4</ele>
        <time>2013-06-09T07:58:54.000Z</time>
      </trkpt>
      <trkpt lat="47.28561" lon="6.13485">
        <ele>324.4</ele>
        <time>2013-06-09T07:59:21.000Z</time>
      </trkpt>
      <trkpt lat="47.28561" lon="6.13486">
        <ele>324.4</ele>
        <time>2013-06-09T07:59:22.000Z</time>
      </trkpt>
      <trkpt lat="47.28558" lon="6.13482">
        <ele>308.2</ele>
        <time>2013-06-09T07:59:25.000Z</time>
      </trkpt>
      <trkpt lat="47.28557" lon="6.1348">
        <ele>308.3</ele>
        <time>2013-06-09T07:59:26.000Z</time>
      </trkpt>
      <trkpt lat="47.28556" lon="6.13474">
        <ele>308.7</ele>
        <time>2013-06-09T07:59:42.000Z</time>
      </trkpt>
      <trkpt lat="47.28556" lon="6.13472">
        <ele>308.7</ele>
        <time>2013-06-09T07:59:43.000Z</time>
      </trkpt>
      <trkpt lat="47.28555" lon="6.13466">
        <ele>316.7</ele>
        <time>2013-06-09T07:59:49.000Z</time>
      </trkpt>
      <trkpt lat="47.28556" lon="6.13464">
        <ele>316.8</ele>
        <time>2013-06-09T07:59:50.000Z</time>
      </trkpt>
      <trkpt lat="47.28557" lon="6.13459">
        <ele>316.1</ele>
        <time>2013-06-09T07:59:54.000Z</time>
      </trkpt>
      <trkpt lat="47.28557" lon="6.13457">
        <ele>316.1</ele>
        <time>2013-06-09T07:59:55.000Z</time>
      </trkpt>
      <trkpt lat="47.28557" lon="6.1345">
        <ele>315.9</ele>
        <time>2013-06-09T07:59:59.000Z</time>
      </trkpt>
      <trkpt lat="47.28558" lon="6.13449">
        <ele>315.8</ele>
        <time>2013-06-09T08:00:00.000Z</time>
      </trkpt>
      <trkpt lat="47.28559" lon="6.13443">
        <ele>315.9</ele>
        <time>2013-06-09T08:00:04.000Z</time>
      </trkpt>
      <trkpt lat="47.28559" lon="6.13441">
        <ele>315.9</ele>
        <time>2013-06-09T08:00:05.000Z</time>
      </trkpt>
      <trkpt lat="47.28561" lon="6.13435">
        <ele>316</ele>
        <time>2013-06-09T08:00:09.000Z</time>
      </trkpt>
      <trkpt lat="47.28561" lon="6.13434">
        <ele>316</ele>
        <time>2013-06-09T08:00:10.000Z</time>
      </trkpt>
      <trkpt lat="47.28562" lon="6.13429">
        <ele>316.3</ele>
        <time>2013-06-09T08:00:13.000Z</time>
      </trkpt>
      <trkpt lat="47.28563" lon="6.13427">
        <ele>316.4</ele>
        <time>2013-06-09T08:00:14.000Z</time>
      </trkpt>
      <trkpt lat="47.28564" lon="6.13421">
        <ele>316.6</ele>
        <time>2013-06-09T08:00:18.000Z</time>
      </trkpt>
      <trkpt lat="47.28564" lon="6.13419">
        <ele>316.6</ele>
        <time>2013-06-09T08:00:19.000Z</time>
      </trkpt>
      <trkpt lat="47.28564" lon="6.13413">
        <ele>314.7</ele>
        <time>2013-06-09T08:00:23.000Z</time>
      </trkpt>
      <trkpt lat="47.28564" lon="6.13412">
        <ele>314.4</ele>
        <time>2013-06-09T08:00:24.000Z</time>
      </trkpt>
      <trkpt lat="47.28565" lon="6.13407">
        <ele>314.3</ele>
        <time>2013-06-09T08:00:28.000Z</time>
      </trkpt>
      <trkpt lat="47.28565" lon="6.13405">
        <ele>314.3</ele>
        <time>2013-06-09T08:00:29.000Z</time>
      </trkpt>
      <trkpt lat="47.28567" lon="6.13399">
        <ele>313.8</ele>
        <time>2013-06-09T08:00:33.000Z</time>
      </trkpt>
      <trkpt lat="47.28568" lon="6.13398">
        <ele>313.5</ele>
        <time>2013-06-09T08:00:34.000Z</time>
      </trkpt>
      <trkpt lat="47.28571" lon="6.13396">
        <ele>312.7</ele>
        <time>2013-06-09T08:00:37.000Z</time>
      </trkpt>
      <trkpt lat="47.28572" lon="6.13395">
        <ele>312.4</ele>
        <time>2013-06-09T08:00:38.000Z</time>
      </trkpt>
      <trkpt lat="47.28576" lon="6.13393">
        <ele>312.1</ele>
        <time>2013-06-09T08:00:41.000Z</time>
      </trkpt>
      <trkpt lat="47.28577" lon="6.13392">
        <ele>312.1</ele>
        <time>2013-06-09T08:00:42.000Z</time>
      </trkpt>
      <trkpt lat="47.28578" lon="6.13386">
        <ele>312.1</ele>
        <time>2013-06-09T08:00:46.000Z</time>
      </trkpt>
      <trkpt lat="47.28579" lon="6.13385">
        <ele>312</ele>
        <time>2013-06-09T08:00:47.000Z</time>
      </trkpt>
      <trkpt lat="47.28582" lon="6.13381">
        <ele>311.5</ele>
        <time>2013-06-09T08:00:51.000Z</time>
      </trkpt>
      <trkpt lat="47.28583" lon="6.1338">
        <ele>311.3</ele>
        <time>2013-06-09T08:00:52.000Z</time>
      </trkpt>
      <trkpt lat="47.28587" lon="6.1338">
        <ele>311.5</ele>
        <time>2013-06-09T08:00:55.000Z</time>
      </trkpt>
      <trkpt lat="47.28588" lon="6.1338">
        <ele>311.4</ele>
        <time>2013-06-09T08:00:56.000Z</time>
      </trkpt>
      <trkpt lat="47.28592" lon="6.1338">
        <ele>311.5</ele>
        <time>2013-06-09T08:00:59.000Z</time>
      </trkpt>
      <trkpt lat="47.28594" lon="6.1338">
        <ele>311.6</ele>
        <time>2013-06-09T08:01:00.000Z</time>
      </trkpt>
      <trkpt lat="47.28597" lon="6.13381">
        <ele>311.9</ele>
        <time>2013-06-09T08:01:03.000Z</time>
      </trkpt>
      <trkpt lat="47.28598" lon="6.13381">
        <ele>311.9</ele>
        <time>2013-06-09T08:01:04.000Z</time>
      </trkpt>
      <trkpt lat="47.28602" lon="6.13381">
        <ele>310.9</ele>
        <time>2013-06-09T08:01:07.000Z</time>
      </trkpt>
      <trkpt lat="47.28603" lon="6.13381">
        <ele>310.7</ele>
        <time>2013-06-09T08:01:08.000Z</time>
      </trkpt>
      <trkpt lat="47.28607" lon="6.13381">
        <ele>310.7</ele>
        <time>2013-06-09T08:01:11.000Z</time>
      </trkpt>
      <trkpt lat="47.28608" lon="6.13381">
        <ele>310.8</ele>
        <time>2013-06-09T08:01:12.000Z</time>
      </trkpt>
      <trkpt lat="47.28611" lon="6.13381">
        <ele>311.3</ele>
        <time>2013-06-09T08:01:15.000Z</time>
      </trkpt>
      <trkpt lat="47.28613" lon="6.13381">
        <ele>311.6</ele>
        <time>2013-06-09T08:01:16.000Z</time>
      </trkpt>
      <trkpt lat="47.28617" lon="6.13381">
        <ele>311.6</ele>
        <time>2013-06-09T08:01:19.000Z</time>
      </trkpt>
      <trkpt lat="47.28618" lon="6.13381">
        <ele>311.7</ele>
        <time>2013-06-09T08:01:20.000Z</time>
      </trkpt>
      <trkpt lat="47.28621" lon="6.13381">
        <ele>311.5</ele>
        <time>2013-06-09T08:01:23.000Z</time>
      </trkpt>
      <trkpt lat="47.28623" lon="6.13381">
        <ele>311.5</ele>
        <time>2013-06-09T08:01:24.000Z</time>
      </trkpt>
      <trkpt lat="47.28626" lon="6.13381">
        <ele>311.6</ele>
        <time>2013-06-09T08:01:27.000Z</time>
      </trkpt>
      <trkpt lat="47.28628" lon="6.13381">
        <ele>311.7</ele>
        <time>2013-06-09T08:01:28.000Z</time>
      </trkpt>
      <trkpt lat="47.28631" lon="6.13381">
        <ele>311.7</ele>
        <time>2013-06-09T08:01:31.000Z</time>
      </trkpt>
      <trkpt lat="47.28632" lon="6.13381">
        <ele>311.7</ele>
        <time>2013-06-09T08:01:32.000Z</time>
      </trkpt>
      <trkpt lat="47.28636" lon="6.13381">
        <ele>311.6</ele>
        <time>2013-06-09T08:01:35.000Z</time>
      </trkpt>
      <trkpt lat="47.28637" lon="6.1338">
        <ele>311.6</ele>
        <time>2013-06-09T08:01:36.000Z</time>
      </trkpt>
      <trkpt lat="47.28641" lon="6.1338">
        <ele>311.6</ele>
        <time>2013-06-09T08:01:39.000Z</time>
      </trkpt>
      <trkpt lat="47.28642" lon="6.1338">
        <ele>311.5</ele>
        <time>2013-06-09T08:01:40.000Z</time>
      </trkpt>
      <trkpt lat="47.28646" lon="6.13379">
        <ele>311.4</ele>
        <time>2013-06-09T08:01:43.000Z</time>
      </trkpt>
      <trkpt lat="47.28647" lon="6.13379">
        <ele>311.3</ele>
        <time>2013-06-09T08:01:44.000Z</time>
      </trkpt>
      <trkpt lat="47.28651" lon="6.13379">
        <ele>311.5</ele>
        <time>2013-06-09T08:01:47.000Z</time>
      </trkpt>
      <trkpt lat="47.28652" lon="6.13379">
        <ele>311.5</ele>
        <time>2013-06-09T08:01:48.000Z</time>
      </trkpt>
      <trkpt lat="47.28656" lon="6.13378">
        <ele>311.2</ele>
        <time>2013-06-09T08:01:51.000Z</time>
      </trkpt>
      <trkpt lat="47.28657" lon="6.13378">
        <ele>311.3</ele>
        <time>2013-06-09T08:01:52.000Z</time>
      </trkpt>
      <trkpt lat="47.28661" lon="6.13378">
        <ele>311.6</ele>
        <time>2013-06-09T08:01:55.000Z</time>
      </trkpt>
      <trkpt lat="47.28662" lon="6.13378">
        <ele>311.8</ele>
        <time>2013-06-09T08:01:56.000Z</time>
      </trkpt>
      <trkpt lat="47.28665" lon="6.13377">
        <ele>312.7</ele>
        <time>2013-06-09T08:01:59.000Z</time>
      </trkpt>
      <trkpt lat="47.28667" lon="6.13377">
        <ele>313.1</ele>
        <time>2013-06-09T08:02:00.000Z</time>
      </trkpt>
      <trkpt lat="47.2867" lon="6.13378">
        <ele>313.7</ele>
        <time>2013-06-09T08:02:03.000Z</time>
      </trkpt>
      <trkpt lat="47.28671" lon="6.13378">
        <ele>313.9</ele>
        <time>2013-06-09T08:02:04.000Z</time>
      </trkpt>
      <trkpt lat="47.28674" lon="6.13378">
        <ele>314.4</ele>
        <time>2013-06-09T08:02:07.000Z</time>
      </trkpt>
      <trkpt lat="47.28676" lon="6.13379">
        <ele>314.5</ele>
        <time>2013-06-09T08:02:08.000Z</time>
      </trkpt>
      <trkpt lat="47.28679" lon="6.13379">
        <ele>314.7</ele>
        <time>2013-06-09T08:02:11.000Z</time>
      </trkpt>
      <trkpt lat="47.2868" lon="6.13379">
        <ele>314.8</ele>
        <time>2013-06-09T08:02:12.000Z</time>
      </trkpt>
      <trkpt lat="47.28684" lon="6.13379">
        <ele>315.1</ele>
        <time>2013-06-09T08:02:15.000Z</time>
      </trkpt>
      <trkpt lat="47.28685" lon="6.13379">
        <ele>315.4</ele>
        <time>2013-06-09T08:02:16.000Z</time>
      </trkpt>
      <trkpt lat="47.28688" lon="6.13379">
        <ele>315.7</ele>
        <time>2013-06-09T08:02:19.000Z</time>
      </trkpt>
      <trkpt lat="47.28689" lon="6.13379">
        <ele>315.8</ele>
        <time>2013-06-09T08:02:20.000Z</time>
      </trkpt>
      <trkpt lat="47.28693" lon="6.13379">
        <ele>315.2</ele>
        <time>2013-06-09T08:02:23.000Z</time>
      </trkpt>
      <trkpt lat="47.28694" lon="6.13379">
        <ele>315.3</ele>
        <time>2013-06-09T08:02:24.000Z</time>
      </trkpt>
      <trkpt lat="47.28698" lon="6.13378">
        <ele>315.4</ele>
        <time>2013-06-09T08:02:27.000Z</time>
      </trkpt>
      <trkpt lat="47.28699" lon="6.13378">
        <ele>315.2</ele>
        <time>2013-06-09T08:02:28.000Z</time>
      </trkpt>
      <trkpt lat="47.28703" lon="6.13378">
        <ele>314.2</ele>
        <time>2013-06-09T08:02:31.000Z</time>
      </trkpt>
      <trkpt lat="47.28705" lon="6.13378">
        <ele>314</ele>
        <time>2013-06-09T08:02:32.000Z</time>
      </trkpt>
      <trkpt lat="47.28709" lon="6.13378">
        <ele>313.6</ele>
        <time>2013-06-09T08:02:35.000Z</time>
      </trkpt>
      <trkpt lat="47.2871" lon="6.13378">
        <ele>313.4</ele>
        <time>2013-06-09T08:02:36.000Z</time>
      </trkpt>
      <trkpt lat="47.28714" lon="6.13378">
        <ele>312.9</ele>
        <time>2013-06-09T08:02:39.000Z</time>
      </trkpt>
      <trkpt lat="47.28715" lon="6.13378">
        <ele>312.8</ele>
        <time>2013-06-09T08:02:40.000Z</time>
      </trkpt>
      <trkpt lat="47.28719" lon="6.13378">
        <ele>312.6</ele>
        <time>2013-06-09T08:02:43.000Z</time>
      </trkpt>
      <trkpt lat="47.28721" lon="6.13377">
        <ele>312.5</ele>
        <time>2013-06-09T08:02:44.000Z</time>
      </trkpt>
      <trkpt lat="47.28724" lon="6.13377">
        <ele>312.2</ele>
        <time>2013-06-09T08:02:47.000Z</time>
      </trkpt>
      <trkpt lat="47.28726" lon="6.13377">
        <ele>312.3</ele>
        <time>2013-06-09T08:02:48.000Z</time>
      </trkpt>
      <trkpt lat="47.28729" lon="6.13375">
        <ele>312.5</ele>
        <time>2013-06-09T08:02:51.000Z</time>
      </trkpt>
      <trkpt lat="47.2873" lon="6.13374">
        <ele>312.5</ele>
        <time>2013-06-09T08:02:52.000Z</time>
      </trkpt>
      <trkpt lat="47.28734" lon="6.13372">
        <ele>312.5</ele>
        <time>2013-06-09T08:02:55.000Z</time>
      </trkpt>
      <trkpt lat="47.28735" lon="6.13371">
        <ele>312.6</ele>
        <time>2013-06-09T08:02:56.000Z</time>
      </trkpt>
      <trkpt lat="47.28738" lon="6.13369">
        <ele>313</ele>
        <time>2013-06-09T08:02:59.000Z</time>
      </trkpt>
      <trkpt lat="47.28739" lon="6.13368">
        <ele>313.2</ele>
        <time>2013-06-09T08:03:00.000Z</time>
      </trkpt>
      <trkpt lat="47.28743" lon="6.13365">
        <ele>313.6</ele>
        <time>2013-06-09T08:03:04.000Z</time>
      </trkpt>
      <trkpt lat="47.28744" lon="6.13365">
        <ele>313.8</ele>
        <time>2013-06-09T08:03:05.000Z</time>
      </trkpt>
      <trkpt lat="47.28748" lon="6.13364">
        <ele>314.6</ele>
        <time>2013-06-09T08:03:09.000Z</time>
      </trkpt>
      <trkpt lat="47.28749" lon="6.13364">
        <ele>315</ele>
        <time>2013-06-09T08:03:10.000Z</time>
      </trkpt>
      <trkpt lat="47.28752" lon="6.13368">
        <ele>315.2</ele>
        <time>2013-06-09T08:03:13.000Z</time>
      </trkpt>
      <trkpt lat="47.28753" lon="6.13369">
        <ele>314.7</ele>
        <time>2013-06-09T08:03:14.000Z</time>
      </trkpt>
      <trkpt lat="47.28755" lon="6.13373">
        <ele>312.7</ele>
        <time>2013-06-09T08:03:17.000Z</time>
      </trkpt>
      <trkpt lat="47.28756" lon="6.13374">
        <ele>312.3</ele>
        <time>2013-06-09T08:03:18.000Z</time>
      </trkpt>
      <trkpt lat="47.28759" lon="6.13378">
        <ele>311.4</ele>
        <time>2013-06-09T08:03:21.000Z</time>
      </trkpt>
      <trkpt lat="47.2876" lon="6.13379">
        <ele>311.2</ele>
        <time>2013-06-09T08:03:22.000Z</time>
      </trkpt>
      <trkpt lat="47.28764" lon="6.1338">
        <ele>310.6</ele>
        <time>2013-06-09T08:03:25.000Z</time>
      </trkpt>
      <trkpt lat="47.28765" lon="6.1338">
        <ele>310.4</ele>
        <time>2013-06-09T08:03:26.000Z</time>
      </trkpt>
      <trkpt lat="47.28768" lon="6.1338">
        <ele>310.4</ele>
        <time>2013-06-09T08:03:29.000Z</time>
      </trkpt>
      <trkpt lat="47.28769" lon="6.1338">
        <ele>310.5</ele>
        <time>2013-06-09T08:03:30.000Z</time>
      </trkpt>
      <trkpt lat="47.28773" lon="6.13378">
        <ele>311</ele>
        <time>2013-06-09T08:03:33.000Z</time>
      </trkpt>
      <trkpt lat="47.28774" lon="6.13378">
        <ele>311</ele>
        <time>2013-06-09T08:03:34.000Z</time>
      </trkpt>
      <trkpt lat="47.28777" lon="6.13377">
        <ele>311.3</ele>
        <time>2013-06-09T08:03:37.000Z</time>
      </trkpt>
      <trkpt lat="47.28778" lon="6.13377">
        <ele>311.6</ele>
        <time>2013-06-09T08:03:38.000Z</time>
      </trkpt>
      <trkpt lat="47.28783" lon="6.13378">
        <ele>313.1</ele>
        <time>2013-06-09T08:03:42.000Z</time>
      </trkpt>
      <trkpt lat="47.28784" lon="6.13378">
        <ele>313.5</ele>
        <time>2013-06-09T08:03:43.000Z</time>
      </trkpt>
      <trkpt lat="47.28787" lon="6.13377">
        <ele>314.6</ele>
        <time>2013-06-09T08:03:46.000Z</time>
      </trkpt>
      <trkpt lat="47.28788" lon="6.13377">
        <ele>314.9</ele>
        <time>2013-06-09T08:03:47.000Z</time>
      </trkpt>
      <trkpt lat="47.28792" lon="6.13376">
        <ele>314.8</ele>
        <time>2013-06-09T08:03:51.000Z</time>
      </trkpt>
      <trkpt lat="47.28794" lon="6.13376">
        <ele>314.5</ele>
        <time>2013-06-09T08:03:52.000Z</time>
      </trkpt>
      <trkpt lat="47.28797" lon="6.13375">
        <ele>315.2</ele>
        <time>2013-06-09T08:03:55.000Z</time>
      </trkpt>
      <trkpt lat="47.28798" lon="6.13375">
        <ele>315.5</ele>
        <time>2013-06-09T08:03:56.000Z</time>
      </trkpt>
      <trkpt lat="47.28802" lon="6.13375">
        <ele>315.6</ele>
        <time>2013-06-09T08:03:59.000Z</time>
      </trkpt>
      <trkpt lat="47.28803" lon="6.13375">
        <ele>315.7</ele>
        <time>2013-06-09T08:04:00.000Z</time>
      </trkpt>
      <trkpt lat="47.28806" lon="6.13374">
        <ele>316.2</ele>
        <time>2013-06-09T08:04:03.000Z</time>
      </trkpt>
      <trkpt lat="47.28808" lon="6.13374">
        <ele>316.1</ele>
        <time>2013-06-09T08:04:04.000Z</time>
      </trkpt>
      <trkpt lat="47.28811" lon="6.13374">
        <ele>315.8</ele>
        <time>2013-06-09T08:04:07.000Z</time>
      </trkpt>
      <trkpt lat="47.28812" lon="6.13373">
        <ele>315.8</ele>
        <time>2013-06-09T08:04:08.000Z</time>
      </trkpt>
      <trkpt lat="47.28816" lon="6.13373">
        <ele>315.9</ele>
        <time>2013-06-09T08:04:11.000Z</time>
      </trkpt>
      <trkpt lat="47.28817" lon="6.13373">
        <ele>316.3</ele>
        <time>2013-06-09T08:04:12.000Z</time>
      </trkpt>
      <trkpt lat="47.28821" lon="6.13373">
        <ele>316.9</ele>
        <time>2013-06-09T08:04:15.000Z</time>
      </trkpt>
      <trkpt lat="47.28823" lon="6.13372">
        <ele>316.7</ele>
        <time>2013-06-09T08:04:16.000Z</time>
      </trkpt>
      <trkpt lat="47.28826" lon="6.13371">
        <ele>316.2</ele>
        <time>2013-06-09T08:04:19.000Z</time>
      </trkpt>
      <trkpt lat="47.28828" lon="6.13371">
        <ele>316.4</ele>
        <time>2013-06-09T08:04:20.000Z</time>
      </trkpt>
      <trkpt lat="47.28831" lon="6.1337">
        <ele>317.2</ele>
        <time>2013-06-09T08:04:23.000Z</time>
      </trkpt>
      <trkpt lat="47.28833" lon="6.1337">
        <ele>317.7</ele>
        <time>2013-06-09T08:04:24.000Z</time>
      </trkpt>
      <trkpt lat="47.28836" lon="6.1337">
        <ele>318.3</ele>
        <time>2013-06-09T08:04:27.000Z</time>
      </trkpt>
      <trkpt lat="47.28838" lon="6.1337">
        <ele>318.5</ele>
        <time>2013-06-09T08:04:28.000Z</time>
      </trkpt>
      <trkpt lat="47.28841" lon="6.1337">
        <ele>319.2</ele>
        <time>2013-06-09T08:04:31.000Z</time>
      </trkpt>
      <trkpt lat="47.28842" lon="6.1337">
        <ele>319.4</ele>
        <time>2013-06-09T08:04:32.000Z</time>
      </trkpt>
      <trkpt lat="47.28846" lon="6.13369">
        <ele>319.8</ele>
        <time>2013-06-09T08:04:35.000Z</time>
      </trkpt>
      <trkpt lat="47.28847" lon="6.13369">
        <ele>320.1</ele>
        <time>2013-06-09T08:04:36.000Z</time>
      </trkpt>
      <trkpt lat="47.28851" lon="6.13369">
        <ele>320.2</ele>
        <time>2013-06-09T08:04:39.000Z</time>
      </trkpt>
      <trkpt lat="47.28852" lon="6.13369">
        <ele>320.2</ele>
        <time>2013-06-09T08:04:40.000Z</time>
      </trkpt>
      <trkpt lat="47.28856" lon="6.13369">
        <ele>320.8</ele>
        <time>2013-06-09T08:04:43.000Z</time>
      </trkpt>
      <trkpt lat="47.28857" lon="6.13369">
        <ele>320.8</ele>
        <time>2013-06-09T08:04:44.000Z</time>
      </trkpt>
      <trkpt lat="47.28861" lon="6.13368">
        <ele>320.3</ele>
        <time>2013-06-09T08:04:47.000Z</time>
      </trkpt>
      <trkpt lat="47.28862" lon="6.13368">
        <ele>320.5</ele>
        <time>2013-06-09T08:04:48.000Z</time>
      </trkpt>
      <trkpt lat="47.28865" lon="6.13368">
        <ele>320.1</ele>
        <time>2013-06-09T08:04:51.000Z</time>
      </trkpt>
      <trkpt lat="47.28867" lon="6.13368">
        <ele>320</ele>
        <time>2013-06-09T08:04:52.000Z</time>
      </trkpt>
      <trkpt lat="47.2887" lon="6.1337">
        <ele>320.3</ele>
        <time>2013-06-09T08:04:55.000Z</time>
      </trkpt>
      <trkpt lat="47.28871" lon="6.1337">
        <ele>320.1</ele>
        <time>2013-06-09T08:04:56.000Z</time>
      </trkpt>
      <trkpt lat="47.28874" lon="6.13372">
        <ele>319.5</ele>
        <time>2013-06-09T08:04:59.000Z</time>
      </trkpt>
      <trkpt lat="47.28875" lon="6.13373">
        <ele>319.5</ele>
        <time>2013-06-09T08:05:00.000Z</time>
      </trkpt>
      <trkpt lat="47.28878" lon="6.13376">
        <ele>319.6</ele>
        <time>2013-06-09T08:05:03.000Z</time>
      </trkpt>
      <trkpt lat="47.28879" lon="6.13378">
        <ele>319.4</ele>
        <time>2013-06-09T08:05:04.000Z</time>
      </trkpt>
      <trkpt lat="47.28883" lon="6.13375">
        <ele>318.6</ele>
        <time>2013-06-09T08:05:10.000Z</time>
      </trkpt>
      <trkpt lat="47.28883" lon="6.13373">
        <ele>318.6</ele>
        <time>2013-06-09T08:05:11.000Z</time>
      </trkpt>
      <trkpt lat="47.28882" lon="6.13367">
        <ele>318.8</ele>
        <time>2013-06-09T08:05:14.000Z</time>
      </trkpt>
      <trkpt lat="47.28881" lon="6.13366">
        <ele>318.8</ele>
        <time>2013-06-09T08:05:15.000Z</time>
      </trkpt>
      <trkpt lat="47.2888" lon="6.1336">
        <ele>318.5</ele>
        <time>2013-06-09T08:05:18.000Z</time>
      </trkpt>
      <trkpt lat="47.28879" lon="6.13359">
        <ele>318.5</ele>
        <time>2013-06-09T08:05:19.000Z</time>
      </trkpt>
      <trkpt lat="47.28877" lon="6.13354">
        <ele>318.6</ele>
        <time>2013-06-09T08:05:22.000Z</time>
      </trkpt>
      <trkpt lat="47.28877" lon="6.13352">
        <ele>318.7</ele>
        <time>2013-06-09T08:05:23.000Z</time>
      </trkpt>
      <trkpt lat="47.28874" lon="6.13347">
        <ele>318.7</ele>
        <time>2013-06-09T08:05:26.000Z</time>
      </trkpt>
      <trkpt lat="47.28874" lon="6.13346">
        <ele>318.6</ele>
        <time>2013-06-09T08:05:27.000Z</time>
      </trkpt>
      <trkpt lat="47.28871" lon="6.13341">
        <ele>318.2</ele>
        <time>2013-06-09T08:05:30.000Z</time>
      </trkpt>
      <trkpt lat="47.28871" lon="6.1334">
        <ele>318.3</ele>
        <time>2013-06-09T08:05:31.000Z</time>
      </trkpt>
      <trkpt lat="47.28868" lon="6.13335">
        <ele>318.4</ele>
        <time>2013-06-09T08:05:34.000Z</time>
      </trkpt>
      <trkpt lat="47.28867" lon="6.13334">
        <ele>318.6</ele>
        <time>2013-06-09T08:05:35.000Z</time>
      </trkpt>
      <trkpt lat="47.28865" lon="6.13329">
        <ele>318.9</ele>
        <time>2013-06-09T08:05:38.000Z</time>
      </trkpt>
      <trkpt lat="47.28864" lon="6.13327">
        <ele>318.9</ele>
        <time>2013-06-09T08:05:39.000Z</time>
      </trkpt>
      <trkpt lat="47.28862" lon="6.13323">
        <ele>318.5</ele>
        <time>2013-06-09T08:05:42.000Z</time>
      </trkpt>
      <trkpt lat="47.28861" lon="6.13321">
        <ele>318.6</ele>
        <time>2013-06-09T08:05:43.000Z</time>
      </trkpt>
      <trkpt lat="47.28859" lon="6.13317">
        <ele>318.7</ele>
        <time>2013-06-09T08:05:46.000Z</time>
      </trkpt>
      <trkpt lat="47.28858" lon="6.13315">
        <ele>318.7</ele>
        <time>2013-06-09T08:05:47.000Z</time>
      </trkpt>
      <trkpt lat="47.28856" lon="6.13311">
        <ele>318.7</ele>
        <time>2013-06-09T08:05:50.000Z</time>
      </trkpt>
      <trkpt lat="47.28855" lon="6.13309">
        <ele>318.7</ele>
        <time>2013-06-09T08:05:51.000Z</time>
      </trkpt>
      <trkpt lat="47.28853" lon="6.13305">
        <ele>318.6</ele>
        <time>2013-06-09T08:05:54.000Z</time>
      </trkpt>
      <trkpt lat="47.28852" lon="6.13303">
        <ele>318.4</ele>
        <time>2013-06-09T08:05:55.000Z</time>
      </trkpt>
      <trkpt lat="47.28849" lon="6.13298">
        <ele>318.5</ele>
        <time>2013-06-09T08:05:59.000Z</time>
      </trkpt>
      <trkpt lat="47.28849" lon="6.13297">
        <ele>318.4</ele>
        <time>2013-06-09T08:06:00.000Z</time>
      </trkpt>
      <trkpt lat="47.28846" lon="6.13293">
        <ele>318.2</ele>
        <time>2013-06-09T08:06:03.000Z</time>
      </trkpt>
      <trkpt lat="47.28846" lon="6.13291">
        <ele>318.5</ele>
        <time>2013-06-09T08:06:04.000Z</time>
      </trkpt>
      <trkpt lat="47.28843" lon="6.13287">
        <ele>318.6</ele>
        <time>2013-06-09T08:06:07.000Z</time>
      </trkpt>
      <trkpt lat="47.28843" lon="6.13286">
        <ele>318.6</ele>
        <time>2013-06-09T08:06:08.000Z</time>
      </trkpt>
      <trkpt lat="47.2884" lon="6.13281">
        <ele>318.8</ele>
        <time>2013-06-09T08:06:11.000Z</time>
      </trkpt>
      <trkpt lat="47.2884" lon="6.1328">
        <ele>318.8</ele>
        <time>2013-06-09T08:06:12.000Z</time>
      </trkpt>
      <trkpt lat="47.28837" lon="6.13275">
        <ele>318.9</ele>
        <time>2013-06-09T08:06:15.000Z</time>
      </trkpt>
      <trkpt lat="47.28836" lon="6.13273">
        <ele>319</ele>
        <time>2013-06-09T08:06:16.000Z</time>
      </trkpt>
      <trkpt lat="47.28834" lon="6.13268">
        <ele>319.1</ele>
        <time>2013-06-09T08:06:19.000Z</time>
      </trkpt>
      <trkpt lat="47.28833" lon="6.13267">
        <ele>319.2</ele>
        <time>2013-06-09T08:06:20.000Z</time>
      </trkpt>
      <trkpt lat="47.28831" lon="6.13262">
        <ele>319.3</ele>
        <time>2013-06-09T08:06:23.000Z</time>
      </trkpt>
      <trkpt lat="47.2883" lon="6.1326">
        <ele>319.3</ele>
        <time>2013-06-09T08:06:24.000Z</time>
      </trkpt>
      <trkpt lat="47.28828" lon="6.13255">
        <ele>319.2</ele>
        <time>2013-06-09T08:06:27.000Z</time>
      </trkpt>
      <trkpt lat="47.28827" lon="6.13253">
        <ele>319.3</ele>
        <time>2013-06-09T08:06:28.000Z</time>
      </trkpt>
      <trkpt lat="47.28825" lon="6.13248">
        <ele>319.3</ele>
        <time>2013-06-09T08:06:31.000Z</time>
      </trkpt>
      <trkpt lat="47.28824" lon="6.13246">
        <ele>319.5</ele>
        <time>2013-06-09T08:06:32.000Z</time>
      </trkpt>
      <trkpt lat="47.28822" lon="6.13241">
        <ele>319.3</ele>
        <time>2013-06-09T08:06:35.000Z</time>
      </trkpt>
      <trkpt lat="47.28821" lon="6.1324">
        <ele>319.3</ele>
        <time>2013-06-09T08:06:36.000Z</time>
      </trkpt>
      <trkpt lat="47.28819" lon="6.13235">
        <ele>319.1</ele>
        <time>2013-06-09T08:06:39.000Z</time>
      </trkpt>
      <trkpt lat="47.28818" lon="6.13233">
        <ele>319.3</ele>
        <time>2013-06-09T08:06:40.000Z</time>
      </trkpt>
      <trkpt lat="47.28816" lon="6.13229">
        <ele>319</ele>
        <time>2013-06-09T08:06:43.000Z</time>
      </trkpt>
      <trkpt lat="47.28815" lon="6.13228">
        <ele>319.1</ele>
        <time>2013-06-09T08:06:44.000Z</time>
      </trkpt>
      <trkpt lat="47.28813" lon="6.13223">
        <ele>319.1</ele>
        <time>2013-06-09T08:06:47.000Z</time>
      </trkpt>
      <trkpt lat="47.28812" lon="6.13221">
        <ele>319.1</ele>
        <time>2013-06-09T08:06:48.000Z</time>
      </trkpt>
      <trkpt lat="47.2881" lon="6.13217">
        <ele>319.4</ele>
        <time>2013-06-09T08:06:51.000Z</time>
      </trkpt>
      <trkpt lat="47.28809" lon="6.13215">
        <ele>319.6</ele>
        <time>2013-06-09T08:06:52.000Z</time>
      </trkpt>
      <trkpt lat="47.28807" lon="6.1321">
        <ele>319.8</ele>
        <time>2013-06-09T08:06:55.000Z</time>
      </trkpt>
      <trkpt lat="47.28806" lon="6.13209">
        <ele>319.9</ele>
        <time>2013-06-09T08:06:56.000Z</time>
      </trkpt>
      <trkpt lat="47.28804" lon="6.13204">
        <ele>320.3</ele>
        <time>2013-06-09T08:06:59.000Z</time>
      </trkpt>
      <trkpt lat="47.28803" lon="6.13203">
        <ele>320.3</ele>
        <time>2013-06-09T08:07:00.000Z</time>
      </trkpt>
      <trkpt lat="47.28801" lon="6.13198">
        <ele>320.3</ele>
        <time>2013-06-09T08:07:03.000Z</time>
      </trkpt>
      <trkpt lat="47.288" lon="6.13197">
        <ele>320.3</ele>
        <time>2013-06-09T08:07:04.000Z</time>
      </trkpt>
      <trkpt lat="47.28797" lon="6.13193">
        <ele>320.4</ele>
        <time>2013-06-09T08:07:08.000Z</time>
      </trkpt>
      <trkpt lat="47.28796" lon="6.13192">
        <ele>320.3</ele>
        <time>2013-06-09T08:07:09.000Z</time>
      </trkpt>
      <trkpt lat="47.28794" lon="6.13186">
        <ele>320.1</ele>
        <time>2013-06-09T08:07:12.000Z</time>
      </trkpt>
      <trkpt lat="47.28793" lon="6.13184">
        <ele>320</ele>
        <time>2013-06-09T08:07:13.000Z</time>
      </trkpt>
      <trkpt lat="47.28791" lon="6.13179">
        <ele>320.6</ele>
        <time>2013-06-09T08:07:16.000Z</time>
      </trkpt>
      <trkpt lat="47.2879" lon="6.13178">
        <ele>320.7</ele>
        <time>2013-06-09T08:07:17.000Z</time>
      </trkpt>
      <trkpt lat="47.28788" lon="6.13173">
        <ele>320.6</ele>
        <time>2013-06-09T08:07:20.000Z</time>
      </trkpt>
      <trkpt lat="47.28788" lon="6.13171">
        <ele>320.6</ele>
        <time>2013-06-09T08:07:21.000Z</time>
      </trkpt>
      <trkpt lat="47.28785" lon="6.13167">
        <ele>320.6</ele>
        <time>2013-06-09T08:07:24.000Z</time>
      </trkpt>
      <trkpt lat="47.28785" lon="6.13165">
        <ele>320.6</ele>
        <time>2013-06-09T08:07:25.000Z</time>
      </trkpt>
      <trkpt lat="47.28782" lon="6.13161">
        <ele>320.9</ele>
        <time>2013-06-09T08:07:28.000Z</time>
      </trkpt>
      <trkpt lat="47.28782" lon="6.13159">
        <ele>320.8</ele>
        <time>2013-06-09T08:07:29.000Z</time>
      </trkpt>
      <trkpt lat="47.28779" lon="6.13155">
        <ele>321.2</ele>
        <time>2013-06-09T08:07:32.000Z</time>
      </trkpt>
      <trkpt lat="47.28778" lon="6.13153">
        <ele>321.3</ele>
        <time>2013-06-09T08:07:33.000Z</time>
      </trkpt>
      <trkpt lat="47.28776" lon="6.13149">
        <ele>321.3</ele>
        <time>2013-06-09T08:07:36.000Z</time>
      </trkpt>
      <trkpt lat="47.28775" lon="6.13147">
        <ele>321.3</ele>
        <time>2013-06-09T08:07:37.000Z</time>
      </trkpt>
      <trkpt lat="47.28773" lon="6.13143">
        <ele>321.3</ele>
        <time>2013-06-09T08:07:40.000Z</time>
      </trkpt>
      <trkpt lat="47.28772" lon="6.13141">
        <ele>321.1</ele>
        <time>2013-06-09T08:07:41.000Z</time>
      </trkpt>
      <trkpt lat="47.28769" lon="6.13136">
        <ele>321.2</ele>
        <time>2013-06-09T08:07:44.000Z</time>
      </trkpt>
      <trkpt lat="47.28768" lon="6.13135">
        <ele>321.3</ele>
        <time>2013-06-09T08:07:45.000Z</time>
      </trkpt>
      <trkpt lat="47.28766" lon="6.1313">
        <ele>321.2</ele>
        <time>2013-06-09T08:07:48.000Z</time>
      </trkpt>
      <trkpt lat="47.28765" lon="6.13128">
        <ele>321.1</ele>
        <time>2013-06-09T08:07:49.000Z</time>
      </trkpt>
      <trkpt lat="47.28762" lon="6.13124">
        <ele>321</ele>
        <time>2013-06-09T08:07:52.000Z</time>
      </trkpt>
      <trkpt lat="47.28761" lon="6.13122">
        <ele>321</ele>
        <time>2013-06-09T08:07:53.000Z</time>
      </trkpt>
      <trkpt lat="47.28759" lon="6.13117">
        <ele>320.8</ele>
        <time>2013-06-09T08:07:56.000Z</time>
      </trkpt>
      <trkpt lat="47.28758" lon="6.13116">
        <ele>320.7</ele>
        <time>2013-06-09T08:07:57.000Z</time>
      </trkpt>
      <trkpt lat="47.28756" lon="6.13111">
        <ele>320.6</ele>
        <time>2013-06-09T08:08:00.000Z</time>
      </trkpt>
      <trkpt lat="47.28755" lon="6.13109">
        <ele>320.6</ele>
        <time>2013-06-09T08:08:01.000Z</time>
      </trkpt>
      <trkpt lat="47.28752" lon="6.13105">
        <ele>320.8</ele>
        <time>2013-06-09T08:08:04.000Z</time>
      </trkpt>
      <trkpt lat="47.28751" lon="6.13103">
        <ele>320.7</ele>
        <time>2013-06-09T08:08:05.000Z</time>
      </trkpt>
      <trkpt lat="47.28749" lon="6.13099">
        <ele>320.9</ele>
        <time>2013-06-09T08:08:08.000Z</time>
      </trkpt>
      <trkpt lat="47.28748" lon="6.13097">
        <ele>321</ele>
        <time>2013-06-09T08:08:09.000Z</time>
      </trkpt>
      <trkpt lat="47.28745" lon="6.13093">
        <ele>321.1</ele>
        <time>2013-06-09T08:08:12.000Z</time>
      </trkpt>
      <trkpt lat="47.28745" lon="6.13091">
        <ele>321</ele>
        <time>2013-06-09T08:08:13.000Z</time>
      </trkpt>
      <trkpt lat="47.28742" lon="6.13087">
        <ele>320.8</ele>
        <time>2013-06-09T08:08:16.000Z</time>
      </trkpt>
      <trkpt lat="47.28742" lon="6.13085">
        <ele>320.7</ele>
        <time>2013-06-09T08:08:17.000Z</time>
      </trkpt>
      <trkpt lat="47.28739" lon="6.1308">
        <ele>320.5</ele>
        <time>2013-06-09T08:08:20.000Z</time>
      </trkpt>
      <trkpt lat="47.28738" lon="6.13079">
        <ele>320.5</ele>
        <time>2013-06-09T08:08:21.000Z</time>
      </trkpt>
      <trkpt lat="47.28736" lon="6.13074">
        <ele>320.7</ele>
        <time>2013-06-09T08:08:24.000Z</time>
      </trkpt>
      <trkpt lat="47.28735" lon="6.13072">
        <ele>320.8</ele>
        <time>2013-06-09T08:08:25.000Z</time>
      </trkpt>
      <trkpt lat="47.28733" lon="6.13068">
        <ele>321</ele>
        <time>2013-06-09T08:08:28.000Z</time>
      </trkpt>
      <trkpt lat="47.28732" lon="6.13066">
        <ele>321.1</ele>
        <time>2013-06-09T08:08:29.000Z</time>
      </trkpt>
      <trkpt lat="47.2873" lon="6.13061">
        <ele>321.4</ele>
        <time>2013-06-09T08:08:32.000Z</time>
      </trkpt>
      <trkpt lat="47.2873" lon="6.1306">
        <ele>321.5</ele>
        <time>2013-06-09T08:08:33.000Z</time>
      </trkpt>
      <trkpt lat="47.28727" lon="6.13055">
        <ele>321.6</ele>
        <time>2013-06-09T08:08:36.000Z</time>
      </trkpt>
      <trkpt lat="47.28727" lon="6.13053">
        <ele>321.6</ele>
        <time>2013-06-09T08:08:37.000Z</time>
      </trkpt>
      <trkpt lat="47.28724" lon="6.13049">
        <ele>321.5</ele>
        <time>2013-06-09T08:08:40.000Z</time>
      </trkpt>
      <trkpt lat="47.28724" lon="6.13048">
        <ele>321.4</ele>
        <time>2013-06-09T08:08:41.000Z</time>
      </trkpt>
      <trkpt lat="47.28721" lon="6.13044">
        <ele>321.6</ele>
        <time>2013-06-09T08:08:44.000Z</time>
      </trkpt>
      <trkpt lat="47.28719" lon="6.13043">
        <ele>321.7</ele>
        <time>2013-06-09T08:08:45.000Z</time>
      </trkpt>
      <trkpt lat="47.28716" lon="6.1304">
        <ele>321.7</ele>
        <time>2013-06-09T08:08:48.000Z</time>
      </trkpt>
      <trkpt lat="47.28714" lon="6.13039">
        <ele>321.5</ele>
        <time>2013-06-09T08:08:49.000Z</time>
      </trkpt>
      <trkpt lat="47.28711" lon="6.13035">
        <ele>321</ele>
        <time>2013-06-09T08:08:52.000Z</time>
      </trkpt>
      <trkpt lat="47.2871" lon="6.13034">
        <ele>321</ele>
        <time>2013-06-09T08:08:53.000Z</time>
      </trkpt>
      <trkpt lat="47.28707" lon="6.1303">
        <ele>321.3</ele>
        <time>2013-06-09T08:08:56.000Z</time>
      </trkpt>
      <trkpt lat="47.28706" lon="6.13029">
        <ele>321.2</ele>
        <time>2013-06-09T08:08:57.000Z</time>
      </trkpt>
      <trkpt lat="47.28703" lon="6.13025">
        <ele>321.4</ele>
        <time>2013-06-09T08:09:00.000Z</time>
      </trkpt>
      <trkpt lat="47.28702" lon="6.13024">
        <ele>321.5</ele>
        <time>2013-06-09T08:09:01.000Z</time>
      </trkpt>
      <trkpt lat="47.287" lon="6.1302">
        <ele>321.8</ele>
        <time>2013-06-09T08:09:04.000Z</time>
      </trkpt>
      <trkpt lat="47.28699" lon="6.13018">
        <ele>321.8</ele>
        <time>2013-06-09T08:09:05.000Z</time>
      </trkpt>
      <trkpt lat="47.28698" lon="6.13013">
        <ele>321.9</ele>
        <time>2013-06-09T08:09:08.000Z</time>
      </trkpt>
      <trkpt lat="47.28698" lon="6.13011">
        <ele>321.7</ele>
        <time>2013-06-09T08:09:09.000Z</time>
      </trkpt>
      <trkpt lat="47.28699" lon="6.13006">
        <ele>321.8</ele>
        <time>2013-06-09T08:09:12.000Z</time>
      </trkpt>
      <trkpt lat="47.287" lon="6.13005">
        <ele>322</ele>
        <time>2013-06-09T08:09:13.000Z</time>
      </trkpt>
      <trkpt lat="47.28703" lon="6.13001">
        <ele>322</ele>
        <time>2013-06-09T08:09:16.000Z</time>
      </trkpt>
      <trkpt lat="47.28704" lon="6.13">
        <ele>322.3</ele>
        <time>2013-06-09T08:09:17.000Z</time>
      </trkpt>
      <trkpt lat="47.28707" lon="6.12997">
        <ele>322.5</ele>
        <time>2013-06-09T08:09:20.000Z</time>
      </trkpt>
      <trkpt lat="47.28708" lon="6.12996">
        <ele>322.5</ele>
        <time>2013-06-09T08:09:21.000Z</time>
      </trkpt>
      <trkpt lat="47.28711" lon="6.12993">
        <ele>323</ele>
        <time>2013-06-09T08:09:24.000Z</time>
      </trkpt>
      <trkpt lat="47.28712" lon="6.12991">
        <ele>323</ele>
        <time>2013-06-09T08:09:25.000Z</time>
      </trkpt>
      <trkpt lat="47.28716" lon="6.12988">
        <ele>323.1</ele>
        <time>2013-06-09T08:09:28.000Z</time>
      </trkpt>
      <trkpt lat="47.28717" lon="6.12987">
        <ele>323.2</ele>
        <time>2013-06-09T08:09:29.000Z</time>
      </trkpt>
      <trkpt lat="47.2872" lon="6.12984">
        <ele>323.5</ele>
        <time>2013-06-09T08:09:32.000Z</time>
      </trkpt>
      <trkpt lat="47.28721" lon="6.12983">
        <ele>323.6</ele>
        <time>2013-06-09T08:09:33.000Z</time>
      </trkpt>
      <trkpt lat="47.28725" lon="6.1298">
        <ele>324</ele>
        <time>2013-06-09T08:09:36.000Z</time>
      </trkpt>
      <trkpt lat="47.28726" lon="6.12979">
        <ele>324</ele>
        <time>2013-06-09T08:09:37.000Z</time>
      </trkpt>
      <trkpt lat="47.28729" lon="6.12975">
        <ele>324.4</ele>
        <time>2013-06-09T08:09:40.000Z</time>
      </trkpt>
      <trkpt lat="47.2873" lon="6.12974">
        <ele>324.5</ele>
        <time>2013-06-09T08:09:41.000Z</time>
      </trkpt>
      <trkpt lat="47.28733" lon="6.12971">
        <ele>324.5</ele>
        <time>2013-06-09T08:09:44.000Z</time>
      </trkpt>
      <trkpt lat="47.28735" lon="6.1297">
        <ele>324.6</ele>
        <time>2013-06-09T08:09:45.000Z</time>
      </trkpt>
      <trkpt lat="47.28738" lon="6.12967">
        <ele>324.4</ele>
        <time>2013-06-09T08:09:48.000Z</time>
      </trkpt>
      <trkpt lat="47.28739" lon="6.12966">
        <ele>324.5</ele>
        <time>2013-06-09T08:09:49.000Z</time>
      </trkpt>
      <trkpt lat="47.28743" lon="6.12963">
        <ele>324</ele>
        <time>2013-06-09T08:09:52.000Z</time>
      </trkpt>
      <trkpt lat="47.28744" lon="6.12962">
        <ele>324.1</ele>
        <time>2013-06-09T08:09:53.000Z</time>
      </trkpt>
      <trkpt lat="47.28748" lon="6.12959">
        <ele>324.3</ele>
        <time>2013-06-09T08:09:56.000Z</time>
      </trkpt>
      <trkpt lat="47.28749" lon="6.12958">
        <ele>324.5</ele>
        <time>2013-06-09T08:09:57.000Z</time>
      </trkpt>
      <trkpt lat="47.28753" lon="6.12956">
        <ele>325</ele>
        <time>2013-06-09T08:10:00.000Z</time>
      </trkpt>
      <trkpt lat="47.28754" lon="6.12955">
        <ele>325</ele>
        <time>2013-06-09T08:10:01.000Z</time>
      </trkpt>
      <trkpt lat="47.28757" lon="6.12952">
        <ele>325.3</ele>
        <time>2013-06-09T08:10:04.000Z</time>
      </trkpt>
      <trkpt lat="47.28758" lon="6.12951">
        <ele>325.2</ele>
        <time>2013-06-09T08:10:05.000Z</time>
      </trkpt>
      <trkpt lat="47.28762" lon="6.12948">
        <ele>325.3</ele>
        <time>2013-06-09T08:10:08.000Z</time>
      </trkpt>
      <trkpt lat="47.28763" lon="6.12947">
        <ele>325.3</ele>
        <time>2013-06-09T08:10:09.000Z</time>
      </trkpt>
      <trkpt lat="47.28766" lon="6.12944">
        <ele>325.7</ele>
        <time>2013-06-09T08:10:12.000Z</time>
      </trkpt>
      <trkpt lat="47.28767" lon="6.12943">
        <ele>325.7</ele>
        <time>2013-06-09T08:10:13.000Z</time>
      </trkpt>
      <trkpt lat="47.28771" lon="6.12941">
        <ele>326</ele>
        <time>2013-06-09T08:10:16.000Z</time>
      </trkpt>
      <trkpt lat="47.28772" lon="6.1294">
        <ele>326.1</ele>
        <time>2013-06-09T08:10:17.000Z</time>
      </trkpt>
      <trkpt lat="47.28775" lon="6.12937">
        <ele>326.4</ele>
        <time>2013-06-09T08:10:20.000Z</time>
      </trkpt>
      <trkpt lat="47.28777" lon="6.12936">
        <ele>326.5</ele>
        <time>2013-06-09T08:10:21.000Z</time>
      </trkpt>
      <trkpt lat="47.2878" lon="6.12932">
        <ele>326.6</ele>
        <time>2013-06-09T08:10:24.000Z</time>
      </trkpt>
      <trkpt lat="47.28781" lon="6.12931">
        <ele>326.5</ele>
        <time>2013-06-09T08:10:25.000Z</time>
      </trkpt>
      <trkpt lat="47.28784" lon="6.12927">
        <ele>326.2</ele>
        <time>2013-06-09T08:10:28.000Z</time>
      </trkpt>
      <trkpt lat="47.28785" lon="6.12926">
        <ele>326.1</ele>
        <time>2013-06-09T08:10:29.000Z</time>
      </trkpt>
      <trkpt lat="47.28789" lon="6.12923">
        <ele>325.7</ele>
        <time>2013-06-09T08:10:32.000Z</time>
      </trkpt>
      <trkpt lat="47.2879" lon="6.12922">
        <ele>325.5</ele>
        <time>2013-06-09T08:10:33.000Z</time>
      </trkpt>
      <trkpt lat="47.28794" lon="6.12918">
        <ele>325.5</ele>
        <time>2013-06-09T08:10:36.000Z</time>
      </trkpt>
      <trkpt lat="47.28795" lon="6.12917">
        <ele>325.5</ele>
        <time>2013-06-09T08:10:37.000Z</time>
      </trkpt>
      <trkpt lat="47.28799" lon="6.12914">
        <ele>325.4</ele>
        <time>2013-06-09T08:10:40.000Z</time>
      </trkpt>
      <trkpt lat="47.288" lon="6.12913">
        <ele>325.4</ele>
        <time>2013-06-09T08:10:41.000Z</time>
      </trkpt>
      <trkpt lat="47.28804" lon="6.1291">
        <ele>325.3</ele>
        <time>2013-06-09T08:10:44.000Z</time>
      </trkpt>
      <trkpt lat="47.28805" lon="6.12909">
        <ele>325.3</ele>
        <time>2013-06-09T08:10:45.000Z</time>
      </trkpt>
      <trkpt lat="47.28808" lon="6.12906">
        <ele>325.2</ele>
        <time>2013-06-09T08:10:48.000Z</time>
      </trkpt>
      <trkpt lat="47.2881" lon="6.12905">
        <ele>325.3</ele>
        <time>2013-06-09T08:10:49.000Z</time>
      </trkpt>
      <trkpt lat="47.28813" lon="6.12902">
        <ele>325.6</ele>
        <time>2013-06-09T08:10:52.000Z</time>
      </trkpt>
      <trkpt lat="47.28814" lon="6.12901">
        <ele>325.7</ele>
        <time>2013-06-09T08:10:53.000Z</time>
      </trkpt>
      <trkpt lat="47.28818" lon="6.12898">
        <ele>326.2</ele>
        <time>2013-06-09T08:10:56.000Z</time>
      </trkpt>
      <trkpt lat="47.28819" lon="6.12897">
        <ele>326.3</ele>
        <time>2013-06-09T08:10:57.000Z</time>
      </trkpt>
      <trkpt lat="47.28822" lon="6.12894">
        <ele>326.1</ele>
        <time>2013-06-09T08:11:00.000Z</time>
      </trkpt>
      <trkpt lat="47.28823" lon="6.12893">
        <ele>326.1</ele>
        <time>2013-06-09T08:11:01.000Z</time>
      </trkpt>
      <trkpt lat="47.28827" lon="6.1289">
        <ele>326.4</ele>
        <time>2013-06-09T08:11:04.000Z</time>
      </trkpt>
      <trkpt lat="47.28828" lon="6.12889">
        <ele>326.4</ele>
        <time>2013-06-09T08:11:05.000Z</time>
      </trkpt>
      <trkpt lat="47.28831" lon="6.12886">
        <ele>326.4</ele>
        <time>2013-06-09T08:11:08.000Z</time>
      </trkpt>
      <trkpt lat="47.28832" lon="6.12885">
        <ele>326.3</ele>
        <time>2013-06-09T08:11:09.000Z</time>
      </trkpt>
      <trkpt lat="47.28835" lon="6.12882">
        <ele>326.2</ele>
        <time>2013-06-09T08:11:12.000Z</time>
      </trkpt>
      <trkpt lat="47.28836" lon="6.12881">
        <ele>326.2</ele>
        <time>2013-06-09T08:11:13.000Z</time>
      </trkpt>
      <trkpt lat="47.2884" lon="6.12878">
        <ele>326.1</ele>
        <time>2013-06-09T08:11:16.000Z</time>
      </trkpt>
      <trkpt lat="47.28841" lon="6.12877">
        <ele>326.1</ele>
        <time>2013-06-09T08:11:17.000Z</time>
      </trkpt>
      <trkpt lat="47.28844" lon="6.12875">
        <ele>326.1</ele>
        <time>2013-06-09T08:11:20.000Z</time>
      </trkpt>
      <trkpt lat="47.28845" lon="6.12874">
        <ele>326.2</ele>
        <time>2013-06-09T08:11:21.000Z</time>
      </trkpt>
      <trkpt lat="47.28848" lon="6.12871">
        <ele>326.4</ele>
        <time>2013-06-09T08:11:24.000Z</time>
      </trkpt>
      <trkpt lat="47.28849" lon="6.1287">
        <ele>326.4</ele>
        <time>2013-06-09T08:11:25.000Z</time>
      </trkpt>
      <trkpt lat="47.28853" lon="6.12866">
        <ele>326.5</ele>
        <time>2013-06-09T08:11:28.000Z</time>
      </trkpt>
      <trkpt lat="47.28853" lon="6.12865">
        <ele>326.4</ele>
        <time>2013-06-09T08:11:29.000Z</time>
      </trkpt>
      <trkpt lat="47.28855" lon="6.1286">
        <ele>326</ele>
        <time>2013-06-09T08:11:32.000Z</time>
      </trkpt>
      <trkpt lat="47.28856" lon="6.12858">
        <ele>326</ele>
        <time>2013-06-09T08:11:33.000Z</time>
      </trkpt>
      <trkpt lat="47.28856" lon="6.12853">
        <ele>326</ele>
        <time>2013-06-09T08:11:36.000Z</time>
      </trkpt>
      <trkpt lat="47.28856" lon="6.12851">
        <ele>325.9</ele>
        <time>2013-06-09T08:11:37.000Z</time>
      </trkpt>
      <trkpt lat="47.28856" lon="6.12845">
        <ele>326</ele>
        <time>2013-06-09T08:11:40.000Z</time>
      </trkpt>
      <trkpt lat="47.28855" lon="6.12843">
        <ele>326.2</ele>
        <time>2013-06-09T08:11:41.000Z</time>
      </trkpt>
      <trkpt lat="47.28854" lon="6.12838">
        <ele>326.9</ele>
        <time>2013-06-09T08:11:44.000Z</time>
      </trkpt>
      <trkpt lat="47.28853" lon="6.12836">
        <ele>327.1</ele>
        <time>2013-06-09T08:11:45.000Z</time>
      </trkpt>
      <trkpt lat="47.28852" lon="6.12831">
        <ele>327.1</ele>
        <time>2013-06-09T08:11:48.000Z</time>
      </trkpt>
      <trkpt lat="47.28851" lon="6.1283">
        <ele>327.2</ele>
        <time>2013-06-09T08:11:49.000Z</time>
      </trkpt>
      <trkpt lat="47.28848" lon="6.12826">
        <ele>327.2</ele>
        <time>2013-06-09T08:11:52.000Z</time>
      </trkpt>
      <trkpt lat="47.28847" lon="6.12825">
        <ele>327</ele>
        <time>2013-06-09T08:11:53.000Z</time>
      </trkpt>
      <trkpt lat="47.28844" lon="6.12822">
        <ele>326.6</ele>
        <time>2013-06-09T08:11:56.000Z</time>
      </trkpt>
      <trkpt lat="47.28843" lon="6.12821">
        <ele>326.3</ele>
        <time>2013-06-09T08:11:57.000Z</time>
      </trkpt>
      <trkpt lat="47.2884" lon="6.12817">
        <ele>325.9</ele>
        <time>2013-06-09T08:12:00.000Z</time>
      </trkpt>
      <trkpt lat="47.28839" lon="6.12816">
        <ele>325.9</ele>
        <time>2013-06-09T08:12:01.000Z</time>
      </trkpt>
      <trkpt lat="47.28836" lon="6.12813">
        <ele>325.8</ele>
        <time>2013-06-09T08:12:04.000Z</time>
      </trkpt>
      <trkpt lat="47.28835" lon="6.12812">
        <ele>326.1</ele>
        <time>2013-06-09T08:12:05.000Z</time>
      </trkpt>
      <trkpt lat="47.28832" lon="6.12808">
        <ele>326.8</ele>
        <time>2013-06-09T08:12:08.000Z</time>
      </trkpt>
      <trkpt lat="47.28831" lon="6.12807">
        <ele>327.1</ele>
        <time>2013-06-09T08:12:09.000Z</time>
      </trkpt>
      <trkpt lat="47.28828" lon="6.12804">
        <ele>327.6</ele>
        <time>2013-06-09T08:12:12.000Z</time>
      </trkpt>
      <trkpt lat="47.28827" lon="6.12803">
        <ele>327.7</ele>
        <time>2013-06-09T08:12:13.000Z</time>
      </trkpt>
      <trkpt lat="47.28824" lon="6.12799">
        <ele>327.9</ele>
        <time>2013-06-09T08:12:16.000Z</time>
      </trkpt>
      <trkpt lat="47.28824" lon="6.12798">
        <ele>327.9</ele>
        <time>2013-06-09T08:12:17.000Z</time>
      </trkpt>
      <trkpt lat="47.28821" lon="6.12794">
        <ele>328.2</ele>
        <time>2013-06-09T08:12:20.000Z</time>
      </trkpt>
      <trkpt lat="47.2882" lon="6.12792">
        <ele>328.3</ele>
        <time>2013-06-09T08:12:21.000Z</time>
      </trkpt>
      <trkpt lat="47.28818" lon="6.12788">
        <ele>328.7</ele>
        <time>2013-06-09T08:12:24.000Z</time>
      </trkpt>
      <trkpt lat="47.28817" lon="6.12786">
        <ele>328.8</ele>
        <time>2013-06-09T08:12:25.000Z</time>
      </trkpt>
      <trkpt lat="47.28814" lon="6.12781">
        <ele>329.1</ele>
        <time>2013-06-09T08:12:28.000Z</time>
      </trkpt>
      <trkpt lat="47.28814" lon="6.1278">
        <ele>329</ele>
        <time>2013-06-09T08:12:29.000Z</time>
      </trkpt>
      <trkpt lat="47.28812" lon="6.12775">
        <ele>328.8</ele>
        <time>2013-06-09T08:12:32.000Z</time>
      </trkpt>
      <trkpt lat="47.28811" lon="6.12773">
        <ele>328.8</ele>
        <time>2013-06-09T08:12:33.000Z</time>
      </trkpt>
      <trkpt lat="47.28809" lon="6.12768">
        <ele>328.6</ele>
        <time>2013-06-09T08:12:36.000Z</time>
      </trkpt>
      <trkpt lat="47.28808" lon="6.12766">
        <ele>328.8</ele>
        <time>2013-06-09T08:12:37.000Z</time>
      </trkpt>
      <trkpt lat="47.28806" lon="6.12761">
        <ele>328.5</ele>
        <time>2013-06-09T08:12:40.000Z</time>
      </trkpt>
      <trkpt lat="47.28805" lon="6.12759">
        <ele>328.4</ele>
        <time>2013-06-09T08:12:41.000Z</time>
      </trkpt>
      <trkpt lat="47.28803" lon="6.12754">
        <ele>326.8</ele>
        <time>2013-06-09T08:12:44.000Z</time>
      </trkpt>
      <trkpt lat="47.28802" lon="6.12752">
        <ele>326.3</ele>
        <time>2013-06-09T08:12:45.000Z</time>
      </trkpt>
      <trkpt lat="47.288" lon="6.12747">
        <ele>325.5</ele>
        <time>2013-06-09T08:12:48.000Z</time>
      </trkpt>
      <trkpt lat="47.28799" lon="6.12745">
        <ele>325.4</ele>
        <time>2013-06-09T08:12:49.000Z</time>
      </trkpt>
      <trkpt lat="47.28797" lon="6.12739">
        <ele>325.7</ele>
        <time>2013-06-09T08:12:52.000Z</time>
      </trkpt>
      <trkpt lat="47.28796" lon="6.12737">
        <ele>326</ele>
        <time>2013-06-09T08:12:53.000Z</time>
      </trkpt>
      <trkpt lat="47.28794" lon="6.12732">
        <ele>326.7</ele>
        <time>2013-06-09T08:12:56.000Z</time>
      </trkpt>
      <trkpt lat="47.28793" lon="6.1273">
        <ele>327</ele>
        <time>2013-06-09T08:12:57.000Z</time>
      </trkpt>
      <trkpt lat="47.28792" lon="6.12726">
        <ele>327.4</ele>
        <time>2013-06-09T08:12:59.000Z</time>
      </trkpt>
      <trkpt lat="47.28791" lon="6.12724">
        <ele>327.6</ele>
        <time>2013-06-09T08:13:00.000Z</time>
      </trkpt>
      <trkpt lat="47.2879" lon="6.12719">
        <ele>328.1</ele>
        <time>2013-06-09T08:13:02.000Z</time>
      </trkpt>
      <trkpt lat="47.28789" lon="6.12717">
        <ele>328.4</ele>
        <time>2013-06-09T08:13:03.000Z</time>
      </trkpt>
      <trkpt lat="47.28788" lon="6.12711">
        <ele>328.5</ele>
        <time>2013-06-09T08:13:06.000Z</time>
      </trkpt>
      <trkpt lat="47.28787" lon="6.12709">
        <ele>328.9</ele>
        <time>2013-06-09T08:13:07.000Z</time>
      </trkpt>
      <trkpt lat="47.28785" lon="6.12704">
        <ele>329.7</ele>
        <time>2013-06-09T08:13:10.000Z</time>
      </trkpt>
      <trkpt lat="47.28785" lon="6.12702">
        <ele>329.9</ele>
        <time>2013-06-09T08:13:11.000Z</time>
      </trkpt>
      <trkpt lat="47.28783" lon="6.12696">
        <ele>329.8</ele>
        <time>2013-06-09T08:13:14.000Z</time>
      </trkpt>
      <trkpt lat="47.28782" lon="6.12694">
        <ele>329.8</ele>
        <time>2013-06-09T08:13:15.000Z</time>
      </trkpt>
      <trkpt lat="47.2878" lon="6.12689">
        <ele>330.6</ele>
        <time>2013-06-09T08:13:18.000Z</time>
      </trkpt>
      <trkpt lat="47.28779" lon="6.12687">
        <ele>330.7</ele>
        <time>2013-06-09T08:13:19.000Z</time>
      </trkpt>
      <trkpt lat="47.28777" lon="6.12682">
        <ele>331.3</ele>
        <time>2013-06-09T08:13:22.000Z</time>
      </trkpt>
      <trkpt lat="47.28776" lon="6.1268">
        <ele>331.6</ele>
        <time>2013-06-09T08:13:23.000Z</time>
      </trkpt>
      <trkpt lat="47.28774" lon="6.12675">
        <ele>331.2</ele>
        <time>2013-06-09T08:13:26.000Z</time>
      </trkpt>
      <trkpt lat="47.28774" lon="6.12673">
        <ele>331.1</ele>
        <time>2013-06-09T08:13:27.000Z</time>
      </trkpt>
      <trkpt lat="47.28772" lon="6.12668">
        <ele>331.2</ele>
        <time>2013-06-09T08:13:30.000Z</time>
      </trkpt>
      <trkpt lat="47.28772" lon="6.12666">
        <ele>331.3</ele>
        <time>2013-06-09T08:13:31.000Z</time>
      </trkpt>
      <trkpt lat="47.28771" lon="6.12661">
        <ele>331.7</ele>
        <time>2013-06-09T08:13:34.000Z</time>
      </trkpt>
      <trkpt lat="47.2877" lon="6.12659">
        <ele>331.8</ele>
        <time>2013-06-09T08:13:35.000Z</time>
      </trkpt>
      <trkpt lat="47.2877" lon="6.12653">
        <ele>332.2</ele>
        <time>2013-06-09T08:13:38.000Z</time>
      </trkpt>
      <trkpt lat="47.28769" lon="6.12652">
        <ele>332.2</ele>
        <time>2013-06-09T08:13:39.000Z</time>
      </trkpt>
      <trkpt lat="47.28769" lon="6.12646">
        <ele>332.8</ele>
        <time>2013-06-09T08:13:42.000Z</time>
      </trkpt>
      <trkpt lat="47.28769" lon="6.12644">
        <ele>333</ele>
        <time>2013-06-09T08:13:43.000Z</time>
      </trkpt>
      <trkpt lat="47.28769" lon="6.12639">
        <ele>333.6</ele>
        <time>2013-06-09T08:13:46.000Z</time>
      </trkpt>
      <trkpt lat="47.28769" lon="6.12637">
        <ele>333.9</ele>
        <time>2013-06-09T08:13:47.000Z</time>
      </trkpt>
      <trkpt lat="47.2877" lon="6.12633">
        <ele>334.8</ele>
        <time>2013-06-09T08:13:50.000Z</time>
      </trkpt>
      <trkpt lat="47.28771" lon="6.12632">
        <ele>335.2</ele>
        <time>2013-06-09T08:13:51.000Z</time>
      </trkpt>
      <trkpt lat="47.28774" lon="6.12627">
        <ele>336.1</ele>
        <time>2013-06-09T08:13:55.000Z</time>
      </trkpt>
      <trkpt lat="47.28774" lon="6.12625">
        <ele>336.1</ele>
        <time>2013-06-09T08:13:56.000Z</time>
      </trkpt>
      <trkpt lat="47.28773" lon="6.12618">
        <ele>336.6</ele>
        <time>2013-06-09T08:14:00.000Z</time>
      </trkpt>
      <trkpt lat="47.28773" lon="6.12617">
        <ele>336.8</ele>
        <time>2013-06-09T08:14:01.000Z</time>
      </trkpt>
      <trkpt lat="47.28771" lon="6.12612">
        <ele>337.3</ele>
        <time>2013-06-09T08:14:04.000Z</time>
      </trkpt>
      <trkpt lat="47.2877" lon="6.1261">
        <ele>337.4</ele>
        <time>2013-06-09T08:14:05.000Z</time>
      </trkpt>
      <trkpt lat="47.28767" lon="6.12606">
        <ele>337.8</ele>
        <time>2013-06-09T08:14:08.000Z</time>
      </trkpt>
      <trkpt lat="47.28767" lon="6.12604">
        <ele>337.8</ele>
        <time>2013-06-09T08:14:09.000Z</time>
      </trkpt>
      <trkpt lat="47.28764" lon="6.126">
        <ele>337.5</ele>
        <time>2013-06-09T08:14:12.000Z</time>
      </trkpt>
      <trkpt lat="47.28764" lon="6.12599">
        <ele>337.5</ele>
        <time>2013-06-09T08:14:13.000Z</time>
      </trkpt>
      <trkpt lat="47.28762" lon="6.12594">
        <ele>337.4</ele>
        <time>2013-06-09T08:14:16.000Z</time>
      </trkpt>
      <trkpt lat="47.28761" lon="6.12592">
        <ele>337.7</ele>
        <time>2013-06-09T08:14:17.000Z</time>
      </trkpt>
      <trkpt lat="47.28759" lon="6.12587">
        <ele>338.9</ele>
        <time>2013-06-09T08:14:20.000Z</time>
      </trkpt>
      <trkpt lat="47.28759" lon="6.12585">
        <ele>339.1</ele>
        <time>2013-06-09T08:14:21.000Z</time>
      </trkpt>
      <trkpt lat="47.28757" lon="6.1258">
        <ele>339.6</ele>
        <time>2013-06-09T08:14:24.000Z</time>
      </trkpt>
      <trkpt lat="47.28756" lon="6.12578">
        <ele>339.8</ele>
        <time>2013-06-09T08:14:25.000Z</time>
      </trkpt>
      <trkpt lat="47.28755" lon="6.12572">
        <ele>340.2</ele>
        <time>2013-06-09T08:14:28.000Z</time>
      </trkpt>
      <trkpt lat="47.28755" lon="6.1257">
        <ele>340.2</ele>
        <time>2013-06-09T08:14:29.000Z</time>
      </trkpt>
      <trkpt lat="47.28753" lon="6.12565">
        <ele>340.1</ele>
        <time>2013-06-09T08:14:32.000Z</time>
      </trkpt>
      <trkpt lat="47.28753" lon="6.12563">
        <ele>340</ele>
        <time>2013-06-09T08:14:33.000Z</time>
      </trkpt>
      <trkpt lat="47.28752" lon="6.12557">
        <ele>339.9</ele>
        <time>2013-06-09T08:14:36.000Z</time>
      </trkpt>
      <trkpt lat="47.28751" lon="6.12555">
        <ele>339.9</ele>
        <time>2013-06-09T08:14:37.000Z</time>
      </trkpt>
      <trkpt lat="47.2875" lon="6.12549">
        <ele>340</ele>
        <time>2013-06-09T08:14:40.000Z</time>
      </trkpt>
      <trkpt lat="47.2875" lon="6.12548">
        <ele>340.1</ele>
        <time>2013-06-09T08:14:41.000Z</time>
      </trkpt>
      <trkpt lat="47.28749" lon="6.12542">
        <ele>339.7</ele>
        <time>2013-06-09T08:14:44.000Z</time>
      </trkpt>
      <trkpt lat="47.28748" lon="6.1254">
        <ele>339.6</ele>
        <time>2013-06-09T08:14:45.000Z</time>
      </trkpt>
      <trkpt lat="47.28747" lon="6.12535">
        <ele>339.9</ele>
        <time>2013-06-09T08:14:48.000Z</time>
      </trkpt>
      <trkpt lat="47.28747" lon="6.12533">
        <ele>339.8</ele>
        <time>2013-06-09T08:14:49.000Z</time>
      </trkpt>
      <trkpt lat="47.28746" lon="6.12527">
        <ele>339.8</ele>
        <time>2013-06-09T08:14:52.000Z</time>
      </trkpt>
      <trkpt lat="47.28746" lon="6.12526">
        <ele>339.7</ele>
        <time>2013-06-09T08:14:53.000Z</time>
      </trkpt>
      <trkpt lat="47.28745" lon="6.1252">
        <ele>339.2</ele>
        <time>2013-06-09T08:14:56.000Z</time>
      </trkpt>
      <trkpt lat="47.28745" lon="6.12519">
        <ele>339.1</ele>
        <time>2013-06-09T08:14:57.000Z</time>
      </trkpt>
      <trkpt lat="47.28744" lon="6.12513">
        <ele>339.1</ele>
        <time>2013-06-09T08:15:00.000Z</time>
      </trkpt>
      <trkpt lat="47.28744" lon="6.12511">
        <ele>339</ele>
        <time>2013-06-09T08:15:01.000Z</time>
      </trkpt>
      <trkpt lat="47.28743" lon="6.12506">
        <ele>339.2</ele>
        <time>2013-06-09T08:15:04.000Z</time>
      </trkpt>
      <trkpt lat="47.28743" lon="6.12504">
        <ele>339.3</ele>
        <time>2013-06-09T08:15:05.000Z</time>
      </trkpt>
      <trkpt lat="47.28743" lon="6.12499">
        <ele>339.5</ele>
        <time>2013-06-09T08:15:08.000Z</time>
      </trkpt>
      <trkpt lat="47.28743" lon="6.12497">
        <ele>339.7</ele>
        <time>2013-06-09T08:15:09.000Z</time>
      </trkpt>
      <trkpt lat="47.28742" lon="6.12492">
        <ele>340.3</ele>
        <time>2013-06-09T08:15:12.000Z</time>
      </trkpt>
      <trkpt lat="47.28742" lon="6.1249">
        <ele>340.6</ele>
        <time>2013-06-09T08:15:13.000Z</time>
      </trkpt>
      <trkpt lat="47.28742" lon="6.12485">
        <ele>341.1</ele>
        <time>2013-06-09T08:15:16.000Z</time>
      </trkpt>
      <trkpt lat="47.28742" lon="6.12483">
        <ele>341.1</ele>
        <time>2013-06-09T08:15:17.000Z</time>
      </trkpt>
      <trkpt lat="47.28741" lon="6.12478">
        <ele>341.4</ele>
        <time>2013-06-09T08:15:20.000Z</time>
      </trkpt>
      <trkpt lat="47.2874" lon="6.12476">
        <ele>341.7</ele>
        <time>2013-06-09T08:15:21.000Z</time>
      </trkpt>
      <trkpt lat="47.28739" lon="6.12471">
        <ele>341.8</ele>
        <time>2013-06-09T08:15:24.000Z</time>
      </trkpt>
      <trkpt lat="47.28739" lon="6.12469">
        <ele>341.8</ele>
        <time>2013-06-09T08:15:25.000Z</time>
      </trkpt>
      <trkpt lat="47.28738" lon="6.12464">
        <ele>341.9</ele>
        <time>2013-06-09T08:15:28.000Z</time>
      </trkpt>
      <trkpt lat="47.28737" lon="6.12462">
        <ele>342</ele>
        <time>2013-06-09T08:15:29.000Z</time>
      </trkpt>
      <trkpt lat="47.28736" lon="6.12457">
        <ele>342.2</ele>
        <time>2013-06-09T08:15:32.000Z</time>
      </trkpt>
      <trkpt lat="47.28736" lon="6.12455">
        <ele>342.2</ele>
        <time>2013-06-09T08:15:33.000Z</time>
      </trkpt>
      <trkpt lat="47.28735" lon="6.1245">
        <ele>342.2</ele>
        <time>2013-06-09T08:15:36.000Z</time>
      </trkpt>
      <trkpt lat="47.28735" lon="6.12448">
        <ele>342.2</ele>
        <time>2013-06-09T08:15:37.000Z</time>
      </trkpt>
      <trkpt lat="47.28734" lon="6.12443">
        <ele>342.6</ele>
        <time>2013-06-09T08:15:40.000Z</time>
      </trkpt>
      <trkpt lat="47.28734" lon="6.12441">
        <ele>342.7</ele>
        <time>2013-06-09T08:15:41.000Z</time>
      </trkpt>
      <trkpt lat="47.28734" lon="6.12436">
        <ele>343.3</ele>
        <time>2013-06-09T08:15:44.000Z</time>
      </trkpt>
      <trkpt lat="47.28734" lon="6.12434">
        <ele>343.5</ele>
        <time>2013-06-09T08:15:45.000Z</time>
      </trkpt>
      <trkpt lat="47.28734" lon="6.12429">
        <ele>343.7</ele>
        <time>2013-06-09T08:15:48.000Z</time>
      </trkpt>
      <trkpt lat="47.28734" lon="6.12427">
        <ele>343.7</ele>
        <time>2013-06-09T08:15:49.000Z</time>
      </trkpt>
      <trkpt lat="47.28735" lon="6.12422">
        <ele>343.5</ele>
        <time>2013-06-09T08:15:52.000Z</time>
      </trkpt>
      <trkpt lat="47.28735" lon="6.1242">
        <ele>343.1</ele>
        <time>2013-06-09T08:15:53.000Z</time>
      </trkpt>
      <trkpt lat="47.28736" lon="6.12415">
        <ele>342.5</ele>
        <time>2013-06-09T08:15:56.000Z</time>
      </trkpt>
      <trkpt lat="47.28736" lon="6.12413">
        <ele>342.2</ele>
        <time>2013-06-09T08:15:57.000Z</time>
      </trkpt>
      <trkpt lat="47.28737" lon="6.12408">
        <ele>342</ele>
        <time>2013-06-09T08:16:00.000Z</time>
      </trkpt>
      <trkpt lat="47.28738" lon="6.12406">
        <ele>342.3</ele>
        <time>2013-06-09T08:16:01.000Z</time>
      </trkpt>
      <trkpt lat="47.28738" lon="6.12401">
        <ele>342.9</ele>
        <time>2013-06-09T08:16:04.000Z</time>
      </trkpt>
      <trkpt lat="47.28738" lon="6.124">
        <ele>342.9</ele>
        <time>2013-06-09T08:16:05.000Z</time>
      </trkpt>
      <trkpt lat="47.28737" lon="6.12395">
        <ele>343.3</ele>
        <time>2013-06-09T08:16:08.000Z</time>
      </trkpt>
      <trkpt lat="47.28737" lon="6.12393">
        <ele>343.2</ele>
        <time>2013-06-09T08:16:09.000Z</time>
      </trkpt>
      <trkpt lat="47.28737" lon="6.12388">
        <ele>343.2</ele>
        <time>2013-06-09T08:16:12.000Z</time>
      </trkpt>
      <trkpt lat="47.28736" lon="6.12386">
        <ele>343.1</ele>
        <time>2013-06-09T08:16:13.000Z</time>
      </trkpt>
      <trkpt lat="47.28736" lon="6.12381">
        <ele>343.5</ele>
        <time>2013-06-09T08:16:16.000Z</time>
      </trkpt>
      <trkpt lat="47.28737" lon="6.12379">
        <ele>343.2</ele>
        <time>2013-06-09T08:16:17.000Z</time>
      </trkpt>
      <trkpt lat="47.28737" lon="6.12374">
        <ele>343.1</ele>
        <time>2013-06-09T08:16:20.000Z</time>
      </trkpt>
      <trkpt lat="47.28737" lon="6.12373">
        <ele>343.2</ele>
        <time>2013-06-09T08:16:21.000Z</time>
      </trkpt>
      <trkpt lat="47.28738" lon="6.12368">
        <ele>343.7</ele>
        <time>2013-06-09T08:16:24.000Z</time>
      </trkpt>
      <trkpt lat="47.28738" lon="6.12366">
        <ele>343.7</ele>
        <time>2013-06-09T08:16:25.000Z</time>
      </trkpt>
      <trkpt lat="47.28738" lon="6.12361">
        <ele>343.2</ele>
        <time>2013-06-09T08:16:28.000Z</time>
      </trkpt>
      <trkpt lat="47.28738" lon="6.12359">
        <ele>343.2</ele>
        <time>2013-06-09T08:16:29.000Z</time>
      </trkpt>
      <trkpt lat="47.28738" lon="6.12354">
        <ele>343.2</ele>
        <time>2013-06-09T08:16:32.000Z</time>
      </trkpt>
      <trkpt lat="47.28738" lon="6.12352">
        <ele>343.2</ele>
        <time>2013-06-09T08:16:33.000Z</time>
      </trkpt>
      <trkpt lat="47.28739" lon="6.12347">
        <ele>342.9</ele>
        <time>2013-06-09T08:16:36.000Z</time>
      </trkpt>
      <trkpt lat="47.28739" lon="6.12345">
        <ele>342.8</ele>
        <time>2013-06-09T08:16:37.000Z</time>
      </trkpt>
      <trkpt lat="47.28739" lon="6.12339">
        <ele>343</ele>
        <time>2013-06-09T08:16:40.000Z</time>
      </trkpt>
      <trkpt lat="47.28739" lon="6.12338">
        <ele>343.1</ele>
        <time>2013-06-09T08:16:41.000Z</time>
      </trkpt>
      <trkpt lat="47.2874" lon="6.12332">
        <ele>343.6</ele>
        <time>2013-06-09T08:16:44.000Z</time>
      </trkpt>
      <trkpt lat="47.28739" lon="6.1233">
        <ele>343.9</ele>
        <time>2013-06-09T08:16:45.000Z</time>
      </trkpt>
      <trkpt lat="47.28739" lon="6.12325">
        <ele>343.6</ele>
        <time>2013-06-09T08:16:48.000Z</time>
      </trkpt>
      <trkpt lat="47.28739" lon="6.12323">
        <ele>343.5</ele>
        <time>2013-06-09T08:16:49.000Z</time>
      </trkpt>
      <trkpt lat="47.2874" lon="6.12318">
        <ele>343.6</ele>
        <time>2013-06-09T08:16:52.000Z</time>
      </trkpt>
      <trkpt lat="47.2874" lon="6.12316">
        <ele>343.6</ele>
        <time>2013-06-09T08:16:53.000Z</time>
      </trkpt>
      <trkpt lat="47.28741" lon="6.12311">
        <ele>344.1</ele>
        <time>2013-06-09T08:16:56.000Z</time>
      </trkpt>
      <trkpt lat="47.28742" lon="6.12309">
        <ele>343.9</ele>
        <time>2013-06-09T08:16:57.000Z</time>
      </trkpt>
      <trkpt lat="47.28742" lon="6.12303">
        <ele>343.5</ele>
        <time>2013-06-09T08:17:00.000Z</time>
      </trkpt>
      <trkpt lat="47.28742" lon="6.12302">
        <ele>343.2</ele>
        <time>2013-06-09T08:17:01.000Z</time>
      </trkpt>
      <trkpt lat="47.28742" lon="6.12296">
        <ele>343.3</ele>
        <time>2013-06-09T08:17:04.000Z</time>
      </trkpt>
      <trkpt lat="47.28742" lon="6.12294">
        <ele>343.6</ele>
        <time>2013-06-09T08:17:05.000Z</time>
      </trkpt>
      <trkpt lat="47.28743" lon="6.12289">
        <ele>344.5</ele>
        <time>2013-06-09T08:17:08.000Z</time>
      </trkpt>
      <trkpt lat="47.28743" lon="6.12287">
        <ele>344.6</ele>
        <time>2013-06-09T08:17:09.000Z</time>
      </trkpt>
      <trkpt lat="47.28744" lon="6.12281">
        <ele>344.9</ele>
        <time>2013-06-09T08:17:12.000Z</time>
      </trkpt>
      <trkpt lat="47.28744" lon="6.12279">
        <ele>345.1</ele>
        <time>2013-06-09T08:17:13.000Z</time>
      </trkpt>
      <trkpt lat="47.28744" lon="6.12274">
        <ele>345</ele>
        <time>2013-06-09T08:17:16.000Z</time>
      </trkpt>
      <trkpt lat="47.28744" lon="6.12272">
        <ele>345.3</ele>
        <time>2013-06-09T08:17:17.000Z</time>
      </trkpt>
      <trkpt lat="47.28744" lon="6.12266">
        <ele>345.4</ele>
        <time>2013-06-09T08:17:20.000Z</time>
      </trkpt>
      <trkpt lat="47.28744" lon="6.12264">
        <ele>345.5</ele>
        <time>2013-06-09T08:17:21.000Z</time>
      </trkpt>
      <trkpt lat="47.28744" lon="6.12258">
        <ele>345.8</ele>
        <time>2013-06-09T08:17:24.000Z</time>
      </trkpt>
      <trkpt lat="47.28744" lon="6.12256">
        <ele>346</ele>
        <time>2013-06-09T08:17:25.000Z</time>
      </trkpt>
      <trkpt lat="47.28744" lon="6.12251">
        <ele>346.7</ele>
        <time>2013-06-09T08:17:28.000Z</time>
      </trkpt>
      <trkpt lat="47.28744" lon="6.12249">
        <ele>347</ele>
        <time>2013-06-09T08:17:29.000Z</time>
      </trkpt>
      <trkpt lat="47.28745" lon="6.12244">
        <ele>347.8</ele>
        <time>2013-06-09T08:17:32.000Z</time>
      </trkpt>
      <trkpt lat="47.28745" lon="6.12242">
        <ele>348.1</ele>
        <time>2013-06-09T08:17:33.000Z</time>
      </trkpt>
      <trkpt lat="47.28745" lon="6.12237">
        <ele>348.2</ele>
        <time>2013-06-09T08:17:36.000Z</time>
      </trkpt>
      <trkpt lat="47.28745" lon="6.12235">
        <ele>348.6</ele>
        <time>2013-06-09T08:17:37.000Z</time>
      </trkpt>
      <trkpt lat="47.28744" lon="6.1223">
        <ele>349.6</ele>
        <time>2013-06-09T08:17:40.000Z</time>
      </trkpt>
      <trkpt lat="47.28744" lon="6.12228">
        <ele>350</ele>
        <time>2013-06-09T08:17:41.000Z</time>
      </trkpt>
      <trkpt lat="47.28743" lon="6.12223">
        <ele>351.2</ele>
        <time>2013-06-09T08:17:44.000Z</time>
      </trkpt>
      <trkpt lat="47.28743" lon="6.12221">
        <ele>351.7</ele>
        <time>2013-06-09T08:17:45.000Z</time>
      </trkpt>
      <trkpt lat="47.28742" lon="6.12215">
        <ele>352.6</ele>
        <time>2013-06-09T08:17:48.000Z</time>
      </trkpt>
      <trkpt lat="47.28742" lon="6.12214">
        <ele>352.9</ele>
        <time>2013-06-09T08:17:49.000Z</time>
      </trkpt>
      <trkpt lat="47.28743" lon="6.12208">
        <ele>353.3</ele>
        <time>2013-06-09T08:17:52.000Z</time>
      </trkpt>
      <trkpt lat="47.28743" lon="6.12206">
        <ele>353.5</ele>
        <time>2013-06-09T08:17:53.000Z</time>
      </trkpt>
      <trkpt lat="47.28743" lon="6.12201">
        <ele>354.3</ele>
        <time>2013-06-09T08:17:56.000Z</time>
      </trkpt>
      <trkpt lat="47.28743" lon="6.12199">
        <ele>354.1</ele>
        <time>2013-06-09T08:17:57.000Z</time>
      </trkpt>
      <trkpt lat="47.28743" lon="6.12194">
        <ele>354.1</ele>
        <time>2013-06-09T08:18:00.000Z</time>
      </trkpt>
      <trkpt lat="47.28743" lon="6.12192">
        <ele>354.3</ele>
        <time>2013-06-09T08:18:01.000Z</time>
      </trkpt>
      <trkpt lat="47.28743" lon="6.12186">
        <ele>354.3</ele>
        <time>2013-06-09T08:18:04.000Z</time>
      </trkpt>
      <trkpt lat="47.28743" lon="6.12184">
        <ele>354.4</ele>
        <time>2013-06-09T08:18:05.000Z</time>
      </trkpt>
      <trkpt lat="47.28743" lon="6.12179">
        <ele>354.2</ele>
        <time>2013-06-09T08:18:08.000Z</time>
      </trkpt>
      <trkpt lat="47.28744" lon="6.12177">
        <ele>354</ele>
        <time>2013-06-09T08:18:09.000Z</time>
      </trkpt>
      <trkpt lat="47.28744" lon="6.12171">
        <ele>353</ele>
        <time>2013-06-09T08:18:12.000Z</time>
      </trkpt>
      <trkpt lat="47.28745" lon="6.12169">
        <ele>352.9</ele>
        <time>2013-06-09T08:18:13.000Z</time>
      </trkpt>
      <trkpt lat="47.28746" lon="6.12163">
        <ele>352.8</ele>
        <time>2013-06-09T08:18:16.000Z</time>
      </trkpt>
      <trkpt lat="47.28746" lon="6.12161">
        <ele>352.8</ele>
        <time>2013-06-09T08:18:17.000Z</time>
      </trkpt>
      <trkpt lat="47.28745" lon="6.12156">
        <ele>353.3</ele>
        <time>2013-06-09T08:18:20.000Z</time>
      </trkpt>
      <trkpt lat="47.28745" lon="6.12154">
        <ele>353.7</ele>
        <time>2013-06-09T08:18:21.000Z</time>
      </trkpt>
      <trkpt lat="47.28742" lon="6.12149">
        <ele>354.5</ele>
        <time>2013-06-09T08:18:24.000Z</time>
      </trkpt>
      <trkpt lat="47.28741" lon="6.12148">
        <ele>354.6</ele>
        <time>2013-06-09T08:18:25.000Z</time>
      </trkpt>
      <trkpt lat="47.28739" lon="6.12143">
        <ele>354.8</ele>
        <time>2013-06-09T08:18:28.000Z</time>
      </trkpt>
      <trkpt lat="47.28738" lon="6.12142">
        <ele>355</ele>
        <time>2013-06-09T08:18:29.000Z</time>
      </trkpt>
      <trkpt lat="47.28736" lon="6.12137">
        <ele>355.3</ele>
        <time>2013-06-09T08:18:32.000Z</time>
      </trkpt>
      <trkpt lat="47.28735" lon="6.12136">
        <ele>355.6</ele>
        <time>2013-06-09T08:18:33.000Z</time>
      </trkpt>
      <trkpt lat="47.28733" lon="6.12131">
        <ele>356.2</ele>
        <time>2013-06-09T08:18:36.000Z</time>
      </trkpt>
      <trkpt lat="47.28732" lon="6.12129">
        <ele>356.2</ele>
        <time>2013-06-09T08:18:37.000Z</time>
      </trkpt>
      <trkpt lat="47.28731" lon="6.12124">
        <ele>355.7</ele>
        <time>2013-06-09T08:18:40.000Z</time>
      </trkpt>
      <trkpt lat="47.28731" lon="6.12122">
        <ele>355.8</ele>
        <time>2013-06-09T08:18:41.000Z</time>
      </trkpt>
      <trkpt lat="47.28729" lon="6.12117">
        <ele>355.6</ele>
        <time>2013-06-09T08:18:44.000Z</time>
      </trkpt>
      <trkpt lat="47.28729" lon="6.12115">
        <ele>355.5</ele>
        <time>2013-06-09T08:18:45.000Z</time>
      </trkpt>
      <trkpt lat="47.28728" lon="6.1211">
        <ele>355.5</ele>
        <time>2013-06-09T08:18:48.000Z</time>
      </trkpt>
      <trkpt lat="47.28728" lon="6.12108">
        <ele>355.3</ele>
        <time>2013-06-09T08:18:49.000Z</time>
      </trkpt>
      <trkpt lat="47.28728" lon="6.12102">
        <ele>355.5</ele>
        <time>2013-06-09T08:18:52.000Z</time>
      </trkpt>
      <trkpt lat="47.28728" lon="6.121">
        <ele>355.7</ele>
        <time>2013-06-09T08:18:53.000Z</time>
      </trkpt>
      <trkpt lat="47.28727" lon="6.12094">
        <ele>355.4</ele>
        <time>2013-06-09T08:18:56.000Z</time>
      </trkpt>
      <trkpt lat="47.28727" lon="6.12092">
        <ele>355.2</ele>
        <time>2013-06-09T08:18:57.000Z</time>
      </trkpt>
      <trkpt lat="47.28727" lon="6.12086">
        <ele>354.9</ele>
        <time>2013-06-09T08:19:00.000Z</time>
      </trkpt>
      <trkpt lat="47.28727" lon="6.12084">
        <ele>354.5</ele>
        <time>2013-06-09T08:19:01.000Z</time>
      </trkpt>
      <trkpt lat="47.28726" lon="6.12078">
        <ele>353.3</ele>
        <time>2013-06-09T08:19:04.000Z</time>
      </trkpt>
      <trkpt lat="47.28726" lon="6.12076">
        <ele>353.1</ele>
        <time>2013-06-09T08:19:05.000Z</time>
      </trkpt>
      <trkpt lat="47.28726" lon="6.1207">
        <ele>353.3</ele>
        <time>2013-06-09T08:19:08.000Z</time>
      </trkpt>
      <trkpt lat="47.28726" lon="6.12068">
        <ele>353.2</ele>
        <time>2013-06-09T08:19:09.000Z</time>
      </trkpt>
      <trkpt lat="47.28726" lon="6.12062">
        <ele>353</ele>
        <time>2013-06-09T08:19:12.000Z</time>
      </trkpt>
      <trkpt lat="47.28726" lon="6.1206">
        <ele>353.4</ele>
        <time>2013-06-09T08:19:13.000Z</time>
      </trkpt>
      <trkpt lat="47.28725" lon="6.12054">
        <ele>354.5</ele>
        <time>2013-06-09T08:19:16.000Z</time>
      </trkpt>
      <trkpt lat="47.28725" lon="6.12052">
        <ele>354.9</ele>
        <time>2013-06-09T08:19:17.000Z</time>
      </trkpt>
      <trkpt lat="47.28724" lon="6.12046">
        <ele>355.7</ele>
        <time>2013-06-09T08:19:20.000Z</time>
      </trkpt>
      <trkpt lat="47.28724" lon="6.12044">
        <ele>355.9</ele>
        <time>2013-06-09T08:19:21.000Z</time>
      </trkpt>
      <trkpt lat="47.28723" lon="6.12039">
        <ele>356.2</ele>
        <time>2013-06-09T08:19:24.000Z</time>
      </trkpt>
      <trkpt lat="47.28723" lon="6.12037">
        <ele>356.2</ele>
        <time>2013-06-09T08:19:25.000Z</time>
      </trkpt>
      <trkpt lat="47.28724" lon="6.12032">
        <ele>355.8</ele>
        <time>2013-06-09T08:19:28.000Z</time>
      </trkpt>
      <trkpt lat="47.28724" lon="6.1203">
        <ele>355.8</ele>
        <time>2013-06-09T08:19:29.000Z</time>
      </trkpt>
      <trkpt lat="47.28724" lon="6.12025">
        <ele>355.9</ele>
        <time>2013-06-09T08:19:32.000Z</time>
      </trkpt>
      <trkpt lat="47.28724" lon="6.12023">
        <ele>355.5</ele>
        <time>2013-06-09T08:19:33.000Z</time>
      </trkpt>
      <trkpt lat="47.28724" lon="6.12017">
        <ele>355.2</ele>
        <time>2013-06-09T08:19:36.000Z</time>
      </trkpt>
      <trkpt lat="47.28724" lon="6.12015">
        <ele>355.2</ele>
        <time>2013-06-09T08:19:37.000Z</time>
      </trkpt>
      <trkpt lat="47.28724" lon="6.12009">
        <ele>355.4</ele>
        <time>2013-06-09T08:19:40.000Z</time>
      </trkpt>
      <trkpt lat="47.28724" lon="6.12007">
        <ele>355.5</ele>
        <time>2013-06-09T08:19:41.000Z</time>
      </trkpt>
      <trkpt lat="47.28725" lon="6.12001">
        <ele>355.9</ele>
        <time>2013-06-09T08:19:44.000Z</time>
      </trkpt>
      <trkpt lat="47.28725" lon="6.11999">
        <ele>355.9</ele>
        <time>2013-06-09T08:19:45.000Z</time>
      </trkpt>
      <trkpt lat="47.28726" lon="6.11993">
        <ele>355.8</ele>
        <time>2013-06-09T08:19:48.000Z</time>
      </trkpt>
      <trkpt lat="47.28727" lon="6.11991">
        <ele>355.8</ele>
        <time>2013-06-09T08:19:49.000Z</time>
      </trkpt>
      <trkpt lat="47.28728" lon="6.11985">
        <ele>355.6</ele>
        <time>2013-06-09T08:19:52.000Z</time>
      </trkpt>
      <trkpt lat="47.28728" lon="6.11983">
        <ele>355.3</ele>
        <time>2013-06-09T08:19:53.000Z</time>
      </trkpt>
      <trkpt lat="47.28729" lon="6.11977">
        <ele>355.3</ele>
        <time>2013-06-09T08:19:56.000Z</time>
      </trkpt>
      <trkpt lat="47.28729" lon="6.11975">
        <ele>355.3</ele>
        <time>2013-06-09T08:19:57.000Z</time>
      </trkpt>
      <trkpt lat="47.28729" lon="6.11969">
        <ele>355.4</ele>
        <time>2013-06-09T08:20:00.000Z</time>
      </trkpt>
      <trkpt lat="47.28729" lon="6.11967">
        <ele>355.5</ele>
        <time>2013-06-09T08:20:01.000Z</time>
      </trkpt>
      <trkpt lat="47.28728" lon="6.11961">
        <ele>356.2</ele>
        <time>2013-06-09T08:20:04.000Z</time>
      </trkpt>
      <trkpt lat="47.28728" lon="6.11959">
        <ele>356.3</ele>
        <time>2013-06-09T08:20:05.000Z</time>
      </trkpt>
      <trkpt lat="47.28728" lon="6.11953">
        <ele>356.6</ele>
        <time>2013-06-09T08:20:08.000Z</time>
      </trkpt>
      <trkpt lat="47.28728" lon="6.11951">
        <ele>356.7</ele>
        <time>2013-06-09T08:20:09.000Z</time>
      </trkpt>
      <trkpt lat="47.28727" lon="6.11945">
        <ele>357.1</ele>
        <time>2013-06-09T08:20:12.000Z</time>
      </trkpt>
      <trkpt lat="47.28726" lon="6.11943">
        <ele>357.2</ele>
        <time>2013-06-09T08:20:13.000Z</time>
      </trkpt>
      <trkpt lat="47.28725" lon="6.11937">
        <ele>357.8</ele>
        <time>2013-06-09T08:20:16.000Z</time>
      </trkpt>
      <trkpt lat="47.28725" lon="6.11935">
        <ele>357.9</ele>
        <time>2013-06-09T08:20:17.000Z</time>
      </trkpt>
      <trkpt lat="47.28725" lon="6.11929">
        <ele>358.4</ele>
        <time>2013-06-09T08:20:20.000Z</time>
      </trkpt>
      <trkpt lat="47.28725" lon="6.11927">
        <ele>358.4</ele>
        <time>2013-06-09T08:20:21.000Z</time>
      </trkpt>
      <trkpt lat="47.28725" lon="6.11921">
        <ele>358.4</ele>
        <time>2013-06-09T08:20:24.000Z</time>
      </trkpt>
      <trkpt lat="47.28725" lon="6.11919">
        <ele>358.6</ele>
        <time>2013-06-09T08:20:25.000Z</time>
      </trkpt>
      <trkpt lat="47.28725" lon="6.11913">
        <ele>359.1</ele>
        <time>2013-06-09T08:20:28.000Z</time>
      </trkpt>
      <trkpt lat="47.28725" lon="6.11911">
        <ele>359.3</ele>
        <time>2013-06-09T08:20:29.000Z</time>
      </trkpt>
      <trkpt lat="47.28725" lon="6.11906">
        <ele>359.8</ele>
        <time>2013-06-09T08:20:32.000Z</time>
      </trkpt>
      <trkpt lat="47.28725" lon="6.11904">
        <ele>359.8</ele>
        <time>2013-06-09T08:20:33.000Z</time>
      </trkpt>
      <trkpt lat="47.28725" lon="6.11898">
        <ele>359.8</ele>
        <time>2013-06-09T08:20:36.000Z</time>
      </trkpt>
      <trkpt lat="47.28725" lon="6.11896">
        <ele>359.8</ele>
        <time>2013-06-09T08:20:37.000Z</time>
      </trkpt>
      <trkpt lat="47.28725" lon="6.1189">
        <ele>359</ele>
        <time>2013-06-09T08:20:40.000Z</time>
      </trkpt>
      <trkpt lat="47.28725" lon="6.11888">
        <ele>358.5</ele>
        <time>2013-06-09T08:20:41.000Z</time>
      </trkpt>
      <trkpt lat="47.28726" lon="6.11882">
        <ele>357</ele>
        <time>2013-06-09T08:20:44.000Z</time>
      </trkpt>
      <trkpt lat="47.28726" lon="6.1188">
        <ele>355.7</ele>
        <time>2013-06-09T08:20:45.000Z</time>
      </trkpt>
      <trkpt lat="47.28726" lon="6.11873">
        <ele>353.6</ele>
        <time>2013-06-09T08:20:48.000Z</time>
      </trkpt>
      <trkpt lat="47.28726" lon="6.11871">
        <ele>352.9</ele>
        <time>2013-06-09T08:20:49.000Z</time>
      </trkpt>
      <trkpt lat="47.28726" lon="6.11865">
        <ele>352.9</ele>
        <time>2013-06-09T08:20:52.000Z</time>
      </trkpt>
      <trkpt lat="47.28725" lon="6.11863">
        <ele>353</ele>
        <time>2013-06-09T08:20:53.000Z</time>
      </trkpt>
      <trkpt lat="47.28724" lon="6.11857">
        <ele>352.1</ele>
        <time>2013-06-09T08:20:56.000Z</time>
      </trkpt>
      <trkpt lat="47.28723" lon="6.11855">
        <ele>351.1</ele>
        <time>2013-06-09T08:20:57.000Z</time>
      </trkpt>
      <trkpt lat="47.28722" lon="6.1185">
        <ele>349.4</ele>
        <time>2013-06-09T08:21:00.000Z</time>
      </trkpt>
      <trkpt lat="47.28721" lon="6.11848">
        <ele>349.1</ele>
        <time>2013-06-09T08:21:01.000Z</time>
      </trkpt>
      <trkpt lat="47.2872" lon="6.11842">
        <ele>347.5</ele>
        <time>2013-06-09T08:21:04.000Z</time>
      </trkpt>
      <trkpt lat="47.28719" lon="6.1184">
        <ele>347</ele>
        <time>2013-06-09T08:21:05.000Z</time>
      </trkpt>
      <trkpt lat="47.28717" lon="6.11835">
        <ele>345.3</ele>
        <time>2013-06-09T08:21:08.000Z</time>
      </trkpt>
      <trkpt lat="47.28717" lon="6.11834">
        <ele>344.8</ele>
        <time>2013-06-09T08:21:09.000Z</time>
      </trkpt>
      <trkpt lat="47.28715" lon="6.11829">
        <ele>343.9</ele>
        <time>2013-06-09T08:21:12.000Z</time>
      </trkpt>
      <trkpt lat="47.28714" lon="6.11827">
        <ele>343.5</ele>
        <time>2013-06-09T08:21:13.000Z</time>
      </trkpt>
      <trkpt lat="47.28712" lon="6.11823">
        <ele>343.2</ele>
        <time>2013-06-09T08:21:16.000Z</time>
      </trkpt>
      <trkpt lat="47.28711" lon="6.11822">
        <ele>343.3</ele>
        <time>2013-06-09T08:21:17.000Z</time>
      </trkpt>
      <trkpt lat="47.28708" lon="6.11817">
        <ele>343</ele>
        <time>2013-06-09T08:21:20.000Z</time>
      </trkpt>
      <trkpt lat="47.28707" lon="6.11816">
        <ele>343.3</ele>
        <time>2013-06-09T08:21:21.000Z</time>
      </trkpt>
      <trkpt lat="47.28704" lon="6.11813">
        <ele>343.2</ele>
        <time>2013-06-09T08:21:24.000Z</time>
      </trkpt>
      <trkpt lat="47.28703" lon="6.11812">
        <ele>343</ele>
        <time>2013-06-09T08:21:25.000Z</time>
      </trkpt>
      <trkpt lat="47.287" lon="6.11809">
        <ele>343</ele>
        <time>2013-06-09T08:21:28.000Z</time>
      </trkpt>
      <trkpt lat="47.28698" lon="6.11808">
        <ele>343</ele>
        <time>2013-06-09T08:21:29.000Z</time>
      </trkpt>
      <trkpt lat="47.28695" lon="6.11805">
        <ele>342.8</ele>
        <time>2013-06-09T08:21:32.000Z</time>
      </trkpt>
      <trkpt lat="47.28694" lon="6.11804">
        <ele>342.7</ele>
        <time>2013-06-09T08:21:33.000Z</time>
      </trkpt>
      <trkpt lat="47.2869" lon="6.11801">
        <ele>342.6</ele>
        <time>2013-06-09T08:21:36.000Z</time>
      </trkpt>
      <trkpt lat="47.28689" lon="6.11799">
        <ele>342.6</ele>
        <time>2013-06-09T08:21:37.000Z</time>
      </trkpt>
      <trkpt lat="47.28685" lon="6.11796">
        <ele>342.5</ele>
        <time>2013-06-09T08:21:40.000Z</time>
      </trkpt>
      <trkpt lat="47.28684" lon="6.11795">
        <ele>342.5</ele>
        <time>2013-06-09T08:21:41.000Z</time>
      </trkpt>
      <trkpt lat="47.2868" lon="6.11793">
        <ele>342.5</ele>
        <time>2013-06-09T08:21:44.000Z</time>
      </trkpt>
      <trkpt lat="47.28679" lon="6.11792">
        <ele>342.6</ele>
        <time>2013-06-09T08:21:45.000Z</time>
      </trkpt>
      <trkpt lat="47.28675" lon="6.1179">
        <ele>342.6</ele>
        <time>2013-06-09T08:21:48.000Z</time>
      </trkpt>
      <trkpt lat="47.28674" lon="6.11789">
        <ele>342.5</ele>
        <time>2013-06-09T08:21:49.000Z</time>
      </trkpt>
      <trkpt lat="47.2867" lon="6.11786">
        <ele>342.4</ele>
        <time>2013-06-09T08:21:52.000Z</time>
      </trkpt>
      <trkpt lat="47.28669" lon="6.11785">
        <ele>342.2</ele>
        <time>2013-06-09T08:21:53.000Z</time>
      </trkpt>
      <trkpt lat="47.28666" lon="6.11782">
        <ele>342</ele>
        <time>2013-06-09T08:21:56.000Z</time>
      </trkpt>
      <trkpt lat="47.28664" lon="6.11781">
        <ele>342</ele>
        <time>2013-06-09T08:21:57.000Z</time>
      </trkpt>
      <trkpt lat="47.28661" lon="6.11777">
        <ele>342.2</ele>
        <time>2013-06-09T08:22:00.000Z</time>
      </trkpt>
      <trkpt lat="47.2866" lon="6.11775">
        <ele>342.3</ele>
        <time>2013-06-09T08:22:01.000Z</time>
      </trkpt>
      <trkpt lat="47.28657" lon="6.11771">
        <ele>342.4</ele>
        <time>2013-06-09T08:22:04.000Z</time>
      </trkpt>
      <trkpt lat="47.28657" lon="6.1177">
        <ele>342.5</ele>
        <time>2013-06-09T08:22:05.000Z</time>
      </trkpt>
      <trkpt lat="47.28654" lon="6.11766">
        <ele>343.3</ele>
        <time>2013-06-09T08:22:08.000Z</time>
      </trkpt>
      <trkpt lat="47.28653" lon="6.11765">
        <ele>343.2</ele>
        <time>2013-06-09T08:22:09.000Z</time>
      </trkpt>
      <trkpt lat="47.28651" lon="6.1176">
        <ele>343.2</ele>
        <time>2013-06-09T08:22:12.000Z</time>
      </trkpt>
      <trkpt lat="47.2865" lon="6.11759">
        <ele>343</ele>
        <time>2013-06-09T08:22:13.000Z</time>
      </trkpt>
      <trkpt lat="47.28648" lon="6.11755">
        <ele>343.2</ele>
        <time>2013-06-09T08:22:16.000Z</time>
      </trkpt>
      <trkpt lat="47.28647" lon="6.11754">
        <ele>343.3</ele>
        <time>2013-06-09T08:22:17.000Z</time>
      </trkpt>
      <trkpt lat="47.28644" lon="6.1175">
        <ele>344.5</ele>
        <time>2013-06-09T08:22:20.000Z</time>
      </trkpt>
      <trkpt lat="47.28644" lon="6.11748">
        <ele>344.9</ele>
        <time>2013-06-09T08:22:21.000Z</time>
      </trkpt>
      <trkpt lat="47.28641" lon="6.11744">
        <ele>345.2</ele>
        <time>2013-06-09T08:22:24.000Z</time>
      </trkpt>
      <trkpt lat="47.2864" lon="6.11743">
        <ele>344.8</ele>
        <time>2013-06-09T08:22:25.000Z</time>
      </trkpt>
      <trkpt lat="47.28638" lon="6.11738">
        <ele>344.3</ele>
        <time>2013-06-09T08:22:28.000Z</time>
      </trkpt>
      <trkpt lat="47.28637" lon="6.11737">
        <ele>344.2</ele>
        <time>2013-06-09T08:22:29.000Z</time>
      </trkpt>
      <trkpt lat="47.28635" lon="6.11732">
        <ele>343.7</ele>
        <time>2013-06-09T08:22:32.000Z</time>
      </trkpt>
      <trkpt lat="47.28634" lon="6.11731">
        <ele>343.5</ele>
        <time>2013-06-09T08:22:33.000Z</time>
      </trkpt>
      <trkpt lat="47.28632" lon="6.11726">
        <ele>343</ele>
        <time>2013-06-09T08:22:36.000Z</time>
      </trkpt>
      <trkpt lat="47.28631" lon="6.11725">
        <ele>342.8</ele>
        <time>2013-06-09T08:22:37.000Z</time>
      </trkpt>
      <trkpt lat="47.28629" lon="6.11719">
        <ele>342.2</ele>
        <time>2013-06-09T08:22:40.000Z</time>
      </trkpt>
      <trkpt lat="47.28629" lon="6.11718">
        <ele>342</ele>
        <time>2013-06-09T08:22:41.000Z</time>
      </trkpt>
      <trkpt lat="47.28627" lon="6.11713">
        <ele>341.6</ele>
        <time>2013-06-09T08:22:44.000Z</time>
      </trkpt>
      <trkpt lat="47.28627" lon="6.11711">
        <ele>341.4</ele>
        <time>2013-06-09T08:22:45.000Z</time>
      </trkpt>
      <trkpt lat="47.28625" lon="6.11706">
        <ele>340.9</ele>
        <time>2013-06-09T08:22:48.000Z</time>
      </trkpt>
      <trkpt lat="47.28625" lon="6.11704">
        <ele>341</ele>
        <time>2013-06-09T08:22:49.000Z</time>
      </trkpt>
      <trkpt lat="47.28623" lon="6.11699">
        <ele>340.6</ele>
        <time>2013-06-09T08:22:52.000Z</time>
      </trkpt>
      <trkpt lat="47.28623" lon="6.11697">
        <ele>340.5</ele>
        <time>2013-06-09T08:22:53.000Z</time>
      </trkpt>
      <trkpt lat="47.28621" lon="6.11692">
        <ele>340.4</ele>
        <time>2013-06-09T08:22:56.000Z</time>
      </trkpt>
      <trkpt lat="47.2862" lon="6.1169">
        <ele>340.4</ele>
        <time>2013-06-09T08:22:57.000Z</time>
      </trkpt>
      <trkpt lat="47.28619" lon="6.11685">
        <ele>340.2</ele>
        <time>2013-06-09T08:23:00.000Z</time>
      </trkpt>
      <trkpt lat="47.28618" lon="6.11683">
        <ele>340</ele>
        <time>2013-06-09T08:23:01.000Z</time>
      </trkpt>
      <trkpt lat="47.28616" lon="6.11678">
        <ele>339.9</ele>
        <time>2013-06-09T08:23:04.000Z</time>
      </trkpt>
      <trkpt lat="47.28616" lon="6.11676">
        <ele>339.8</ele>
        <time>2013-06-09T08:23:05.000Z</time>
      </trkpt>
      <trkpt lat="47.28614" lon="6.11671">
        <ele>339.3</ele>
        <time>2013-06-09T08:23:08.000Z</time>
      </trkpt>
      <trkpt lat="47.28614" lon="6.11669">
        <ele>339.1</ele>
        <time>2013-06-09T08:23:09.000Z</time>
      </trkpt>
      <trkpt lat="47.28612" lon="6.11664">
        <ele>338.6</ele>
        <time>2013-06-09T08:23:12.000Z</time>
      </trkpt>
      <trkpt lat="47.28612" lon="6.11662">
        <ele>338.5</ele>
        <time>2013-06-09T08:23:13.000Z</time>
      </trkpt>
      <trkpt lat="47.28611" lon="6.11656">
        <ele>338.3</ele>
        <time>2013-06-09T08:23:16.000Z</time>
      </trkpt>
      <trkpt lat="47.2861" lon="6.11655">
        <ele>338.1</ele>
        <time>2013-06-09T08:23:17.000Z</time>
      </trkpt>
      <trkpt lat="47.28609" lon="6.11649">
        <ele>337.5</ele>
        <time>2013-06-09T08:23:20.000Z</time>
      </trkpt>
      <trkpt lat="47.28609" lon="6.11647">
        <ele>337.3</ele>
        <time>2013-06-09T08:23:21.000Z</time>
      </trkpt>
      <trkpt lat="47.28609" lon="6.11641">
        <ele>337.4</ele>
        <time>2013-06-09T08:23:24.000Z</time>
      </trkpt>
      <trkpt lat="47.28609" lon="6.11639">
        <ele>337.5</ele>
        <time>2013-06-09T08:23:25.000Z</time>
      </trkpt>
      <trkpt lat="47.28609" lon="6.11633">
        <ele>337.9</ele>
        <time>2013-06-09T08:23:28.000Z</time>
      </trkpt>
      <trkpt lat="47.28609" lon="6.11631">
        <ele>338</ele>
        <time>2013-06-09T08:23:29.000Z</time>
      </trkpt>
      <trkpt lat="47.28609" lon="6.11625">
        <ele>338.1</ele>
        <time>2013-06-09T08:23:32.000Z</time>
      </trkpt>
      <trkpt lat="47.28609" lon="6.11623">
        <ele>338.3</ele>
        <time>2013-06-09T08:23:33.000Z</time>
      </trkpt>
      <trkpt lat="47.2861" lon="6.11617">
        <ele>338.8</ele>
        <time>2013-06-09T08:23:36.000Z</time>
      </trkpt>
      <trkpt lat="47.2861" lon="6.11615">
        <ele>338.8</ele>
        <time>2013-06-09T08:23:37.000Z</time>
      </trkpt>
      <trkpt lat="47.2861" lon="6.11609">
        <ele>339</ele>
        <time>2013-06-09T08:23:40.000Z</time>
      </trkpt>
      <trkpt lat="47.2861" lon="6.11607">
        <ele>339</ele>
        <time>2013-06-09T08:23:41.000Z</time>
      </trkpt>
      <trkpt lat="47.2861" lon="6.11601">
        <ele>339.1</ele>
        <time>2013-06-09T08:23:44.000Z</time>
      </trkpt>
      <trkpt lat="47.2861" lon="6.11599">
        <ele>339</ele>
        <time>2013-06-09T08:23:45.000Z</time>
      </trkpt>
      <trkpt lat="47.28611" lon="6.11593">
        <ele>337.8</ele>
        <time>2013-06-09T08:23:48.000Z</time>
      </trkpt>
      <trkpt lat="47.28611" lon="6.11592">
        <ele>337.6</ele>
        <time>2013-06-09T08:23:49.000Z</time>
      </trkpt>
      <trkpt lat="47.28612" lon="6.11585">
        <ele>337.7</ele>
        <time>2013-06-09T08:23:52.000Z</time>
      </trkpt>
      <trkpt lat="47.28612" lon="6.11583">
        <ele>337.8</ele>
        <time>2013-06-09T08:23:53.000Z</time>
      </trkpt>
      <trkpt lat="47.28613" lon="6.11578">
        <ele>337.9</ele>
        <time>2013-06-09T08:23:56.000Z</time>
      </trkpt>
      <trkpt lat="47.28614" lon="6.11576">
        <ele>337.7</ele>
        <time>2013-06-09T08:23:57.000Z</time>
      </trkpt>
      <trkpt lat="47.28615" lon="6.1157">
        <ele>337.5</ele>
        <time>2013-06-09T08:24:00.000Z</time>
      </trkpt>
      <trkpt lat="47.28616" lon="6.11568">
        <ele>337.3</ele>
        <time>2013-06-09T08:24:01.000Z</time>
      </trkpt>
      <trkpt lat="47.28616" lon="6.11562">
        <ele>337.5</ele>
        <time>2013-06-09T08:24:04.000Z</time>
      </trkpt>
      <trkpt lat="47.28617" lon="6.1156">
        <ele>337.5</ele>
        <time>2013-06-09T08:24:05.000Z</time>
      </trkpt>
      <trkpt lat="47.28617" lon="6.11553">
        <ele>337.4</ele>
        <time>2013-06-09T08:24:08.000Z</time>
      </trkpt>
      <trkpt lat="47.28617" lon="6.11551">
        <ele>337.4</ele>
        <time>2013-06-09T08:24:09.000Z</time>
      </trkpt>
      <trkpt lat="47.28617" lon="6.11544">
        <ele>337.8</ele>
        <time>2013-06-09T08:24:12.000Z</time>
      </trkpt>
      <trkpt lat="47.28617" lon="6.11542">
        <ele>337.8</ele>
        <time>2013-06-09T08:24:13.000Z</time>
      </trkpt>
      <trkpt lat="47.28616" lon="6.11536">
        <ele>338.5</ele>
        <time>2013-06-09T08:24:16.000Z</time>
      </trkpt>
      <trkpt lat="47.28616" lon="6.11534">
        <ele>338.7</ele>
        <time>2013-06-09T08:24:17.000Z</time>
      </trkpt>
      <trkpt lat="47.28614" lon="6.11528">
        <ele>339.4</ele>
        <time>2013-06-09T08:24:20.000Z</time>
      </trkpt>
      <trkpt lat="47.28613" lon="6.11527">
        <ele>339.5</ele>
        <time>2013-06-09T08:24:21.000Z</time>
      </trkpt>
      <trkpt lat="47.28611" lon="6.11522">
        <ele>339.5</ele>
        <time>2013-06-09T08:24:24.000Z</time>
      </trkpt>
      <trkpt lat="47.2861" lon="6.1152">
        <ele>339.4</ele>
        <time>2013-06-09T08:24:25.000Z</time>
      </trkpt>
      <trkpt lat="47.28607" lon="6.11517">
        <ele>339.3</ele>
        <time>2013-06-09T08:24:28.000Z</time>
      </trkpt>
      <trkpt lat="47.28606" lon="6.11516">
        <ele>339.2</ele>
        <time>2013-06-09T08:24:29.000Z</time>
      </trkpt>
      <trkpt lat="47.28602" lon="6.11513">
        <ele>339</ele>
        <time>2013-06-09T08:24:32.000Z</time>
      </trkpt>
      <trkpt lat="47.28601" lon="6.11512">
        <ele>339.1</ele>
        <time>2013-06-09T08:24:33.000Z</time>
      </trkpt>
      <trkpt lat="47.28599" lon="6.11508">
        <ele>339</ele>
        <time>2013-06-09T08:24:36.000Z</time>
      </trkpt>
      <trkpt lat="47.28598" lon="6.11507">
        <ele>338.7</ele>
        <time>2013-06-09T08:24:37.000Z</time>
      </trkpt>
      <trkpt lat="47.28598" lon="6.115">
        <ele>337.5</ele>
        <time>2013-06-09T08:24:41.000Z</time>
      </trkpt>
      <trkpt lat="47.28599" lon="6.11499">
        <ele>337.3</ele>
        <time>2013-06-09T08:24:42.000Z</time>
      </trkpt>
      <trkpt lat="47.28602" lon="6.11494">
        <ele>337.2</ele>
        <time>2013-06-09T08:24:45.000Z</time>
      </trkpt>
      <trkpt lat="47.28602" lon="6.11493">
        <ele>337.1</ele>
        <time>2013-06-09T08:24:46.000Z</time>
      </trkpt>
      <trkpt lat="47.28605" lon="6.11489">
        <ele>337.2</ele>
        <time>2013-06-09T08:24:49.000Z</time>
      </trkpt>
      <trkpt lat="47.28606" lon="6.11487">
        <ele>337.4</ele>
        <time>2013-06-09T08:24:50.000Z</time>
      </trkpt>
      <trkpt lat="47.28608" lon="6.11483">
        <ele>337.1</ele>
        <time>2013-06-09T08:24:53.000Z</time>
      </trkpt>
      <trkpt lat="47.28608" lon="6.11482">
        <ele>337</ele>
        <time>2013-06-09T08:24:54.000Z</time>
      </trkpt>
      <trkpt lat="47.2861" lon="6.11477">
        <ele>336.9</ele>
        <time>2013-06-09T08:24:57.000Z</time>
      </trkpt>
      <trkpt lat="47.28611" lon="6.11476">
        <ele>336.6</ele>
        <time>2013-06-09T08:24:58.000Z</time>
      </trkpt>
      <trkpt lat="47.28613" lon="6.11471">
        <ele>336.4</ele>
        <time>2013-06-09T08:25:01.000Z</time>
      </trkpt>
      <trkpt lat="47.28613" lon="6.11469">
        <ele>336</ele>
        <time>2013-06-09T08:25:02.000Z</time>
      </trkpt>
      <trkpt lat="47.28615" lon="6.11465">
        <ele>335.7</ele>
        <time>2013-06-09T08:25:05.000Z</time>
      </trkpt>
      <trkpt lat="47.28615" lon="6.11463">
        <ele>335.7</ele>
        <time>2013-06-09T08:25:06.000Z</time>
      </trkpt>
      <trkpt lat="47.28617" lon="6.11457">
        <ele>335.9</ele>
        <time>2013-06-09T08:25:10.000Z</time>
      </trkpt>
      <trkpt lat="47.28617" lon="6.11455">
        <ele>336.1</ele>
        <time>2013-06-09T08:25:11.000Z</time>
      </trkpt>
      <trkpt lat="47.28619" lon="6.11449">
        <ele>336.3</ele>
        <time>2013-06-09T08:25:15.000Z</time>
      </trkpt>
      <trkpt lat="47.28619" lon="6.11448">
        <ele>336.3</ele>
        <time>2013-06-09T08:25:16.000Z</time>
      </trkpt>
      <trkpt lat="47.28621" lon="6.11443">
        <ele>336.4</ele>
        <time>2013-06-09T08:25:19.000Z</time>
      </trkpt>
      <trkpt lat="47.28621" lon="6.11442">
        <ele>336.4</ele>
        <time>2013-06-09T08:25:20.000Z</time>
      </trkpt>
      <trkpt lat="47.28622" lon="6.11437">
        <ele>336.6</ele>
        <time>2013-06-09T08:25:23.000Z</time>
      </trkpt>
      <trkpt lat="47.28622" lon="6.11435">
        <ele>336.6</ele>
        <time>2013-06-09T08:25:24.000Z</time>
      </trkpt>
      <trkpt lat="47.28622" lon="6.11429">
        <ele>336.7</ele>
        <time>2013-06-09T08:25:28.000Z</time>
      </trkpt>
      <trkpt lat="47.28623" lon="6.11427">
        <ele>336.6</ele>
        <time>2013-06-09T08:25:29.000Z</time>
      </trkpt>
      <trkpt lat="47.28624" lon="6.11421">
        <ele>336.5</ele>
        <time>2013-06-09T08:25:33.000Z</time>
      </trkpt>
      <trkpt lat="47.28624" lon="6.11419">
        <ele>336.4</ele>
        <time>2013-06-09T08:25:34.000Z</time>
      </trkpt>
      <trkpt lat="47.28626" lon="6.11414">
        <ele>335.9</ele>
        <time>2013-06-09T08:25:37.000Z</time>
      </trkpt>
      <trkpt lat="47.28626" lon="6.11412">
        <ele>335.7</ele>
        <time>2013-06-09T08:25:38.000Z</time>
      </trkpt>
      <trkpt lat="47.28628" lon="6.11407">
        <ele>335.8</ele>
        <time>2013-06-09T08:25:41.000Z</time>
      </trkpt>
      <trkpt lat="47.28629" lon="6.11406">
        <ele>335.6</ele>
        <time>2013-06-09T08:25:42.000Z</time>
      </trkpt>
      <trkpt lat="47.28631" lon="6.11401">
        <ele>336</ele>
        <time>2013-06-09T08:25:45.000Z</time>
      </trkpt>
      <trkpt lat="47.28632" lon="6.114">
        <ele>335.9</ele>
        <time>2013-06-09T08:25:46.000Z</time>
      </trkpt>
      <trkpt lat="47.28633" lon="6.11395">
        <ele>335.6</ele>
        <time>2013-06-09T08:25:49.000Z</time>
      </trkpt>
      <trkpt lat="47.28634" lon="6.11393">
        <ele>335.6</ele>
        <time>2013-06-09T08:25:50.000Z</time>
      </trkpt>
      <trkpt lat="47.28636" lon="6.11389">
        <ele>335.4</ele>
        <time>2013-06-09T08:25:53.000Z</time>
      </trkpt>
      <trkpt lat="47.28636" lon="6.11387">
        <ele>335.3</ele>
        <time>2013-06-09T08:25:54.000Z</time>
      </trkpt>
      <trkpt lat="47.28637" lon="6.11382">
        <ele>335.7</ele>
        <time>2013-06-09T08:25:57.000Z</time>
      </trkpt>
      <trkpt lat="47.28638" lon="6.11381">
        <ele>335.7</ele>
        <time>2013-06-09T08:25:58.000Z</time>
      </trkpt>
      <trkpt lat="47.2864" lon="6.11376">
        <ele>335</ele>
        <time>2013-06-09T08:26:01.000Z</time>
      </trkpt>
      <trkpt lat="47.28641" lon="6.11375">
        <ele>335.2</ele>
        <time>2013-06-09T08:26:02.000Z</time>
      </trkpt>
      <trkpt lat="47.28643" lon="6.1137">
        <ele>335.7</ele>
        <time>2013-06-09T08:26:05.000Z</time>
      </trkpt>
      <trkpt lat="47.28644" lon="6.11369">
        <ele>335.8</ele>
        <time>2013-06-09T08:26:06.000Z</time>
      </trkpt>
      <trkpt lat="47.28646" lon="6.11364">
        <ele>335.8</ele>
        <time>2013-06-09T08:26:10.000Z</time>
      </trkpt>
      <trkpt lat="47.28647" lon="6.11363">
        <ele>335.7</ele>
        <time>2013-06-09T08:26:11.000Z</time>
      </trkpt>
      <trkpt lat="47.2865" lon="6.11359">
        <ele>334.8</ele>
        <time>2013-06-09T08:26:15.000Z</time>
      </trkpt>
      <trkpt lat="47.28651" lon="6.11358">
        <ele>334.8</ele>
        <time>2013-06-09T08:26:16.000Z</time>
      </trkpt>
      <trkpt lat="47.28654" lon="6.11354">
        <ele>334.8</ele>
        <time>2013-06-09T08:26:20.000Z</time>
      </trkpt>
      <trkpt lat="47.28655" lon="6.11353">
        <ele>335</ele>
        <time>2013-06-09T08:26:21.000Z</time>
      </trkpt>
      <trkpt lat="47.28659" lon="6.11349">
        <ele>335.8</ele>
        <time>2013-06-09T08:26:25.000Z</time>
      </trkpt>
      <trkpt lat="47.2866" lon="6.11348">
        <ele>336</ele>
        <time>2013-06-09T08:26:26.000Z</time>
      </trkpt>
      <trkpt lat="47.28663" lon="6.11344">
        <ele>336.5</ele>
        <time>2013-06-09T08:26:30.000Z</time>
      </trkpt>
      <trkpt lat="47.28664" lon="6.11343">
        <ele>336.6</ele>
        <time>2013-06-09T08:26:31.000Z</time>
      </trkpt>
      <trkpt lat="47.28667" lon="6.11338">
        <ele>336.5</ele>
        <time>2013-06-09T08:26:35.000Z</time>
      </trkpt>
      <trkpt lat="47.28668" lon="6.11337">
        <ele>336.3</ele>
        <time>2013-06-09T08:26:36.000Z</time>
      </trkpt>
      <trkpt lat="47.28669" lon="6.11333">
        <ele>336.5</ele>
        <time>2013-06-09T08:26:39.000Z</time>
      </trkpt>
      <trkpt lat="47.2867" lon="6.11331">
        <ele>336.6</ele>
        <time>2013-06-09T08:26:40.000Z</time>
      </trkpt>
      <trkpt lat="47.28671" lon="6.11326">
        <ele>336.8</ele>
        <time>2013-06-09T08:26:43.000Z</time>
      </trkpt>
      <trkpt lat="47.28672" lon="6.11324">
        <ele>336.8</ele>
        <time>2013-06-09T08:26:44.000Z</time>
      </trkpt>
      <trkpt lat="47.28673" lon="6.11319">
        <ele>335.7</ele>
        <time>2013-06-09T08:26:47.000Z</time>
      </trkpt>
      <trkpt lat="47.28673" lon="6.11318">
        <ele>335.5</ele>
        <time>2013-06-09T08:26:48.000Z</time>
      </trkpt>
      <trkpt lat="47.28675" lon="6.11313">
        <ele>335.8</ele>
        <time>2013-06-09T08:26:51.000Z</time>
      </trkpt>
      <trkpt lat="47.28675" lon="6.11312">
        <ele>335.8</ele>
        <time>2013-06-09T08:26:52.000Z</time>
      </trkpt>
      <trkpt lat="47.28677" lon="6.11307">
        <ele>336</ele>
        <time>2013-06-09T08:26:55.000Z</time>
      </trkpt>
      <trkpt lat="47.28678" lon="6.11305">
        <ele>335.9</ele>
        <time>2013-06-09T08:26:56.000Z</time>
      </trkpt>
      <trkpt lat="47.2868" lon="6.11301">
        <ele>335.9</ele>
        <time>2013-06-09T08:26:59.000Z</time>
      </trkpt>
      <trkpt lat="47.28681" lon="6.11299">
        <ele>335.6</ele>
        <time>2013-06-09T08:27:00.000Z</time>
      </trkpt>
      <trkpt lat="47.28683" lon="6.11295">
        <ele>335.6</ele>
        <time>2013-06-09T08:27:03.000Z</time>
      </trkpt>
      <trkpt lat="47.28684" lon="6.11294">
        <ele>335.7</ele>
        <time>2013-06-09T08:27:04.000Z</time>
      </trkpt>
      <trkpt lat="47.28686" lon="6.1129">
        <ele>336.1</ele>
        <time>2013-06-09T08:27:07.000Z</time>
      </trkpt>
      <trkpt lat="47.28687" lon="6.11289">
        <ele>336.3</ele>
        <time>2013-06-09T08:27:08.000Z</time>
      </trkpt>
      <trkpt lat="47.28691" lon="6.11286">
        <ele>336.9</ele>
        <time>2013-06-09T08:27:12.000Z</time>
      </trkpt>
      <trkpt lat="47.28692" lon="6.11285">
        <ele>337.2</ele>
        <time>2013-06-09T08:27:13.000Z</time>
      </trkpt>
      <trkpt lat="47.28695" lon="6.11281">
        <ele>337.7</ele>
        <time>2013-06-09T08:27:17.000Z</time>
      </trkpt>
      <trkpt lat="47.28696" lon="6.1128">
        <ele>337.9</ele>
        <time>2013-06-09T08:27:18.000Z</time>
      </trkpt>
      <trkpt lat="47.28699" lon="6.11277">
        <ele>338</ele>
        <time>2013-06-09T08:27:22.000Z</time>
      </trkpt>
      <trkpt lat="47.287" lon="6.11276">
        <ele>338.1</ele>
        <time>2013-06-09T08:27:23.000Z</time>
      </trkpt>
      <trkpt lat="47.28703" lon="6.11272">
        <ele>338.2</ele>
        <time>2013-06-09T08:27:27.000Z</time>
      </trkpt>
      <trkpt lat="47.28703" lon="6.1127">
        <ele>338.5</ele>
        <time>2013-06-09T08:27:28.000Z</time>
      </trkpt>
      <trkpt lat="47.28706" lon="6.11265">
        <ele>338.6</ele>
        <time>2013-06-09T08:27:32.000Z</time>
      </trkpt>
      <trkpt lat="47.28707" lon="6.11264">
        <ele>338.6</ele>
        <time>2013-06-09T08:27:33.000Z</time>
      </trkpt>
      <trkpt lat="47.28709" lon="6.1126">
        <ele>338.9</ele>
        <time>2013-06-09T08:27:36.000Z</time>
      </trkpt>
      <trkpt lat="47.2871" lon="6.11259">
        <ele>338.9</ele>
        <time>2013-06-09T08:27:37.000Z</time>
      </trkpt>
      <trkpt lat="47.28713" lon="6.11255">
        <ele>338.9</ele>
        <time>2013-06-09T08:27:40.000Z</time>
      </trkpt>
      <trkpt lat="47.28713" lon="6.11254">
        <ele>338.9</ele>
        <time>2013-06-09T08:27:41.000Z</time>
      </trkpt>
      <trkpt lat="47.28716" lon="6.1125">
        <ele>339.2</ele>
        <time>2013-06-09T08:27:44.000Z</time>
      </trkpt>
      <trkpt lat="47.28716" lon="6.11249">
        <ele>339.2</ele>
        <time>2013-06-09T08:27:45.000Z</time>
      </trkpt>
      <trkpt lat="47.28719" lon="6.11245">
        <ele>339.4</ele>
        <time>2013-06-09T08:27:48.000Z</time>
      </trkpt>
      <trkpt lat="47.2872" lon="6.11244">
        <ele>339.5</ele>
        <time>2013-06-09T08:27:49.000Z</time>
      </trkpt>
      <trkpt lat="47.28722" lon="6.1124">
        <ele>339.5</ele>
        <time>2013-06-09T08:27:52.000Z</time>
      </trkpt>
      <trkpt lat="47.28723" lon="6.11238">
        <ele>339.6</ele>
        <time>2013-06-09T08:27:53.000Z</time>
      </trkpt>
      <trkpt lat="47.28725" lon="6.11234">
        <ele>339.9</ele>
        <time>2013-06-09T08:27:56.000Z</time>
      </trkpt>
      <trkpt lat="47.28726" lon="6.11232">
        <ele>339.9</ele>
        <time>2013-06-09T08:27:57.000Z</time>
      </trkpt>
      <trkpt lat="47.28728" lon="6.11228">
        <ele>339.9</ele>
        <time>2013-06-09T08:28:00.000Z</time>
      </trkpt>
      <trkpt lat="47.28729" lon="6.11226">
        <ele>339.9</ele>
        <time>2013-06-09T08:28:01.000Z</time>
      </trkpt>
      <trkpt lat="47.28731" lon="6.11222">
        <ele>339.3</ele>
        <time>2013-06-09T08:28:04.000Z</time>
      </trkpt>
      <trkpt lat="47.28732" lon="6.11221">
        <ele>339</ele>
        <time>2013-06-09T08:28:05.000Z</time>
      </trkpt>
      <trkpt lat="47.28734" lon="6.11216">
        <ele>338.9</ele>
        <time>2013-06-09T08:28:08.000Z</time>
      </trkpt>
      <trkpt lat="47.28735" lon="6.11214">
        <ele>339</ele>
        <time>2013-06-09T08:28:09.000Z</time>
      </trkpt>
      <trkpt lat="47.28737" lon="6.1121">
        <ele>340</ele>
        <time>2013-06-09T08:28:12.000Z</time>
      </trkpt>
      <trkpt lat="47.28737" lon="6.11209">
        <ele>340.4</ele>
        <time>2013-06-09T08:28:13.000Z</time>
      </trkpt>
      <trkpt lat="47.28739" lon="6.11205">
        <ele>340.6</ele>
        <time>2013-06-09T08:28:16.000Z</time>
      </trkpt>
      <trkpt lat="47.2874" lon="6.11203">
        <ele>340.5</ele>
        <time>2013-06-09T08:28:17.000Z</time>
      </trkpt>
      <trkpt lat="47.28743" lon="6.11198">
        <ele>340.5</ele>
        <time>2013-06-09T08:28:21.000Z</time>
      </trkpt>
      <trkpt lat="47.28744" lon="6.11197">
        <ele>340.7</ele>
        <time>2013-06-09T08:28:22.000Z</time>
      </trkpt>
      <trkpt lat="47.28746" lon="6.11193">
        <ele>340.7</ele>
        <time>2013-06-09T08:28:25.000Z</time>
      </trkpt>
      <trkpt lat="47.28747" lon="6.11192">
        <ele>340.7</ele>
        <time>2013-06-09T08:28:26.000Z</time>
      </trkpt>
      <trkpt lat="47.2875" lon="6.11189">
        <ele>341.3</ele>
        <time>2013-06-09T08:28:29.000Z</time>
      </trkpt>
      <trkpt lat="47.2875" lon="6.11188">
        <ele>341.5</ele>
        <time>2013-06-09T08:28:30.000Z</time>
      </trkpt>
      <trkpt lat="47.28753" lon="6.11182">
        <ele>342.8</ele>
        <time>2013-06-09T08:28:34.000Z</time>
      </trkpt>
      <trkpt lat="47.28754" lon="6.11181">
        <ele>343</ele>
        <time>2013-06-09T08:28:35.000Z</time>
      </trkpt>
      <trkpt lat="47.28756" lon="6.11177">
        <ele>343.3</ele>
        <time>2013-06-09T08:28:38.000Z</time>
      </trkpt>
      <trkpt lat="47.28756" lon="6.11176">
        <ele>343.1</ele>
        <time>2013-06-09T08:28:39.000Z</time>
      </trkpt>
      <trkpt lat="47.28758" lon="6.11172">
        <ele>343.5</ele>
        <time>2013-06-09T08:28:42.000Z</time>
      </trkpt>
      <trkpt lat="47.28759" lon="6.1117">
        <ele>343.6</ele>
        <time>2013-06-09T08:28:43.000Z</time>
      </trkpt>
      <trkpt lat="47.2876" lon="6.11165">
        <ele>343.2</ele>
        <time>2013-06-09T08:28:46.000Z</time>
      </trkpt>
      <trkpt lat="47.2876" lon="6.11164">
        <ele>343.1</ele>
        <time>2013-06-09T08:28:47.000Z</time>
      </trkpt>
      <trkpt lat="47.28761" lon="6.11158">
        <ele>343.1</ele>
        <time>2013-06-09T08:28:50.000Z</time>
      </trkpt>
      <trkpt lat="47.28762" lon="6.11157">
        <ele>343.1</ele>
        <time>2013-06-09T08:28:51.000Z</time>
      </trkpt>
      <trkpt lat="47.28763" lon="6.11151">
        <ele>343.1</ele>
        <time>2013-06-09T08:28:54.000Z</time>
      </trkpt>
      <trkpt lat="47.28763" lon="6.1115">
        <ele>343.1</ele>
        <time>2013-06-09T08:28:55.000Z</time>
      </trkpt>
      <trkpt lat="47.28764" lon="6.11145">
        <ele>343.6</ele>
        <time>2013-06-09T08:28:58.000Z</time>
      </trkpt>
      <trkpt lat="47.28765" lon="6.11143">
        <ele>343.9</ele>
        <time>2013-06-09T08:28:59.000Z</time>
      </trkpt>
      <trkpt lat="47.28766" lon="6.11138">
        <ele>344.4</ele>
        <time>2013-06-09T08:29:02.000Z</time>
      </trkpt>
      <trkpt lat="47.28767" lon="6.11136">
        <ele>344.5</ele>
        <time>2013-06-09T08:29:03.000Z</time>
      </trkpt>
      <trkpt lat="47.28768" lon="6.11131">
        <ele>344.9</ele>
        <time>2013-06-09T08:29:06.000Z</time>
      </trkpt>
      <trkpt lat="47.28768" lon="6.11129">
        <ele>345.1</ele>
        <time>2013-06-09T08:29:07.000Z</time>
      </trkpt>
      <trkpt lat="47.28769" lon="6.11123">
        <ele>345.1</ele>
        <time>2013-06-09T08:29:10.000Z</time>
      </trkpt>
      <trkpt lat="47.2877" lon="6.11122">
        <ele>345.2</ele>
        <time>2013-06-09T08:29:11.000Z</time>
      </trkpt>
      <trkpt lat="47.2877" lon="6.11117">
        <ele>345.7</ele>
        <time>2013-06-09T08:29:14.000Z</time>
      </trkpt>
      <trkpt lat="47.28771" lon="6.11115">
        <ele>345.7</ele>
        <time>2013-06-09T08:29:15.000Z</time>
      </trkpt>
      <trkpt lat="47.28772" lon="6.11109">
        <ele>346.3</ele>
        <time>2013-06-09T08:29:19.000Z</time>
      </trkpt>
      <trkpt lat="47.28773" lon="6.11107">
        <ele>346.2</ele>
        <time>2013-06-09T08:29:20.000Z</time>
      </trkpt>
      <trkpt lat="47.28774" lon="6.11103">
        <ele>346</ele>
        <time>2013-06-09T08:29:23.000Z</time>
      </trkpt>
      <trkpt lat="47.28774" lon="6.11101">
        <ele>345.9</ele>
        <time>2013-06-09T08:29:24.000Z</time>
      </trkpt>
      <trkpt lat="47.28776" lon="6.11096">
        <ele>345.9</ele>
        <time>2013-06-09T08:29:27.000Z</time>
      </trkpt>
      <trkpt lat="47.28777" lon="6.11095">
        <ele>346</ele>
        <time>2013-06-09T08:29:28.000Z</time>
      </trkpt>
      <trkpt lat="47.28778" lon="6.11089">
        <ele>346.2</ele>
        <time>2013-06-09T08:29:32.000Z</time>
      </trkpt>
      <trkpt lat="47.28778" lon="6.11088">
        <ele>346.2</ele>
        <time>2013-06-09T08:29:33.000Z</time>
      </trkpt>
      <trkpt lat="47.28779" lon="6.11082">
        <ele>347</ele>
        <time>2013-06-09T08:29:39.000Z</time>
      </trkpt>
      <trkpt lat="47.28779" lon="6.11081">
        <ele>347.2</ele>
        <time>2013-06-09T08:29:40.000Z</time>
      </trkpt>
      <trkpt lat="47.28782" lon="6.11078">
        <ele>347</ele>
        <time>2013-06-09T08:29:44.000Z</time>
      </trkpt>
      <trkpt lat="47.28782" lon="6.11076">
        <ele>347.4</ele>
        <time>2013-06-09T08:29:45.000Z</time>
      </trkpt>
      <trkpt lat="47.28785" lon="6.11072">
        <ele>347.5</ele>
        <time>2013-06-09T08:29:49.000Z</time>
      </trkpt>
      <trkpt lat="47.28786" lon="6.11071">
        <ele>347.8</ele>
        <time>2013-06-09T08:29:50.000Z</time>
      </trkpt>
      <trkpt lat="47.28789" lon="6.11066">
        <ele>348.2</ele>
        <time>2013-06-09T08:29:54.000Z</time>
      </trkpt>
      <trkpt lat="47.28789" lon="6.11064">
        <ele>348.2</ele>
        <time>2013-06-09T08:29:55.000Z</time>
      </trkpt>
      <trkpt lat="47.28791" lon="6.1106">
        <ele>348.1</ele>
        <time>2013-06-09T08:29:58.000Z</time>
      </trkpt>
      <trkpt lat="47.28792" lon="6.11059">
        <ele>348.2</ele>
        <time>2013-06-09T08:29:59.000Z</time>
      </trkpt>
      <trkpt lat="47.28794" lon="6.11054">
        <ele>348.6</ele>
        <time>2013-06-09T08:30:03.000Z</time>
      </trkpt>
      <trkpt lat="47.28795" lon="6.11053">
        <ele>348.7</ele>
        <time>2013-06-09T08:30:04.000Z</time>
      </trkpt>
      <trkpt lat="47.28796" lon="6.11047">
        <ele>348.4</ele>
        <time>2013-06-09T08:30:08.000Z</time>
      </trkpt>
      <trkpt lat="47.28796" lon="6.11045">
        <ele>348.4</ele>
        <time>2013-06-09T08:30:09.000Z</time>
      </trkpt>
      <trkpt lat="47.28797" lon="6.11039">
        <ele>349.1</ele>
        <time>2013-06-09T08:30:13.000Z</time>
      </trkpt>
      <trkpt lat="47.28797" lon="6.11038">
        <ele>349.2</ele>
        <time>2013-06-09T08:30:14.000Z</time>
      </trkpt>
      <trkpt lat="47.28797" lon="6.11032">
        <ele>349.7</ele>
        <time>2013-06-09T08:30:18.000Z</time>
      </trkpt>
      <trkpt lat="47.28797" lon="6.1103">
        <ele>349.7</ele>
        <time>2013-06-09T08:30:19.000Z</time>
      </trkpt>
      <trkpt lat="47.28799" lon="6.11024">
        <ele>349.6</ele>
        <time>2013-06-09T08:30:23.000Z</time>
      </trkpt>
      <trkpt lat="47.28799" lon="6.11022">
        <ele>349.7</ele>
        <time>2013-06-09T08:30:24.000Z</time>
      </trkpt>
      <trkpt lat="47.288" lon="6.11016">
        <ele>349.6</ele>
        <time>2013-06-09T08:30:28.000Z</time>
      </trkpt>
      <trkpt lat="47.288" lon="6.11015">
        <ele>349.7</ele>
        <time>2013-06-09T08:30:29.000Z</time>
      </trkpt>
      <trkpt lat="47.28802" lon="6.1101">
        <ele>349.7</ele>
        <time>2013-06-09T08:30:32.000Z</time>
      </trkpt>
      <trkpt lat="47.28802" lon="6.11009">
        <ele>349.5</ele>
        <time>2013-06-09T08:30:33.000Z</time>
      </trkpt>
      <trkpt lat="47.28804" lon="6.11004">
        <ele>349.2</ele>
        <time>2013-06-09T08:30:36.000Z</time>
      </trkpt>
      <trkpt lat="47.28804" lon="6.11002">
        <ele>349</ele>
        <time>2013-06-09T08:30:37.000Z</time>
      </trkpt>
      <trkpt lat="47.28805" lon="6.10997">
        <ele>348.1</ele>
        <time>2013-06-09T08:30:40.000Z</time>
      </trkpt>
      <trkpt lat="47.28806" lon="6.10996">
        <ele>347.9</ele>
        <time>2013-06-09T08:30:41.000Z</time>
      </trkpt>
      <trkpt lat="47.28807" lon="6.10991">
        <ele>347.9</ele>
        <time>2013-06-09T08:30:44.000Z</time>
      </trkpt>
      <trkpt lat="47.28808" lon="6.10989">
        <ele>347.9</ele>
        <time>2013-06-09T08:30:45.000Z</time>
      </trkpt>
      <trkpt lat="47.28809" lon="6.10985">
        <ele>348.5</ele>
        <time>2013-06-09T08:30:48.000Z</time>
      </trkpt>
      <trkpt lat="47.2881" lon="6.10983">
        <ele>348.6</ele>
        <time>2013-06-09T08:30:49.000Z</time>
      </trkpt>
      <trkpt lat="47.28813" lon="6.10978">
        <ele>348.5</ele>
        <time>2013-06-09T08:30:53.000Z</time>
      </trkpt>
      <trkpt lat="47.28813" lon="6.10977">
        <ele>348.4</ele>
        <time>2013-06-09T08:30:54.000Z</time>
      </trkpt>
      <trkpt lat="47.28816" lon="6.10973">
        <ele>348.2</ele>
        <time>2013-06-09T08:30:57.000Z</time>
      </trkpt>
      <trkpt lat="47.28816" lon="6.10972">
        <ele>348</ele>
        <time>2013-06-09T08:30:58.000Z</time>
      </trkpt>
      <trkpt lat="47.28819" lon="6.10967">
        <ele>347.9</ele>
        <time>2013-06-09T08:31:01.000Z</time>
      </trkpt>
      <trkpt lat="47.2882" lon="6.10966">
        <ele>347.8</ele>
        <time>2013-06-09T08:31:02.000Z</time>
      </trkpt>
      <trkpt lat="47.28822" lon="6.10961">
        <ele>348</ele>
        <time>2013-06-09T08:31:05.000Z</time>
      </trkpt>
      <trkpt lat="47.28823" lon="6.1096">
        <ele>348.2</ele>
        <time>2013-06-09T08:31:06.000Z</time>
      </trkpt>
      <trkpt lat="47.28826" lon="6.10955">
        <ele>348.6</ele>
        <time>2013-06-09T08:31:09.000Z</time>
      </trkpt>
      <trkpt lat="47.28826" lon="6.10954">
        <ele>348.8</ele>
        <time>2013-06-09T08:31:10.000Z</time>
      </trkpt>
      <trkpt lat="47.28828" lon="6.10949">
        <ele>349.7</ele>
        <time>2013-06-09T08:31:13.000Z</time>
      </trkpt>
      <trkpt lat="47.28828" lon="6.10948">
        <ele>350</ele>
        <time>2013-06-09T08:31:14.000Z</time>
      </trkpt>
      <trkpt lat="47.2883" lon="6.10943">
        <ele>350.4</ele>
        <time>2013-06-09T08:31:17.000Z</time>
      </trkpt>
      <trkpt lat="47.2883" lon="6.10942">
        <ele>350.3</ele>
        <time>2013-06-09T08:31:18.000Z</time>
      </trkpt>
      <trkpt lat="47.28832" lon="6.10937">
        <ele>350.8</ele>
        <time>2013-06-09T08:31:21.000Z</time>
      </trkpt>
      <trkpt lat="47.28832" lon="6.10935">
        <ele>351.3</ele>
        <time>2013-06-09T08:31:22.000Z</time>
      </trkpt>
      <trkpt lat="47.28834" lon="6.10931">
        <ele>352.3</ele>
        <time>2013-06-09T08:31:25.000Z</time>
      </trkpt>
      <trkpt lat="47.28835" lon="6.1093">
        <ele>352.4</ele>
        <time>2013-06-09T08:31:26.000Z</time>
      </trkpt>
      <trkpt lat="47.28836" lon="6.10925">
        <ele>352.8</ele>
        <time>2013-06-09T08:31:29.000Z</time>
      </trkpt>
      <trkpt lat="47.28837" lon="6.10924">
        <ele>353</ele>
        <time>2013-06-09T08:31:30.000Z</time>
      </trkpt>
      <trkpt lat="47.28839" lon="6.1092">
        <ele>353.1</ele>
        <time>2013-06-09T08:31:33.000Z</time>
      </trkpt>
      <trkpt lat="47.2884" lon="6.10919">
        <ele>353</ele>
        <time>2013-06-09T08:31:34.000Z</time>
      </trkpt>
      <trkpt lat="47.28842" lon="6.10915">
        <ele>352.5</ele>
        <time>2013-06-09T08:31:37.000Z</time>
      </trkpt>
      <trkpt lat="47.28843" lon="6.10914">
        <ele>352.4</ele>
        <time>2013-06-09T08:31:38.000Z</time>
      </trkpt>
      <trkpt lat="47.28845" lon="6.10909">
        <ele>352.6</ele>
        <time>2013-06-09T08:31:41.000Z</time>
      </trkpt>
      <trkpt lat="47.28845" lon="6.10907">
        <ele>352.6</ele>
        <time>2013-06-09T08:31:42.000Z</time>
      </trkpt>
      <trkpt lat="47.28847" lon="6.10903">
        <ele>352.8</ele>
        <time>2013-06-09T08:31:45.000Z</time>
      </trkpt>
      <trkpt lat="47.28848" lon="6.10901">
        <ele>353.3</ele>
        <time>2013-06-09T08:31:46.000Z</time>
      </trkpt>
      <trkpt lat="47.2885" lon="6.10897">
        <ele>354.4</ele>
        <time>2013-06-09T08:31:49.000Z</time>
      </trkpt>
      <trkpt lat="47.2885" lon="6.10895">
        <ele>354.5</ele>
        <time>2013-06-09T08:31:50.000Z</time>
      </trkpt>
      <trkpt lat="47.28853" lon="6.10891">
        <ele>355.1</ele>
        <time>2013-06-09T08:31:53.000Z</time>
      </trkpt>
      <trkpt lat="47.28853" lon="6.10889">
        <ele>355.1</ele>
        <time>2013-06-09T08:31:54.000Z</time>
      </trkpt>
      <trkpt lat="47.28856" lon="6.10885">
        <ele>354.8</ele>
        <time>2013-06-09T08:31:57.000Z</time>
      </trkpt>
      <trkpt lat="47.28857" lon="6.10884">
        <ele>354.6</ele>
        <time>2013-06-09T08:31:58.000Z</time>
      </trkpt>
      <trkpt lat="47.28859" lon="6.10879">
        <ele>354.4</ele>
        <time>2013-06-09T08:32:01.000Z</time>
      </trkpt>
      <trkpt lat="47.2886" lon="6.10878">
        <ele>354.2</ele>
        <time>2013-06-09T08:32:02.000Z</time>
      </trkpt>
      <trkpt lat="47.28862" lon="6.10874">
        <ele>354</ele>
        <time>2013-06-09T08:32:05.000Z</time>
      </trkpt>
      <trkpt lat="47.28863" lon="6.10872">
        <ele>354</ele>
        <time>2013-06-09T08:32:06.000Z</time>
      </trkpt>
      <trkpt lat="47.28865" lon="6.10868">
        <ele>354.8</ele>
        <time>2013-06-09T08:32:09.000Z</time>
      </trkpt>
      <trkpt lat="47.28866" lon="6.10867">
        <ele>355.2</ele>
        <time>2013-06-09T08:32:10.000Z</time>
      </trkpt>
      <trkpt lat="47.28868" lon="6.10862">
        <ele>355.4</ele>
        <time>2013-06-09T08:32:13.000Z</time>
      </trkpt>
      <trkpt lat="47.28868" lon="6.10861">
        <ele>355.4</ele>
        <time>2013-06-09T08:32:14.000Z</time>
      </trkpt>
      <trkpt lat="47.28871" lon="6.10857">
        <ele>355.7</ele>
        <time>2013-06-09T08:32:17.000Z</time>
      </trkpt>
      <trkpt lat="47.28872" lon="6.10856">
        <ele>355.7</ele>
        <time>2013-06-09T08:32:18.000Z</time>
      </trkpt>
      <trkpt lat="47.28875" lon="6.10853">
        <ele>356</ele>
        <time>2013-06-09T08:32:21.000Z</time>
      </trkpt>
      <trkpt lat="47.28876" lon="6.10852">
        <ele>356.2</ele>
        <time>2013-06-09T08:32:22.000Z</time>
      </trkpt>
      <trkpt lat="47.28878" lon="6.10848">
        <ele>356.6</ele>
        <time>2013-06-09T08:32:25.000Z</time>
      </trkpt>
      <trkpt lat="47.28879" lon="6.10847">
        <ele>356.5</ele>
        <time>2013-06-09T08:32:26.000Z</time>
      </trkpt>
      <trkpt lat="47.28882" lon="6.10843">
        <ele>356.3</ele>
        <time>2013-06-09T08:32:29.000Z</time>
      </trkpt>
      <trkpt lat="47.28882" lon="6.10841">
        <ele>356.2</ele>
        <time>2013-06-09T08:32:30.000Z</time>
      </trkpt>
      <trkpt lat="47.28885" lon="6.10837">
        <ele>355.4</ele>
        <time>2013-06-09T08:32:33.000Z</time>
      </trkpt>
      <trkpt lat="47.28885" lon="6.10836">
        <ele>355.2</ele>
        <time>2013-06-09T08:32:34.000Z</time>
      </trkpt>
      <trkpt lat="47.28888" lon="6.10832">
        <ele>354.3</ele>
        <time>2013-06-09T08:32:38.000Z</time>
      </trkpt>
      <trkpt lat="47.28889" lon="6.10831">
        <ele>354.8</ele>
        <time>2013-06-09T08:32:39.000Z</time>
      </trkpt>
      <trkpt lat="47.28891" lon="6.10826">
        <ele>354.8</ele>
        <time>2013-06-09T08:32:42.000Z</time>
      </trkpt>
      <trkpt lat="47.28892" lon="6.10824">
        <ele>354.9</ele>
        <time>2013-06-09T08:32:43.000Z</time>
      </trkpt>
      <trkpt lat="47.28895" lon="6.1082">
        <ele>355.3</ele>
        <time>2013-06-09T08:32:46.000Z</time>
      </trkpt>
      <trkpt lat="47.28896" lon="6.10818">
        <ele>355.3</ele>
        <time>2013-06-09T08:32:47.000Z</time>
      </trkpt>
      <trkpt lat="47.28899" lon="6.10814">
        <ele>354.8</ele>
        <time>2013-06-09T08:32:50.000Z</time>
      </trkpt>
      <trkpt lat="47.289" lon="6.10813">
        <ele>355.1</ele>
        <time>2013-06-09T08:32:51.000Z</time>
      </trkpt>
      <trkpt lat="47.28903" lon="6.10808">
        <ele>355.5</ele>
        <time>2013-06-09T08:32:54.000Z</time>
      </trkpt>
      <trkpt lat="47.28904" lon="6.10807">
        <ele>355.9</ele>
        <time>2013-06-09T08:32:55.000Z</time>
      </trkpt>
      <trkpt lat="47.28907" lon="6.10802">
        <ele>356.2</ele>
        <time>2013-06-09T08:32:58.000Z</time>
      </trkpt>
      <trkpt lat="47.28908" lon="6.10801">
        <ele>356.4</ele>
        <time>2013-06-09T08:32:59.000Z</time>
      </trkpt>
      <trkpt lat="47.28911" lon="6.10798">
        <ele>356.1</ele>
        <time>2013-06-09T08:33:02.000Z</time>
      </trkpt>
      <trkpt lat="47.28912" lon="6.10797">
        <ele>356</ele>
        <time>2013-06-09T08:33:03.000Z</time>
      </trkpt>
      <trkpt lat="47.28916" lon="6.10795">
        <ele>356.2</ele>
        <time>2013-06-09T08:33:08.000Z</time>
      </trkpt>
      <trkpt lat="47.28917" lon="6.10793">
        <ele>356.6</ele>
        <time>2013-06-09T08:33:09.000Z</time>
      </trkpt>
      <trkpt lat="47.2892" lon="6.10788">
        <ele>357.7</ele>
        <time>2013-06-09T08:33:12.000Z</time>
      </trkpt>
      <trkpt lat="47.28921" lon="6.10787">
        <ele>357.4</ele>
        <time>2013-06-09T08:33:13.000Z</time>
      </trkpt>
      <trkpt lat="47.28924" lon="6.10783">
        <ele>358.2</ele>
        <time>2013-06-09T08:33:16.000Z</time>
      </trkpt>
      <trkpt lat="47.28925" lon="6.10781">
        <ele>358.5</ele>
        <time>2013-06-09T08:33:17.000Z</time>
      </trkpt>
      <trkpt lat="47.28928" lon="6.10777">
        <ele>359</ele>
        <time>2013-06-09T08:33:20.000Z</time>
      </trkpt>
      <trkpt lat="47.28929" lon="6.10776">
        <ele>359.2</ele>
        <time>2013-06-09T08:33:21.000Z</time>
      </trkpt>
      <trkpt lat="47.28932" lon="6.10772">
        <ele>360.5</ele>
        <time>2013-06-09T08:33:24.000Z</time>
      </trkpt>
      <trkpt lat="47.28933" lon="6.10771">
        <ele>361</ele>
        <time>2013-06-09T08:33:25.000Z</time>
      </trkpt>
      <trkpt lat="47.28936" lon="6.10767">
        <ele>360.4</ele>
        <time>2013-06-09T08:33:28.000Z</time>
      </trkpt>
      <trkpt lat="47.28937" lon="6.10766">
        <ele>360.3</ele>
        <time>2013-06-09T08:33:29.000Z</time>
      </trkpt>
      <trkpt lat="47.2894" lon="6.10763">
        <ele>361.8</ele>
        <time>2013-06-09T08:33:32.000Z</time>
      </trkpt>
      <trkpt lat="47.28941" lon="6.10762">
        <ele>362.7</ele>
        <time>2013-06-09T08:33:33.000Z</time>
      </trkpt>
      <trkpt lat="47.28944" lon="6.10759">
        <ele>364.4</ele>
        <time>2013-06-09T08:33:36.000Z</time>
      </trkpt>
      <trkpt lat="47.28945" lon="6.10758">
        <ele>365</ele>
        <time>2013-06-09T08:33:37.000Z</time>
      </trkpt>
      <trkpt lat="47.28948" lon="6.10755">
        <ele>364.4</ele>
        <time>2013-06-09T08:33:40.000Z</time>
      </trkpt>
      <trkpt lat="47.28949" lon="6.10754">
        <ele>364.6</ele>
        <time>2013-06-09T08:33:41.000Z</time>
      </trkpt>
      <trkpt lat="47.28952" lon="6.10752">
        <ele>364.8</ele>
        <time>2013-06-09T08:33:45.000Z</time>
      </trkpt>
      <trkpt lat="47.28953" lon="6.10751">
        <ele>364.2</ele>
        <time>2013-06-09T08:33:46.000Z</time>
      </trkpt>
      <trkpt lat="47.28957" lon="6.10748">
        <ele>364.8</ele>
        <time>2013-06-09T08:33:50.000Z</time>
      </trkpt>
      <trkpt lat="47.28958" lon="6.10748">
        <ele>365</ele>
        <time>2013-06-09T08:33:51.000Z</time>
      </trkpt>
      <trkpt lat="47.28962" lon="6.10746">
        <ele>366</ele>
        <time>2013-06-09T08:33:55.000Z</time>
      </trkpt>
      <trkpt lat="47.28963" lon="6.10745">
        <ele>366</ele>
        <time>2013-06-09T08:33:56.000Z</time>
      </trkpt>
      <trkpt lat="47.28966" lon="6.10741">
        <ele>366.1</ele>
        <time>2013-06-09T08:34:00.000Z</time>
      </trkpt>
      <trkpt lat="47.28967" lon="6.1074">
        <ele>366.4</ele>
        <time>2013-06-09T08:34:01.000Z</time>
      </trkpt>
      <trkpt lat="47.28969" lon="6.10736">
        <ele>367.2</ele>
        <time>2013-06-09T08:34:04.000Z</time>
      </trkpt>
      <trkpt lat="47.2897" lon="6.10735">
        <ele>367.6</ele>
        <time>2013-06-09T08:34:05.000Z</time>
      </trkpt>
      <trkpt lat="47.28973" lon="6.10733">
        <ele>369.2</ele>
        <time>2013-06-09T08:34:08.000Z</time>
      </trkpt>
      <trkpt lat="47.28974" lon="6.10732">
        <ele>369.6</ele>
        <time>2013-06-09T08:34:09.000Z</time>
      </trkpt>
      <trkpt lat="47.28977" lon="6.10729">
        <ele>368.8</ele>
        <time>2013-06-09T08:34:12.000Z</time>
      </trkpt>
      <trkpt lat="47.28978" lon="6.10728">
        <ele>368.4</ele>
        <time>2013-06-09T08:34:13.000Z</time>
      </trkpt>
      <trkpt lat="47.28982" lon="6.10726">
        <ele>367</ele>
        <time>2013-06-09T08:34:16.000Z</time>
      </trkpt>
      <trkpt lat="47.28983" lon="6.10725">
        <ele>366.5</ele>
        <time>2013-06-09T08:34:17.000Z</time>
      </trkpt>
      <trkpt lat="47.28987" lon="6.10722">
        <ele>366.5</ele>
        <time>2013-06-09T08:34:20.000Z</time>
      </trkpt>
      <trkpt lat="47.28988" lon="6.10722">
        <ele>366.4</ele>
        <time>2013-06-09T08:34:21.000Z</time>
      </trkpt>
      <trkpt lat="47.28991" lon="6.1072">
        <ele>366.8</ele>
        <time>2013-06-09T08:34:24.000Z</time>
      </trkpt>
      <trkpt lat="47.28993" lon="6.1072">
        <ele>366.9</ele>
        <time>2013-06-09T08:34:25.000Z</time>
      </trkpt>
      <trkpt lat="47.28996" lon="6.10719">
        <ele>367.7</ele>
        <time>2013-06-09T08:34:28.000Z</time>
      </trkpt>
      <trkpt lat="47.28997" lon="6.10718">
        <ele>367.8</ele>
        <time>2013-06-09T08:34:29.000Z</time>
      </trkpt>
      <trkpt lat="47.29001" lon="6.10717">
        <ele>367.6</ele>
        <time>2013-06-09T08:34:32.000Z</time>
      </trkpt>
      <trkpt lat="47.29002" lon="6.10716">
        <ele>367.6</ele>
        <time>2013-06-09T08:34:33.000Z</time>
      </trkpt>
      <trkpt lat="47.29006" lon="6.10714">
        <ele>367.3</ele>
        <time>2013-06-09T08:34:36.000Z</time>
      </trkpt>
      <trkpt lat="47.29007" lon="6.10713">
        <ele>367.2</ele>
        <time>2013-06-09T08:34:37.000Z</time>
      </trkpt>
      <trkpt lat="47.2901" lon="6.10712">
        <ele>367.2</ele>
        <time>2013-06-09T08:34:40.000Z</time>
      </trkpt>
      <trkpt lat="47.29012" lon="6.10711">
        <ele>367.3</ele>
        <time>2013-06-09T08:34:41.000Z</time>
      </trkpt>
      <trkpt lat="47.29016" lon="6.10711">
        <ele>368.1</ele>
        <time>2013-06-09T08:34:44.000Z</time>
      </trkpt>
      <trkpt lat="47.29017" lon="6.10711">
        <ele>368.7</ele>
        <time>2013-06-09T08:34:45.000Z</time>
      </trkpt>
      <trkpt lat="47.29021" lon="6.10711">
        <ele>369.3</ele>
        <time>2013-06-09T08:34:48.000Z</time>
      </trkpt>
      <trkpt lat="47.29022" lon="6.10711">
        <ele>369.4</ele>
        <time>2013-06-09T08:34:49.000Z</time>
      </trkpt>
      <trkpt lat="47.29026" lon="6.10711">
        <ele>370</ele>
        <time>2013-06-09T08:34:53.000Z</time>
      </trkpt>
      <trkpt lat="47.29027" lon="6.10711">
        <ele>370.1</ele>
        <time>2013-06-09T08:34:54.000Z</time>
      </trkpt>
      <trkpt lat="47.2903" lon="6.10712">
        <ele>370.7</ele>
        <time>2013-06-09T08:34:57.000Z</time>
      </trkpt>
      <trkpt lat="47.29031" lon="6.10712">
        <ele>370.8</ele>
        <time>2013-06-09T08:34:58.000Z</time>
      </trkpt>
      <trkpt lat="47.29036" lon="6.1071">
        <ele>371.8</ele>
        <time>2013-06-09T08:35:02.000Z</time>
      </trkpt>
      <trkpt lat="47.29037" lon="6.10709">
        <ele>371.8</ele>
        <time>2013-06-09T08:35:03.000Z</time>
      </trkpt>
      <trkpt lat="47.2904" lon="6.10707">
        <ele>371.9</ele>
        <time>2013-06-09T08:35:07.000Z</time>
      </trkpt>
      <trkpt lat="47.29041" lon="6.10706">
        <ele>372.1</ele>
        <time>2013-06-09T08:35:08.000Z</time>
      </trkpt>
      <trkpt lat="47.29044" lon="6.10703">
        <ele>372.6</ele>
        <time>2013-06-09T08:35:11.000Z</time>
      </trkpt>
      <trkpt lat="47.29045" lon="6.10703">
        <ele>373</ele>
        <time>2013-06-09T08:35:12.000Z</time>
      </trkpt>
      <trkpt lat="47.29048" lon="6.10701">
        <ele>374.5</ele>
        <time>2013-06-09T08:35:15.000Z</time>
      </trkpt>
      <trkpt lat="47.29049" lon="6.10701">
        <ele>374.6</ele>
        <time>2013-06-09T08:35:16.000Z</time>
      </trkpt>
      <trkpt lat="47.29053" lon="6.10699">
        <ele>374.7</ele>
        <time>2013-06-09T08:35:19.000Z</time>
      </trkpt>
      <trkpt lat="47.29054" lon="6.10699">
        <ele>374.9</ele>
        <time>2013-06-09T08:35:20.000Z</time>
      </trkpt>
      <trkpt lat="47.29058" lon="6.10697">
        <ele>375</ele>
        <time>2013-06-09T08:35:23.000Z</time>
      </trkpt>
      <trkpt lat="47.29059" lon="6.10697">
        <ele>374.7</ele>
        <time>2013-06-09T08:35:24.000Z</time>
      </trkpt>
      <trkpt lat="47.29063" lon="6.10695">
        <ele>375.3</ele>
        <time>2013-06-09T08:35:28.000Z</time>
      </trkpt>
      <trkpt lat="47.29064" lon="6.10695">
        <ele>375.4</ele>
        <time>2013-06-09T08:35:29.000Z</time>
      </trkpt>
      <trkpt lat="47.29067" lon="6.10693">
        <ele>375.3</ele>
        <time>2013-06-09T08:35:32.000Z</time>
      </trkpt>
      <trkpt lat="47.29069" lon="6.10693">
        <ele>375.1</ele>
        <time>2013-06-09T08:35:33.000Z</time>
      </trkpt>
      <trkpt lat="47.29072" lon="6.10691">
        <ele>375</ele>
        <time>2013-06-09T08:35:36.000Z</time>
      </trkpt>
      <trkpt lat="47.29073" lon="6.1069">
        <ele>375</ele>
        <time>2013-06-09T08:35:37.000Z</time>
      </trkpt>
      <trkpt lat="47.29076" lon="6.10687">
        <ele>374.9</ele>
        <time>2013-06-09T08:35:40.000Z</time>
      </trkpt>
      <trkpt lat="47.29077" lon="6.10686">
        <ele>374.7</ele>
        <time>2013-06-09T08:35:41.000Z</time>
      </trkpt>
      <trkpt lat="47.29081" lon="6.10684">
        <ele>374.3</ele>
        <time>2013-06-09T08:35:44.000Z</time>
      </trkpt>
      <trkpt lat="47.29082" lon="6.10683">
        <ele>374.1</ele>
        <time>2013-06-09T08:35:45.000Z</time>
      </trkpt>
      <trkpt lat="47.29086" lon="6.10682">
        <ele>373.6</ele>
        <time>2013-06-09T08:35:48.000Z</time>
      </trkpt>
      <trkpt lat="47.29087" lon="6.10682">
        <ele>373.8</ele>
        <time>2013-06-09T08:35:49.000Z</time>
      </trkpt>
      <trkpt lat="47.29091" lon="6.10682">
        <ele>373.9</ele>
        <time>2013-06-09T08:35:52.000Z</time>
      </trkpt>
      <trkpt lat="47.29092" lon="6.10682">
        <ele>374</ele>
        <time>2013-06-09T08:35:53.000Z</time>
      </trkpt>
      <trkpt lat="47.29096" lon="6.10681">
        <ele>374.1</ele>
        <time>2013-06-09T08:35:56.000Z</time>
      </trkpt>
      <trkpt lat="47.29097" lon="6.10681">
        <ele>374.2</ele>
        <time>2013-06-09T08:35:57.000Z</time>
      </trkpt>
      <trkpt lat="47.29101" lon="6.10681">
        <ele>374.5</ele>
        <time>2013-06-09T08:36:00.000Z</time>
      </trkpt>
      <trkpt lat="47.29102" lon="6.10682">
        <ele>374.6</ele>
        <time>2013-06-09T08:36:01.000Z</time>
      </trkpt>
      <trkpt lat="47.29106" lon="6.10683">
        <ele>374.8</ele>
        <time>2013-06-09T08:36:04.000Z</time>
      </trkpt>
      <trkpt lat="47.29107" lon="6.10683">
        <ele>374.6</ele>
        <time>2013-06-09T08:36:05.000Z</time>
      </trkpt>
      <trkpt lat="47.2911" lon="6.10682">
        <ele>374.8</ele>
        <time>2013-06-09T08:36:08.000Z</time>
      </trkpt>
      <trkpt lat="47.29111" lon="6.10682">
        <ele>374.8</ele>
        <time>2013-06-09T08:36:09.000Z</time>
      </trkpt>
      <trkpt lat="47.29115" lon="6.10682">
        <ele>376</ele>
        <time>2013-06-09T08:36:12.000Z</time>
      </trkpt>
      <trkpt lat="47.29116" lon="6.10682">
        <ele>376.2</ele>
        <time>2013-06-09T08:36:13.000Z</time>
      </trkpt>
      <trkpt lat="47.2912" lon="6.10683">
        <ele>376.7</ele>
        <time>2013-06-09T08:36:16.000Z</time>
      </trkpt>
      <trkpt lat="47.29121" lon="6.10683">
        <ele>376.8</ele>
        <time>2013-06-09T08:36:17.000Z</time>
      </trkpt>
      <trkpt lat="47.29125" lon="6.10684">
        <ele>376.9</ele>
        <time>2013-06-09T08:36:20.000Z</time>
      </trkpt>
      <trkpt lat="47.29126" lon="6.10684">
        <ele>376.8</ele>
        <time>2013-06-09T08:36:21.000Z</time>
      </trkpt>
      <trkpt lat="47.2913" lon="6.10685">
        <ele>377.2</ele>
        <time>2013-06-09T08:36:24.000Z</time>
      </trkpt>
      <trkpt lat="47.29131" lon="6.10685">
        <ele>377.2</ele>
        <time>2013-06-09T08:36:25.000Z</time>
      </trkpt>
      <trkpt lat="47.29135" lon="6.10686">
        <ele>377.4</ele>
        <time>2013-06-09T08:36:28.000Z</time>
      </trkpt>
      <trkpt lat="47.29136" lon="6.10686">
        <ele>377.2</ele>
        <time>2013-06-09T08:36:29.000Z</time>
      </trkpt>
      <trkpt lat="47.29139" lon="6.10687">
        <ele>377.2</ele>
        <time>2013-06-09T08:36:32.000Z</time>
      </trkpt>
      <trkpt lat="47.29141" lon="6.10687">
        <ele>377.1</ele>
        <time>2013-06-09T08:36:33.000Z</time>
      </trkpt>
      <trkpt lat="47.29144" lon="6.10688">
        <ele>377.3</ele>
        <time>2013-06-09T08:36:36.000Z</time>
      </trkpt>
      <trkpt lat="47.29146" lon="6.10688">
        <ele>377.4</ele>
        <time>2013-06-09T08:36:37.000Z</time>
      </trkpt>
      <trkpt lat="47.29149" lon="6.10689">
        <ele>377.4</ele>
        <time>2013-06-09T08:36:40.000Z</time>
      </trkpt>
      <trkpt lat="47.29151" lon="6.10689">
        <ele>377.5</ele>
        <time>2013-06-09T08:36:41.000Z</time>
      </trkpt>
      <trkpt lat="47.29154" lon="6.1069">
        <ele>378.1</ele>
        <time>2013-06-09T08:36:44.000Z</time>
      </trkpt>
      <trkpt lat="47.29155" lon="6.10691">
        <ele>378.2</ele>
        <time>2013-06-09T08:36:45.000Z</time>
      </trkpt>
      <trkpt lat="47.29159" lon="6.10691">
        <ele>378.2</ele>
        <time>2013-06-09T08:36:48.000Z</time>
      </trkpt>
      <trkpt lat="47.2916" lon="6.10691">
        <ele>378.3</ele>
        <time>2013-06-09T08:36:49.000Z</time>
      </trkpt>
      <trkpt lat="47.29164" lon="6.10691">
        <ele>378.1</ele>
        <time>2013-06-09T08:36:52.000Z</time>
      </trkpt>
      <trkpt lat="47.29165" lon="6.10692">
        <ele>377.9</ele>
        <time>2013-06-09T08:36:53.000Z</time>
      </trkpt>
      <trkpt lat="47.29168" lon="6.10693">
        <ele>378.3</ele>
        <time>2013-06-09T08:36:56.000Z</time>
      </trkpt>
      <trkpt lat="47.29169" lon="6.10693">
        <ele>378.4</ele>
        <time>2013-06-09T08:36:57.000Z</time>
      </trkpt>
      <trkpt lat="47.29173" lon="6.10695">
        <ele>378.3</ele>
        <time>2013-06-09T08:37:00.000Z</time>
      </trkpt>
      <trkpt lat="47.29174" lon="6.10695">
        <ele>378.1</ele>
        <time>2013-06-09T08:37:01.000Z</time>
      </trkpt>
      <trkpt lat="47.29178" lon="6.10697">
        <ele>377.5</ele>
        <time>2013-06-09T08:37:04.000Z</time>
      </trkpt>
      <trkpt lat="47.29179" lon="6.10697">
        <ele>377.6</ele>
        <time>2013-06-09T08:37:05.000Z</time>
      </trkpt>
      <trkpt lat="47.29182" lon="6.10697">
        <ele>377.8</ele>
        <time>2013-06-09T08:37:08.000Z</time>
      </trkpt>
      <trkpt lat="47.29183" lon="6.10698">
        <ele>377.8</ele>
        <time>2013-06-09T08:37:09.000Z</time>
      </trkpt>
      <trkpt lat="47.29187" lon="6.10699">
        <ele>378.5</ele>
        <time>2013-06-09T08:37:12.000Z</time>
      </trkpt>
      <trkpt lat="47.29188" lon="6.107">
        <ele>378.7</ele>
        <time>2013-06-09T08:37:13.000Z</time>
      </trkpt>
      <trkpt lat="47.29191" lon="6.10701">
        <ele>378.3</ele>
        <time>2013-06-09T08:37:16.000Z</time>
      </trkpt>
      <trkpt lat="47.29193" lon="6.10701">
        <ele>378.2</ele>
        <time>2013-06-09T08:37:17.000Z</time>
      </trkpt>
      <trkpt lat="47.29196" lon="6.10702">
        <ele>378</ele>
        <time>2013-06-09T08:37:20.000Z</time>
      </trkpt>
      <trkpt lat="47.29198" lon="6.10702">
        <ele>377.8</ele>
        <time>2013-06-09T08:37:21.000Z</time>
      </trkpt>
      <trkpt lat="47.29201" lon="6.10705">
        <ele>377.3</ele>
        <time>2013-06-09T08:37:24.000Z</time>
      </trkpt>
      <trkpt lat="47.29202" lon="6.10706">
        <ele>377.1</ele>
        <time>2013-06-09T08:37:25.000Z</time>
      </trkpt>
      <trkpt lat="47.29205" lon="6.10708">
        <ele>376.7</ele>
        <time>2013-06-09T08:37:28.000Z</time>
      </trkpt>
      <trkpt lat="47.29206" lon="6.10708">
        <ele>376.8</ele>
        <time>2013-06-09T08:37:29.000Z</time>
      </trkpt>
      <trkpt lat="47.2921" lon="6.1071">
        <ele>376.8</ele>
        <time>2013-06-09T08:37:32.000Z</time>
      </trkpt>
      <trkpt lat="47.29211" lon="6.10711">
        <ele>376.9</ele>
        <time>2013-06-09T08:37:33.000Z</time>
      </trkpt>
      <trkpt lat="47.29214" lon="6.10714">
        <ele>376.8</ele>
        <time>2013-06-09T08:37:36.000Z</time>
      </trkpt>
      <trkpt lat="47.29215" lon="6.10715">
        <ele>376.8</ele>
        <time>2013-06-09T08:37:37.000Z</time>
      </trkpt>
      <trkpt lat="47.29218" lon="6.10718">
        <ele>377.5</ele>
        <time>2013-06-09T08:37:40.000Z</time>
      </trkpt>
      <trkpt lat="47.29219" lon="6.10719">
        <ele>377.8</ele>
        <time>2013-06-09T08:37:41.000Z</time>
      </trkpt>
      <trkpt lat="47.29223" lon="6.10722">
        <ele>378.4</ele>
        <time>2013-06-09T08:37:44.000Z</time>
      </trkpt>
      <trkpt lat="47.29224" lon="6.10723">
        <ele>378.4</ele>
        <time>2013-06-09T08:37:45.000Z</time>
      </trkpt>
      <trkpt lat="47.29228" lon="6.10725">
        <ele>378.8</ele>
        <time>2013-06-09T08:37:48.000Z</time>
      </trkpt>
      <trkpt lat="47.29229" lon="6.10726">
        <ele>379</ele>
        <time>2013-06-09T08:37:49.000Z</time>
      </trkpt>
      <trkpt lat="47.29232" lon="6.10727">
        <ele>379.2</ele>
        <time>2013-06-09T08:37:52.000Z</time>
      </trkpt>
      <trkpt lat="47.29234" lon="6.10727">
        <ele>379.3</ele>
        <time>2013-06-09T08:37:53.000Z</time>
      </trkpt>
      <trkpt lat="47.29237" lon="6.10725">
        <ele>379.3</ele>
        <time>2013-06-09T08:37:56.000Z</time>
      </trkpt>
      <trkpt lat="47.29237" lon="6.10723">
        <ele>379.3</ele>
        <time>2013-06-09T08:37:57.000Z</time>
      </trkpt>
      <trkpt lat="47.29239" lon="6.10719">
        <ele>379.1</ele>
        <time>2013-06-09T08:38:00.000Z</time>
      </trkpt>
      <trkpt lat="47.29239" lon="6.10717">
        <ele>379</ele>
        <time>2013-06-09T08:38:01.000Z</time>
      </trkpt>
      <trkpt lat="47.29239" lon="6.10711">
        <ele>378.9</ele>
        <time>2013-06-09T08:38:05.000Z</time>
      </trkpt>
      <trkpt lat="47.29239" lon="6.10709">
        <ele>378.9</ele>
        <time>2013-06-09T08:38:06.000Z</time>
      </trkpt>
      <trkpt lat="47.29238" lon="6.10703">
        <ele>378.7</ele>
        <time>2013-06-09T08:38:10.000Z</time>
      </trkpt>
      <trkpt lat="47.29238" lon="6.10702">
        <ele>378.8</ele>
        <time>2013-06-09T08:38:11.000Z</time>
      </trkpt>
      <trkpt lat="47.29235" lon="6.10696">
        <ele>377.3</ele>
        <time>2013-06-09T08:38:15.000Z</time>
      </trkpt>
      <trkpt lat="47.29235" lon="6.10695">
        <ele>376.6</ele>
        <time>2013-06-09T08:38:16.000Z</time>
      </trkpt>
      <trkpt lat="47.29232" lon="6.1069">
        <ele>374.4</ele>
        <time>2013-06-09T08:38:20.000Z</time>
      </trkpt>
      <trkpt lat="47.29232" lon="6.10689">
        <ele>373.9</ele>
        <time>2013-06-09T08:38:21.000Z</time>
      </trkpt>
      <trkpt lat="47.29229" lon="6.10684">
        <ele>371.7</ele>
        <time>2013-06-09T08:38:25.000Z</time>
      </trkpt>
      <trkpt lat="47.29228" lon="6.10683">
        <ele>371.3</ele>
        <time>2013-06-09T08:38:26.000Z</time>
      </trkpt>
      <trkpt lat="47.29226" lon="6.10679">
        <ele>370.4</ele>
        <time>2013-06-09T08:38:29.000Z</time>
      </trkpt>
      <trkpt lat="47.29225" lon="6.10677">
        <ele>370.1</ele>
        <time>2013-06-09T08:38:30.000Z</time>
      </trkpt>
      <trkpt lat="47.29224" lon="6.10673">
        <ele>370.1</ele>
        <time>2013-06-09T08:38:33.000Z</time>
      </trkpt>
      <trkpt lat="47.29223" lon="6.10671">
        <ele>369.8</ele>
        <time>2013-06-09T08:38:34.000Z</time>
      </trkpt>
      <trkpt lat="47.29221" lon="6.10667">
        <ele>369.2</ele>
        <time>2013-06-09T08:38:37.000Z</time>
      </trkpt>
      <trkpt lat="47.29221" lon="6.10665">
        <ele>369.1</ele>
        <time>2013-06-09T08:38:38.000Z</time>
      </trkpt>
      <trkpt lat="47.29219" lon="6.10661">
        <ele>369.4</ele>
        <time>2013-06-09T08:38:41.000Z</time>
      </trkpt>
      <trkpt lat="47.29218" lon="6.10659">
        <ele>369.4</ele>
        <time>2013-06-09T08:38:42.000Z</time>
      </trkpt>
      <trkpt lat="47.29216" lon="6.10655">
        <ele>368.7</ele>
        <time>2013-06-09T08:38:45.000Z</time>
      </trkpt>
      <trkpt lat="47.29216" lon="6.10654">
        <ele>368.9</ele>
        <time>2013-06-09T08:38:46.000Z</time>
      </trkpt>
      <trkpt lat="47.29214" lon="6.10649">
        <ele>368.8</ele>
        <time>2013-06-09T08:38:49.000Z</time>
      </trkpt>
      <trkpt lat="47.29213" lon="6.10648">
        <ele>368.7</ele>
        <time>2013-06-09T08:38:50.000Z</time>
      </trkpt>
      <trkpt lat="47.2921" lon="6.10644">
        <ele>368.6</ele>
        <time>2013-06-09T08:38:53.000Z</time>
      </trkpt>
      <trkpt lat="47.2921" lon="6.10642">
        <ele>368.6</ele>
        <time>2013-06-09T08:38:54.000Z</time>
      </trkpt>
      <trkpt lat="47.29207" lon="6.10638">
        <ele>368.7</ele>
        <time>2013-06-09T08:38:57.000Z</time>
      </trkpt>
      <trkpt lat="47.29206" lon="6.10636">
        <ele>368.7</ele>
        <time>2013-06-09T08:38:58.000Z</time>
      </trkpt>
      <trkpt lat="47.29204" lon="6.10632">
        <ele>369</ele>
        <time>2013-06-09T08:39:01.000Z</time>
      </trkpt>
      <trkpt lat="47.29203" lon="6.10631">
        <ele>369.2</ele>
        <time>2013-06-09T08:39:02.000Z</time>
      </trkpt>
      <trkpt lat="47.292" lon="6.10626">
        <ele>369.3</ele>
        <time>2013-06-09T08:39:05.000Z</time>
      </trkpt>
      <trkpt lat="47.29199" lon="6.10625">
        <ele>369.3</ele>
        <time>2013-06-09T08:39:06.000Z</time>
      </trkpt>
      <trkpt lat="47.29196" lon="6.10621">
        <ele>369.2</ele>
        <time>2013-06-09T08:39:09.000Z</time>
      </trkpt>
      <trkpt lat="47.29195" lon="6.10619">
        <ele>369</ele>
        <time>2013-06-09T08:39:10.000Z</time>
      </trkpt>
      <trkpt lat="47.29192" lon="6.10615">
        <ele>368.6</ele>
        <time>2013-06-09T08:39:13.000Z</time>
      </trkpt>
      <trkpt lat="47.29191" lon="6.10614">
        <ele>368.8</ele>
        <time>2013-06-09T08:39:14.000Z</time>
      </trkpt>
      <trkpt lat="47.29188" lon="6.1061">
        <ele>369.3</ele>
        <time>2013-06-09T08:39:17.000Z</time>
      </trkpt>
      <trkpt lat="47.29187" lon="6.10609">
        <ele>369.4</ele>
        <time>2013-06-09T08:39:18.000Z</time>
      </trkpt>
      <trkpt lat="47.29184" lon="6.10605">
        <ele>369.7</ele>
        <time>2013-06-09T08:39:21.000Z</time>
      </trkpt>
      <trkpt lat="47.29183" lon="6.10604">
        <ele>369.7</ele>
        <time>2013-06-09T08:39:22.000Z</time>
      </trkpt>
      <trkpt lat="47.29179" lon="6.10601">
        <ele>369.9</ele>
        <time>2013-06-09T08:39:25.000Z</time>
      </trkpt>
      <trkpt lat="47.29178" lon="6.10599">
        <ele>369.8</ele>
        <time>2013-06-09T08:39:26.000Z</time>
      </trkpt>
      <trkpt lat="47.29175" lon="6.10596">
        <ele>370</ele>
        <time>2013-06-09T08:39:29.000Z</time>
      </trkpt>
      <trkpt lat="47.29174" lon="6.10595">
        <ele>369.9</ele>
        <time>2013-06-09T08:39:30.000Z</time>
      </trkpt>
      <trkpt lat="47.2917" lon="6.10591">
        <ele>370.1</ele>
        <time>2013-06-09T08:39:33.000Z</time>
      </trkpt>
      <trkpt lat="47.29169" lon="6.10591">
        <ele>370.1</ele>
        <time>2013-06-09T08:39:34.000Z</time>
      </trkpt>
      <trkpt lat="47.29166" lon="6.10588">
        <ele>370.3</ele>
        <time>2013-06-09T08:39:37.000Z</time>
      </trkpt>
      <trkpt lat="47.29164" lon="6.10587">
        <ele>370.4</ele>
        <time>2013-06-09T08:39:38.000Z</time>
      </trkpt>
      <trkpt lat="47.2916" lon="6.10585">
        <ele>370.4</ele>
        <time>2013-06-09T08:39:41.000Z</time>
      </trkpt>
      <trkpt lat="47.29159" lon="6.10584">
        <ele>370.3</ele>
        <time>2013-06-09T08:39:42.000Z</time>
      </trkpt>
      <trkpt lat="47.29156" lon="6.10582">
        <ele>370.8</ele>
        <time>2013-06-09T08:39:45.000Z</time>
      </trkpt>
      <trkpt lat="47.29154" lon="6.10582">
        <ele>370.8</ele>
        <time>2013-06-09T08:39:46.000Z</time>
      </trkpt>
      <trkpt lat="47.29151" lon="6.10579">
        <ele>371.3</ele>
        <time>2013-06-09T08:39:49.000Z</time>
      </trkpt>
      <trkpt lat="47.2915" lon="6.10579">
        <ele>371.7</ele>
        <time>2013-06-09T08:39:50.000Z</time>
      </trkpt>
      <trkpt lat="47.29146" lon="6.10577">
        <ele>372.1</ele>
        <time>2013-06-09T08:39:53.000Z</time>
      </trkpt>
      <trkpt lat="47.29145" lon="6.10577">
        <ele>372.4</ele>
        <time>2013-06-09T08:39:54.000Z</time>
      </trkpt>
      <trkpt lat="47.29142" lon="6.10576">
        <ele>372</ele>
        <time>2013-06-09T08:39:57.000Z</time>
      </trkpt>
      <trkpt lat="47.2914" lon="6.10575">
        <ele>372.2</ele>
        <time>2013-06-09T08:39:58.000Z</time>
      </trkpt>
      <trkpt lat="47.29136" lon="6.10574">
        <ele>372.4</ele>
        <time>2013-06-09T08:40:01.000Z</time>
      </trkpt>
      <trkpt lat="47.29135" lon="6.10573">
        <ele>372.5</ele>
        <time>2013-06-09T08:40:02.000Z</time>
      </trkpt>
      <trkpt lat="47.29131" lon="6.10572">
        <ele>373.2</ele>
        <time>2013-06-09T08:40:05.000Z</time>
      </trkpt>
      <trkpt lat="47.2913" lon="6.10572">
        <ele>373.4</ele>
        <time>2013-06-09T08:40:06.000Z</time>
      </trkpt>
      <trkpt lat="47.29126" lon="6.1057">
        <ele>373.7</ele>
        <time>2013-06-09T08:40:09.000Z</time>
      </trkpt>
      <trkpt lat="47.29125" lon="6.1057">
        <ele>373.6</ele>
        <time>2013-06-09T08:40:10.000Z</time>
      </trkpt>
      <trkpt lat="47.29121" lon="6.1057">
        <ele>373.7</ele>
        <time>2013-06-09T08:40:13.000Z</time>
      </trkpt>
      <trkpt lat="47.29119" lon="6.10571">
        <ele>373.8</ele>
        <time>2013-06-09T08:40:14.000Z</time>
      </trkpt>
      <trkpt lat="47.29115" lon="6.10571">
        <ele>374</ele>
        <time>2013-06-09T08:40:17.000Z</time>
      </trkpt>
      <trkpt lat="47.29114" lon="6.10571">
        <ele>374</ele>
        <time>2013-06-09T08:40:18.000Z</time>
      </trkpt>
      <trkpt lat="47.2911" lon="6.10571">
        <ele>374</ele>
        <time>2013-06-09T08:40:21.000Z</time>
      </trkpt>
      <trkpt lat="47.29108" lon="6.10571">
        <ele>374.2</ele>
        <time>2013-06-09T08:40:22.000Z</time>
      </trkpt>
      <trkpt lat="47.29104" lon="6.10572">
        <ele>374.6</ele>
        <time>2013-06-09T08:40:25.000Z</time>
      </trkpt>
      <trkpt lat="47.29102" lon="6.10572">
        <ele>374.5</ele>
        <time>2013-06-09T08:40:26.000Z</time>
      </trkpt>
      <trkpt lat="47.29098" lon="6.10572">
        <ele>374.8</ele>
        <time>2013-06-09T08:40:29.000Z</time>
      </trkpt>
      <trkpt lat="47.29096" lon="6.10571">
        <ele>375</ele>
        <time>2013-06-09T08:40:30.000Z</time>
      </trkpt>
      <trkpt lat="47.29093" lon="6.1057">
        <ele>374.7</ele>
        <time>2013-06-09T08:40:32.000Z</time>
      </trkpt>
      <trkpt lat="47.29092" lon="6.10569">
        <ele>374.5</ele>
        <time>2013-06-09T08:40:33.000Z</time>
      </trkpt>
      <trkpt lat="47.29092" lon="6.10563">
        <ele>375.6</ele>
        <time>2013-06-09T08:40:37.000Z</time>
      </trkpt>
      <trkpt lat="47.29093" lon="6.10561">
        <ele>376</ele>
        <time>2013-06-09T08:40:38.000Z</time>
      </trkpt>
      <trkpt lat="47.29096" lon="6.10559">
        <ele>376.8</ele>
        <time>2013-06-09T08:40:41.000Z</time>
      </trkpt>
      <trkpt lat="47.29097" lon="6.10558">
        <ele>377.2</ele>
        <time>2013-06-09T08:40:42.000Z</time>
      </trkpt>
      <trkpt lat="47.291" lon="6.10556">
        <ele>376.9</ele>
        <time>2013-06-09T08:40:45.000Z</time>
      </trkpt>
      <trkpt lat="47.29101" lon="6.10555">
        <ele>377</ele>
        <time>2013-06-09T08:40:46.000Z</time>
      </trkpt>
      <trkpt lat="47.29104" lon="6.10552">
        <ele>378</ele>
        <time>2013-06-09T08:40:49.000Z</time>
      </trkpt>
      <trkpt lat="47.29105" lon="6.10551">
        <ele>378.5</ele>
        <time>2013-06-09T08:40:50.000Z</time>
      </trkpt>
      <trkpt lat="47.29109" lon="6.10548">
        <ele>378.8</ele>
        <time>2013-06-09T08:40:53.000Z</time>
      </trkpt>
      <trkpt lat="47.2911" lon="6.10548">
        <ele>379</ele>
        <time>2013-06-09T08:40:54.000Z</time>
      </trkpt>
      <trkpt lat="47.29114" lon="6.10546">
        <ele>379.2</ele>
        <time>2013-06-09T08:40:57.000Z</time>
      </trkpt>
      <trkpt lat="47.29115" lon="6.10545">
        <ele>379.2</ele>
        <time>2013-06-09T08:40:58.000Z</time>
      </trkpt>
      <trkpt lat="47.29119" lon="6.10543">
        <ele>380</ele>
        <time>2013-06-09T08:41:01.000Z</time>
      </trkpt>
      <trkpt lat="47.2912" lon="6.10543">
        <ele>380.3</ele>
        <time>2013-06-09T08:41:02.000Z</time>
      </trkpt>
      <trkpt lat="47.29124" lon="6.10541">
        <ele>380.7</ele>
        <time>2013-06-09T08:41:05.000Z</time>
      </trkpt>
      <trkpt lat="47.29125" lon="6.10541">
        <ele>380.8</ele>
        <time>2013-06-09T08:41:06.000Z</time>
      </trkpt>
      <trkpt lat="47.29129" lon="6.10539">
        <ele>380.7</ele>
        <time>2013-06-09T08:41:09.000Z</time>
      </trkpt>
      <trkpt lat="47.2913" lon="6.10539">
        <ele>380.7</ele>
        <time>2013-06-09T08:41:10.000Z</time>
      </trkpt>
      <trkpt lat="47.29133" lon="6.10535">
        <ele>380.8</ele>
        <time>2013-06-09T08:41:14.000Z</time>
      </trkpt>
      <trkpt lat="47.29133" lon="6.10534">
        <ele>381</ele>
        <time>2013-06-09T08:41:15.000Z</time>
      </trkpt>
      <trkpt lat="47.29132" lon="6.10529">
        <ele>381.2</ele>
        <time>2013-06-09T08:41:18.000Z</time>
      </trkpt>
      <trkpt lat="47.29132" lon="6.10527">
        <ele>381.4</ele>
        <time>2013-06-09T08:41:19.000Z</time>
      </trkpt>
      <trkpt lat="47.29131" lon="6.10522">
        <ele>381.4</ele>
        <time>2013-06-09T08:41:22.000Z</time>
      </trkpt>
      <trkpt lat="47.2913" lon="6.1052">
        <ele>381.3</ele>
        <time>2013-06-09T08:41:23.000Z</time>
      </trkpt>
      <trkpt lat="47.29128" lon="6.10516">
        <ele>381.1</ele>
        <time>2013-06-09T08:41:26.000Z</time>
      </trkpt>
      <trkpt lat="47.29128" lon="6.10514">
        <ele>380.9</ele>
        <time>2013-06-09T08:41:27.000Z</time>
      </trkpt>
      <trkpt lat="47.29127" lon="6.10509">
        <ele>380.6</ele>
        <time>2013-06-09T08:41:30.000Z</time>
      </trkpt>
      <trkpt lat="47.29127" lon="6.10507">
        <ele>380.5</ele>
        <time>2013-06-09T08:41:31.000Z</time>
      </trkpt>
      <trkpt lat="47.29125" lon="6.10502">
        <ele>380.4</ele>
        <time>2013-06-09T08:41:34.000Z</time>
      </trkpt>
      <trkpt lat="47.29125" lon="6.105">
        <ele>380.4</ele>
        <time>2013-06-09T08:41:35.000Z</time>
      </trkpt>
      <trkpt lat="47.29124" lon="6.10495">
        <ele>380.4</ele>
        <time>2013-06-09T08:41:38.000Z</time>
      </trkpt>
      <trkpt lat="47.29124" lon="6.10493">
        <ele>380.2</ele>
        <time>2013-06-09T08:41:39.000Z</time>
      </trkpt>
      <trkpt lat="47.29123" lon="6.10487">
        <ele>380.3</ele>
        <time>2013-06-09T08:41:42.000Z</time>
      </trkpt>
      <trkpt lat="47.29123" lon="6.10485">
        <ele>380.3</ele>
        <time>2013-06-09T08:41:43.000Z</time>
      </trkpt>
      <trkpt lat="47.29122" lon="6.10479">
        <ele>381.2</ele>
        <time>2013-06-09T08:41:46.000Z</time>
      </trkpt>
      <trkpt lat="47.29121" lon="6.10478">
        <ele>381.5</ele>
        <time>2013-06-09T08:41:47.000Z</time>
      </trkpt>
      <trkpt lat="47.29121" lon="6.10472">
        <ele>381.7</ele>
        <time>2013-06-09T08:41:50.000Z</time>
      </trkpt>
      <trkpt lat="47.2912" lon="6.1047">
        <ele>381.7</ele>
        <time>2013-06-09T08:41:51.000Z</time>
      </trkpt>
      <trkpt lat="47.29119" lon="6.10465">
        <ele>381.6</ele>
        <time>2013-06-09T08:41:54.000Z</time>
      </trkpt>
      <trkpt lat="47.29119" lon="6.10463">
        <ele>381.6</ele>
        <time>2013-06-09T08:41:55.000Z</time>
      </trkpt>
      <trkpt lat="47.29118" lon="6.10458">
        <ele>381.5</ele>
        <time>2013-06-09T08:41:58.000Z</time>
      </trkpt>
      <trkpt lat="47.29117" lon="6.10456">
        <ele>381.6</ele>
        <time>2013-06-09T08:41:59.000Z</time>
      </trkpt>
      <trkpt lat="47.29116" lon="6.1045">
        <ele>382.2</ele>
        <time>2013-06-09T08:42:02.000Z</time>
      </trkpt>
      <trkpt lat="47.29116" lon="6.10448">
        <ele>382.4</ele>
        <time>2013-06-09T08:42:03.000Z</time>
      </trkpt>
      <trkpt lat="47.29114" lon="6.10442">
        <ele>382.8</ele>
        <time>2013-06-09T08:42:06.000Z</time>
      </trkpt>
      <trkpt lat="47.29113" lon="6.10441">
        <ele>382.9</ele>
        <time>2013-06-09T08:42:07.000Z</time>
      </trkpt>
      <trkpt lat="47.29112" lon="6.10435">
        <ele>382.9</ele>
        <time>2013-06-09T08:42:10.000Z</time>
      </trkpt>
      <trkpt lat="47.29111" lon="6.10433">
        <ele>382.9</ele>
        <time>2013-06-09T08:42:11.000Z</time>
      </trkpt>
      <trkpt lat="47.2911" lon="6.10427">
        <ele>383</ele>
        <time>2013-06-09T08:42:14.000Z</time>
      </trkpt>
      <trkpt lat="47.29109" lon="6.10426">
        <ele>383</ele>
        <time>2013-06-09T08:42:15.000Z</time>
      </trkpt>
      <trkpt lat="47.29108" lon="6.10419">
        <ele>383</ele>
        <time>2013-06-09T08:42:18.000Z</time>
      </trkpt>
      <trkpt lat="47.29108" lon="6.10417">
        <ele>383</ele>
        <time>2013-06-09T08:42:19.000Z</time>
      </trkpt>
      <trkpt lat="47.29107" lon="6.10411">
        <ele>382.8</ele>
        <time>2013-06-09T08:42:22.000Z</time>
      </trkpt>
      <trkpt lat="47.29107" lon="6.10409">
        <ele>382.9</ele>
        <time>2013-06-09T08:42:23.000Z</time>
      </trkpt>
      <trkpt lat="47.29106" lon="6.10403">
        <ele>383.3</ele>
        <time>2013-06-09T08:42:26.000Z</time>
      </trkpt>
      <trkpt lat="47.29106" lon="6.10401">
        <ele>383.4</ele>
        <time>2013-06-09T08:42:27.000Z</time>
      </trkpt>
      <trkpt lat="47.29105" lon="6.10396">
        <ele>383.6</ele>
        <time>2013-06-09T08:42:30.000Z</time>
      </trkpt>
      <trkpt lat="47.29105" lon="6.10394">
        <ele>383.5</ele>
        <time>2013-06-09T08:42:31.000Z</time>
      </trkpt>
      <trkpt lat="47.29104" lon="6.10389">
        <ele>383.2</ele>
        <time>2013-06-09T08:42:34.000Z</time>
      </trkpt>
      <trkpt lat="47.29103" lon="6.10388">
        <ele>383</ele>
        <time>2013-06-09T08:42:35.000Z</time>
      </trkpt>
      <trkpt lat="47.29103" lon="6.10382">
        <ele>382.6</ele>
        <time>2013-06-09T08:42:38.000Z</time>
      </trkpt>
      <trkpt lat="47.29102" lon="6.10381">
        <ele>382.6</ele>
        <time>2013-06-09T08:42:39.000Z</time>
      </trkpt>
      <trkpt lat="47.29101" lon="6.10376">
        <ele>382.6</ele>
        <time>2013-06-09T08:42:42.000Z</time>
      </trkpt>
      <trkpt lat="47.29101" lon="6.10374">
        <ele>382.5</ele>
        <time>2013-06-09T08:42:43.000Z</time>
      </trkpt>
      <trkpt lat="47.29099" lon="6.10369">
        <ele>382.8</ele>
        <time>2013-06-09T08:42:46.000Z</time>
      </trkpt>
      <trkpt lat="47.29099" lon="6.10367">
        <ele>382.9</ele>
        <time>2013-06-09T08:42:47.000Z</time>
      </trkpt>
      <trkpt lat="47.29097" lon="6.10362">
        <ele>382.4</ele>
        <time>2013-06-09T08:42:50.000Z</time>
      </trkpt>
      <trkpt lat="47.29096" lon="6.1036">
        <ele>382.6</ele>
        <time>2013-06-09T08:42:51.000Z</time>
      </trkpt>
      <trkpt lat="47.29095" lon="6.10354">
        <ele>382.5</ele>
        <time>2013-06-09T08:42:54.000Z</time>
      </trkpt>
      <trkpt lat="47.29095" lon="6.10352">
        <ele>382.8</ele>
        <time>2013-06-09T08:42:55.000Z</time>
      </trkpt>
      <trkpt lat="47.29095" lon="6.10346">
        <ele>383.3</ele>
        <time>2013-06-09T08:42:58.000Z</time>
      </trkpt>
      <trkpt lat="47.29094" lon="6.10344">
        <ele>383.6</ele>
        <time>2013-06-09T08:42:59.000Z</time>
      </trkpt>
      <trkpt lat="47.29093" lon="6.10339">
        <ele>383.9</ele>
        <time>2013-06-09T08:43:02.000Z</time>
      </trkpt>
      <trkpt lat="47.29092" lon="6.10338">
        <ele>384</ele>
        <time>2013-06-09T08:43:03.000Z</time>
      </trkpt>
      <trkpt lat="47.2909" lon="6.10334">
        <ele>384.2</ele>
        <time>2013-06-09T08:43:06.000Z</time>
      </trkpt>
      <trkpt lat="47.29089" lon="6.10333">
        <ele>384.4</ele>
        <time>2013-06-09T08:43:07.000Z</time>
      </trkpt>
      <trkpt lat="47.29086" lon="6.10328">
        <ele>384.3</ele>
        <time>2013-06-09T08:43:11.000Z</time>
      </trkpt>
      <trkpt lat="47.29086" lon="6.10326">
        <ele>384.4</ele>
        <time>2013-06-09T08:43:12.000Z</time>
      </trkpt>
      <trkpt lat="47.29084" lon="6.10322">
        <ele>384.7</ele>
        <time>2013-06-09T08:43:15.000Z</time>
      </trkpt>
      <trkpt lat="47.29083" lon="6.1032">
        <ele>384.6</ele>
        <time>2013-06-09T08:43:16.000Z</time>
      </trkpt>
      <trkpt lat="47.29082" lon="6.10315">
        <ele>384.4</ele>
        <time>2013-06-09T08:43:19.000Z</time>
      </trkpt>
      <trkpt lat="47.29081" lon="6.10313">
        <ele>384.4</ele>
        <time>2013-06-09T08:43:20.000Z</time>
      </trkpt>
      <trkpt lat="47.29081" lon="6.10308">
        <ele>384.8</ele>
        <time>2013-06-09T08:43:23.000Z</time>
      </trkpt>
      <trkpt lat="47.29081" lon="6.10306">
        <ele>384.9</ele>
        <time>2013-06-09T08:43:24.000Z</time>
      </trkpt>
      <trkpt lat="47.2908" lon="6.10301">
        <ele>385.2</ele>
        <time>2013-06-09T08:43:27.000Z</time>
      </trkpt>
      <trkpt lat="47.2908" lon="6.10299">
        <ele>385.5</ele>
        <time>2013-06-09T08:43:28.000Z</time>
      </trkpt>
      <trkpt lat="47.29079" lon="6.10294">
        <ele>385.3</ele>
        <time>2013-06-09T08:43:31.000Z</time>
      </trkpt>
      <trkpt lat="47.29079" lon="6.10292">
        <ele>385.5</ele>
        <time>2013-06-09T08:43:32.000Z</time>
      </trkpt>
      <trkpt lat="47.29077" lon="6.10287">
        <ele>385.1</ele>
        <time>2013-06-09T08:43:35.000Z</time>
      </trkpt>
      <trkpt lat="47.29076" lon="6.10285">
        <ele>384.8</ele>
        <time>2013-06-09T08:43:36.000Z</time>
      </trkpt>
      <trkpt lat="47.29074" lon="6.1028">
        <ele>384.4</ele>
        <time>2013-06-09T08:43:39.000Z</time>
      </trkpt>
      <trkpt lat="47.29074" lon="6.10278">
        <ele>384.3</ele>
        <time>2013-06-09T08:43:40.000Z</time>
      </trkpt>
      <trkpt lat="47.29072" lon="6.10272">
        <ele>384.2</ele>
        <time>2013-06-09T08:43:43.000Z</time>
      </trkpt>
      <trkpt lat="47.29072" lon="6.1027">
        <ele>384.2</ele>
        <time>2013-06-09T08:43:44.000Z</time>
      </trkpt>
      <trkpt lat="47.29071" lon="6.10264">
        <ele>384.2</ele>
        <time>2013-06-09T08:43:47.000Z</time>
      </trkpt>
      <trkpt lat="47.29071" lon="6.10262">
        <ele>384.3</ele>
        <time>2013-06-09T08:43:48.000Z</time>
      </trkpt>
      <trkpt lat="47.2907" lon="6.10257">
        <ele>384.4</ele>
        <time>2013-06-09T08:43:51.000Z</time>
      </trkpt>
      <trkpt lat="47.29069" lon="6.10255">
        <ele>384.3</ele>
        <time>2013-06-09T08:43:52.000Z</time>
      </trkpt>
      <trkpt lat="47.29066" lon="6.10252">
        <ele>384.2</ele>
        <time>2013-06-09T08:43:55.000Z</time>
      </trkpt>
      <trkpt lat="47.29064" lon="6.10251">
        <ele>384.1</ele>
        <time>2013-06-09T08:43:56.000Z</time>
      </trkpt>
      <trkpt lat="47.2906" lon="6.10248">
        <ele>383.4</ele>
        <time>2013-06-09T08:44:00.000Z</time>
      </trkpt>
      <trkpt lat="47.29059" lon="6.10248">
        <ele>383.4</ele>
        <time>2013-06-09T08:44:01.000Z</time>
      </trkpt>
      <trkpt lat="47.29056" lon="6.10248">
        <ele>383.3</ele>
        <time>2013-06-09T08:44:04.000Z</time>
      </trkpt>
      <trkpt lat="47.29055" lon="6.10248">
        <ele>383.1</ele>
        <time>2013-06-09T08:44:05.000Z</time>
      </trkpt>
      <trkpt lat="47.2905" lon="6.10248">
        <ele>383.4</ele>
        <time>2013-06-09T08:44:09.000Z</time>
      </trkpt>
      <trkpt lat="47.29049" lon="6.10248">
        <ele>383.4</ele>
        <time>2013-06-09T08:44:10.000Z</time>
      </trkpt>
      <trkpt lat="47.29045" lon="6.10248">
        <ele>383.5</ele>
        <time>2013-06-09T08:44:14.000Z</time>
      </trkpt>
      <trkpt lat="47.29044" lon="6.10248">
        <ele>383.3</ele>
        <time>2013-06-09T08:44:15.000Z</time>
      </trkpt>
      <trkpt lat="47.2904" lon="6.10248">
        <ele>383.2</ele>
        <time>2013-06-09T08:44:19.000Z</time>
      </trkpt>
      <trkpt lat="47.29039" lon="6.10248">
        <ele>383.1</ele>
        <time>2013-06-09T08:44:20.000Z</time>
      </trkpt>
      <trkpt lat="47.29034" lon="6.10249">
        <ele>383</ele>
        <time>2013-06-09T08:44:24.000Z</time>
      </trkpt>
      <trkpt lat="47.29033" lon="6.10249">
        <ele>383.1</ele>
        <time>2013-06-09T08:44:25.000Z</time>
      </trkpt>
      <trkpt lat="47.2903" lon="6.10251">
        <ele>383.2</ele>
        <time>2013-06-09T08:44:29.000Z</time>
      </trkpt>
      <trkpt lat="47.29029" lon="6.10251">
        <ele>383</ele>
        <time>2013-06-09T08:44:30.000Z</time>
      </trkpt>
      <trkpt lat="47.29024" lon="6.10252">
        <ele>382.5</ele>
        <time>2013-06-09T08:44:34.000Z</time>
      </trkpt>
      <trkpt lat="47.29023" lon="6.10252">
        <ele>382.6</ele>
        <time>2013-06-09T08:44:35.000Z</time>
      </trkpt>
      <trkpt lat="47.29019" lon="6.10252">
        <ele>383.2</ele>
        <time>2013-06-09T08:44:39.000Z</time>
      </trkpt>
      <trkpt lat="47.29018" lon="6.10252">
        <ele>383.2</ele>
        <time>2013-06-09T08:44:40.000Z</time>
      </trkpt>
      <trkpt lat="47.29014" lon="6.10251">
        <ele>383.6</ele>
        <time>2013-06-09T08:44:44.000Z</time>
      </trkpt>
      <trkpt lat="47.29013" lon="6.10251">
        <ele>383.5</ele>
        <time>2013-06-09T08:44:45.000Z</time>
      </trkpt>
      <trkpt lat="47.29011" lon="6.10246">
        <ele>383.4</ele>
        <time>2013-06-09T08:44:48.000Z</time>
      </trkpt>
      <trkpt lat="47.29011" lon="6.10244">
        <ele>383.4</ele>
        <time>2013-06-09T08:44:49.000Z</time>
      </trkpt>
      <trkpt lat="47.29011" lon="6.10239">
        <ele>383.4</ele>
        <time>2013-06-09T08:44:52.000Z</time>
      </trkpt>
      <trkpt lat="47.2901" lon="6.10237">
        <ele>383.5</ele>
        <time>2013-06-09T08:44:53.000Z</time>
      </trkpt>
      <trkpt lat="47.29011" lon="6.10231">
        <ele>383.2</ele>
        <time>2013-06-09T08:44:56.000Z</time>
      </trkpt>
      <trkpt lat="47.29011" lon="6.10229">
        <ele>383.3</ele>
        <time>2013-06-09T08:44:57.000Z</time>
      </trkpt>
      <trkpt lat="47.2901" lon="6.10224">
        <ele>383.4</ele>
        <time>2013-06-09T08:45:00.000Z</time>
      </trkpt>
      <trkpt lat="47.2901" lon="6.10223">
        <ele>383.3</ele>
        <time>2013-06-09T08:45:01.000Z</time>
      </trkpt>
      <trkpt lat="47.29009" lon="6.10217">
        <ele>383.1</ele>
        <time>2013-06-09T08:45:04.000Z</time>
      </trkpt>
      <trkpt lat="47.29009" lon="6.10216">
        <ele>383.1</ele>
        <time>2013-06-09T08:45:05.000Z</time>
      </trkpt>
      <trkpt lat="47.29009" lon="6.1021">
        <ele>382.8</ele>
        <time>2013-06-09T08:45:08.000Z</time>
      </trkpt>
      <trkpt lat="47.29009" lon="6.10209">
        <ele>382.5</ele>
        <time>2013-06-09T08:45:09.000Z</time>
      </trkpt>
      <trkpt lat="47.29008" lon="6.10203">
        <ele>381.9</ele>
        <time>2013-06-09T08:45:12.000Z</time>
      </trkpt>
      <trkpt lat="47.29008" lon="6.10201">
        <ele>381.7</ele>
        <time>2013-06-09T08:45:13.000Z</time>
      </trkpt>
      <trkpt lat="47.29007" lon="6.10196">
        <ele>380.6</ele>
        <time>2013-06-09T08:45:16.000Z</time>
      </trkpt>
      <trkpt lat="47.29006" lon="6.10194">
        <ele>380.2</ele>
        <time>2013-06-09T08:45:17.000Z</time>
      </trkpt>
      <trkpt lat="47.29005" lon="6.10189">
        <ele>379.8</ele>
        <time>2013-06-09T08:45:20.000Z</time>
      </trkpt>
      <trkpt lat="47.29005" lon="6.10188">
        <ele>379.8</ele>
        <time>2013-06-09T08:45:21.000Z</time>
      </trkpt>
      <trkpt lat="47.29004" lon="6.10182">
        <ele>379.9</ele>
        <time>2013-06-09T08:45:24.000Z</time>
      </trkpt>
      <trkpt lat="47.29004" lon="6.10181">
        <ele>380</ele>
        <time>2013-06-09T08:45:25.000Z</time>
      </trkpt>
      <trkpt lat="47.29004" lon="6.10175">
        <ele>380.4</ele>
        <time>2013-06-09T08:45:28.000Z</time>
      </trkpt>
      <trkpt lat="47.29004" lon="6.10173">
        <ele>380.2</ele>
        <time>2013-06-09T08:45:29.000Z</time>
      </trkpt>
      <trkpt lat="47.29003" lon="6.10168">
        <ele>379.4</ele>
        <time>2013-06-09T08:45:32.000Z</time>
      </trkpt>
      <trkpt lat="47.29003" lon="6.10166">
        <ele>379.3</ele>
        <time>2013-06-09T08:45:33.000Z</time>
      </trkpt>
      <trkpt lat="47.29002" lon="6.1016">
        <ele>378.6</ele>
        <time>2013-06-09T08:45:36.000Z</time>
      </trkpt>
      <trkpt lat="47.29002" lon="6.10159">
        <ele>378.3</ele>
        <time>2013-06-09T08:45:37.000Z</time>
      </trkpt>
      <trkpt lat="47.29001" lon="6.10153">
        <ele>378.2</ele>
        <time>2013-06-09T08:45:40.000Z</time>
      </trkpt>
      <trkpt lat="47.29001" lon="6.10152">
        <ele>378.2</ele>
        <time>2013-06-09T08:45:41.000Z</time>
      </trkpt>
      <trkpt lat="47.29" lon="6.10147">
        <ele>378.1</ele>
        <time>2013-06-09T08:45:44.000Z</time>
      </trkpt>
      <trkpt lat="47.29" lon="6.10145">
        <ele>378</ele>
        <time>2013-06-09T08:45:45.000Z</time>
      </trkpt>
      <trkpt lat="47.28998" lon="6.10139">
        <ele>377.9</ele>
        <time>2013-06-09T08:45:49.000Z</time>
      </trkpt>
      <trkpt lat="47.28998" lon="6.10138">
        <ele>377.9</ele>
        <time>2013-06-09T08:45:50.000Z</time>
      </trkpt>
      <trkpt lat="47.28997" lon="6.10132">
        <ele>377.7</ele>
        <time>2013-06-09T08:45:54.000Z</time>
      </trkpt>
      <trkpt lat="47.28996" lon="6.10131">
        <ele>377.8</ele>
        <time>2013-06-09T08:45:55.000Z</time>
      </trkpt>
      <trkpt lat="47.28995" lon="6.10125">
        <ele>377.8</ele>
        <time>2013-06-09T08:45:59.000Z</time>
      </trkpt>
      <trkpt lat="47.28995" lon="6.10123">
        <ele>377.7</ele>
        <time>2013-06-09T08:46:00.000Z</time>
      </trkpt>
      <trkpt lat="47.28994" lon="6.10118">
        <ele>377.8</ele>
        <time>2013-06-09T08:46:03.000Z</time>
      </trkpt>
      <trkpt lat="47.28993" lon="6.10117">
        <ele>377.7</ele>
        <time>2013-06-09T08:46:04.000Z</time>
      </trkpt>
      <trkpt lat="47.28992" lon="6.10111">
        <ele>377.7</ele>
        <time>2013-06-09T08:46:08.000Z</time>
      </trkpt>
      <trkpt lat="47.28992" lon="6.10109">
        <ele>377.7</ele>
        <time>2013-06-09T08:46:09.000Z</time>
      </trkpt>
      <trkpt lat="47.28992" lon="6.10102">
        <ele>377.8</ele>
        <time>2013-06-09T08:46:13.000Z</time>
      </trkpt>
      <trkpt lat="47.28992" lon="6.10101">
        <ele>378</ele>
        <time>2013-06-09T08:46:14.000Z</time>
      </trkpt>
      <trkpt lat="47.28991" lon="6.10095">
        <ele>378.1</ele>
        <time>2013-06-09T08:46:18.000Z</time>
      </trkpt>
      <trkpt lat="47.28991" lon="6.10093">
        <ele>378.2</ele>
        <time>2013-06-09T08:46:19.000Z</time>
      </trkpt>
      <trkpt lat="47.2899" lon="6.10086">
        <ele>378.5</ele>
        <time>2013-06-09T08:46:23.000Z</time>
      </trkpt>
      <trkpt lat="47.2899" lon="6.10085">
        <ele>378.2</ele>
        <time>2013-06-09T08:46:24.000Z</time>
      </trkpt>
      <trkpt lat="47.2899" lon="6.10079">
        <ele>377.8</ele>
        <time>2013-06-09T08:46:28.000Z</time>
      </trkpt>
      <trkpt lat="47.2899" lon="6.10077">
        <ele>377.5</ele>
        <time>2013-06-09T08:46:29.000Z</time>
      </trkpt>
      <trkpt lat="47.2899" lon="6.10071">
        <ele>376.3</ele>
        <time>2013-06-09T08:46:34.000Z</time>
      </trkpt>
      <trkpt lat="47.2899" lon="6.10069">
        <ele>376.2</ele>
        <time>2013-06-09T08:46:35.000Z</time>
      </trkpt>
      <trkpt lat="47.28989" lon="6.10064">
        <ele>376.2</ele>
        <time>2013-06-09T08:46:40.000Z</time>
      </trkpt>
      <trkpt lat="47.28989" lon="6.10063">
        <ele>376</ele>
        <time>2013-06-09T08:46:41.000Z</time>
      </trkpt>
      <trkpt lat="47.28986" lon="6.10058">
        <ele>374.9</ele>
        <time>2013-06-09T08:46:46.000Z</time>
      </trkpt>
      <trkpt lat="47.28986" lon="6.10058">
        <ele>374.8</ele>
        <time>2013-06-09T08:46:47.000Z</time>
      </trkpt>
      <trkpt lat="47.28983" lon="6.10053">
        <ele>373.7</ele>
        <time>2013-06-09T08:46:53.000Z</time>
      </trkpt>
      <trkpt lat="47.28983" lon="6.10052">
        <ele>373.6</ele>
        <time>2013-06-09T08:46:54.000Z</time>
      </trkpt>
      <trkpt lat="47.28984" lon="6.10046">
        <ele>372.6</ele>
        <time>2013-06-09T08:47:05.000Z</time>
      </trkpt>
      <trkpt lat="47.28984" lon="6.10046">
        <ele>372.5</ele>
        <time>2013-06-09T08:47:06.000Z</time>
      </trkpt>
      <trkpt lat="47.28984" lon="6.1004">
        <ele>374.7</ele>
        <time>2013-06-09T08:47:13.000Z</time>
      </trkpt>
      <trkpt lat="47.28984" lon="6.10038">
        <ele>374.8</ele>
        <time>2013-06-09T08:47:14.000Z</time>
      </trkpt>
      <trkpt lat="47.28983" lon="6.10032">
        <ele>374.1</ele>
        <time>2013-06-09T08:47:18.000Z</time>
      </trkpt>
      <trkpt lat="47.28983" lon="6.10031">
        <ele>373.8</ele>
        <time>2013-06-09T08:47:19.000Z</time>
      </trkpt>
      <trkpt lat="47.28983" lon="6.10026">
        <ele>373.2</ele>
        <time>2013-06-09T08:47:23.000Z</time>
      </trkpt>
      <trkpt lat="47.28983" lon="6.10024">
        <ele>373.2</ele>
        <time>2013-06-09T08:47:24.000Z</time>
      </trkpt>
      <trkpt lat="47.28982" lon="6.10018">
        <ele>373</ele>
        <time>2013-06-09T08:47:28.000Z</time>
      </trkpt>
      <trkpt lat="47.28983" lon="6.10017">
        <ele>373.1</ele>
        <time>2013-06-09T08:47:29.000Z</time>
      </trkpt>
      <trkpt lat="47.28982" lon="6.10011">
        <ele>373.8</ele>
        <time>2013-06-09T08:47:33.000Z</time>
      </trkpt>
      <trkpt lat="47.28982" lon="6.10009">
        <ele>374</ele>
        <time>2013-06-09T08:47:34.000Z</time>
      </trkpt>
      <trkpt lat="47.28981" lon="6.10004">
        <ele>374.1</ele>
        <time>2013-06-09T08:47:38.000Z</time>
      </trkpt>
      <trkpt lat="47.28981" lon="6.10003">
        <ele>373.9</ele>
        <time>2013-06-09T08:47:39.000Z</time>
      </trkpt>
      <trkpt lat="47.28982" lon="6.09998">
        <ele>373</ele>
        <time>2013-06-09T08:47:43.000Z</time>
      </trkpt>
      <trkpt lat="47.28982" lon="6.09996">
        <ele>372.5</ele>
        <time>2013-06-09T08:47:44.000Z</time>
      </trkpt>
      <trkpt lat="47.28985" lon="6.09992">
        <ele>371.6</ele>
        <time>2013-06-09T08:47:48.000Z</time>
      </trkpt>
      <trkpt lat="47.28986" lon="6.09991">
        <ele>371.3</ele>
        <time>2013-06-09T08:47:49.000Z</time>
      </trkpt>
      <trkpt lat="47.28989" lon="6.09989">
        <ele>371.1</ele>
        <time>2013-06-09T08:47:52.000Z</time>
      </trkpt>
      <trkpt lat="47.2899" lon="6.09988">
        <ele>371.1</ele>
        <time>2013-06-09T08:47:53.000Z</time>
      </trkpt>
      <trkpt lat="47.28993" lon="6.09985">
        <ele>370.9</ele>
        <time>2013-06-09T08:47:56.000Z</time>
      </trkpt>
      <trkpt lat="47.28994" lon="6.09984">
        <ele>370.9</ele>
        <time>2013-06-09T08:47:57.000Z</time>
      </trkpt>
      <trkpt lat="47.28997" lon="6.09981">
        <ele>370.7</ele>
        <time>2013-06-09T08:48:00.000Z</time>
      </trkpt>
      <trkpt lat="47.28998" lon="6.09979">
        <ele>370.6</ele>
        <time>2013-06-09T08:48:01.000Z</time>
      </trkpt>
      <trkpt lat="47.29001" lon="6.09976">
        <ele>370.7</ele>
        <time>2013-06-09T08:48:04.000Z</time>
      </trkpt>
      <trkpt lat="47.29001" lon="6.09974">
        <ele>370.6</ele>
        <time>2013-06-09T08:48:05.000Z</time>
      </trkpt>
      <trkpt lat="47.29005" lon="6.09972">
        <ele>371.4</ele>
        <time>2013-06-09T08:48:10.000Z</time>
      </trkpt>
      <trkpt lat="47.29006" lon="6.09972">
        <ele>371.6</ele>
        <time>2013-06-09T08:48:11.000Z</time>
      </trkpt>
      <trkpt lat="47.29009" lon="6.09968">
        <ele>372.2</ele>
        <time>2013-06-09T08:48:16.000Z</time>
      </trkpt>
      <trkpt lat="47.2901" lon="6.09967">
        <ele>372.2</ele>
        <time>2013-06-09T08:48:17.000Z</time>
      </trkpt>
      <trkpt lat="47.29014" lon="6.09963">
        <ele>372.1</ele>
        <time>2013-06-09T08:48:21.000Z</time>
      </trkpt>
      <trkpt lat="47.29014" lon="6.09962">
        <ele>372.1</ele>
        <time>2013-06-09T08:48:22.000Z</time>
      </trkpt>
      <trkpt lat="47.29017" lon="6.09958">
        <ele>372.2</ele>
        <time>2013-06-09T08:48:27.000Z</time>
      </trkpt>
      <trkpt lat="47.29018" lon="6.09957">
        <ele>372.1</ele>
        <time>2013-06-09T08:48:28.000Z</time>
      </trkpt>
      <trkpt lat="47.2902" lon="6.09952">
        <ele>371.7</ele>
        <time>2013-06-09T08:48:33.000Z</time>
      </trkpt>
      <trkpt lat="47.2902" lon="6.09951">
        <ele>371.7</ele>
        <time>2013-06-09T08:48:34.000Z</time>
      </trkpt>
      <trkpt lat="47.29022" lon="6.09947">
        <ele>371.7</ele>
        <time>2013-06-09T08:48:38.000Z</time>
      </trkpt>
      <trkpt lat="47.29023" lon="6.09945">
        <ele>371.7</ele>
        <time>2013-06-09T08:48:39.000Z</time>
      </trkpt>
      <trkpt lat="47.29025" lon="6.09941">
        <ele>371.5</ele>
        <time>2013-06-09T08:48:43.000Z</time>
      </trkpt>
      <trkpt lat="47.29026" lon="6.0994">
        <ele>371.6</ele>
        <time>2013-06-09T08:48:44.000Z</time>
      </trkpt>
      <trkpt lat="47.29028" lon="6.09934">
        <ele>371.4</ele>
        <time>2013-06-09T08:48:49.000Z</time>
      </trkpt>
      <trkpt lat="47.29029" lon="6.09934">
        <ele>371.2</ele>
        <time>2013-06-09T08:48:50.000Z</time>
      </trkpt>
      <trkpt lat="47.29032" lon="6.0993">
        <ele>370.9</ele>
        <time>2013-06-09T08:48:56.000Z</time>
      </trkpt>
      <trkpt lat="47.29033" lon="6.0993">
        <ele>371</ele>
        <time>2013-06-09T08:48:57.000Z</time>
      </trkpt>
      <trkpt lat="47.29037" lon="6.09929">
        <ele>371.1</ele>
        <time>2013-06-09T08:49:02.000Z</time>
      </trkpt>
      <trkpt lat="47.29037" lon="6.09928">
        <ele>371.1</ele>
        <time>2013-06-09T08:49:03.000Z</time>
      </trkpt>
      <trkpt lat="47.2904" lon="6.09924">
        <ele>371.1</ele>
        <time>2013-06-09T08:49:08.000Z</time>
      </trkpt>
      <trkpt lat="47.29041" lon="6.09923">
        <ele>371.2</ele>
        <time>2013-06-09T08:49:09.000Z</time>
      </trkpt>
      <trkpt lat="47.29045" lon="6.0992">
        <ele>371.3</ele>
        <time>2013-06-09T08:49:19.000Z</time>
      </trkpt>
      <trkpt lat="47.29045" lon="6.0992">
        <ele>371.3</ele>
        <time>2013-06-09T08:49:20.000Z</time>
      </trkpt>
      <trkpt lat="47.29048" lon="6.09917">
        <ele>371.4</ele>
        <time>2013-06-09T08:49:29.000Z</time>
      </trkpt>
      <trkpt lat="47.29049" lon="6.09916">
        <ele>371.5</ele>
        <time>2013-06-09T08:49:30.000Z</time>
      </trkpt>
      <trkpt lat="47.29053" lon="6.09913">
        <ele>371.9</ele>
        <time>2013-06-09T08:49:36.000Z</time>
      </trkpt>
      <trkpt lat="47.29053" lon="6.09912">
        <ele>371.9</ele>
        <time>2013-06-09T08:49:37.000Z</time>
      </trkpt>
      <trkpt lat="47.29057" lon="6.0991">
        <ele>372.5</ele>
        <time>2013-06-09T08:49:41.000Z</time>
      </trkpt>
      <trkpt lat="47.29057" lon="6.09909">
        <ele>372.3</ele>
        <time>2013-06-09T08:49:42.000Z</time>
      </trkpt>
      <trkpt lat="47.29061" lon="6.09908">
        <ele>371.5</ele>
        <time>2013-06-09T08:49:46.000Z</time>
      </trkpt>
      <trkpt lat="47.29062" lon="6.09907">
        <ele>371.6</ele>
        <time>2013-06-09T08:49:47.000Z</time>
      </trkpt>
      <trkpt lat="47.29065" lon="6.09904">
        <ele>371.3</ele>
        <time>2013-06-09T08:49:51.000Z</time>
      </trkpt>
      <trkpt lat="47.29066" lon="6.09903">
        <ele>371.2</ele>
        <time>2013-06-09T08:49:52.000Z</time>
      </trkpt>
      <trkpt lat="47.29069" lon="6.099">
        <ele>370.7</ele>
        <time>2013-06-09T08:49:56.000Z</time>
      </trkpt>
      <trkpt lat="47.29069" lon="6.09898">
        <ele>370.6</ele>
        <time>2013-06-09T08:49:57.000Z</time>
      </trkpt>
      <trkpt lat="47.29072" lon="6.09895">
        <ele>370.8</ele>
        <time>2013-06-09T08:50:01.000Z</time>
      </trkpt>
      <trkpt lat="47.29073" lon="6.09894">
        <ele>371.1</ele>
        <time>2013-06-09T08:50:02.000Z</time>
      </trkpt>
      <trkpt lat="47.29077" lon="6.09889">
        <ele>371</ele>
        <time>2013-06-09T08:50:07.000Z</time>
      </trkpt>
      <trkpt lat="47.29077" lon="6.09889">
        <ele>371</ele>
        <time>2013-06-09T08:50:08.000Z</time>
      </trkpt>
      <trkpt lat="47.29081" lon="6.09885">
        <ele>370.9</ele>
        <time>2013-06-09T08:50:13.000Z</time>
      </trkpt>
      <trkpt lat="47.29081" lon="6.09885">
        <ele>370.9</ele>
        <time>2013-06-09T08:50:14.000Z</time>
      </trkpt>
      <trkpt lat="47.29085" lon="6.09884">
        <ele>371</ele>
        <time>2013-06-09T08:50:19.000Z</time>
      </trkpt>
      <trkpt lat="47.29086" lon="6.09883">
        <ele>370.9</ele>
        <time>2013-06-09T08:50:20.000Z</time>
      </trkpt>
      <trkpt lat="47.2909" lon="6.0988">
        <ele>370.6</ele>
        <time>2013-06-09T08:50:25.000Z</time>
      </trkpt>
      <trkpt lat="47.29091" lon="6.09879">
        <ele>370.5</ele>
        <time>2013-06-09T08:50:26.000Z</time>
      </trkpt>
      <trkpt lat="47.29094" lon="6.09876">
        <ele>370.4</ele>
        <time>2013-06-09T08:50:31.000Z</time>
      </trkpt>
      <trkpt lat="47.29094" lon="6.09876">
        <ele>370.3</ele>
        <time>2013-06-09T08:50:32.000Z</time>
      </trkpt>
      <trkpt lat="47.29097" lon="6.09871">
        <ele>369.4</ele>
        <time>2013-06-09T08:50:37.000Z</time>
      </trkpt>
      <trkpt lat="47.29098" lon="6.0987">
        <ele>369.3</ele>
        <time>2013-06-09T08:50:38.000Z</time>
      </trkpt>
      <trkpt lat="47.29101" lon="6.09865">
        <ele>368.7</ele>
        <time>2013-06-09T08:50:42.000Z</time>
      </trkpt>
      <trkpt lat="47.29101" lon="6.09864">
        <ele>368.6</ele>
        <time>2013-06-09T08:50:43.000Z</time>
      </trkpt>
      <trkpt lat="47.29105" lon="6.0986">
        <ele>368.9</ele>
        <time>2013-06-09T08:50:47.000Z</time>
      </trkpt>
      <trkpt lat="47.29106" lon="6.09859">
        <ele>369.1</ele>
        <time>2013-06-09T08:50:48.000Z</time>
      </trkpt>
      <trkpt lat="47.29109" lon="6.09855">
        <ele>369.5</ele>
        <time>2013-06-09T08:50:52.000Z</time>
      </trkpt>
      <trkpt lat="47.2911" lon="6.09854">
        <ele>369.7</ele>
        <time>2013-06-09T08:50:53.000Z</time>
      </trkpt>
      <trkpt lat="47.29113" lon="6.0985">
        <ele>369.6</ele>
        <time>2013-06-09T08:50:57.000Z</time>
      </trkpt>
      <trkpt lat="47.29113" lon="6.09849">
        <ele>369.7</ele>
        <time>2013-06-09T08:50:58.000Z</time>
      </trkpt>
      <trkpt lat="47.29117" lon="6.09845">
        <ele>369.7</ele>
        <time>2013-06-09T08:51:02.000Z</time>
      </trkpt>
      <trkpt lat="47.29117" lon="6.09844">
        <ele>369.6</ele>
        <time>2013-06-09T08:51:03.000Z</time>
      </trkpt>
      <trkpt lat="47.2912" lon="6.0984">
        <ele>370</ele>
        <time>2013-06-09T08:51:07.000Z</time>
      </trkpt>
      <trkpt lat="47.29121" lon="6.09839">
        <ele>370</ele>
        <time>2013-06-09T08:51:08.000Z</time>
      </trkpt>
      <trkpt lat="47.29124" lon="6.09834">
        <ele>369.9</ele>
        <time>2013-06-09T08:51:12.000Z</time>
      </trkpt>
      <trkpt lat="47.29125" lon="6.09834">
        <ele>370</ele>
        <time>2013-06-09T08:51:13.000Z</time>
      </trkpt>
      <trkpt lat="47.29129" lon="6.09832">
        <ele>370.7</ele>
        <time>2013-06-09T08:51:18.000Z</time>
      </trkpt>
      <trkpt lat="47.2913" lon="6.09831">
        <ele>370.8</ele>
        <time>2013-06-09T08:51:19.000Z</time>
      </trkpt>
      <trkpt lat="47.29134" lon="6.09828">
        <ele>371.6</ele>
        <time>2013-06-09T08:51:24.000Z</time>
      </trkpt>
      <trkpt lat="47.29135" lon="6.09827">
        <ele>371.9</ele>
        <time>2013-06-09T08:51:25.000Z</time>
      </trkpt>
      <trkpt lat="47.29138" lon="6.09824">
        <ele>371.8</ele>
        <time>2013-06-09T08:51:29.000Z</time>
      </trkpt>
      <trkpt lat="47.29139" lon="6.09823">
        <ele>371.8</ele>
        <time>2013-06-09T08:51:30.000Z</time>
      </trkpt>
      <trkpt lat="47.29142" lon="6.09819">
        <ele>372.2</ele>
        <time>2013-06-09T08:51:34.000Z</time>
      </trkpt>
      <trkpt lat="47.29143" lon="6.09818">
        <ele>372.4</ele>
        <time>2013-06-09T08:51:35.000Z</time>
      </trkpt>
      <trkpt lat="47.29146" lon="6.09814">
        <ele>372.7</ele>
        <time>2013-06-09T08:51:39.000Z</time>
      </trkpt>
      <trkpt lat="47.29146" lon="6.09813">
        <ele>372.7</ele>
        <time>2013-06-09T08:51:40.000Z</time>
      </trkpt>
      <trkpt lat="47.2915" lon="6.09809">
        <ele>373.3</ele>
        <time>2013-06-09T08:51:44.000Z</time>
      </trkpt>
      <trkpt lat="47.29151" lon="6.09808">
        <ele>373.3</ele>
        <time>2013-06-09T08:51:45.000Z</time>
      </trkpt>
      <trkpt lat="47.29154" lon="6.09805">
        <ele>373</ele>
        <time>2013-06-09T08:51:49.000Z</time>
      </trkpt>
      <trkpt lat="47.29154" lon="6.09804">
        <ele>372.7</ele>
        <time>2013-06-09T08:51:50.000Z</time>
      </trkpt>
      <trkpt lat="47.29157" lon="6.09799">
        <ele>372.4</ele>
        <time>2013-06-09T08:51:54.000Z</time>
      </trkpt>
      <trkpt lat="47.29158" lon="6.09798">
        <ele>372.1</ele>
        <time>2013-06-09T08:51:55.000Z</time>
      </trkpt>
      <trkpt lat="47.29161" lon="6.09794">
        <ele>371.1</ele>
        <time>2013-06-09T08:51:59.000Z</time>
      </trkpt>
      <trkpt lat="47.29162" lon="6.09792">
        <ele>370.8</ele>
        <time>2013-06-09T08:52:00.000Z</time>
      </trkpt>
      <trkpt lat="47.29165" lon="6.09789">
        <ele>369.9</ele>
        <time>2013-06-09T08:52:04.000Z</time>
      </trkpt>
      <trkpt lat="47.29165" lon="6.09788">
        <ele>369.8</ele>
        <time>2013-06-09T08:52:05.000Z</time>
      </trkpt>
      <trkpt lat="47.29169" lon="6.09785">
        <ele>369.4</ele>
        <time>2013-06-09T08:52:09.000Z</time>
      </trkpt>
      <trkpt lat="47.2917" lon="6.09784">
        <ele>369.1</ele>
        <time>2013-06-09T08:52:10.000Z</time>
      </trkpt>
      <trkpt lat="47.29174" lon="6.09782">
        <ele>368.8</ele>
        <time>2013-06-09T08:52:14.000Z</time>
      </trkpt>
      <trkpt lat="47.29175" lon="6.09781">
        <ele>368.8</ele>
        <time>2013-06-09T08:52:15.000Z</time>
      </trkpt>
      <trkpt lat="47.29178" lon="6.09778">
        <ele>369.5</ele>
        <time>2013-06-09T08:52:18.000Z</time>
      </trkpt>
      <trkpt lat="47.29179" lon="6.09777">
        <ele>369.8</ele>
        <time>2013-06-09T08:52:19.000Z</time>
      </trkpt>
      <trkpt lat="47.29182" lon="6.09773">
        <ele>370.4</ele>
        <time>2013-06-09T08:52:22.000Z</time>
      </trkpt>
      <trkpt lat="47.29183" lon="6.09772">
        <ele>370.4</ele>
        <time>2013-06-09T08:52:23.000Z</time>
      </trkpt>
      <trkpt lat="47.29186" lon="6.09768">
        <ele>369.6</ele>
        <time>2013-06-09T08:52:26.000Z</time>
      </trkpt>
      <trkpt lat="47.29186" lon="6.09767">
        <ele>369.5</ele>
        <time>2013-06-09T08:52:27.000Z</time>
      </trkpt>
      <trkpt lat="47.2919" lon="6.09763">
        <ele>371.7</ele>
        <time>2013-06-09T08:52:31.000Z</time>
      </trkpt>
      <trkpt lat="47.29191" lon="6.09763">
        <ele>371.7</ele>
        <time>2013-06-09T08:52:32.000Z</time>
      </trkpt>
      <trkpt lat="47.29194" lon="6.0976">
        <ele>372</ele>
        <time>2013-06-09T08:52:35.000Z</time>
      </trkpt>
      <trkpt lat="47.29195" lon="6.0976">
        <ele>372</ele>
        <time>2013-06-09T08:52:36.000Z</time>
      </trkpt>
      <trkpt lat="47.29198" lon="6.09756">
        <ele>372</ele>
        <time>2013-06-09T08:52:40.000Z</time>
      </trkpt>
      <trkpt lat="47.29199" lon="6.09755">
        <ele>372.3</ele>
        <time>2013-06-09T08:52:41.000Z</time>
      </trkpt>
      <trkpt lat="47.29202" lon="6.09751">
        <ele>373</ele>
        <time>2013-06-09T08:52:44.000Z</time>
      </trkpt>
      <trkpt lat="47.29202" lon="6.0975">
        <ele>373</ele>
        <time>2013-06-09T08:52:45.000Z</time>
      </trkpt>
      <trkpt lat="47.29206" lon="6.09747">
        <ele>373</ele>
        <time>2013-06-09T08:52:49.000Z</time>
      </trkpt>
      <trkpt lat="47.29207" lon="6.09746">
        <ele>372.9</ele>
        <time>2013-06-09T08:52:50.000Z</time>
      </trkpt>
      <trkpt lat="47.2921" lon="6.09743">
        <ele>372.2</ele>
        <time>2013-06-09T08:52:54.000Z</time>
      </trkpt>
      <trkpt lat="47.29211" lon="6.09742">
        <ele>371.9</ele>
        <time>2013-06-09T08:52:55.000Z</time>
      </trkpt>
      <trkpt lat="47.29214" lon="6.09739">
        <ele>371.7</ele>
        <time>2013-06-09T08:52:59.000Z</time>
      </trkpt>
      <trkpt lat="47.29215" lon="6.09739">
        <ele>371.5</ele>
        <time>2013-06-09T08:53:00.000Z</time>
      </trkpt>
      <trkpt lat="47.29219" lon="6.09735">
        <ele>371.3</ele>
        <time>2013-06-09T08:53:04.000Z</time>
      </trkpt>
      <trkpt lat="47.29219" lon="6.09734">
        <ele>371.4</ele>
        <time>2013-06-09T08:53:05.000Z</time>
      </trkpt>
      <trkpt lat="47.29223" lon="6.09731">
        <ele>371.5</ele>
        <time>2013-06-09T08:53:09.000Z</time>
      </trkpt>
      <trkpt lat="47.29224" lon="6.09729">
        <ele>371.4</ele>
        <time>2013-06-09T08:53:10.000Z</time>
      </trkpt>
      <trkpt lat="47.29226" lon="6.09725">
        <ele>371.7</ele>
        <time>2013-06-09T08:53:13.000Z</time>
      </trkpt>
      <trkpt lat="47.29227" lon="6.09724">
        <ele>371.8</ele>
        <time>2013-06-09T08:53:14.000Z</time>
      </trkpt>
      <trkpt lat="47.2923" lon="6.0972">
        <ele>372</ele>
        <time>2013-06-09T08:53:17.000Z</time>
      </trkpt>
      <trkpt lat="47.29232" lon="6.09719">
        <ele>371.7</ele>
        <time>2013-06-09T08:53:18.000Z</time>
      </trkpt>
      <trkpt lat="47.29234" lon="6.09715">
        <ele>371.8</ele>
        <time>2013-06-09T08:53:21.000Z</time>
      </trkpt>
      <trkpt lat="47.29234" lon="6.09713">
        <ele>371.9</ele>
        <time>2013-06-09T08:53:22.000Z</time>
      </trkpt>
      <trkpt lat="47.29235" lon="6.09708">
        <ele>371.8</ele>
        <time>2013-06-09T08:53:25.000Z</time>
      </trkpt>
      <trkpt lat="47.29234" lon="6.09706">
        <ele>371.8</ele>
        <time>2013-06-09T08:53:26.000Z</time>
      </trkpt>
      <trkpt lat="47.29233" lon="6.097">
        <ele>371.9</ele>
        <time>2013-06-09T08:53:29.000Z</time>
      </trkpt>
      <trkpt lat="47.29233" lon="6.09698">
        <ele>372</ele>
        <time>2013-06-09T08:53:30.000Z</time>
      </trkpt>
      <trkpt lat="47.29232" lon="6.09692">
        <ele>372.1</ele>
        <time>2013-06-09T08:53:33.000Z</time>
      </trkpt>
      <trkpt lat="47.29232" lon="6.0969">
        <ele>372.4</ele>
        <time>2013-06-09T08:53:34.000Z</time>
      </trkpt>
      <trkpt lat="47.29232" lon="6.09684">
        <ele>372.9</ele>
        <time>2013-06-09T08:53:37.000Z</time>
      </trkpt>
      <trkpt lat="47.29232" lon="6.09683">
        <ele>372.9</ele>
        <time>2013-06-09T08:53:38.000Z</time>
      </trkpt>
      <trkpt lat="47.29231" lon="6.09677">
        <ele>373</ele>
        <time>2013-06-09T08:53:41.000Z</time>
      </trkpt>
      <trkpt lat="47.29231" lon="6.09675">
        <ele>373</ele>
        <time>2013-06-09T08:53:42.000Z</time>
      </trkpt>
      <trkpt lat="47.29231" lon="6.0967">
        <ele>373</ele>
        <time>2013-06-09T08:53:44.000Z</time>
      </trkpt>
      <trkpt lat="47.29232" lon="6.09668">
        <ele>372.8</ele>
        <time>2013-06-09T08:53:45.000Z</time>
      </trkpt>
      <trkpt lat="47.29232" lon="6.09663">
        <ele>372.7</ele>
        <time>2013-06-09T08:53:47.000Z</time>
      </trkpt>
      <trkpt lat="47.29232" lon="6.09661">
        <ele>372.7</ele>
        <time>2013-06-09T08:53:48.000Z</time>
      </trkpt>
      <trkpt lat="47.29231" lon="6.09657">
        <ele>372.5</ele>
        <time>2013-06-09T08:53:50.000Z</time>
      </trkpt>
      <trkpt lat="47.29231" lon="6.09654">
        <ele>372.5</ele>
        <time>2013-06-09T08:53:51.000Z</time>
      </trkpt>
      <trkpt lat="47.29229" lon="6.09648">
        <ele>372.6</ele>
        <time>2013-06-09T08:53:54.000Z</time>
      </trkpt>
      <trkpt lat="47.29228" lon="6.09646">
        <ele>372.9</ele>
        <time>2013-06-09T08:53:55.000Z</time>
      </trkpt>
      <trkpt lat="47.29226" lon="6.0964">
        <ele>373.2</ele>
        <time>2013-06-09T08:53:58.000Z</time>
      </trkpt>
      <trkpt lat="47.29226" lon="6.09638">
        <ele>373.5</ele>
        <time>2013-06-09T08:53:59.000Z</time>
      </trkpt>
      <trkpt lat="47.29224" lon="6.09633">
        <ele>374.5</ele>
        <time>2013-06-09T08:54:02.000Z</time>
      </trkpt>
      <trkpt lat="47.29223" lon="6.09631">
        <ele>374.9</ele>
        <time>2013-06-09T08:54:03.000Z</time>
      </trkpt>
      <trkpt lat="47.29221" lon="6.09625">
        <ele>377</ele>
        <time>2013-06-09T08:54:06.000Z</time>
      </trkpt>
      <trkpt lat="47.29221" lon="6.09623">
        <ele>376.9</ele>
        <time>2013-06-09T08:54:07.000Z</time>
      </trkpt>
      <trkpt lat="47.29219" lon="6.09618">
        <ele>376.7</ele>
        <time>2013-06-09T08:54:10.000Z</time>
      </trkpt>
      <trkpt lat="47.29219" lon="6.09616">
        <ele>376.9</ele>
        <time>2013-06-09T08:54:11.000Z</time>
      </trkpt>
      <trkpt lat="47.29217" lon="6.09611">
        <ele>377.5</ele>
        <time>2013-06-09T08:54:14.000Z</time>
      </trkpt>
      <trkpt lat="47.29216" lon="6.0961">
        <ele>377.8</ele>
        <time>2013-06-09T08:54:15.000Z</time>
      </trkpt>
      <trkpt lat="47.29214" lon="6.09604">
        <ele>378.9</ele>
        <time>2013-06-09T08:54:18.000Z</time>
      </trkpt>
      <trkpt lat="47.29214" lon="6.09603">
        <ele>379.1</ele>
        <time>2013-06-09T08:54:19.000Z</time>
      </trkpt>
      <trkpt lat="47.29212" lon="6.09598">
        <ele>380</ele>
        <time>2013-06-09T08:54:22.000Z</time>
      </trkpt>
      <trkpt lat="47.29212" lon="6.09596">
        <ele>380.1</ele>
        <time>2013-06-09T08:54:23.000Z</time>
      </trkpt>
      <trkpt lat="47.2921" lon="6.0959">
        <ele>380.1</ele>
        <time>2013-06-09T08:54:26.000Z</time>
      </trkpt>
      <trkpt lat="47.2921" lon="6.09589">
        <ele>380.3</ele>
        <time>2013-06-09T08:54:27.000Z</time>
      </trkpt>
      <trkpt lat="47.29208" lon="6.09584">
        <ele>380.8</ele>
        <time>2013-06-09T08:54:30.000Z</time>
      </trkpt>
      <trkpt lat="47.29207" lon="6.09582">
        <ele>380.9</ele>
        <time>2013-06-09T08:54:31.000Z</time>
      </trkpt>
      <trkpt lat="47.29205" lon="6.09577">
        <ele>380.6</ele>
        <time>2013-06-09T08:54:34.000Z</time>
      </trkpt>
      <trkpt lat="47.29205" lon="6.09575">
        <ele>380.5</ele>
        <time>2013-06-09T08:54:35.000Z</time>
      </trkpt>
      <trkpt lat="47.29203" lon="6.09569">
        <ele>380.2</ele>
        <time>2013-06-09T08:54:38.000Z</time>
      </trkpt>
      <trkpt lat="47.29203" lon="6.09568">
        <ele>380.2</ele>
        <time>2013-06-09T08:54:39.000Z</time>
      </trkpt>
      <trkpt lat="47.29201" lon="6.09563">
        <ele>380.6</ele>
        <time>2013-06-09T08:54:42.000Z</time>
      </trkpt>
      <trkpt lat="47.292" lon="6.09561">
        <ele>380.7</ele>
        <time>2013-06-09T08:54:43.000Z</time>
      </trkpt>
      <trkpt lat="47.29198" lon="6.09556">
        <ele>381.1</ele>
        <time>2013-06-09T08:54:46.000Z</time>
      </trkpt>
      <trkpt lat="47.29197" lon="6.09555">
        <ele>381.4</ele>
        <time>2013-06-09T08:54:47.000Z</time>
      </trkpt>
      <trkpt lat="47.29195" lon="6.09551">
        <ele>381.7</ele>
        <time>2013-06-09T08:54:50.000Z</time>
      </trkpt>
      <trkpt lat="47.29194" lon="6.09549">
        <ele>381.7</ele>
        <time>2013-06-09T08:54:51.000Z</time>
      </trkpt>
      <trkpt lat="47.29191" lon="6.09545">
        <ele>382</ele>
        <time>2013-06-09T08:54:54.000Z</time>
      </trkpt>
      <trkpt lat="47.2919" lon="6.09544">
        <ele>382</ele>
        <time>2013-06-09T08:54:55.000Z</time>
      </trkpt>
      <trkpt lat="47.29188" lon="6.09539">
        <ele>382.3</ele>
        <time>2013-06-09T08:54:58.000Z</time>
      </trkpt>
      <trkpt lat="47.29188" lon="6.09537">
        <ele>382.4</ele>
        <time>2013-06-09T08:54:59.000Z</time>
      </trkpt>
      <trkpt lat="47.29186" lon="6.09533">
        <ele>383</ele>
        <time>2013-06-09T08:55:02.000Z</time>
      </trkpt>
      <trkpt lat="47.29186" lon="6.09531">
        <ele>383</ele>
        <time>2013-06-09T08:55:03.000Z</time>
      </trkpt>
      <trkpt lat="47.29184" lon="6.09526">
        <ele>383.4</ele>
        <time>2013-06-09T08:55:06.000Z</time>
      </trkpt>
      <trkpt lat="47.29184" lon="6.09524">
        <ele>383.7</ele>
        <time>2013-06-09T08:55:07.000Z</time>
      </trkpt>
      <trkpt lat="47.29181" lon="6.0952">
        <ele>384.1</ele>
        <time>2013-06-09T08:55:10.000Z</time>
      </trkpt>
      <trkpt lat="47.29181" lon="6.09518">
        <ele>384.3</ele>
        <time>2013-06-09T08:55:11.000Z</time>
      </trkpt>
      <trkpt lat="47.29179" lon="6.09513">
        <ele>384.6</ele>
        <time>2013-06-09T08:55:14.000Z</time>
      </trkpt>
      <trkpt lat="47.29178" lon="6.09511">
        <ele>384.7</ele>
        <time>2013-06-09T08:55:15.000Z</time>
      </trkpt>
      <trkpt lat="47.29177" lon="6.09506">
        <ele>385</ele>
        <time>2013-06-09T08:55:18.000Z</time>
      </trkpt>
      <trkpt lat="47.29176" lon="6.09504">
        <ele>384.9</ele>
        <time>2013-06-09T08:55:19.000Z</time>
      </trkpt>
      <trkpt lat="47.29174" lon="6.09499">
        <ele>384.3</ele>
        <time>2013-06-09T08:55:22.000Z</time>
      </trkpt>
      <trkpt lat="47.29173" lon="6.09497">
        <ele>384.1</ele>
        <time>2013-06-09T08:55:23.000Z</time>
      </trkpt>
      <trkpt lat="47.2917" lon="6.09493">
        <ele>384.1</ele>
        <time>2013-06-09T08:55:26.000Z</time>
      </trkpt>
      <trkpt lat="47.29169" lon="6.09491">
        <ele>384.2</ele>
        <time>2013-06-09T08:55:27.000Z</time>
      </trkpt>
      <trkpt lat="47.29166" lon="6.09486">
        <ele>384.4</ele>
        <time>2013-06-09T08:55:30.000Z</time>
      </trkpt>
      <trkpt lat="47.29165" lon="6.09485">
        <ele>384.6</ele>
        <time>2013-06-09T08:55:31.000Z</time>
      </trkpt>
      <trkpt lat="47.29162" lon="6.0948">
        <ele>384.8</ele>
        <time>2013-06-09T08:55:34.000Z</time>
      </trkpt>
      <trkpt lat="47.29161" lon="6.09479">
        <ele>384.7</ele>
        <time>2013-06-09T08:55:35.000Z</time>
      </trkpt>
      <trkpt lat="47.29158" lon="6.09478">
        <ele>385</ele>
        <time>2013-06-09T08:55:39.000Z</time>
      </trkpt>
      <trkpt lat="47.29157" lon="6.09476">
        <ele>384.7</ele>
        <time>2013-06-09T08:55:40.000Z</time>
      </trkpt>
      <trkpt lat="47.29155" lon="6.09472">
        <ele>384</ele>
        <time>2013-06-09T08:55:42.000Z</time>
      </trkpt>
      <trkpt lat="47.29154" lon="6.0947">
        <ele>383.8</ele>
        <time>2013-06-09T08:55:43.000Z</time>
      </trkpt>
      <trkpt lat="47.29152" lon="6.09465">
        <ele>383.2</ele>
        <time>2013-06-09T08:55:45.000Z</time>
      </trkpt>
      <trkpt lat="47.29151" lon="6.09464">
        <ele>383.4</ele>
        <time>2013-06-09T08:55:46.000Z</time>
      </trkpt>
      <trkpt lat="47.29149" lon="6.0946">
        <ele>383.7</ele>
        <time>2013-06-09T08:55:48.000Z</time>
      </trkpt>
      <trkpt lat="47.29148" lon="6.09458">
        <ele>383.7</ele>
        <time>2013-06-09T08:55:49.000Z</time>
      </trkpt>
      <trkpt lat="47.29145" lon="6.09454">
        <ele>383.6</ele>
        <time>2013-06-09T08:55:51.000Z</time>
      </trkpt>
      <trkpt lat="47.29144" lon="6.09452">
        <ele>383.7</ele>
        <time>2013-06-09T08:55:52.000Z</time>
      </trkpt>
      <trkpt lat="47.29142" lon="6.09449">
        <ele>383.6</ele>
        <time>2013-06-09T08:55:54.000Z</time>
      </trkpt>
      <trkpt lat="47.29141" lon="6.09447">
        <ele>383.5</ele>
        <time>2013-06-09T08:55:55.000Z</time>
      </trkpt>
      <trkpt lat="47.29139" lon="6.09442">
        <ele>383</ele>
        <time>2013-06-09T08:55:58.000Z</time>
      </trkpt>
      <trkpt lat="47.29138" lon="6.0944">
        <ele>382.9</ele>
        <time>2013-06-09T08:55:59.000Z</time>
      </trkpt>
      <trkpt lat="47.29134" lon="6.09435">
        <ele>381.7</ele>
        <time>2013-06-09T08:56:02.000Z</time>
      </trkpt>
      <trkpt lat="47.29133" lon="6.09433">
        <ele>381.4</ele>
        <time>2013-06-09T08:56:03.000Z</time>
      </trkpt>
      <trkpt lat="47.29131" lon="6.0943">
        <ele>380.4</ele>
        <time>2013-06-09T08:56:05.000Z</time>
      </trkpt>
      <trkpt lat="47.2913" lon="6.09428">
        <ele>380</ele>
        <time>2013-06-09T08:56:06.000Z</time>
      </trkpt>
      <trkpt lat="47.29129" lon="6.09424">
        <ele>379.3</ele>
        <time>2013-06-09T08:56:08.000Z</time>
      </trkpt>
      <trkpt lat="47.29128" lon="6.09423">
        <ele>379.2</ele>
        <time>2013-06-09T08:56:09.000Z</time>
      </trkpt>
      <trkpt lat="47.29124" lon="6.09418">
        <ele>379.3</ele>
        <time>2013-06-09T08:56:12.000Z</time>
      </trkpt>
      <trkpt lat="47.29124" lon="6.09417">
        <ele>379.3</ele>
        <time>2013-06-09T08:56:13.000Z</time>
      </trkpt>
      <trkpt lat="47.2912" lon="6.09413">
        <ele>379.7</ele>
        <time>2013-06-09T08:56:16.000Z</time>
      </trkpt>
      <trkpt lat="47.29119" lon="6.09411">
        <ele>379.6</ele>
        <time>2013-06-09T08:56:17.000Z</time>
      </trkpt>
      <trkpt lat="47.29116" lon="6.09407">
        <ele>379.5</ele>
        <time>2013-06-09T08:56:20.000Z</time>
      </trkpt>
      <trkpt lat="47.29115" lon="6.09406">
        <ele>379.6</ele>
        <time>2013-06-09T08:56:21.000Z</time>
      </trkpt>
      <trkpt lat="47.29112" lon="6.09401">
        <ele>379.8</ele>
        <time>2013-06-09T08:56:24.000Z</time>
      </trkpt>
      <trkpt lat="47.29111" lon="6.09399">
        <ele>379.7</ele>
        <time>2013-06-09T08:56:25.000Z</time>
      </trkpt>
      <trkpt lat="47.29108" lon="6.09395">
        <ele>379.7</ele>
        <time>2013-06-09T08:56:28.000Z</time>
      </trkpt>
      <trkpt lat="47.29108" lon="6.09393">
        <ele>379.6</ele>
        <time>2013-06-09T08:56:29.000Z</time>
      </trkpt>
      <trkpt lat="47.29105" lon="6.09389">
        <ele>379.1</ele>
        <time>2013-06-09T08:56:32.000Z</time>
      </trkpt>
      <trkpt lat="47.29104" lon="6.09387">
        <ele>379</ele>
        <time>2013-06-09T08:56:33.000Z</time>
      </trkpt>
      <trkpt lat="47.29101" lon="6.09383">
        <ele>378.5</ele>
        <time>2013-06-09T08:56:36.000Z</time>
      </trkpt>
      <trkpt lat="47.291" lon="6.09381">
        <ele>378.5</ele>
        <time>2013-06-09T08:56:37.000Z</time>
      </trkpt>
      <trkpt lat="47.29097" lon="6.09377">
        <ele>378.6</ele>
        <time>2013-06-09T08:56:40.000Z</time>
      </trkpt>
      <trkpt lat="47.29096" lon="6.09375">
        <ele>378.4</ele>
        <time>2013-06-09T08:56:41.000Z</time>
      </trkpt>
      <trkpt lat="47.29093" lon="6.09371">
        <ele>378.2</ele>
        <time>2013-06-09T08:56:44.000Z</time>
      </trkpt>
      <trkpt lat="47.29092" lon="6.0937">
        <ele>378</ele>
        <time>2013-06-09T08:56:45.000Z</time>
      </trkpt>
      <trkpt lat="47.29089" lon="6.09367">
        <ele>377.4</ele>
        <time>2013-06-09T08:56:48.000Z</time>
      </trkpt>
      <trkpt lat="47.29087" lon="6.09366">
        <ele>377.2</ele>
        <time>2013-06-09T08:56:49.000Z</time>
      </trkpt>
      <trkpt lat="47.29084" lon="6.09363">
        <ele>376.3</ele>
        <time>2013-06-09T08:56:52.000Z</time>
      </trkpt>
      <trkpt lat="47.29083" lon="6.09362">
        <ele>376.2</ele>
        <time>2013-06-09T08:56:53.000Z</time>
      </trkpt>
      <trkpt lat="47.29079" lon="6.0936">
        <ele>375.8</ele>
        <time>2013-06-09T08:56:56.000Z</time>
      </trkpt>
      <trkpt lat="47.29078" lon="6.09359">
        <ele>375.6</ele>
        <time>2013-06-09T08:56:57.000Z</time>
      </trkpt>
      <trkpt lat="47.29074" lon="6.09356">
        <ele>375.1</ele>
        <time>2013-06-09T08:57:00.000Z</time>
      </trkpt>
      <trkpt lat="47.29073" lon="6.09355">
        <ele>375</ele>
        <time>2013-06-09T08:57:01.000Z</time>
      </trkpt>
      <trkpt lat="47.29069" lon="6.09352">
        <ele>374.7</ele>
        <time>2013-06-09T08:57:04.000Z</time>
      </trkpt>
      <trkpt lat="47.29068" lon="6.09351">
        <ele>374.6</ele>
        <time>2013-06-09T08:57:05.000Z</time>
      </trkpt>
      <trkpt lat="47.29064" lon="6.09351">
        <ele>374.9</ele>
        <time>2013-06-09T08:57:08.000Z</time>
      </trkpt>
      <trkpt lat="47.29063" lon="6.0935">
        <ele>374.9</ele>
        <time>2013-06-09T08:57:09.000Z</time>
      </trkpt>
      <trkpt lat="47.29059" lon="6.09347">
        <ele>374.7</ele>
        <time>2013-06-09T08:57:12.000Z</time>
      </trkpt>
      <trkpt lat="47.29058" lon="6.09347">
        <ele>374.7</ele>
        <time>2013-06-09T08:57:13.000Z</time>
      </trkpt>
      <trkpt lat="47.29054" lon="6.09344">
        <ele>374.6</ele>
        <time>2013-06-09T08:57:16.000Z</time>
      </trkpt>
      <trkpt lat="47.29053" lon="6.09343">
        <ele>374.6</ele>
        <time>2013-06-09T08:57:17.000Z</time>
      </trkpt>
      <trkpt lat="47.29049" lon="6.09341">
        <ele>374.7</ele>
        <time>2013-06-09T08:57:20.000Z</time>
      </trkpt>
      <trkpt lat="47.29048" lon="6.0934">
        <ele>374.5</ele>
        <time>2013-06-09T08:57:21.000Z</time>
      </trkpt>
      <trkpt lat="47.29044" lon="6.09337">
        <ele>374.6</ele>
        <time>2013-06-09T08:57:24.000Z</time>
      </trkpt>
      <trkpt lat="47.29042" lon="6.09336">
        <ele>374.6</ele>
        <time>2013-06-09T08:57:25.000Z</time>
      </trkpt>
      <trkpt lat="47.29038" lon="6.09333">
        <ele>374.8</ele>
        <time>2013-06-09T08:57:28.000Z</time>
      </trkpt>
      <trkpt lat="47.29037" lon="6.09332">
        <ele>374.8</ele>
        <time>2013-06-09T08:57:29.000Z</time>
      </trkpt>
      <trkpt lat="47.29034" lon="6.09329">
        <ele>374.8</ele>
        <time>2013-06-09T08:57:32.000Z</time>
      </trkpt>
      <trkpt lat="47.29032" lon="6.09328">
        <ele>374.8</ele>
        <time>2013-06-09T08:57:33.000Z</time>
      </trkpt>
      <trkpt lat="47.2903" lon="6.09325">
        <ele>374.6</ele>
        <time>2013-06-09T08:57:35.000Z</time>
      </trkpt>
      <trkpt lat="47.29028" lon="6.09324">
        <ele>374.6</ele>
        <time>2013-06-09T08:57:36.000Z</time>
      </trkpt>
      <trkpt lat="47.29024" lon="6.09321">
        <ele>374.2</ele>
        <time>2013-06-09T08:57:39.000Z</time>
      </trkpt>
      <trkpt lat="47.29023" lon="6.0932">
        <ele>374</ele>
        <time>2013-06-09T08:57:40.000Z</time>
      </trkpt>
      <trkpt lat="47.2902" lon="6.09317">
        <ele>374.3</ele>
        <time>2013-06-09T08:57:43.000Z</time>
      </trkpt>
      <trkpt lat="47.29018" lon="6.09316">
        <ele>374.1</ele>
        <time>2013-06-09T08:57:44.000Z</time>
      </trkpt>
      <trkpt lat="47.29015" lon="6.09314">
        <ele>373.7</ele>
        <time>2013-06-09T08:57:47.000Z</time>
      </trkpt>
      <trkpt lat="47.29014" lon="6.09313">
        <ele>373.7</ele>
        <time>2013-06-09T08:57:48.000Z</time>
      </trkpt>
      <trkpt lat="47.2901" lon="6.0931">
        <ele>373.9</ele>
        <time>2013-06-09T08:57:51.000Z</time>
      </trkpt>
      <trkpt lat="47.29009" lon="6.0931">
        <ele>373.8</ele>
        <time>2013-06-09T08:57:52.000Z</time>
      </trkpt>
      <trkpt lat="47.29005" lon="6.09308">
        <ele>373.8</ele>
        <time>2013-06-09T08:57:55.000Z</time>
      </trkpt>
      <trkpt lat="47.29004" lon="6.09307">
        <ele>373.8</ele>
        <time>2013-06-09T08:57:56.000Z</time>
      </trkpt>
      <trkpt lat="47.29" lon="6.09304">
        <ele>373.8</ele>
        <time>2013-06-09T08:57:59.000Z</time>
      </trkpt>
      <trkpt lat="47.28999" lon="6.09303">
        <ele>373.8</ele>
        <time>2013-06-09T08:58:00.000Z</time>
      </trkpt>
      <trkpt lat="47.28996" lon="6.09298">
        <ele>373.1</ele>
        <time>2013-06-09T08:58:03.000Z</time>
      </trkpt>
      <trkpt lat="47.28995" lon="6.09297">
        <ele>372.9</ele>
        <time>2013-06-09T08:58:04.000Z</time>
      </trkpt>
      <trkpt lat="47.28993" lon="6.09293">
        <ele>372.6</ele>
        <time>2013-06-09T08:58:06.000Z</time>
      </trkpt>
      <trkpt lat="47.28992" lon="6.09292">
        <ele>372.8</ele>
        <time>2013-06-09T08:58:07.000Z</time>
      </trkpt>
      <trkpt lat="47.2899" lon="6.09288">
        <ele>372.7</ele>
        <time>2013-06-09T08:58:09.000Z</time>
      </trkpt>
      <trkpt lat="47.28988" lon="6.09286">
        <ele>372.7</ele>
        <time>2013-06-09T08:58:10.000Z</time>
      </trkpt>
      <trkpt lat="47.28986" lon="6.09283">
        <ele>372.5</ele>
        <time>2013-06-09T08:58:12.000Z</time>
      </trkpt>
      <trkpt lat="47.28985" lon="6.09281">
        <ele>372.5</ele>
        <time>2013-06-09T08:58:13.000Z</time>
      </trkpt>
      <trkpt lat="47.28983" lon="6.09278">
        <ele>372.4</ele>
        <time>2013-06-09T08:58:15.000Z</time>
      </trkpt>
      <trkpt lat="47.28982" lon="6.09276">
        <ele>372.3</ele>
        <time>2013-06-09T08:58:16.000Z</time>
      </trkpt>
      <trkpt lat="47.2898" lon="6.09273">
        <ele>372.3</ele>
        <time>2013-06-09T08:58:18.000Z</time>
      </trkpt>
      <trkpt lat="47.28978" lon="6.09271">
        <ele>372.3</ele>
        <time>2013-06-09T08:58:19.000Z</time>
      </trkpt>
      <trkpt lat="47.28976" lon="6.09268">
        <ele>372</ele>
        <time>2013-06-09T08:58:21.000Z</time>
      </trkpt>
      <trkpt lat="47.28975" lon="6.09266">
        <ele>371.9</ele>
        <time>2013-06-09T08:58:22.000Z</time>
      </trkpt>
      <trkpt lat="47.28973" lon="6.09262">
        <ele>371.7</ele>
        <time>2013-06-09T08:58:24.000Z</time>
      </trkpt>
      <trkpt lat="47.28972" lon="6.09261">
        <ele>371.8</ele>
        <time>2013-06-09T08:58:25.000Z</time>
      </trkpt>
      <trkpt lat="47.28968" lon="6.09256">
        <ele>371.8</ele>
        <time>2013-06-09T08:58:28.000Z</time>
      </trkpt>
      <trkpt lat="47.28967" lon="6.09255">
        <ele>371.8</ele>
        <time>2013-06-09T08:58:29.000Z</time>
      </trkpt>
      <trkpt lat="47.28964" lon="6.0925">
        <ele>371.5</ele>
        <time>2013-06-09T08:58:32.000Z</time>
      </trkpt>
      <trkpt lat="47.28963" lon="6.09249">
        <ele>371.4</ele>
        <time>2013-06-09T08:58:33.000Z</time>
      </trkpt>
      <trkpt lat="47.2896" lon="6.09244">
        <ele>371.2</ele>
        <time>2013-06-09T08:58:36.000Z</time>
      </trkpt>
      <trkpt lat="47.28959" lon="6.09242">
        <ele>371.2</ele>
        <time>2013-06-09T08:58:37.000Z</time>
      </trkpt>
      <trkpt lat="47.28956" lon="6.09238">
        <ele>371.3</ele>
        <time>2013-06-09T08:58:40.000Z</time>
      </trkpt>
      <trkpt lat="47.28955" lon="6.09237">
        <ele>371.3</ele>
        <time>2013-06-09T08:58:41.000Z</time>
      </trkpt>
      <trkpt lat="47.28951" lon="6.09233">
        <ele>371.5</ele>
        <time>2013-06-09T08:58:44.000Z</time>
      </trkpt>
      <trkpt lat="47.2895" lon="6.09231">
        <ele>371.5</ele>
        <time>2013-06-09T08:58:45.000Z</time>
      </trkpt>
      <trkpt lat="47.28947" lon="6.09228">
        <ele>371.5</ele>
        <time>2013-06-09T08:58:48.000Z</time>
      </trkpt>
      <trkpt lat="47.28945" lon="6.09227">
        <ele>371.5</ele>
        <time>2013-06-09T08:58:49.000Z</time>
      </trkpt>
      <trkpt lat="47.28942" lon="6.09223">
        <ele>371.8</ele>
        <time>2013-06-09T08:58:52.000Z</time>
      </trkpt>
      <trkpt lat="47.28941" lon="6.09222">
        <ele>372</ele>
        <time>2013-06-09T08:58:53.000Z</time>
      </trkpt>
      <trkpt lat="47.28937" lon="6.09218">
        <ele>372.2</ele>
        <time>2013-06-09T08:58:56.000Z</time>
      </trkpt>
      <trkpt lat="47.28936" lon="6.09217">
        <ele>372.1</ele>
        <time>2013-06-09T08:58:57.000Z</time>
      </trkpt>
      <trkpt lat="47.28933" lon="6.09212">
        <ele>371.5</ele>
        <time>2013-06-09T08:59:00.000Z</time>
      </trkpt>
      <trkpt lat="47.28932" lon="6.09211">
        <ele>371.2</ele>
        <time>2013-06-09T08:59:01.000Z</time>
      </trkpt>
      <trkpt lat="47.28929" lon="6.09206">
        <ele>371.3</ele>
        <time>2013-06-09T08:59:04.000Z</time>
      </trkpt>
      <trkpt lat="47.28928" lon="6.09204">
        <ele>371.2</ele>
        <time>2013-06-09T08:59:05.000Z</time>
      </trkpt>
      <trkpt lat="47.28925" lon="6.09199">
        <ele>371.3</ele>
        <time>2013-06-09T08:59:08.000Z</time>
      </trkpt>
      <trkpt lat="47.28924" lon="6.09198">
        <ele>371.2</ele>
        <time>2013-06-09T08:59:09.000Z</time>
      </trkpt>
      <trkpt lat="47.28921" lon="6.09193">
        <ele>371.4</ele>
        <time>2013-06-09T08:59:12.000Z</time>
      </trkpt>
      <trkpt lat="47.2892" lon="6.09191">
        <ele>371.5</ele>
        <time>2013-06-09T08:59:13.000Z</time>
      </trkpt>
      <trkpt lat="47.28917" lon="6.09186">
        <ele>371.9</ele>
        <time>2013-06-09T08:59:16.000Z</time>
      </trkpt>
      <trkpt lat="47.28916" lon="6.09185">
        <ele>371.9</ele>
        <time>2013-06-09T08:59:17.000Z</time>
      </trkpt>
      <trkpt lat="47.28914" lon="6.09182">
        <ele>372.2</ele>
        <time>2013-06-09T08:59:19.000Z</time>
      </trkpt>
      <trkpt lat="47.28913" lon="6.0918">
        <ele>372.3</ele>
        <time>2013-06-09T08:59:20.000Z</time>
      </trkpt>
      <trkpt lat="47.28909" lon="6.09176">
        <ele>372.6</ele>
        <time>2013-06-09T08:59:23.000Z</time>
      </trkpt>
      <trkpt lat="47.28908" lon="6.09174">
        <ele>372.6</ele>
        <time>2013-06-09T08:59:24.000Z</time>
      </trkpt>
      <trkpt lat="47.28906" lon="6.09171">
        <ele>372.5</ele>
        <time>2013-06-09T08:59:26.000Z</time>
      </trkpt>
      <trkpt lat="47.28905" lon="6.09169">
        <ele>372.6</ele>
        <time>2013-06-09T08:59:27.000Z</time>
      </trkpt>
      <trkpt lat="47.28903" lon="6.09164">
        <ele>372.7</ele>
        <time>2013-06-09T08:59:30.000Z</time>
      </trkpt>
      <trkpt lat="47.28902" lon="6.09162">
        <ele>372.8</ele>
        <time>2013-06-09T08:59:31.000Z</time>
      </trkpt>
      <trkpt lat="47.28899" lon="6.09157">
        <ele>373.1</ele>
        <time>2013-06-09T08:59:34.000Z</time>
      </trkpt>
      <trkpt lat="47.28898" lon="6.09155">
        <ele>373.1</ele>
        <time>2013-06-09T08:59:35.000Z</time>
      </trkpt>
      <trkpt lat="47.28896" lon="6.0915">
        <ele>372.9</ele>
        <time>2013-06-09T08:59:38.000Z</time>
      </trkpt>
      <trkpt lat="47.28896" lon="6.09148">
        <ele>373</ele>
        <time>2013-06-09T08:59:39.000Z</time>
      </trkpt>
      <trkpt lat="47.28894" lon="6.09142">
        <ele>373.2</ele>
        <time>2013-06-09T08:59:42.000Z</time>
      </trkpt>
      <trkpt lat="47.28894" lon="6.09141">
        <ele>373.2</ele>
        <time>2013-06-09T08:59:43.000Z</time>
      </trkpt>
      <trkpt lat="47.28893" lon="6.09135">
        <ele>373.6</ele>
        <time>2013-06-09T08:59:46.000Z</time>
      </trkpt>
      <trkpt lat="47.28892" lon="6.09134">
        <ele>373.6</ele>
        <time>2013-06-09T08:59:47.000Z</time>
      </trkpt>
      <trkpt lat="47.2889" lon="6.09128">
        <ele>374.3</ele>
        <time>2013-06-09T08:59:52.000Z</time>
      </trkpt>
      <trkpt lat="47.2889" lon="6.09126">
        <ele>374.3</ele>
        <time>2013-06-09T08:59:53.000Z</time>
      </trkpt>
      <trkpt lat="47.28889" lon="6.0912">
        <ele>374.5</ele>
        <time>2013-06-09T08:59:56.000Z</time>
      </trkpt>
      <trkpt lat="47.28889" lon="6.09118">
        <ele>374.6</ele>
        <time>2013-06-09T08:59:57.000Z</time>
      </trkpt>
      <trkpt lat="47.28889" lon="6.09112">
        <ele>375.3</ele>
        <time>2013-06-09T09:00:00.000Z</time>
      </trkpt>
      <trkpt lat="47.28889" lon="6.09109">
        <ele>375.4</ele>
        <time>2013-06-09T09:00:01.000Z</time>
      </trkpt>
      <trkpt lat="47.2889" lon="6.09103">
        <ele>375.5</ele>
        <time>2013-06-09T09:00:04.000Z</time>
      </trkpt>
      <trkpt lat="47.2889" lon="6.09101">
        <ele>375.6</ele>
        <time>2013-06-09T09:00:05.000Z</time>
      </trkpt>
      <trkpt lat="47.2889" lon="6.09095">
        <ele>376</ele>
        <time>2013-06-09T09:00:08.000Z</time>
      </trkpt>
      <trkpt lat="47.28889" lon="6.09093">
        <ele>376.2</ele>
        <time>2013-06-09T09:00:09.000Z</time>
      </trkpt>
      <trkpt lat="47.28889" lon="6.09088">
        <ele>376.4</ele>
        <time>2013-06-09T09:00:12.000Z</time>
      </trkpt>
      <trkpt lat="47.28888" lon="6.09086">
        <ele>376.3</ele>
        <time>2013-06-09T09:00:13.000Z</time>
      </trkpt>
      <trkpt lat="47.28887" lon="6.0908">
        <ele>376.3</ele>
        <time>2013-06-09T09:00:16.000Z</time>
      </trkpt>
      <trkpt lat="47.28886" lon="6.09078">
        <ele>376.3</ele>
        <time>2013-06-09T09:00:17.000Z</time>
      </trkpt>
      <trkpt lat="47.28885" lon="6.09072">
        <ele>376.3</ele>
        <time>2013-06-09T09:00:20.000Z</time>
      </trkpt>
      <trkpt lat="47.28884" lon="6.0907">
        <ele>376.2</ele>
        <time>2013-06-09T09:00:21.000Z</time>
      </trkpt>
      <trkpt lat="47.28883" lon="6.09064">
        <ele>376.8</ele>
        <time>2013-06-09T09:00:24.000Z</time>
      </trkpt>
      <trkpt lat="47.28882" lon="6.09063">
        <ele>376.9</ele>
        <time>2013-06-09T09:00:25.000Z</time>
      </trkpt>
      <trkpt lat="47.2888" lon="6.09057">
        <ele>377.2</ele>
        <time>2013-06-09T09:00:28.000Z</time>
      </trkpt>
      <trkpt lat="47.28879" lon="6.09056">
        <ele>377.3</ele>
        <time>2013-06-09T09:00:29.000Z</time>
      </trkpt>
      <trkpt lat="47.28877" lon="6.0905">
        <ele>378</ele>
        <time>2013-06-09T09:00:32.000Z</time>
      </trkpt>
      <trkpt lat="47.28877" lon="6.09048">
        <ele>378.2</ele>
        <time>2013-06-09T09:00:33.000Z</time>
      </trkpt>
      <trkpt lat="47.28875" lon="6.09043">
        <ele>378.4</ele>
        <time>2013-06-09T09:00:36.000Z</time>
      </trkpt>
      <trkpt lat="47.28874" lon="6.09041">
        <ele>378.4</ele>
        <time>2013-06-09T09:00:37.000Z</time>
      </trkpt>
      <trkpt lat="47.28872" lon="6.09035">
        <ele>378.7</ele>
        <time>2013-06-09T09:00:40.000Z</time>
      </trkpt>
      <trkpt lat="47.28872" lon="6.09033">
        <ele>378.7</ele>
        <time>2013-06-09T09:00:41.000Z</time>
      </trkpt>
      <trkpt lat="47.28869" lon="6.09028">
        <ele>379.2</ele>
        <time>2013-06-09T09:00:44.000Z</time>
      </trkpt>
      <trkpt lat="47.28869" lon="6.09026">
        <ele>379.4</ele>
        <time>2013-06-09T09:00:45.000Z</time>
      </trkpt>
      <trkpt lat="47.28867" lon="6.09022">
        <ele>379.7</ele>
        <time>2013-06-09T09:00:47.000Z</time>
      </trkpt>
      <trkpt lat="47.28866" lon="6.0902">
        <ele>379.9</ele>
        <time>2013-06-09T09:00:48.000Z</time>
      </trkpt>
      <trkpt lat="47.28864" lon="6.09017">
        <ele>380.2</ele>
        <time>2013-06-09T09:00:50.000Z</time>
      </trkpt>
      <trkpt lat="47.28863" lon="6.09015">
        <ele>380.2</ele>
        <time>2013-06-09T09:00:51.000Z</time>
      </trkpt>
      <trkpt lat="47.28861" lon="6.09011">
        <ele>380.1</ele>
        <time>2013-06-09T09:00:53.000Z</time>
      </trkpt>
      <trkpt lat="47.2886" lon="6.09009">
        <ele>380.2</ele>
        <time>2013-06-09T09:00:54.000Z</time>
      </trkpt>
      <trkpt lat="47.28858" lon="6.09005">
        <ele>380.8</ele>
        <time>2013-06-09T09:00:56.000Z</time>
      </trkpt>
      <trkpt lat="47.28857" lon="6.09004">
        <ele>381.1</ele>
        <time>2013-06-09T09:00:57.000Z</time>
      </trkpt>
      <trkpt lat="47.28855" lon="6.09">
        <ele>381.1</ele>
        <time>2013-06-09T09:00:59.000Z</time>
      </trkpt>
      <trkpt lat="47.28854" lon="6.08998">
        <ele>381</ele>
        <time>2013-06-09T09:01:00.000Z</time>
      </trkpt>
      <trkpt lat="47.28852" lon="6.08994">
        <ele>380.4</ele>
        <time>2013-06-09T09:01:02.000Z</time>
      </trkpt>
      <trkpt lat="47.28851" lon="6.08992">
        <ele>380.5</ele>
        <time>2013-06-09T09:01:03.000Z</time>
      </trkpt>
      <trkpt lat="47.28849" lon="6.08988">
        <ele>380.1</ele>
        <time>2013-06-09T09:01:05.000Z</time>
      </trkpt>
      <trkpt lat="47.28848" lon="6.08986">
        <ele>379.8</ele>
        <time>2013-06-09T09:01:06.000Z</time>
      </trkpt>
      <trkpt lat="47.28846" lon="6.08981">
        <ele>379.7</ele>
        <time>2013-06-09T09:01:08.000Z</time>
      </trkpt>
      <trkpt lat="47.28845" lon="6.08979">
        <ele>379.7</ele>
        <time>2013-06-09T09:01:09.000Z</time>
      </trkpt>
      <trkpt lat="47.28843" lon="6.08975">
        <ele>379.7</ele>
        <time>2013-06-09T09:01:11.000Z</time>
      </trkpt>
      <trkpt lat="47.28842" lon="6.08973">
        <ele>379.5</ele>
        <time>2013-06-09T09:01:12.000Z</time>
      </trkpt>
      <trkpt lat="47.2884" lon="6.08969">
        <ele>379.5</ele>
        <time>2013-06-09T09:01:14.000Z</time>
      </trkpt>
      <trkpt lat="47.28839" lon="6.08967">
        <ele>379.5</ele>
        <time>2013-06-09T09:01:15.000Z</time>
      </trkpt>
      <trkpt lat="47.28836" lon="6.08961">
        <ele>379</ele>
        <time>2013-06-09T09:01:18.000Z</time>
      </trkpt>
      <trkpt lat="47.28835" lon="6.0896">
        <ele>378.8</ele>
        <time>2013-06-09T09:01:19.000Z</time>
      </trkpt>
      <trkpt lat="47.28832" lon="6.08954">
        <ele>378.1</ele>
        <time>2013-06-09T09:01:22.000Z</time>
      </trkpt>
      <trkpt lat="47.28832" lon="6.08953">
        <ele>378</ele>
        <time>2013-06-09T09:01:23.000Z</time>
      </trkpt>
      <trkpt lat="47.28829" lon="6.08948">
        <ele>377.8</ele>
        <time>2013-06-09T09:01:26.000Z</time>
      </trkpt>
      <trkpt lat="47.28828" lon="6.08946">
        <ele>377.7</ele>
        <time>2013-06-09T09:01:27.000Z</time>
      </trkpt>
      <trkpt lat="47.28826" lon="6.08942">
        <ele>377.5</ele>
        <time>2013-06-09T09:01:30.000Z</time>
      </trkpt>
      <trkpt lat="47.28825" lon="6.08941">
        <ele>377.2</ele>
        <time>2013-06-09T09:01:31.000Z</time>
      </trkpt>
      <trkpt lat="47.28821" lon="6.08936">
        <ele>377</ele>
        <time>2013-06-09T09:01:34.000Z</time>
      </trkpt>
      <trkpt lat="47.2882" lon="6.08935">
        <ele>376.7</ele>
        <time>2013-06-09T09:01:35.000Z</time>
      </trkpt>
      <trkpt lat="47.28817" lon="6.08931">
        <ele>375.5</ele>
        <time>2013-06-09T09:01:38.000Z</time>
      </trkpt>
      <trkpt lat="47.28816" lon="6.0893">
        <ele>375.1</ele>
        <time>2013-06-09T09:01:39.000Z</time>
      </trkpt>
      <trkpt lat="47.28814" lon="6.08927">
        <ele>374.7</ele>
        <time>2013-06-09T09:01:41.000Z</time>
      </trkpt>
      <trkpt lat="47.28813" lon="6.08925">
        <ele>374.7</ele>
        <time>2013-06-09T09:01:42.000Z</time>
      </trkpt>
      <trkpt lat="47.28809" lon="6.08921">
        <ele>375.2</ele>
        <time>2013-06-09T09:01:45.000Z</time>
      </trkpt>
      <trkpt lat="47.28808" lon="6.0892">
        <ele>375.3</ele>
        <time>2013-06-09T09:01:46.000Z</time>
      </trkpt>
      <trkpt lat="47.28804" lon="6.08916">
        <ele>375.8</ele>
        <time>2013-06-09T09:01:49.000Z</time>
      </trkpt>
      <trkpt lat="47.28803" lon="6.08915">
        <ele>375.9</ele>
        <time>2013-06-09T09:01:50.000Z</time>
      </trkpt>
      <trkpt lat="47.288" lon="6.08912">
        <ele>376.4</ele>
        <time>2013-06-09T09:01:53.000Z</time>
      </trkpt>
      <trkpt lat="47.28799" lon="6.08911">
        <ele>376.4</ele>
        <time>2013-06-09T09:01:54.000Z</time>
      </trkpt>
      <trkpt lat="47.28795" lon="6.08907">
        <ele>376.1</ele>
        <time>2013-06-09T09:01:57.000Z</time>
      </trkpt>
      <trkpt lat="47.28794" lon="6.08906">
        <ele>375.9</ele>
        <time>2013-06-09T09:01:58.000Z</time>
      </trkpt>
      <trkpt lat="47.2879" lon="6.08903">
        <ele>375.6</ele>
        <time>2013-06-09T09:02:01.000Z</time>
      </trkpt>
      <trkpt lat="47.28789" lon="6.08902">
        <ele>375.6</ele>
        <time>2013-06-09T09:02:02.000Z</time>
      </trkpt>
      <trkpt lat="47.28785" lon="6.08899">
        <ele>375.2</ele>
        <time>2013-06-09T09:02:05.000Z</time>
      </trkpt>
      <trkpt lat="47.28784" lon="6.08898">
        <ele>375</ele>
        <time>2013-06-09T09:02:06.000Z</time>
      </trkpt>
      <trkpt lat="47.28781" lon="6.08894">
        <ele>374.7</ele>
        <time>2013-06-09T09:02:09.000Z</time>
      </trkpt>
      <trkpt lat="47.2878" lon="6.08893">
        <ele>374.6</ele>
        <time>2013-06-09T09:02:10.000Z</time>
      </trkpt>
      <trkpt lat="47.28777" lon="6.08889">
        <ele>374.4</ele>
        <time>2013-06-09T09:02:13.000Z</time>
      </trkpt>
      <trkpt lat="47.28776" lon="6.08888">
        <ele>374.5</ele>
        <time>2013-06-09T09:02:14.000Z</time>
      </trkpt>
      <trkpt lat="47.28773" lon="6.08884">
        <ele>374.1</ele>
        <time>2013-06-09T09:02:17.000Z</time>
      </trkpt>
      <trkpt lat="47.28771" lon="6.08883">
        <ele>374</ele>
        <time>2013-06-09T09:02:18.000Z</time>
      </trkpt>
      <trkpt lat="47.28768" lon="6.08881">
        <ele>373.8</ele>
        <time>2013-06-09T09:02:21.000Z</time>
      </trkpt>
      <trkpt lat="47.28767" lon="6.0888">
        <ele>373.6</ele>
        <time>2013-06-09T09:02:22.000Z</time>
      </trkpt>
      <trkpt lat="47.28763" lon="6.08876">
        <ele>373.6</ele>
        <time>2013-06-09T09:02:25.000Z</time>
      </trkpt>
      <trkpt lat="47.28762" lon="6.08875">
        <ele>373.2</ele>
        <time>2013-06-09T09:02:26.000Z</time>
      </trkpt>
      <trkpt lat="47.28758" lon="6.08872">
        <ele>372.9</ele>
        <time>2013-06-09T09:02:29.000Z</time>
      </trkpt>
      <trkpt lat="47.28757" lon="6.08871">
        <ele>372.8</ele>
        <time>2013-06-09T09:02:30.000Z</time>
      </trkpt>
      <trkpt lat="47.28754" lon="6.08867">
        <ele>372.7</ele>
        <time>2013-06-09T09:02:33.000Z</time>
      </trkpt>
      <trkpt lat="47.28753" lon="6.08866">
        <ele>372.8</ele>
        <time>2013-06-09T09:02:34.000Z</time>
      </trkpt>
      <trkpt lat="47.28749" lon="6.08862">
        <ele>372.6</ele>
        <time>2013-06-09T09:02:37.000Z</time>
      </trkpt>
      <trkpt lat="47.28748" lon="6.08861">
        <ele>372.3</ele>
        <time>2013-06-09T09:02:38.000Z</time>
      </trkpt>
      <trkpt lat="47.28745" lon="6.08857">
        <ele>372.1</ele>
        <time>2013-06-09T09:02:41.000Z</time>
      </trkpt>
      <trkpt lat="47.28743" lon="6.08856">
        <ele>371.9</ele>
        <time>2013-06-09T09:02:42.000Z</time>
      </trkpt>
      <trkpt lat="47.2874" lon="6.08852">
        <ele>371</ele>
        <time>2013-06-09T09:02:45.000Z</time>
      </trkpt>
      <trkpt lat="47.28739" lon="6.08851">
        <ele>370.9</ele>
        <time>2013-06-09T09:02:46.000Z</time>
      </trkpt>
      <trkpt lat="47.28735" lon="6.08847">
        <ele>370.3</ele>
        <time>2013-06-09T09:02:49.000Z</time>
      </trkpt>
      <trkpt lat="47.28734" lon="6.08846">
        <ele>370</ele>
        <time>2013-06-09T09:02:50.000Z</time>
      </trkpt>
      <trkpt lat="47.2873" lon="6.08842">
        <ele>369.6</ele>
        <time>2013-06-09T09:02:53.000Z</time>
      </trkpt>
      <trkpt lat="47.28729" lon="6.08841">
        <ele>369.5</ele>
        <time>2013-06-09T09:02:54.000Z</time>
      </trkpt>
      <trkpt lat="47.28725" lon="6.08839">
        <ele>369.3</ele>
        <time>2013-06-09T09:02:57.000Z</time>
      </trkpt>
      <trkpt lat="47.28724" lon="6.08838">
        <ele>369.1</ele>
        <time>2013-06-09T09:02:58.000Z</time>
      </trkpt>
      <trkpt lat="47.2872" lon="6.08835">
        <ele>369</ele>
        <time>2013-06-09T09:03:01.000Z</time>
      </trkpt>
      <trkpt lat="47.28719" lon="6.08834">
        <ele>368.9</ele>
        <time>2013-06-09T09:03:02.000Z</time>
      </trkpt>
      <trkpt lat="47.28715" lon="6.08831">
        <ele>368.9</ele>
        <time>2013-06-09T09:03:05.000Z</time>
      </trkpt>
      <trkpt lat="47.28714" lon="6.08831">
        <ele>368.6</ele>
        <time>2013-06-09T09:03:06.000Z</time>
      </trkpt>
      <trkpt lat="47.2871" lon="6.08828">
        <ele>368.3</ele>
        <time>2013-06-09T09:03:09.000Z</time>
      </trkpt>
      <trkpt lat="47.28709" lon="6.08828">
        <ele>368.4</ele>
        <time>2013-06-09T09:03:10.000Z</time>
      </trkpt>
      <trkpt lat="47.28705" lon="6.08826">
        <ele>368.3</ele>
        <time>2013-06-09T09:03:13.000Z</time>
      </trkpt>
      <trkpt lat="47.28704" lon="6.08825">
        <ele>368.2</ele>
        <time>2013-06-09T09:03:14.000Z</time>
      </trkpt>
      <trkpt lat="47.287" lon="6.08823">
        <ele>368.1</ele>
        <time>2013-06-09T09:03:17.000Z</time>
      </trkpt>
      <trkpt lat="47.28699" lon="6.08822">
        <ele>368</ele>
        <time>2013-06-09T09:03:18.000Z</time>
      </trkpt>
      <trkpt lat="47.28695" lon="6.0882">
        <ele>367.7</ele>
        <time>2013-06-09T09:03:21.000Z</time>
      </trkpt>
      <trkpt lat="47.28694" lon="6.0882">
        <ele>367.6</ele>
        <time>2013-06-09T09:03:22.000Z</time>
      </trkpt>
      <trkpt lat="47.2869" lon="6.08818">
        <ele>367.4</ele>
        <time>2013-06-09T09:03:25.000Z</time>
      </trkpt>
      <trkpt lat="47.28688" lon="6.08817">
        <ele>367.3</ele>
        <time>2013-06-09T09:03:26.000Z</time>
      </trkpt>
      <trkpt lat="47.28684" lon="6.08816">
        <ele>367.3</ele>
        <time>2013-06-09T09:03:29.000Z</time>
      </trkpt>
      <trkpt lat="47.28683" lon="6.08815">
        <ele>367.3</ele>
        <time>2013-06-09T09:03:30.000Z</time>
      </trkpt>
      <trkpt lat="47.28679" lon="6.08813">
        <ele>367.3</ele>
        <time>2013-06-09T09:03:33.000Z</time>
      </trkpt>
      <trkpt lat="47.28678" lon="6.08813">
        <ele>367.3</ele>
        <time>2013-06-09T09:03:34.000Z</time>
      </trkpt>
      <trkpt lat="47.28674" lon="6.08811">
        <ele>367.2</ele>
        <time>2013-06-09T09:03:37.000Z</time>
      </trkpt>
      <trkpt lat="47.28672" lon="6.08811">
        <ele>367.1</ele>
        <time>2013-06-09T09:03:38.000Z</time>
      </trkpt>
      <trkpt lat="47.28668" lon="6.08809">
        <ele>366.6</ele>
        <time>2013-06-09T09:03:41.000Z</time>
      </trkpt>
      <trkpt lat="47.28667" lon="6.08808">
        <ele>366.5</ele>
        <time>2013-06-09T09:03:42.000Z</time>
      </trkpt>
      <trkpt lat="47.28663" lon="6.08807">
        <ele>366.2</ele>
        <time>2013-06-09T09:03:45.000Z</time>
      </trkpt>
      <trkpt lat="47.28662" lon="6.08806">
        <ele>366</ele>
        <time>2013-06-09T09:03:46.000Z</time>
      </trkpt>
      <trkpt lat="47.28658" lon="6.08804">
        <ele>365.6</ele>
        <time>2013-06-09T09:03:49.000Z</time>
      </trkpt>
      <trkpt lat="47.28656" lon="6.08803">
        <ele>365.1</ele>
        <time>2013-06-09T09:03:50.000Z</time>
      </trkpt>
      <trkpt lat="47.28652" lon="6.08801">
        <ele>364.6</ele>
        <time>2013-06-09T09:03:53.000Z</time>
      </trkpt>
      <trkpt lat="47.2865" lon="6.08801">
        <ele>364.7</ele>
        <time>2013-06-09T09:03:54.000Z</time>
      </trkpt>
      <trkpt lat="47.28646" lon="6.08799">
        <ele>364.9</ele>
        <time>2013-06-09T09:03:57.000Z</time>
      </trkpt>
      <trkpt lat="47.28645" lon="6.08799">
        <ele>364.8</ele>
        <time>2013-06-09T09:03:58.000Z</time>
      </trkpt>
      <trkpt lat="47.28641" lon="6.08798">
        <ele>364.7</ele>
        <time>2013-06-09T09:04:01.000Z</time>
      </trkpt>
      <trkpt lat="47.28639" lon="6.08797">
        <ele>364.7</ele>
        <time>2013-06-09T09:04:02.000Z</time>
      </trkpt>
      <trkpt lat="47.28636" lon="6.08796">
        <ele>364.7</ele>
        <time>2013-06-09T09:04:04.000Z</time>
      </trkpt>
      <trkpt lat="47.28634" lon="6.08795">
        <ele>364.8</ele>
        <time>2013-06-09T09:04:05.000Z</time>
      </trkpt>
      <trkpt lat="47.28631" lon="6.08795">
        <ele>364.8</ele>
        <time>2013-06-09T09:04:07.000Z</time>
      </trkpt>
      <trkpt lat="47.2863" lon="6.08795">
        <ele>364.8</ele>
        <time>2013-06-09T09:04:08.000Z</time>
      </trkpt>
      <trkpt lat="47.28625" lon="6.08794">
        <ele>364.8</ele>
        <time>2013-06-09T09:04:11.000Z</time>
      </trkpt>
      <trkpt lat="47.28624" lon="6.08794">
        <ele>364.8</ele>
        <time>2013-06-09T09:04:12.000Z</time>
      </trkpt>
      <trkpt lat="47.28619" lon="6.08793">
        <ele>364.7</ele>
        <time>2013-06-09T09:04:15.000Z</time>
      </trkpt>
      <trkpt lat="47.28618" lon="6.08793">
        <ele>364.7</ele>
        <time>2013-06-09T09:04:16.000Z</time>
      </trkpt>
      <trkpt lat="47.28614" lon="6.08792">
        <ele>364.3</ele>
        <time>2013-06-09T09:04:19.000Z</time>
      </trkpt>
      <trkpt lat="47.28612" lon="6.08792">
        <ele>364.3</ele>
        <time>2013-06-09T09:04:20.000Z</time>
      </trkpt>
      <trkpt lat="47.28608" lon="6.08791">
        <ele>364.3</ele>
        <time>2013-06-09T09:04:23.000Z</time>
      </trkpt>
      <trkpt lat="47.28607" lon="6.08791">
        <ele>364.3</ele>
        <time>2013-06-09T09:04:24.000Z</time>
      </trkpt>
      <trkpt lat="47.28603" lon="6.0879">
        <ele>364</ele>
        <time>2013-06-09T09:04:27.000Z</time>
      </trkpt>
      <trkpt lat="47.28601" lon="6.0879">
        <ele>364</ele>
        <time>2013-06-09T09:04:28.000Z</time>
      </trkpt>
      <trkpt lat="47.28597" lon="6.08789">
        <ele>363.7</ele>
        <time>2013-06-09T09:04:31.000Z</time>
      </trkpt>
      <trkpt lat="47.28595" lon="6.08789">
        <ele>363.7</ele>
        <time>2013-06-09T09:04:32.000Z</time>
      </trkpt>
      <trkpt lat="47.28592" lon="6.08788">
        <ele>363.6</ele>
        <time>2013-06-09T09:04:35.000Z</time>
      </trkpt>
      <trkpt lat="47.2859" lon="6.08788">
        <ele>363.7</ele>
        <time>2013-06-09T09:04:36.000Z</time>
      </trkpt>
      <trkpt lat="47.28586" lon="6.08787">
        <ele>363.8</ele>
        <time>2013-06-09T09:04:39.000Z</time>
      </trkpt>
      <trkpt lat="47.28585" lon="6.08787">
        <ele>363.8</ele>
        <time>2013-06-09T09:04:40.000Z</time>
      </trkpt>
      <trkpt lat="47.28581" lon="6.08785">
        <ele>364</ele>
        <time>2013-06-09T09:04:43.000Z</time>
      </trkpt>
      <trkpt lat="47.28579" lon="6.08784">
        <ele>364.6</ele>
        <time>2013-06-09T09:04:44.000Z</time>
      </trkpt>
      <trkpt lat="47.28575" lon="6.08782">
        <ele>364.8</ele>
        <time>2013-06-09T09:04:47.000Z</time>
      </trkpt>
      <trkpt lat="47.28574" lon="6.08781">
        <ele>364.8</ele>
        <time>2013-06-09T09:04:48.000Z</time>
      </trkpt>
      <trkpt lat="47.2857" lon="6.08778">
        <ele>365.1</ele>
        <time>2013-06-09T09:04:51.000Z</time>
      </trkpt>
      <trkpt lat="47.28569" lon="6.08777">
        <ele>365</ele>
        <time>2013-06-09T09:04:52.000Z</time>
      </trkpt>
      <trkpt lat="47.28566" lon="6.08775">
        <ele>365.1</ele>
        <time>2013-06-09T09:04:54.000Z</time>
      </trkpt>
      <trkpt lat="47.28565" lon="6.08774">
        <ele>365.2</ele>
        <time>2013-06-09T09:04:55.000Z</time>
      </trkpt>
      <trkpt lat="47.28563" lon="6.08771">
        <ele>365.4</ele>
        <time>2013-06-09T09:04:57.000Z</time>
      </trkpt>
      <trkpt lat="47.28561" lon="6.0877">
        <ele>365.4</ele>
        <time>2013-06-09T09:04:58.000Z</time>
      </trkpt>
      <trkpt lat="47.28559" lon="6.08767">
        <ele>365.6</ele>
        <time>2013-06-09T09:05:00.000Z</time>
      </trkpt>
      <trkpt lat="47.28557" lon="6.08766">
        <ele>365.7</ele>
        <time>2013-06-09T09:05:01.000Z</time>
      </trkpt>
      <trkpt lat="47.28555" lon="6.08764">
        <ele>365.8</ele>
        <time>2013-06-09T09:05:03.000Z</time>
      </trkpt>
      <trkpt lat="47.28553" lon="6.08763">
        <ele>365.9</ele>
        <time>2013-06-09T09:05:04.000Z</time>
      </trkpt>
      <trkpt lat="47.28549" lon="6.08759">
        <ele>365.8</ele>
        <time>2013-06-09T09:05:07.000Z</time>
      </trkpt>
      <trkpt lat="47.28548" lon="6.08758">
        <ele>365.9</ele>
        <time>2013-06-09T09:05:08.000Z</time>
      </trkpt>
      <trkpt lat="47.28545" lon="6.08756">
        <ele>365.9</ele>
        <time>2013-06-09T09:05:10.000Z</time>
      </trkpt>
      <trkpt lat="47.28544" lon="6.08755">
        <ele>366</ele>
        <time>2013-06-09T09:05:11.000Z</time>
      </trkpt>
      <trkpt lat="47.2854" lon="6.08752">
        <ele>366.1</ele>
        <time>2013-06-09T09:05:14.000Z</time>
      </trkpt>
      <trkpt lat="47.28539" lon="6.08751">
        <ele>366.1</ele>
        <time>2013-06-09T09:05:15.000Z</time>
      </trkpt>
      <trkpt lat="47.28536" lon="6.08747">
        <ele>366.2</ele>
        <time>2013-06-09T09:05:18.000Z</time>
      </trkpt>
      <trkpt lat="47.28534" lon="6.08747">
        <ele>366.3</ele>
        <time>2013-06-09T09:05:19.000Z</time>
      </trkpt>
      <trkpt lat="47.2853" lon="6.08745">
        <ele>366.5</ele>
        <time>2013-06-09T09:05:22.000Z</time>
      </trkpt>
      <trkpt lat="47.28529" lon="6.08744">
        <ele>366.6</ele>
        <time>2013-06-09T09:05:23.000Z</time>
      </trkpt>
      <trkpt lat="47.28525" lon="6.08742">
        <ele>366.5</ele>
        <time>2013-06-09T09:05:26.000Z</time>
      </trkpt>
      <trkpt lat="47.28524" lon="6.08742">
        <ele>366.6</ele>
        <time>2013-06-09T09:05:27.000Z</time>
      </trkpt>
      <trkpt lat="47.2852" lon="6.0874">
        <ele>366.6</ele>
        <time>2013-06-09T09:05:30.000Z</time>
      </trkpt>
      <trkpt lat="47.28519" lon="6.08739">
        <ele>366.7</ele>
        <time>2013-06-09T09:05:31.000Z</time>
      </trkpt>
      <trkpt lat="47.28514" lon="6.08738">
        <ele>366.7</ele>
        <time>2013-06-09T09:05:34.000Z</time>
      </trkpt>
      <trkpt lat="47.28513" lon="6.08737">
        <ele>366.6</ele>
        <time>2013-06-09T09:05:35.000Z</time>
      </trkpt>
      <trkpt lat="47.28509" lon="6.08735">
        <ele>366.8</ele>
        <time>2013-06-09T09:05:38.000Z</time>
      </trkpt>
      <trkpt lat="47.28507" lon="6.08734">
        <ele>366.8</ele>
        <time>2013-06-09T09:05:39.000Z</time>
      </trkpt>
      <trkpt lat="47.28503" lon="6.08731">
        <ele>366.6</ele>
        <time>2013-06-09T09:05:42.000Z</time>
      </trkpt>
      <trkpt lat="47.28502" lon="6.0873">
        <ele>366.5</ele>
        <time>2013-06-09T09:05:43.000Z</time>
      </trkpt>
      <trkpt lat="47.28498" lon="6.08727">
        <ele>366.2</ele>
        <time>2013-06-09T09:05:46.000Z</time>
      </trkpt>
      <trkpt lat="47.28497" lon="6.08726">
        <ele>366.1</ele>
        <time>2013-06-09T09:05:47.000Z</time>
      </trkpt>
      <trkpt lat="47.28493" lon="6.08723">
        <ele>366</ele>
        <time>2013-06-09T09:05:50.000Z</time>
      </trkpt>
      <trkpt lat="47.28492" lon="6.08722">
        <ele>365.9</ele>
        <time>2013-06-09T09:05:51.000Z</time>
      </trkpt>
      <trkpt lat="47.28489" lon="6.08719">
        <ele>365.8</ele>
        <time>2013-06-09T09:05:54.000Z</time>
      </trkpt>
      <trkpt lat="47.28487" lon="6.08719">
        <ele>365.7</ele>
        <time>2013-06-09T09:05:55.000Z</time>
      </trkpt>
      <trkpt lat="47.28484" lon="6.08716">
        <ele>365.7</ele>
        <time>2013-06-09T09:05:58.000Z</time>
      </trkpt>
      <trkpt lat="47.28482" lon="6.08715">
        <ele>365.6</ele>
        <time>2013-06-09T09:05:59.000Z</time>
      </trkpt>
      <trkpt lat="47.28479" lon="6.08713">
        <ele>365.8</ele>
        <time>2013-06-09T09:06:02.000Z</time>
      </trkpt>
      <trkpt lat="47.28478" lon="6.08712">
        <ele>365.7</ele>
        <time>2013-06-09T09:06:03.000Z</time>
      </trkpt>
      <trkpt lat="47.28474" lon="6.08709">
        <ele>365.8</ele>
        <time>2013-06-09T09:06:06.000Z</time>
      </trkpt>
      <trkpt lat="47.28473" lon="6.08708">
        <ele>365.7</ele>
        <time>2013-06-09T09:06:07.000Z</time>
      </trkpt>
      <trkpt lat="47.28471" lon="6.08707">
        <ele>365.6</ele>
        <time>2013-06-09T09:06:09.000Z</time>
      </trkpt>
      <trkpt lat="47.28468" lon="6.08705">
        <ele>365.5</ele>
        <time>2013-06-09T09:06:10.000Z</time>
      </trkpt>
      <trkpt lat="47.28465" lon="6.08702">
        <ele>365.7</ele>
        <time>2013-06-09T09:06:13.000Z</time>
      </trkpt>
      <trkpt lat="47.28464" lon="6.08701">
        <ele>365.9</ele>
        <time>2013-06-09T09:06:14.000Z</time>
      </trkpt>
      <trkpt lat="47.28461" lon="6.08698">
        <ele>365.9</ele>
        <time>2013-06-09T09:06:17.000Z</time>
      </trkpt>
      <trkpt lat="47.2846" lon="6.08696">
        <ele>365.9</ele>
        <time>2013-06-09T09:06:18.000Z</time>
      </trkpt>
      <trkpt lat="47.28457" lon="6.08693">
        <ele>365.6</ele>
        <time>2013-06-09T09:06:21.000Z</time>
      </trkpt>
      <trkpt lat="47.28456" lon="6.08691">
        <ele>365.5</ele>
        <time>2013-06-09T09:06:22.000Z</time>
      </trkpt>
      <trkpt lat="47.28453" lon="6.08687">
        <ele>365.4</ele>
        <time>2013-06-09T09:06:25.000Z</time>
      </trkpt>
      <trkpt lat="47.28452" lon="6.08685">
        <ele>365.3</ele>
        <time>2013-06-09T09:06:26.000Z</time>
      </trkpt>
      <trkpt lat="47.28448" lon="6.08681">
        <ele>365.2</ele>
        <time>2013-06-09T09:06:29.000Z</time>
      </trkpt>
      <trkpt lat="47.28447" lon="6.0868">
        <ele>365.3</ele>
        <time>2013-06-09T09:06:30.000Z</time>
      </trkpt>
      <trkpt lat="47.28444" lon="6.08676">
        <ele>365.1</ele>
        <time>2013-06-09T09:06:33.000Z</time>
      </trkpt>
      <trkpt lat="47.28443" lon="6.08674">
        <ele>364.7</ele>
        <time>2013-06-09T09:06:34.000Z</time>
      </trkpt>
      <trkpt lat="47.2844" lon="6.08671">
        <ele>364.1</ele>
        <time>2013-06-09T09:06:37.000Z</time>
      </trkpt>
      <trkpt lat="47.28438" lon="6.0867">
        <ele>364.1</ele>
        <time>2013-06-09T09:06:38.000Z</time>
      </trkpt>
      <trkpt lat="47.28435" lon="6.08666">
        <ele>364.2</ele>
        <time>2013-06-09T09:06:41.000Z</time>
      </trkpt>
      <trkpt lat="47.28434" lon="6.08665">
        <ele>364.3</ele>
        <time>2013-06-09T09:06:42.000Z</time>
      </trkpt>
      <trkpt lat="47.28432" lon="6.08661">
        <ele>364.2</ele>
        <time>2013-06-09T09:06:45.000Z</time>
      </trkpt>
      <trkpt lat="47.28431" lon="6.08659">
        <ele>364.1</ele>
        <time>2013-06-09T09:06:46.000Z</time>
      </trkpt>
      <trkpt lat="47.28428" lon="6.08655">
        <ele>364</ele>
        <time>2013-06-09T09:06:49.000Z</time>
      </trkpt>
      <trkpt lat="47.28427" lon="6.08653">
        <ele>364.1</ele>
        <time>2013-06-09T09:06:50.000Z</time>
      </trkpt>
      <trkpt lat="47.28425" lon="6.08649">
        <ele>363.6</ele>
        <time>2013-06-09T09:06:53.000Z</time>
      </trkpt>
      <trkpt lat="47.28424" lon="6.08647">
        <ele>363.7</ele>
        <time>2013-06-09T09:06:54.000Z</time>
      </trkpt>
      <trkpt lat="47.28422" lon="6.08642">
        <ele>363.2</ele>
        <time>2013-06-09T09:06:57.000Z</time>
      </trkpt>
      <trkpt lat="47.28421" lon="6.08641">
        <ele>363.2</ele>
        <time>2013-06-09T09:06:58.000Z</time>
      </trkpt>
      <trkpt lat="47.2842" lon="6.08636">
        <ele>363</ele>
        <time>2013-06-09T09:07:01.000Z</time>
      </trkpt>
      <trkpt lat="47.28419" lon="6.08634">
        <ele>363</ele>
        <time>2013-06-09T09:07:02.000Z</time>
      </trkpt>
      <trkpt lat="47.28417" lon="6.0863">
        <ele>362.7</ele>
        <time>2013-06-09T09:07:05.000Z</time>
      </trkpt>
      <trkpt lat="47.28416" lon="6.08628">
        <ele>362.5</ele>
        <time>2013-06-09T09:07:06.000Z</time>
      </trkpt>
      <trkpt lat="47.28415" lon="6.08623">
        <ele>362.4</ele>
        <time>2013-06-09T09:07:09.000Z</time>
      </trkpt>
      <trkpt lat="47.28414" lon="6.08621">
        <ele>362.4</ele>
        <time>2013-06-09T09:07:10.000Z</time>
      </trkpt>
      <trkpt lat="47.28413" lon="6.08616">
        <ele>362.3</ele>
        <time>2013-06-09T09:07:13.000Z</time>
      </trkpt>
      <trkpt lat="47.28412" lon="6.08614">
        <ele>362.1</ele>
        <time>2013-06-09T09:07:14.000Z</time>
      </trkpt>
      <trkpt lat="47.28411" lon="6.08608">
        <ele>361.7</ele>
        <time>2013-06-09T09:07:17.000Z</time>
      </trkpt>
      <trkpt lat="47.28411" lon="6.08606">
        <ele>361.7</ele>
        <time>2013-06-09T09:07:18.000Z</time>
      </trkpt>
      <trkpt lat="47.2841" lon="6.08601">
        <ele>361.8</ele>
        <time>2013-06-09T09:07:21.000Z</time>
      </trkpt>
      <trkpt lat="47.28409" lon="6.08599">
        <ele>361.5</ele>
        <time>2013-06-09T09:07:22.000Z</time>
      </trkpt>
      <trkpt lat="47.28408" lon="6.08593">
        <ele>361.8</ele>
        <time>2013-06-09T09:07:25.000Z</time>
      </trkpt>
      <trkpt lat="47.28408" lon="6.08591">
        <ele>361.9</ele>
        <time>2013-06-09T09:07:26.000Z</time>
      </trkpt>
      <trkpt lat="47.28406" lon="6.08585">
        <ele>361.6</ele>
        <time>2013-06-09T09:07:29.000Z</time>
      </trkpt>
      <trkpt lat="47.28405" lon="6.08583">
        <ele>361.6</ele>
        <time>2013-06-09T09:07:30.000Z</time>
      </trkpt>
      <trkpt lat="47.28403" lon="6.08578">
        <ele>361.3</ele>
        <time>2013-06-09T09:07:33.000Z</time>
      </trkpt>
      <trkpt lat="47.28402" lon="6.08576">
        <ele>361.1</ele>
        <time>2013-06-09T09:07:34.000Z</time>
      </trkpt>
      <trkpt lat="47.28401" lon="6.0857">
        <ele>360.4</ele>
        <time>2013-06-09T09:07:37.000Z</time>
      </trkpt>
      <trkpt lat="47.284" lon="6.08568">
        <ele>360.2</ele>
        <time>2013-06-09T09:07:38.000Z</time>
      </trkpt>
      <trkpt lat="47.28399" lon="6.08563">
        <ele>359.7</ele>
        <time>2013-06-09T09:07:40.000Z</time>
      </trkpt>
      <trkpt lat="47.28399" lon="6.08561">
        <ele>359.6</ele>
        <time>2013-06-09T09:07:41.000Z</time>
      </trkpt>
      <trkpt lat="47.28397" lon="6.08556">
        <ele>359.2</ele>
        <time>2013-06-09T09:07:44.000Z</time>
      </trkpt>
      <trkpt lat="47.28396" lon="6.08554">
        <ele>359</ele>
        <time>2013-06-09T09:07:45.000Z</time>
      </trkpt>
      <trkpt lat="47.28394" lon="6.0855">
        <ele>357.9</ele>
        <time>2013-06-09T09:07:47.000Z</time>
      </trkpt>
      <trkpt lat="47.28393" lon="6.08548">
        <ele>357.4</ele>
        <time>2013-06-09T09:07:48.000Z</time>
      </trkpt>
      <trkpt lat="47.28392" lon="6.08544">
        <ele>356.9</ele>
        <time>2013-06-09T09:07:50.000Z</time>
      </trkpt>
      <trkpt lat="47.28391" lon="6.08541">
        <ele>356.4</ele>
        <time>2013-06-09T09:07:51.000Z</time>
      </trkpt>
      <trkpt lat="47.2839" lon="6.08537">
        <ele>355.7</ele>
        <time>2013-06-09T09:07:53.000Z</time>
      </trkpt>
      <trkpt lat="47.28389" lon="6.08534">
        <ele>355.4</ele>
        <time>2013-06-09T09:07:54.000Z</time>
      </trkpt>
      <trkpt lat="47.28388" lon="6.0853">
        <ele>354.7</ele>
        <time>2013-06-09T09:07:56.000Z</time>
      </trkpt>
      <trkpt lat="47.28387" lon="6.08528">
        <ele>354.3</ele>
        <time>2013-06-09T09:07:57.000Z</time>
      </trkpt>
      <trkpt lat="47.28386" lon="6.08524">
        <ele>353.9</ele>
        <time>2013-06-09T09:07:59.000Z</time>
      </trkpt>
      <trkpt lat="47.28385" lon="6.08522">
        <ele>353.8</ele>
        <time>2013-06-09T09:08:00.000Z</time>
      </trkpt>
      <trkpt lat="47.28384" lon="6.08517">
        <ele>353.5</ele>
        <time>2013-06-09T09:08:02.000Z</time>
      </trkpt>
      <trkpt lat="47.28384" lon="6.08515">
        <ele>353.2</ele>
        <time>2013-06-09T09:08:03.000Z</time>
      </trkpt>
      <trkpt lat="47.28382" lon="6.08509">
        <ele>352.7</ele>
        <time>2013-06-09T09:08:06.000Z</time>
      </trkpt>
      <trkpt lat="47.28382" lon="6.08507">
        <ele>352.7</ele>
        <time>2013-06-09T09:08:07.000Z</time>
      </trkpt>
      <trkpt lat="47.28382" lon="6.085">
        <ele>353.1</ele>
        <time>2013-06-09T09:08:10.000Z</time>
      </trkpt>
      <trkpt lat="47.28382" lon="6.08498">
        <ele>353.2</ele>
        <time>2013-06-09T09:08:11.000Z</time>
      </trkpt>
      <trkpt lat="47.28381" lon="6.08492">
        <ele>353.1</ele>
        <time>2013-06-09T09:08:14.000Z</time>
      </trkpt>
      <trkpt lat="47.28381" lon="6.0849">
        <ele>353.4</ele>
        <time>2013-06-09T09:08:15.000Z</time>
      </trkpt>
      <trkpt lat="47.2838" lon="6.08484">
        <ele>353.3</ele>
        <time>2013-06-09T09:08:18.000Z</time>
      </trkpt>
      <trkpt lat="47.2838" lon="6.08482">
        <ele>353.1</ele>
        <time>2013-06-09T09:08:19.000Z</time>
      </trkpt>
      <trkpt lat="47.2838" lon="6.08476">
        <ele>352.8</ele>
        <time>2013-06-09T09:08:22.000Z</time>
      </trkpt>
      <trkpt lat="47.2838" lon="6.08473">
        <ele>352.6</ele>
        <time>2013-06-09T09:08:23.000Z</time>
      </trkpt>
      <trkpt lat="47.2838" lon="6.08467">
        <ele>351.9</ele>
        <time>2013-06-09T09:08:26.000Z</time>
      </trkpt>
      <trkpt lat="47.2838" lon="6.08465">
        <ele>351.7</ele>
        <time>2013-06-09T09:08:27.000Z</time>
      </trkpt>
      <trkpt lat="47.2838" lon="6.08459">
        <ele>351.1</ele>
        <time>2013-06-09T09:08:30.000Z</time>
      </trkpt>
      <trkpt lat="47.2838" lon="6.08457">
        <ele>351.1</ele>
        <time>2013-06-09T09:08:31.000Z</time>
      </trkpt>
      <trkpt lat="47.28381" lon="6.0845">
        <ele>350.1</ele>
        <time>2013-06-09T09:08:34.000Z</time>
      </trkpt>
      <trkpt lat="47.28381" lon="6.08448">
        <ele>349.9</ele>
        <time>2013-06-09T09:08:35.000Z</time>
      </trkpt>
      <trkpt lat="47.28381" lon="6.08441">
        <ele>349.2</ele>
        <time>2013-06-09T09:08:38.000Z</time>
      </trkpt>
      <trkpt lat="47.28381" lon="6.08439">
        <ele>349.3</ele>
        <time>2013-06-09T09:08:39.000Z</time>
      </trkpt>
      <trkpt lat="47.28381" lon="6.08433">
        <ele>349.3</ele>
        <time>2013-06-09T09:08:42.000Z</time>
      </trkpt>
      <trkpt lat="47.28381" lon="6.08431">
        <ele>349.3</ele>
        <time>2013-06-09T09:08:43.000Z</time>
      </trkpt>
      <trkpt lat="47.28381" lon="6.08426">
        <ele>348.7</ele>
        <time>2013-06-09T09:08:46.000Z</time>
      </trkpt>
      <trkpt lat="47.28381" lon="6.08424">
        <ele>348.3</ele>
        <time>2013-06-09T09:08:47.000Z</time>
      </trkpt>
      <trkpt lat="47.28382" lon="6.08418">
        <ele>347.9</ele>
        <time>2013-06-09T09:08:50.000Z</time>
      </trkpt>
      <trkpt lat="47.28382" lon="6.08417">
        <ele>347.8</ele>
        <time>2013-06-09T09:08:51.000Z</time>
      </trkpt>
      <trkpt lat="47.28382" lon="6.08411">
        <ele>347.1</ele>
        <time>2013-06-09T09:08:54.000Z</time>
      </trkpt>
      <trkpt lat="47.28382" lon="6.08409">
        <ele>346.9</ele>
        <time>2013-06-09T09:08:55.000Z</time>
      </trkpt>
      <trkpt lat="47.28383" lon="6.08404">
        <ele>346.2</ele>
        <time>2013-06-09T09:08:58.000Z</time>
      </trkpt>
      <trkpt lat="47.28383" lon="6.08402">
        <ele>346.2</ele>
        <time>2013-06-09T09:08:59.000Z</time>
      </trkpt>
      <trkpt lat="47.28383" lon="6.08397">
        <ele>345.6</ele>
        <time>2013-06-09T09:09:02.000Z</time>
      </trkpt>
      <trkpt lat="47.28383" lon="6.08396">
        <ele>345.4</ele>
        <time>2013-06-09T09:09:03.000Z</time>
      </trkpt>
      <trkpt lat="47.28383" lon="6.0839">
        <ele>344.4</ele>
        <time>2013-06-09T09:09:07.000Z</time>
      </trkpt>
      <trkpt lat="47.28383" lon="6.08389">
        <ele>344.1</ele>
        <time>2013-06-09T09:09:08.000Z</time>
      </trkpt>
      <trkpt lat="47.28381" lon="6.08384">
        <ele>343.3</ele>
        <time>2013-06-09T09:09:11.000Z</time>
      </trkpt>
      <trkpt lat="47.28381" lon="6.08382">
        <ele>342.7</ele>
        <time>2013-06-09T09:09:12.000Z</time>
      </trkpt>
      <trkpt lat="47.2838" lon="6.08376">
        <ele>342</ele>
        <time>2013-06-09T09:09:15.000Z</time>
      </trkpt>
      <trkpt lat="47.2838" lon="6.08374">
        <ele>341.9</ele>
        <time>2013-06-09T09:09:16.000Z</time>
      </trkpt>
      <trkpt lat="47.28381" lon="6.08368">
        <ele>341.1</ele>
        <time>2013-06-09T09:09:19.000Z</time>
      </trkpt>
      <trkpt lat="47.28381" lon="6.08366">
        <ele>341</ele>
        <time>2013-06-09T09:09:20.000Z</time>
      </trkpt>
      <trkpt lat="47.28381" lon="6.0836">
        <ele>340.5</ele>
        <time>2013-06-09T09:09:23.000Z</time>
      </trkpt>
      <trkpt lat="47.28381" lon="6.08358">
        <ele>340.2</ele>
        <time>2013-06-09T09:09:24.000Z</time>
      </trkpt>
      <trkpt lat="47.28381" lon="6.08352">
        <ele>339.9</ele>
        <time>2013-06-09T09:09:27.000Z</time>
      </trkpt>
      <trkpt lat="47.28382" lon="6.08351">
        <ele>339.7</ele>
        <time>2013-06-09T09:09:28.000Z</time>
      </trkpt>
      <trkpt lat="47.28382" lon="6.08345">
        <ele>339.3</ele>
        <time>2013-06-09T09:09:31.000Z</time>
      </trkpt>
      <trkpt lat="47.28383" lon="6.08343">
        <ele>339.2</ele>
        <time>2013-06-09T09:09:32.000Z</time>
      </trkpt>
      <trkpt lat="47.28383" lon="6.08338">
        <ele>339</ele>
        <time>2013-06-09T09:09:35.000Z</time>
      </trkpt>
      <trkpt lat="47.28384" lon="6.08336">
        <ele>338.9</ele>
        <time>2013-06-09T09:09:36.000Z</time>
      </trkpt>
      <trkpt lat="47.28385" lon="6.0833">
        <ele>338.6</ele>
        <time>2013-06-09T09:09:39.000Z</time>
      </trkpt>
      <trkpt lat="47.28385" lon="6.08328">
        <ele>338.6</ele>
        <time>2013-06-09T09:09:40.000Z</time>
      </trkpt>
      <trkpt lat="47.28386" lon="6.08322">
        <ele>338.4</ele>
        <time>2013-06-09T09:09:43.000Z</time>
      </trkpt>
      <trkpt lat="47.28386" lon="6.0832">
        <ele>338.3</ele>
        <time>2013-06-09T09:09:44.000Z</time>
      </trkpt>
      <trkpt lat="47.28387" lon="6.08314">
        <ele>337.8</ele>
        <time>2013-06-09T09:09:47.000Z</time>
      </trkpt>
      <trkpt lat="47.28387" lon="6.08312">
        <ele>337.8</ele>
        <time>2013-06-09T09:09:48.000Z</time>
      </trkpt>
      <trkpt lat="47.28388" lon="6.08306">
        <ele>337.2</ele>
        <time>2013-06-09T09:09:51.000Z</time>
      </trkpt>
      <trkpt lat="47.28388" lon="6.08304">
        <ele>337.2</ele>
        <time>2013-06-09T09:09:52.000Z</time>
      </trkpt>
      <trkpt lat="47.28388" lon="6.08298">
        <ele>336.7</ele>
        <time>2013-06-09T09:09:55.000Z</time>
      </trkpt>
      <trkpt lat="47.28388" lon="6.08296">
        <ele>336.5</ele>
        <time>2013-06-09T09:09:56.000Z</time>
      </trkpt>
      <trkpt lat="47.28389" lon="6.08291">
        <ele>336</ele>
        <time>2013-06-09T09:09:58.000Z</time>
      </trkpt>
      <trkpt lat="47.28389" lon="6.08289">
        <ele>335.6</ele>
        <time>2013-06-09T09:09:59.000Z</time>
      </trkpt>
      <trkpt lat="47.2839" lon="6.08283">
        <ele>335</ele>
        <time>2013-06-09T09:10:02.000Z</time>
      </trkpt>
      <trkpt lat="47.2839" lon="6.08281">
        <ele>334.8</ele>
        <time>2013-06-09T09:10:03.000Z</time>
      </trkpt>
      <trkpt lat="47.28391" lon="6.08274">
        <ele>334.1</ele>
        <time>2013-06-09T09:10:06.000Z</time>
      </trkpt>
      <trkpt lat="47.28391" lon="6.08272">
        <ele>334</ele>
        <time>2013-06-09T09:10:07.000Z</time>
      </trkpt>
      <trkpt lat="47.28392" lon="6.08266">
        <ele>333.5</ele>
        <time>2013-06-09T09:10:10.000Z</time>
      </trkpt>
      <trkpt lat="47.28392" lon="6.08264">
        <ele>333.4</ele>
        <time>2013-06-09T09:10:11.000Z</time>
      </trkpt>
      <trkpt lat="47.28393" lon="6.08258">
        <ele>333.6</ele>
        <time>2013-06-09T09:10:14.000Z</time>
      </trkpt>
      <trkpt lat="47.28394" lon="6.08256">
        <ele>333.6</ele>
        <time>2013-06-09T09:10:15.000Z</time>
      </trkpt>
      <trkpt lat="47.28395" lon="6.0825">
        <ele>333.5</ele>
        <time>2013-06-09T09:10:18.000Z</time>
      </trkpt>
      <trkpt lat="47.28395" lon="6.08248">
        <ele>333.4</ele>
        <time>2013-06-09T09:10:19.000Z</time>
      </trkpt>
      <trkpt lat="47.28396" lon="6.08242">
        <ele>333.3</ele>
        <time>2013-06-09T09:10:22.000Z</time>
      </trkpt>
      <trkpt lat="47.28397" lon="6.0824">
        <ele>333.3</ele>
        <time>2013-06-09T09:10:23.000Z</time>
      </trkpt>
      <trkpt lat="47.28398" lon="6.08236">
        <ele>333.3</ele>
        <time>2013-06-09T09:10:25.000Z</time>
      </trkpt>
      <trkpt lat="47.28399" lon="6.08233">
        <ele>333.4</ele>
        <time>2013-06-09T09:10:26.000Z</time>
      </trkpt>
      <trkpt lat="47.284" lon="6.0823">
        <ele>333.3</ele>
        <time>2013-06-09T09:10:28.000Z</time>
      </trkpt>
      <trkpt lat="47.28401" lon="6.08228">
        <ele>333.3</ele>
        <time>2013-06-09T09:10:29.000Z</time>
      </trkpt>
      <trkpt lat="47.28403" lon="6.08224">
        <ele>333.3</ele>
        <time>2013-06-09T09:10:31.000Z</time>
      </trkpt>
      <trkpt lat="47.28404" lon="6.08222">
        <ele>333.3</ele>
        <time>2013-06-09T09:10:32.000Z</time>
      </trkpt>
      <trkpt lat="47.28406" lon="6.08219">
        <ele>333.1</ele>
        <time>2013-06-09T09:10:34.000Z</time>
      </trkpt>
      <trkpt lat="47.28407" lon="6.08217">
        <ele>333.1</ele>
        <time>2013-06-09T09:10:35.000Z</time>
      </trkpt>
      <trkpt lat="47.28409" lon="6.08214">
        <ele>333</ele>
        <time>2013-06-09T09:10:37.000Z</time>
      </trkpt>
      <trkpt lat="47.2841" lon="6.08212">
        <ele>332.9</ele>
        <time>2013-06-09T09:10:38.000Z</time>
      </trkpt>
      <trkpt lat="47.28412" lon="6.08207">
        <ele>332.7</ele>
        <time>2013-06-09T09:10:41.000Z</time>
      </trkpt>
      <trkpt lat="47.28413" lon="6.08206">
        <ele>332.6</ele>
        <time>2013-06-09T09:10:42.000Z</time>
      </trkpt>
      <trkpt lat="47.28415" lon="6.08202">
        <ele>332</ele>
        <time>2013-06-09T09:10:44.000Z</time>
      </trkpt>
      <trkpt lat="47.28416" lon="6.082">
        <ele>331.8</ele>
        <time>2013-06-09T09:10:45.000Z</time>
      </trkpt>
      <trkpt lat="47.28419" lon="6.08195">
        <ele>331.4</ele>
        <time>2013-06-09T09:10:48.000Z</time>
      </trkpt>
      <trkpt lat="47.2842" lon="6.08194">
        <ele>331.4</ele>
        <time>2013-06-09T09:10:49.000Z</time>
      </trkpt>
      <trkpt lat="47.28423" lon="6.08189">
        <ele>330.4</ele>
        <time>2013-06-09T09:10:52.000Z</time>
      </trkpt>
      <trkpt lat="47.28424" lon="6.08187">
        <ele>330.1</ele>
        <time>2013-06-09T09:10:53.000Z</time>
      </trkpt>
      <trkpt lat="47.28426" lon="6.08182">
        <ele>329.7</ele>
        <time>2013-06-09T09:10:56.000Z</time>
      </trkpt>
      <trkpt lat="47.28427" lon="6.08181">
        <ele>329.6</ele>
        <time>2013-06-09T09:10:57.000Z</time>
      </trkpt>
      <trkpt lat="47.2843" lon="6.08176">
        <ele>329.2</ele>
        <time>2013-06-09T09:11:00.000Z</time>
      </trkpt>
      <trkpt lat="47.2843" lon="6.08174">
        <ele>329.1</ele>
        <time>2013-06-09T09:11:01.000Z</time>
      </trkpt>
      <trkpt lat="47.28433" lon="6.0817">
        <ele>328.6</ele>
        <time>2013-06-09T09:11:04.000Z</time>
      </trkpt>
      <trkpt lat="47.28434" lon="6.08168">
        <ele>328.5</ele>
        <time>2013-06-09T09:11:05.000Z</time>
      </trkpt>
      <trkpt lat="47.28437" lon="6.08163">
        <ele>328.1</ele>
        <time>2013-06-09T09:11:08.000Z</time>
      </trkpt>
      <trkpt lat="47.28437" lon="6.08162">
        <ele>328</ele>
        <time>2013-06-09T09:11:09.000Z</time>
      </trkpt>
      <trkpt lat="47.28439" lon="6.08158">
        <ele>328</ele>
        <time>2013-06-09T09:11:11.000Z</time>
      </trkpt>
      <trkpt lat="47.2844" lon="6.08156">
        <ele>328</ele>
        <time>2013-06-09T09:11:12.000Z</time>
      </trkpt>
      <trkpt lat="47.28442" lon="6.08151">
        <ele>327.9</ele>
        <time>2013-06-09T09:11:15.000Z</time>
      </trkpt>
      <trkpt lat="47.28443" lon="6.08149">
        <ele>327.8</ele>
        <time>2013-06-09T09:11:16.000Z</time>
      </trkpt>
      <trkpt lat="47.28445" lon="6.08144">
        <ele>327</ele>
        <time>2013-06-09T09:11:19.000Z</time>
      </trkpt>
      <trkpt lat="47.28445" lon="6.08142">
        <ele>326.9</ele>
        <time>2013-06-09T09:11:20.000Z</time>
      </trkpt>
      <trkpt lat="47.28448" lon="6.08137">
        <ele>326.8</ele>
        <time>2013-06-09T09:11:23.000Z</time>
      </trkpt>
      <trkpt lat="47.28449" lon="6.08135">
        <ele>327</ele>
        <time>2013-06-09T09:11:24.000Z</time>
      </trkpt>
      <trkpt lat="47.28452" lon="6.0813">
        <ele>327</ele>
        <time>2013-06-09T09:11:27.000Z</time>
      </trkpt>
      <trkpt lat="47.28453" lon="6.08128">
        <ele>327</ele>
        <time>2013-06-09T09:11:28.000Z</time>
      </trkpt>
      <trkpt lat="47.28455" lon="6.08123">
        <ele>327.1</ele>
        <time>2013-06-09T09:11:31.000Z</time>
      </trkpt>
      <trkpt lat="47.28456" lon="6.08122">
        <ele>327.3</ele>
        <time>2013-06-09T09:11:32.000Z</time>
      </trkpt>
      <trkpt lat="47.28459" lon="6.08117">
        <ele>326.9</ele>
        <time>2013-06-09T09:11:35.000Z</time>
      </trkpt>
      <trkpt lat="47.2846" lon="6.08115">
        <ele>326.7</ele>
        <time>2013-06-09T09:11:36.000Z</time>
      </trkpt>
      <trkpt lat="47.28464" lon="6.08112">
        <ele>326.7</ele>
        <time>2013-06-09T09:11:39.000Z</time>
      </trkpt>
      <trkpt lat="47.28465" lon="6.08112">
        <ele>326.7</ele>
        <time>2013-06-09T09:11:40.000Z</time>
      </trkpt>
      <trkpt lat="47.28469" lon="6.08111">
        <ele>326.8</ele>
        <time>2013-06-09T09:11:43.000Z</time>
      </trkpt>
      <trkpt lat="47.28471" lon="6.08111">
        <ele>326.7</ele>
        <time>2013-06-09T09:11:44.000Z</time>
      </trkpt>
      <trkpt lat="47.28474" lon="6.08111">
        <ele>326.6</ele>
        <time>2013-06-09T09:11:46.000Z</time>
      </trkpt>
      <trkpt lat="47.28475" lon="6.08111">
        <ele>326.6</ele>
        <time>2013-06-09T09:11:47.000Z</time>
      </trkpt>
      <trkpt lat="47.28479" lon="6.08111">
        <ele>326.5</ele>
        <time>2013-06-09T09:11:50.000Z</time>
      </trkpt>
      <trkpt lat="47.28481" lon="6.08111">
        <ele>326.5</ele>
        <time>2013-06-09T09:11:51.000Z</time>
      </trkpt>
      <trkpt lat="47.28485" lon="6.08111">
        <ele>326.6</ele>
        <time>2013-06-09T09:11:54.000Z</time>
      </trkpt>
      <trkpt lat="47.28486" lon="6.08111">
        <ele>326.8</ele>
        <time>2013-06-09T09:11:55.000Z</time>
      </trkpt>
      <trkpt lat="47.28491" lon="6.08111">
        <ele>327.2</ele>
        <time>2013-06-09T09:11:58.000Z</time>
      </trkpt>
      <trkpt lat="47.28492" lon="6.08111">
        <ele>327.2</ele>
        <time>2013-06-09T09:11:59.000Z</time>
      </trkpt>
      <trkpt lat="47.28496" lon="6.08111">
        <ele>327.7</ele>
        <time>2013-06-09T09:12:02.000Z</time>
      </trkpt>
      <trkpt lat="47.28497" lon="6.08111">
        <ele>327.7</ele>
        <time>2013-06-09T09:12:03.000Z</time>
      </trkpt>
      <trkpt lat="47.28501" lon="6.0811">
        <ele>327.7</ele>
        <time>2013-06-09T09:12:07.000Z</time>
      </trkpt>
      <trkpt lat="47.28501" lon="6.0811">
        <ele>327.6</ele>
        <time>2013-06-09T09:12:08.000Z</time>
      </trkpt>
      <trkpt lat="47.28504" lon="6.08105">
        <ele>327.4</ele>
        <time>2013-06-09T09:12:16.000Z</time>
      </trkpt>
      <trkpt lat="47.28504" lon="6.08104">
        <ele>327.4</ele>
        <time>2013-06-09T09:12:17.000Z</time>
      </trkpt>
      <trkpt lat="47.28504" lon="6.0811">
        <ele>324.5</ele>
        <time>2013-06-09T09:19:52.000Z</time>
      </trkpt>
      <trkpt lat="47.28503" lon="6.08111">
        <ele>324.5</ele>
        <time>2013-06-09T09:19:53.000Z</time>
      </trkpt>
      <trkpt lat="47.28502" lon="6.08104">
        <ele>324.6</ele>
        <time>2013-06-09T09:20:04.000Z</time>
      </trkpt>
      <trkpt lat="47.28502" lon="6.08104">
        <ele>324.6</ele>
        <time>2013-06-09T09:20:05.000Z</time>
      </trkpt>
      <trkpt lat="47.28507" lon="6.08104">
        <ele>324.6</ele>
        <time>2013-06-09T09:20:29.000Z</time>
      </trkpt>
      <trkpt lat="47.28507" lon="6.08105">
        <ele>324.8</ele>
        <time>2013-06-09T09:20:30.000Z</time>
      </trkpt>
      <trkpt lat="47.2851" lon="6.08107">
        <ele>326.2</ele>
        <time>2013-06-09T09:21:16.000Z</time>
      </trkpt>
      <trkpt lat="47.28511" lon="6.08109">
        <ele>326.4</ele>
        <time>2013-06-09T09:21:17.000Z</time>
      </trkpt>
      <trkpt lat="47.28513" lon="6.08113">
        <ele>326.8</ele>
        <time>2013-06-09T09:21:20.000Z</time>
      </trkpt>
      <trkpt lat="47.28513" lon="6.08115">
        <ele>326.8</ele>
        <time>2013-06-09T09:21:21.000Z</time>
      </trkpt>
      <trkpt lat="47.28516" lon="6.0812">
        <ele>326.8</ele>
        <time>2013-06-09T09:21:25.000Z</time>
      </trkpt>
      <trkpt lat="47.28517" lon="6.0812">
        <ele>326.9</ele>
        <time>2013-06-09T09:21:26.000Z</time>
      </trkpt>
      <trkpt lat="47.28521" lon="6.08119">
        <ele>326.9</ele>
        <time>2013-06-09T09:22:02.000Z</time>
      </trkpt>
      <trkpt lat="47.28522" lon="6.08118">
        <ele>326.9</ele>
        <time>2013-06-09T09:22:03.000Z</time>
      </trkpt>
      <trkpt lat="47.28525" lon="6.08123">
        <ele>325.3</ele>
        <time>2013-06-09T09:22:10.000Z</time>
      </trkpt>
      <trkpt lat="47.28525" lon="6.08124">
        <ele>325.4</ele>
        <time>2013-06-09T09:22:11.000Z</time>
      </trkpt>
      <trkpt lat="47.28527" lon="6.0813">
        <ele>325.7</ele>
        <time>2013-06-09T09:22:15.000Z</time>
      </trkpt>
      <trkpt lat="47.28528" lon="6.08131">
        <ele>325.8</ele>
        <time>2013-06-09T09:22:16.000Z</time>
      </trkpt>
      <trkpt lat="47.2853" lon="6.08136">
        <ele>326.3</ele>
        <time>2013-06-09T09:22:20.000Z</time>
      </trkpt>
      <trkpt lat="47.2853" lon="6.08138">
        <ele>326.4</ele>
        <time>2013-06-09T09:22:21.000Z</time>
      </trkpt>
      <trkpt lat="47.28532" lon="6.08142">
        <ele>326.8</ele>
        <time>2013-06-09T09:22:24.000Z</time>
      </trkpt>
      <trkpt lat="47.28533" lon="6.08144">
        <ele>326.9</ele>
        <time>2013-06-09T09:22:25.000Z</time>
      </trkpt>
      <trkpt lat="47.28535" lon="6.08149">
        <ele>327</ele>
        <time>2013-06-09T09:22:28.000Z</time>
      </trkpt>
      <trkpt lat="47.28535" lon="6.08151">
        <ele>327</ele>
        <time>2013-06-09T09:22:29.000Z</time>
      </trkpt>
      <trkpt lat="47.28537" lon="6.08156">
        <ele>327.3</ele>
        <time>2013-06-09T09:22:32.000Z</time>
      </trkpt>
      <trkpt lat="47.28537" lon="6.08157">
        <ele>327.5</ele>
        <time>2013-06-09T09:22:33.000Z</time>
      </trkpt>
      <trkpt lat="47.28538" lon="6.08163">
        <ele>327.7</ele>
        <time>2013-06-09T09:22:36.000Z</time>
      </trkpt>
      <trkpt lat="47.28538" lon="6.08164">
        <ele>327.9</ele>
        <time>2013-06-09T09:22:37.000Z</time>
      </trkpt>
      <trkpt lat="47.28539" lon="6.08169">
        <ele>328.3</ele>
        <time>2013-06-09T09:22:40.000Z</time>
      </trkpt>
      <trkpt lat="47.2854" lon="6.08171">
        <ele>328.8</ele>
        <time>2013-06-09T09:22:41.000Z</time>
      </trkpt>
      <trkpt lat="47.28541" lon="6.08176">
        <ele>329</ele>
        <time>2013-06-09T09:22:44.000Z</time>
      </trkpt>
      <trkpt lat="47.28542" lon="6.08177">
        <ele>329</ele>
        <time>2013-06-09T09:22:45.000Z</time>
      </trkpt>
      <trkpt lat="47.28544" lon="6.08181">
        <ele>328.9</ele>
        <time>2013-06-09T09:22:48.000Z</time>
      </trkpt>
      <trkpt lat="47.28545" lon="6.08183">
        <ele>328.9</ele>
        <time>2013-06-09T09:22:49.000Z</time>
      </trkpt>
      <trkpt lat="47.28547" lon="6.08186">
        <ele>328.9</ele>
        <time>2013-06-09T09:22:52.000Z</time>
      </trkpt>
      <trkpt lat="47.28548" lon="6.08187">
        <ele>328.9</ele>
        <time>2013-06-09T09:22:53.000Z</time>
      </trkpt>
      <trkpt lat="47.28551" lon="6.08192">
        <ele>328.6</ele>
        <time>2013-06-09T09:22:57.000Z</time>
      </trkpt>
      <trkpt lat="47.28552" lon="6.08193">
        <ele>328.7</ele>
        <time>2013-06-09T09:22:58.000Z</time>
      </trkpt>
      <trkpt lat="47.28555" lon="6.08196">
        <ele>329.4</ele>
        <time>2013-06-09T09:23:01.000Z</time>
      </trkpt>
      <trkpt lat="47.28556" lon="6.08197">
        <ele>329.6</ele>
        <time>2013-06-09T09:23:02.000Z</time>
      </trkpt>
      <trkpt lat="47.28559" lon="6.08201">
        <ele>329.9</ele>
        <time>2013-06-09T09:23:05.000Z</time>
      </trkpt>
      <trkpt lat="47.2856" lon="6.08202">
        <ele>330</ele>
        <time>2013-06-09T09:23:06.000Z</time>
      </trkpt>
      <trkpt lat="47.28562" lon="6.08205">
        <ele>330.9</ele>
        <time>2013-06-09T09:23:09.000Z</time>
      </trkpt>
      <trkpt lat="47.28563" lon="6.08206">
        <ele>331.4</ele>
        <time>2013-06-09T09:23:10.000Z</time>
      </trkpt>
      <trkpt lat="47.28566" lon="6.0821">
        <ele>331.9</ele>
        <time>2013-06-09T09:23:13.000Z</time>
      </trkpt>
      <trkpt lat="47.28567" lon="6.08211">
        <ele>332.2</ele>
        <time>2013-06-09T09:23:14.000Z</time>
      </trkpt>
      <trkpt lat="47.2857" lon="6.08214">
        <ele>333.1</ele>
        <time>2013-06-09T09:23:17.000Z</time>
      </trkpt>
      <trkpt lat="47.28571" lon="6.08215">
        <ele>333.5</ele>
        <time>2013-06-09T09:23:18.000Z</time>
      </trkpt>
      <trkpt lat="47.28574" lon="6.08218">
        <ele>334.2</ele>
        <time>2013-06-09T09:23:21.000Z</time>
      </trkpt>
      <trkpt lat="47.28575" lon="6.08219">
        <ele>334.5</ele>
        <time>2013-06-09T09:23:22.000Z</time>
      </trkpt>
      <trkpt lat="47.28578" lon="6.08222">
        <ele>334.5</ele>
        <time>2013-06-09T09:23:25.000Z</time>
      </trkpt>
      <trkpt lat="47.28579" lon="6.08223">
        <ele>334.5</ele>
        <time>2013-06-09T09:23:26.000Z</time>
      </trkpt>
      <trkpt lat="47.28582" lon="6.08227">
        <ele>334.8</ele>
        <time>2013-06-09T09:23:30.000Z</time>
      </trkpt>
      <trkpt lat="47.28583" lon="6.08228">
        <ele>334.9</ele>
        <time>2013-06-09T09:23:31.000Z</time>
      </trkpt>
      <trkpt lat="47.28587" lon="6.08232">
        <ele>335.8</ele>
        <time>2013-06-09T09:23:35.000Z</time>
      </trkpt>
      <trkpt lat="47.28588" lon="6.08233">
        <ele>336</ele>
        <time>2013-06-09T09:23:36.000Z</time>
      </trkpt>
      <trkpt lat="47.28591" lon="6.08235">
        <ele>336.5</ele>
        <time>2013-06-09T09:23:39.000Z</time>
      </trkpt>
      <trkpt lat="47.28592" lon="6.08236">
        <ele>336.8</ele>
        <time>2013-06-09T09:23:40.000Z</time>
      </trkpt>
      <trkpt lat="47.28595" lon="6.08239">
        <ele>337.5</ele>
        <time>2013-06-09T09:23:43.000Z</time>
      </trkpt>
      <trkpt lat="47.28597" lon="6.0824">
        <ele>337.7</ele>
        <time>2013-06-09T09:23:44.000Z</time>
      </trkpt>
      <trkpt lat="47.286" lon="6.08242">
        <ele>337.9</ele>
        <time>2013-06-09T09:23:47.000Z</time>
      </trkpt>
      <trkpt lat="47.28602" lon="6.08243">
        <ele>337.9</ele>
        <time>2013-06-09T09:23:48.000Z</time>
      </trkpt>
      <trkpt lat="47.28605" lon="6.08245">
        <ele>337.8</ele>
        <time>2013-06-09T09:23:51.000Z</time>
      </trkpt>
      <trkpt lat="47.28606" lon="6.08246">
        <ele>337.9</ele>
        <time>2013-06-09T09:23:52.000Z</time>
      </trkpt>
      <trkpt lat="47.2861" lon="6.08249">
        <ele>338.4</ele>
        <time>2013-06-09T09:23:55.000Z</time>
      </trkpt>
      <trkpt lat="47.28611" lon="6.08249">
        <ele>338.7</ele>
        <time>2013-06-09T09:23:56.000Z</time>
      </trkpt>
      <trkpt lat="47.28615" lon="6.08251">
        <ele>339.2</ele>
        <time>2013-06-09T09:23:59.000Z</time>
      </trkpt>
      <trkpt lat="47.28616" lon="6.08252">
        <ele>339.4</ele>
        <time>2013-06-09T09:24:00.000Z</time>
      </trkpt>
      <trkpt lat="47.2862" lon="6.08255">
        <ele>340.8</ele>
        <time>2013-06-09T09:24:03.000Z</time>
      </trkpt>
      <trkpt lat="47.28621" lon="6.08255">
        <ele>341.5</ele>
        <time>2013-06-09T09:24:04.000Z</time>
      </trkpt>
      <trkpt lat="47.28625" lon="6.08257">
        <ele>342.9</ele>
        <time>2013-06-09T09:24:07.000Z</time>
      </trkpt>
      <trkpt lat="47.28626" lon="6.08258">
        <ele>343.3</ele>
        <time>2013-06-09T09:24:08.000Z</time>
      </trkpt>
      <trkpt lat="47.2863" lon="6.0826">
        <ele>344.1</ele>
        <time>2013-06-09T09:24:11.000Z</time>
      </trkpt>
      <trkpt lat="47.28631" lon="6.0826">
        <ele>344.4</ele>
        <time>2013-06-09T09:24:12.000Z</time>
      </trkpt>
      <trkpt lat="47.28635" lon="6.08262">
        <ele>345.1</ele>
        <time>2013-06-09T09:24:15.000Z</time>
      </trkpt>
      <trkpt lat="47.28636" lon="6.08263">
        <ele>345.4</ele>
        <time>2013-06-09T09:24:16.000Z</time>
      </trkpt>
      <trkpt lat="47.28639" lon="6.08265">
        <ele>346.5</ele>
        <time>2013-06-09T09:24:19.000Z</time>
      </trkpt>
      <trkpt lat="47.28641" lon="6.08265">
        <ele>346.8</ele>
        <time>2013-06-09T09:24:20.000Z</time>
      </trkpt>
      <trkpt lat="47.28644" lon="6.08268">
        <ele>347.1</ele>
        <time>2013-06-09T09:24:23.000Z</time>
      </trkpt>
      <trkpt lat="47.28645" lon="6.08268">
        <ele>347.2</ele>
        <time>2013-06-09T09:24:24.000Z</time>
      </trkpt>
      <trkpt lat="47.28648" lon="6.08271">
        <ele>347.1</ele>
        <time>2013-06-09T09:24:27.000Z</time>
      </trkpt>
      <trkpt lat="47.28649" lon="6.08271">
        <ele>347.2</ele>
        <time>2013-06-09T09:24:28.000Z</time>
      </trkpt>
      <trkpt lat="47.28653" lon="6.08274">
        <ele>347.4</ele>
        <time>2013-06-09T09:24:31.000Z</time>
      </trkpt>
      <trkpt lat="47.28654" lon="6.08275">
        <ele>347.5</ele>
        <time>2013-06-09T09:24:32.000Z</time>
      </trkpt>
      <trkpt lat="47.28658" lon="6.08277">
        <ele>347.4</ele>
        <time>2013-06-09T09:24:35.000Z</time>
      </trkpt>
      <trkpt lat="47.28659" lon="6.08278">
        <ele>347.4</ele>
        <time>2013-06-09T09:24:36.000Z</time>
      </trkpt>
      <trkpt lat="47.28662" lon="6.0828">
        <ele>347.2</ele>
        <time>2013-06-09T09:24:39.000Z</time>
      </trkpt>
      <trkpt lat="47.28663" lon="6.08281">
        <ele>347.2</ele>
        <time>2013-06-09T09:24:40.000Z</time>
      </trkpt>
      <trkpt lat="47.28667" lon="6.08283">
        <ele>347.3</ele>
        <time>2013-06-09T09:24:43.000Z</time>
      </trkpt>
      <trkpt lat="47.28668" lon="6.08284">
        <ele>347.3</ele>
        <time>2013-06-09T09:24:44.000Z</time>
      </trkpt>
      <trkpt lat="47.28672" lon="6.08286">
        <ele>347.4</ele>
        <time>2013-06-09T09:24:47.000Z</time>
      </trkpt>
      <trkpt lat="47.28673" lon="6.08287">
        <ele>347.6</ele>
        <time>2013-06-09T09:24:48.000Z</time>
      </trkpt>
      <trkpt lat="47.28676" lon="6.08289">
        <ele>348.2</ele>
        <time>2013-06-09T09:24:51.000Z</time>
      </trkpt>
      <trkpt lat="47.28677" lon="6.0829">
        <ele>348.4</ele>
        <time>2013-06-09T09:24:52.000Z</time>
      </trkpt>
      <trkpt lat="47.28681" lon="6.08292">
        <ele>348.9</ele>
        <time>2013-06-09T09:24:55.000Z</time>
      </trkpt>
      <trkpt lat="47.28682" lon="6.08293">
        <ele>349.1</ele>
        <time>2013-06-09T09:24:56.000Z</time>
      </trkpt>
      <trkpt lat="47.28685" lon="6.08296">
        <ele>349.9</ele>
        <time>2013-06-09T09:24:59.000Z</time>
      </trkpt>
      <trkpt lat="47.28686" lon="6.08296">
        <ele>350.1</ele>
        <time>2013-06-09T09:25:00.000Z</time>
      </trkpt>
      <trkpt lat="47.28689" lon="6.08298">
        <ele>350.4</ele>
        <time>2013-06-09T09:25:03.000Z</time>
      </trkpt>
      <trkpt lat="47.28691" lon="6.08299">
        <ele>350.5</ele>
        <time>2013-06-09T09:25:04.000Z</time>
      </trkpt>
      <trkpt lat="47.28694" lon="6.08302">
        <ele>350.6</ele>
        <time>2013-06-09T09:25:07.000Z</time>
      </trkpt>
      <trkpt lat="47.28695" lon="6.08303">
        <ele>350.7</ele>
        <time>2013-06-09T09:25:08.000Z</time>
      </trkpt>
      <trkpt lat="47.28698" lon="6.08306">
        <ele>350.9</ele>
        <time>2013-06-09T09:25:11.000Z</time>
      </trkpt>
      <trkpt lat="47.28699" lon="6.08307">
        <ele>351</ele>
        <time>2013-06-09T09:25:12.000Z</time>
      </trkpt>
      <trkpt lat="47.28703" lon="6.08309">
        <ele>351.1</ele>
        <time>2013-06-09T09:25:15.000Z</time>
      </trkpt>
      <trkpt lat="47.28704" lon="6.0831">
        <ele>351</ele>
        <time>2013-06-09T09:25:16.000Z</time>
      </trkpt>
      <trkpt lat="47.28707" lon="6.08313">
        <ele>350.8</ele>
        <time>2013-06-09T09:25:19.000Z</time>
      </trkpt>
      <trkpt lat="47.28708" lon="6.08314">
        <ele>350.9</ele>
        <time>2013-06-09T09:25:20.000Z</time>
      </trkpt>
      <trkpt lat="47.28712" lon="6.08316">
        <ele>351.6</ele>
        <time>2013-06-09T09:25:23.000Z</time>
      </trkpt>
      <trkpt lat="47.28713" lon="6.08317">
        <ele>352</ele>
        <time>2013-06-09T09:25:24.000Z</time>
      </trkpt>
      <trkpt lat="47.28716" lon="6.08319">
        <ele>352.4</ele>
        <time>2013-06-09T09:25:27.000Z</time>
      </trkpt>
      <trkpt lat="47.28717" lon="6.0832">
        <ele>352.4</ele>
        <time>2013-06-09T09:25:28.000Z</time>
      </trkpt>
      <trkpt lat="47.28721" lon="6.08321">
        <ele>352.6</ele>
        <time>2013-06-09T09:25:31.000Z</time>
      </trkpt>
      <trkpt lat="47.28722" lon="6.08322">
        <ele>352.5</ele>
        <time>2013-06-09T09:25:32.000Z</time>
      </trkpt>
      <trkpt lat="47.28725" lon="6.08324">
        <ele>352.4</ele>
        <time>2013-06-09T09:25:35.000Z</time>
      </trkpt>
      <trkpt lat="47.28727" lon="6.08325">
        <ele>352.3</ele>
        <time>2013-06-09T09:25:36.000Z</time>
      </trkpt>
      <trkpt lat="47.2873" lon="6.08327">
        <ele>352.1</ele>
        <time>2013-06-09T09:25:39.000Z</time>
      </trkpt>
      <trkpt lat="47.28731" lon="6.08328">
        <ele>352.1</ele>
        <time>2013-06-09T09:25:40.000Z</time>
      </trkpt>
      <trkpt lat="47.28735" lon="6.0833">
        <ele>352.8</ele>
        <time>2013-06-09T09:25:43.000Z</time>
      </trkpt>
      <trkpt lat="47.28736" lon="6.08331">
        <ele>353</ele>
        <time>2013-06-09T09:25:44.000Z</time>
      </trkpt>
      <trkpt lat="47.2874" lon="6.08333">
        <ele>353.4</ele>
        <time>2013-06-09T09:25:47.000Z</time>
      </trkpt>
      <trkpt lat="47.28741" lon="6.08334">
        <ele>353.5</ele>
        <time>2013-06-09T09:25:48.000Z</time>
      </trkpt>
      <trkpt lat="47.28744" lon="6.08336">
        <ele>353.9</ele>
        <time>2013-06-09T09:25:51.000Z</time>
      </trkpt>
      <trkpt lat="47.28745" lon="6.08336">
        <ele>353.9</ele>
        <time>2013-06-09T09:25:52.000Z</time>
      </trkpt>
      <trkpt lat="47.28749" lon="6.08338">
        <ele>354</ele>
        <time>2013-06-09T09:25:55.000Z</time>
      </trkpt>
      <trkpt lat="47.2875" lon="6.08339">
        <ele>354.1</ele>
        <time>2013-06-09T09:25:56.000Z</time>
      </trkpt>
      <trkpt lat="47.28753" lon="6.0834">
        <ele>355</ele>
        <time>2013-06-09T09:25:59.000Z</time>
      </trkpt>
      <trkpt lat="47.28755" lon="6.08341">
        <ele>355.5</ele>
        <time>2013-06-09T09:26:00.000Z</time>
      </trkpt>
      <trkpt lat="47.28758" lon="6.08342">
        <ele>356.3</ele>
        <time>2013-06-09T09:26:03.000Z</time>
      </trkpt>
      <trkpt lat="47.28759" lon="6.08343">
        <ele>356.6</ele>
        <time>2013-06-09T09:26:04.000Z</time>
      </trkpt>
      <trkpt lat="47.28763" lon="6.08344">
        <ele>357.5</ele>
        <time>2013-06-09T09:26:07.000Z</time>
      </trkpt>
      <trkpt lat="47.28764" lon="6.08344">
        <ele>357.8</ele>
        <time>2013-06-09T09:26:08.000Z</time>
      </trkpt>
      <trkpt lat="47.28768" lon="6.08346">
        <ele>357.9</ele>
        <time>2013-06-09T09:26:11.000Z</time>
      </trkpt>
      <trkpt lat="47.28769" lon="6.08347">
        <ele>357.9</ele>
        <time>2013-06-09T09:26:12.000Z</time>
      </trkpt>
      <trkpt lat="47.28772" lon="6.08349">
        <ele>358.1</ele>
        <time>2013-06-09T09:26:15.000Z</time>
      </trkpt>
      <trkpt lat="47.28773" lon="6.08349">
        <ele>358.2</ele>
        <time>2013-06-09T09:26:16.000Z</time>
      </trkpt>
      <trkpt lat="47.28777" lon="6.08351">
        <ele>358.3</ele>
        <time>2013-06-09T09:26:19.000Z</time>
      </trkpt>
      <trkpt lat="47.28778" lon="6.08351">
        <ele>358.4</ele>
        <time>2013-06-09T09:26:20.000Z</time>
      </trkpt>
      <trkpt lat="47.28781" lon="6.08352">
        <ele>358.8</ele>
        <time>2013-06-09T09:26:23.000Z</time>
      </trkpt>
      <trkpt lat="47.28782" lon="6.08352">
        <ele>359</ele>
        <time>2013-06-09T09:26:24.000Z</time>
      </trkpt>
      <trkpt lat="47.28786" lon="6.08353">
        <ele>359.6</ele>
        <time>2013-06-09T09:26:27.000Z</time>
      </trkpt>
      <trkpt lat="47.28787" lon="6.08353">
        <ele>359.9</ele>
        <time>2013-06-09T09:26:28.000Z</time>
      </trkpt>
      <trkpt lat="47.28791" lon="6.08355">
        <ele>360</ele>
        <time>2013-06-09T09:26:31.000Z</time>
      </trkpt>
      <trkpt lat="47.28792" lon="6.08355">
        <ele>360.3</ele>
        <time>2013-06-09T09:26:32.000Z</time>
      </trkpt>
      <trkpt lat="47.28796" lon="6.08357">
        <ele>360.9</ele>
        <time>2013-06-09T09:26:35.000Z</time>
      </trkpt>
      <trkpt lat="47.28797" lon="6.08357">
        <ele>361.6</ele>
        <time>2013-06-09T09:26:36.000Z</time>
      </trkpt>
      <trkpt lat="47.288" lon="6.08359">
        <ele>362.2</ele>
        <time>2013-06-09T09:26:39.000Z</time>
      </trkpt>
      <trkpt lat="47.28802" lon="6.0836">
        <ele>362.2</ele>
        <time>2013-06-09T09:26:40.000Z</time>
      </trkpt>
      <trkpt lat="47.28806" lon="6.08361">
        <ele>362.7</ele>
        <time>2013-06-09T09:26:43.000Z</time>
      </trkpt>
      <trkpt lat="47.28807" lon="6.08361">
        <ele>362.9</ele>
        <time>2013-06-09T09:26:44.000Z</time>
      </trkpt>
      <trkpt lat="47.28811" lon="6.08361">
        <ele>364</ele>
        <time>2013-06-09T09:26:47.000Z</time>
      </trkpt>
      <trkpt lat="47.28812" lon="6.08361">
        <ele>364.3</ele>
        <time>2013-06-09T09:26:48.000Z</time>
      </trkpt>
      <trkpt lat="47.28816" lon="6.08359">
        <ele>365.3</ele>
        <time>2013-06-09T09:26:51.000Z</time>
      </trkpt>
      <trkpt lat="47.28818" lon="6.08359">
        <ele>365.5</ele>
        <time>2013-06-09T09:26:52.000Z</time>
      </trkpt>
      <trkpt lat="47.28821" lon="6.08357">
        <ele>366.4</ele>
        <time>2013-06-09T09:26:55.000Z</time>
      </trkpt>
      <trkpt lat="47.28823" lon="6.08356">
        <ele>366.6</ele>
        <time>2013-06-09T09:26:56.000Z</time>
      </trkpt>
      <trkpt lat="47.28826" lon="6.08355">
        <ele>367.5</ele>
        <time>2013-06-09T09:26:59.000Z</time>
      </trkpt>
      <trkpt lat="47.28828" lon="6.08355">
        <ele>367.6</ele>
        <time>2013-06-09T09:27:00.000Z</time>
      </trkpt>
      <trkpt lat="47.28831" lon="6.08354">
        <ele>368.4</ele>
        <time>2013-06-09T09:27:03.000Z</time>
      </trkpt>
      <trkpt lat="47.28833" lon="6.08354">
        <ele>368.5</ele>
        <time>2013-06-09T09:27:04.000Z</time>
      </trkpt>
      <trkpt lat="47.28837" lon="6.08353">
        <ele>368.9</ele>
        <time>2013-06-09T09:27:07.000Z</time>
      </trkpt>
      <trkpt lat="47.28838" lon="6.08353">
        <ele>368.9</ele>
        <time>2013-06-09T09:27:08.000Z</time>
      </trkpt>
      <trkpt lat="47.28842" lon="6.08352">
        <ele>368.5</ele>
        <time>2013-06-09T09:27:11.000Z</time>
      </trkpt>
      <trkpt lat="47.28843" lon="6.08351">
        <ele>368.6</ele>
        <time>2013-06-09T09:27:12.000Z</time>
      </trkpt>
      <trkpt lat="47.28847" lon="6.08351">
        <ele>368.8</ele>
        <time>2013-06-09T09:27:15.000Z</time>
      </trkpt>
      <trkpt lat="47.28848" lon="6.0835">
        <ele>368.9</ele>
        <time>2013-06-09T09:27:16.000Z</time>
      </trkpt>
      <trkpt lat="47.28852" lon="6.0835">
        <ele>369.1</ele>
        <time>2013-06-09T09:27:19.000Z</time>
      </trkpt>
      <trkpt lat="47.28853" lon="6.0835">
        <ele>369.2</ele>
        <time>2013-06-09T09:27:20.000Z</time>
      </trkpt>
      <trkpt lat="47.28857" lon="6.08351">
        <ele>370.1</ele>
        <time>2013-06-09T09:27:23.000Z</time>
      </trkpt>
      <trkpt lat="47.28858" lon="6.08351">
        <ele>370.3</ele>
        <time>2013-06-09T09:27:24.000Z</time>
      </trkpt>
      <trkpt lat="47.28862" lon="6.08353">
        <ele>370.5</ele>
        <time>2013-06-09T09:27:27.000Z</time>
      </trkpt>
      <trkpt lat="47.28863" lon="6.08355">
        <ele>370.7</ele>
        <time>2013-06-09T09:27:28.000Z</time>
      </trkpt>
      <trkpt lat="47.28866" lon="6.08358">
        <ele>370.7</ele>
        <time>2013-06-09T09:27:31.000Z</time>
      </trkpt>
      <trkpt lat="47.28867" lon="6.0836">
        <ele>370.8</ele>
        <time>2013-06-09T09:27:32.000Z</time>
      </trkpt>
      <trkpt lat="47.28869" lon="6.08364">
        <ele>371.2</ele>
        <time>2013-06-09T09:27:35.000Z</time>
      </trkpt>
      <trkpt lat="47.2887" lon="6.08366">
        <ele>371.3</ele>
        <time>2013-06-09T09:27:36.000Z</time>
      </trkpt>
      <trkpt lat="47.2887" lon="6.08371">
        <ele>371.7</ele>
        <time>2013-06-09T09:27:39.000Z</time>
      </trkpt>
      <trkpt lat="47.2887" lon="6.08373">
        <ele>371.8</ele>
        <time>2013-06-09T09:27:40.000Z</time>
      </trkpt>
      <trkpt lat="47.28868" lon="6.08378">
        <ele>372.2</ele>
        <time>2013-06-09T09:27:43.000Z</time>
      </trkpt>
      <trkpt lat="47.28868" lon="6.0838">
        <ele>372.1</ele>
        <time>2013-06-09T09:27:44.000Z</time>
      </trkpt>
      <trkpt lat="47.28866" lon="6.08384">
        <ele>372.1</ele>
        <time>2013-06-09T09:27:47.000Z</time>
      </trkpt>
      <trkpt lat="47.28865" lon="6.08386">
        <ele>372</ele>
        <time>2013-06-09T09:27:48.000Z</time>
      </trkpt>
      <trkpt lat="47.28863" lon="6.0839">
        <ele>372</ele>
        <time>2013-06-09T09:27:51.000Z</time>
      </trkpt>
      <trkpt lat="47.28862" lon="6.08392">
        <ele>372.1</ele>
        <time>2013-06-09T09:27:52.000Z</time>
      </trkpt>
      <trkpt lat="47.28859" lon="6.08395">
        <ele>371.9</ele>
        <time>2013-06-09T09:27:55.000Z</time>
      </trkpt>
      <trkpt lat="47.28858" lon="6.08396">
        <ele>372.1</ele>
        <time>2013-06-09T09:27:56.000Z</time>
      </trkpt>
      <trkpt lat="47.28855" lon="6.084">
        <ele>372.4</ele>
        <time>2013-06-09T09:28:00.000Z</time>
      </trkpt>
      <trkpt lat="47.28855" lon="6.08401">
        <ele>372.3</ele>
        <time>2013-06-09T09:28:01.000Z</time>
      </trkpt>
      <trkpt lat="47.28852" lon="6.08405">
        <ele>372</ele>
        <time>2013-06-09T09:28:05.000Z</time>
      </trkpt>
      <trkpt lat="47.28851" lon="6.08405">
        <ele>372</ele>
        <time>2013-06-09T09:28:06.000Z</time>
      </trkpt>
      <trkpt lat="47.28847" lon="6.08408">
        <ele>372</ele>
        <time>2013-06-09T09:28:10.000Z</time>
      </trkpt>
      <trkpt lat="47.28846" lon="6.08408">
        <ele>372.1</ele>
        <time>2013-06-09T09:28:11.000Z</time>
      </trkpt>
      <trkpt lat="47.28842" lon="6.08411">
        <ele>372.5</ele>
        <time>2013-06-09T09:28:15.000Z</time>
      </trkpt>
      <trkpt lat="47.28841" lon="6.08412">
        <ele>372.6</ele>
        <time>2013-06-09T09:28:16.000Z</time>
      </trkpt>
      <trkpt lat="47.28838" lon="6.08416">
        <ele>373</ele>
        <time>2013-06-09T09:28:20.000Z</time>
      </trkpt>
      <trkpt lat="47.28837" lon="6.08417">
        <ele>373</ele>
        <time>2013-06-09T09:28:21.000Z</time>
      </trkpt>
      <trkpt lat="47.28833" lon="6.08419">
        <ele>373.1</ele>
        <time>2013-06-09T09:28:25.000Z</time>
      </trkpt>
      <trkpt lat="47.28833" lon="6.0842">
        <ele>373.1</ele>
        <time>2013-06-09T09:28:26.000Z</time>
      </trkpt>
      <trkpt lat="47.28828" lon="6.08422">
        <ele>373.4</ele>
        <time>2013-06-09T09:28:30.000Z</time>
      </trkpt>
      <trkpt lat="47.28827" lon="6.08422">
        <ele>373.5</ele>
        <time>2013-06-09T09:28:31.000Z</time>
      </trkpt>
      <trkpt lat="47.28823" lon="6.08422">
        <ele>373.8</ele>
        <time>2013-06-09T09:28:34.000Z</time>
      </trkpt>
      <trkpt lat="47.28822" lon="6.08422">
        <ele>374.1</ele>
        <time>2013-06-09T09:28:35.000Z</time>
      </trkpt>
      <trkpt lat="47.28818" lon="6.08422">
        <ele>373.9</ele>
        <time>2013-06-09T09:28:38.000Z</time>
      </trkpt>
      <trkpt lat="47.28816" lon="6.08421">
        <ele>374</ele>
        <time>2013-06-09T09:28:39.000Z</time>
      </trkpt>
      <trkpt lat="47.28813" lon="6.0842">
        <ele>374.3</ele>
        <time>2013-06-09T09:28:41.000Z</time>
      </trkpt>
      <trkpt lat="47.28812" lon="6.08419">
        <ele>374.3</ele>
        <time>2013-06-09T09:28:42.000Z</time>
      </trkpt>
      <trkpt lat="47.28808" lon="6.08418">
        <ele>374.5</ele>
        <time>2013-06-09T09:28:44.000Z</time>
      </trkpt>
      <trkpt lat="47.28806" lon="6.08417">
        <ele>374.6</ele>
        <time>2013-06-09T09:28:45.000Z</time>
      </trkpt>
      <trkpt lat="47.28803" lon="6.08416">
        <ele>374.8</ele>
        <time>2013-06-09T09:28:47.000Z</time>
      </trkpt>
      <trkpt lat="47.28801" lon="6.08416">
        <ele>374.9</ele>
        <time>2013-06-09T09:28:48.000Z</time>
      </trkpt>
      <trkpt lat="47.28797" lon="6.08414">
        <ele>375.4</ele>
        <time>2013-06-09T09:28:50.000Z</time>
      </trkpt>
      <trkpt lat="47.28795" lon="6.08414">
        <ele>375.4</ele>
        <time>2013-06-09T09:28:51.000Z</time>
      </trkpt>
      <trkpt lat="47.28792" lon="6.08412">
        <ele>376</ele>
        <time>2013-06-09T09:28:53.000Z</time>
      </trkpt>
      <trkpt lat="47.2879" lon="6.08411">
        <ele>376.2</ele>
        <time>2013-06-09T09:28:54.000Z</time>
      </trkpt>
      <trkpt lat="47.28787" lon="6.0841">
        <ele>376.2</ele>
        <time>2013-06-09T09:28:56.000Z</time>
      </trkpt>
      <trkpt lat="47.28785" lon="6.08409">
        <ele>376.2</ele>
        <time>2013-06-09T09:28:57.000Z</time>
      </trkpt>
      <trkpt lat="47.28782" lon="6.08408">
        <ele>376.5</ele>
        <time>2013-06-09T09:28:59.000Z</time>
      </trkpt>
      <trkpt lat="47.2878" lon="6.08408">
        <ele>376.7</ele>
        <time>2013-06-09T09:29:00.000Z</time>
      </trkpt>
      <trkpt lat="47.28776" lon="6.08407">
        <ele>377.2</ele>
        <time>2013-06-09T09:29:03.000Z</time>
      </trkpt>
      <trkpt lat="47.28775" lon="6.08407">
        <ele>377.6</ele>
        <time>2013-06-09T09:29:04.000Z</time>
      </trkpt>
      <trkpt lat="47.28771" lon="6.08407">
        <ele>378.1</ele>
        <time>2013-06-09T09:29:07.000Z</time>
      </trkpt>
      <trkpt lat="47.28769" lon="6.08407">
        <ele>377.9</ele>
        <time>2013-06-09T09:29:08.000Z</time>
      </trkpt>
      <trkpt lat="47.28766" lon="6.08408">
        <ele>377.9</ele>
        <time>2013-06-09T09:29:11.000Z</time>
      </trkpt>
      <trkpt lat="47.28765" lon="6.08409">
        <ele>377.8</ele>
        <time>2013-06-09T09:29:12.000Z</time>
      </trkpt>
      <trkpt lat="47.28761" lon="6.0841">
        <ele>377.9</ele>
        <time>2013-06-09T09:29:15.000Z</time>
      </trkpt>
      <trkpt lat="47.2876" lon="6.08411">
        <ele>378</ele>
        <time>2013-06-09T09:29:16.000Z</time>
      </trkpt>
      <trkpt lat="47.28757" lon="6.08415">
        <ele>378.2</ele>
        <time>2013-06-09T09:29:20.000Z</time>
      </trkpt>
      <trkpt lat="47.28756" lon="6.08417">
        <ele>378.3</ele>
        <time>2013-06-09T09:29:21.000Z</time>
      </trkpt>
      <trkpt lat="47.28754" lon="6.08421">
        <ele>377.9</ele>
        <time>2013-06-09T09:29:24.000Z</time>
      </trkpt>
      <trkpt lat="47.28754" lon="6.08422">
        <ele>377.9</ele>
        <time>2013-06-09T09:29:25.000Z</time>
      </trkpt>
      <trkpt lat="47.28753" lon="6.08428">
        <ele>378.5</ele>
        <time>2013-06-09T09:29:29.000Z</time>
      </trkpt>
      <trkpt lat="47.28754" lon="6.0843">
        <ele>378.7</ele>
        <time>2013-06-09T09:29:30.000Z</time>
      </trkpt>
      <trkpt lat="47.28755" lon="6.08435">
        <ele>379.1</ele>
        <time>2013-06-09T09:29:34.000Z</time>
      </trkpt>
      <trkpt lat="47.28756" lon="6.08437">
        <ele>379.3</ele>
        <time>2013-06-09T09:29:35.000Z</time>
      </trkpt>
      <trkpt lat="47.28758" lon="6.08441">
        <ele>379.7</ele>
        <time>2013-06-09T09:29:39.000Z</time>
      </trkpt>
      <trkpt lat="47.28759" lon="6.08442">
        <ele>379.9</ele>
        <time>2013-06-09T09:29:40.000Z</time>
      </trkpt>
      <trkpt lat="47.28763" lon="6.08444">
        <ele>380.4</ele>
        <time>2013-06-09T09:29:44.000Z</time>
      </trkpt>
      <trkpt lat="47.28764" lon="6.08443">
        <ele>380.6</ele>
        <time>2013-06-09T09:29:45.000Z</time>
      </trkpt>
      <trkpt lat="47.28768" lon="6.08443">
        <ele>380.7</ele>
        <time>2013-06-09T09:29:48.000Z</time>
      </trkpt>
      <trkpt lat="47.28769" lon="6.08443">
        <ele>380.6</ele>
        <time>2013-06-09T09:29:49.000Z</time>
      </trkpt>
      <trkpt lat="47.28773" lon="6.08442">
        <ele>380.7</ele>
        <time>2013-06-09T09:29:52.000Z</time>
      </trkpt>
      <trkpt lat="47.28774" lon="6.08442">
        <ele>380.6</ele>
        <time>2013-06-09T09:29:53.000Z</time>
      </trkpt>
      <trkpt lat="47.28777" lon="6.08443">
        <ele>380</ele>
        <time>2013-06-09T09:29:56.000Z</time>
      </trkpt>
      <trkpt lat="47.28778" lon="6.08443">
        <ele>379.9</ele>
        <time>2013-06-09T09:29:57.000Z</time>
      </trkpt>
      <trkpt lat="47.28782" lon="6.08443">
        <ele>380.5</ele>
        <time>2013-06-09T09:30:00.000Z</time>
      </trkpt>
      <trkpt lat="47.28783" lon="6.08443">
        <ele>380.6</ele>
        <time>2013-06-09T09:30:01.000Z</time>
      </trkpt>
      <trkpt lat="47.28787" lon="6.08443">
        <ele>381.1</ele>
        <time>2013-06-09T09:30:04.000Z</time>
      </trkpt>
      <trkpt lat="47.28788" lon="6.08443">
        <ele>381.3</ele>
        <time>2013-06-09T09:30:05.000Z</time>
      </trkpt>
      <trkpt lat="47.28791" lon="6.08443">
        <ele>381.5</ele>
        <time>2013-06-09T09:30:08.000Z</time>
      </trkpt>
      <trkpt lat="47.28793" lon="6.08444">
        <ele>381.6</ele>
        <time>2013-06-09T09:30:09.000Z</time>
      </trkpt>
      <trkpt lat="47.28796" lon="6.08445">
        <ele>381.8</ele>
        <time>2013-06-09T09:30:12.000Z</time>
      </trkpt>
      <trkpt lat="47.28797" lon="6.08445">
        <ele>381.9</ele>
        <time>2013-06-09T09:30:13.000Z</time>
      </trkpt>
      <trkpt lat="47.28801" lon="6.08446">
        <ele>382.3</ele>
        <time>2013-06-09T09:30:16.000Z</time>
      </trkpt>
      <trkpt lat="47.28802" lon="6.08446">
        <ele>382.4</ele>
        <time>2013-06-09T09:30:17.000Z</time>
      </trkpt>
      <trkpt lat="47.28805" lon="6.08446">
        <ele>382.7</ele>
        <time>2013-06-09T09:30:20.000Z</time>
      </trkpt>
      <trkpt lat="47.28806" lon="6.08446">
        <ele>382.9</ele>
        <time>2013-06-09T09:30:21.000Z</time>
      </trkpt>
      <trkpt lat="47.2881" lon="6.08447">
        <ele>383.4</ele>
        <time>2013-06-09T09:30:24.000Z</time>
      </trkpt>
      <trkpt lat="47.28811" lon="6.08447">
        <ele>383.3</ele>
        <time>2013-06-09T09:30:25.000Z</time>
      </trkpt>
      <trkpt lat="47.28814" lon="6.08447">
        <ele>383.6</ele>
        <time>2013-06-09T09:30:28.000Z</time>
      </trkpt>
      <trkpt lat="47.28815" lon="6.08447">
        <ele>383.7</ele>
        <time>2013-06-09T09:30:29.000Z</time>
      </trkpt>
      <trkpt lat="47.28819" lon="6.08448">
        <ele>383.9</ele>
        <time>2013-06-09T09:30:32.000Z</time>
      </trkpt>
      <trkpt lat="47.2882" lon="6.08448">
        <ele>384.4</ele>
        <time>2013-06-09T09:30:33.000Z</time>
      </trkpt>
      <trkpt lat="47.28824" lon="6.08448">
        <ele>384.8</ele>
        <time>2013-06-09T09:30:36.000Z</time>
      </trkpt>
      <trkpt lat="47.28825" lon="6.08448">
        <ele>384.4</ele>
        <time>2013-06-09T09:30:37.000Z</time>
      </trkpt>
      <trkpt lat="47.28829" lon="6.08448">
        <ele>384.9</ele>
        <time>2013-06-09T09:30:40.000Z</time>
      </trkpt>
      <trkpt lat="47.2883" lon="6.08447">
        <ele>385</ele>
        <time>2013-06-09T09:30:41.000Z</time>
      </trkpt>
      <trkpt lat="47.28834" lon="6.08446">
        <ele>384.8</ele>
        <time>2013-06-09T09:30:44.000Z</time>
      </trkpt>
      <trkpt lat="47.28836" lon="6.08446">
        <ele>384.6</ele>
        <time>2013-06-09T09:30:45.000Z</time>
      </trkpt>
      <trkpt lat="47.28839" lon="6.08445">
        <ele>384.4</ele>
        <time>2013-06-09T09:30:48.000Z</time>
      </trkpt>
      <trkpt lat="47.28841" lon="6.08444">
        <ele>384.6</ele>
        <time>2013-06-09T09:30:49.000Z</time>
      </trkpt>
      <trkpt lat="47.28845" lon="6.08443">
        <ele>384.3</ele>
        <time>2013-06-09T09:30:52.000Z</time>
      </trkpt>
      <trkpt lat="47.28846" lon="6.08443">
        <ele>384.6</ele>
        <time>2013-06-09T09:30:53.000Z</time>
      </trkpt>
      <trkpt lat="47.2885" lon="6.08442">
        <ele>386</ele>
        <time>2013-06-09T09:30:56.000Z</time>
      </trkpt>
      <trkpt lat="47.28851" lon="6.08442">
        <ele>386.5</ele>
        <time>2013-06-09T09:30:57.000Z</time>
      </trkpt>
      <trkpt lat="47.28855" lon="6.08441">
        <ele>386.5</ele>
        <time>2013-06-09T09:31:00.000Z</time>
      </trkpt>
      <trkpt lat="47.28856" lon="6.08441">
        <ele>386.6</ele>
        <time>2013-06-09T09:31:01.000Z</time>
      </trkpt>
      <trkpt lat="47.28859" lon="6.0844">
        <ele>386.7</ele>
        <time>2013-06-09T09:31:04.000Z</time>
      </trkpt>
      <trkpt lat="47.28861" lon="6.08439">
        <ele>386.7</ele>
        <time>2013-06-09T09:31:05.000Z</time>
      </trkpt>
      <trkpt lat="47.28864" lon="6.08438">
        <ele>386.1</ele>
        <time>2013-06-09T09:31:08.000Z</time>
      </trkpt>
      <trkpt lat="47.28866" lon="6.08437">
        <ele>386</ele>
        <time>2013-06-09T09:31:09.000Z</time>
      </trkpt>
      <trkpt lat="47.2887" lon="6.08436">
        <ele>386.4</ele>
        <time>2013-06-09T09:31:12.000Z</time>
      </trkpt>
      <trkpt lat="47.28871" lon="6.08435">
        <ele>386.4</ele>
        <time>2013-06-09T09:31:13.000Z</time>
      </trkpt>
      <trkpt lat="47.28875" lon="6.08435">
        <ele>387.3</ele>
        <time>2013-06-09T09:31:16.000Z</time>
      </trkpt>
      <trkpt lat="47.28876" lon="6.08434">
        <ele>387.6</ele>
        <time>2013-06-09T09:31:17.000Z</time>
      </trkpt>
      <trkpt lat="47.2888" lon="6.08434">
        <ele>388.2</ele>
        <time>2013-06-09T09:31:20.000Z</time>
      </trkpt>
      <trkpt lat="47.28882" lon="6.08434">
        <ele>388.4</ele>
        <time>2013-06-09T09:31:21.000Z</time>
      </trkpt>
      <trkpt lat="47.28885" lon="6.08434">
        <ele>389</ele>
        <time>2013-06-09T09:31:24.000Z</time>
      </trkpt>
      <trkpt lat="47.28887" lon="6.08435">
        <ele>389</ele>
        <time>2013-06-09T09:31:25.000Z</time>
      </trkpt>
      <trkpt lat="47.2889" lon="6.08435">
        <ele>389.2</ele>
        <time>2013-06-09T09:31:28.000Z</time>
      </trkpt>
      <trkpt lat="47.28892" lon="6.08435">
        <ele>389.2</ele>
        <time>2013-06-09T09:31:29.000Z</time>
      </trkpt>
      <trkpt lat="47.28895" lon="6.08435">
        <ele>389.2</ele>
        <time>2013-06-09T09:31:31.000Z</time>
      </trkpt>
      <trkpt lat="47.28896" lon="6.08435">
        <ele>389.1</ele>
        <time>2013-06-09T09:31:32.000Z</time>
      </trkpt>
      <trkpt lat="47.28901" lon="6.08435">
        <ele>389.4</ele>
        <time>2013-06-09T09:31:35.000Z</time>
      </trkpt>
      <trkpt lat="47.28902" lon="6.08435">
        <ele>389.5</ele>
        <time>2013-06-09T09:31:36.000Z</time>
      </trkpt>
      <trkpt lat="47.28906" lon="6.08436">
        <ele>389.9</ele>
        <time>2013-06-09T09:31:39.000Z</time>
      </trkpt>
      <trkpt lat="47.28907" lon="6.08437">
        <ele>390</ele>
        <time>2013-06-09T09:31:40.000Z</time>
      </trkpt>
      <trkpt lat="47.2891" lon="6.08439">
        <ele>390.7</ele>
        <time>2013-06-09T09:31:43.000Z</time>
      </trkpt>
      <trkpt lat="47.28911" lon="6.08439">
        <ele>390.9</ele>
        <time>2013-06-09T09:31:44.000Z</time>
      </trkpt>
      <trkpt lat="47.28915" lon="6.08439">
        <ele>390.8</ele>
        <time>2013-06-09T09:31:47.000Z</time>
      </trkpt>
      <trkpt lat="47.28916" lon="6.08439">
        <ele>390.7</ele>
        <time>2013-06-09T09:31:48.000Z</time>
      </trkpt>
      <trkpt lat="47.2892" lon="6.08439">
        <ele>388.5</ele>
        <time>2013-06-09T09:31:51.000Z</time>
      </trkpt>
      <trkpt lat="47.28922" lon="6.08438">
        <ele>388.8</ele>
        <time>2013-06-09T09:31:52.000Z</time>
      </trkpt>
      <trkpt lat="47.28925" lon="6.08436">
        <ele>389.8</ele>
        <time>2013-06-09T09:31:55.000Z</time>
      </trkpt>
      <trkpt lat="47.28926" lon="6.08435">
        <ele>389.9</ele>
        <time>2013-06-09T09:31:56.000Z</time>
      </trkpt>
      <trkpt lat="47.2893" lon="6.08432">
        <ele>390.5</ele>
        <time>2013-06-09T09:31:59.000Z</time>
      </trkpt>
      <trkpt lat="47.28931" lon="6.08431">
        <ele>390.7</ele>
        <time>2013-06-09T09:32:00.000Z</time>
      </trkpt>
      <trkpt lat="47.28933" lon="6.08427">
        <ele>391.2</ele>
        <time>2013-06-09T09:32:03.000Z</time>
      </trkpt>
      <trkpt lat="47.28934" lon="6.08426">
        <ele>391.4</ele>
        <time>2013-06-09T09:32:04.000Z</time>
      </trkpt>
      <trkpt lat="47.28937" lon="6.08422">
        <ele>391.1</ele>
        <time>2013-06-09T09:32:07.000Z</time>
      </trkpt>
      <trkpt lat="47.28938" lon="6.08421">
        <ele>391</ele>
        <time>2013-06-09T09:32:08.000Z</time>
      </trkpt>
      <trkpt lat="47.2894" lon="6.08416">
        <ele>391.1</ele>
        <time>2013-06-09T09:32:11.000Z</time>
      </trkpt>
      <trkpt lat="47.2894" lon="6.08415">
        <ele>391.1</ele>
        <time>2013-06-09T09:32:12.000Z</time>
      </trkpt>
      <trkpt lat="47.28942" lon="6.08411">
        <ele>391</ele>
        <time>2013-06-09T09:32:15.000Z</time>
      </trkpt>
      <trkpt lat="47.28943" lon="6.08409">
        <ele>390.8</ele>
        <time>2013-06-09T09:32:16.000Z</time>
      </trkpt>
      <trkpt lat="47.28945" lon="6.08405">
        <ele>390.7</ele>
        <time>2013-06-09T09:32:19.000Z</time>
      </trkpt>
      <trkpt lat="47.28946" lon="6.08404">
        <ele>390.7</ele>
        <time>2013-06-09T09:32:20.000Z</time>
      </trkpt>
      <trkpt lat="47.28949" lon="6.08399">
        <ele>391.4</ele>
        <time>2013-06-09T09:32:24.000Z</time>
      </trkpt>
      <trkpt lat="47.2895" lon="6.08398">
        <ele>391.6</ele>
        <time>2013-06-09T09:32:25.000Z</time>
      </trkpt>
      <trkpt lat="47.28952" lon="6.08394">
        <ele>392.1</ele>
        <time>2013-06-09T09:32:29.000Z</time>
      </trkpt>
      <trkpt lat="47.28953" lon="6.08393">
        <ele>392.3</ele>
        <time>2013-06-09T09:32:30.000Z</time>
      </trkpt>
      <trkpt lat="47.28957" lon="6.08392">
        <ele>392.9</ele>
        <time>2013-06-09T09:32:35.000Z</time>
      </trkpt>
      <trkpt lat="47.28958" lon="6.08392">
        <ele>393</ele>
        <time>2013-06-09T09:32:36.000Z</time>
      </trkpt>
      <trkpt lat="47.28962" lon="6.08392">
        <ele>394.1</ele>
        <time>2013-06-09T09:32:40.000Z</time>
      </trkpt>
      <trkpt lat="47.28964" lon="6.08392">
        <ele>394.5</ele>
        <time>2013-06-09T09:32:41.000Z</time>
      </trkpt>
      <trkpt lat="47.28968" lon="6.0839">
        <ele>395.1</ele>
        <time>2013-06-09T09:32:45.000Z</time>
      </trkpt>
      <trkpt lat="47.28969" lon="6.08389">
        <ele>395.1</ele>
        <time>2013-06-09T09:32:46.000Z</time>
      </trkpt>
      <trkpt lat="47.28972" lon="6.08386">
        <ele>396.1</ele>
        <time>2013-06-09T09:32:49.000Z</time>
      </trkpt>
      <trkpt lat="47.28973" lon="6.08385">
        <ele>396.2</ele>
        <time>2013-06-09T09:32:50.000Z</time>
      </trkpt>
      <trkpt lat="47.28977" lon="6.08383">
        <ele>396.7</ele>
        <time>2013-06-09T09:32:53.000Z</time>
      </trkpt>
      <trkpt lat="47.28978" lon="6.08382">
        <ele>396.7</ele>
        <time>2013-06-09T09:32:54.000Z</time>
      </trkpt>
      <trkpt lat="47.28982" lon="6.0838">
        <ele>397.1</ele>
        <time>2013-06-09T09:32:57.000Z</time>
      </trkpt>
      <trkpt lat="47.28983" lon="6.0838">
        <ele>397.5</ele>
        <time>2013-06-09T09:32:58.000Z</time>
      </trkpt>
      <trkpt lat="47.28986" lon="6.08378">
        <ele>398.2</ele>
        <time>2013-06-09T09:33:01.000Z</time>
      </trkpt>
      <trkpt lat="47.28988" lon="6.08378">
        <ele>398.2</ele>
        <time>2013-06-09T09:33:02.000Z</time>
      </trkpt>
      <trkpt lat="47.28991" lon="6.08376">
        <ele>398.3</ele>
        <time>2013-06-09T09:33:05.000Z</time>
      </trkpt>
      <trkpt lat="47.28993" lon="6.08376">
        <ele>398.3</ele>
        <time>2013-06-09T09:33:06.000Z</time>
      </trkpt>
      <trkpt lat="47.28996" lon="6.08375">
        <ele>398.8</ele>
        <time>2013-06-09T09:33:09.000Z</time>
      </trkpt>
      <trkpt lat="47.28998" lon="6.08376">
        <ele>399</ele>
        <time>2013-06-09T09:33:10.000Z</time>
      </trkpt>
      <trkpt lat="47.29001" lon="6.08376">
        <ele>399.6</ele>
        <time>2013-06-09T09:33:13.000Z</time>
      </trkpt>
      <trkpt lat="47.29003" lon="6.08376">
        <ele>399.6</ele>
        <time>2013-06-09T09:33:14.000Z</time>
      </trkpt>
      <trkpt lat="47.29006" lon="6.08377">
        <ele>400.7</ele>
        <time>2013-06-09T09:33:17.000Z</time>
      </trkpt>
      <trkpt lat="47.29007" lon="6.08377">
        <ele>400.9</ele>
        <time>2013-06-09T09:33:18.000Z</time>
      </trkpt>
      <trkpt lat="47.29011" lon="6.0838">
        <ele>400.7</ele>
        <time>2013-06-09T09:33:21.000Z</time>
      </trkpt>
      <trkpt lat="47.29012" lon="6.0838">
        <ele>400.8</ele>
        <time>2013-06-09T09:33:22.000Z</time>
      </trkpt>
      <trkpt lat="47.29015" lon="6.08383">
        <ele>401.3</ele>
        <time>2013-06-09T09:33:25.000Z</time>
      </trkpt>
      <trkpt lat="47.29016" lon="6.08384">
        <ele>401.3</ele>
        <time>2013-06-09T09:33:26.000Z</time>
      </trkpt>
      <trkpt lat="47.29019" lon="6.08387">
        <ele>401.8</ele>
        <time>2013-06-09T09:33:29.000Z</time>
      </trkpt>
      <trkpt lat="47.2902" lon="6.08388">
        <ele>401.9</ele>
        <time>2013-06-09T09:33:30.000Z</time>
      </trkpt>
      <trkpt lat="47.29023" lon="6.08391">
        <ele>402.4</ele>
        <time>2013-06-09T09:33:33.000Z</time>
      </trkpt>
      <trkpt lat="47.29024" lon="6.08392">
        <ele>402.7</ele>
        <time>2013-06-09T09:33:34.000Z</time>
      </trkpt>
      <trkpt lat="47.29027" lon="6.08395">
        <ele>403.2</ele>
        <time>2013-06-09T09:33:37.000Z</time>
      </trkpt>
      <trkpt lat="47.29028" lon="6.08396">
        <ele>403.2</ele>
        <time>2013-06-09T09:33:38.000Z</time>
      </trkpt>
      <trkpt lat="47.29031" lon="6.08399">
        <ele>403.3</ele>
        <time>2013-06-09T09:33:41.000Z</time>
      </trkpt>
      <trkpt lat="47.29032" lon="6.08401">
        <ele>403.6</ele>
        <time>2013-06-09T09:33:42.000Z</time>
      </trkpt>
      <trkpt lat="47.29034" lon="6.08405">
        <ele>403.9</ele>
        <time>2013-06-09T09:33:45.000Z</time>
      </trkpt>
      <trkpt lat="47.29035" lon="6.08406">
        <ele>403.5</ele>
        <time>2013-06-09T09:33:46.000Z</time>
      </trkpt>
      <trkpt lat="47.29038" lon="6.0841">
        <ele>403.5</ele>
        <time>2013-06-09T09:33:49.000Z</time>
      </trkpt>
      <trkpt lat="47.29039" lon="6.08411">
        <ele>403.7</ele>
        <time>2013-06-09T09:33:50.000Z</time>
      </trkpt>
      <trkpt lat="47.29042" lon="6.08416">
        <ele>403.5</ele>
        <time>2013-06-09T09:33:53.000Z</time>
      </trkpt>
      <trkpt lat="47.29043" lon="6.08417">
        <ele>403.5</ele>
        <time>2013-06-09T09:33:54.000Z</time>
      </trkpt>
      <trkpt lat="47.29045" lon="6.08422">
        <ele>403.5</ele>
        <time>2013-06-09T09:33:57.000Z</time>
      </trkpt>
      <trkpt lat="47.29045" lon="6.08424">
        <ele>403.6</ele>
        <time>2013-06-09T09:33:58.000Z</time>
      </trkpt>
      <trkpt lat="47.29046" lon="6.08428">
        <ele>403.8</ele>
        <time>2013-06-09T09:34:00.000Z</time>
      </trkpt>
      <trkpt lat="47.29047" lon="6.08431">
        <ele>403.6</ele>
        <time>2013-06-09T09:34:01.000Z</time>
      </trkpt>
      <trkpt lat="47.29049" lon="6.08435">
        <ele>402.6</ele>
        <time>2013-06-09T09:34:03.000Z</time>
      </trkpt>
      <trkpt lat="47.2905" lon="6.08437">
        <ele>402.2</ele>
        <time>2013-06-09T09:34:04.000Z</time>
      </trkpt>
      <trkpt lat="47.29052" lon="6.08441">
        <ele>401.7</ele>
        <time>2013-06-09T09:34:06.000Z</time>
      </trkpt>
      <trkpt lat="47.29052" lon="6.08443">
        <ele>401.9</ele>
        <time>2013-06-09T09:34:07.000Z</time>
      </trkpt>
      <trkpt lat="47.29053" lon="6.08447">
        <ele>402.4</ele>
        <time>2013-06-09T09:34:09.000Z</time>
      </trkpt>
      <trkpt lat="47.29054" lon="6.08449">
        <ele>402.5</ele>
        <time>2013-06-09T09:34:10.000Z</time>
      </trkpt>
      <trkpt lat="47.29055" lon="6.08453">
        <ele>402.9</ele>
        <time>2013-06-09T09:34:12.000Z</time>
      </trkpt>
      <trkpt lat="47.29056" lon="6.08455">
        <ele>402.9</ele>
        <time>2013-06-09T09:34:13.000Z</time>
      </trkpt>
      <trkpt lat="47.29058" lon="6.08459">
        <ele>402.8</ele>
        <time>2013-06-09T09:34:15.000Z</time>
      </trkpt>
      <trkpt lat="47.29059" lon="6.08461">
        <ele>402.7</ele>
        <time>2013-06-09T09:34:16.000Z</time>
      </trkpt>
      <trkpt lat="47.29061" lon="6.08466">
        <ele>400.6</ele>
        <time>2013-06-09T09:34:19.000Z</time>
      </trkpt>
      <trkpt lat="47.29062" lon="6.08467">
        <ele>399.9</ele>
        <time>2013-06-09T09:34:20.000Z</time>
      </trkpt>
      <trkpt lat="47.29064" lon="6.08461">
        <ele>399.9</ele>
        <time>2013-06-09T09:34:24.000Z</time>
      </trkpt>
      <trkpt lat="47.29064" lon="6.0846">
        <ele>399.7</ele>
        <time>2013-06-09T09:34:25.000Z</time>
      </trkpt>
      <trkpt lat="47.29064" lon="6.08454">
        <ele>399.8</ele>
        <time>2013-06-09T09:34:28.000Z</time>
      </trkpt>
      <trkpt lat="47.29063" lon="6.08452">
        <ele>399.7</ele>
        <time>2013-06-09T09:34:29.000Z</time>
      </trkpt>
      <trkpt lat="47.29061" lon="6.08448">
        <ele>399.1</ele>
        <time>2013-06-09T09:34:32.000Z</time>
      </trkpt>
      <trkpt lat="47.2906" lon="6.08446">
        <ele>399</ele>
        <time>2013-06-09T09:34:33.000Z</time>
      </trkpt>
      <trkpt lat="47.29057" lon="6.08442">
        <ele>398.9</ele>
        <time>2013-06-09T09:34:36.000Z</time>
      </trkpt>
      <trkpt lat="47.29056" lon="6.08441">
        <ele>399</ele>
        <time>2013-06-09T09:34:37.000Z</time>
      </trkpt>
      <trkpt lat="47.29053" lon="6.08437">
        <ele>399.3</ele>
        <time>2013-06-09T09:34:40.000Z</time>
      </trkpt>
      <trkpt lat="47.29052" lon="6.08436">
        <ele>399.3</ele>
        <time>2013-06-09T09:34:41.000Z</time>
      </trkpt>
      <trkpt lat="47.2905" lon="6.08432">
        <ele>399.2</ele>
        <time>2013-06-09T09:34:44.000Z</time>
      </trkpt>
      <trkpt lat="47.29049" lon="6.08431">
        <ele>399.4</ele>
        <time>2013-06-09T09:34:45.000Z</time>
      </trkpt>
      <trkpt lat="47.2905" lon="6.08425">
        <ele>398.3</ele>
        <time>2013-06-09T09:34:52.000Z</time>
      </trkpt>
      <trkpt lat="47.29051" lon="6.08425">
        <ele>398.4</ele>
        <time>2013-06-09T09:34:53.000Z</time>
      </trkpt>
      <trkpt lat="47.29055" lon="6.08427">
        <ele>399</ele>
        <time>2013-06-09T09:34:56.000Z</time>
      </trkpt>
      <trkpt lat="47.29056" lon="6.08428">
        <ele>399.1</ele>
        <time>2013-06-09T09:34:57.000Z</time>
      </trkpt>
      <trkpt lat="47.29059" lon="6.08431">
        <ele>399.5</ele>
        <time>2013-06-09T09:35:00.000Z</time>
      </trkpt>
      <trkpt lat="47.29061" lon="6.08432">
        <ele>399.7</ele>
        <time>2013-06-09T09:35:01.000Z</time>
      </trkpt>
      <trkpt lat="47.29064" lon="6.08434">
        <ele>399.9</ele>
        <time>2013-06-09T09:35:04.000Z</time>
      </trkpt>
      <trkpt lat="47.29065" lon="6.08434">
        <ele>400.1</ele>
        <time>2013-06-09T09:35:05.000Z</time>
      </trkpt>
      <trkpt lat="47.29069" lon="6.08436">
        <ele>401.3</ele>
        <time>2013-06-09T09:35:08.000Z</time>
      </trkpt>
      <trkpt lat="47.2907" lon="6.08436">
        <ele>401.8</ele>
        <time>2013-06-09T09:35:09.000Z</time>
      </trkpt>
      <trkpt lat="47.29074" lon="6.08436">
        <ele>403.1</ele>
        <time>2013-06-09T09:35:12.000Z</time>
      </trkpt>
      <trkpt lat="47.29075" lon="6.08436">
        <ele>403.3</ele>
        <time>2013-06-09T09:35:13.000Z</time>
      </trkpt>
      <trkpt lat="47.29078" lon="6.08436">
        <ele>404.2</ele>
        <time>2013-06-09T09:35:16.000Z</time>
      </trkpt>
      <trkpt lat="47.2908" lon="6.08436">
        <ele>404.1</ele>
        <time>2013-06-09T09:35:17.000Z</time>
      </trkpt>
      <trkpt lat="47.29084" lon="6.08438">
        <ele>404.5</ele>
        <time>2013-06-09T09:35:21.000Z</time>
      </trkpt>
      <trkpt lat="47.29085" lon="6.08438">
        <ele>404.7</ele>
        <time>2013-06-09T09:35:22.000Z</time>
      </trkpt>
      <trkpt lat="47.29089" lon="6.08439">
        <ele>405.5</ele>
        <time>2013-06-09T09:35:26.000Z</time>
      </trkpt>
      <trkpt lat="47.2909" lon="6.0844">
        <ele>405.6</ele>
        <time>2013-06-09T09:35:27.000Z</time>
      </trkpt>
      <trkpt lat="47.29093" lon="6.08441">
        <ele>405.9</ele>
        <time>2013-06-09T09:35:30.000Z</time>
      </trkpt>
      <trkpt lat="47.29095" lon="6.08441">
        <ele>406</ele>
        <time>2013-06-09T09:35:31.000Z</time>
      </trkpt>
      <trkpt lat="47.29098" lon="6.08441">
        <ele>405.7</ele>
        <time>2013-06-09T09:35:34.000Z</time>
      </trkpt>
      <trkpt lat="47.29099" lon="6.08441">
        <ele>405.8</ele>
        <time>2013-06-09T09:35:35.000Z</time>
      </trkpt>
      <trkpt lat="47.29103" lon="6.0844">
        <ele>405.6</ele>
        <time>2013-06-09T09:35:38.000Z</time>
      </trkpt>
      <trkpt lat="47.29104" lon="6.0844">
        <ele>405.6</ele>
        <time>2013-06-09T09:35:39.000Z</time>
      </trkpt>
      <trkpt lat="47.29108" lon="6.08438">
        <ele>405</ele>
        <time>2013-06-09T09:35:42.000Z</time>
      </trkpt>
      <trkpt lat="47.29109" lon="6.08437">
        <ele>404.6</ele>
        <time>2013-06-09T09:35:43.000Z</time>
      </trkpt>
      <trkpt lat="47.29113" lon="6.08436">
        <ele>403.5</ele>
        <time>2013-06-09T09:35:46.000Z</time>
      </trkpt>
      <trkpt lat="47.29114" lon="6.08436">
        <ele>403.3</ele>
        <time>2013-06-09T09:35:47.000Z</time>
      </trkpt>
      <trkpt lat="47.29118" lon="6.08434">
        <ele>403.7</ele>
        <time>2013-06-09T09:35:50.000Z</time>
      </trkpt>
      <trkpt lat="47.29119" lon="6.08434">
        <ele>403.8</ele>
        <time>2013-06-09T09:35:51.000Z</time>
      </trkpt>
      <trkpt lat="47.29123" lon="6.08433">
        <ele>403.6</ele>
        <time>2013-06-09T09:35:54.000Z</time>
      </trkpt>
      <trkpt lat="47.29124" lon="6.08432">
        <ele>403.5</ele>
        <time>2013-06-09T09:35:55.000Z</time>
      </trkpt>
      <trkpt lat="47.29127" lon="6.08431">
        <ele>403.4</ele>
        <time>2013-06-09T09:35:57.000Z</time>
      </trkpt>
      <trkpt lat="47.29129" lon="6.0843">
        <ele>403.4</ele>
        <time>2013-06-09T09:35:58.000Z</time>
      </trkpt>
      <trkpt lat="47.29132" lon="6.08427">
        <ele>403.2</ele>
        <time>2013-06-09T09:36:01.000Z</time>
      </trkpt>
      <trkpt lat="47.29134" lon="6.08426">
        <ele>403.1</ele>
        <time>2013-06-09T09:36:02.000Z</time>
      </trkpt>
      <trkpt lat="47.29137" lon="6.08423">
        <ele>403.1</ele>
        <time>2013-06-09T09:36:05.000Z</time>
      </trkpt>
      <trkpt lat="47.29138" lon="6.08423">
        <ele>403</ele>
        <time>2013-06-09T09:36:06.000Z</time>
      </trkpt>
      <trkpt lat="47.29143" lon="6.08421">
        <ele>402.7</ele>
        <time>2013-06-09T09:36:10.000Z</time>
      </trkpt>
      <trkpt lat="47.29144" lon="6.0842">
        <ele>402.6</ele>
        <time>2013-06-09T09:36:11.000Z</time>
      </trkpt>
      <trkpt lat="47.29147" lon="6.0842">
        <ele>402.1</ele>
        <time>2013-06-09T09:36:14.000Z</time>
      </trkpt>
      <trkpt lat="47.29148" lon="6.08419">
        <ele>402.5</ele>
        <time>2013-06-09T09:36:15.000Z</time>
      </trkpt>
      <trkpt lat="47.29152" lon="6.08418">
        <ele>402.7</ele>
        <time>2013-06-09T09:36:18.000Z</time>
      </trkpt>
      <trkpt lat="47.29153" lon="6.08417">
        <ele>402.7</ele>
        <time>2013-06-09T09:36:19.000Z</time>
      </trkpt>
      <trkpt lat="47.29156" lon="6.08413">
        <ele>402.6</ele>
        <time>2013-06-09T09:36:22.000Z</time>
      </trkpt>
      <trkpt lat="47.29157" lon="6.08411">
        <ele>402.6</ele>
        <time>2013-06-09T09:36:23.000Z</time>
      </trkpt>
      <trkpt lat="47.29159" lon="6.08407">
        <ele>402.5</ele>
        <time>2013-06-09T09:36:26.000Z</time>
      </trkpt>
      <trkpt lat="47.2916" lon="6.08406">
        <ele>402.5</ele>
        <time>2013-06-09T09:36:27.000Z</time>
      </trkpt>
      <trkpt lat="47.29163" lon="6.08403">
        <ele>402.5</ele>
        <time>2013-06-09T09:36:30.000Z</time>
      </trkpt>
      <trkpt lat="47.29164" lon="6.08402">
        <ele>402.7</ele>
        <time>2013-06-09T09:36:31.000Z</time>
      </trkpt>
      <trkpt lat="47.29167" lon="6.08399">
        <ele>402.8</ele>
        <time>2013-06-09T09:36:34.000Z</time>
      </trkpt>
      <trkpt lat="47.29168" lon="6.08398">
        <ele>403</ele>
        <time>2013-06-09T09:36:35.000Z</time>
      </trkpt>
      <trkpt lat="47.29172" lon="6.08396">
        <ele>403.2</ele>
        <time>2013-06-09T09:36:38.000Z</time>
      </trkpt>
      <trkpt lat="47.29173" lon="6.08395">
        <ele>403.2</ele>
        <time>2013-06-09T09:36:39.000Z</time>
      </trkpt>
      <trkpt lat="47.29177" lon="6.08393">
        <ele>402.9</ele>
        <time>2013-06-09T09:36:42.000Z</time>
      </trkpt>
      <trkpt lat="47.29178" lon="6.08393">
        <ele>402.9</ele>
        <time>2013-06-09T09:36:43.000Z</time>
      </trkpt>
      <trkpt lat="47.29182" lon="6.0839">
        <ele>403</ele>
        <time>2013-06-09T09:36:46.000Z</time>
      </trkpt>
      <trkpt lat="47.29183" lon="6.08389">
        <ele>403.2</ele>
        <time>2013-06-09T09:36:47.000Z</time>
      </trkpt>
      <trkpt lat="47.29187" lon="6.08386">
        <ele>403</ele>
        <time>2013-06-09T09:36:50.000Z</time>
      </trkpt>
      <trkpt lat="47.29188" lon="6.08385">
        <ele>402.7</ele>
        <time>2013-06-09T09:36:51.000Z</time>
      </trkpt>
      <trkpt lat="47.29192" lon="6.08383">
        <ele>402.1</ele>
        <time>2013-06-09T09:36:54.000Z</time>
      </trkpt>
      <trkpt lat="47.29193" lon="6.08382">
        <ele>402</ele>
        <time>2013-06-09T09:36:55.000Z</time>
      </trkpt>
      <trkpt lat="47.29197" lon="6.0838">
        <ele>401.8</ele>
        <time>2013-06-09T09:36:58.000Z</time>
      </trkpt>
      <trkpt lat="47.29198" lon="6.0838">
        <ele>401.8</ele>
        <time>2013-06-09T09:36:59.000Z</time>
      </trkpt>
      <trkpt lat="47.29202" lon="6.08379">
        <ele>402</ele>
        <time>2013-06-09T09:37:02.000Z</time>
      </trkpt>
      <trkpt lat="47.29203" lon="6.08379">
        <ele>402</ele>
        <time>2013-06-09T09:37:03.000Z</time>
      </trkpt>
      <trkpt lat="47.29207" lon="6.08379">
        <ele>402.4</ele>
        <time>2013-06-09T09:37:06.000Z</time>
      </trkpt>
      <trkpt lat="47.29209" lon="6.08379">
        <ele>402.5</ele>
        <time>2013-06-09T09:37:07.000Z</time>
      </trkpt>
      <trkpt lat="47.29212" lon="6.08378">
        <ele>402.8</ele>
        <time>2013-06-09T09:37:10.000Z</time>
      </trkpt>
      <trkpt lat="47.29214" lon="6.08378">
        <ele>402.9</ele>
        <time>2013-06-09T09:37:11.000Z</time>
      </trkpt>
      <trkpt lat="47.29217" lon="6.08379">
        <ele>403</ele>
        <time>2013-06-09T09:37:14.000Z</time>
      </trkpt>
      <trkpt lat="47.29218" lon="6.08379">
        <ele>403.1</ele>
        <time>2013-06-09T09:37:15.000Z</time>
      </trkpt>
      <trkpt lat="47.29222" lon="6.0838">
        <ele>403.2</ele>
        <time>2013-06-09T09:37:18.000Z</time>
      </trkpt>
      <trkpt lat="47.29223" lon="6.0838">
        <ele>403.4</ele>
        <time>2013-06-09T09:37:19.000Z</time>
      </trkpt>
      <trkpt lat="47.29227" lon="6.08381">
        <ele>403.6</ele>
        <time>2013-06-09T09:37:22.000Z</time>
      </trkpt>
      <trkpt lat="47.29228" lon="6.08381">
        <ele>403.7</ele>
        <time>2013-06-09T09:37:23.000Z</time>
      </trkpt>
      <trkpt lat="47.29232" lon="6.08382">
        <ele>403.5</ele>
        <time>2013-06-09T09:37:26.000Z</time>
      </trkpt>
      <trkpt lat="47.29233" lon="6.08382">
        <ele>403.7</ele>
        <time>2013-06-09T09:37:27.000Z</time>
      </trkpt>
      <trkpt lat="47.29237" lon="6.08383">
        <ele>403.9</ele>
        <time>2013-06-09T09:37:30.000Z</time>
      </trkpt>
      <trkpt lat="47.29238" lon="6.08384">
        <ele>404</ele>
        <time>2013-06-09T09:37:31.000Z</time>
      </trkpt>
      <trkpt lat="47.29241" lon="6.08384">
        <ele>404.5</ele>
        <time>2013-06-09T09:37:34.000Z</time>
      </trkpt>
      <trkpt lat="47.29242" lon="6.08385">
        <ele>404.7</ele>
        <time>2013-06-09T09:37:35.000Z</time>
      </trkpt>
      <trkpt lat="47.29246" lon="6.08385">
        <ele>405.2</ele>
        <time>2013-06-09T09:37:38.000Z</time>
      </trkpt>
      <trkpt lat="47.29247" lon="6.08386">
        <ele>405.6</ele>
        <time>2013-06-09T09:37:39.000Z</time>
      </trkpt>
      <trkpt lat="47.29251" lon="6.08386">
        <ele>406.2</ele>
        <time>2013-06-09T09:37:42.000Z</time>
      </trkpt>
      <trkpt lat="47.29252" lon="6.08387">
        <ele>406.4</ele>
        <time>2013-06-09T09:37:43.000Z</time>
      </trkpt>
      <trkpt lat="47.29255" lon="6.08387">
        <ele>406.3</ele>
        <time>2013-06-09T09:37:46.000Z</time>
      </trkpt>
      <trkpt lat="47.29256" lon="6.08388">
        <ele>406.4</ele>
        <time>2013-06-09T09:37:47.000Z</time>
      </trkpt>
      <trkpt lat="47.2926" lon="6.08388">
        <ele>406.8</ele>
        <time>2013-06-09T09:37:50.000Z</time>
      </trkpt>
      <trkpt lat="47.29261" lon="6.08388">
        <ele>406.8</ele>
        <time>2013-06-09T09:37:51.000Z</time>
      </trkpt>
      <trkpt lat="47.29265" lon="6.08389">
        <ele>407</ele>
        <time>2013-06-09T09:37:54.000Z</time>
      </trkpt>
      <trkpt lat="47.29266" lon="6.08389">
        <ele>406.9</ele>
        <time>2013-06-09T09:37:55.000Z</time>
      </trkpt>
      <trkpt lat="47.2927" lon="6.08389">
        <ele>406.4</ele>
        <time>2013-06-09T09:37:58.000Z</time>
      </trkpt>
      <trkpt lat="47.29272" lon="6.08389">
        <ele>406.3</ele>
        <time>2013-06-09T09:37:59.000Z</time>
      </trkpt>
      <trkpt lat="47.29276" lon="6.0839">
        <ele>406.5</ele>
        <time>2013-06-09T09:38:02.000Z</time>
      </trkpt>
      <trkpt lat="47.29277" lon="6.0839">
        <ele>406.6</ele>
        <time>2013-06-09T09:38:03.000Z</time>
      </trkpt>
      <trkpt lat="47.29281" lon="6.08391">
        <ele>406.7</ele>
        <time>2013-06-09T09:38:06.000Z</time>
      </trkpt>
      <trkpt lat="47.29282" lon="6.08391">
        <ele>406.7</ele>
        <time>2013-06-09T09:38:07.000Z</time>
      </trkpt>
      <trkpt lat="47.29286" lon="6.08393">
        <ele>407</ele>
        <time>2013-06-09T09:38:10.000Z</time>
      </trkpt>
      <trkpt lat="47.29287" lon="6.08393">
        <ele>407.2</ele>
        <time>2013-06-09T09:38:11.000Z</time>
      </trkpt>
      <trkpt lat="47.29291" lon="6.08395">
        <ele>407.4</ele>
        <time>2013-06-09T09:38:14.000Z</time>
      </trkpt>
      <trkpt lat="47.29292" lon="6.08396">
        <ele>407.4</ele>
        <time>2013-06-09T09:38:15.000Z</time>
      </trkpt>
      <trkpt lat="47.29296" lon="6.08397">
        <ele>407.5</ele>
        <time>2013-06-09T09:38:18.000Z</time>
      </trkpt>
      <trkpt lat="47.29297" lon="6.08397">
        <ele>407.5</ele>
        <time>2013-06-09T09:38:19.000Z</time>
      </trkpt>
      <trkpt lat="47.29301" lon="6.08398">
        <ele>407.8</ele>
        <time>2013-06-09T09:38:22.000Z</time>
      </trkpt>
      <trkpt lat="47.29302" lon="6.08398">
        <ele>407.8</ele>
        <time>2013-06-09T09:38:23.000Z</time>
      </trkpt>
      <trkpt lat="47.29306" lon="6.08398">
        <ele>408.1</ele>
        <time>2013-06-09T09:38:26.000Z</time>
      </trkpt>
      <trkpt lat="47.29307" lon="6.08398">
        <ele>408.1</ele>
        <time>2013-06-09T09:38:27.000Z</time>
      </trkpt>
      <trkpt lat="47.29311" lon="6.08399">
        <ele>408.2</ele>
        <time>2013-06-09T09:38:30.000Z</time>
      </trkpt>
      <trkpt lat="47.29312" lon="6.08399">
        <ele>408.3</ele>
        <time>2013-06-09T09:38:31.000Z</time>
      </trkpt>
      <trkpt lat="47.29316" lon="6.084">
        <ele>408.2</ele>
        <time>2013-06-09T09:38:34.000Z</time>
      </trkpt>
      <trkpt lat="47.29317" lon="6.084">
        <ele>408.3</ele>
        <time>2013-06-09T09:38:35.000Z</time>
      </trkpt>
      <trkpt lat="47.29321" lon="6.084">
        <ele>408.6</ele>
        <time>2013-06-09T09:38:38.000Z</time>
      </trkpt>
      <trkpt lat="47.29322" lon="6.084">
        <ele>408.8</ele>
        <time>2013-06-09T09:38:39.000Z</time>
      </trkpt>
      <trkpt lat="47.29325" lon="6.08398">
        <ele>408.7</ele>
        <time>2013-06-09T09:38:42.000Z</time>
      </trkpt>
      <trkpt lat="47.29326" lon="6.08397">
        <ele>408.9</ele>
        <time>2013-06-09T09:38:43.000Z</time>
      </trkpt>
      <trkpt lat="47.2933" lon="6.08395">
        <ele>410.4</ele>
        <time>2013-06-09T09:38:47.000Z</time>
      </trkpt>
      <trkpt lat="47.29331" lon="6.08394">
        <ele>410.6</ele>
        <time>2013-06-09T09:38:48.000Z</time>
      </trkpt>
      <trkpt lat="47.29334" lon="6.08391">
        <ele>410.3</ele>
        <time>2013-06-09T09:38:51.000Z</time>
      </trkpt>
      <trkpt lat="47.29335" lon="6.0839">
        <ele>409.9</ele>
        <time>2013-06-09T09:38:52.000Z</time>
      </trkpt>
      <trkpt lat="47.29338" lon="6.08388">
        <ele>409</ele>
        <time>2013-06-09T09:38:55.000Z</time>
      </trkpt>
      <trkpt lat="47.2934" lon="6.08387">
        <ele>408.5</ele>
        <time>2013-06-09T09:38:56.000Z</time>
      </trkpt>
      <trkpt lat="47.29344" lon="6.08386">
        <ele>408</ele>
        <time>2013-06-09T09:39:00.000Z</time>
      </trkpt>
      <trkpt lat="47.29345" lon="6.08387">
        <ele>408</ele>
        <time>2013-06-09T09:39:01.000Z</time>
      </trkpt>
      <trkpt lat="47.29348" lon="6.0839">
        <ele>408.2</ele>
        <time>2013-06-09T09:39:04.000Z</time>
      </trkpt>
      <trkpt lat="47.29349" lon="6.08391">
        <ele>408.1</ele>
        <time>2013-06-09T09:39:05.000Z</time>
      </trkpt>
      <trkpt lat="47.29352" lon="6.08395">
        <ele>408.3</ele>
        <time>2013-06-09T09:39:08.000Z</time>
      </trkpt>
      <trkpt lat="47.29352" lon="6.08396">
        <ele>408.3</ele>
        <time>2013-06-09T09:39:09.000Z</time>
      </trkpt>
      <trkpt lat="47.29356" lon="6.08399">
        <ele>408.7</ele>
        <time>2013-06-09T09:39:12.000Z</time>
      </trkpt>
      <trkpt lat="47.29357" lon="6.08399">
        <ele>408.8</ele>
        <time>2013-06-09T09:39:13.000Z</time>
      </trkpt>
      <trkpt lat="47.2936" lon="6.08401">
        <ele>408.9</ele>
        <time>2013-06-09T09:39:16.000Z</time>
      </trkpt>
      <trkpt lat="47.29361" lon="6.08401">
        <ele>409</ele>
        <time>2013-06-09T09:39:17.000Z</time>
      </trkpt>
      <trkpt lat="47.29365" lon="6.08403">
        <ele>409.5</ele>
        <time>2013-06-09T09:39:20.000Z</time>
      </trkpt>
      <trkpt lat="47.29366" lon="6.08404">
        <ele>409.7</ele>
        <time>2013-06-09T09:39:21.000Z</time>
      </trkpt>
      <trkpt lat="47.29369" lon="6.08406">
        <ele>409.8</ele>
        <time>2013-06-09T09:39:24.000Z</time>
      </trkpt>
      <trkpt lat="47.2937" lon="6.08406">
        <ele>409.9</ele>
        <time>2013-06-09T09:39:25.000Z</time>
      </trkpt>
      <trkpt lat="47.29374" lon="6.08408">
        <ele>410.9</ele>
        <time>2013-06-09T09:39:29.000Z</time>
      </trkpt>
      <trkpt lat="47.29375" lon="6.08409">
        <ele>411.1</ele>
        <time>2013-06-09T09:39:30.000Z</time>
      </trkpt>
      <trkpt lat="47.29378" lon="6.08413">
        <ele>411.7</ele>
        <time>2013-06-09T09:39:34.000Z</time>
      </trkpt>
      <trkpt lat="47.29379" lon="6.08414">
        <ele>411.6</ele>
        <time>2013-06-09T09:39:35.000Z</time>
      </trkpt>
      <trkpt lat="47.29382" lon="6.08418">
        <ele>411.4</ele>
        <time>2013-06-09T09:39:39.000Z</time>
      </trkpt>
      <trkpt lat="47.29383" lon="6.08419">
        <ele>411.5</ele>
        <time>2013-06-09T09:39:40.000Z</time>
      </trkpt>
      <trkpt lat="47.29386" lon="6.08422">
        <ele>412.6</ele>
        <time>2013-06-09T09:39:44.000Z</time>
      </trkpt>
      <trkpt lat="47.29387" lon="6.08423">
        <ele>412.8</ele>
        <time>2013-06-09T09:39:45.000Z</time>
      </trkpt>
      <trkpt lat="47.2939" lon="6.08425">
        <ele>414.1</ele>
        <time>2013-06-09T09:39:48.000Z</time>
      </trkpt>
      <trkpt lat="47.29391" lon="6.08425">
        <ele>414.4</ele>
        <time>2013-06-09T09:39:49.000Z</time>
      </trkpt>
      <trkpt lat="47.29395" lon="6.08429">
        <ele>415.7</ele>
        <time>2013-06-09T09:39:53.000Z</time>
      </trkpt>
      <trkpt lat="47.29396" lon="6.0843">
        <ele>415.9</ele>
        <time>2013-06-09T09:39:54.000Z</time>
      </trkpt>
      <trkpt lat="47.29399" lon="6.08434">
        <ele>416.2</ele>
        <time>2013-06-09T09:39:58.000Z</time>
      </trkpt>
      <trkpt lat="47.29399" lon="6.08436">
        <ele>416.1</ele>
        <time>2013-06-09T09:39:59.000Z</time>
      </trkpt>
      <trkpt lat="47.29402" lon="6.08439">
        <ele>415.9</ele>
        <time>2013-06-09T09:40:02.000Z</time>
      </trkpt>
      <trkpt lat="47.29403" lon="6.0844">
        <ele>416</ele>
        <time>2013-06-09T09:40:03.000Z</time>
      </trkpt>
      <trkpt lat="47.29406" lon="6.08442">
        <ele>416.5</ele>
        <time>2013-06-09T09:40:06.000Z</time>
      </trkpt>
      <trkpt lat="47.29408" lon="6.08442">
        <ele>416.5</ele>
        <time>2013-06-09T09:40:07.000Z</time>
      </trkpt>
      <trkpt lat="47.29411" lon="6.08445">
        <ele>416.7</ele>
        <time>2013-06-09T09:40:10.000Z</time>
      </trkpt>
      <trkpt lat="47.29412" lon="6.08446">
        <ele>417.3</ele>
        <time>2013-06-09T09:40:11.000Z</time>
      </trkpt>
      <trkpt lat="47.29414" lon="6.08449">
        <ele>419</ele>
        <time>2013-06-09T09:40:14.000Z</time>
      </trkpt>
      <trkpt lat="47.29415" lon="6.0845">
        <ele>419.5</ele>
        <time>2013-06-09T09:40:15.000Z</time>
      </trkpt>
      <trkpt lat="47.29418" lon="6.08453">
        <ele>419.8</ele>
        <time>2013-06-09T09:40:18.000Z</time>
      </trkpt>
      <trkpt lat="47.29419" lon="6.08454">
        <ele>419.9</ele>
        <time>2013-06-09T09:40:19.000Z</time>
      </trkpt>
      <trkpt lat="47.29423" lon="6.08457">
        <ele>419.6</ele>
        <time>2013-06-09T09:40:22.000Z</time>
      </trkpt>
      <trkpt lat="47.29424" lon="6.08458">
        <ele>419.6</ele>
        <time>2013-06-09T09:40:23.000Z</time>
      </trkpt>
      <trkpt lat="47.29426" lon="6.08462">
        <ele>418.7</ele>
        <time>2013-06-09T09:40:26.000Z</time>
      </trkpt>
      <trkpt lat="47.29427" lon="6.08463">
        <ele>418.7</ele>
        <time>2013-06-09T09:40:27.000Z</time>
      </trkpt>
      <trkpt lat="47.2943" lon="6.08468">
        <ele>418.7</ele>
        <time>2013-06-09T09:40:31.000Z</time>
      </trkpt>
      <trkpt lat="47.2943" lon="6.0847">
        <ele>418.8</ele>
        <time>2013-06-09T09:40:32.000Z</time>
      </trkpt>
      <trkpt lat="47.29432" lon="6.08474">
        <ele>419.5</ele>
        <time>2013-06-09T09:40:35.000Z</time>
      </trkpt>
      <trkpt lat="47.29433" lon="6.08475">
        <ele>419.7</ele>
        <time>2013-06-09T09:40:36.000Z</time>
      </trkpt>
      <trkpt lat="47.29435" lon="6.08478">
        <ele>420.2</ele>
        <time>2013-06-09T09:40:39.000Z</time>
      </trkpt>
      <trkpt lat="47.29436" lon="6.08479">
        <ele>420.4</ele>
        <time>2013-06-09T09:40:40.000Z</time>
      </trkpt>
      <trkpt lat="47.2944" lon="6.08483">
        <ele>420.8</ele>
        <time>2013-06-09T09:40:44.000Z</time>
      </trkpt>
      <trkpt lat="47.29441" lon="6.08484">
        <ele>420.8</ele>
        <time>2013-06-09T09:40:45.000Z</time>
      </trkpt>
      <trkpt lat="47.29444" lon="6.08486">
        <ele>420.7</ele>
        <time>2013-06-09T09:40:48.000Z</time>
      </trkpt>
      <trkpt lat="47.29445" lon="6.08487">
        <ele>420.8</ele>
        <time>2013-06-09T09:40:49.000Z</time>
      </trkpt>
      <trkpt lat="47.29449" lon="6.08489">
        <ele>421</ele>
        <time>2013-06-09T09:40:52.000Z</time>
      </trkpt>
      <trkpt lat="47.2945" lon="6.0849">
        <ele>421</ele>
        <time>2013-06-09T09:40:53.000Z</time>
      </trkpt>
      <trkpt lat="47.29452" lon="6.08495">
        <ele>421.8</ele>
        <time>2013-06-09T09:40:57.000Z</time>
      </trkpt>
      <trkpt lat="47.29453" lon="6.08496">
        <ele>422</ele>
        <time>2013-06-09T09:40:58.000Z</time>
      </trkpt>
      <trkpt lat="47.29453" lon="6.08502">
        <ele>422</ele>
        <time>2013-06-09T09:41:02.000Z</time>
      </trkpt>
      <trkpt lat="47.29454" lon="6.08504">
        <ele>421.9</ele>
        <time>2013-06-09T09:41:03.000Z</time>
      </trkpt>
      <trkpt lat="47.29453" lon="6.08509">
        <ele>421.4</ele>
        <time>2013-06-09T09:41:07.000Z</time>
      </trkpt>
      <trkpt lat="47.29453" lon="6.08511">
        <ele>421.5</ele>
        <time>2013-06-09T09:41:08.000Z</time>
      </trkpt>
      <trkpt lat="47.29453" lon="6.08517">
        <ele>421.3</ele>
        <time>2013-06-09T09:41:12.000Z</time>
      </trkpt>
      <trkpt lat="47.29453" lon="6.08519">
        <ele>421.2</ele>
        <time>2013-06-09T09:41:13.000Z</time>
      </trkpt>
      <trkpt lat="47.29453" lon="6.08523">
        <ele>421.3</ele>
        <time>2013-06-09T09:41:16.000Z</time>
      </trkpt>
      <trkpt lat="47.29453" lon="6.08525">
        <ele>421.3</ele>
        <time>2013-06-09T09:41:17.000Z</time>
      </trkpt>
      <trkpt lat="47.29452" lon="6.0853">
        <ele>422.1</ele>
        <time>2013-06-09T09:41:20.000Z</time>
      </trkpt>
      <trkpt lat="47.29452" lon="6.08532">
        <ele>422.2</ele>
        <time>2013-06-09T09:41:21.000Z</time>
      </trkpt>
      <trkpt lat="47.29451" lon="6.08537">
        <ele>422.4</ele>
        <time>2013-06-09T09:41:24.000Z</time>
      </trkpt>
      <trkpt lat="47.29451" lon="6.08538">
        <ele>422.3</ele>
        <time>2013-06-09T09:41:25.000Z</time>
      </trkpt>
      <trkpt lat="47.2945" lon="6.08544">
        <ele>422</ele>
        <time>2013-06-09T09:41:29.000Z</time>
      </trkpt>
      <trkpt lat="47.2945" lon="6.08546">
        <ele>422</ele>
        <time>2013-06-09T09:41:30.000Z</time>
      </trkpt>
      <trkpt lat="47.29451" lon="6.08552">
        <ele>421.1</ele>
        <time>2013-06-09T09:41:34.000Z</time>
      </trkpt>
      <trkpt lat="47.29451" lon="6.08554">
        <ele>420.6</ele>
        <time>2013-06-09T09:41:35.000Z</time>
      </trkpt>
      <trkpt lat="47.29453" lon="6.08559">
        <ele>419.9</ele>
        <time>2013-06-09T09:41:39.000Z</time>
      </trkpt>
      <trkpt lat="47.29453" lon="6.08561">
        <ele>419.9</ele>
        <time>2013-06-09T09:41:40.000Z</time>
      </trkpt>
      <trkpt lat="47.29455" lon="6.08565">
        <ele>420.3</ele>
        <time>2013-06-09T09:41:43.000Z</time>
      </trkpt>
      <trkpt lat="47.29455" lon="6.08567">
        <ele>420.3</ele>
        <time>2013-06-09T09:41:44.000Z</time>
      </trkpt>
      <trkpt lat="47.29457" lon="6.08571">
        <ele>419.7</ele>
        <time>2013-06-09T09:41:47.000Z</time>
      </trkpt>
      <trkpt lat="47.29458" lon="6.08572">
        <ele>419.4</ele>
        <time>2013-06-09T09:41:48.000Z</time>
      </trkpt>
      <trkpt lat="47.29461" lon="6.08575">
        <ele>418.4</ele>
        <time>2013-06-09T09:41:51.000Z</time>
      </trkpt>
      <trkpt lat="47.29463" lon="6.08575">
        <ele>418</ele>
        <time>2013-06-09T09:41:52.000Z</time>
      </trkpt>
      <trkpt lat="47.29467" lon="6.08576">
        <ele>417.6</ele>
        <time>2013-06-09T09:41:55.000Z</time>
      </trkpt>
      <trkpt lat="47.29468" lon="6.08576">
        <ele>417.4</ele>
        <time>2013-06-09T09:41:56.000Z</time>
      </trkpt>
      <trkpt lat="47.29472" lon="6.08576">
        <ele>416</ele>
        <time>2013-06-09T09:41:59.000Z</time>
      </trkpt>
      <trkpt lat="47.29474" lon="6.08575">
        <ele>415.7</ele>
        <time>2013-06-09T09:42:00.000Z</time>
      </trkpt>
      <trkpt lat="47.29478" lon="6.08574">
        <ele>414.7</ele>
        <time>2013-06-09T09:42:03.000Z</time>
      </trkpt>
      <trkpt lat="47.29479" lon="6.08574">
        <ele>413.8</ele>
        <time>2013-06-09T09:42:04.000Z</time>
      </trkpt>
      <trkpt lat="47.29483" lon="6.08573">
        <ele>413.7</ele>
        <time>2013-06-09T09:42:07.000Z</time>
      </trkpt>
      <trkpt lat="47.29485" lon="6.08573">
        <ele>414</ele>
        <time>2013-06-09T09:42:08.000Z</time>
      </trkpt>
      <trkpt lat="47.29488" lon="6.08573">
        <ele>414.2</ele>
        <time>2013-06-09T09:42:11.000Z</time>
      </trkpt>
      <trkpt lat="47.29489" lon="6.08573">
        <ele>414</ele>
        <time>2013-06-09T09:42:12.000Z</time>
      </trkpt>
      <trkpt lat="47.29493" lon="6.08572">
        <ele>412.8</ele>
        <time>2013-06-09T09:42:15.000Z</time>
      </trkpt>
      <trkpt lat="47.29494" lon="6.08572">
        <ele>412.3</ele>
        <time>2013-06-09T09:42:16.000Z</time>
      </trkpt>
      <trkpt lat="47.29497" lon="6.08572">
        <ele>412.3</ele>
        <time>2013-06-09T09:42:19.000Z</time>
      </trkpt>
      <trkpt lat="47.29499" lon="6.08572">
        <ele>412.3</ele>
        <time>2013-06-09T09:42:20.000Z</time>
      </trkpt>
      <trkpt lat="47.29502" lon="6.08571">
        <ele>412.3</ele>
        <time>2013-06-09T09:42:23.000Z</time>
      </trkpt>
      <trkpt lat="47.29503" lon="6.0857">
        <ele>412</ele>
        <time>2013-06-09T09:42:24.000Z</time>
      </trkpt>
      <trkpt lat="47.29507" lon="6.0857">
        <ele>411.7</ele>
        <time>2013-06-09T09:42:28.000Z</time>
      </trkpt>
      <trkpt lat="47.29508" lon="6.0857">
        <ele>411.8</ele>
        <time>2013-06-09T09:42:29.000Z</time>
      </trkpt>
      <trkpt lat="47.29512" lon="6.08572">
        <ele>411.9</ele>
        <time>2013-06-09T09:42:33.000Z</time>
      </trkpt>
      <trkpt lat="47.29513" lon="6.08572">
        <ele>412</ele>
        <time>2013-06-09T09:42:34.000Z</time>
      </trkpt>
      <trkpt lat="47.29517" lon="6.08573">
        <ele>412.2</ele>
        <time>2013-06-09T09:42:38.000Z</time>
      </trkpt>
      <trkpt lat="47.29519" lon="6.08572">
        <ele>411.6</ele>
        <time>2013-06-09T09:42:39.000Z</time>
      </trkpt>
      <trkpt lat="47.29522" lon="6.08572">
        <ele>410.2</ele>
        <time>2013-06-09T09:42:42.000Z</time>
      </trkpt>
      <trkpt lat="47.29523" lon="6.08571">
        <ele>410.1</ele>
        <time>2013-06-09T09:42:43.000Z</time>
      </trkpt>
      <trkpt lat="47.29527" lon="6.0857">
        <ele>409.9</ele>
        <time>2013-06-09T09:42:46.000Z</time>
      </trkpt>
      <trkpt lat="47.29528" lon="6.0857">
        <ele>409.6</ele>
        <time>2013-06-09T09:42:47.000Z</time>
      </trkpt>
      <trkpt lat="47.29532" lon="6.08568">
        <ele>409.5</ele>
        <time>2013-06-09T09:42:51.000Z</time>
      </trkpt>
      <trkpt lat="47.29533" lon="6.08568">
        <ele>409.5</ele>
        <time>2013-06-09T09:42:52.000Z</time>
      </trkpt>
      <trkpt lat="47.29537" lon="6.08569">
        <ele>409.3</ele>
        <time>2013-06-09T09:42:56.000Z</time>
      </trkpt>
      <trkpt lat="47.29538" lon="6.0857">
        <ele>409.6</ele>
        <time>2013-06-09T09:42:57.000Z</time>
      </trkpt>
      <trkpt lat="47.29541" lon="6.08575">
        <ele>410.5</ele>
        <time>2013-06-09T09:43:01.000Z</time>
      </trkpt>
      <trkpt lat="47.29542" lon="6.08576">
        <ele>410.8</ele>
        <time>2013-06-09T09:43:02.000Z</time>
      </trkpt>
      <trkpt lat="47.29545" lon="6.08578">
        <ele>411.4</ele>
        <time>2013-06-09T09:43:05.000Z</time>
      </trkpt>
      <trkpt lat="47.29546" lon="6.08579">
        <ele>411.6</ele>
        <time>2013-06-09T09:43:06.000Z</time>
      </trkpt>
      <trkpt lat="47.2955" lon="6.08579">
        <ele>412.5</ele>
        <time>2013-06-09T09:43:10.000Z</time>
      </trkpt>
      <trkpt lat="47.29551" lon="6.0858">
        <ele>412.6</ele>
        <time>2013-06-09T09:43:11.000Z</time>
      </trkpt>
      <trkpt lat="47.29554" lon="6.08583">
        <ele>412.6</ele>
        <time>2013-06-09T09:43:15.000Z</time>
      </trkpt>
      <trkpt lat="47.29555" lon="6.08584">
        <ele>412.4</ele>
        <time>2013-06-09T09:43:16.000Z</time>
      </trkpt>
      <trkpt lat="47.29558" lon="6.08589">
        <ele>412.6</ele>
        <time>2013-06-09T09:43:20.000Z</time>
      </trkpt>
      <trkpt lat="47.29558" lon="6.08591">
        <ele>412.7</ele>
        <time>2013-06-09T09:43:21.000Z</time>
      </trkpt>
      <trkpt lat="47.2956" lon="6.08596">
        <ele>413.5</ele>
        <time>2013-06-09T09:43:24.000Z</time>
      </trkpt>
      <trkpt lat="47.2956" lon="6.08597">
        <ele>413.5</ele>
        <time>2013-06-09T09:43:25.000Z</time>
      </trkpt>
      <trkpt lat="47.2956" lon="6.08603">
        <ele>413.9</ele>
        <time>2013-06-09T09:43:28.000Z</time>
      </trkpt>
      <trkpt lat="47.2956" lon="6.08605">
        <ele>414.1</ele>
        <time>2013-06-09T09:43:29.000Z</time>
      </trkpt>
      <trkpt lat="47.2956" lon="6.0861">
        <ele>414.7</ele>
        <time>2013-06-09T09:43:32.000Z</time>
      </trkpt>
      <trkpt lat="47.29561" lon="6.08612">
        <ele>415.1</ele>
        <time>2013-06-09T09:43:33.000Z</time>
      </trkpt>
      <trkpt lat="47.29563" lon="6.08616">
        <ele>416</ele>
        <time>2013-06-09T09:43:36.000Z</time>
      </trkpt>
      <trkpt lat="47.29564" lon="6.08618">
        <ele>416</ele>
        <time>2013-06-09T09:43:37.000Z</time>
      </trkpt>
      <trkpt lat="47.29567" lon="6.08621">
        <ele>416.3</ele>
        <time>2013-06-09T09:43:40.000Z</time>
      </trkpt>
      <trkpt lat="47.29569" lon="6.08622">
        <ele>416.3</ele>
        <time>2013-06-09T09:43:41.000Z</time>
      </trkpt>
      <trkpt lat="47.29573" lon="6.08624">
        <ele>417</ele>
        <time>2013-06-09T09:43:44.000Z</time>
      </trkpt>
      <trkpt lat="47.29574" lon="6.08624">
        <ele>416.8</ele>
        <time>2013-06-09T09:43:45.000Z</time>
      </trkpt>
      <trkpt lat="47.29578" lon="6.08624">
        <ele>416.2</ele>
        <time>2013-06-09T09:43:48.000Z</time>
      </trkpt>
      <trkpt lat="47.29579" lon="6.08624">
        <ele>416</ele>
        <time>2013-06-09T09:43:49.000Z</time>
      </trkpt>
      <trkpt lat="47.29583" lon="6.08625">
        <ele>416.4</ele>
        <time>2013-06-09T09:43:52.000Z</time>
      </trkpt>
      <trkpt lat="47.29585" lon="6.08625">
        <ele>416.2</ele>
        <time>2013-06-09T09:43:53.000Z</time>
      </trkpt>
      <trkpt lat="47.29589" lon="6.08626">
        <ele>415.4</ele>
        <time>2013-06-09T09:43:56.000Z</time>
      </trkpt>
      <trkpt lat="47.2959" lon="6.08625">
        <ele>415</ele>
        <time>2013-06-09T09:43:57.000Z</time>
      </trkpt>
      <trkpt lat="47.29593" lon="6.08625">
        <ele>413.4</ele>
        <time>2013-06-09T09:44:00.000Z</time>
      </trkpt>
      <trkpt lat="47.29595" lon="6.08626">
        <ele>412.5</ele>
        <time>2013-06-09T09:44:01.000Z</time>
      </trkpt>
      <trkpt lat="47.29598" lon="6.08629">
        <ele>412.5</ele>
        <time>2013-06-09T09:44:04.000Z</time>
      </trkpt>
      <trkpt lat="47.29599" lon="6.0863">
        <ele>412.6</ele>
        <time>2013-06-09T09:44:05.000Z</time>
      </trkpt>
      <trkpt lat="47.29602" lon="6.08633">
        <ele>412.6</ele>
        <time>2013-06-09T09:44:09.000Z</time>
      </trkpt>
      <trkpt lat="47.29603" lon="6.08634">
        <ele>412.8</ele>
        <time>2013-06-09T09:44:10.000Z</time>
      </trkpt>
      <trkpt lat="47.29607" lon="6.08638">
        <ele>413.3</ele>
        <time>2013-06-09T09:44:14.000Z</time>
      </trkpt>
      <trkpt lat="47.29608" lon="6.08639">
        <ele>413.2</ele>
        <time>2013-06-09T09:44:15.000Z</time>
      </trkpt>
      <trkpt lat="47.2961" lon="6.08642">
        <ele>413</ele>
        <time>2013-06-09T09:44:18.000Z</time>
      </trkpt>
      <trkpt lat="47.29611" lon="6.08643">
        <ele>413.1</ele>
        <time>2013-06-09T09:44:19.000Z</time>
      </trkpt>
      <trkpt lat="47.29614" lon="6.08646">
        <ele>413</ele>
        <time>2013-06-09T09:44:22.000Z</time>
      </trkpt>
      <trkpt lat="47.29615" lon="6.08647">
        <ele>413</ele>
        <time>2013-06-09T09:44:23.000Z</time>
      </trkpt>
      <trkpt lat="47.29618" lon="6.0865">
        <ele>412.8</ele>
        <time>2013-06-09T09:44:26.000Z</time>
      </trkpt>
      <trkpt lat="47.29619" lon="6.08651">
        <ele>412.6</ele>
        <time>2013-06-09T09:44:27.000Z</time>
      </trkpt>
      <trkpt lat="47.29622" lon="6.08654">
        <ele>412.3</ele>
        <time>2013-06-09T09:44:30.000Z</time>
      </trkpt>
      <trkpt lat="47.29623" lon="6.08656">
        <ele>412.2</ele>
        <time>2013-06-09T09:44:31.000Z</time>
      </trkpt>
      <trkpt lat="47.29626" lon="6.08659">
        <ele>411.9</ele>
        <time>2013-06-09T09:44:34.000Z</time>
      </trkpt>
      <trkpt lat="47.29627" lon="6.0866">
        <ele>411.9</ele>
        <time>2013-06-09T09:44:35.000Z</time>
      </trkpt>
      <trkpt lat="47.2963" lon="6.08664">
        <ele>411.5</ele>
        <time>2013-06-09T09:44:38.000Z</time>
      </trkpt>
      <trkpt lat="47.29631" lon="6.08665">
        <ele>411.6</ele>
        <time>2013-06-09T09:44:39.000Z</time>
      </trkpt>
      <trkpt lat="47.29634" lon="6.08668">
        <ele>411.8</ele>
        <time>2013-06-09T09:44:42.000Z</time>
      </trkpt>
      <trkpt lat="47.29635" lon="6.08669">
        <ele>411.8</ele>
        <time>2013-06-09T09:44:43.000Z</time>
      </trkpt>
      <trkpt lat="47.29638" lon="6.08673">
        <ele>412</ele>
        <time>2013-06-09T09:44:46.000Z</time>
      </trkpt>
      <trkpt lat="47.29639" lon="6.08674">
        <ele>412.1</ele>
        <time>2013-06-09T09:44:47.000Z</time>
      </trkpt>
      <trkpt lat="47.29641" lon="6.08678">
        <ele>412</ele>
        <time>2013-06-09T09:44:50.000Z</time>
      </trkpt>
      <trkpt lat="47.29642" lon="6.08679">
        <ele>411.9</ele>
        <time>2013-06-09T09:44:51.000Z</time>
      </trkpt>
      <trkpt lat="47.29645" lon="6.08682">
        <ele>411.9</ele>
        <time>2013-06-09T09:44:54.000Z</time>
      </trkpt>
      <trkpt lat="47.29646" lon="6.08683">
        <ele>411.9</ele>
        <time>2013-06-09T09:44:55.000Z</time>
      </trkpt>
      <trkpt lat="47.29649" lon="6.08686">
        <ele>411.7</ele>
        <time>2013-06-09T09:44:58.000Z</time>
      </trkpt>
      <trkpt lat="47.2965" lon="6.08687">
        <ele>411.6</ele>
        <time>2013-06-09T09:44:59.000Z</time>
      </trkpt>
      <trkpt lat="47.29654" lon="6.08689">
        <ele>410.9</ele>
        <time>2013-06-09T09:45:02.000Z</time>
      </trkpt>
      <trkpt lat="47.29655" lon="6.0869">
        <ele>410.7</ele>
        <time>2013-06-09T09:45:03.000Z</time>
      </trkpt>
      <trkpt lat="47.29658" lon="6.08693">
        <ele>409.9</ele>
        <time>2013-06-09T09:45:06.000Z</time>
      </trkpt>
      <trkpt lat="47.29659" lon="6.08694">
        <ele>409.6</ele>
        <time>2013-06-09T09:45:07.000Z</time>
      </trkpt>
      <trkpt lat="47.29663" lon="6.08696">
        <ele>410</ele>
        <time>2013-06-09T09:45:10.000Z</time>
      </trkpt>
      <trkpt lat="47.29664" lon="6.08697">
        <ele>410.3</ele>
        <time>2013-06-09T09:45:11.000Z</time>
      </trkpt>
      <trkpt lat="47.29667" lon="6.087">
        <ele>411.4</ele>
        <time>2013-06-09T09:45:15.000Z</time>
      </trkpt>
      <trkpt lat="47.29668" lon="6.08701">
        <ele>411.2</ele>
        <time>2013-06-09T09:45:16.000Z</time>
      </trkpt>
      <trkpt lat="47.29672" lon="6.08704">
        <ele>411.4</ele>
        <time>2013-06-09T09:45:20.000Z</time>
      </trkpt>
      <trkpt lat="47.29673" lon="6.08704">
        <ele>411.6</ele>
        <time>2013-06-09T09:45:21.000Z</time>
      </trkpt>
      <trkpt lat="47.29676" lon="6.08706">
        <ele>412.2</ele>
        <time>2013-06-09T09:45:24.000Z</time>
      </trkpt>
      <trkpt lat="47.29677" lon="6.08707">
        <ele>412.4</ele>
        <time>2013-06-09T09:45:25.000Z</time>
      </trkpt>
      <trkpt lat="47.2968" lon="6.08711">
        <ele>413</ele>
        <time>2013-06-09T09:45:28.000Z</time>
      </trkpt>
      <trkpt lat="47.29681" lon="6.08712">
        <ele>413</ele>
        <time>2013-06-09T09:45:29.000Z</time>
      </trkpt>
      <trkpt lat="47.29683" lon="6.08716">
        <ele>413.2</ele>
        <time>2013-06-09T09:45:32.000Z</time>
      </trkpt>
      <trkpt lat="47.29684" lon="6.08717">
        <ele>413.3</ele>
        <time>2013-06-09T09:45:33.000Z</time>
      </trkpt>
      <trkpt lat="47.29687" lon="6.0872">
        <ele>413.6</ele>
        <time>2013-06-09T09:45:36.000Z</time>
      </trkpt>
      <trkpt lat="47.29688" lon="6.08721">
        <ele>414.1</ele>
        <time>2013-06-09T09:45:37.000Z</time>
      </trkpt>
      <trkpt lat="47.29691" lon="6.08723">
        <ele>415</ele>
        <time>2013-06-09T09:45:40.000Z</time>
      </trkpt>
      <trkpt lat="47.29693" lon="6.08724">
        <ele>415.5</ele>
        <time>2013-06-09T09:45:41.000Z</time>
      </trkpt>
      <trkpt lat="47.29696" lon="6.08726">
        <ele>415.9</ele>
        <time>2013-06-09T09:45:44.000Z</time>
      </trkpt>
      <trkpt lat="47.29697" lon="6.08727">
        <ele>415.8</ele>
        <time>2013-06-09T09:45:45.000Z</time>
      </trkpt>
      <trkpt lat="47.297" lon="6.0873">
        <ele>416.2</ele>
        <time>2013-06-09T09:45:48.000Z</time>
      </trkpt>
      <trkpt lat="47.29701" lon="6.08731">
        <ele>416</ele>
        <time>2013-06-09T09:45:49.000Z</time>
      </trkpt>
      <trkpt lat="47.29704" lon="6.08733">
        <ele>416.1</ele>
        <time>2013-06-09T09:45:52.000Z</time>
      </trkpt>
      <trkpt lat="47.29705" lon="6.08734">
        <ele>415.9</ele>
        <time>2013-06-09T09:45:53.000Z</time>
      </trkpt>
      <trkpt lat="47.29709" lon="6.08737">
        <ele>415.8</ele>
        <time>2013-06-09T09:45:56.000Z</time>
      </trkpt>
      <trkpt lat="47.2971" lon="6.08738">
        <ele>415.9</ele>
        <time>2013-06-09T09:45:57.000Z</time>
      </trkpt>
      <trkpt lat="47.29713" lon="6.08741">
        <ele>414.6</ele>
        <time>2013-06-09T09:46:00.000Z</time>
      </trkpt>
      <trkpt lat="47.29714" lon="6.08743">
        <ele>414.4</ele>
        <time>2013-06-09T09:46:01.000Z</time>
      </trkpt>
      <trkpt lat="47.29717" lon="6.08746">
        <ele>414.5</ele>
        <time>2013-06-09T09:46:04.000Z</time>
      </trkpt>
      <trkpt lat="47.29718" lon="6.08747">
        <ele>414.2</ele>
        <time>2013-06-09T09:46:05.000Z</time>
      </trkpt>
      <trkpt lat="47.29721" lon="6.08751">
        <ele>414</ele>
        <time>2013-06-09T09:46:08.000Z</time>
      </trkpt>
      <trkpt lat="47.29722" lon="6.08752">
        <ele>413.8</ele>
        <time>2013-06-09T09:46:09.000Z</time>
      </trkpt>
      <trkpt lat="47.29725" lon="6.08755">
        <ele>413.9</ele>
        <time>2013-06-09T09:46:12.000Z</time>
      </trkpt>
      <trkpt lat="47.29726" lon="6.08756">
        <ele>414</ele>
        <time>2013-06-09T09:46:13.000Z</time>
      </trkpt>
      <trkpt lat="47.2973" lon="6.08759">
        <ele>414.2</ele>
        <time>2013-06-09T09:46:16.000Z</time>
      </trkpt>
      <trkpt lat="47.29731" lon="6.0876">
        <ele>414.4</ele>
        <time>2013-06-09T09:46:17.000Z</time>
      </trkpt>
      <trkpt lat="47.29734" lon="6.08762">
        <ele>415.1</ele>
        <time>2013-06-09T09:46:20.000Z</time>
      </trkpt>
      <trkpt lat="47.29735" lon="6.08763">
        <ele>415.1</ele>
        <time>2013-06-09T09:46:21.000Z</time>
      </trkpt>
      <trkpt lat="47.29738" lon="6.08766">
        <ele>415.2</ele>
        <time>2013-06-09T09:46:24.000Z</time>
      </trkpt>
      <trkpt lat="47.29739" lon="6.08767">
        <ele>415.3</ele>
        <time>2013-06-09T09:46:25.000Z</time>
      </trkpt>
      <trkpt lat="47.29742" lon="6.08771">
        <ele>415.4</ele>
        <time>2013-06-09T09:46:28.000Z</time>
      </trkpt>
      <trkpt lat="47.29743" lon="6.08772">
        <ele>415.5</ele>
        <time>2013-06-09T09:46:29.000Z</time>
      </trkpt>
      <trkpt lat="47.29746" lon="6.08775">
        <ele>415.9</ele>
        <time>2013-06-09T09:46:32.000Z</time>
      </trkpt>
      <trkpt lat="47.29747" lon="6.08776">
        <ele>416.2</ele>
        <time>2013-06-09T09:46:33.000Z</time>
      </trkpt>
      <trkpt lat="47.29749" lon="6.08778">
        <ele>416.5</ele>
        <time>2013-06-09T09:46:36.000Z</time>
      </trkpt>
      <trkpt lat="47.29751" lon="6.08779">
        <ele>416.6</ele>
        <time>2013-06-09T09:46:37.000Z</time>
      </trkpt>
      <trkpt lat="47.29754" lon="6.08781">
        <ele>417.6</ele>
        <time>2013-06-09T09:46:40.000Z</time>
      </trkpt>
      <trkpt lat="47.29755" lon="6.08781">
        <ele>417.8</ele>
        <time>2013-06-09T09:46:41.000Z</time>
      </trkpt>
      <trkpt lat="47.29758" lon="6.08783">
        <ele>418.4</ele>
        <time>2013-06-09T09:46:44.000Z</time>
      </trkpt>
      <trkpt lat="47.29759" lon="6.08783">
        <ele>418.3</ele>
        <time>2013-06-09T09:46:45.000Z</time>
      </trkpt>
      <trkpt lat="47.29763" lon="6.08785">
        <ele>417.7</ele>
        <time>2013-06-09T09:46:48.000Z</time>
      </trkpt>
      <trkpt lat="47.29764" lon="6.08785">
        <ele>417.6</ele>
        <time>2013-06-09T09:46:49.000Z</time>
      </trkpt>
      <trkpt lat="47.29767" lon="6.08788">
        <ele>417.8</ele>
        <time>2013-06-09T09:46:52.000Z</time>
      </trkpt>
      <trkpt lat="47.29768" lon="6.08789">
        <ele>418</ele>
        <time>2013-06-09T09:46:53.000Z</time>
      </trkpt>
      <trkpt lat="47.29771" lon="6.08792">
        <ele>418.8</ele>
        <time>2013-06-09T09:46:56.000Z</time>
      </trkpt>
      <trkpt lat="47.29771" lon="6.08793">
        <ele>419.1</ele>
        <time>2013-06-09T09:46:57.000Z</time>
      </trkpt>
      <trkpt lat="47.29774" lon="6.08796">
        <ele>420.2</ele>
        <time>2013-06-09T09:47:00.000Z</time>
      </trkpt>
      <trkpt lat="47.29775" lon="6.08798">
        <ele>420.3</ele>
        <time>2013-06-09T09:47:01.000Z</time>
      </trkpt>
      <trkpt lat="47.29777" lon="6.08801">
        <ele>420.4</ele>
        <time>2013-06-09T09:47:04.000Z</time>
      </trkpt>
      <trkpt lat="47.29778" lon="6.08802">
        <ele>420.3</ele>
        <time>2013-06-09T09:47:05.000Z</time>
      </trkpt>
      <trkpt lat="47.29781" lon="6.08806">
        <ele>420.4</ele>
        <time>2013-06-09T09:47:08.000Z</time>
      </trkpt>
      <trkpt lat="47.29782" lon="6.08807">
        <ele>420.5</ele>
        <time>2013-06-09T09:47:09.000Z</time>
      </trkpt>
      <trkpt lat="47.29785" lon="6.08811">
        <ele>420.4</ele>
        <time>2013-06-09T09:47:13.000Z</time>
      </trkpt>
      <trkpt lat="47.29786" lon="6.08812">
        <ele>420.6</ele>
        <time>2013-06-09T09:47:14.000Z</time>
      </trkpt>
      <trkpt lat="47.29788" lon="6.08815">
        <ele>420.8</ele>
        <time>2013-06-09T09:47:17.000Z</time>
      </trkpt>
      <trkpt lat="47.29789" lon="6.08816">
        <ele>420.8</ele>
        <time>2013-06-09T09:47:18.000Z</time>
      </trkpt>
      <trkpt lat="47.29792" lon="6.0882">
        <ele>420.6</ele>
        <time>2013-06-09T09:47:21.000Z</time>
      </trkpt>
      <trkpt lat="47.29793" lon="6.08821">
        <ele>420.4</ele>
        <time>2013-06-09T09:47:22.000Z</time>
      </trkpt>
      <trkpt lat="47.29795" lon="6.08824">
        <ele>420.9</ele>
        <time>2013-06-09T09:47:25.000Z</time>
      </trkpt>
      <trkpt lat="47.29796" lon="6.08826">
        <ele>421</ele>
        <time>2013-06-09T09:47:26.000Z</time>
      </trkpt>
      <trkpt lat="47.29799" lon="6.08829">
        <ele>421.5</ele>
        <time>2013-06-09T09:47:29.000Z</time>
      </trkpt>
      <trkpt lat="47.298" lon="6.0883">
        <ele>421.6</ele>
        <time>2013-06-09T09:47:30.000Z</time>
      </trkpt>
      <trkpt lat="47.29802" lon="6.08833">
        <ele>421.2</ele>
        <time>2013-06-09T09:47:33.000Z</time>
      </trkpt>
      <trkpt lat="47.29803" lon="6.08834">
        <ele>421.2</ele>
        <time>2013-06-09T09:47:34.000Z</time>
      </trkpt>
      <trkpt lat="47.29807" lon="6.08837">
        <ele>421.8</ele>
        <time>2013-06-09T09:47:37.000Z</time>
      </trkpt>
      <trkpt lat="47.29808" lon="6.08838">
        <ele>422.7</ele>
        <time>2013-06-09T09:47:38.000Z</time>
      </trkpt>
      <trkpt lat="47.29812" lon="6.0884">
        <ele>424.1</ele>
        <time>2013-06-09T09:47:42.000Z</time>
      </trkpt>
      <trkpt lat="47.29813" lon="6.08841">
        <ele>424.2</ele>
        <time>2013-06-09T09:47:43.000Z</time>
      </trkpt>
      <trkpt lat="47.29817" lon="6.08844">
        <ele>424.4</ele>
        <time>2013-06-09T09:47:47.000Z</time>
      </trkpt>
      <trkpt lat="47.29818" lon="6.08845">
        <ele>424.4</ele>
        <time>2013-06-09T09:47:48.000Z</time>
      </trkpt>
      <trkpt lat="47.2982" lon="6.08848">
        <ele>424.7</ele>
        <time>2013-06-09T09:47:51.000Z</time>
      </trkpt>
      <trkpt lat="47.29821" lon="6.08848">
        <ele>425</ele>
        <time>2013-06-09T09:47:52.000Z</time>
      </trkpt>
      <trkpt lat="47.29825" lon="6.08853">
        <ele>425.9</ele>
        <time>2013-06-09T09:47:56.000Z</time>
      </trkpt>
      <trkpt lat="47.29825" lon="6.08853">
        <ele>426.2</ele>
        <time>2013-06-09T09:47:57.000Z</time>
      </trkpt>
      <trkpt lat="47.29829" lon="6.08857">
        <ele>426.6</ele>
        <time>2013-06-09T09:48:01.000Z</time>
      </trkpt>
      <trkpt lat="47.2983" lon="6.08858">
        <ele>427</ele>
        <time>2013-06-09T09:48:02.000Z</time>
      </trkpt>
      <trkpt lat="47.29832" lon="6.08863">
        <ele>427.6</ele>
        <time>2013-06-09T09:48:06.000Z</time>
      </trkpt>
      <trkpt lat="47.29833" lon="6.08864">
        <ele>427.6</ele>
        <time>2013-06-09T09:48:07.000Z</time>
      </trkpt>
      <trkpt lat="47.29835" lon="6.08868">
        <ele>426.6</ele>
        <time>2013-06-09T09:48:11.000Z</time>
      </trkpt>
      <trkpt lat="47.29836" lon="6.08869">
        <ele>426.5</ele>
        <time>2013-06-09T09:48:12.000Z</time>
      </trkpt>
      <trkpt lat="47.29839" lon="6.08872">
        <ele>426</ele>
        <time>2013-06-09T09:48:15.000Z</time>
      </trkpt>
      <trkpt lat="47.2984" lon="6.08873">
        <ele>425.9</ele>
        <time>2013-06-09T09:48:16.000Z</time>
      </trkpt>
      <trkpt lat="47.29843" lon="6.08877">
        <ele>425.8</ele>
        <time>2013-06-09T09:48:19.000Z</time>
      </trkpt>
      <trkpt lat="47.29844" lon="6.08878">
        <ele>425.8</ele>
        <time>2013-06-09T09:48:20.000Z</time>
      </trkpt>
      <trkpt lat="47.29846" lon="6.08882">
        <ele>425.9</ele>
        <time>2013-06-09T09:48:23.000Z</time>
      </trkpt>
      <trkpt lat="47.29848" lon="6.08883">
        <ele>425.8</ele>
        <time>2013-06-09T09:48:24.000Z</time>
      </trkpt>
      <trkpt lat="47.29851" lon="6.08885">
        <ele>425.5</ele>
        <time>2013-06-09T09:48:27.000Z</time>
      </trkpt>
      <trkpt lat="47.29852" lon="6.08886">
        <ele>425.4</ele>
        <time>2013-06-09T09:48:28.000Z</time>
      </trkpt>
      <trkpt lat="47.29855" lon="6.08888">
        <ele>425.2</ele>
        <time>2013-06-09T09:48:31.000Z</time>
      </trkpt>
      <trkpt lat="47.29856" lon="6.08889">
        <ele>425.5</ele>
        <time>2013-06-09T09:48:32.000Z</time>
      </trkpt>
      <trkpt lat="47.29859" lon="6.08893">
        <ele>426.4</ele>
        <time>2013-06-09T09:48:35.000Z</time>
      </trkpt>
      <trkpt lat="47.2986" lon="6.08894">
        <ele>426.8</ele>
        <time>2013-06-09T09:48:36.000Z</time>
      </trkpt>
      <trkpt lat="47.29862" lon="6.08898">
        <ele>428.1</ele>
        <time>2013-06-09T09:48:40.000Z</time>
      </trkpt>
      <trkpt lat="47.29863" lon="6.08899">
        <ele>428.3</ele>
        <time>2013-06-09T09:48:41.000Z</time>
      </trkpt>
      <trkpt lat="47.29867" lon="6.08902">
        <ele>427.9</ele>
        <time>2013-06-09T09:48:45.000Z</time>
      </trkpt>
      <trkpt lat="47.29868" lon="6.08903">
        <ele>427.7</ele>
        <time>2013-06-09T09:48:46.000Z</time>
      </trkpt>
      <trkpt lat="47.29871" lon="6.08906">
        <ele>427.7</ele>
        <time>2013-06-09T09:48:49.000Z</time>
      </trkpt>
      <trkpt lat="47.29873" lon="6.08906">
        <ele>427.9</ele>
        <time>2013-06-09T09:48:50.000Z</time>
      </trkpt>
      <trkpt lat="47.29876" lon="6.08908">
        <ele>428.3</ele>
        <time>2013-06-09T09:48:53.000Z</time>
      </trkpt>
      <trkpt lat="47.29877" lon="6.08909">
        <ele>428.4</ele>
        <time>2013-06-09T09:48:54.000Z</time>
      </trkpt>
      <trkpt lat="47.29881" lon="6.08912">
        <ele>428.7</ele>
        <time>2013-06-09T09:48:57.000Z</time>
      </trkpt>
      <trkpt lat="47.29882" lon="6.08913">
        <ele>428.5</ele>
        <time>2013-06-09T09:48:58.000Z</time>
      </trkpt>
      <trkpt lat="47.29885" lon="6.08917">
        <ele>428.1</ele>
        <time>2013-06-09T09:49:01.000Z</time>
      </trkpt>
      <trkpt lat="47.29886" lon="6.08918">
        <ele>428.4</ele>
        <time>2013-06-09T09:49:02.000Z</time>
      </trkpt>
      <trkpt lat="47.29889" lon="6.08921">
        <ele>428.6</ele>
        <time>2013-06-09T09:49:05.000Z</time>
      </trkpt>
      <trkpt lat="47.2989" lon="6.08923">
        <ele>428.6</ele>
        <time>2013-06-09T09:49:06.000Z</time>
      </trkpt>
      <trkpt lat="47.29893" lon="6.08926">
        <ele>428.1</ele>
        <time>2013-06-09T09:49:09.000Z</time>
      </trkpt>
      <trkpt lat="47.29895" lon="6.08926">
        <ele>428.2</ele>
        <time>2013-06-09T09:49:10.000Z</time>
      </trkpt>
      <trkpt lat="47.29898" lon="6.0893">
        <ele>428.3</ele>
        <time>2013-06-09T09:49:13.000Z</time>
      </trkpt>
      <trkpt lat="47.29899" lon="6.08931">
        <ele>428</ele>
        <time>2013-06-09T09:49:14.000Z</time>
      </trkpt>
      <trkpt lat="47.29901" lon="6.08936">
        <ele>427.7</ele>
        <time>2013-06-09T09:49:17.000Z</time>
      </trkpt>
      <trkpt lat="47.29903" lon="6.08936">
        <ele>427.6</ele>
        <time>2013-06-09T09:49:18.000Z</time>
      </trkpt>
      <trkpt lat="47.29907" lon="6.08936">
        <ele>427.4</ele>
        <time>2013-06-09T09:49:21.000Z</time>
      </trkpt>
      <trkpt lat="47.29908" lon="6.08936">
        <ele>427.2</ele>
        <time>2013-06-09T09:49:22.000Z</time>
      </trkpt>
      <trkpt lat="47.29912" lon="6.08933">
        <ele>426.8</ele>
        <time>2013-06-09T09:49:25.000Z</time>
      </trkpt>
      <trkpt lat="47.29913" lon="6.08931">
        <ele>426.5</ele>
        <time>2013-06-09T09:49:26.000Z</time>
      </trkpt>
      <trkpt lat="47.29917" lon="6.08927">
        <ele>426.2</ele>
        <time>2013-06-09T09:49:29.000Z</time>
      </trkpt>
      <trkpt lat="47.29918" lon="6.08926">
        <ele>426.1</ele>
        <time>2013-06-09T09:49:30.000Z</time>
      </trkpt>
      <trkpt lat="47.29921" lon="6.08924">
        <ele>426.2</ele>
        <time>2013-06-09T09:49:32.000Z</time>
      </trkpt>
      <trkpt lat="47.29922" lon="6.08924">
        <ele>426</ele>
        <time>2013-06-09T09:49:33.000Z</time>
      </trkpt>
      <trkpt lat="47.29926" lon="6.08921">
        <ele>425.4</ele>
        <time>2013-06-09T09:49:36.000Z</time>
      </trkpt>
      <trkpt lat="47.29927" lon="6.08921">
        <ele>425.6</ele>
        <time>2013-06-09T09:49:37.000Z</time>
      </trkpt>
      <trkpt lat="47.29931" lon="6.08919">
        <ele>425.1</ele>
        <time>2013-06-09T09:49:40.000Z</time>
      </trkpt>
      <trkpt lat="47.29933" lon="6.08918">
        <ele>424.6</ele>
        <time>2013-06-09T09:49:41.000Z</time>
      </trkpt>
      <trkpt lat="47.29937" lon="6.08918">
        <ele>424.6</ele>
        <time>2013-06-09T09:49:44.000Z</time>
      </trkpt>
      <trkpt lat="47.29938" lon="6.08919">
        <ele>424.8</ele>
        <time>2013-06-09T09:49:45.000Z</time>
      </trkpt>
      <trkpt lat="47.29942" lon="6.08918">
        <ele>425.2</ele>
        <time>2013-06-09T09:49:48.000Z</time>
      </trkpt>
      <trkpt lat="47.29943" lon="6.08918">
        <ele>425.3</ele>
        <time>2013-06-09T09:49:49.000Z</time>
      </trkpt>
      <trkpt lat="47.29946" lon="6.08914">
        <ele>425.2</ele>
        <time>2013-06-09T09:49:52.000Z</time>
      </trkpt>
      <trkpt lat="47.29946" lon="6.08913">
        <ele>425.3</ele>
        <time>2013-06-09T09:49:53.000Z</time>
      </trkpt>
      <trkpt lat="47.29949" lon="6.08911">
        <ele>424.9</ele>
        <time>2013-06-09T09:49:56.000Z</time>
      </trkpt>
      <trkpt lat="47.29951" lon="6.0891">
        <ele>424.8</ele>
        <time>2013-06-09T09:49:57.000Z</time>
      </trkpt>
      <trkpt lat="47.29954" lon="6.08909">
        <ele>424.4</ele>
        <time>2013-06-09T09:50:00.000Z</time>
      </trkpt>
      <trkpt lat="47.29955" lon="6.08908">
        <ele>424.6</ele>
        <time>2013-06-09T09:50:01.000Z</time>
      </trkpt>
      <trkpt lat="47.29958" lon="6.08907">
        <ele>424.8</ele>
        <time>2013-06-09T09:50:04.000Z</time>
      </trkpt>
      <trkpt lat="47.29959" lon="6.08907">
        <ele>424.7</ele>
        <time>2013-06-09T09:50:05.000Z</time>
      </trkpt>
      <trkpt lat="47.29963" lon="6.08907">
        <ele>424.7</ele>
        <time>2013-06-09T09:50:08.000Z</time>
      </trkpt>
      <trkpt lat="47.29964" lon="6.08907">
        <ele>424.8</ele>
        <time>2013-06-09T09:50:09.000Z</time>
      </trkpt>
      <trkpt lat="47.29967" lon="6.08911">
        <ele>424.9</ele>
        <time>2013-06-09T09:50:12.000Z</time>
      </trkpt>
      <trkpt lat="47.29968" lon="6.08912">
        <ele>424.9</ele>
        <time>2013-06-09T09:50:13.000Z</time>
      </trkpt>
      <trkpt lat="47.2997" lon="6.08917">
        <ele>424.9</ele>
        <time>2013-06-09T09:50:16.000Z</time>
      </trkpt>
      <trkpt lat="47.2997" lon="6.08918">
        <ele>425.1</ele>
        <time>2013-06-09T09:50:17.000Z</time>
      </trkpt>
      <trkpt lat="47.2997" lon="6.08923">
        <ele>424.9</ele>
        <time>2013-06-09T09:50:20.000Z</time>
      </trkpt>
      <trkpt lat="47.29969" lon="6.08925">
        <ele>424.9</ele>
        <time>2013-06-09T09:50:21.000Z</time>
      </trkpt>
      <trkpt lat="47.29968" lon="6.08931">
        <ele>424.9</ele>
        <time>2013-06-09T09:50:25.000Z</time>
      </trkpt>
      <trkpt lat="47.29968" lon="6.08932">
        <ele>424.8</ele>
        <time>2013-06-09T09:50:26.000Z</time>
      </trkpt>
      <trkpt lat="47.29966" lon="6.08937">
        <ele>425.2</ele>
        <time>2013-06-09T09:50:30.000Z</time>
      </trkpt>
      <trkpt lat="47.29966" lon="6.08938">
        <ele>425</ele>
        <time>2013-06-09T09:50:31.000Z</time>
      </trkpt>
      <trkpt lat="47.29966" lon="6.08945">
        <ele>426.1</ele>
        <time>2013-06-09T09:50:36.000Z</time>
      </trkpt>
      <trkpt lat="47.29966" lon="6.08946">
        <ele>426.3</ele>
        <time>2013-06-09T09:50:37.000Z</time>
      </trkpt>
      <trkpt lat="47.29968" lon="6.08952">
        <ele>426.9</ele>
        <time>2013-06-09T09:50:42.000Z</time>
      </trkpt>
      <trkpt lat="47.29968" lon="6.08953">
        <ele>427.2</ele>
        <time>2013-06-09T09:50:43.000Z</time>
      </trkpt>
      <trkpt lat="47.2997" lon="6.08959">
        <ele>427.5</ele>
        <time>2013-06-09T09:50:47.000Z</time>
      </trkpt>
      <trkpt lat="47.2997" lon="6.0896">
        <ele>427.4</ele>
        <time>2013-06-09T09:50:48.000Z</time>
      </trkpt>
      <trkpt lat="47.29971" lon="6.08965">
        <ele>427</ele>
        <time>2013-06-09T09:50:51.000Z</time>
      </trkpt>
      <trkpt lat="47.29972" lon="6.08967">
        <ele>427.2</ele>
        <time>2013-06-09T09:50:52.000Z</time>
      </trkpt>
      <trkpt lat="47.29972" lon="6.08972">
        <ele>426.4</ele>
        <time>2013-06-09T09:50:55.000Z</time>
      </trkpt>
      <trkpt lat="47.29972" lon="6.08974">
        <ele>426.1</ele>
        <time>2013-06-09T09:50:56.000Z</time>
      </trkpt>
      <trkpt lat="47.29972" lon="6.08979">
        <ele>425.1</ele>
        <time>2013-06-09T09:50:59.000Z</time>
      </trkpt>
      <trkpt lat="47.29972" lon="6.08981">
        <ele>424.9</ele>
        <time>2013-06-09T09:51:00.000Z</time>
      </trkpt>
      <trkpt lat="47.29971" lon="6.08988">
        <ele>425.8</ele>
        <time>2013-06-09T09:51:04.000Z</time>
      </trkpt>
      <trkpt lat="47.29971" lon="6.08989">
        <ele>425.7</ele>
        <time>2013-06-09T09:51:05.000Z</time>
      </trkpt>
      <trkpt lat="47.2997" lon="6.08995">
        <ele>426.5</ele>
        <time>2013-06-09T09:51:09.000Z</time>
      </trkpt>
      <trkpt lat="47.29971" lon="6.08997">
        <ele>426.5</ele>
        <time>2013-06-09T09:51:10.000Z</time>
      </trkpt>
      <trkpt lat="47.29974" lon="6.09001">
        <ele>426.9</ele>
        <time>2013-06-09T09:51:13.000Z</time>
      </trkpt>
      <trkpt lat="47.29975" lon="6.09002">
        <ele>427.2</ele>
        <time>2013-06-09T09:51:14.000Z</time>
      </trkpt>
      <trkpt lat="47.29978" lon="6.09005">
        <ele>427.6</ele>
        <time>2013-06-09T09:51:17.000Z</time>
      </trkpt>
      <trkpt lat="47.29979" lon="6.09006">
        <ele>427.9</ele>
        <time>2013-06-09T09:51:18.000Z</time>
      </trkpt>
      <trkpt lat="47.29982" lon="6.09009">
        <ele>428</ele>
        <time>2013-06-09T09:51:21.000Z</time>
      </trkpt>
      <trkpt lat="47.29983" lon="6.0901">
        <ele>428</ele>
        <time>2013-06-09T09:51:22.000Z</time>
      </trkpt>
      <trkpt lat="47.29986" lon="6.09013">
        <ele>428.3</ele>
        <time>2013-06-09T09:51:25.000Z</time>
      </trkpt>
      <trkpt lat="47.29987" lon="6.09014">
        <ele>428.4</ele>
        <time>2013-06-09T09:51:26.000Z</time>
      </trkpt>
      <trkpt lat="47.29989" lon="6.09017">
        <ele>429</ele>
        <time>2013-06-09T09:51:29.000Z</time>
      </trkpt>
      <trkpt lat="47.2999" lon="6.09018">
        <ele>429</ele>
        <time>2013-06-09T09:51:30.000Z</time>
      </trkpt>
      <trkpt lat="47.29993" lon="6.09021">
        <ele>429.2</ele>
        <time>2013-06-09T09:51:33.000Z</time>
      </trkpt>
      <trkpt lat="47.29994" lon="6.09022">
        <ele>429.4</ele>
        <time>2013-06-09T09:51:34.000Z</time>
      </trkpt>
      <trkpt lat="47.29997" lon="6.09026">
        <ele>430.7</ele>
        <time>2013-06-09T09:51:37.000Z</time>
      </trkpt>
      <trkpt lat="47.29998" lon="6.09027">
        <ele>431.3</ele>
        <time>2013-06-09T09:51:38.000Z</time>
      </trkpt>
      <trkpt lat="47.30001" lon="6.09029">
        <ele>432.1</ele>
        <time>2013-06-09T09:51:41.000Z</time>
      </trkpt>
      <trkpt lat="47.30002" lon="6.0903">
        <ele>432.1</ele>
        <time>2013-06-09T09:51:42.000Z</time>
      </trkpt>
      <trkpt lat="47.30004" lon="6.09035">
        <ele>432.7</ele>
        <time>2013-06-09T09:51:46.000Z</time>
      </trkpt>
      <trkpt lat="47.30005" lon="6.09036">
        <ele>432.5</ele>
        <time>2013-06-09T09:51:47.000Z</time>
      </trkpt>
      <trkpt lat="47.30009" lon="6.0904">
        <ele>432</ele>
        <time>2013-06-09T09:51:51.000Z</time>
      </trkpt>
      <trkpt lat="47.3001" lon="6.09041">
        <ele>431.9</ele>
        <time>2013-06-09T09:51:52.000Z</time>
      </trkpt>
      <trkpt lat="47.30012" lon="6.09044">
        <ele>431.6</ele>
        <time>2013-06-09T09:51:55.000Z</time>
      </trkpt>
      <trkpt lat="47.30013" lon="6.09046">
        <ele>431.8</ele>
        <time>2013-06-09T09:51:56.000Z</time>
      </trkpt>
      <trkpt lat="47.30016" lon="6.09048">
        <ele>431.8</ele>
        <time>2013-06-09T09:51:59.000Z</time>
      </trkpt>
      <trkpt lat="47.30017" lon="6.09049">
        <ele>431.9</ele>
        <time>2013-06-09T09:52:00.000Z</time>
      </trkpt>
      <trkpt lat="47.30021" lon="6.09052">
        <ele>431.8</ele>
        <time>2013-06-09T09:52:03.000Z</time>
      </trkpt>
      <trkpt lat="47.30022" lon="6.09053">
        <ele>431.8</ele>
        <time>2013-06-09T09:52:04.000Z</time>
      </trkpt>
      <trkpt lat="47.30025" lon="6.09056">
        <ele>431.4</ele>
        <time>2013-06-09T09:52:07.000Z</time>
      </trkpt>
      <trkpt lat="47.30025" lon="6.09057">
        <ele>431.2</ele>
        <time>2013-06-09T09:52:08.000Z</time>
      </trkpt>
      <trkpt lat="47.30028" lon="6.09061">
        <ele>431.2</ele>
        <time>2013-06-09T09:52:11.000Z</time>
      </trkpt>
      <trkpt lat="47.30028" lon="6.09062">
        <ele>431.4</ele>
        <time>2013-06-09T09:52:12.000Z</time>
      </trkpt>
      <trkpt lat="47.30031" lon="6.09066">
        <ele>431.8</ele>
        <time>2013-06-09T09:52:15.000Z</time>
      </trkpt>
      <trkpt lat="47.30031" lon="6.09068">
        <ele>431.8</ele>
        <time>2013-06-09T09:52:16.000Z</time>
      </trkpt>
      <trkpt lat="47.30034" lon="6.09071">
        <ele>431.6</ele>
        <time>2013-06-09T09:52:19.000Z</time>
      </trkpt>
      <trkpt lat="47.30035" lon="6.09072">
        <ele>431.7</ele>
        <time>2013-06-09T09:52:20.000Z</time>
      </trkpt>
      <trkpt lat="47.30038" lon="6.09075">
        <ele>431.7</ele>
        <time>2013-06-09T09:52:23.000Z</time>
      </trkpt>
      <trkpt lat="47.30038" lon="6.09077">
        <ele>431.7</ele>
        <time>2013-06-09T09:52:24.000Z</time>
      </trkpt>
      <trkpt lat="47.30041" lon="6.09081">
        <ele>432.1</ele>
        <time>2013-06-09T09:52:28.000Z</time>
      </trkpt>
      <trkpt lat="47.30042" lon="6.09083">
        <ele>432.1</ele>
        <time>2013-06-09T09:52:29.000Z</time>
      </trkpt>
      <trkpt lat="47.30044" lon="6.09088">
        <ele>432.9</ele>
        <time>2013-06-09T09:52:33.000Z</time>
      </trkpt>
      <trkpt lat="47.30044" lon="6.09089">
        <ele>433.2</ele>
        <time>2013-06-09T09:52:34.000Z</time>
      </trkpt>
      <trkpt lat="47.30045" lon="6.09094">
        <ele>433.9</ele>
        <time>2013-06-09T09:52:38.000Z</time>
      </trkpt>
      <trkpt lat="47.30045" lon="6.09096">
        <ele>433.9</ele>
        <time>2013-06-09T09:52:39.000Z</time>
      </trkpt>
      <trkpt lat="47.30046" lon="6.09102">
        <ele>434.7</ele>
        <time>2013-06-09T09:52:44.000Z</time>
      </trkpt>
      <trkpt lat="47.30047" lon="6.09103">
        <ele>434.8</ele>
        <time>2013-06-09T09:52:45.000Z</time>
      </trkpt>
      <trkpt lat="47.3005" lon="6.09106">
        <ele>434.9</ele>
        <time>2013-06-09T09:52:48.000Z</time>
      </trkpt>
      <trkpt lat="47.3005" lon="6.09107">
        <ele>434.9</ele>
        <time>2013-06-09T09:52:49.000Z</time>
      </trkpt>
      <trkpt lat="47.30053" lon="6.09112">
        <ele>435.2</ele>
        <time>2013-06-09T09:52:53.000Z</time>
      </trkpt>
      <trkpt lat="47.30054" lon="6.09113">
        <ele>435.4</ele>
        <time>2013-06-09T09:52:54.000Z</time>
      </trkpt>
      <trkpt lat="47.30056" lon="6.09116">
        <ele>435.1</ele>
        <time>2013-06-09T09:52:57.000Z</time>
      </trkpt>
      <trkpt lat="47.30057" lon="6.09117">
        <ele>435.1</ele>
        <time>2013-06-09T09:52:58.000Z</time>
      </trkpt>
      <trkpt lat="47.3006" lon="6.09121">
        <ele>435</ele>
        <time>2013-06-09T09:53:01.000Z</time>
      </trkpt>
      <trkpt lat="47.3006" lon="6.09122">
        <ele>435</ele>
        <time>2013-06-09T09:53:02.000Z</time>
      </trkpt>
      <trkpt lat="47.30063" lon="6.09127">
        <ele>434.1</ele>
        <time>2013-06-09T09:53:06.000Z</time>
      </trkpt>
      <trkpt lat="47.30064" lon="6.09128">
        <ele>433.9</ele>
        <time>2013-06-09T09:53:07.000Z</time>
      </trkpt>
      <trkpt lat="47.30068" lon="6.09129">
        <ele>433</ele>
        <time>2013-06-09T09:53:10.000Z</time>
      </trkpt>
      <trkpt lat="47.3007" lon="6.09129">
        <ele>432.6</ele>
        <time>2013-06-09T09:53:11.000Z</time>
      </trkpt>
      <trkpt lat="47.30074" lon="6.09128">
        <ele>431.1</ele>
        <time>2013-06-09T09:53:14.000Z</time>
      </trkpt>
      <trkpt lat="47.30075" lon="6.09127">
        <ele>430.8</ele>
        <time>2013-06-09T09:53:15.000Z</time>
      </trkpt>
      <trkpt lat="47.30078" lon="6.09123">
        <ele>430</ele>
        <time>2013-06-09T09:53:18.000Z</time>
      </trkpt>
      <trkpt lat="47.30079" lon="6.09122">
        <ele>429.9</ele>
        <time>2013-06-09T09:53:19.000Z</time>
      </trkpt>
      <trkpt lat="47.30083" lon="6.09119">
        <ele>429.4</ele>
        <time>2013-06-09T09:53:22.000Z</time>
      </trkpt>
      <trkpt lat="47.30084" lon="6.09118">
        <ele>429.2</ele>
        <time>2013-06-09T09:53:23.000Z</time>
      </trkpt>
      <trkpt lat="47.30087" lon="6.09118">
        <ele>429.2</ele>
        <time>2013-06-09T09:53:26.000Z</time>
      </trkpt>
      <trkpt lat="47.30088" lon="6.09118">
        <ele>429</ele>
        <time>2013-06-09T09:53:27.000Z</time>
      </trkpt>
      <trkpt lat="47.30093" lon="6.09119">
        <ele>428.6</ele>
        <time>2013-06-09T09:53:31.000Z</time>
      </trkpt>
      <trkpt lat="47.30094" lon="6.09119">
        <ele>428.6</ele>
        <time>2013-06-09T09:53:32.000Z</time>
      </trkpt>
      <trkpt lat="47.30097" lon="6.09121">
        <ele>429</ele>
        <time>2013-06-09T09:53:35.000Z</time>
      </trkpt>
      <trkpt lat="47.30098" lon="6.09122">
        <ele>429</ele>
        <time>2013-06-09T09:53:36.000Z</time>
      </trkpt>
      <trkpt lat="47.30101" lon="6.09124">
        <ele>428.7</ele>
        <time>2013-06-09T09:53:39.000Z</time>
      </trkpt>
      <trkpt lat="47.30102" lon="6.09125">
        <ele>428.7</ele>
        <time>2013-06-09T09:53:40.000Z</time>
      </trkpt>
      <trkpt lat="47.30105" lon="6.09128">
        <ele>428.4</ele>
        <time>2013-06-09T09:53:43.000Z</time>
      </trkpt>
      <trkpt lat="47.30106" lon="6.09129">
        <ele>428.3</ele>
        <time>2013-06-09T09:53:44.000Z</time>
      </trkpt>
      <trkpt lat="47.30109" lon="6.09132">
        <ele>428.2</ele>
        <time>2013-06-09T09:53:47.000Z</time>
      </trkpt>
      <trkpt lat="47.3011" lon="6.09133">
        <ele>428.3</ele>
        <time>2013-06-09T09:53:48.000Z</time>
      </trkpt>
      <trkpt lat="47.30113" lon="6.09137">
        <ele>428.4</ele>
        <time>2013-06-09T09:53:52.000Z</time>
      </trkpt>
      <trkpt lat="47.30113" lon="6.09138">
        <ele>428.5</ele>
        <time>2013-06-09T09:53:53.000Z</time>
      </trkpt>
      <trkpt lat="47.30117" lon="6.09141">
        <ele>429.1</ele>
        <time>2013-06-09T09:53:57.000Z</time>
      </trkpt>
      <trkpt lat="47.30117" lon="6.09142">
        <ele>429.6</ele>
        <time>2013-06-09T09:53:58.000Z</time>
      </trkpt>
      <trkpt lat="47.30121" lon="6.09145">
        <ele>430.6</ele>
        <time>2013-06-09T09:54:03.000Z</time>
      </trkpt>
      <trkpt lat="47.30122" lon="6.09145">
        <ele>430.7</ele>
        <time>2013-06-09T09:54:04.000Z</time>
      </trkpt>
      <trkpt lat="47.30125" lon="6.09147">
        <ele>430.4</ele>
        <time>2013-06-09T09:54:08.000Z</time>
      </trkpt>
      <trkpt lat="47.30126" lon="6.09147">
        <ele>430.3</ele>
        <time>2013-06-09T09:54:09.000Z</time>
      </trkpt>
      <trkpt lat="47.3013" lon="6.09149">
        <ele>431</ele>
        <time>2013-06-09T09:54:13.000Z</time>
      </trkpt>
      <trkpt lat="47.30131" lon="6.0915">
        <ele>431.3</ele>
        <time>2013-06-09T09:54:14.000Z</time>
      </trkpt>
      <trkpt lat="47.30135" lon="6.09153">
        <ele>432.6</ele>
        <time>2013-06-09T09:54:18.000Z</time>
      </trkpt>
      <trkpt lat="47.30136" lon="6.09154">
        <ele>432.7</ele>
        <time>2013-06-09T09:54:19.000Z</time>
      </trkpt>
      <trkpt lat="47.3014" lon="6.09157">
        <ele>433.3</ele>
        <time>2013-06-09T09:54:23.000Z</time>
      </trkpt>
      <trkpt lat="47.30141" lon="6.09157">
        <ele>433.2</ele>
        <time>2013-06-09T09:54:24.000Z</time>
      </trkpt>
      <trkpt lat="47.30144" lon="6.09161">
        <ele>433</ele>
        <time>2013-06-09T09:54:28.000Z</time>
      </trkpt>
      <trkpt lat="47.30145" lon="6.09162">
        <ele>433</ele>
        <time>2013-06-09T09:54:29.000Z</time>
      </trkpt>
      <trkpt lat="47.30149" lon="6.09165">
        <ele>433.1</ele>
        <time>2013-06-09T09:54:33.000Z</time>
      </trkpt>
      <trkpt lat="47.3015" lon="6.09166">
        <ele>433.3</ele>
        <time>2013-06-09T09:54:34.000Z</time>
      </trkpt>
      <trkpt lat="47.30154" lon="6.09169">
        <ele>433.8</ele>
        <time>2013-06-09T09:54:38.000Z</time>
      </trkpt>
      <trkpt lat="47.30154" lon="6.0917">
        <ele>434</ele>
        <time>2013-06-09T09:54:39.000Z</time>
      </trkpt>
      <trkpt lat="47.30158" lon="6.09173">
        <ele>433.8</ele>
        <time>2013-06-09T09:54:43.000Z</time>
      </trkpt>
      <trkpt lat="47.30159" lon="6.09174">
        <ele>433.9</ele>
        <time>2013-06-09T09:54:44.000Z</time>
      </trkpt>
      <trkpt lat="47.30162" lon="6.09176">
        <ele>434.5</ele>
        <time>2013-06-09T09:54:47.000Z</time>
      </trkpt>
      <trkpt lat="47.30163" lon="6.09177">
        <ele>434.6</ele>
        <time>2013-06-09T09:54:48.000Z</time>
      </trkpt>
      <trkpt lat="47.30166" lon="6.09179">
        <ele>434.9</ele>
        <time>2013-06-09T09:54:51.000Z</time>
      </trkpt>
      <trkpt lat="47.30167" lon="6.0918">
        <ele>435.2</ele>
        <time>2013-06-09T09:54:52.000Z</time>
      </trkpt>
      <trkpt lat="47.30171" lon="6.09183">
        <ele>435.7</ele>
        <time>2013-06-09T09:54:56.000Z</time>
      </trkpt>
      <trkpt lat="47.30172" lon="6.09184">
        <ele>435.8</ele>
        <time>2013-06-09T09:54:57.000Z</time>
      </trkpt>
      <trkpt lat="47.30176" lon="6.09187">
        <ele>435.9</ele>
        <time>2013-06-09T09:55:01.000Z</time>
      </trkpt>
      <trkpt lat="47.30176" lon="6.09188">
        <ele>435.9</ele>
        <time>2013-06-09T09:55:02.000Z</time>
      </trkpt>
      <trkpt lat="47.3018" lon="6.09192">
        <ele>435.7</ele>
        <time>2013-06-09T09:55:05.000Z</time>
      </trkpt>
      <trkpt lat="47.30181" lon="6.09193">
        <ele>435.7</ele>
        <time>2013-06-09T09:55:06.000Z</time>
      </trkpt>
      <trkpt lat="47.30184" lon="6.09196">
        <ele>435.2</ele>
        <time>2013-06-09T09:55:09.000Z</time>
      </trkpt>
      <trkpt lat="47.30185" lon="6.09197">
        <ele>435.3</ele>
        <time>2013-06-09T09:55:10.000Z</time>
      </trkpt>
      <trkpt lat="47.30188" lon="6.09201">
        <ele>435.4</ele>
        <time>2013-06-09T09:55:13.000Z</time>
      </trkpt>
      <trkpt lat="47.30189" lon="6.09202">
        <ele>435.4</ele>
        <time>2013-06-09T09:55:14.000Z</time>
      </trkpt>
      <trkpt lat="47.30192" lon="6.09205">
        <ele>436</ele>
        <time>2013-06-09T09:55:18.000Z</time>
      </trkpt>
      <trkpt lat="47.30193" lon="6.09206">
        <ele>436.4</ele>
        <time>2013-06-09T09:55:19.000Z</time>
      </trkpt>
      <trkpt lat="47.30196" lon="6.0921">
        <ele>438.1</ele>
        <time>2013-06-09T09:55:24.000Z</time>
      </trkpt>
      <trkpt lat="47.30197" lon="6.09211">
        <ele>438.6</ele>
        <time>2013-06-09T09:55:25.000Z</time>
      </trkpt>
      <trkpt lat="47.302" lon="6.09215">
        <ele>440.5</ele>
        <time>2013-06-09T09:55:31.000Z</time>
      </trkpt>
      <trkpt lat="47.302" lon="6.09215">
        <ele>440.5</ele>
        <time>2013-06-09T09:55:32.000Z</time>
      </trkpt>
      <trkpt lat="47.30204" lon="6.09217">
        <ele>439.9</ele>
        <time>2013-06-09T09:55:36.000Z</time>
      </trkpt>
      <trkpt lat="47.30205" lon="6.09218">
        <ele>439.4</ele>
        <time>2013-06-09T09:55:37.000Z</time>
      </trkpt>
      <trkpt lat="47.30208" lon="6.09222">
        <ele>439.5</ele>
        <time>2013-06-09T09:55:41.000Z</time>
      </trkpt>
      <trkpt lat="47.30209" lon="6.09223">
        <ele>439.5</ele>
        <time>2013-06-09T09:55:42.000Z</time>
      </trkpt>
      <trkpt lat="47.30212" lon="6.09228">
        <ele>439.5</ele>
        <time>2013-06-09T09:55:46.000Z</time>
      </trkpt>
      <trkpt lat="47.30213" lon="6.09229">
        <ele>439.3</ele>
        <time>2013-06-09T09:55:47.000Z</time>
      </trkpt>
      <trkpt lat="47.30216" lon="6.09232">
        <ele>439.1</ele>
        <time>2013-06-09T09:55:51.000Z</time>
      </trkpt>
      <trkpt lat="47.30217" lon="6.09233">
        <ele>439.1</ele>
        <time>2013-06-09T09:55:52.000Z</time>
      </trkpt>
      <trkpt lat="47.3022" lon="6.09236">
        <ele>438.5</ele>
        <time>2013-06-09T09:55:55.000Z</time>
      </trkpt>
      <trkpt lat="47.30221" lon="6.09237">
        <ele>438.3</ele>
        <time>2013-06-09T09:55:56.000Z</time>
      </trkpt>
      <trkpt lat="47.30224" lon="6.0924">
        <ele>438.1</ele>
        <time>2013-06-09T09:55:59.000Z</time>
      </trkpt>
      <trkpt lat="47.30225" lon="6.09242">
        <ele>438.1</ele>
        <time>2013-06-09T09:56:00.000Z</time>
      </trkpt>
      <trkpt lat="47.30225" lon="6.09247">
        <ele>437.9</ele>
        <time>2013-06-09T09:56:04.000Z</time>
      </trkpt>
      <trkpt lat="47.30225" lon="6.09249">
        <ele>437.8</ele>
        <time>2013-06-09T09:56:05.000Z</time>
      </trkpt>
      <trkpt lat="47.30224" lon="6.09254">
        <ele>438.9</ele>
        <time>2013-06-09T09:56:09.000Z</time>
      </trkpt>
      <trkpt lat="47.30224" lon="6.09255">
        <ele>439.2</ele>
        <time>2013-06-09T09:56:10.000Z</time>
      </trkpt>
      <trkpt lat="47.30225" lon="6.09262">
        <ele>441.2</ele>
        <time>2013-06-09T09:56:15.000Z</time>
      </trkpt>
      <trkpt lat="47.30225" lon="6.09263">
        <ele>441.6</ele>
        <time>2013-06-09T09:56:16.000Z</time>
      </trkpt>
      <trkpt lat="47.30225" lon="6.09269">
        <ele>441.2</ele>
        <time>2013-06-09T09:56:20.000Z</time>
      </trkpt>
      <trkpt lat="47.30225" lon="6.0927">
        <ele>441.2</ele>
        <time>2013-06-09T09:56:21.000Z</time>
      </trkpt>
      <trkpt lat="47.30225" lon="6.09276">
        <ele>441.1</ele>
        <time>2013-06-09T09:56:25.000Z</time>
      </trkpt>
      <trkpt lat="47.30225" lon="6.09277">
        <ele>441.1</ele>
        <time>2013-06-09T09:56:26.000Z</time>
      </trkpt>
      <trkpt lat="47.30225" lon="6.09283">
        <ele>440.8</ele>
        <time>2013-06-09T09:56:30.000Z</time>
      </trkpt>
      <trkpt lat="47.30226" lon="6.09284">
        <ele>440.8</ele>
        <time>2013-06-09T09:56:31.000Z</time>
      </trkpt>
      <trkpt lat="47.30227" lon="6.0929">
        <ele>440.4</ele>
        <time>2013-06-09T09:56:35.000Z</time>
      </trkpt>
      <trkpt lat="47.30227" lon="6.09291">
        <ele>440.4</ele>
        <time>2013-06-09T09:56:36.000Z</time>
      </trkpt>
      <trkpt lat="47.3023" lon="6.09296">
        <ele>438.8</ele>
        <time>2013-06-09T09:56:43.000Z</time>
      </trkpt>
      <trkpt lat="47.30231" lon="6.09296">
        <ele>438.3</ele>
        <time>2013-06-09T09:56:44.000Z</time>
      </trkpt>
      <trkpt lat="47.30234" lon="6.09299">
        <ele>437.7</ele>
        <time>2013-06-09T09:56:49.000Z</time>
      </trkpt>
      <trkpt lat="47.30235" lon="6.09299">
        <ele>437.7</ele>
        <time>2013-06-09T09:56:50.000Z</time>
      </trkpt>
      <trkpt lat="47.30239" lon="6.09301">
        <ele>436</ele>
        <time>2013-06-09T09:56:54.000Z</time>
      </trkpt>
      <trkpt lat="47.3024" lon="6.09301">
        <ele>436</ele>
        <time>2013-06-09T09:56:55.000Z</time>
      </trkpt>
      <trkpt lat="47.30245" lon="6.093">
        <ele>435.3</ele>
        <time>2013-06-09T09:56:58.000Z</time>
      </trkpt>
      <trkpt lat="47.30246" lon="6.093">
        <ele>435</ele>
        <time>2013-06-09T09:56:59.000Z</time>
      </trkpt>
      <trkpt lat="47.30249" lon="6.09299">
        <ele>434.6</ele>
        <time>2013-06-09T09:57:01.000Z</time>
      </trkpt>
      <trkpt lat="47.30251" lon="6.09298">
        <ele>434.4</ele>
        <time>2013-06-09T09:57:02.000Z</time>
      </trkpt>
      <trkpt lat="47.30254" lon="6.09297">
        <ele>434</ele>
        <time>2013-06-09T09:57:04.000Z</time>
      </trkpt>
      <trkpt lat="47.30255" lon="6.09297">
        <ele>433.9</ele>
        <time>2013-06-09T09:57:05.000Z</time>
      </trkpt>
      <trkpt lat="47.30258" lon="6.09296">
        <ele>433.8</ele>
        <time>2013-06-09T09:57:07.000Z</time>
      </trkpt>
      <trkpt lat="47.3026" lon="6.09295">
        <ele>433.6</ele>
        <time>2013-06-09T09:57:08.000Z</time>
      </trkpt>
      <trkpt lat="47.30263" lon="6.09294">
        <ele>433.5</ele>
        <time>2013-06-09T09:57:10.000Z</time>
      </trkpt>
      <trkpt lat="47.30264" lon="6.09294">
        <ele>433.5</ele>
        <time>2013-06-09T09:57:11.000Z</time>
      </trkpt>
      <trkpt lat="47.30268" lon="6.09295">
        <ele>433.8</ele>
        <time>2013-06-09T09:57:14.000Z</time>
      </trkpt>
      <trkpt lat="47.30269" lon="6.09295">
        <ele>434</ele>
        <time>2013-06-09T09:57:15.000Z</time>
      </trkpt>
      <trkpt lat="47.30273" lon="6.09298">
        <ele>434.5</ele>
        <time>2013-06-09T09:57:18.000Z</time>
      </trkpt>
      <trkpt lat="47.30274" lon="6.09299">
        <ele>434.3</ele>
        <time>2013-06-09T09:57:19.000Z</time>
      </trkpt>
      <trkpt lat="47.30277" lon="6.09302">
        <ele>434.5</ele>
        <time>2013-06-09T09:57:22.000Z</time>
      </trkpt>
      <trkpt lat="47.30278" lon="6.09303">
        <ele>434.5</ele>
        <time>2013-06-09T09:57:23.000Z</time>
      </trkpt>
      <trkpt lat="47.30281" lon="6.09306">
        <ele>435.1</ele>
        <time>2013-06-09T09:57:26.000Z</time>
      </trkpt>
      <trkpt lat="47.30282" lon="6.09307">
        <ele>435.3</ele>
        <time>2013-06-09T09:57:27.000Z</time>
      </trkpt>
      <trkpt lat="47.30285" lon="6.09312">
        <ele>434.6</ele>
        <time>2013-06-09T09:57:31.000Z</time>
      </trkpt>
      <trkpt lat="47.30286" lon="6.09313">
        <ele>434.6</ele>
        <time>2013-06-09T09:57:32.000Z</time>
      </trkpt>
      <trkpt lat="47.30289" lon="6.09316">
        <ele>435</ele>
        <time>2013-06-09T09:57:35.000Z</time>
      </trkpt>
      <trkpt lat="47.30289" lon="6.09317">
        <ele>434.9</ele>
        <time>2013-06-09T09:57:36.000Z</time>
      </trkpt>
      <trkpt lat="47.30292" lon="6.0932">
        <ele>434.8</ele>
        <time>2013-06-09T09:57:39.000Z</time>
      </trkpt>
      <trkpt lat="47.30293" lon="6.09321">
        <ele>435</ele>
        <time>2013-06-09T09:57:40.000Z</time>
      </trkpt>
      <trkpt lat="47.30296" lon="6.09324">
        <ele>435.4</ele>
        <time>2013-06-09T09:57:43.000Z</time>
      </trkpt>
      <trkpt lat="47.30296" lon="6.09325">
        <ele>435.5</ele>
        <time>2013-06-09T09:57:44.000Z</time>
      </trkpt>
      <trkpt lat="47.30299" lon="6.09328">
        <ele>435.9</ele>
        <time>2013-06-09T09:57:47.000Z</time>
      </trkpt>
      <trkpt lat="47.303" lon="6.09329">
        <ele>436.1</ele>
        <time>2013-06-09T09:57:48.000Z</time>
      </trkpt>
      <trkpt lat="47.30303" lon="6.09332">
        <ele>436.8</ele>
        <time>2013-06-09T09:57:51.000Z</time>
      </trkpt>
      <trkpt lat="47.30304" lon="6.09333">
        <ele>437.1</ele>
        <time>2013-06-09T09:57:52.000Z</time>
      </trkpt>
      <trkpt lat="47.30307" lon="6.09335">
        <ele>437.6</ele>
        <time>2013-06-09T09:57:55.000Z</time>
      </trkpt>
      <trkpt lat="47.30308" lon="6.09336">
        <ele>437.8</ele>
        <time>2013-06-09T09:57:56.000Z</time>
      </trkpt>
      <trkpt lat="47.30311" lon="6.0934">
        <ele>438.7</ele>
        <time>2013-06-09T09:57:59.000Z</time>
      </trkpt>
      <trkpt lat="47.30312" lon="6.09341">
        <ele>438.9</ele>
        <time>2013-06-09T09:58:00.000Z</time>
      </trkpt>
      <trkpt lat="47.30315" lon="6.09343">
        <ele>439.6</ele>
        <time>2013-06-09T09:58:03.000Z</time>
      </trkpt>
      <trkpt lat="47.30316" lon="6.09344">
        <ele>439.7</ele>
        <time>2013-06-09T09:58:04.000Z</time>
      </trkpt>
      <trkpt lat="47.3032" lon="6.09347">
        <ele>440.3</ele>
        <time>2013-06-09T09:58:08.000Z</time>
      </trkpt>
      <trkpt lat="47.3032" lon="6.09348">
        <ele>440.4</ele>
        <time>2013-06-09T09:58:09.000Z</time>
      </trkpt>
      <trkpt lat="47.30324" lon="6.0935">
        <ele>440.6</ele>
        <time>2013-06-09T09:58:12.000Z</time>
      </trkpt>
      <trkpt lat="47.30325" lon="6.09351">
        <ele>440.6</ele>
        <time>2013-06-09T09:58:13.000Z</time>
      </trkpt>
      <trkpt lat="47.30327" lon="6.09355">
        <ele>440.2</ele>
        <time>2013-06-09T09:58:17.000Z</time>
      </trkpt>
      <trkpt lat="47.30328" lon="6.09356">
        <ele>440.4</ele>
        <time>2013-06-09T09:58:18.000Z</time>
      </trkpt>
      <trkpt lat="47.30328" lon="6.09361">
        <ele>440.2</ele>
        <time>2013-06-09T09:58:22.000Z</time>
      </trkpt>
      <trkpt lat="47.30328" lon="6.09363">
        <ele>440.2</ele>
        <time>2013-06-09T09:58:23.000Z</time>
      </trkpt>
      <trkpt lat="47.30328" lon="6.09368">
        <ele>440.2</ele>
        <time>2013-06-09T09:58:27.000Z</time>
      </trkpt>
      <trkpt lat="47.30328" lon="6.0937">
        <ele>440.1</ele>
        <time>2013-06-09T09:58:28.000Z</time>
      </trkpt>
      <trkpt lat="47.30328" lon="6.09376">
        <ele>440.3</ele>
        <time>2013-06-09T09:58:32.000Z</time>
      </trkpt>
      <trkpt lat="47.30328" lon="6.09377">
        <ele>440.4</ele>
        <time>2013-06-09T09:58:33.000Z</time>
      </trkpt>
      <trkpt lat="47.30327" lon="6.09383">
        <ele>440.5</ele>
        <time>2013-06-09T09:58:37.000Z</time>
      </trkpt>
      <trkpt lat="47.30326" lon="6.09384">
        <ele>440.6</ele>
        <time>2013-06-09T09:58:38.000Z</time>
      </trkpt>
      <trkpt lat="47.30325" lon="6.0939">
        <ele>442.1</ele>
        <time>2013-06-09T09:58:42.000Z</time>
      </trkpt>
      <trkpt lat="47.30324" lon="6.09391">
        <ele>442.5</ele>
        <time>2013-06-09T09:58:43.000Z</time>
      </trkpt>
      <trkpt lat="47.30323" lon="6.09397">
        <ele>442.5</ele>
        <time>2013-06-09T09:58:47.000Z</time>
      </trkpt>
      <trkpt lat="47.30323" lon="6.09399">
        <ele>442.7</ele>
        <time>2013-06-09T09:58:48.000Z</time>
      </trkpt>
      <trkpt lat="47.30321" lon="6.09404">
        <ele>443</ele>
        <time>2013-06-09T09:58:52.000Z</time>
      </trkpt>
      <trkpt lat="47.30321" lon="6.09406">
        <ele>443.1</ele>
        <time>2013-06-09T09:58:53.000Z</time>
      </trkpt>
      <trkpt lat="47.30321" lon="6.09413">
        <ele>443</ele>
        <time>2013-06-09T09:58:57.000Z</time>
      </trkpt>
      <trkpt lat="47.30321" lon="6.09414">
        <ele>443.2</ele>
        <time>2013-06-09T09:58:58.000Z</time>
      </trkpt>
      <trkpt lat="47.30323" lon="6.0942">
        <ele>443.4</ele>
        <time>2013-06-09T09:59:01.000Z</time>
      </trkpt>
      <trkpt lat="47.30323" lon="6.09422">
        <ele>443.3</ele>
        <time>2013-06-09T09:59:02.000Z</time>
      </trkpt>
      <trkpt lat="47.30324" lon="6.09427">
        <ele>442.8</ele>
        <time>2013-06-09T09:59:05.000Z</time>
      </trkpt>
      <trkpt lat="47.30325" lon="6.09429">
        <ele>442.9</ele>
        <time>2013-06-09T09:59:06.000Z</time>
      </trkpt>
      <trkpt lat="47.30326" lon="6.09435">
        <ele>442.9</ele>
        <time>2013-06-09T09:59:09.000Z</time>
      </trkpt>
      <trkpt lat="47.30327" lon="6.09436">
        <ele>442.7</ele>
        <time>2013-06-09T09:59:10.000Z</time>
      </trkpt>
      <trkpt lat="47.3033" lon="6.0944">
        <ele>443.1</ele>
        <time>2013-06-09T09:59:13.000Z</time>
      </trkpt>
      <trkpt lat="47.30331" lon="6.09441">
        <ele>443.2</ele>
        <time>2013-06-09T09:59:14.000Z</time>
      </trkpt>
      <trkpt lat="47.30334" lon="6.09444">
        <ele>443</ele>
        <time>2013-06-09T09:59:17.000Z</time>
      </trkpt>
      <trkpt lat="47.30336" lon="6.09445">
        <ele>442.9</ele>
        <time>2013-06-09T09:59:18.000Z</time>
      </trkpt>
      <trkpt lat="47.30339" lon="6.09447">
        <ele>442.8</ele>
        <time>2013-06-09T09:59:21.000Z</time>
      </trkpt>
      <trkpt lat="47.3034" lon="6.09448">
        <ele>442.7</ele>
        <time>2013-06-09T09:59:22.000Z</time>
      </trkpt>
      <trkpt lat="47.30344" lon="6.0945">
        <ele>442.1</ele>
        <time>2013-06-09T09:59:25.000Z</time>
      </trkpt>
      <trkpt lat="47.30346" lon="6.0945">
        <ele>442</ele>
        <time>2013-06-09T09:59:26.000Z</time>
      </trkpt>
      <trkpt lat="47.3035" lon="6.09451">
        <ele>442.3</ele>
        <time>2013-06-09T09:59:29.000Z</time>
      </trkpt>
      <trkpt lat="47.30351" lon="6.09451">
        <ele>442.1</ele>
        <time>2013-06-09T09:59:30.000Z</time>
      </trkpt>
      <trkpt lat="47.30355" lon="6.09452">
        <ele>442</ele>
        <time>2013-06-09T09:59:33.000Z</time>
      </trkpt>
      <trkpt lat="47.30357" lon="6.09452">
        <ele>441.8</ele>
        <time>2013-06-09T09:59:34.000Z</time>
      </trkpt>
      <trkpt lat="47.3036" lon="6.09455">
        <ele>441</ele>
        <time>2013-06-09T09:59:37.000Z</time>
      </trkpt>
      <trkpt lat="47.30361" lon="6.09456">
        <ele>440.9</ele>
        <time>2013-06-09T09:59:38.000Z</time>
      </trkpt>
      <trkpt lat="47.30363" lon="6.09461">
        <ele>440.6</ele>
        <time>2013-06-09T09:59:41.000Z</time>
      </trkpt>
      <trkpt lat="47.30364" lon="6.09463">
        <ele>440.7</ele>
        <time>2013-06-09T09:59:42.000Z</time>
      </trkpt>
      <trkpt lat="47.30364" lon="6.09468">
        <ele>441.2</ele>
        <time>2013-06-09T09:59:45.000Z</time>
      </trkpt>
      <trkpt lat="47.30364" lon="6.0947">
        <ele>441.3</ele>
        <time>2013-06-09T09:59:46.000Z</time>
      </trkpt>
      <trkpt lat="47.30363" lon="6.09475">
        <ele>441.5</ele>
        <time>2013-06-09T09:59:49.000Z</time>
      </trkpt>
      <trkpt lat="47.30362" lon="6.09476">
        <ele>441.5</ele>
        <time>2013-06-09T09:59:50.000Z</time>
      </trkpt>
      <trkpt lat="47.30361" lon="6.09482">
        <ele>441.5</ele>
        <time>2013-06-09T09:59:54.000Z</time>
      </trkpt>
      <trkpt lat="47.30361" lon="6.09483">
        <ele>441.7</ele>
        <time>2013-06-09T09:59:55.000Z</time>
      </trkpt>
      <trkpt lat="47.30358" lon="6.09489">
        <ele>442.5</ele>
        <time>2013-06-09T09:59:59.000Z</time>
      </trkpt>
      <trkpt lat="47.30358" lon="6.0949">
        <ele>442.9</ele>
        <time>2013-06-09T10:00:00.000Z</time>
      </trkpt>
      <trkpt lat="47.30357" lon="6.09496">
        <ele>444.4</ele>
        <time>2013-06-09T10:00:05.000Z</time>
      </trkpt>
      <trkpt lat="47.30358" lon="6.09497">
        <ele>444.3</ele>
        <time>2013-06-09T10:00:06.000Z</time>
      </trkpt>
      <trkpt lat="47.30362" lon="6.09499">
        <ele>444.3</ele>
        <time>2013-06-09T10:00:10.000Z</time>
      </trkpt>
      <trkpt lat="47.30363" lon="6.09499">
        <ele>444.3</ele>
        <time>2013-06-09T10:00:11.000Z</time>
      </trkpt>
      <trkpt lat="47.30366" lon="6.095">
        <ele>444.3</ele>
        <time>2013-06-09T10:00:14.000Z</time>
      </trkpt>
      <trkpt lat="47.30367" lon="6.095">
        <ele>444.8</ele>
        <time>2013-06-09T10:00:15.000Z</time>
      </trkpt>
      <trkpt lat="47.30372" lon="6.095">
        <ele>444.5</ele>
        <time>2013-06-09T10:00:18.000Z</time>
      </trkpt>
      <trkpt lat="47.30373" lon="6.09501">
        <ele>444.6</ele>
        <time>2013-06-09T10:00:19.000Z</time>
      </trkpt>
      <trkpt lat="47.30377" lon="6.09501">
        <ele>444.7</ele>
        <time>2013-06-09T10:00:23.000Z</time>
      </trkpt>
      <trkpt lat="47.30378" lon="6.09501">
        <ele>444.7</ele>
        <time>2013-06-09T10:00:24.000Z</time>
      </trkpt>
      <trkpt lat="47.30381" lon="6.09499">
        <ele>445.1</ele>
        <time>2013-06-09T10:00:27.000Z</time>
      </trkpt>
      <trkpt lat="47.30382" lon="6.09498">
        <ele>445.1</ele>
        <time>2013-06-09T10:00:28.000Z</time>
      </trkpt>
      <trkpt lat="47.30385" lon="6.09493">
        <ele>444.6</ele>
        <time>2013-06-09T10:00:32.000Z</time>
      </trkpt>
      <trkpt lat="47.30385" lon="6.09491">
        <ele>444.6</ele>
        <time>2013-06-09T10:00:33.000Z</time>
      </trkpt>
      <trkpt lat="47.30385" lon="6.09485">
        <ele>444.7</ele>
        <time>2013-06-09T10:00:37.000Z</time>
      </trkpt>
      <trkpt lat="47.30385" lon="6.09483">
        <ele>444.7</ele>
        <time>2013-06-09T10:00:38.000Z</time>
      </trkpt>
      <trkpt lat="47.30388" lon="6.09479">
        <ele>445.4</ele>
        <time>2013-06-09T10:00:43.000Z</time>
      </trkpt>
      <trkpt lat="47.30389" lon="6.09479">
        <ele>445.4</ele>
        <time>2013-06-09T10:00:44.000Z</time>
      </trkpt>
      <trkpt lat="47.30393" lon="6.0948">
        <ele>446.3</ele>
        <time>2013-06-09T10:00:48.000Z</time>
      </trkpt>
      <trkpt lat="47.30394" lon="6.0948">
        <ele>446.5</ele>
        <time>2013-06-09T10:00:49.000Z</time>
      </trkpt>
      <trkpt lat="47.30398" lon="6.09481">
        <ele>446.5</ele>
        <time>2013-06-09T10:00:53.000Z</time>
      </trkpt>
      <trkpt lat="47.30399" lon="6.09481">
        <ele>446.4</ele>
        <time>2013-06-09T10:00:54.000Z</time>
      </trkpt>
      <trkpt lat="47.30402" lon="6.09483">
        <ele>446.9</ele>
        <time>2013-06-09T10:00:58.000Z</time>
      </trkpt>
      <trkpt lat="47.30403" lon="6.09483">
        <ele>447.4</ele>
        <time>2013-06-09T10:00:59.000Z</time>
      </trkpt>
      <trkpt lat="47.30407" lon="6.09482">
        <ele>447.5</ele>
        <time>2013-06-09T10:01:03.000Z</time>
      </trkpt>
      <trkpt lat="47.30408" lon="6.09482">
        <ele>448</ele>
        <time>2013-06-09T10:01:04.000Z</time>
      </trkpt>
      <trkpt lat="47.30412" lon="6.09483">
        <ele>449.4</ele>
        <time>2013-06-09T10:01:08.000Z</time>
      </trkpt>
      <trkpt lat="47.30413" lon="6.09482">
        <ele>449.7</ele>
        <time>2013-06-09T10:01:09.000Z</time>
      </trkpt>
      <trkpt lat="47.30417" lon="6.09481">
        <ele>450.6</ele>
        <time>2013-06-09T10:01:12.000Z</time>
      </trkpt>
      <trkpt lat="47.30418" lon="6.09481">
        <ele>450.4</ele>
        <time>2013-06-09T10:01:13.000Z</time>
      </trkpt>
      <trkpt lat="47.30422" lon="6.09481">
        <ele>450.3</ele>
        <time>2013-06-09T10:01:17.000Z</time>
      </trkpt>
      <trkpt lat="47.30423" lon="6.09481">
        <ele>450.7</ele>
        <time>2013-06-09T10:01:18.000Z</time>
      </trkpt>
      <trkpt lat="47.30426" lon="6.09484">
        <ele>450.9</ele>
        <time>2013-06-09T10:01:22.000Z</time>
      </trkpt>
      <trkpt lat="47.30427" lon="6.09485">
        <ele>451</ele>
        <time>2013-06-09T10:01:23.000Z</time>
      </trkpt>
      <trkpt lat="47.30431" lon="6.09487">
        <ele>451.8</ele>
        <time>2013-06-09T10:01:27.000Z</time>
      </trkpt>
      <trkpt lat="47.30432" lon="6.09488">
        <ele>452.3</ele>
        <time>2013-06-09T10:01:28.000Z</time>
      </trkpt>
      <trkpt lat="47.30436" lon="6.0949">
        <ele>453.8</ele>
        <time>2013-06-09T10:01:32.000Z</time>
      </trkpt>
      <trkpt lat="47.30437" lon="6.0949">
        <ele>454</ele>
        <time>2013-06-09T10:01:33.000Z</time>
      </trkpt>
      <trkpt lat="47.3044" lon="6.09492">
        <ele>454.5</ele>
        <time>2013-06-09T10:01:36.000Z</time>
      </trkpt>
      <trkpt lat="47.30442" lon="6.09492">
        <ele>454.6</ele>
        <time>2013-06-09T10:01:37.000Z</time>
      </trkpt>
      <trkpt lat="47.30445" lon="6.09493">
        <ele>454.8</ele>
        <time>2013-06-09T10:01:40.000Z</time>
      </trkpt>
      <trkpt lat="47.30447" lon="6.09493">
        <ele>454.7</ele>
        <time>2013-06-09T10:01:41.000Z</time>
      </trkpt>
      <trkpt lat="47.3045" lon="6.09494">
        <ele>454.9</ele>
        <time>2013-06-09T10:01:44.000Z</time>
      </trkpt>
      <trkpt lat="47.30452" lon="6.09494">
        <ele>455.2</ele>
        <time>2013-06-09T10:01:45.000Z</time>
      </trkpt>
      <trkpt lat="47.30456" lon="6.09495">
        <ele>455.6</ele>
        <time>2013-06-09T10:01:48.000Z</time>
      </trkpt>
      <trkpt lat="47.30457" lon="6.09495">
        <ele>455.9</ele>
        <time>2013-06-09T10:01:49.000Z</time>
      </trkpt>
      <trkpt lat="47.3046" lon="6.09497">
        <ele>455.7</ele>
        <time>2013-06-09T10:01:51.000Z</time>
      </trkpt>
      <trkpt lat="47.30461" lon="6.09497">
        <ele>455.7</ele>
        <time>2013-06-09T10:01:52.000Z</time>
      </trkpt>
      <trkpt lat="47.30464" lon="6.09499">
        <ele>455.6</ele>
        <time>2013-06-09T10:01:54.000Z</time>
      </trkpt>
      <trkpt lat="47.30466" lon="6.09499">
        <ele>455.6</ele>
        <time>2013-06-09T10:01:55.000Z</time>
      </trkpt>
      <trkpt lat="47.3047" lon="6.09501">
        <ele>455.5</ele>
        <time>2013-06-09T10:01:58.000Z</time>
      </trkpt>
      <trkpt lat="47.30471" lon="6.09501">
        <ele>455.5</ele>
        <time>2013-06-09T10:01:59.000Z</time>
      </trkpt>
      <trkpt lat="47.30475" lon="6.09502">
        <ele>456.1</ele>
        <time>2013-06-09T10:02:02.000Z</time>
      </trkpt>
      <trkpt lat="47.30476" lon="6.09502">
        <ele>456.1</ele>
        <time>2013-06-09T10:02:03.000Z</time>
      </trkpt>
      <trkpt lat="47.3048" lon="6.09503">
        <ele>455.5</ele>
        <time>2013-06-09T10:02:06.000Z</time>
      </trkpt>
      <trkpt lat="47.30482" lon="6.09503">
        <ele>455.5</ele>
        <time>2013-06-09T10:02:07.000Z</time>
      </trkpt>
      <trkpt lat="47.30485" lon="6.09505">
        <ele>455.7</ele>
        <time>2013-06-09T10:02:10.000Z</time>
      </trkpt>
      <trkpt lat="47.30486" lon="6.09505">
        <ele>455.7</ele>
        <time>2013-06-09T10:02:11.000Z</time>
      </trkpt>
      <trkpt lat="47.3049" lon="6.09507">
        <ele>456</ele>
        <time>2013-06-09T10:02:14.000Z</time>
      </trkpt>
      <trkpt lat="47.30491" lon="6.09507">
        <ele>456</ele>
        <time>2013-06-09T10:02:15.000Z</time>
      </trkpt>
      <trkpt lat="47.30495" lon="6.0951">
        <ele>456.2</ele>
        <time>2013-06-09T10:02:18.000Z</time>
      </trkpt>
      <trkpt lat="47.30496" lon="6.0951">
        <ele>456.3</ele>
        <time>2013-06-09T10:02:19.000Z</time>
      </trkpt>
      <trkpt lat="47.30499" lon="6.09513">
        <ele>456.6</ele>
        <time>2013-06-09T10:02:23.000Z</time>
      </trkpt>
      <trkpt lat="47.305" lon="6.09514">
        <ele>456.6</ele>
        <time>2013-06-09T10:02:24.000Z</time>
      </trkpt>
      <trkpt lat="47.30503" lon="6.09519">
        <ele>455.9</ele>
        <time>2013-06-09T10:02:28.000Z</time>
      </trkpt>
      <trkpt lat="47.30504" lon="6.09521">
        <ele>455.8</ele>
        <time>2013-06-09T10:02:29.000Z</time>
      </trkpt>
      <trkpt lat="47.30507" lon="6.09523">
        <ele>455.5</ele>
        <time>2013-06-09T10:02:33.000Z</time>
      </trkpt>
      <trkpt lat="47.30508" lon="6.09523">
        <ele>455.3</ele>
        <time>2013-06-09T10:02:34.000Z</time>
      </trkpt>
      <trkpt lat="47.30512" lon="6.09525">
        <ele>454.9</ele>
        <time>2013-06-09T10:02:38.000Z</time>
      </trkpt>
      <trkpt lat="47.30514" lon="6.09525">
        <ele>454.9</ele>
        <time>2013-06-09T10:02:39.000Z</time>
      </trkpt>
      <trkpt lat="47.30517" lon="6.09526">
        <ele>454.4</ele>
        <time>2013-06-09T10:02:42.000Z</time>
      </trkpt>
      <trkpt lat="47.30519" lon="6.09526">
        <ele>454.2</ele>
        <time>2013-06-09T10:02:43.000Z</time>
      </trkpt>
      <trkpt lat="47.30523" lon="6.09527">
        <ele>454.5</ele>
        <time>2013-06-09T10:02:46.000Z</time>
      </trkpt>
      <trkpt lat="47.30524" lon="6.09528">
        <ele>454.6</ele>
        <time>2013-06-09T10:02:47.000Z</time>
      </trkpt>
      <trkpt lat="47.30527" lon="6.09529">
        <ele>454.7</ele>
        <time>2013-06-09T10:02:49.000Z</time>
      </trkpt>
      <trkpt lat="47.30529" lon="6.09529">
        <ele>454.5</ele>
        <time>2013-06-09T10:02:50.000Z</time>
      </trkpt>
      <trkpt lat="47.30532" lon="6.09529">
        <ele>454.2</ele>
        <time>2013-06-09T10:02:52.000Z</time>
      </trkpt>
      <trkpt lat="47.30534" lon="6.0953">
        <ele>454.1</ele>
        <time>2013-06-09T10:02:53.000Z</time>
      </trkpt>
      <trkpt lat="47.30537" lon="6.0953">
        <ele>454.3</ele>
        <time>2013-06-09T10:02:55.000Z</time>
      </trkpt>
      <trkpt lat="47.30539" lon="6.0953">
        <ele>454.4</ele>
        <time>2013-06-09T10:02:56.000Z</time>
      </trkpt>
      <trkpt lat="47.30542" lon="6.09531">
        <ele>454.4</ele>
        <time>2013-06-09T10:02:58.000Z</time>
      </trkpt>
      <trkpt lat="47.30544" lon="6.09532">
        <ele>454.4</ele>
        <time>2013-06-09T10:02:59.000Z</time>
      </trkpt>
      <trkpt lat="47.30547" lon="6.09532">
        <ele>454.9</ele>
        <time>2013-06-09T10:03:01.000Z</time>
      </trkpt>
      <trkpt lat="47.30549" lon="6.09532">
        <ele>455</ele>
        <time>2013-06-09T10:03:02.000Z</time>
      </trkpt>
      <trkpt lat="47.30552" lon="6.09533">
        <ele>455.5</ele>
        <time>2013-06-09T10:03:04.000Z</time>
      </trkpt>
      <trkpt lat="47.30553" lon="6.09534">
        <ele>455.7</ele>
        <time>2013-06-09T10:03:05.000Z</time>
      </trkpt>
      <trkpt lat="47.30557" lon="6.09534">
        <ele>455.7</ele>
        <time>2013-06-09T10:03:07.000Z</time>
      </trkpt>
      <trkpt lat="47.30558" lon="6.09534">
        <ele>455.7</ele>
        <time>2013-06-09T10:03:08.000Z</time>
      </trkpt>
      <trkpt lat="47.30561" lon="6.09535">
        <ele>456.2</ele>
        <time>2013-06-09T10:03:10.000Z</time>
      </trkpt>
      <trkpt lat="47.30563" lon="6.09535">
        <ele>456.4</ele>
        <time>2013-06-09T10:03:11.000Z</time>
      </trkpt>
      <trkpt lat="47.30566" lon="6.09535">
        <ele>456.3</ele>
        <time>2013-06-09T10:03:13.000Z</time>
      </trkpt>
      <trkpt lat="47.30567" lon="6.09535">
        <ele>456.2</ele>
        <time>2013-06-09T10:03:14.000Z</time>
      </trkpt>
      <trkpt lat="47.30571" lon="6.09536">
        <ele>455.6</ele>
        <time>2013-06-09T10:03:16.000Z</time>
      </trkpt>
      <trkpt lat="47.30572" lon="6.09537">
        <ele>455</ele>
        <time>2013-06-09T10:03:17.000Z</time>
      </trkpt>
      <trkpt lat="47.30575" lon="6.09538">
        <ele>454.4</ele>
        <time>2013-06-09T10:03:19.000Z</time>
      </trkpt>
      <trkpt lat="47.30577" lon="6.09539">
        <ele>454.1</ele>
        <time>2013-06-09T10:03:20.000Z</time>
      </trkpt>
      <trkpt lat="47.3058" lon="6.0954">
        <ele>453.8</ele>
        <time>2013-06-09T10:03:22.000Z</time>
      </trkpt>
      <trkpt lat="47.30581" lon="6.09541">
        <ele>453.8</ele>
        <time>2013-06-09T10:03:23.000Z</time>
      </trkpt>
      <trkpt lat="47.30586" lon="6.09542">
        <ele>454.3</ele>
        <time>2013-06-09T10:03:26.000Z</time>
      </trkpt>
      <trkpt lat="47.30587" lon="6.09543">
        <ele>454.4</ele>
        <time>2013-06-09T10:03:27.000Z</time>
      </trkpt>
      <trkpt lat="47.30591" lon="6.09545">
        <ele>455</ele>
        <time>2013-06-09T10:03:30.000Z</time>
      </trkpt>
      <trkpt lat="47.30593" lon="6.09546">
        <ele>455</ele>
        <time>2013-06-09T10:03:31.000Z</time>
      </trkpt>
      <trkpt lat="47.30596" lon="6.09547">
        <ele>455.1</ele>
        <time>2013-06-09T10:03:34.000Z</time>
      </trkpt>
      <trkpt lat="47.30598" lon="6.09548">
        <ele>455.1</ele>
        <time>2013-06-09T10:03:35.000Z</time>
      </trkpt>
      <trkpt lat="47.30602" lon="6.09549">
        <ele>454.7</ele>
        <time>2013-06-09T10:03:38.000Z</time>
      </trkpt>
      <trkpt lat="47.30603" lon="6.0955">
        <ele>454.8</ele>
        <time>2013-06-09T10:03:39.000Z</time>
      </trkpt>
      <trkpt lat="47.30606" lon="6.09552">
        <ele>455.2</ele>
        <time>2013-06-09T10:03:42.000Z</time>
      </trkpt>
      <trkpt lat="47.30608" lon="6.09553">
        <ele>455.6</ele>
        <time>2013-06-09T10:03:43.000Z</time>
      </trkpt>
      <trkpt lat="47.30611" lon="6.09555">
        <ele>455.6</ele>
        <time>2013-06-09T10:03:46.000Z</time>
      </trkpt>
      <trkpt lat="47.30613" lon="6.09555">
        <ele>455.5</ele>
        <time>2013-06-09T10:03:47.000Z</time>
      </trkpt>
      <trkpt lat="47.30617" lon="6.09556">
        <ele>454.8</ele>
        <time>2013-06-09T10:03:50.000Z</time>
      </trkpt>
      <trkpt lat="47.30618" lon="6.09557">
        <ele>454.5</ele>
        <time>2013-06-09T10:03:51.000Z</time>
      </trkpt>
      <trkpt lat="47.30622" lon="6.09558">
        <ele>453.6</ele>
        <time>2013-06-09T10:03:54.000Z</time>
      </trkpt>
      <trkpt lat="47.30624" lon="6.09558">
        <ele>453.1</ele>
        <time>2013-06-09T10:03:55.000Z</time>
      </trkpt>
      <trkpt lat="47.30627" lon="6.09558">
        <ele>452.5</ele>
        <time>2013-06-09T10:03:57.000Z</time>
      </trkpt>
      <trkpt lat="47.30628" lon="6.09558">
        <ele>452.1</ele>
        <time>2013-06-09T10:03:58.000Z</time>
      </trkpt>
      <trkpt lat="47.30632" lon="6.09557">
        <ele>451.1</ele>
        <time>2013-06-09T10:04:01.000Z</time>
      </trkpt>
      <trkpt lat="47.30633" lon="6.09557">
        <ele>450.5</ele>
        <time>2013-06-09T10:04:02.000Z</time>
      </trkpt>
      <trkpt lat="47.30637" lon="6.09555">
        <ele>449.3</ele>
        <time>2013-06-09T10:04:05.000Z</time>
      </trkpt>
      <trkpt lat="47.30639" lon="6.09555">
        <ele>448.9</ele>
        <time>2013-06-09T10:04:06.000Z</time>
      </trkpt>
      <trkpt lat="47.30643" lon="6.09554">
        <ele>448.3</ele>
        <time>2013-06-09T10:04:09.000Z</time>
      </trkpt>
      <trkpt lat="47.30644" lon="6.09553">
        <ele>448</ele>
        <time>2013-06-09T10:04:10.000Z</time>
      </trkpt>
      <trkpt lat="47.30649" lon="6.09553">
        <ele>447.7</ele>
        <time>2013-06-09T10:04:13.000Z</time>
      </trkpt>
      <trkpt lat="47.3065" lon="6.09553">
        <ele>447.6</ele>
        <time>2013-06-09T10:04:14.000Z</time>
      </trkpt>
      <trkpt lat="47.30654" lon="6.09555">
        <ele>447.7</ele>
        <time>2013-06-09T10:04:17.000Z</time>
      </trkpt>
      <trkpt lat="47.30655" lon="6.09557">
        <ele>447.6</ele>
        <time>2013-06-09T10:04:18.000Z</time>
      </trkpt>
      <trkpt lat="47.30657" lon="6.09561">
        <ele>446.6</ele>
        <time>2013-06-09T10:04:21.000Z</time>
      </trkpt>
      <trkpt lat="47.30658" lon="6.09563">
        <ele>446.5</ele>
        <time>2013-06-09T10:04:22.000Z</time>
      </trkpt>
      <trkpt lat="47.30659" lon="6.09568">
        <ele>446.5</ele>
        <time>2013-06-09T10:04:25.000Z</time>
      </trkpt>
      <trkpt lat="47.30659" lon="6.0957">
        <ele>446.6</ele>
        <time>2013-06-09T10:04:26.000Z</time>
      </trkpt>
      <trkpt lat="47.30661" lon="6.09576">
        <ele>447</ele>
        <time>2013-06-09T10:04:30.000Z</time>
      </trkpt>
      <trkpt lat="47.30661" lon="6.09577">
        <ele>447.1</ele>
        <time>2013-06-09T10:04:31.000Z</time>
      </trkpt>
      <trkpt lat="47.30661" lon="6.09584">
        <ele>447.2</ele>
        <time>2013-06-09T10:04:35.000Z</time>
      </trkpt>
      <trkpt lat="47.3066" lon="6.09585">
        <ele>447.2</ele>
        <time>2013-06-09T10:04:36.000Z</time>
      </trkpt>
      <trkpt lat="47.30662" lon="6.0959">
        <ele>446.8</ele>
        <time>2013-06-09T10:04:40.000Z</time>
      </trkpt>
      <trkpt lat="47.30663" lon="6.0959">
        <ele>446.7</ele>
        <time>2013-06-09T10:04:41.000Z</time>
      </trkpt>
      <trkpt lat="47.30666" lon="6.09591">
        <ele>446</ele>
        <time>2013-06-09T10:04:43.000Z</time>
      </trkpt>
      <trkpt lat="47.30668" lon="6.09591">
        <ele>445.7</ele>
        <time>2013-06-09T10:04:44.000Z</time>
      </trkpt>
      <trkpt lat="47.30671" lon="6.09591">
        <ele>445.5</ele>
        <time>2013-06-09T10:04:46.000Z</time>
      </trkpt>
      <trkpt lat="47.30673" lon="6.0959">
        <ele>445.6</ele>
        <time>2013-06-09T10:04:47.000Z</time>
      </trkpt>
      <trkpt lat="47.30677" lon="6.09589">
        <ele>445.5</ele>
        <time>2013-06-09T10:04:50.000Z</time>
      </trkpt>
      <trkpt lat="47.30679" lon="6.09589">
        <ele>445.6</ele>
        <time>2013-06-09T10:04:51.000Z</time>
      </trkpt>
      <trkpt lat="47.30683" lon="6.09588">
        <ele>445.6</ele>
        <time>2013-06-09T10:04:54.000Z</time>
      </trkpt>
      <trkpt lat="47.30684" lon="6.09588">
        <ele>445.7</ele>
        <time>2013-06-09T10:04:55.000Z</time>
      </trkpt>
      <trkpt lat="47.30688" lon="6.09587">
        <ele>445.6</ele>
        <time>2013-06-09T10:04:58.000Z</time>
      </trkpt>
      <trkpt lat="47.30689" lon="6.09587">
        <ele>445.5</ele>
        <time>2013-06-09T10:04:59.000Z</time>
      </trkpt>
      <trkpt lat="47.30693" lon="6.09588">
        <ele>444.8</ele>
        <time>2013-06-09T10:05:02.000Z</time>
      </trkpt>
      <trkpt lat="47.30694" lon="6.09587">
        <ele>444.6</ele>
        <time>2013-06-09T10:05:03.000Z</time>
      </trkpt>
      <trkpt lat="47.30698" lon="6.09588">
        <ele>444.6</ele>
        <time>2013-06-09T10:05:06.000Z</time>
      </trkpt>
      <trkpt lat="47.30699" lon="6.09588">
        <ele>444.6</ele>
        <time>2013-06-09T10:05:07.000Z</time>
      </trkpt>
      <trkpt lat="47.30701" lon="6.09591">
        <ele>444.3</ele>
        <time>2013-06-09T10:05:10.000Z</time>
      </trkpt>
      <trkpt lat="47.30702" lon="6.09593">
        <ele>444</ele>
        <time>2013-06-09T10:05:11.000Z</time>
      </trkpt>
      <trkpt lat="47.30705" lon="6.09595">
        <ele>443</ele>
        <time>2013-06-09T10:05:14.000Z</time>
      </trkpt>
      <trkpt lat="47.30706" lon="6.09596">
        <ele>442.9</ele>
        <time>2013-06-09T10:05:15.000Z</time>
      </trkpt>
      <trkpt lat="47.30709" lon="6.096">
        <ele>442.8</ele>
        <time>2013-06-09T10:05:19.000Z</time>
      </trkpt>
      <trkpt lat="47.3071" lon="6.09601">
        <ele>442.8</ele>
        <time>2013-06-09T10:05:20.000Z</time>
      </trkpt>
      <trkpt lat="47.30712" lon="6.09607">
        <ele>443.2</ele>
        <time>2013-06-09T10:05:24.000Z</time>
      </trkpt>
      <trkpt lat="47.30712" lon="6.09608">
        <ele>443.3</ele>
        <time>2013-06-09T10:05:25.000Z</time>
      </trkpt>
      <trkpt lat="47.30713" lon="6.09614">
        <ele>444.1</ele>
        <time>2013-06-09T10:05:30.000Z</time>
      </trkpt>
      <trkpt lat="47.30714" lon="6.09615">
        <ele>444</ele>
        <time>2013-06-09T10:05:31.000Z</time>
      </trkpt>
      <trkpt lat="47.30718" lon="6.09615">
        <ele>443.8</ele>
        <time>2013-06-09T10:05:34.000Z</time>
      </trkpt>
      <trkpt lat="47.30719" lon="6.09615">
        <ele>443.8</ele>
        <time>2013-06-09T10:05:35.000Z</time>
      </trkpt>
      <trkpt lat="47.30723" lon="6.09616">
        <ele>444.7</ele>
        <time>2013-06-09T10:05:39.000Z</time>
      </trkpt>
      <trkpt lat="47.30724" lon="6.09616">
        <ele>444.7</ele>
        <time>2013-06-09T10:05:40.000Z</time>
      </trkpt>
      <trkpt lat="47.30729" lon="6.09616">
        <ele>444.7</ele>
        <time>2013-06-09T10:05:44.000Z</time>
      </trkpt>
      <trkpt lat="47.3073" lon="6.09616">
        <ele>444.5</ele>
        <time>2013-06-09T10:05:45.000Z</time>
      </trkpt>
      <trkpt lat="47.30734" lon="6.09616">
        <ele>444.5</ele>
        <time>2013-06-09T10:05:48.000Z</time>
      </trkpt>
      <trkpt lat="47.30735" lon="6.09616">
        <ele>444.5</ele>
        <time>2013-06-09T10:05:49.000Z</time>
      </trkpt>
      <trkpt lat="47.30739" lon="6.09616">
        <ele>444.3</ele>
        <time>2013-06-09T10:05:52.000Z</time>
      </trkpt>
      <trkpt lat="47.30741" lon="6.09616">
        <ele>444.3</ele>
        <time>2013-06-09T10:05:53.000Z</time>
      </trkpt>
      <trkpt lat="47.30744" lon="6.09616">
        <ele>443.8</ele>
        <time>2013-06-09T10:05:55.000Z</time>
      </trkpt>
      <trkpt lat="47.30745" lon="6.09616">
        <ele>443.7</ele>
        <time>2013-06-09T10:05:56.000Z</time>
      </trkpt>
      <trkpt lat="47.30748" lon="6.09616">
        <ele>443.4</ele>
        <time>2013-06-09T10:05:58.000Z</time>
      </trkpt>
      <trkpt lat="47.3075" lon="6.09617">
        <ele>443.3</ele>
        <time>2013-06-09T10:05:59.000Z</time>
      </trkpt>
      <trkpt lat="47.30753" lon="6.09618">
        <ele>443.3</ele>
        <time>2013-06-09T10:06:01.000Z</time>
      </trkpt>
      <trkpt lat="47.30754" lon="6.09618">
        <ele>443.3</ele>
        <time>2013-06-09T10:06:02.000Z</time>
      </trkpt>
      <trkpt lat="47.30759" lon="6.09619">
        <ele>442.4</ele>
        <time>2013-06-09T10:06:05.000Z</time>
      </trkpt>
      <trkpt lat="47.3076" lon="6.09619">
        <ele>442.1</ele>
        <time>2013-06-09T10:06:06.000Z</time>
      </trkpt>
      <trkpt lat="47.30764" lon="6.09621">
        <ele>441.5</ele>
        <time>2013-06-09T10:06:09.000Z</time>
      </trkpt>
      <trkpt lat="47.30765" lon="6.09622">
        <ele>441.4</ele>
        <time>2013-06-09T10:06:10.000Z</time>
      </trkpt>
      <trkpt lat="47.30769" lon="6.09625">
        <ele>441</ele>
        <time>2013-06-09T10:06:13.000Z</time>
      </trkpt>
      <trkpt lat="47.3077" lon="6.09626">
        <ele>441.1</ele>
        <time>2013-06-09T10:06:14.000Z</time>
      </trkpt>
      <trkpt lat="47.30773" lon="6.09629">
        <ele>441.4</ele>
        <time>2013-06-09T10:06:17.000Z</time>
      </trkpt>
      <trkpt lat="47.30774" lon="6.09631">
        <ele>441.1</ele>
        <time>2013-06-09T10:06:18.000Z</time>
      </trkpt>
      <trkpt lat="47.30778" lon="6.09635">
        <ele>440.3</ele>
        <time>2013-06-09T10:06:21.000Z</time>
      </trkpt>
      <trkpt lat="47.30779" lon="6.09636">
        <ele>440.2</ele>
        <time>2013-06-09T10:06:22.000Z</time>
      </trkpt>
      <trkpt lat="47.30782" lon="6.0964">
        <ele>440.7</ele>
        <time>2013-06-09T10:06:25.000Z</time>
      </trkpt>
      <trkpt lat="47.30783" lon="6.09641">
        <ele>440.6</ele>
        <time>2013-06-09T10:06:26.000Z</time>
      </trkpt>
      <trkpt lat="47.30787" lon="6.09644">
        <ele>440.4</ele>
        <time>2013-06-09T10:06:29.000Z</time>
      </trkpt>
      <trkpt lat="47.30788" lon="6.09644">
        <ele>440.4</ele>
        <time>2013-06-09T10:06:30.000Z</time>
      </trkpt>
      <trkpt lat="47.30793" lon="6.09645">
        <ele>439.9</ele>
        <time>2013-06-09T10:06:33.000Z</time>
      </trkpt>
      <trkpt lat="47.30794" lon="6.09646">
        <ele>439.7</ele>
        <time>2013-06-09T10:06:34.000Z</time>
      </trkpt>
      <trkpt lat="47.30798" lon="6.09647">
        <ele>438.4</ele>
        <time>2013-06-09T10:06:37.000Z</time>
      </trkpt>
      <trkpt lat="47.30799" lon="6.09648">
        <ele>437.7</ele>
        <time>2013-06-09T10:06:38.000Z</time>
      </trkpt>
      <trkpt lat="47.30803" lon="6.0965">
        <ele>436.3</ele>
        <time>2013-06-09T10:06:41.000Z</time>
      </trkpt>
      <trkpt lat="47.30805" lon="6.09651">
        <ele>436.3</ele>
        <time>2013-06-09T10:06:42.000Z</time>
      </trkpt>
      <trkpt lat="47.30807" lon="6.09653">
        <ele>436</ele>
        <time>2013-06-09T10:06:44.000Z</time>
      </trkpt>
      <trkpt lat="47.30808" lon="6.09654">
        <ele>435.9</ele>
        <time>2013-06-09T10:06:45.000Z</time>
      </trkpt>
      <trkpt lat="47.30811" lon="6.09659">
        <ele>436.3</ele>
        <time>2013-06-09T10:06:48.000Z</time>
      </trkpt>
      <trkpt lat="47.30811" lon="6.09661">
        <ele>436.3</ele>
        <time>2013-06-09T10:06:49.000Z</time>
      </trkpt>
      <trkpt lat="47.3081" lon="6.09666">
        <ele>434.8</ele>
        <time>2013-06-09T10:06:52.000Z</time>
      </trkpt>
      <trkpt lat="47.3081" lon="6.09668">
        <ele>434.6</ele>
        <time>2013-06-09T10:06:53.000Z</time>
      </trkpt>
      <trkpt lat="47.30808" lon="6.09673">
        <ele>434.3</ele>
        <time>2013-06-09T10:06:56.000Z</time>
      </trkpt>
      <trkpt lat="47.30807" lon="6.09674">
        <ele>434.2</ele>
        <time>2013-06-09T10:06:57.000Z</time>
      </trkpt>
      <trkpt lat="47.30805" lon="6.09679">
        <ele>433.8</ele>
        <time>2013-06-09T10:07:00.000Z</time>
      </trkpt>
      <trkpt lat="47.30804" lon="6.09681">
        <ele>433.5</ele>
        <time>2013-06-09T10:07:01.000Z</time>
      </trkpt>
      <trkpt lat="47.30802" lon="6.09685">
        <ele>432.1</ele>
        <time>2013-06-09T10:07:04.000Z</time>
      </trkpt>
      <trkpt lat="47.30801" lon="6.09687">
        <ele>431.8</ele>
        <time>2013-06-09T10:07:05.000Z</time>
      </trkpt>
      <trkpt lat="47.30799" lon="6.09691">
        <ele>431.6</ele>
        <time>2013-06-09T10:07:08.000Z</time>
      </trkpt>
      <trkpt lat="47.30798" lon="6.09692">
        <ele>431.5</ele>
        <time>2013-06-09T10:07:09.000Z</time>
      </trkpt>
      <trkpt lat="47.30795" lon="6.09695">
        <ele>431.5</ele>
        <time>2013-06-09T10:07:12.000Z</time>
      </trkpt>
      <trkpt lat="47.30794" lon="6.09696">
        <ele>431.5</ele>
        <time>2013-06-09T10:07:13.000Z</time>
      </trkpt>
      <trkpt lat="47.30792" lon="6.097">
        <ele>432.1</ele>
        <time>2013-06-09T10:07:16.000Z</time>
      </trkpt>
      <trkpt lat="47.30791" lon="6.09701">
        <ele>432.2</ele>
        <time>2013-06-09T10:07:17.000Z</time>
      </trkpt>
      <trkpt lat="47.30787" lon="6.09704">
        <ele>431.4</ele>
        <time>2013-06-09T10:07:21.000Z</time>
      </trkpt>
      <trkpt lat="47.30786" lon="6.09704">
        <ele>431.6</ele>
        <time>2013-06-09T10:07:22.000Z</time>
      </trkpt>
      <trkpt lat="47.30782" lon="6.09707">
        <ele>432.1</ele>
        <time>2013-06-09T10:07:26.000Z</time>
      </trkpt>
      <trkpt lat="47.30782" lon="6.09707">
        <ele>431.9</ele>
        <time>2013-06-09T10:07:27.000Z</time>
      </trkpt>
      <trkpt lat="47.30778" lon="6.09711">
        <ele>430.5</ele>
        <time>2013-06-09T10:07:33.000Z</time>
      </trkpt>
      <trkpt lat="47.30777" lon="6.09711">
        <ele>430.4</ele>
        <time>2013-06-09T10:07:34.000Z</time>
      </trkpt>
      <trkpt lat="47.30773" lon="6.09714">
        <ele>431</ele>
        <time>2013-06-09T10:07:39.000Z</time>
      </trkpt>
      <trkpt lat="47.30773" lon="6.09715">
        <ele>431.2</ele>
        <time>2013-06-09T10:07:40.000Z</time>
      </trkpt>
      <trkpt lat="47.30769" lon="6.09718">
        <ele>431.7</ele>
        <time>2013-06-09T10:07:44.000Z</time>
      </trkpt>
      <trkpt lat="47.30769" lon="6.09718">
        <ele>432.1</ele>
        <time>2013-06-09T10:07:45.000Z</time>
      </trkpt>
      <trkpt lat="47.30766" lon="6.09722">
        <ele>432.7</ele>
        <time>2013-06-09T10:07:48.000Z</time>
      </trkpt>
      <trkpt lat="47.30765" lon="6.09723">
        <ele>432.7</ele>
        <time>2013-06-09T10:07:49.000Z</time>
      </trkpt>
      <trkpt lat="47.30763" lon="6.09729">
        <ele>432.7</ele>
        <time>2013-06-09T10:07:52.000Z</time>
      </trkpt>
      <trkpt lat="47.30763" lon="6.0973">
        <ele>432.9</ele>
        <time>2013-06-09T10:07:53.000Z</time>
      </trkpt>
      <trkpt lat="47.30761" lon="6.09736">
        <ele>433.6</ele>
        <time>2013-06-09T10:07:56.000Z</time>
      </trkpt>
      <trkpt lat="47.3076" lon="6.09738">
        <ele>433.7</ele>
        <time>2013-06-09T10:07:57.000Z</time>
      </trkpt>
      <trkpt lat="47.30759" lon="6.09743">
        <ele>434.1</ele>
        <time>2013-06-09T10:08:00.000Z</time>
      </trkpt>
      <trkpt lat="47.30758" lon="6.09745">
        <ele>434.3</ele>
        <time>2013-06-09T10:08:01.000Z</time>
      </trkpt>
      <trkpt lat="47.30757" lon="6.0975">
        <ele>434.6</ele>
        <time>2013-06-09T10:08:04.000Z</time>
      </trkpt>
      <trkpt lat="47.30757" lon="6.09752">
        <ele>434.5</ele>
        <time>2013-06-09T10:08:05.000Z</time>
      </trkpt>
      <trkpt lat="47.30756" lon="6.09757">
        <ele>434.3</ele>
        <time>2013-06-09T10:08:08.000Z</time>
      </trkpt>
      <trkpt lat="47.30755" lon="6.09759">
        <ele>434.2</ele>
        <time>2013-06-09T10:08:09.000Z</time>
      </trkpt>
      <trkpt lat="47.30755" lon="6.09765">
        <ele>432.9</ele>
        <time>2013-06-09T10:08:13.000Z</time>
      </trkpt>
      <trkpt lat="47.30755" lon="6.09767">
        <ele>432.7</ele>
        <time>2013-06-09T10:08:14.000Z</time>
      </trkpt>
      <trkpt lat="47.30754" lon="6.09771">
        <ele>433.2</ele>
        <time>2013-06-09T10:08:17.000Z</time>
      </trkpt>
      <trkpt lat="47.30753" lon="6.09773">
        <ele>433.4</ele>
        <time>2013-06-09T10:08:18.000Z</time>
      </trkpt>
      <trkpt lat="47.30751" lon="6.09777">
        <ele>433.3</ele>
        <time>2013-06-09T10:08:21.000Z</time>
      </trkpt>
      <trkpt lat="47.3075" lon="6.09778">
        <ele>433.3</ele>
        <time>2013-06-09T10:08:22.000Z</time>
      </trkpt>
      <trkpt lat="47.30748" lon="6.09782">
        <ele>433.5</ele>
        <time>2013-06-09T10:08:25.000Z</time>
      </trkpt>
      <trkpt lat="47.30747" lon="6.09784">
        <ele>433.6</ele>
        <time>2013-06-09T10:08:26.000Z</time>
      </trkpt>
      <trkpt lat="47.30745" lon="6.09788">
        <ele>434.1</ele>
        <time>2013-06-09T10:08:29.000Z</time>
      </trkpt>
      <trkpt lat="47.30744" lon="6.0979">
        <ele>433.9</ele>
        <time>2013-06-09T10:08:30.000Z</time>
      </trkpt>
      <trkpt lat="47.30743" lon="6.09795">
        <ele>433.9</ele>
        <time>2013-06-09T10:08:33.000Z</time>
      </trkpt>
      <trkpt lat="47.30743" lon="6.09797">
        <ele>433.9</ele>
        <time>2013-06-09T10:08:34.000Z</time>
      </trkpt>
      <trkpt lat="47.30744" lon="6.09803">
        <ele>433.7</ele>
        <time>2013-06-09T10:08:37.000Z</time>
      </trkpt>
      <trkpt lat="47.30744" lon="6.09805">
        <ele>433.8</ele>
        <time>2013-06-09T10:08:38.000Z</time>
      </trkpt>
      <trkpt lat="47.30744" lon="6.0981">
        <ele>434.5</ele>
        <time>2013-06-09T10:08:41.000Z</time>
      </trkpt>
      <trkpt lat="47.30744" lon="6.09812">
        <ele>434.8</ele>
        <time>2013-06-09T10:08:42.000Z</time>
      </trkpt>
      <trkpt lat="47.30745" lon="6.09817">
        <ele>434.9</ele>
        <time>2013-06-09T10:08:45.000Z</time>
      </trkpt>
      <trkpt lat="47.30746" lon="6.09819">
        <ele>434.7</ele>
        <time>2013-06-09T10:08:46.000Z</time>
      </trkpt>
      <trkpt lat="47.30747" lon="6.09823">
        <ele>434.7</ele>
        <time>2013-06-09T10:08:48.000Z</time>
      </trkpt>
      <trkpt lat="47.30748" lon="6.09825">
        <ele>434.8</ele>
        <time>2013-06-09T10:08:49.000Z</time>
      </trkpt>
      <trkpt lat="47.30749" lon="6.0983">
        <ele>435.1</ele>
        <time>2013-06-09T10:08:51.000Z</time>
      </trkpt>
      <trkpt lat="47.30749" lon="6.09832">
        <ele>435.3</ele>
        <time>2013-06-09T10:08:52.000Z</time>
      </trkpt>
      <trkpt lat="47.30749" lon="6.09838">
        <ele>435.7</ele>
        <time>2013-06-09T10:08:55.000Z</time>
      </trkpt>
      <trkpt lat="47.30749" lon="6.0984">
        <ele>435.6</ele>
        <time>2013-06-09T10:08:56.000Z</time>
      </trkpt>
      <trkpt lat="47.30748" lon="6.09846">
        <ele>436.3</ele>
        <time>2013-06-09T10:08:59.000Z</time>
      </trkpt>
      <trkpt lat="47.30748" lon="6.09848">
        <ele>436.6</ele>
        <time>2013-06-09T10:09:00.000Z</time>
      </trkpt>
      <trkpt lat="47.30747" lon="6.09853">
        <ele>437.3</ele>
        <time>2013-06-09T10:09:03.000Z</time>
      </trkpt>
      <trkpt lat="47.30746" lon="6.09855">
        <ele>437.5</ele>
        <time>2013-06-09T10:09:04.000Z</time>
      </trkpt>
      <trkpt lat="47.30745" lon="6.0986">
        <ele>437.2</ele>
        <time>2013-06-09T10:09:07.000Z</time>
      </trkpt>
      <trkpt lat="47.30745" lon="6.09862">
        <ele>437.2</ele>
        <time>2013-06-09T10:09:08.000Z</time>
      </trkpt>
      <trkpt lat="47.30744" lon="6.09868">
        <ele>436.8</ele>
        <time>2013-06-09T10:09:11.000Z</time>
      </trkpt>
      <trkpt lat="47.30744" lon="6.0987">
        <ele>437</ele>
        <time>2013-06-09T10:09:12.000Z</time>
      </trkpt>
      <trkpt lat="47.30744" lon="6.09875">
        <ele>437.2</ele>
        <time>2013-06-09T10:09:15.000Z</time>
      </trkpt>
      <trkpt lat="47.30744" lon="6.09877">
        <ele>437.2</ele>
        <time>2013-06-09T10:09:16.000Z</time>
      </trkpt>
      <trkpt lat="47.30744" lon="6.09882">
        <ele>437.7</ele>
        <time>2013-06-09T10:09:19.000Z</time>
      </trkpt>
      <trkpt lat="47.30744" lon="6.09884">
        <ele>438</ele>
        <time>2013-06-09T10:09:20.000Z</time>
      </trkpt>
      <trkpt lat="47.30743" lon="6.0989">
        <ele>439</ele>
        <time>2013-06-09T10:09:24.000Z</time>
      </trkpt>
      <trkpt lat="47.30743" lon="6.09891">
        <ele>439.3</ele>
        <time>2013-06-09T10:09:25.000Z</time>
      </trkpt>
      <trkpt lat="47.30741" lon="6.09897">
        <ele>440.1</ele>
        <time>2013-06-09T10:09:29.000Z</time>
      </trkpt>
      <trkpt lat="47.30741" lon="6.09898">
        <ele>440.2</ele>
        <time>2013-06-09T10:09:30.000Z</time>
      </trkpt>
      <trkpt lat="47.3074" lon="6.09904">
        <ele>440.1</ele>
        <time>2013-06-09T10:09:34.000Z</time>
      </trkpt>
      <trkpt lat="47.3074" lon="6.09906">
        <ele>439.8</ele>
        <time>2013-06-09T10:09:35.000Z</time>
      </trkpt>
      <trkpt lat="47.30741" lon="6.0991">
        <ele>439.9</ele>
        <time>2013-06-09T10:09:38.000Z</time>
      </trkpt>
      <trkpt lat="47.30741" lon="6.09912">
        <ele>440</ele>
        <time>2013-06-09T10:09:39.000Z</time>
      </trkpt>
      <trkpt lat="47.30741" lon="6.09917">
        <ele>440.8</ele>
        <time>2013-06-09T10:09:42.000Z</time>
      </trkpt>
      <trkpt lat="47.30741" lon="6.09919">
        <ele>440.9</ele>
        <time>2013-06-09T10:09:43.000Z</time>
      </trkpt>
      <trkpt lat="47.30741" lon="6.09924">
        <ele>441.3</ele>
        <time>2013-06-09T10:09:46.000Z</time>
      </trkpt>
      <trkpt lat="47.30741" lon="6.09926">
        <ele>441.5</ele>
        <time>2013-06-09T10:09:47.000Z</time>
      </trkpt>
      <trkpt lat="47.30741" lon="6.09932">
        <ele>441.7</ele>
        <time>2013-06-09T10:09:51.000Z</time>
      </trkpt>
      <trkpt lat="47.3074" lon="6.09933">
        <ele>441.6</ele>
        <time>2013-06-09T10:09:52.000Z</time>
      </trkpt>
      <trkpt lat="47.3074" lon="6.09938">
        <ele>440.9</ele>
        <time>2013-06-09T10:09:55.000Z</time>
      </trkpt>
      <trkpt lat="47.3074" lon="6.0994">
        <ele>440.5</ele>
        <time>2013-06-09T10:09:56.000Z</time>
      </trkpt>
      <trkpt lat="47.3074" lon="6.09946">
        <ele>440.3</ele>
        <time>2013-06-09T10:09:59.000Z</time>
      </trkpt>
      <trkpt lat="47.30741" lon="6.09947">
        <ele>440.3</ele>
        <time>2013-06-09T10:10:00.000Z</time>
      </trkpt>
      <trkpt lat="47.30741" lon="6.09953">
        <ele>440.5</ele>
        <time>2013-06-09T10:10:03.000Z</time>
      </trkpt>
      <trkpt lat="47.30742" lon="6.09955">
        <ele>440.7</ele>
        <time>2013-06-09T10:10:04.000Z</time>
      </trkpt>
      <trkpt lat="47.30742" lon="6.09961">
        <ele>441.1</ele>
        <time>2013-06-09T10:10:07.000Z</time>
      </trkpt>
      <trkpt lat="47.30742" lon="6.09963">
        <ele>440.9</ele>
        <time>2013-06-09T10:10:08.000Z</time>
      </trkpt>
      <trkpt lat="47.30742" lon="6.09967">
        <ele>440.7</ele>
        <time>2013-06-09T10:10:11.000Z</time>
      </trkpt>
      <trkpt lat="47.30742" lon="6.09969">
        <ele>440.6</ele>
        <time>2013-06-09T10:10:12.000Z</time>
      </trkpt>
      <trkpt lat="47.30742" lon="6.09975">
        <ele>441.5</ele>
        <time>2013-06-09T10:10:15.000Z</time>
      </trkpt>
      <trkpt lat="47.30742" lon="6.09976">
        <ele>441.8</ele>
        <time>2013-06-09T10:10:16.000Z</time>
      </trkpt>
      <trkpt lat="47.30743" lon="6.09982">
        <ele>442.7</ele>
        <time>2013-06-09T10:10:19.000Z</time>
      </trkpt>
      <trkpt lat="47.30744" lon="6.09984">
        <ele>442.8</ele>
        <time>2013-06-09T10:10:20.000Z</time>
      </trkpt>
      <trkpt lat="47.30744" lon="6.09989">
        <ele>442.6</ele>
        <time>2013-06-09T10:10:23.000Z</time>
      </trkpt>
      <trkpt lat="47.30745" lon="6.09991">
        <ele>442.6</ele>
        <time>2013-06-09T10:10:24.000Z</time>
      </trkpt>
      <trkpt lat="47.30746" lon="6.09996">
        <ele>442.6</ele>
        <time>2013-06-09T10:10:27.000Z</time>
      </trkpt>
      <trkpt lat="47.30746" lon="6.09998">
        <ele>443</ele>
        <time>2013-06-09T10:10:28.000Z</time>
      </trkpt>
      <trkpt lat="47.30745" lon="6.10003">
        <ele>443.7</ele>
        <time>2013-06-09T10:10:31.000Z</time>
      </trkpt>
      <trkpt lat="47.30745" lon="6.10005">
        <ele>443.9</ele>
        <time>2013-06-09T10:10:32.000Z</time>
      </trkpt>
      <trkpt lat="47.30744" lon="6.1001">
        <ele>444</ele>
        <time>2013-06-09T10:10:35.000Z</time>
      </trkpt>
      <trkpt lat="47.30744" lon="6.10011">
        <ele>443.8</ele>
        <time>2013-06-09T10:10:36.000Z</time>
      </trkpt>
      <trkpt lat="47.30743" lon="6.10016">
        <ele>443.7</ele>
        <time>2013-06-09T10:10:39.000Z</time>
      </trkpt>
      <trkpt lat="47.30743" lon="6.10018">
        <ele>444.1</ele>
        <time>2013-06-09T10:10:40.000Z</time>
      </trkpt>
      <trkpt lat="47.30744" lon="6.10023">
        <ele>445.2</ele>
        <time>2013-06-09T10:10:43.000Z</time>
      </trkpt>
      <trkpt lat="47.30744" lon="6.10025">
        <ele>445.5</ele>
        <time>2013-06-09T10:10:44.000Z</time>
      </trkpt>
      <trkpt lat="47.30743" lon="6.10031">
        <ele>446.8</ele>
        <time>2013-06-09T10:10:48.000Z</time>
      </trkpt>
      <trkpt lat="47.30743" lon="6.10033">
        <ele>447.1</ele>
        <time>2013-06-09T10:10:49.000Z</time>
      </trkpt>
      <trkpt lat="47.30741" lon="6.10038">
        <ele>446.5</ele>
        <time>2013-06-09T10:10:53.000Z</time>
      </trkpt>
      <trkpt lat="47.3074" lon="6.1004">
        <ele>446.4</ele>
        <time>2013-06-09T10:10:54.000Z</time>
      </trkpt>
      <trkpt lat="47.30739" lon="6.10045">
        <ele>446.5</ele>
        <time>2013-06-09T10:10:57.000Z</time>
      </trkpt>
      <trkpt lat="47.30739" lon="6.10046">
        <ele>446.6</ele>
        <time>2013-06-09T10:10:58.000Z</time>
      </trkpt>
      <trkpt lat="47.30739" lon="6.10053">
        <ele>447.8</ele>
        <time>2013-06-09T10:11:02.000Z</time>
      </trkpt>
      <trkpt lat="47.30739" lon="6.10054">
        <ele>448.1</ele>
        <time>2013-06-09T10:11:03.000Z</time>
      </trkpt>
      <trkpt lat="47.30738" lon="6.1006">
        <ele>449.4</ele>
        <time>2013-06-09T10:11:07.000Z</time>
      </trkpt>
      <trkpt lat="47.30738" lon="6.10062">
        <ele>449.6</ele>
        <time>2013-06-09T10:11:08.000Z</time>
      </trkpt>
      <trkpt lat="47.30739" lon="6.10067">
        <ele>449.9</ele>
        <time>2013-06-09T10:11:11.000Z</time>
      </trkpt>
      <trkpt lat="47.30741" lon="6.10069">
        <ele>450</ele>
        <time>2013-06-09T10:11:12.000Z</time>
      </trkpt>
      <trkpt lat="47.30743" lon="6.10074">
        <ele>450.7</ele>
        <time>2013-06-09T10:11:15.000Z</time>
      </trkpt>
      <trkpt lat="47.30744" lon="6.10076">
        <ele>451</ele>
        <time>2013-06-09T10:11:16.000Z</time>
      </trkpt>
      <trkpt lat="47.30745" lon="6.10082">
        <ele>451.4</ele>
        <time>2013-06-09T10:11:19.000Z</time>
      </trkpt>
      <trkpt lat="47.30745" lon="6.10084">
        <ele>451.5</ele>
        <time>2013-06-09T10:11:20.000Z</time>
      </trkpt>
      <trkpt lat="47.30744" lon="6.10089">
        <ele>451.5</ele>
        <time>2013-06-09T10:11:23.000Z</time>
      </trkpt>
      <trkpt lat="47.30744" lon="6.1009">
        <ele>451.5</ele>
        <time>2013-06-09T10:11:24.000Z</time>
      </trkpt>
      <trkpt lat="47.30744" lon="6.10096">
        <ele>451.6</ele>
        <time>2013-06-09T10:11:27.000Z</time>
      </trkpt>
      <trkpt lat="47.30744" lon="6.10098">
        <ele>451.5</ele>
        <time>2013-06-09T10:11:28.000Z</time>
      </trkpt>
      <trkpt lat="47.30744" lon="6.10104">
        <ele>451.6</ele>
        <time>2013-06-09T10:11:31.000Z</time>
      </trkpt>
      <trkpt lat="47.30744" lon="6.10106">
        <ele>451.6</ele>
        <time>2013-06-09T10:11:32.000Z</time>
      </trkpt>
      <trkpt lat="47.30745" lon="6.10111">
        <ele>451.2</ele>
        <time>2013-06-09T10:11:35.000Z</time>
      </trkpt>
      <trkpt lat="47.30746" lon="6.10113">
        <ele>451.1</ele>
        <time>2013-06-09T10:11:36.000Z</time>
      </trkpt>
      <trkpt lat="47.30747" lon="6.10119">
        <ele>451.8</ele>
        <time>2013-06-09T10:11:39.000Z</time>
      </trkpt>
      <trkpt lat="47.30747" lon="6.10121">
        <ele>452.1</ele>
        <time>2013-06-09T10:11:40.000Z</time>
      </trkpt>
      <trkpt lat="47.30748" lon="6.10127">
        <ele>452.4</ele>
        <time>2013-06-09T10:11:43.000Z</time>
      </trkpt>
      <trkpt lat="47.30748" lon="6.10129">
        <ele>452.4</ele>
        <time>2013-06-09T10:11:44.000Z</time>
      </trkpt>
      <trkpt lat="47.30749" lon="6.10135">
        <ele>452.6</ele>
        <time>2013-06-09T10:11:47.000Z</time>
      </trkpt>
      <trkpt lat="47.30749" lon="6.10137">
        <ele>452.6</ele>
        <time>2013-06-09T10:11:48.000Z</time>
      </trkpt>
      <trkpt lat="47.3075" lon="6.10142">
        <ele>452.1</ele>
        <time>2013-06-09T10:11:51.000Z</time>
      </trkpt>
      <trkpt lat="47.3075" lon="6.10144">
        <ele>452</ele>
        <time>2013-06-09T10:11:52.000Z</time>
      </trkpt>
      <trkpt lat="47.30751" lon="6.10149">
        <ele>452</ele>
        <time>2013-06-09T10:11:55.000Z</time>
      </trkpt>
      <trkpt lat="47.30752" lon="6.10151">
        <ele>452.2</ele>
        <time>2013-06-09T10:11:56.000Z</time>
      </trkpt>
      <trkpt lat="47.30753" lon="6.10155">
        <ele>452.8</ele>
        <time>2013-06-09T10:11:59.000Z</time>
      </trkpt>
      <trkpt lat="47.30754" lon="6.10157">
        <ele>453.1</ele>
        <time>2013-06-09T10:12:00.000Z</time>
      </trkpt>
      <trkpt lat="47.30756" lon="6.10162">
        <ele>453</ele>
        <time>2013-06-09T10:12:03.000Z</time>
      </trkpt>
      <trkpt lat="47.30757" lon="6.10163">
        <ele>453.1</ele>
        <time>2013-06-09T10:12:04.000Z</time>
      </trkpt>
      <trkpt lat="47.30758" lon="6.10168">
        <ele>453.6</ele>
        <time>2013-06-09T10:12:07.000Z</time>
      </trkpt>
      <trkpt lat="47.30758" lon="6.1017">
        <ele>453.9</ele>
        <time>2013-06-09T10:12:08.000Z</time>
      </trkpt>
      <trkpt lat="47.30758" lon="6.10175">
        <ele>454.6</ele>
        <time>2013-06-09T10:12:11.000Z</time>
      </trkpt>
      <trkpt lat="47.30757" lon="6.10177">
        <ele>454.5</ele>
        <time>2013-06-09T10:12:12.000Z</time>
      </trkpt>
      <trkpt lat="47.30756" lon="6.10183">
        <ele>454.4</ele>
        <time>2013-06-09T10:12:15.000Z</time>
      </trkpt>
      <trkpt lat="47.30756" lon="6.10185">
        <ele>454.5</ele>
        <time>2013-06-09T10:12:16.000Z</time>
      </trkpt>
      <trkpt lat="47.30755" lon="6.1019">
        <ele>454.2</ele>
        <time>2013-06-09T10:12:19.000Z</time>
      </trkpt>
      <trkpt lat="47.30755" lon="6.10192">
        <ele>454</ele>
        <time>2013-06-09T10:12:20.000Z</time>
      </trkpt>
      <trkpt lat="47.30754" lon="6.10198">
        <ele>453.7</ele>
        <time>2013-06-09T10:12:23.000Z</time>
      </trkpt>
      <trkpt lat="47.30754" lon="6.102">
        <ele>453.8</ele>
        <time>2013-06-09T10:12:24.000Z</time>
      </trkpt>
      <trkpt lat="47.30754" lon="6.10205">
        <ele>454.2</ele>
        <time>2013-06-09T10:12:27.000Z</time>
      </trkpt>
      <trkpt lat="47.30755" lon="6.10207">
        <ele>454.3</ele>
        <time>2013-06-09T10:12:28.000Z</time>
      </trkpt>
      <trkpt lat="47.30756" lon="6.10212">
        <ele>454.7</ele>
        <time>2013-06-09T10:12:31.000Z</time>
      </trkpt>
      <trkpt lat="47.30757" lon="6.10214">
        <ele>454.9</ele>
        <time>2013-06-09T10:12:32.000Z</time>
      </trkpt>
      <trkpt lat="47.30759" lon="6.10218">
        <ele>455.4</ele>
        <time>2013-06-09T10:12:35.000Z</time>
      </trkpt>
      <trkpt lat="47.30759" lon="6.1022">
        <ele>455.2</ele>
        <time>2013-06-09T10:12:36.000Z</time>
      </trkpt>
      <trkpt lat="47.3076" lon="6.10226">
        <ele>455.5</ele>
        <time>2013-06-09T10:12:39.000Z</time>
      </trkpt>
      <trkpt lat="47.30761" lon="6.10228">
        <ele>455.6</ele>
        <time>2013-06-09T10:12:40.000Z</time>
      </trkpt>
      <trkpt lat="47.30762" lon="6.10233">
        <ele>455</ele>
        <time>2013-06-09T10:12:43.000Z</time>
      </trkpt>
      <trkpt lat="47.30763" lon="6.10235">
        <ele>454.8</ele>
        <time>2013-06-09T10:12:44.000Z</time>
      </trkpt>
      <trkpt lat="47.30764" lon="6.1024">
        <ele>454.7</ele>
        <time>2013-06-09T10:12:47.000Z</time>
      </trkpt>
      <trkpt lat="47.30764" lon="6.10242">
        <ele>454.9</ele>
        <time>2013-06-09T10:12:48.000Z</time>
      </trkpt>
      <trkpt lat="47.30764" lon="6.10248">
        <ele>455.5</ele>
        <time>2013-06-09T10:12:51.000Z</time>
      </trkpt>
      <trkpt lat="47.30764" lon="6.1025">
        <ele>455.5</ele>
        <time>2013-06-09T10:12:52.000Z</time>
      </trkpt>
      <trkpt lat="47.30764" lon="6.10255">
        <ele>456</ele>
        <time>2013-06-09T10:12:55.000Z</time>
      </trkpt>
      <trkpt lat="47.30764" lon="6.10257">
        <ele>455.9</ele>
        <time>2013-06-09T10:12:56.000Z</time>
      </trkpt>
      <trkpt lat="47.30763" lon="6.10262">
        <ele>455.6</ele>
        <time>2013-06-09T10:12:59.000Z</time>
      </trkpt>
      <trkpt lat="47.30763" lon="6.10264">
        <ele>455.4</ele>
        <time>2013-06-09T10:13:00.000Z</time>
      </trkpt>
      <trkpt lat="47.30761" lon="6.10269">
        <ele>455.1</ele>
        <time>2013-06-09T10:13:03.000Z</time>
      </trkpt>
      <trkpt lat="47.30761" lon="6.1027">
        <ele>455.1</ele>
        <time>2013-06-09T10:13:04.000Z</time>
      </trkpt>
      <trkpt lat="47.30761" lon="6.10276">
        <ele>455.3</ele>
        <time>2013-06-09T10:13:07.000Z</time>
      </trkpt>
      <trkpt lat="47.3076" lon="6.10278">
        <ele>455.3</ele>
        <time>2013-06-09T10:13:08.000Z</time>
      </trkpt>
      <trkpt lat="47.30759" lon="6.10283">
        <ele>455.4</ele>
        <time>2013-06-09T10:13:11.000Z</time>
      </trkpt>
      <trkpt lat="47.30759" lon="6.10284">
        <ele>455.5</ele>
        <time>2013-06-09T10:13:12.000Z</time>
      </trkpt>
      <trkpt lat="47.30757" lon="6.10289">
        <ele>455.7</ele>
        <time>2013-06-09T10:13:15.000Z</time>
      </trkpt>
      <trkpt lat="47.30756" lon="6.1029">
        <ele>455.8</ele>
        <time>2013-06-09T10:13:16.000Z</time>
      </trkpt>
      <trkpt lat="47.30754" lon="6.10294">
        <ele>455.7</ele>
        <time>2013-06-09T10:13:19.000Z</time>
      </trkpt>
      <trkpt lat="47.30754" lon="6.10296">
        <ele>455.6</ele>
        <time>2013-06-09T10:13:20.000Z</time>
      </trkpt>
      <trkpt lat="47.30752" lon="6.103">
        <ele>455.7</ele>
        <time>2013-06-09T10:13:23.000Z</time>
      </trkpt>
      <trkpt lat="47.30752" lon="6.10302">
        <ele>455.9</ele>
        <time>2013-06-09T10:13:24.000Z</time>
      </trkpt>
      <trkpt lat="47.3075" lon="6.10306">
        <ele>456.4</ele>
        <time>2013-06-09T10:13:27.000Z</time>
      </trkpt>
      <trkpt lat="47.3075" lon="6.10308">
        <ele>456.5</ele>
        <time>2013-06-09T10:13:28.000Z</time>
      </trkpt>
      <trkpt lat="47.30748" lon="6.10313">
        <ele>457</ele>
        <time>2013-06-09T10:13:31.000Z</time>
      </trkpt>
      <trkpt lat="47.30747" lon="6.10314">
        <ele>457.3</ele>
        <time>2013-06-09T10:13:32.000Z</time>
      </trkpt>
      <trkpt lat="47.30744" lon="6.10318">
        <ele>457.7</ele>
        <time>2013-06-09T10:13:35.000Z</time>
      </trkpt>
      <trkpt lat="47.30744" lon="6.1032">
        <ele>457.9</ele>
        <time>2013-06-09T10:13:36.000Z</time>
      </trkpt>
      <trkpt lat="47.30741" lon="6.10324">
        <ele>458.3</ele>
        <time>2013-06-09T10:13:39.000Z</time>
      </trkpt>
      <trkpt lat="47.3074" lon="6.10326">
        <ele>458.5</ele>
        <time>2013-06-09T10:13:40.000Z</time>
      </trkpt>
      <trkpt lat="47.30739" lon="6.10331">
        <ele>458.9</ele>
        <time>2013-06-09T10:13:43.000Z</time>
      </trkpt>
      <trkpt lat="47.30739" lon="6.10333">
        <ele>458.9</ele>
        <time>2013-06-09T10:13:44.000Z</time>
      </trkpt>
      <trkpt lat="47.30738" lon="6.10338">
        <ele>459.4</ele>
        <time>2013-06-09T10:13:47.000Z</time>
      </trkpt>
      <trkpt lat="47.30738" lon="6.1034">
        <ele>459.7</ele>
        <time>2013-06-09T10:13:48.000Z</time>
      </trkpt>
      <trkpt lat="47.30737" lon="6.10346">
        <ele>460.8</ele>
        <time>2013-06-09T10:13:51.000Z</time>
      </trkpt>
      <trkpt lat="47.30737" lon="6.10348">
        <ele>461.1</ele>
        <time>2013-06-09T10:13:52.000Z</time>
      </trkpt>
      <trkpt lat="47.30737" lon="6.10354">
        <ele>462.1</ele>
        <time>2013-06-09T10:13:55.000Z</time>
      </trkpt>
      <trkpt lat="47.30738" lon="6.10357">
        <ele>462.4</ele>
        <time>2013-06-09T10:13:56.000Z</time>
      </trkpt>
      <trkpt lat="47.30739" lon="6.10362">
        <ele>463.3</ele>
        <time>2013-06-09T10:13:58.000Z</time>
      </trkpt>
      <trkpt lat="47.30739" lon="6.10364">
        <ele>463.8</ele>
        <time>2013-06-09T10:13:59.000Z</time>
      </trkpt>
      <trkpt lat="47.30739" lon="6.1037">
        <ele>464.5</ele>
        <time>2013-06-09T10:14:02.000Z</time>
      </trkpt>
      <trkpt lat="47.30739" lon="6.10372">
        <ele>464.7</ele>
        <time>2013-06-09T10:14:03.000Z</time>
      </trkpt>
      <trkpt lat="47.30738" lon="6.10378">
        <ele>465.1</ele>
        <time>2013-06-09T10:14:06.000Z</time>
      </trkpt>
      <trkpt lat="47.30738" lon="6.10379">
        <ele>465.4</ele>
        <time>2013-06-09T10:14:07.000Z</time>
      </trkpt>
      <trkpt lat="47.30736" lon="6.10385">
        <ele>466.1</ele>
        <time>2013-06-09T10:14:10.000Z</time>
      </trkpt>
      <trkpt lat="47.30736" lon="6.10386">
        <ele>466.3</ele>
        <time>2013-06-09T10:14:11.000Z</time>
      </trkpt>
      <trkpt lat="47.30734" lon="6.10391">
        <ele>466.4</ele>
        <time>2013-06-09T10:14:14.000Z</time>
      </trkpt>
      <trkpt lat="47.30733" lon="6.10392">
        <ele>466.5</ele>
        <time>2013-06-09T10:14:15.000Z</time>
      </trkpt>
      <trkpt lat="47.30731" lon="6.10397">
        <ele>467</ele>
        <time>2013-06-09T10:14:18.000Z</time>
      </trkpt>
      <trkpt lat="47.3073" lon="6.10399">
        <ele>467.4</ele>
        <time>2013-06-09T10:14:19.000Z</time>
      </trkpt>
      <trkpt lat="47.30729" lon="6.10404">
        <ele>468.1</ele>
        <time>2013-06-09T10:14:22.000Z</time>
      </trkpt>
      <trkpt lat="47.30729" lon="6.10406">
        <ele>468.1</ele>
        <time>2013-06-09T10:14:23.000Z</time>
      </trkpt>
      <trkpt lat="47.30728" lon="6.10411">
        <ele>468.3</ele>
        <time>2013-06-09T10:14:26.000Z</time>
      </trkpt>
      <trkpt lat="47.30728" lon="6.10413">
        <ele>468.4</ele>
        <time>2013-06-09T10:14:27.000Z</time>
      </trkpt>
      <trkpt lat="47.30728" lon="6.10419">
        <ele>468.8</ele>
        <time>2013-06-09T10:14:30.000Z</time>
      </trkpt>
      <trkpt lat="47.30728" lon="6.1042">
        <ele>469</ele>
        <time>2013-06-09T10:14:31.000Z</time>
      </trkpt>
      <trkpt lat="47.30727" lon="6.10425">
        <ele>469.1</ele>
        <time>2013-06-09T10:14:34.000Z</time>
      </trkpt>
      <trkpt lat="47.30727" lon="6.10427">
        <ele>469</ele>
        <time>2013-06-09T10:14:35.000Z</time>
      </trkpt>
      <trkpt lat="47.30726" lon="6.10432">
        <ele>470</ele>
        <time>2013-06-09T10:14:38.000Z</time>
      </trkpt>
      <trkpt lat="47.30726" lon="6.10434">
        <ele>470.2</ele>
        <time>2013-06-09T10:14:39.000Z</time>
      </trkpt>
      <trkpt lat="47.30727" lon="6.10439">
        <ele>470.8</ele>
        <time>2013-06-09T10:14:42.000Z</time>
      </trkpt>
      <trkpt lat="47.30727" lon="6.10441">
        <ele>471</ele>
        <time>2013-06-09T10:14:43.000Z</time>
      </trkpt>
      <trkpt lat="47.30727" lon="6.10446">
        <ele>471.8</ele>
        <time>2013-06-09T10:14:46.000Z</time>
      </trkpt>
      <trkpt lat="47.30726" lon="6.10448">
        <ele>472.1</ele>
        <time>2013-06-09T10:14:47.000Z</time>
      </trkpt>
      <trkpt lat="47.30726" lon="6.10452">
        <ele>472.8</ele>
        <time>2013-06-09T10:14:50.000Z</time>
      </trkpt>
      <trkpt lat="47.30725" lon="6.10454">
        <ele>473.3</ele>
        <time>2013-06-09T10:14:51.000Z</time>
      </trkpt>
      <trkpt lat="47.30724" lon="6.10459">
        <ele>475.1</ele>
        <time>2013-06-09T10:14:54.000Z</time>
      </trkpt>
      <trkpt lat="47.30723" lon="6.1046">
        <ele>475.8</ele>
        <time>2013-06-09T10:14:55.000Z</time>
      </trkpt>
      <trkpt lat="47.3072" lon="6.10464">
        <ele>477.7</ele>
        <time>2013-06-09T10:14:58.000Z</time>
      </trkpt>
      <trkpt lat="47.30719" lon="6.10466">
        <ele>478.2</ele>
        <time>2013-06-09T10:14:59.000Z</time>
      </trkpt>
      <trkpt lat="47.30716" lon="6.1047">
        <ele>480</ele>
        <time>2013-06-09T10:15:02.000Z</time>
      </trkpt>
      <trkpt lat="47.30715" lon="6.10471">
        <ele>480.6</ele>
        <time>2013-06-09T10:15:03.000Z</time>
      </trkpt>
      <trkpt lat="47.30713" lon="6.10476">
        <ele>481.5</ele>
        <time>2013-06-09T10:15:06.000Z</time>
      </trkpt>
      <trkpt lat="47.30713" lon="6.10478">
        <ele>481.7</ele>
        <time>2013-06-09T10:15:07.000Z</time>
      </trkpt>
      <trkpt lat="47.30711" lon="6.10484">
        <ele>482.3</ele>
        <time>2013-06-09T10:15:10.000Z</time>
      </trkpt>
      <trkpt lat="47.30711" lon="6.10485">
        <ele>482.5</ele>
        <time>2013-06-09T10:15:11.000Z</time>
      </trkpt>
      <trkpt lat="47.3071" lon="6.10491">
        <ele>483.1</ele>
        <time>2013-06-09T10:15:14.000Z</time>
      </trkpt>
      <trkpt lat="47.3071" lon="6.10493">
        <ele>483</ele>
        <time>2013-06-09T10:15:15.000Z</time>
      </trkpt>
      <trkpt lat="47.3071" lon="6.10499">
        <ele>483</ele>
        <time>2013-06-09T10:15:18.000Z</time>
      </trkpt>
      <trkpt lat="47.3071" lon="6.10501">
        <ele>483.2</ele>
        <time>2013-06-09T10:15:19.000Z</time>
      </trkpt>
      <trkpt lat="47.3071" lon="6.10507">
        <ele>483.2</ele>
        <time>2013-06-09T10:15:22.000Z</time>
      </trkpt>
      <trkpt lat="47.3071" lon="6.10509">
        <ele>483.3</ele>
        <time>2013-06-09T10:15:23.000Z</time>
      </trkpt>
      <trkpt lat="47.30711" lon="6.10516">
        <ele>483.7</ele>
        <time>2013-06-09T10:15:26.000Z</time>
      </trkpt>
      <trkpt lat="47.3071" lon="6.10518">
        <ele>484</ele>
        <time>2013-06-09T10:15:27.000Z</time>
      </trkpt>
      <trkpt lat="47.3071" lon="6.10523">
        <ele>484.5</ele>
        <time>2013-06-09T10:15:30.000Z</time>
      </trkpt>
      <trkpt lat="47.3071" lon="6.10525">
        <ele>484.6</ele>
        <time>2013-06-09T10:15:31.000Z</time>
      </trkpt>
      <trkpt lat="47.30709" lon="6.10531">
        <ele>485.1</ele>
        <time>2013-06-09T10:15:34.000Z</time>
      </trkpt>
      <trkpt lat="47.30709" lon="6.10533">
        <ele>485.2</ele>
        <time>2013-06-09T10:15:35.000Z</time>
      </trkpt>
      <trkpt lat="47.30708" lon="6.10539">
        <ele>485.4</ele>
        <time>2013-06-09T10:15:38.000Z</time>
      </trkpt>
      <trkpt lat="47.30707" lon="6.10541">
        <ele>485.8</ele>
        <time>2013-06-09T10:15:39.000Z</time>
      </trkpt>
      <trkpt lat="47.30706" lon="6.10547">
        <ele>487.3</ele>
        <time>2013-06-09T10:15:42.000Z</time>
      </trkpt>
      <trkpt lat="47.30705" lon="6.10549">
        <ele>487.6</ele>
        <time>2013-06-09T10:15:43.000Z</time>
      </trkpt>
      <trkpt lat="47.30704" lon="6.10554">
        <ele>487.8</ele>
        <time>2013-06-09T10:15:46.000Z</time>
      </trkpt>
      <trkpt lat="47.30704" lon="6.10556">
        <ele>487.8</ele>
        <time>2013-06-09T10:15:47.000Z</time>
      </trkpt>
      <trkpt lat="47.30703" lon="6.10562">
        <ele>488.5</ele>
        <time>2013-06-09T10:15:50.000Z</time>
      </trkpt>
      <trkpt lat="47.30702" lon="6.10564">
        <ele>488.8</ele>
        <time>2013-06-09T10:15:51.000Z</time>
      </trkpt>
      <trkpt lat="47.30702" lon="6.1057">
        <ele>488.8</ele>
        <time>2013-06-09T10:15:54.000Z</time>
      </trkpt>
      <trkpt lat="47.30702" lon="6.10572">
        <ele>488.7</ele>
        <time>2013-06-09T10:15:55.000Z</time>
      </trkpt>
      <trkpt lat="47.30702" lon="6.10577">
        <ele>488.6</ele>
        <time>2013-06-09T10:15:58.000Z</time>
      </trkpt>
      <trkpt lat="47.30702" lon="6.10579">
        <ele>488.7</ele>
        <time>2013-06-09T10:15:59.000Z</time>
      </trkpt>
      <trkpt lat="47.30701" lon="6.10585">
        <ele>487.2</ele>
        <time>2013-06-09T10:16:02.000Z</time>
      </trkpt>
      <trkpt lat="47.307" lon="6.10587">
        <ele>486.7</ele>
        <time>2013-06-09T10:16:03.000Z</time>
      </trkpt>
      <trkpt lat="47.30699" lon="6.10591">
        <ele>486.8</ele>
        <time>2013-06-09T10:16:06.000Z</time>
      </trkpt>
      <trkpt lat="47.30699" lon="6.10593">
        <ele>486.5</ele>
        <time>2013-06-09T10:16:07.000Z</time>
      </trkpt>
      <trkpt lat="47.30697" lon="6.10598">
        <ele>485.9</ele>
        <time>2013-06-09T10:16:10.000Z</time>
      </trkpt>
      <trkpt lat="47.30696" lon="6.106">
        <ele>486.2</ele>
        <time>2013-06-09T10:16:11.000Z</time>
      </trkpt>
      <trkpt lat="47.30694" lon="6.10606">
        <ele>487</ele>
        <time>2013-06-09T10:16:14.000Z</time>
      </trkpt>
      <trkpt lat="47.30693" lon="6.10608">
        <ele>487.1</ele>
        <time>2013-06-09T10:16:15.000Z</time>
      </trkpt>
      <trkpt lat="47.30691" lon="6.10613">
        <ele>487.4</ele>
        <time>2013-06-09T10:16:18.000Z</time>
      </trkpt>
      <trkpt lat="47.30691" lon="6.10615">
        <ele>487.2</ele>
        <time>2013-06-09T10:16:19.000Z</time>
      </trkpt>
      <trkpt lat="47.30689" lon="6.1062">
        <ele>487.4</ele>
        <time>2013-06-09T10:16:22.000Z</time>
      </trkpt>
      <trkpt lat="47.30688" lon="6.10621">
        <ele>487.4</ele>
        <time>2013-06-09T10:16:23.000Z</time>
      </trkpt>
      <trkpt lat="47.30686" lon="6.10626">
        <ele>487.5</ele>
        <time>2013-06-09T10:16:26.000Z</time>
      </trkpt>
      <trkpt lat="47.30685" lon="6.10628">
        <ele>487.4</ele>
        <time>2013-06-09T10:16:27.000Z</time>
      </trkpt>
      <trkpt lat="47.30683" lon="6.10632">
        <ele>487.3</ele>
        <time>2013-06-09T10:16:30.000Z</time>
      </trkpt>
      <trkpt lat="47.30683" lon="6.10633">
        <ele>487.4</ele>
        <time>2013-06-09T10:16:31.000Z</time>
      </trkpt>
      <trkpt lat="47.3068" lon="6.10638">
        <ele>487.2</ele>
        <time>2013-06-09T10:16:35.000Z</time>
      </trkpt>
      <trkpt lat="47.30679" lon="6.10639">
        <ele>487.2</ele>
        <time>2013-06-09T10:16:36.000Z</time>
      </trkpt>
      <trkpt lat="47.30677" lon="6.10643">
        <ele>487.4</ele>
        <time>2013-06-09T10:16:40.000Z</time>
      </trkpt>
      <trkpt lat="47.30676" lon="6.10645">
        <ele>487.4</ele>
        <time>2013-06-09T10:16:41.000Z</time>
      </trkpt>
      <trkpt lat="47.30674" lon="6.10649">
        <ele>487.5</ele>
        <time>2013-06-09T10:16:45.000Z</time>
      </trkpt>
      <trkpt lat="47.30673" lon="6.1065">
        <ele>487.6</ele>
        <time>2013-06-09T10:16:46.000Z</time>
      </trkpt>
      <trkpt lat="47.30669" lon="6.10653">
        <ele>487.9</ele>
        <time>2013-06-09T10:16:50.000Z</time>
      </trkpt>
      <trkpt lat="47.30668" lon="6.10654">
        <ele>488</ele>
        <time>2013-06-09T10:16:51.000Z</time>
      </trkpt>
      <trkpt lat="47.30665" lon="6.10657">
        <ele>488.1</ele>
        <time>2013-06-09T10:16:55.000Z</time>
      </trkpt>
      <trkpt lat="47.30664" lon="6.10658">
        <ele>488.2</ele>
        <time>2013-06-09T10:16:56.000Z</time>
      </trkpt>
      <trkpt lat="47.3066" lon="6.10661">
        <ele>488.8</ele>
        <time>2013-06-09T10:17:00.000Z</time>
      </trkpt>
      <trkpt lat="47.30659" lon="6.10662">
        <ele>488.5</ele>
        <time>2013-06-09T10:17:01.000Z</time>
      </trkpt>
      <trkpt lat="47.30656" lon="6.10667">
        <ele>488.3</ele>
        <time>2013-06-09T10:17:05.000Z</time>
      </trkpt>
      <trkpt lat="47.30655" lon="6.10668">
        <ele>488.4</ele>
        <time>2013-06-09T10:17:06.000Z</time>
      </trkpt>
      <trkpt lat="47.30653" lon="6.10673">
        <ele>488.6</ele>
        <time>2013-06-09T10:17:10.000Z</time>
      </trkpt>
      <trkpt lat="47.30652" lon="6.10674">
        <ele>488.8</ele>
        <time>2013-06-09T10:17:11.000Z</time>
      </trkpt>
      <trkpt lat="47.30651" lon="6.10679">
        <ele>488.9</ele>
        <time>2013-06-09T10:17:14.000Z</time>
      </trkpt>
      <trkpt lat="47.3065" lon="6.1068">
        <ele>488.9</ele>
        <time>2013-06-09T10:17:15.000Z</time>
      </trkpt>
      <trkpt lat="47.30648" lon="6.10685">
        <ele>488.7</ele>
        <time>2013-06-09T10:17:18.000Z</time>
      </trkpt>
      <trkpt lat="47.30647" lon="6.10687">
        <ele>487.7</ele>
        <time>2013-06-09T10:17:19.000Z</time>
      </trkpt>
      <trkpt lat="47.30645" lon="6.10692">
        <ele>488</ele>
        <time>2013-06-09T10:17:22.000Z</time>
      </trkpt>
      <trkpt lat="47.30644" lon="6.10693">
        <ele>488.1</ele>
        <time>2013-06-09T10:17:23.000Z</time>
      </trkpt>
      <trkpt lat="47.30642" lon="6.10698">
        <ele>488</ele>
        <time>2013-06-09T10:17:26.000Z</time>
      </trkpt>
      <trkpt lat="47.30641" lon="6.107">
        <ele>487.9</ele>
        <time>2013-06-09T10:17:27.000Z</time>
      </trkpt>
      <trkpt lat="47.3064" lon="6.10705">
        <ele>487.7</ele>
        <time>2013-06-09T10:17:30.000Z</time>
      </trkpt>
      <trkpt lat="47.30639" lon="6.10707">
        <ele>487.6</ele>
        <time>2013-06-09T10:17:31.000Z</time>
      </trkpt>
      <trkpt lat="47.30637" lon="6.10712">
        <ele>487.4</ele>
        <time>2013-06-09T10:17:34.000Z</time>
      </trkpt>
      <trkpt lat="47.30637" lon="6.10713">
        <ele>487.1</ele>
        <time>2013-06-09T10:17:35.000Z</time>
      </trkpt>
      <trkpt lat="47.30634" lon="6.10718">
        <ele>485.5</ele>
        <time>2013-06-09T10:17:38.000Z</time>
      </trkpt>
      <trkpt lat="47.30633" lon="6.1072">
        <ele>485.5</ele>
        <time>2013-06-09T10:17:39.000Z</time>
      </trkpt>
      <trkpt lat="47.30632" lon="6.10725">
        <ele>485.8</ele>
        <time>2013-06-09T10:17:42.000Z</time>
      </trkpt>
      <trkpt lat="47.30631" lon="6.10727">
        <ele>486.1</ele>
        <time>2013-06-09T10:17:43.000Z</time>
      </trkpt>
      <trkpt lat="47.30629" lon="6.10732">
        <ele>486.1</ele>
        <time>2013-06-09T10:17:46.000Z</time>
      </trkpt>
      <trkpt lat="47.30629" lon="6.10734">
        <ele>486.1</ele>
        <time>2013-06-09T10:17:47.000Z</time>
      </trkpt>
      <trkpt lat="47.30627" lon="6.10739">
        <ele>486.4</ele>
        <time>2013-06-09T10:17:50.000Z</time>
      </trkpt>
      <trkpt lat="47.30627" lon="6.10741">
        <ele>486.5</ele>
        <time>2013-06-09T10:17:51.000Z</time>
      </trkpt>
      <trkpt lat="47.30626" lon="6.10746">
        <ele>486.5</ele>
        <time>2013-06-09T10:17:54.000Z</time>
      </trkpt>
      <trkpt lat="47.30626" lon="6.10748">
        <ele>486.6</ele>
        <time>2013-06-09T10:17:55.000Z</time>
      </trkpt>
      <trkpt lat="47.30625" lon="6.10753">
        <ele>486.4</ele>
        <time>2013-06-09T10:17:58.000Z</time>
      </trkpt>
      <trkpt lat="47.30625" lon="6.10755">
        <ele>486.2</ele>
        <time>2013-06-09T10:17:59.000Z</time>
      </trkpt>
      <trkpt lat="47.30625" lon="6.10761">
        <ele>485.7</ele>
        <time>2013-06-09T10:18:02.000Z</time>
      </trkpt>
      <trkpt lat="47.30625" lon="6.10763">
        <ele>485.5</ele>
        <time>2013-06-09T10:18:03.000Z</time>
      </trkpt>
      <trkpt lat="47.30624" lon="6.10769">
        <ele>485</ele>
        <time>2013-06-09T10:18:06.000Z</time>
      </trkpt>
      <trkpt lat="47.30624" lon="6.10771">
        <ele>484.7</ele>
        <time>2013-06-09T10:18:07.000Z</time>
      </trkpt>
      <trkpt lat="47.30624" lon="6.10776">
        <ele>483.5</ele>
        <time>2013-06-09T10:18:09.000Z</time>
      </trkpt>
      <trkpt lat="47.30624" lon="6.10778">
        <ele>483</ele>
        <time>2013-06-09T10:18:10.000Z</time>
      </trkpt>
      <trkpt lat="47.30623" lon="6.10783">
        <ele>482.5</ele>
        <time>2013-06-09T10:18:12.000Z</time>
      </trkpt>
      <trkpt lat="47.30622" lon="6.10785">
        <ele>482.4</ele>
        <time>2013-06-09T10:18:13.000Z</time>
      </trkpt>
      <trkpt lat="47.30621" lon="6.10792">
        <ele>481.9</ele>
        <time>2013-06-09T10:18:16.000Z</time>
      </trkpt>
      <trkpt lat="47.3062" lon="6.10794">
        <ele>481.8</ele>
        <time>2013-06-09T10:18:17.000Z</time>
      </trkpt>
      <trkpt lat="47.30619" lon="6.10799">
        <ele>481.9</ele>
        <time>2013-06-09T10:18:20.000Z</time>
      </trkpt>
      <trkpt lat="47.30618" lon="6.10801">
        <ele>482</ele>
        <time>2013-06-09T10:18:21.000Z</time>
      </trkpt>
      <trkpt lat="47.30616" lon="6.10807">
        <ele>481.9</ele>
        <time>2013-06-09T10:18:24.000Z</time>
      </trkpt>
      <trkpt lat="47.30615" lon="6.10809">
        <ele>481.7</ele>
        <time>2013-06-09T10:18:25.000Z</time>
      </trkpt>
      <trkpt lat="47.30613" lon="6.10815">
        <ele>481.3</ele>
        <time>2013-06-09T10:18:28.000Z</time>
      </trkpt>
      <trkpt lat="47.30613" lon="6.10817">
        <ele>481.3</ele>
        <time>2013-06-09T10:18:29.000Z</time>
      </trkpt>
      <trkpt lat="47.3061" lon="6.10822">
        <ele>481</ele>
        <time>2013-06-09T10:18:32.000Z</time>
      </trkpt>
      <trkpt lat="47.30609" lon="6.10824">
        <ele>480.3</ele>
        <time>2013-06-09T10:18:33.000Z</time>
      </trkpt>
      <trkpt lat="47.30608" lon="6.10828">
        <ele>480</ele>
        <time>2013-06-09T10:18:35.000Z</time>
      </trkpt>
      <trkpt lat="47.30607" lon="6.1083">
        <ele>479.9</ele>
        <time>2013-06-09T10:18:36.000Z</time>
      </trkpt>
      <trkpt lat="47.30605" lon="6.10834">
        <ele>479.9</ele>
        <time>2013-06-09T10:18:38.000Z</time>
      </trkpt>
      <trkpt lat="47.30604" lon="6.10836">
        <ele>480</ele>
        <time>2013-06-09T10:18:39.000Z</time>
      </trkpt>
      <trkpt lat="47.30603" lon="6.1084">
        <ele>480.3</ele>
        <time>2013-06-09T10:18:41.000Z</time>
      </trkpt>
      <trkpt lat="47.30602" lon="6.10842">
        <ele>480.3</ele>
        <time>2013-06-09T10:18:42.000Z</time>
      </trkpt>
      <trkpt lat="47.306" lon="6.10846">
        <ele>480.3</ele>
        <time>2013-06-09T10:18:44.000Z</time>
      </trkpt>
      <trkpt lat="47.306" lon="6.10848">
        <ele>480.4</ele>
        <time>2013-06-09T10:18:45.000Z</time>
      </trkpt>
      <trkpt lat="47.30599" lon="6.10852">
        <ele>480.1</ele>
        <time>2013-06-09T10:18:47.000Z</time>
      </trkpt>
      <trkpt lat="47.30598" lon="6.10854">
        <ele>480.1</ele>
        <time>2013-06-09T10:18:48.000Z</time>
      </trkpt>
      <trkpt lat="47.30597" lon="6.10858">
        <ele>479.6</ele>
        <time>2013-06-09T10:18:50.000Z</time>
      </trkpt>
      <trkpt lat="47.30597" lon="6.1086">
        <ele>479.3</ele>
        <time>2013-06-09T10:18:51.000Z</time>
      </trkpt>
      <trkpt lat="47.30595" lon="6.10866">
        <ele>478.7</ele>
        <time>2013-06-09T10:18:54.000Z</time>
      </trkpt>
      <trkpt lat="47.30595" lon="6.10869">
        <ele>478.5</ele>
        <time>2013-06-09T10:18:55.000Z</time>
      </trkpt>
      <trkpt lat="47.30594" lon="6.10875">
        <ele>477.7</ele>
        <time>2013-06-09T10:18:58.000Z</time>
      </trkpt>
      <trkpt lat="47.30593" lon="6.10877">
        <ele>477.2</ele>
        <time>2013-06-09T10:18:59.000Z</time>
      </trkpt>
      <trkpt lat="47.30593" lon="6.10882">
        <ele>476.7</ele>
        <time>2013-06-09T10:19:02.000Z</time>
      </trkpt>
      <trkpt lat="47.30593" lon="6.10884">
        <ele>476.5</ele>
        <time>2013-06-09T10:19:03.000Z</time>
      </trkpt>
      <trkpt lat="47.30592" lon="6.1089">
        <ele>476</ele>
        <time>2013-06-09T10:19:06.000Z</time>
      </trkpt>
      <trkpt lat="47.30592" lon="6.10893">
        <ele>475.9</ele>
        <time>2013-06-09T10:19:07.000Z</time>
      </trkpt>
      <trkpt lat="47.30592" lon="6.10899">
        <ele>475.8</ele>
        <time>2013-06-09T10:19:10.000Z</time>
      </trkpt>
      <trkpt lat="47.30592" lon="6.10901">
        <ele>475.8</ele>
        <time>2013-06-09T10:19:11.000Z</time>
      </trkpt>
      <trkpt lat="47.30592" lon="6.10907">
        <ele>475.6</ele>
        <time>2013-06-09T10:19:14.000Z</time>
      </trkpt>
      <trkpt lat="47.30592" lon="6.10909">
        <ele>475.5</ele>
        <time>2013-06-09T10:19:15.000Z</time>
      </trkpt>
      <trkpt lat="47.30592" lon="6.10915">
        <ele>475.2</ele>
        <time>2013-06-09T10:19:18.000Z</time>
      </trkpt>
      <trkpt lat="47.30592" lon="6.10917">
        <ele>475.2</ele>
        <time>2013-06-09T10:19:19.000Z</time>
      </trkpt>
      <trkpt lat="47.30593" lon="6.10923">
        <ele>475</ele>
        <time>2013-06-09T10:19:22.000Z</time>
      </trkpt>
      <trkpt lat="47.30593" lon="6.10925">
        <ele>475</ele>
        <time>2013-06-09T10:19:23.000Z</time>
      </trkpt>
      <trkpt lat="47.30594" lon="6.10931">
        <ele>474.8</ele>
        <time>2013-06-09T10:19:26.000Z</time>
      </trkpt>
      <trkpt lat="47.30594" lon="6.10933">
        <ele>474.7</ele>
        <time>2013-06-09T10:19:27.000Z</time>
      </trkpt>
      <trkpt lat="47.30595" lon="6.10939">
        <ele>474.6</ele>
        <time>2013-06-09T10:19:30.000Z</time>
      </trkpt>
      <trkpt lat="47.30596" lon="6.10941">
        <ele>474.7</ele>
        <time>2013-06-09T10:19:31.000Z</time>
      </trkpt>
      <trkpt lat="47.30596" lon="6.10946">
        <ele>475</ele>
        <time>2013-06-09T10:19:34.000Z</time>
      </trkpt>
      <trkpt lat="47.30597" lon="6.10948">
        <ele>475.1</ele>
        <time>2013-06-09T10:19:35.000Z</time>
      </trkpt>
      <trkpt lat="47.30597" lon="6.10954">
        <ele>475.2</ele>
        <time>2013-06-09T10:19:38.000Z</time>
      </trkpt>
      <trkpt lat="47.30598" lon="6.10956">
        <ele>475.3</ele>
        <time>2013-06-09T10:19:39.000Z</time>
      </trkpt>
      <trkpt lat="47.30598" lon="6.10963">
        <ele>475.3</ele>
        <time>2013-06-09T10:19:42.000Z</time>
      </trkpt>
      <trkpt lat="47.30598" lon="6.10964">
        <ele>475.4</ele>
        <time>2013-06-09T10:19:43.000Z</time>
      </trkpt>
      <trkpt lat="47.30599" lon="6.10971">
        <ele>475.5</ele>
        <time>2013-06-09T10:19:46.000Z</time>
      </trkpt>
      <trkpt lat="47.30599" lon="6.10973">
        <ele>475.5</ele>
        <time>2013-06-09T10:19:47.000Z</time>
      </trkpt>
      <trkpt lat="47.30599" lon="6.10979">
        <ele>475.8</ele>
        <time>2013-06-09T10:19:50.000Z</time>
      </trkpt>
      <trkpt lat="47.30599" lon="6.10981">
        <ele>475.9</ele>
        <time>2013-06-09T10:19:51.000Z</time>
      </trkpt>
      <trkpt lat="47.30598" lon="6.10986">
        <ele>476.1</ele>
        <time>2013-06-09T10:19:54.000Z</time>
      </trkpt>
      <trkpt lat="47.30597" lon="6.10988">
        <ele>476.3</ele>
        <time>2013-06-09T10:19:55.000Z</time>
      </trkpt>
      <trkpt lat="47.30595" lon="6.10993">
        <ele>476.6</ele>
        <time>2013-06-09T10:19:58.000Z</time>
      </trkpt>
      <trkpt lat="47.30594" lon="6.10994">
        <ele>476.4</ele>
        <time>2013-06-09T10:19:59.000Z</time>
      </trkpt>
      <trkpt lat="47.30592" lon="6.10997">
        <ele>476.2</ele>
        <time>2013-06-09T10:20:01.000Z</time>
      </trkpt>
      <trkpt lat="47.3059" lon="6.10998">
        <ele>476.1</ele>
        <time>2013-06-09T10:20:02.000Z</time>
      </trkpt>
      <trkpt lat="47.30587" lon="6.11">
        <ele>476.1</ele>
        <time>2013-06-09T10:20:04.000Z</time>
      </trkpt>
      <trkpt lat="47.30586" lon="6.11">
        <ele>476.1</ele>
        <time>2013-06-09T10:20:05.000Z</time>
      </trkpt>
      <trkpt lat="47.30582" lon="6.11002">
        <ele>475.8</ele>
        <time>2013-06-09T10:20:08.000Z</time>
      </trkpt>
      <trkpt lat="47.3058" lon="6.11003">
        <ele>475.7</ele>
        <time>2013-06-09T10:20:09.000Z</time>
      </trkpt>
      <trkpt lat="47.30576" lon="6.11006">
        <ele>475.5</ele>
        <time>2013-06-09T10:20:13.000Z</time>
      </trkpt>
      <trkpt lat="47.30575" lon="6.11007">
        <ele>475.6</ele>
        <time>2013-06-09T10:20:14.000Z</time>
      </trkpt>
      <trkpt lat="47.30574" lon="6.11013">
        <ele>475.5</ele>
        <time>2013-06-09T10:20:17.000Z</time>
      </trkpt>
      <trkpt lat="47.30574" lon="6.11015">
        <ele>475.5</ele>
        <time>2013-06-09T10:20:18.000Z</time>
      </trkpt>
      <trkpt lat="47.30576" lon="6.1102">
        <ele>475.3</ele>
        <time>2013-06-09T10:20:21.000Z</time>
      </trkpt>
      <trkpt lat="47.30577" lon="6.11022">
        <ele>475.3</ele>
        <time>2013-06-09T10:20:22.000Z</time>
      </trkpt>
      <trkpt lat="47.30578" lon="6.11027">
        <ele>475.3</ele>
        <time>2013-06-09T10:20:25.000Z</time>
      </trkpt>
      <trkpt lat="47.30578" lon="6.11029">
        <ele>475.3</ele>
        <time>2013-06-09T10:20:26.000Z</time>
      </trkpt>
      <trkpt lat="47.30579" lon="6.11035">
        <ele>475.6</ele>
        <time>2013-06-09T10:20:29.000Z</time>
      </trkpt>
      <trkpt lat="47.30579" lon="6.11036">
        <ele>475.7</ele>
        <time>2013-06-09T10:20:30.000Z</time>
      </trkpt>
      <trkpt lat="47.3058" lon="6.11042">
        <ele>476.2</ele>
        <time>2013-06-09T10:20:33.000Z</time>
      </trkpt>
      <trkpt lat="47.3058" lon="6.11043">
        <ele>476.4</ele>
        <time>2013-06-09T10:20:34.000Z</time>
      </trkpt>
      <trkpt lat="47.30582" lon="6.11049">
        <ele>476.5</ele>
        <time>2013-06-09T10:20:37.000Z</time>
      </trkpt>
      <trkpt lat="47.30582" lon="6.11051">
        <ele>476.5</ele>
        <time>2013-06-09T10:20:38.000Z</time>
      </trkpt>
      <trkpt lat="47.30584" lon="6.11056">
        <ele>476.7</ele>
        <time>2013-06-09T10:20:41.000Z</time>
      </trkpt>
      <trkpt lat="47.30584" lon="6.11058">
        <ele>476.7</ele>
        <time>2013-06-09T10:20:42.000Z</time>
      </trkpt>
      <trkpt lat="47.30585" lon="6.11064">
        <ele>476.6</ele>
        <time>2013-06-09T10:20:45.000Z</time>
      </trkpt>
      <trkpt lat="47.30585" lon="6.11066">
        <ele>476.7</ele>
        <time>2013-06-09T10:20:46.000Z</time>
      </trkpt>
      <trkpt lat="47.30586" lon="6.11072">
        <ele>477.1</ele>
        <time>2013-06-09T10:20:49.000Z</time>
      </trkpt>
      <trkpt lat="47.30586" lon="6.11074">
        <ele>477.2</ele>
        <time>2013-06-09T10:20:50.000Z</time>
      </trkpt>
      <trkpt lat="47.30586" lon="6.11081">
        <ele>477.8</ele>
        <time>2013-06-09T10:20:53.000Z</time>
      </trkpt>
      <trkpt lat="47.30586" lon="6.11082">
        <ele>478</ele>
        <time>2013-06-09T10:20:54.000Z</time>
      </trkpt>
      <trkpt lat="47.30586" lon="6.11089">
        <ele>478.5</ele>
        <time>2013-06-09T10:20:57.000Z</time>
      </trkpt>
      <trkpt lat="47.30586" lon="6.11091">
        <ele>478.7</ele>
        <time>2013-06-09T10:20:58.000Z</time>
      </trkpt>
      <trkpt lat="47.30587" lon="6.11097">
        <ele>479.2</ele>
        <time>2013-06-09T10:21:01.000Z</time>
      </trkpt>
      <trkpt lat="47.30587" lon="6.11099">
        <ele>479.3</ele>
        <time>2013-06-09T10:21:02.000Z</time>
      </trkpt>
      <trkpt lat="47.30586" lon="6.11106">
        <ele>479.8</ele>
        <time>2013-06-09T10:21:05.000Z</time>
      </trkpt>
      <trkpt lat="47.30586" lon="6.11108">
        <ele>480</ele>
        <time>2013-06-09T10:21:06.000Z</time>
      </trkpt>
      <trkpt lat="47.30586" lon="6.11114">
        <ele>480.2</ele>
        <time>2013-06-09T10:21:09.000Z</time>
      </trkpt>
      <trkpt lat="47.30586" lon="6.11116">
        <ele>480.4</ele>
        <time>2013-06-09T10:21:10.000Z</time>
      </trkpt>
      <trkpt lat="47.30585" lon="6.11121">
        <ele>480.5</ele>
        <time>2013-06-09T10:21:13.000Z</time>
      </trkpt>
      <trkpt lat="47.30585" lon="6.11123">
        <ele>480.7</ele>
        <time>2013-06-09T10:21:14.000Z</time>
      </trkpt>
      <trkpt lat="47.30585" lon="6.11129">
        <ele>481.3</ele>
        <time>2013-06-09T10:21:17.000Z</time>
      </trkpt>
      <trkpt lat="47.30585" lon="6.11132">
        <ele>481.4</ele>
        <time>2013-06-09T10:21:18.000Z</time>
      </trkpt>
      <trkpt lat="47.30584" lon="6.11137">
        <ele>481.8</ele>
        <time>2013-06-09T10:21:21.000Z</time>
      </trkpt>
      <trkpt lat="47.30584" lon="6.11139">
        <ele>482</ele>
        <time>2013-06-09T10:21:22.000Z</time>
      </trkpt>
      <trkpt lat="47.30582" lon="6.11144">
        <ele>482.3</ele>
        <time>2013-06-09T10:21:25.000Z</time>
      </trkpt>
      <trkpt lat="47.30582" lon="6.11146">
        <ele>482.5</ele>
        <time>2013-06-09T10:21:26.000Z</time>
      </trkpt>
      <trkpt lat="47.3058" lon="6.11151">
        <ele>483</ele>
        <time>2013-06-09T10:21:29.000Z</time>
      </trkpt>
      <trkpt lat="47.3058" lon="6.11153">
        <ele>483.2</ele>
        <time>2013-06-09T10:21:30.000Z</time>
      </trkpt>
      <trkpt lat="47.30578" lon="6.11158">
        <ele>483.2</ele>
        <time>2013-06-09T10:21:34.000Z</time>
      </trkpt>
      <trkpt lat="47.30577" lon="6.1116">
        <ele>483.3</ele>
        <time>2013-06-09T10:21:35.000Z</time>
      </trkpt>
      <trkpt lat="47.30575" lon="6.11165">
        <ele>483.3</ele>
        <time>2013-06-09T10:21:39.000Z</time>
      </trkpt>
      <trkpt lat="47.30575" lon="6.11166">
        <ele>483.3</ele>
        <time>2013-06-09T10:21:40.000Z</time>
      </trkpt>
      <trkpt lat="47.30573" lon="6.11171">
        <ele>483.9</ele>
        <time>2013-06-09T10:21:45.000Z</time>
      </trkpt>
      <trkpt lat="47.30572" lon="6.11173">
        <ele>484</ele>
        <time>2013-06-09T10:21:46.000Z</time>
      </trkpt>
      <trkpt lat="47.3057" lon="6.11177">
        <ele>484.2</ele>
        <time>2013-06-09T10:21:49.000Z</time>
      </trkpt>
      <trkpt lat="47.30569" lon="6.11178">
        <ele>484.2</ele>
        <time>2013-06-09T10:21:50.000Z</time>
      </trkpt>
      <trkpt lat="47.30567" lon="6.11183">
        <ele>484.4</ele>
        <time>2013-06-09T10:21:53.000Z</time>
      </trkpt>
      <trkpt lat="47.30566" lon="6.11184">
        <ele>484.5</ele>
        <time>2013-06-09T10:21:54.000Z</time>
      </trkpt>
      <trkpt lat="47.30564" lon="6.11189">
        <ele>484.8</ele>
        <time>2013-06-09T10:21:57.000Z</time>
      </trkpt>
      <trkpt lat="47.30564" lon="6.1119">
        <ele>484.9</ele>
        <time>2013-06-09T10:21:58.000Z</time>
      </trkpt>
      <trkpt lat="47.30561" lon="6.11195">
        <ele>485</ele>
        <time>2013-06-09T10:22:01.000Z</time>
      </trkpt>
      <trkpt lat="47.30561" lon="6.11196">
        <ele>485.1</ele>
        <time>2013-06-09T10:22:02.000Z</time>
      </trkpt>
      <trkpt lat="47.30558" lon="6.11199">
        <ele>485.2</ele>
        <time>2013-06-09T10:22:05.000Z</time>
      </trkpt>
      <trkpt lat="47.30557" lon="6.112">
        <ele>485.2</ele>
        <time>2013-06-09T10:22:06.000Z</time>
      </trkpt>
      <trkpt lat="47.30552" lon="6.11199">
        <ele>485.1</ele>
        <time>2013-06-09T10:22:11.000Z</time>
      </trkpt>
      <trkpt lat="47.30552" lon="6.11199">
        <ele>485.1</ele>
        <time>2013-06-09T10:22:12.000Z</time>
      </trkpt>
      <trkpt lat="47.30555" lon="6.11201">
        <ele>488.2</ele>
        <time>2013-06-09T10:22:53.000Z</time>
      </trkpt>
      <trkpt lat="47.30557" lon="6.11202">
        <ele>488.2</ele>
        <time>2013-06-09T10:22:54.000Z</time>
      </trkpt>
      <trkpt lat="47.30561" lon="6.11202">
        <ele>488.2</ele>
        <time>2013-06-09T10:23:12.000Z</time>
      </trkpt>
      <trkpt lat="47.30562" lon="6.11202">
        <ele>488.7</ele>
        <time>2013-06-09T10:23:13.000Z</time>
      </trkpt>
      <trkpt lat="47.30566" lon="6.11205">
        <ele>490.2</ele>
        <time>2013-06-09T10:23:19.000Z</time>
      </trkpt>
      <trkpt lat="47.30566" lon="6.11205">
        <ele>490.4</ele>
        <time>2013-06-09T10:23:20.000Z</time>
      </trkpt>
      <trkpt lat="47.30568" lon="6.11211">
        <ele>491.6</ele>
        <time>2013-06-09T10:23:26.000Z</time>
      </trkpt>
      <trkpt lat="47.30569" lon="6.11212">
        <ele>492.1</ele>
        <time>2013-06-09T10:23:27.000Z</time>
      </trkpt>
      <trkpt lat="47.3057" lon="6.11217">
        <ele>492.3</ele>
        <time>2013-06-09T10:23:31.000Z</time>
      </trkpt>
      <trkpt lat="47.30571" lon="6.11218">
        <ele>492.3</ele>
        <time>2013-06-09T10:23:32.000Z</time>
      </trkpt>
      <trkpt lat="47.30573" lon="6.11223">
        <ele>492.5</ele>
        <time>2013-06-09T10:23:36.000Z</time>
      </trkpt>
      <trkpt lat="47.30573" lon="6.11224">
        <ele>492.7</ele>
        <time>2013-06-09T10:23:37.000Z</time>
      </trkpt>
      <trkpt lat="47.30575" lon="6.11229">
        <ele>492.9</ele>
        <time>2013-06-09T10:23:41.000Z</time>
      </trkpt>
      <trkpt lat="47.30576" lon="6.1123">
        <ele>493</ele>
        <time>2013-06-09T10:23:42.000Z</time>
      </trkpt>
      <trkpt lat="47.30578" lon="6.11235">
        <ele>493</ele>
        <time>2013-06-09T10:23:46.000Z</time>
      </trkpt>
      <trkpt lat="47.30578" lon="6.11237">
        <ele>492.9</ele>
        <time>2013-06-09T10:23:47.000Z</time>
      </trkpt>
      <trkpt lat="47.30581" lon="6.11241">
        <ele>493.1</ele>
        <time>2013-06-09T10:23:51.000Z</time>
      </trkpt>
      <trkpt lat="47.30581" lon="6.11243">
        <ele>493.2</ele>
        <time>2013-06-09T10:23:52.000Z</time>
      </trkpt>
      <trkpt lat="47.30583" lon="6.11248">
        <ele>493.6</ele>
        <time>2013-06-09T10:23:56.000Z</time>
      </trkpt>
      <trkpt lat="47.30583" lon="6.1125">
        <ele>493.9</ele>
        <time>2013-06-09T10:23:57.000Z</time>
      </trkpt>
      <trkpt lat="47.30585" lon="6.11255">
        <ele>495</ele>
        <time>2013-06-09T10:24:01.000Z</time>
      </trkpt>
      <trkpt lat="47.30585" lon="6.11256">
        <ele>495.3</ele>
        <time>2013-06-09T10:24:02.000Z</time>
      </trkpt>
      <trkpt lat="47.30588" lon="6.11262">
        <ele>496.2</ele>
        <time>2013-06-09T10:24:07.000Z</time>
      </trkpt>
      <trkpt lat="47.30588" lon="6.11263">
        <ele>496.1</ele>
        <time>2013-06-09T10:24:08.000Z</time>
      </trkpt>
      <trkpt lat="47.3059" lon="6.11268">
        <ele>496.6</ele>
        <time>2013-06-09T10:24:12.000Z</time>
      </trkpt>
      <trkpt lat="47.30591" lon="6.11269">
        <ele>496.7</ele>
        <time>2013-06-09T10:24:13.000Z</time>
      </trkpt>
      <trkpt lat="47.30593" lon="6.11275">
        <ele>497.5</ele>
        <time>2013-06-09T10:24:17.000Z</time>
      </trkpt>
      <trkpt lat="47.30594" lon="6.11276">
        <ele>497.7</ele>
        <time>2013-06-09T10:24:18.000Z</time>
      </trkpt>
      <trkpt lat="47.30596" lon="6.11282">
        <ele>498.5</ele>
        <time>2013-06-09T10:24:22.000Z</time>
      </trkpt>
      <trkpt lat="47.30596" lon="6.11283">
        <ele>498.5</ele>
        <time>2013-06-09T10:24:23.000Z</time>
      </trkpt>
      <trkpt lat="47.30598" lon="6.11287">
        <ele>498.6</ele>
        <time>2013-06-09T10:24:26.000Z</time>
      </trkpt>
      <trkpt lat="47.30599" lon="6.11289">
        <ele>498.5</ele>
        <time>2013-06-09T10:24:27.000Z</time>
      </trkpt>
      <trkpt lat="47.30601" lon="6.11294">
        <ele>499.2</ele>
        <time>2013-06-09T10:24:31.000Z</time>
      </trkpt>
      <trkpt lat="47.30602" lon="6.11295">
        <ele>499.1</ele>
        <time>2013-06-09T10:24:32.000Z</time>
      </trkpt>
      <trkpt lat="47.30604" lon="6.11299">
        <ele>499</ele>
        <time>2013-06-09T10:24:35.000Z</time>
      </trkpt>
      <trkpt lat="47.30605" lon="6.11301">
        <ele>499</ele>
        <time>2013-06-09T10:24:36.000Z</time>
      </trkpt>
      <trkpt lat="47.30606" lon="6.11305">
        <ele>499.3</ele>
        <time>2013-06-09T10:24:39.000Z</time>
      </trkpt>
      <trkpt lat="47.30607" lon="6.11306">
        <ele>499.5</ele>
        <time>2013-06-09T10:24:40.000Z</time>
      </trkpt>
      <trkpt lat="47.30609" lon="6.1131">
        <ele>499.8</ele>
        <time>2013-06-09T10:24:43.000Z</time>
      </trkpt>
      <trkpt lat="47.3061" lon="6.11312">
        <ele>500.1</ele>
        <time>2013-06-09T10:24:44.000Z</time>
      </trkpt>
      <trkpt lat="47.30611" lon="6.11316">
        <ele>501</ele>
        <time>2013-06-09T10:24:47.000Z</time>
      </trkpt>
      <trkpt lat="47.30612" lon="6.11318">
        <ele>501.2</ele>
        <time>2013-06-09T10:24:48.000Z</time>
      </trkpt>
      <trkpt lat="47.30614" lon="6.11322">
        <ele>501.6</ele>
        <time>2013-06-09T10:24:51.000Z</time>
      </trkpt>
      <trkpt lat="47.30615" lon="6.11323">
        <ele>501.7</ele>
        <time>2013-06-09T10:24:52.000Z</time>
      </trkpt>
      <trkpt lat="47.30617" lon="6.11328">
        <ele>502.2</ele>
        <time>2013-06-09T10:24:55.000Z</time>
      </trkpt>
      <trkpt lat="47.30618" lon="6.11329">
        <ele>502.2</ele>
        <time>2013-06-09T10:24:56.000Z</time>
      </trkpt>
      <trkpt lat="47.3062" lon="6.11334">
        <ele>502.4</ele>
        <time>2013-06-09T10:24:59.000Z</time>
      </trkpt>
      <trkpt lat="47.3062" lon="6.11336">
        <ele>502</ele>
        <time>2013-06-09T10:25:00.000Z</time>
      </trkpt>
      <trkpt lat="47.30622" lon="6.11341">
        <ele>501.6</ele>
        <time>2013-06-09T10:25:03.000Z</time>
      </trkpt>
      <trkpt lat="47.30622" lon="6.11343">
        <ele>501.6</ele>
        <time>2013-06-09T10:25:04.000Z</time>
      </trkpt>
      <trkpt lat="47.30623" lon="6.11349">
        <ele>501.3</ele>
        <time>2013-06-09T10:25:07.000Z</time>
      </trkpt>
      <trkpt lat="47.30623" lon="6.11352">
        <ele>501.2</ele>
        <time>2013-06-09T10:25:08.000Z</time>
      </trkpt>
      <trkpt lat="47.30624" lon="6.11356">
        <ele>501.1</ele>
        <time>2013-06-09T10:25:10.000Z</time>
      </trkpt>
      <trkpt lat="47.30624" lon="6.11358">
        <ele>501.1</ele>
        <time>2013-06-09T10:25:11.000Z</time>
      </trkpt>
      <trkpt lat="47.30625" lon="6.11365">
        <ele>501.2</ele>
        <time>2013-06-09T10:25:14.000Z</time>
      </trkpt>
      <trkpt lat="47.30625" lon="6.11367">
        <ele>501.2</ele>
        <time>2013-06-09T10:25:15.000Z</time>
      </trkpt>
      <trkpt lat="47.30626" lon="6.11372">
        <ele>501.5</ele>
        <time>2013-06-09T10:25:17.000Z</time>
      </trkpt>
      <trkpt lat="47.30627" lon="6.11374">
        <ele>501.7</ele>
        <time>2013-06-09T10:25:18.000Z</time>
      </trkpt>
      <trkpt lat="47.30628" lon="6.11378">
        <ele>502.2</ele>
        <time>2013-06-09T10:25:20.000Z</time>
      </trkpt>
      <trkpt lat="47.30628" lon="6.1138">
        <ele>502.4</ele>
        <time>2013-06-09T10:25:21.000Z</time>
      </trkpt>
      <trkpt lat="47.3063" lon="6.11386">
        <ele>503</ele>
        <time>2013-06-09T10:25:24.000Z</time>
      </trkpt>
      <trkpt lat="47.3063" lon="6.11388">
        <ele>503.2</ele>
        <time>2013-06-09T10:25:25.000Z</time>
      </trkpt>
      <trkpt lat="47.30632" lon="6.11394">
        <ele>503.3</ele>
        <time>2013-06-09T10:25:28.000Z</time>
      </trkpt>
      <trkpt lat="47.30632" lon="6.11396">
        <ele>503.4</ele>
        <time>2013-06-09T10:25:29.000Z</time>
      </trkpt>
      <trkpt lat="47.30634" lon="6.11402">
        <ele>503.8</ele>
        <time>2013-06-09T10:25:32.000Z</time>
      </trkpt>
      <trkpt lat="47.30634" lon="6.11404">
        <ele>503.9</ele>
        <time>2013-06-09T10:25:33.000Z</time>
      </trkpt>
      <trkpt lat="47.30635" lon="6.11409">
        <ele>504.1</ele>
        <time>2013-06-09T10:25:36.000Z</time>
      </trkpt>
      <trkpt lat="47.30636" lon="6.11411">
        <ele>504.5</ele>
        <time>2013-06-09T10:25:37.000Z</time>
      </trkpt>
      <trkpt lat="47.30637" lon="6.11417">
        <ele>505.3</ele>
        <time>2013-06-09T10:25:40.000Z</time>
      </trkpt>
      <trkpt lat="47.30638" lon="6.11418">
        <ele>505.5</ele>
        <time>2013-06-09T10:25:41.000Z</time>
      </trkpt>
      <trkpt lat="47.30639" lon="6.11424">
        <ele>505.9</ele>
        <time>2013-06-09T10:25:44.000Z</time>
      </trkpt>
      <trkpt lat="47.3064" lon="6.11426">
        <ele>506</ele>
        <time>2013-06-09T10:25:45.000Z</time>
      </trkpt>
      <trkpt lat="47.30641" lon="6.11431">
        <ele>506.7</ele>
        <time>2013-06-09T10:25:48.000Z</time>
      </trkpt>
      <trkpt lat="47.30641" lon="6.11433">
        <ele>507</ele>
        <time>2013-06-09T10:25:49.000Z</time>
      </trkpt>
      <trkpt lat="47.30643" lon="6.11438">
        <ele>508.1</ele>
        <time>2013-06-09T10:25:52.000Z</time>
      </trkpt>
      <trkpt lat="47.30643" lon="6.1144">
        <ele>508.3</ele>
        <time>2013-06-09T10:25:53.000Z</time>
      </trkpt>
      <trkpt lat="47.30645" lon="6.11446">
        <ele>509.2</ele>
        <time>2013-06-09T10:25:57.000Z</time>
      </trkpt>
      <trkpt lat="47.30645" lon="6.11447">
        <ele>509.5</ele>
        <time>2013-06-09T10:25:58.000Z</time>
      </trkpt>
      <trkpt lat="47.30646" lon="6.11453">
        <ele>509.6</ele>
        <time>2013-06-09T10:26:02.000Z</time>
      </trkpt>
      <trkpt lat="47.30647" lon="6.11454">
        <ele>509.7</ele>
        <time>2013-06-09T10:26:03.000Z</time>
      </trkpt>
      <trkpt lat="47.30648" lon="6.1146">
        <ele>510.5</ele>
        <time>2013-06-09T10:26:07.000Z</time>
      </trkpt>
      <trkpt lat="47.30649" lon="6.11462">
        <ele>510.6</ele>
        <time>2013-06-09T10:26:08.000Z</time>
      </trkpt>
      <trkpt lat="47.3065" lon="6.11467">
        <ele>511.2</ele>
        <time>2013-06-09T10:26:11.000Z</time>
      </trkpt>
      <trkpt lat="47.30651" lon="6.11468">
        <ele>511.5</ele>
        <time>2013-06-09T10:26:12.000Z</time>
      </trkpt>
      <trkpt lat="47.30652" lon="6.11473">
        <ele>511.8</ele>
        <time>2013-06-09T10:26:15.000Z</time>
      </trkpt>
      <trkpt lat="47.30652" lon="6.11474">
        <ele>511.9</ele>
        <time>2013-06-09T10:26:16.000Z</time>
      </trkpt>
      <trkpt lat="47.30654" lon="6.11479">
        <ele>511.7</ele>
        <time>2013-06-09T10:26:19.000Z</time>
      </trkpt>
      <trkpt lat="47.30654" lon="6.11481">
        <ele>511.7</ele>
        <time>2013-06-09T10:26:20.000Z</time>
      </trkpt>
      <trkpt lat="47.30656" lon="6.11486">
        <ele>511.6</ele>
        <time>2013-06-09T10:26:23.000Z</time>
      </trkpt>
      <trkpt lat="47.30656" lon="6.11488">
        <ele>511.4</ele>
        <time>2013-06-09T10:26:24.000Z</time>
      </trkpt>
      <trkpt lat="47.30657" lon="6.11493">
        <ele>511.8</ele>
        <time>2013-06-09T10:26:27.000Z</time>
      </trkpt>
      <trkpt lat="47.30658" lon="6.11495">
        <ele>512</ele>
        <time>2013-06-09T10:26:28.000Z</time>
      </trkpt>
      <trkpt lat="47.30659" lon="6.115">
        <ele>512.5</ele>
        <time>2013-06-09T10:26:31.000Z</time>
      </trkpt>
      <trkpt lat="47.30659" lon="6.11502">
        <ele>512.6</ele>
        <time>2013-06-09T10:26:32.000Z</time>
      </trkpt>
      <trkpt lat="47.30661" lon="6.11507">
        <ele>513</ele>
        <time>2013-06-09T10:26:35.000Z</time>
      </trkpt>
      <trkpt lat="47.30661" lon="6.11509">
        <ele>513.2</ele>
        <time>2013-06-09T10:26:36.000Z</time>
      </trkpt>
      <trkpt lat="47.30663" lon="6.11515">
        <ele>514</ele>
        <time>2013-06-09T10:26:39.000Z</time>
      </trkpt>
      <trkpt lat="47.30663" lon="6.11516">
        <ele>514.2</ele>
        <time>2013-06-09T10:26:40.000Z</time>
      </trkpt>
      <trkpt lat="47.30665" lon="6.11522">
        <ele>514.9</ele>
        <time>2013-06-09T10:26:43.000Z</time>
      </trkpt>
      <trkpt lat="47.30665" lon="6.11524">
        <ele>515.3</ele>
        <time>2013-06-09T10:26:44.000Z</time>
      </trkpt>
      <trkpt lat="47.30667" lon="6.11529">
        <ele>516</ele>
        <time>2013-06-09T10:26:47.000Z</time>
      </trkpt>
      <trkpt lat="47.30668" lon="6.11531">
        <ele>516.2</ele>
        <time>2013-06-09T10:26:48.000Z</time>
      </trkpt>
      <trkpt lat="47.3067" lon="6.11536">
        <ele>516.1</ele>
        <time>2013-06-09T10:26:51.000Z</time>
      </trkpt>
      <trkpt lat="47.3067" lon="6.11538">
        <ele>516.3</ele>
        <time>2013-06-09T10:26:52.000Z</time>
      </trkpt>
      <trkpt lat="47.30672" lon="6.11543">
        <ele>516.4</ele>
        <time>2013-06-09T10:26:55.000Z</time>
      </trkpt>
      <trkpt lat="47.30672" lon="6.11545">
        <ele>516.5</ele>
        <time>2013-06-09T10:26:56.000Z</time>
      </trkpt>
      <trkpt lat="47.30674" lon="6.1155">
        <ele>517.1</ele>
        <time>2013-06-09T10:26:58.000Z</time>
      </trkpt>
      <trkpt lat="47.30674" lon="6.11552">
        <ele>517.3</ele>
        <time>2013-06-09T10:26:59.000Z</time>
      </trkpt>
      <trkpt lat="47.30675" lon="6.11558">
        <ele>518.1</ele>
        <time>2013-06-09T10:27:02.000Z</time>
      </trkpt>
      <trkpt lat="47.30675" lon="6.1156">
        <ele>518.5</ele>
        <time>2013-06-09T10:27:03.000Z</time>
      </trkpt>
      <trkpt lat="47.30676" lon="6.11566">
        <ele>519.1</ele>
        <time>2013-06-09T10:27:06.000Z</time>
      </trkpt>
      <trkpt lat="47.30676" lon="6.11568">
        <ele>519.2</ele>
        <time>2013-06-09T10:27:07.000Z</time>
      </trkpt>
      <trkpt lat="47.30676" lon="6.11573">
        <ele>519.2</ele>
        <time>2013-06-09T10:27:10.000Z</time>
      </trkpt>
      <trkpt lat="47.30676" lon="6.11575">
        <ele>519.1</ele>
        <time>2013-06-09T10:27:11.000Z</time>
      </trkpt>
      <trkpt lat="47.30676" lon="6.11581">
        <ele>518.9</ele>
        <time>2013-06-09T10:27:14.000Z</time>
      </trkpt>
      <trkpt lat="47.30675" lon="6.11583">
        <ele>518.7</ele>
        <time>2013-06-09T10:27:15.000Z</time>
      </trkpt>
      <trkpt lat="47.30675" lon="6.11589">
        <ele>518.1</ele>
        <time>2013-06-09T10:27:18.000Z</time>
      </trkpt>
      <trkpt lat="47.30674" lon="6.11591">
        <ele>518.3</ele>
        <time>2013-06-09T10:27:19.000Z</time>
      </trkpt>
      <trkpt lat="47.30672" lon="6.11596">
        <ele>518.2</ele>
        <time>2013-06-09T10:27:22.000Z</time>
      </trkpt>
      <trkpt lat="47.30671" lon="6.11598">
        <ele>518</ele>
        <time>2013-06-09T10:27:23.000Z</time>
      </trkpt>
      <trkpt lat="47.30669" lon="6.11602">
        <ele>517.5</ele>
        <time>2013-06-09T10:27:26.000Z</time>
      </trkpt>
      <trkpt lat="47.30668" lon="6.11604">
        <ele>517.5</ele>
        <time>2013-06-09T10:27:27.000Z</time>
      </trkpt>
      <trkpt lat="47.30666" lon="6.11607">
        <ele>517.5</ele>
        <time>2013-06-09T10:27:30.000Z</time>
      </trkpt>
      <trkpt lat="47.30665" lon="6.11609">
        <ele>517.5</ele>
        <time>2013-06-09T10:27:31.000Z</time>
      </trkpt>
      <trkpt lat="47.30662" lon="6.11613">
        <ele>517.4</ele>
        <time>2013-06-09T10:27:35.000Z</time>
      </trkpt>
      <trkpt lat="47.30661" lon="6.11614">
        <ele>517.4</ele>
        <time>2013-06-09T10:27:36.000Z</time>
      </trkpt>
      <trkpt lat="47.30658" lon="6.11618">
        <ele>517.5</ele>
        <time>2013-06-09T10:27:40.000Z</time>
      </trkpt>
      <trkpt lat="47.30657" lon="6.11619">
        <ele>517.5</ele>
        <time>2013-06-09T10:27:41.000Z</time>
      </trkpt>
      <trkpt lat="47.30653" lon="6.11621">
        <ele>517.5</ele>
        <time>2013-06-09T10:27:45.000Z</time>
      </trkpt>
      <trkpt lat="47.30651" lon="6.11621">
        <ele>517.4</ele>
        <time>2013-06-09T10:27:46.000Z</time>
      </trkpt>
      <trkpt lat="47.30648" lon="6.11623">
        <ele>518</ele>
        <time>2013-06-09T10:27:49.000Z</time>
      </trkpt>
      <trkpt lat="47.30647" lon="6.11624">
        <ele>518.1</ele>
        <time>2013-06-09T10:27:50.000Z</time>
      </trkpt>
      <trkpt lat="47.30643" lon="6.11626">
        <ele>518.3</ele>
        <time>2013-06-09T10:27:53.000Z</time>
      </trkpt>
      <trkpt lat="47.30642" lon="6.11626">
        <ele>518.4</ele>
        <time>2013-06-09T10:27:54.000Z</time>
      </trkpt>
      <trkpt lat="47.30637" lon="6.11628">
        <ele>518.8</ele>
        <time>2013-06-09T10:27:57.000Z</time>
      </trkpt>
      <trkpt lat="47.30636" lon="6.11628">
        <ele>518.7</ele>
        <time>2013-06-09T10:27:58.000Z</time>
      </trkpt>
      <trkpt lat="47.30632" lon="6.11629">
        <ele>518.7</ele>
        <time>2013-06-09T10:28:01.000Z</time>
      </trkpt>
      <trkpt lat="47.30631" lon="6.11629">
        <ele>518.7</ele>
        <time>2013-06-09T10:28:02.000Z</time>
      </trkpt>
      <trkpt lat="47.30627" lon="6.11629">
        <ele>518.6</ele>
        <time>2013-06-09T10:28:05.000Z</time>
      </trkpt>
      <trkpt lat="47.30625" lon="6.11629">
        <ele>518.7</ele>
        <time>2013-06-09T10:28:06.000Z</time>
      </trkpt>
      <trkpt lat="47.30622" lon="6.11628">
        <ele>518.6</ele>
        <time>2013-06-09T10:28:09.000Z</time>
      </trkpt>
      <trkpt lat="47.3062" lon="6.11629">
        <ele>518.8</ele>
        <time>2013-06-09T10:28:10.000Z</time>
      </trkpt>
      <trkpt lat="47.30618" lon="6.11631">
        <ele>519.2</ele>
        <time>2013-06-09T10:32:34.000Z</time>
      </trkpt>
      <trkpt lat="47.30616" lon="6.11631">
        <ele>535.6</ele>
        <time>2013-06-09T10:32:35.000Z</time>
      </trkpt>
      <trkpt lat="47.30618" lon="6.11627">
        <ele>536</ele>
        <time>2013-06-09T10:33:03.000Z</time>
      </trkpt>
      <trkpt lat="47.3062" lon="6.11627">
        <ele>536</ele>
        <time>2013-06-09T10:33:04.000Z</time>
      </trkpt>
      <trkpt lat="47.30622" lon="6.11632">
        <ele>536</ele>
        <time>2013-06-09T10:33:24.000Z</time>
      </trkpt>
      <trkpt lat="47.30623" lon="6.11633">
        <ele>536</ele>
        <time>2013-06-09T10:33:25.000Z</time>
      </trkpt>
      <trkpt lat="47.30623" lon="6.11628">
        <ele>534.8</ele>
        <time>2013-06-09T10:35:03.000Z</time>
      </trkpt>
      <trkpt lat="47.30622" lon="6.11626">
        <ele>534.8</ele>
        <time>2013-06-09T10:35:04.000Z</time>
      </trkpt>
      <trkpt lat="47.3062" lon="6.11621">
        <ele>534.8</ele>
        <time>2013-06-09T10:35:21.000Z</time>
      </trkpt>
      <trkpt lat="47.30619" lon="6.1162">
        <ele>534.8</ele>
        <time>2013-06-09T10:35:22.000Z</time>
      </trkpt>
      <trkpt lat="47.30618" lon="6.11624">
        <ele>532.1</ele>
        <time>2013-06-09T10:36:52.000Z</time>
      </trkpt>
      <trkpt lat="47.30618" lon="6.11627">
        <ele>531.9</ele>
        <time>2013-06-09T10:36:53.000Z</time>
      </trkpt>
      <trkpt lat="47.30615" lon="6.11631">
        <ele>530.5</ele>
        <time>2013-06-09T10:36:55.000Z</time>
      </trkpt>
      <trkpt lat="47.30614" lon="6.11632">
        <ele>530.2</ele>
        <time>2013-06-09T10:36:56.000Z</time>
      </trkpt>
      <trkpt lat="47.30609" lon="6.1163">
        <ele>529.8</ele>
        <time>2013-06-09T10:37:00.000Z</time>
      </trkpt>
      <trkpt lat="47.30609" lon="6.11632">
        <ele>529.6</ele>
        <time>2013-06-09T10:37:01.000Z</time>
      </trkpt>
      <trkpt lat="47.30606" lon="6.11635">
        <ele>525.7</ele>
        <time>2013-06-09T10:37:22.000Z</time>
      </trkpt>
      <trkpt lat="47.30605" lon="6.11637">
        <ele>525.7</ele>
        <time>2013-06-09T10:37:23.000Z</time>
      </trkpt>
      <trkpt lat="47.30603" lon="6.11642">
        <ele>525.1</ele>
        <time>2013-06-09T10:37:26.000Z</time>
      </trkpt>
      <trkpt lat="47.30602" lon="6.11643">
        <ele>525.2</ele>
        <time>2013-06-09T10:37:27.000Z</time>
      </trkpt>
      <trkpt lat="47.30599" lon="6.11648">
        <ele>525</ele>
        <time>2013-06-09T10:37:30.000Z</time>
      </trkpt>
      <trkpt lat="47.30598" lon="6.11649">
        <ele>524.7</ele>
        <time>2013-06-09T10:37:31.000Z</time>
      </trkpt>
      <trkpt lat="47.30596" lon="6.11653">
        <ele>524.1</ele>
        <time>2013-06-09T10:37:34.000Z</time>
      </trkpt>
      <trkpt lat="47.30595" lon="6.11655">
        <ele>524</ele>
        <time>2013-06-09T10:37:35.000Z</time>
      </trkpt>
      <trkpt lat="47.30593" lon="6.11659">
        <ele>524.3</ele>
        <time>2013-06-09T10:37:38.000Z</time>
      </trkpt>
      <trkpt lat="47.30592" lon="6.1166">
        <ele>524.4</ele>
        <time>2013-06-09T10:37:39.000Z</time>
      </trkpt>
      <trkpt lat="47.3059" lon="6.11665">
        <ele>524.5</ele>
        <time>2013-06-09T10:37:42.000Z</time>
      </trkpt>
      <trkpt lat="47.30589" lon="6.11666">
        <ele>524.6</ele>
        <time>2013-06-09T10:37:43.000Z</time>
      </trkpt>
      <trkpt lat="47.30586" lon="6.1167">
        <ele>524.5</ele>
        <time>2013-06-09T10:37:46.000Z</time>
      </trkpt>
      <trkpt lat="47.30585" lon="6.11672">
        <ele>524.3</ele>
        <time>2013-06-09T10:37:47.000Z</time>
      </trkpt>
      <trkpt lat="47.30584" lon="6.11673">
        <ele>524.3</ele>
        <time>2013-06-09T10:37:48.000Z</time>
      </trkpt>
      <trkpt lat="47.30576" lon="6.11685">
        <ele>510</ele>
        <time>2013-06-09T10:37:59.000Z</time>
      </trkpt>
      <trkpt lat="47.30575" lon="6.11689">
        <ele>510</ele>
        <time>2013-06-09T10:38:11.000Z</time>
      </trkpt>
      <trkpt lat="47.30571" lon="6.11696">
        <ele>524.4</ele>
        <time>2013-06-09T10:38:12.000Z</time>
      </trkpt>
      <trkpt lat="47.30569" lon="6.11701">
        <ele>522.5</ele>
        <time>2013-06-09T10:38:13.000Z</time>
      </trkpt>
      <trkpt lat="47.30566" lon="6.11705">
        <ele>522.5</ele>
        <time>2013-06-09T10:38:14.000Z</time>
      </trkpt>
      <trkpt lat="47.30564" lon="6.11709">
        <ele>523.5</ele>
        <time>2013-06-09T10:38:15.000Z</time>
      </trkpt>
      <trkpt lat="47.30562" lon="6.11713">
        <ele>523.7</ele>
        <time>2013-06-09T10:38:16.000Z</time>
      </trkpt>
      <trkpt lat="47.3056" lon="6.11717">
        <ele>523.6</ele>
        <time>2013-06-09T10:38:17.000Z</time>
      </trkpt>
      <trkpt lat="47.30559" lon="6.11719">
        <ele>523.3</ele>
        <time>2013-06-09T10:38:18.000Z</time>
      </trkpt>
      <trkpt lat="47.30557" lon="6.11724">
        <ele>522.6</ele>
        <time>2013-06-09T10:38:20.000Z</time>
      </trkpt>
      <trkpt lat="47.30555" lon="6.11726">
        <ele>522.8</ele>
        <time>2013-06-09T10:38:21.000Z</time>
      </trkpt>
      <trkpt lat="47.30553" lon="6.11731">
        <ele>522.4</ele>
        <time>2013-06-09T10:38:23.000Z</time>
      </trkpt>
      <trkpt lat="47.30552" lon="6.11732">
        <ele>522.2</ele>
        <time>2013-06-09T10:38:24.000Z</time>
      </trkpt>
      <trkpt lat="47.3055" lon="6.11736">
        <ele>521.4</ele>
        <time>2013-06-09T10:38:26.000Z</time>
      </trkpt>
      <trkpt lat="47.30549" lon="6.11738">
        <ele>520.9</ele>
        <time>2013-06-09T10:38:27.000Z</time>
      </trkpt>
      <trkpt lat="47.30547" lon="6.11741">
        <ele>520.4</ele>
        <time>2013-06-09T10:38:29.000Z</time>
      </trkpt>
      <trkpt lat="47.30546" lon="6.11743">
        <ele>520.2</ele>
        <time>2013-06-09T10:38:30.000Z</time>
      </trkpt>
      <trkpt lat="47.30543" lon="6.11747">
        <ele>519.8</ele>
        <time>2013-06-09T10:38:33.000Z</time>
      </trkpt>
      <trkpt lat="47.30542" lon="6.11748">
        <ele>519.7</ele>
        <time>2013-06-09T10:38:34.000Z</time>
      </trkpt>
      <trkpt lat="47.3054" lon="6.11752">
        <ele>519.3</ele>
        <time>2013-06-09T10:38:37.000Z</time>
      </trkpt>
      <trkpt lat="47.30539" lon="6.11754">
        <ele>519.2</ele>
        <time>2013-06-09T10:38:38.000Z</time>
      </trkpt>
      <trkpt lat="47.30536" lon="6.11757">
        <ele>518.5</ele>
        <time>2013-06-09T10:38:41.000Z</time>
      </trkpt>
      <trkpt lat="47.30535" lon="6.11758">
        <ele>518.6</ele>
        <time>2013-06-09T10:38:42.000Z</time>
      </trkpt>
      <trkpt lat="47.30532" lon="6.1176">
        <ele>518.6</ele>
        <time>2013-06-09T10:38:44.000Z</time>
      </trkpt>
      <trkpt lat="47.3053" lon="6.1176">
        <ele>518.6</ele>
        <time>2013-06-09T10:38:45.000Z</time>
      </trkpt>
      <trkpt lat="47.30527" lon="6.11761">
        <ele>518.6</ele>
        <time>2013-06-09T10:38:47.000Z</time>
      </trkpt>
      <trkpt lat="47.30525" lon="6.11761">
        <ele>518.3</ele>
        <time>2013-06-09T10:38:48.000Z</time>
      </trkpt>
      <trkpt lat="47.30522" lon="6.1176">
        <ele>517.8</ele>
        <time>2013-06-09T10:38:50.000Z</time>
      </trkpt>
      <trkpt lat="47.30521" lon="6.1176">
        <ele>517.8</ele>
        <time>2013-06-09T10:38:51.000Z</time>
      </trkpt>
      <trkpt lat="47.30518" lon="6.11758">
        <ele>517.8</ele>
        <time>2013-06-09T10:38:53.000Z</time>
      </trkpt>
      <trkpt lat="47.30516" lon="6.11758">
        <ele>517.9</ele>
        <time>2013-06-09T10:38:54.000Z</time>
      </trkpt>
      <trkpt lat="47.30512" lon="6.11755">
        <ele>517.9</ele>
        <time>2013-06-09T10:38:57.000Z</time>
      </trkpt>
      <trkpt lat="47.30511" lon="6.11754">
        <ele>518</ele>
        <time>2013-06-09T10:38:58.000Z</time>
      </trkpt>
      <trkpt lat="47.30507" lon="6.1175">
        <ele>518.4</ele>
        <time>2013-06-09T10:39:01.000Z</time>
      </trkpt>
      <trkpt lat="47.30506" lon="6.11749">
        <ele>518</ele>
        <time>2013-06-09T10:39:02.000Z</time>
      </trkpt>
      <trkpt lat="47.30503" lon="6.11745">
        <ele>517.5</ele>
        <time>2013-06-09T10:39:05.000Z</time>
      </trkpt>
      <trkpt lat="47.30502" lon="6.11744">
        <ele>517.3</ele>
        <time>2013-06-09T10:39:06.000Z</time>
      </trkpt>
      <trkpt lat="47.30499" lon="6.11741">
        <ele>518.2</ele>
        <time>2013-06-09T10:39:09.000Z</time>
      </trkpt>
      <trkpt lat="47.30497" lon="6.1174">
        <ele>518.5</ele>
        <time>2013-06-09T10:39:10.000Z</time>
      </trkpt>
      <trkpt lat="47.30494" lon="6.11737">
        <ele>519.3</ele>
        <time>2013-06-09T10:39:13.000Z</time>
      </trkpt>
      <trkpt lat="47.30493" lon="6.11736">
        <ele>519.5</ele>
        <time>2013-06-09T10:39:14.000Z</time>
      </trkpt>
      <trkpt lat="47.3049" lon="6.11732">
        <ele>519.7</ele>
        <time>2013-06-09T10:39:17.000Z</time>
      </trkpt>
      <trkpt lat="47.30489" lon="6.11731">
        <ele>519.8</ele>
        <time>2013-06-09T10:39:18.000Z</time>
      </trkpt>
      <trkpt lat="47.30486" lon="6.11727">
        <ele>520.4</ele>
        <time>2013-06-09T10:39:21.000Z</time>
      </trkpt>
      <trkpt lat="47.30485" lon="6.11726">
        <ele>520.6</ele>
        <time>2013-06-09T10:39:22.000Z</time>
      </trkpt>
      <trkpt lat="47.30482" lon="6.11722">
        <ele>521.1</ele>
        <time>2013-06-09T10:39:26.000Z</time>
      </trkpt>
      <trkpt lat="47.30481" lon="6.11721">
        <ele>520.8</ele>
        <time>2013-06-09T10:39:27.000Z</time>
      </trkpt>
      <trkpt lat="47.30477" lon="6.11718">
        <ele>519.8</ele>
        <time>2013-06-09T10:39:31.000Z</time>
      </trkpt>
      <trkpt lat="47.30476" lon="6.11717">
        <ele>519.8</ele>
        <time>2013-06-09T10:39:32.000Z</time>
      </trkpt>
      <trkpt lat="47.30473" lon="6.11714">
        <ele>519.5</ele>
        <time>2013-06-09T10:39:35.000Z</time>
      </trkpt>
      <trkpt lat="47.30473" lon="6.11712">
        <ele>519.5</ele>
        <time>2013-06-09T10:39:36.000Z</time>
      </trkpt>
      <trkpt lat="47.3047" lon="6.11708">
        <ele>519.3</ele>
        <time>2013-06-09T10:39:39.000Z</time>
      </trkpt>
      <trkpt lat="47.30469" lon="6.11707">
        <ele>519.3</ele>
        <time>2013-06-09T10:39:40.000Z</time>
      </trkpt>
      <trkpt lat="47.30466" lon="6.11703">
        <ele>519.3</ele>
        <time>2013-06-09T10:39:43.000Z</time>
      </trkpt>
      <trkpt lat="47.30465" lon="6.11702">
        <ele>519.4</ele>
        <time>2013-06-09T10:39:44.000Z</time>
      </trkpt>
      <trkpt lat="47.30461" lon="6.11698">
        <ele>519.1</ele>
        <time>2013-06-09T10:39:47.000Z</time>
      </trkpt>
      <trkpt lat="47.3046" lon="6.11697">
        <ele>519</ele>
        <time>2013-06-09T10:39:48.000Z</time>
      </trkpt>
      <trkpt lat="47.30456" lon="6.11693">
        <ele>518.3</ele>
        <time>2013-06-09T10:39:51.000Z</time>
      </trkpt>
      <trkpt lat="47.30455" lon="6.11692">
        <ele>518.2</ele>
        <time>2013-06-09T10:39:52.000Z</time>
      </trkpt>
      <trkpt lat="47.30453" lon="6.11687">
        <ele>517.5</ele>
        <time>2013-06-09T10:39:56.000Z</time>
      </trkpt>
      <trkpt lat="47.30452" lon="6.11686">
        <ele>517.5</ele>
        <time>2013-06-09T10:39:57.000Z</time>
      </trkpt>
      <trkpt lat="47.30449" lon="6.11683">
        <ele>517.6</ele>
        <time>2013-06-09T10:40:00.000Z</time>
      </trkpt>
      <trkpt lat="47.30448" lon="6.11681">
        <ele>517.6</ele>
        <time>2013-06-09T10:40:01.000Z</time>
      </trkpt>
      <trkpt lat="47.30445" lon="6.11678">
        <ele>517.4</ele>
        <time>2013-06-09T10:40:04.000Z</time>
      </trkpt>
      <trkpt lat="47.30444" lon="6.11676">
        <ele>517.3</ele>
        <time>2013-06-09T10:40:05.000Z</time>
      </trkpt>
      <trkpt lat="47.30442" lon="6.11673">
        <ele>516.7</ele>
        <time>2013-06-09T10:40:07.000Z</time>
      </trkpt>
      <trkpt lat="47.30441" lon="6.11672">
        <ele>516.6</ele>
        <time>2013-06-09T10:40:08.000Z</time>
      </trkpt>
      <trkpt lat="47.30439" lon="6.11668">
        <ele>516.2</ele>
        <time>2013-06-09T10:40:10.000Z</time>
      </trkpt>
      <trkpt lat="47.30438" lon="6.11667">
        <ele>516.1</ele>
        <time>2013-06-09T10:40:11.000Z</time>
      </trkpt>
      <trkpt lat="47.30435" lon="6.11663">
        <ele>516</ele>
        <time>2013-06-09T10:40:13.000Z</time>
      </trkpt>
      <trkpt lat="47.30434" lon="6.11662">
        <ele>515.7</ele>
        <time>2013-06-09T10:40:14.000Z</time>
      </trkpt>
      <trkpt lat="47.30432" lon="6.11659">
        <ele>515.7</ele>
        <time>2013-06-09T10:40:16.000Z</time>
      </trkpt>
      <trkpt lat="47.3043" lon="6.11657">
        <ele>515.9</ele>
        <time>2013-06-09T10:40:17.000Z</time>
      </trkpt>
      <trkpt lat="47.30428" lon="6.11655">
        <ele>515.7</ele>
        <time>2013-06-09T10:40:19.000Z</time>
      </trkpt>
      <trkpt lat="47.30427" lon="6.11653">
        <ele>515.8</ele>
        <time>2013-06-09T10:40:20.000Z</time>
      </trkpt>
      <trkpt lat="47.30424" lon="6.11649">
        <ele>515.5</ele>
        <time>2013-06-09T10:40:23.000Z</time>
      </trkpt>
      <trkpt lat="47.30423" lon="6.11647">
        <ele>515.7</ele>
        <time>2013-06-09T10:40:24.000Z</time>
      </trkpt>
      <trkpt lat="47.30419" lon="6.11642">
        <ele>515.6</ele>
        <time>2013-06-09T10:40:27.000Z</time>
      </trkpt>
      <trkpt lat="47.30419" lon="6.11641">
        <ele>515.8</ele>
        <time>2013-06-09T10:40:28.000Z</time>
      </trkpt>
      <trkpt lat="47.30416" lon="6.11636">
        <ele>516.1</ele>
        <time>2013-06-09T10:40:31.000Z</time>
      </trkpt>
      <trkpt lat="47.30415" lon="6.11635">
        <ele>516</ele>
        <time>2013-06-09T10:40:32.000Z</time>
      </trkpt>
      <trkpt lat="47.30412" lon="6.11631">
        <ele>515.1</ele>
        <time>2013-06-09T10:40:35.000Z</time>
      </trkpt>
      <trkpt lat="47.30411" lon="6.1163">
        <ele>514.7</ele>
        <time>2013-06-09T10:40:36.000Z</time>
      </trkpt>
      <trkpt lat="47.30408" lon="6.11627">
        <ele>515.9</ele>
        <time>2013-06-09T10:40:41.000Z</time>
      </trkpt>
      <trkpt lat="47.30407" lon="6.11625">
        <ele>515.8</ele>
        <time>2013-06-09T10:40:42.000Z</time>
      </trkpt>
      <trkpt lat="47.30404" lon="6.1162">
        <ele>517.1</ele>
        <time>2013-06-09T10:40:46.000Z</time>
      </trkpt>
      <trkpt lat="47.30404" lon="6.11619">
        <ele>517.3</ele>
        <time>2013-06-09T10:40:47.000Z</time>
      </trkpt>
      <trkpt lat="47.30401" lon="6.11616">
        <ele>516.9</ele>
        <time>2013-06-09T10:40:50.000Z</time>
      </trkpt>
      <trkpt lat="47.304" lon="6.11614">
        <ele>515.9</ele>
        <time>2013-06-09T10:40:51.000Z</time>
      </trkpt>
      <trkpt lat="47.30398" lon="6.1161">
        <ele>514.3</ele>
        <time>2013-06-09T10:40:54.000Z</time>
      </trkpt>
      <trkpt lat="47.30397" lon="6.11608">
        <ele>513.2</ele>
        <time>2013-06-09T10:40:55.000Z</time>
      </trkpt>
      <trkpt lat="47.30395" lon="6.11603">
        <ele>512.5</ele>
        <time>2013-06-09T10:40:59.000Z</time>
      </trkpt>
      <trkpt lat="47.30394" lon="6.11601">
        <ele>512.6</ele>
        <time>2013-06-09T10:41:00.000Z</time>
      </trkpt>
      <trkpt lat="47.30392" lon="6.11597">
        <ele>512.8</ele>
        <time>2013-06-09T10:41:03.000Z</time>
      </trkpt>
      <trkpt lat="47.30391" lon="6.11596">
        <ele>512.8</ele>
        <time>2013-06-09T10:41:04.000Z</time>
      </trkpt>
      <trkpt lat="47.30389" lon="6.11591">
        <ele>512.9</ele>
        <time>2013-06-09T10:41:07.000Z</time>
      </trkpt>
      <trkpt lat="47.30388" lon="6.1159">
        <ele>512.9</ele>
        <time>2013-06-09T10:41:08.000Z</time>
      </trkpt>
      <trkpt lat="47.30385" lon="6.11585">
        <ele>512.6</ele>
        <time>2013-06-09T10:41:11.000Z</time>
      </trkpt>
      <trkpt lat="47.30384" lon="6.11583">
        <ele>512.6</ele>
        <time>2013-06-09T10:41:12.000Z</time>
      </trkpt>
      <trkpt lat="47.30382" lon="6.11579">
        <ele>511.9</ele>
        <time>2013-06-09T10:41:14.000Z</time>
      </trkpt>
      <trkpt lat="47.30381" lon="6.11578">
        <ele>511.7</ele>
        <time>2013-06-09T10:41:15.000Z</time>
      </trkpt>
      <trkpt lat="47.30378" lon="6.11573">
        <ele>511.3</ele>
        <time>2013-06-09T10:41:18.000Z</time>
      </trkpt>
      <trkpt lat="47.30377" lon="6.11571">
        <ele>511</ele>
        <time>2013-06-09T10:41:19.000Z</time>
      </trkpt>
      <trkpt lat="47.30374" lon="6.11567">
        <ele>511</ele>
        <time>2013-06-09T10:41:22.000Z</time>
      </trkpt>
      <trkpt lat="47.30373" lon="6.11565">
        <ele>511</ele>
        <time>2013-06-09T10:41:23.000Z</time>
      </trkpt>
      <trkpt lat="47.30371" lon="6.11561">
        <ele>510.9</ele>
        <time>2013-06-09T10:41:25.000Z</time>
      </trkpt>
      <trkpt lat="47.3037" lon="6.1156">
        <ele>510.9</ele>
        <time>2013-06-09T10:41:26.000Z</time>
      </trkpt>
      <trkpt lat="47.30368" lon="6.11556">
        <ele>510.7</ele>
        <time>2013-06-09T10:41:28.000Z</time>
      </trkpt>
      <trkpt lat="47.30366" lon="6.11555">
        <ele>510.7</ele>
        <time>2013-06-09T10:41:29.000Z</time>
      </trkpt>
      <trkpt lat="47.30363" lon="6.11551">
        <ele>510.8</ele>
        <time>2013-06-09T10:41:32.000Z</time>
      </trkpt>
      <trkpt lat="47.30362" lon="6.11549">
        <ele>511</ele>
        <time>2013-06-09T10:41:33.000Z</time>
      </trkpt>
      <trkpt lat="47.30359" lon="6.11545">
        <ele>510.8</ele>
        <time>2013-06-09T10:41:36.000Z</time>
      </trkpt>
      <trkpt lat="47.30358" lon="6.11544">
        <ele>510.4</ele>
        <time>2013-06-09T10:41:37.000Z</time>
      </trkpt>
      <trkpt lat="47.30355" lon="6.11539">
        <ele>510.2</ele>
        <time>2013-06-09T10:41:40.000Z</time>
      </trkpt>
      <trkpt lat="47.30354" lon="6.11538">
        <ele>509.8</ele>
        <time>2013-06-09T10:41:41.000Z</time>
      </trkpt>
      <trkpt lat="47.30352" lon="6.11533">
        <ele>509.7</ele>
        <time>2013-06-09T10:41:44.000Z</time>
      </trkpt>
      <trkpt lat="47.30351" lon="6.11532">
        <ele>509.7</ele>
        <time>2013-06-09T10:41:45.000Z</time>
      </trkpt>
      <trkpt lat="47.30348" lon="6.11528">
        <ele>509.8</ele>
        <time>2013-06-09T10:41:48.000Z</time>
      </trkpt>
      <trkpt lat="47.30348" lon="6.11527">
        <ele>509.9</ele>
        <time>2013-06-09T10:41:49.000Z</time>
      </trkpt>
      <trkpt lat="47.30345" lon="6.11524">
        <ele>509.2</ele>
        <time>2013-06-09T10:41:52.000Z</time>
      </trkpt>
      <trkpt lat="47.30344" lon="6.11523">
        <ele>509.1</ele>
        <time>2013-06-09T10:41:53.000Z</time>
      </trkpt>
      <trkpt lat="47.30341" lon="6.11518">
        <ele>508.6</ele>
        <time>2013-06-09T10:41:56.000Z</time>
      </trkpt>
      <trkpt lat="47.3034" lon="6.11516">
        <ele>508.5</ele>
        <time>2013-06-09T10:41:57.000Z</time>
      </trkpt>
      <trkpt lat="47.30338" lon="6.11512">
        <ele>508.1</ele>
        <time>2013-06-09T10:41:59.000Z</time>
      </trkpt>
      <trkpt lat="47.30338" lon="6.11511">
        <ele>507.9</ele>
        <time>2013-06-09T10:42:00.000Z</time>
      </trkpt>
      <trkpt lat="47.30336" lon="6.11507">
        <ele>507.2</ele>
        <time>2013-06-09T10:42:02.000Z</time>
      </trkpt>
      <trkpt lat="47.30335" lon="6.11506">
        <ele>506.9</ele>
        <time>2013-06-09T10:42:03.000Z</time>
      </trkpt>
      <trkpt lat="47.30332" lon="6.11501">
        <ele>506.1</ele>
        <time>2013-06-09T10:42:06.000Z</time>
      </trkpt>
      <trkpt lat="47.30331" lon="6.11499">
        <ele>506</ele>
        <time>2013-06-09T10:42:07.000Z</time>
      </trkpt>
      <trkpt lat="47.30328" lon="6.11494">
        <ele>506</ele>
        <time>2013-06-09T10:42:10.000Z</time>
      </trkpt>
      <trkpt lat="47.30327" lon="6.11493">
        <ele>505.9</ele>
        <time>2013-06-09T10:42:11.000Z</time>
      </trkpt>
      <trkpt lat="47.30324" lon="6.11489">
        <ele>505.6</ele>
        <time>2013-06-09T10:42:14.000Z</time>
      </trkpt>
      <trkpt lat="47.30323" lon="6.11488">
        <ele>505.2</ele>
        <time>2013-06-09T10:42:15.000Z</time>
      </trkpt>
      <trkpt lat="47.3032" lon="6.11484">
        <ele>505</ele>
        <time>2013-06-09T10:42:18.000Z</time>
      </trkpt>
      <trkpt lat="47.30319" lon="6.11482">
        <ele>504.2</ele>
        <time>2013-06-09T10:42:19.000Z</time>
      </trkpt>
      <trkpt lat="47.30316" lon="6.11477">
        <ele>502.5</ele>
        <time>2013-06-09T10:42:22.000Z</time>
      </trkpt>
      <trkpt lat="47.30315" lon="6.11475">
        <ele>501.6</ele>
        <time>2013-06-09T10:42:23.000Z</time>
      </trkpt>
      <trkpt lat="47.30313" lon="6.11472">
        <ele>500.1</ele>
        <time>2013-06-09T10:42:25.000Z</time>
      </trkpt>
      <trkpt lat="47.30312" lon="6.11471">
        <ele>498.5</ele>
        <time>2013-06-09T10:42:26.000Z</time>
      </trkpt>
      <trkpt lat="47.30309" lon="6.11468">
        <ele>495.5</ele>
        <time>2013-06-09T10:42:28.000Z</time>
      </trkpt>
      <trkpt lat="47.30308" lon="6.11466">
        <ele>495.5</ele>
        <time>2013-06-09T10:42:29.000Z</time>
      </trkpt>
      <trkpt lat="47.30304" lon="6.11462">
        <ele>495.5</ele>
        <time>2013-06-09T10:42:32.000Z</time>
      </trkpt>
      <trkpt lat="47.30303" lon="6.11461">
        <ele>495.5</ele>
        <time>2013-06-09T10:42:33.000Z</time>
      </trkpt>
      <trkpt lat="47.303" lon="6.11458">
        <ele>495.4</ele>
        <time>2013-06-09T10:42:36.000Z</time>
      </trkpt>
      <trkpt lat="47.30299" lon="6.11456">
        <ele>495.5</ele>
        <time>2013-06-09T10:42:37.000Z</time>
      </trkpt>
      <trkpt lat="47.30296" lon="6.11451">
        <ele>495.7</ele>
        <time>2013-06-09T10:42:40.000Z</time>
      </trkpt>
      <trkpt lat="47.30295" lon="6.1145">
        <ele>495.6</ele>
        <time>2013-06-09T10:42:41.000Z</time>
      </trkpt>
      <trkpt lat="47.30293" lon="6.11445">
        <ele>494.9</ele>
        <time>2013-06-09T10:42:44.000Z</time>
      </trkpt>
      <trkpt lat="47.30292" lon="6.11443">
        <ele>494.9</ele>
        <time>2013-06-09T10:42:45.000Z</time>
      </trkpt>
      <trkpt lat="47.3029" lon="6.11438">
        <ele>495.5</ele>
        <time>2013-06-09T10:42:48.000Z</time>
      </trkpt>
      <trkpt lat="47.3029" lon="6.11436">
        <ele>495.7</ele>
        <time>2013-06-09T10:42:49.000Z</time>
      </trkpt>
      <trkpt lat="47.30289" lon="6.11419">
        <ele>488.8</ele>
        <time>2013-06-09T10:43:01.000Z</time>
      </trkpt>
      <trkpt lat="47.30287" lon="6.11413">
        <ele>488.8</ele>
        <time>2013-06-09T10:43:17.000Z</time>
      </trkpt>
      <trkpt lat="47.30287" lon="6.11413">
        <ele>488.8</ele>
        <time>2013-06-09T10:43:18.000Z</time>
      </trkpt>
      <trkpt lat="47.30286" lon="6.11411">
        <ele>488.8</ele>
        <time>2013-06-09T10:43:21.000Z</time>
      </trkpt>
      <trkpt lat="47.30283" lon="6.11402">
        <ele>482.1</ele>
        <time>2013-06-09T10:43:22.000Z</time>
      </trkpt>
      <trkpt lat="47.30281" lon="6.11397">
        <ele>482.3</ele>
        <time>2013-06-09T10:43:23.000Z</time>
      </trkpt>
      <trkpt lat="47.30279" lon="6.11392">
        <ele>482</ele>
        <time>2013-06-09T10:43:24.000Z</time>
      </trkpt>
      <trkpt lat="47.30278" lon="6.11388">
        <ele>481.6</ele>
        <time>2013-06-09T10:43:25.000Z</time>
      </trkpt>
      <trkpt lat="47.30277" lon="6.11384">
        <ele>481.5</ele>
        <time>2013-06-09T10:43:26.000Z</time>
      </trkpt>
      <trkpt lat="47.30275" lon="6.11379">
        <ele>481</ele>
        <time>2013-06-09T10:43:27.000Z</time>
      </trkpt>
      <trkpt lat="47.30274" lon="6.11374">
        <ele>480.5</ele>
        <time>2013-06-09T10:43:28.000Z</time>
      </trkpt>
      <trkpt lat="47.30272" lon="6.11371">
        <ele>480.1</ele>
        <time>2013-06-09T10:43:29.000Z</time>
      </trkpt>
      <trkpt lat="47.30272" lon="6.11367">
        <ele>480</ele>
        <time>2013-06-09T10:43:30.000Z</time>
      </trkpt>
      <trkpt lat="47.30271" lon="6.11364">
        <ele>479.9</ele>
        <time>2013-06-09T10:43:31.000Z</time>
      </trkpt>
      <trkpt lat="47.3027" lon="6.1136">
        <ele>479.9</ele>
        <time>2013-06-09T10:43:32.000Z</time>
      </trkpt>
      <trkpt lat="47.30268" lon="6.11355">
        <ele>479.2</ele>
        <time>2013-06-09T10:43:34.000Z</time>
      </trkpt>
      <trkpt lat="47.30267" lon="6.11352">
        <ele>479</ele>
        <time>2013-06-09T10:43:35.000Z</time>
      </trkpt>
      <trkpt lat="47.30265" lon="6.11347">
        <ele>478.5</ele>
        <time>2013-06-09T10:43:37.000Z</time>
      </trkpt>
      <trkpt lat="47.30264" lon="6.11345">
        <ele>478.4</ele>
        <time>2013-06-09T10:43:38.000Z</time>
      </trkpt>
      <trkpt lat="47.30263" lon="6.1134">
        <ele>478.1</ele>
        <time>2013-06-09T10:43:40.000Z</time>
      </trkpt>
      <trkpt lat="47.30262" lon="6.11338">
        <ele>478.2</ele>
        <time>2013-06-09T10:43:41.000Z</time>
      </trkpt>
      <trkpt lat="47.30261" lon="6.11333">
        <ele>478.2</ele>
        <time>2013-06-09T10:43:43.000Z</time>
      </trkpt>
      <trkpt lat="47.30261" lon="6.11331">
        <ele>478.1</ele>
        <time>2013-06-09T10:43:44.000Z</time>
      </trkpt>
      <trkpt lat="47.3026" lon="6.11325">
        <ele>477.7</ele>
        <time>2013-06-09T10:43:47.000Z</time>
      </trkpt>
      <trkpt lat="47.3026" lon="6.11323">
        <ele>477.5</ele>
        <time>2013-06-09T10:43:48.000Z</time>
      </trkpt>
      <trkpt lat="47.30258" lon="6.11318">
        <ele>477.5</ele>
        <time>2013-06-09T10:43:51.000Z</time>
      </trkpt>
      <trkpt lat="47.30258" lon="6.11316">
        <ele>477.4</ele>
        <time>2013-06-09T10:43:52.000Z</time>
      </trkpt>
      <trkpt lat="47.30256" lon="6.1131">
        <ele>477.1</ele>
        <time>2013-06-09T10:43:55.000Z</time>
      </trkpt>
      <trkpt lat="47.30256" lon="6.11309">
        <ele>476.9</ele>
        <time>2013-06-09T10:43:56.000Z</time>
      </trkpt>
      <trkpt lat="47.30255" lon="6.11303">
        <ele>476.3</ele>
        <time>2013-06-09T10:43:59.000Z</time>
      </trkpt>
      <trkpt lat="47.30254" lon="6.11301">
        <ele>476</ele>
        <time>2013-06-09T10:44:00.000Z</time>
      </trkpt>
      <trkpt lat="47.30253" lon="6.11295">
        <ele>476.1</ele>
        <time>2013-06-09T10:44:03.000Z</time>
      </trkpt>
      <trkpt lat="47.30253" lon="6.11294">
        <ele>476.1</ele>
        <time>2013-06-09T10:44:04.000Z</time>
      </trkpt>
      <trkpt lat="47.30252" lon="6.11288">
        <ele>475.8</ele>
        <time>2013-06-09T10:44:07.000Z</time>
      </trkpt>
      <trkpt lat="47.30251" lon="6.11286">
        <ele>475.6</ele>
        <time>2013-06-09T10:44:08.000Z</time>
      </trkpt>
      <trkpt lat="47.3025" lon="6.11282">
        <ele>474.9</ele>
        <time>2013-06-09T10:44:11.000Z</time>
      </trkpt>
      <trkpt lat="47.30249" lon="6.1128">
        <ele>475</ele>
        <time>2013-06-09T10:44:12.000Z</time>
      </trkpt>
      <trkpt lat="47.30247" lon="6.11276">
        <ele>475.1</ele>
        <time>2013-06-09T10:44:15.000Z</time>
      </trkpt>
      <trkpt lat="47.30246" lon="6.11274">
        <ele>475</ele>
        <time>2013-06-09T10:44:16.000Z</time>
      </trkpt>
      <trkpt lat="47.30244" lon="6.11269">
        <ele>475.1</ele>
        <time>2013-06-09T10:44:19.000Z</time>
      </trkpt>
      <trkpt lat="47.30244" lon="6.11267">
        <ele>475.1</ele>
        <time>2013-06-09T10:44:20.000Z</time>
      </trkpt>
      <trkpt lat="47.30241" lon="6.11262">
        <ele>475</ele>
        <time>2013-06-09T10:44:23.000Z</time>
      </trkpt>
      <trkpt lat="47.3024" lon="6.11261">
        <ele>474.7</ele>
        <time>2013-06-09T10:44:24.000Z</time>
      </trkpt>
      <trkpt lat="47.30238" lon="6.11256">
        <ele>474.2</ele>
        <time>2013-06-09T10:44:27.000Z</time>
      </trkpt>
      <trkpt lat="47.30237" lon="6.11255">
        <ele>473.9</ele>
        <time>2013-06-09T10:44:28.000Z</time>
      </trkpt>
      <trkpt lat="47.30235" lon="6.11249">
        <ele>473.5</ele>
        <time>2013-06-09T10:44:31.000Z</time>
      </trkpt>
      <trkpt lat="47.30234" lon="6.11248">
        <ele>473.5</ele>
        <time>2013-06-09T10:44:32.000Z</time>
      </trkpt>
      <trkpt lat="47.30232" lon="6.11243">
        <ele>472.7</ele>
        <time>2013-06-09T10:44:35.000Z</time>
      </trkpt>
      <trkpt lat="47.30231" lon="6.11242">
        <ele>472.3</ele>
        <time>2013-06-09T10:44:36.000Z</time>
      </trkpt>
      <trkpt lat="47.30228" lon="6.11237">
        <ele>471.2</ele>
        <time>2013-06-09T10:44:39.000Z</time>
      </trkpt>
      <trkpt lat="47.30227" lon="6.11236">
        <ele>470.8</ele>
        <time>2013-06-09T10:44:40.000Z</time>
      </trkpt>
      <trkpt lat="47.30223" lon="6.11232">
        <ele>469.9</ele>
        <time>2013-06-09T10:44:43.000Z</time>
      </trkpt>
      <trkpt lat="47.30222" lon="6.1123">
        <ele>469.6</ele>
        <time>2013-06-09T10:44:44.000Z</time>
      </trkpt>
      <trkpt lat="47.30219" lon="6.11226">
        <ele>468.3</ele>
        <time>2013-06-09T10:44:47.000Z</time>
      </trkpt>
      <trkpt lat="47.30217" lon="6.11225">
        <ele>468</ele>
        <time>2013-06-09T10:44:48.000Z</time>
      </trkpt>
      <trkpt lat="47.30214" lon="6.11221">
        <ele>467.7</ele>
        <time>2013-06-09T10:44:51.000Z</time>
      </trkpt>
      <trkpt lat="47.30213" lon="6.1122">
        <ele>467.6</ele>
        <time>2013-06-09T10:44:52.000Z</time>
      </trkpt>
      <trkpt lat="47.30209" lon="6.11216">
        <ele>466.5</ele>
        <time>2013-06-09T10:44:55.000Z</time>
      </trkpt>
      <trkpt lat="47.30208" lon="6.11214">
        <ele>466.2</ele>
        <time>2013-06-09T10:44:56.000Z</time>
      </trkpt>
      <trkpt lat="47.30205" lon="6.1121">
        <ele>463.9</ele>
        <time>2013-06-09T10:44:59.000Z</time>
      </trkpt>
      <trkpt lat="47.30203" lon="6.11209">
        <ele>463.5</ele>
        <time>2013-06-09T10:45:00.000Z</time>
      </trkpt>
      <trkpt lat="47.302" lon="6.11205">
        <ele>462.2</ele>
        <time>2013-06-09T10:45:03.000Z</time>
      </trkpt>
      <trkpt lat="47.30199" lon="6.11204">
        <ele>460.7</ele>
        <time>2013-06-09T10:45:04.000Z</time>
      </trkpt>
      <trkpt lat="47.30196" lon="6.112">
        <ele>459.3</ele>
        <time>2013-06-09T10:45:07.000Z</time>
      </trkpt>
      <trkpt lat="47.30194" lon="6.11199">
        <ele>459.2</ele>
        <time>2013-06-09T10:45:08.000Z</time>
      </trkpt>
      <trkpt lat="47.30191" lon="6.11195">
        <ele>458.2</ele>
        <time>2013-06-09T10:45:11.000Z</time>
      </trkpt>
      <trkpt lat="47.3019" lon="6.11193">
        <ele>458.3</ele>
        <time>2013-06-09T10:45:12.000Z</time>
      </trkpt>
      <trkpt lat="47.30187" lon="6.11189">
        <ele>456.2</ele>
        <time>2013-06-09T10:45:14.000Z</time>
      </trkpt>
      <trkpt lat="47.30186" lon="6.11187">
        <ele>455.5</ele>
        <time>2013-06-09T10:45:15.000Z</time>
      </trkpt>
      <trkpt lat="47.30184" lon="6.11184">
        <ele>454.4</ele>
        <time>2013-06-09T10:45:17.000Z</time>
      </trkpt>
      <trkpt lat="47.30183" lon="6.11181">
        <ele>454.4</ele>
        <time>2013-06-09T10:45:18.000Z</time>
      </trkpt>
      <trkpt lat="47.30181" lon="6.11178">
        <ele>454.5</ele>
        <time>2013-06-09T10:45:20.000Z</time>
      </trkpt>
      <trkpt lat="47.3018" lon="6.11176">
        <ele>454.4</ele>
        <time>2013-06-09T10:45:21.000Z</time>
      </trkpt>
      <trkpt lat="47.30176" lon="6.11173">
        <ele>454.2</ele>
        <time>2013-06-09T10:45:24.000Z</time>
      </trkpt>
      <trkpt lat="47.30175" lon="6.11172">
        <ele>454.3</ele>
        <time>2013-06-09T10:45:25.000Z</time>
      </trkpt>
      <trkpt lat="47.30172" lon="6.11168">
        <ele>454.9</ele>
        <time>2013-06-09T10:45:28.000Z</time>
      </trkpt>
      <trkpt lat="47.30171" lon="6.11167">
        <ele>454.9</ele>
        <time>2013-06-09T10:45:29.000Z</time>
      </trkpt>
      <trkpt lat="47.30167" lon="6.11164">
        <ele>454.9</ele>
        <time>2013-06-09T10:45:32.000Z</time>
      </trkpt>
      <trkpt lat="47.30166" lon="6.11163">
        <ele>454.6</ele>
        <time>2013-06-09T10:45:33.000Z</time>
      </trkpt>
      <trkpt lat="47.30163" lon="6.1116">
        <ele>453.8</ele>
        <time>2013-06-09T10:45:35.000Z</time>
      </trkpt>
      <trkpt lat="47.30162" lon="6.11159">
        <ele>453.8</ele>
        <time>2013-06-09T10:45:36.000Z</time>
      </trkpt>
      <trkpt lat="47.3016" lon="6.11155">
        <ele>453.4</ele>
        <time>2013-06-09T10:45:38.000Z</time>
      </trkpt>
      <trkpt lat="47.30159" lon="6.11154">
        <ele>452.8</ele>
        <time>2013-06-09T10:45:39.000Z</time>
      </trkpt>
      <trkpt lat="47.30155" lon="6.1115">
        <ele>451.7</ele>
        <time>2013-06-09T10:45:42.000Z</time>
      </trkpt>
      <trkpt lat="47.30154" lon="6.11149">
        <ele>451.6</ele>
        <time>2013-06-09T10:45:43.000Z</time>
      </trkpt>
      <trkpt lat="47.30151" lon="6.11146">
        <ele>451.5</ele>
        <time>2013-06-09T10:45:46.000Z</time>
      </trkpt>
      <trkpt lat="47.3015" lon="6.11145">
        <ele>451.4</ele>
        <time>2013-06-09T10:45:47.000Z</time>
      </trkpt>
      <trkpt lat="47.30146" lon="6.11142">
        <ele>451.4</ele>
        <time>2013-06-09T10:45:50.000Z</time>
      </trkpt>
      <trkpt lat="47.30145" lon="6.11141">
        <ele>451.3</ele>
        <time>2013-06-09T10:45:51.000Z</time>
      </trkpt>
      <trkpt lat="47.30142" lon="6.11137">
        <ele>450.5</ele>
        <time>2013-06-09T10:45:54.000Z</time>
      </trkpt>
      <trkpt lat="47.30141" lon="6.11136">
        <ele>450.2</ele>
        <time>2013-06-09T10:45:55.000Z</time>
      </trkpt>
      <trkpt lat="47.30139" lon="6.11131">
        <ele>449.6</ele>
        <time>2013-06-09T10:45:58.000Z</time>
      </trkpt>
      <trkpt lat="47.30138" lon="6.1113">
        <ele>449.7</ele>
        <time>2013-06-09T10:45:59.000Z</time>
      </trkpt>
      <trkpt lat="47.30135" lon="6.11126">
        <ele>449.1</ele>
        <time>2013-06-09T10:46:02.000Z</time>
      </trkpt>
      <trkpt lat="47.30134" lon="6.11125">
        <ele>448.9</ele>
        <time>2013-06-09T10:46:03.000Z</time>
      </trkpt>
      <trkpt lat="47.30132" lon="6.1112">
        <ele>448.3</ele>
        <time>2013-06-09T10:46:06.000Z</time>
      </trkpt>
      <trkpt lat="47.30131" lon="6.11118">
        <ele>448.2</ele>
        <time>2013-06-09T10:46:07.000Z</time>
      </trkpt>
      <trkpt lat="47.30129" lon="6.11114">
        <ele>447.4</ele>
        <time>2013-06-09T10:46:10.000Z</time>
      </trkpt>
      <trkpt lat="47.30128" lon="6.11113">
        <ele>446.4</ele>
        <time>2013-06-09T10:46:11.000Z</time>
      </trkpt>
      <trkpt lat="47.30124" lon="6.11108">
        <ele>444.2</ele>
        <time>2013-06-09T10:46:14.000Z</time>
      </trkpt>
      <trkpt lat="47.30123" lon="6.11107">
        <ele>443.1</ele>
        <time>2013-06-09T10:46:15.000Z</time>
      </trkpt>
      <trkpt lat="47.30121" lon="6.11103">
        <ele>441.7</ele>
        <time>2013-06-09T10:46:17.000Z</time>
      </trkpt>
      <trkpt lat="47.3012" lon="6.11102">
        <ele>441</ele>
        <time>2013-06-09T10:46:18.000Z</time>
      </trkpt>
      <trkpt lat="47.30117" lon="6.11098">
        <ele>439.9</ele>
        <time>2013-06-09T10:46:20.000Z</time>
      </trkpt>
      <trkpt lat="47.30116" lon="6.11096">
        <ele>439.7</ele>
        <time>2013-06-09T10:46:21.000Z</time>
      </trkpt>
      <trkpt lat="47.30113" lon="6.11092">
        <ele>440.3</ele>
        <time>2013-06-09T10:46:24.000Z</time>
      </trkpt>
      <trkpt lat="47.30112" lon="6.11091">
        <ele>440.4</ele>
        <time>2013-06-09T10:46:25.000Z</time>
      </trkpt>
      <trkpt lat="47.30108" lon="6.11087">
        <ele>441</ele>
        <time>2013-06-09T10:46:28.000Z</time>
      </trkpt>
      <trkpt lat="47.30107" lon="6.11085">
        <ele>441.1</ele>
        <time>2013-06-09T10:46:29.000Z</time>
      </trkpt>
      <trkpt lat="47.30105" lon="6.11081">
        <ele>441.4</ele>
        <time>2013-06-09T10:46:32.000Z</time>
      </trkpt>
      <trkpt lat="47.30104" lon="6.11079">
        <ele>441.6</ele>
        <time>2013-06-09T10:46:33.000Z</time>
      </trkpt>
      <trkpt lat="47.30101" lon="6.11075">
        <ele>442.1</ele>
        <time>2013-06-09T10:46:36.000Z</time>
      </trkpt>
      <trkpt lat="47.301" lon="6.11073">
        <ele>442.4</ele>
        <time>2013-06-09T10:46:37.000Z</time>
      </trkpt>
      <trkpt lat="47.30098" lon="6.11068">
        <ele>443</ele>
        <time>2013-06-09T10:46:40.000Z</time>
      </trkpt>
      <trkpt lat="47.30097" lon="6.11066">
        <ele>443</ele>
        <time>2013-06-09T10:46:41.000Z</time>
      </trkpt>
      <trkpt lat="47.30095" lon="6.11062">
        <ele>442.6</ele>
        <time>2013-06-09T10:46:44.000Z</time>
      </trkpt>
      <trkpt lat="47.30094" lon="6.1106">
        <ele>442.4</ele>
        <time>2013-06-09T10:46:45.000Z</time>
      </trkpt>
      <trkpt lat="47.30091" lon="6.11056">
        <ele>441.8</ele>
        <time>2013-06-09T10:46:48.000Z</time>
      </trkpt>
      <trkpt lat="47.3009" lon="6.11055">
        <ele>441.7</ele>
        <time>2013-06-09T10:46:49.000Z</time>
      </trkpt>
      <trkpt lat="47.30087" lon="6.11051">
        <ele>441.4</ele>
        <time>2013-06-09T10:46:52.000Z</time>
      </trkpt>
      <trkpt lat="47.30086" lon="6.11049">
        <ele>441.4</ele>
        <time>2013-06-09T10:46:53.000Z</time>
      </trkpt>
      <trkpt lat="47.30083" lon="6.11046">
        <ele>441.2</ele>
        <time>2013-06-09T10:46:56.000Z</time>
      </trkpt>
      <trkpt lat="47.30082" lon="6.11045">
        <ele>441.1</ele>
        <time>2013-06-09T10:46:57.000Z</time>
      </trkpt>
      <trkpt lat="47.30079" lon="6.11042">
        <ele>440</ele>
        <time>2013-06-09T10:47:00.000Z</time>
      </trkpt>
      <trkpt lat="47.30078" lon="6.11041">
        <ele>439.7</ele>
        <time>2013-06-09T10:47:01.000Z</time>
      </trkpt>
      <trkpt lat="47.30075" lon="6.11036">
        <ele>438.2</ele>
        <time>2013-06-09T10:47:04.000Z</time>
      </trkpt>
      <trkpt lat="47.30074" lon="6.11035">
        <ele>437.9</ele>
        <time>2013-06-09T10:47:05.000Z</time>
      </trkpt>
      <trkpt lat="47.30071" lon="6.1103">
        <ele>437.7</ele>
        <time>2013-06-09T10:47:08.000Z</time>
      </trkpt>
      <trkpt lat="47.3007" lon="6.11029">
        <ele>437.7</ele>
        <time>2013-06-09T10:47:09.000Z</time>
      </trkpt>
      <trkpt lat="47.30067" lon="6.11026">
        <ele>436.7</ele>
        <time>2013-06-09T10:47:12.000Z</time>
      </trkpt>
      <trkpt lat="47.30066" lon="6.11025">
        <ele>436.9</ele>
        <time>2013-06-09T10:47:13.000Z</time>
      </trkpt>
      <trkpt lat="47.30063" lon="6.11021">
        <ele>436.6</ele>
        <time>2013-06-09T10:47:16.000Z</time>
      </trkpt>
      <trkpt lat="47.30062" lon="6.1102">
        <ele>436.7</ele>
        <time>2013-06-09T10:47:17.000Z</time>
      </trkpt>
      <trkpt lat="47.30058" lon="6.11017">
        <ele>436.6</ele>
        <time>2013-06-09T10:47:20.000Z</time>
      </trkpt>
      <trkpt lat="47.30057" lon="6.11017">
        <ele>436.4</ele>
        <time>2013-06-09T10:47:21.000Z</time>
      </trkpt>
      <trkpt lat="47.30054" lon="6.11015">
        <ele>435.9</ele>
        <time>2013-06-09T10:47:24.000Z</time>
      </trkpt>
      <trkpt lat="47.30052" lon="6.11014">
        <ele>435.9</ele>
        <time>2013-06-09T10:47:25.000Z</time>
      </trkpt>
      <trkpt lat="47.30049" lon="6.11011">
        <ele>435.9</ele>
        <time>2013-06-09T10:47:28.000Z</time>
      </trkpt>
      <trkpt lat="47.30048" lon="6.1101">
        <ele>435.4</ele>
        <time>2013-06-09T10:47:29.000Z</time>
      </trkpt>
      <trkpt lat="47.30045" lon="6.11008">
        <ele>435</ele>
        <time>2013-06-09T10:47:32.000Z</time>
      </trkpt>
      <trkpt lat="47.30044" lon="6.11007">
        <ele>434.5</ele>
        <time>2013-06-09T10:47:33.000Z</time>
      </trkpt>
      <trkpt lat="47.3004" lon="6.11005">
        <ele>433.5</ele>
        <time>2013-06-09T10:47:36.000Z</time>
      </trkpt>
      <trkpt lat="47.30039" lon="6.11004">
        <ele>433.3</ele>
        <time>2013-06-09T10:47:37.000Z</time>
      </trkpt>
      <trkpt lat="47.30035" lon="6.11003">
        <ele>431.9</ele>
        <time>2013-06-09T10:47:40.000Z</time>
      </trkpt>
      <trkpt lat="47.30034" lon="6.11002">
        <ele>431.3</ele>
        <time>2013-06-09T10:47:41.000Z</time>
      </trkpt>
      <trkpt lat="47.3003" lon="6.10999">
        <ele>430</ele>
        <time>2013-06-09T10:47:44.000Z</time>
      </trkpt>
      <trkpt lat="47.30029" lon="6.10998">
        <ele>429.2</ele>
        <time>2013-06-09T10:47:45.000Z</time>
      </trkpt>
      <trkpt lat="47.30025" lon="6.10994">
        <ele>427.9</ele>
        <time>2013-06-09T10:47:48.000Z</time>
      </trkpt>
      <trkpt lat="47.30024" lon="6.10993">
        <ele>427.6</ele>
        <time>2013-06-09T10:47:49.000Z</time>
      </trkpt>
      <trkpt lat="47.3002" lon="6.1099">
        <ele>427</ele>
        <time>2013-06-09T10:47:52.000Z</time>
      </trkpt>
      <trkpt lat="47.30019" lon="6.10989">
        <ele>426.9</ele>
        <time>2013-06-09T10:47:53.000Z</time>
      </trkpt>
      <trkpt lat="47.30017" lon="6.10987">
        <ele>427.2</ele>
        <time>2013-06-09T10:47:55.000Z</time>
      </trkpt>
      <trkpt lat="47.30015" lon="6.10985">
        <ele>427.3</ele>
        <time>2013-06-09T10:47:56.000Z</time>
      </trkpt>
      <trkpt lat="47.30013" lon="6.10982">
        <ele>427</ele>
        <time>2013-06-09T10:47:58.000Z</time>
      </trkpt>
      <trkpt lat="47.30012" lon="6.10981">
        <ele>426.5</ele>
        <time>2013-06-09T10:47:59.000Z</time>
      </trkpt>
      <trkpt lat="47.3001" lon="6.10978">
        <ele>425.5</ele>
        <time>2013-06-09T10:48:01.000Z</time>
      </trkpt>
      <trkpt lat="47.30008" lon="6.10976">
        <ele>425</ele>
        <time>2013-06-09T10:48:02.000Z</time>
      </trkpt>
      <trkpt lat="47.30006" lon="6.10974">
        <ele>424.2</ele>
        <time>2013-06-09T10:48:04.000Z</time>
      </trkpt>
      <trkpt lat="47.30005" lon="6.10972">
        <ele>423.8</ele>
        <time>2013-06-09T10:48:05.000Z</time>
      </trkpt>
      <trkpt lat="47.30002" lon="6.10969">
        <ele>422.5</ele>
        <time>2013-06-09T10:48:07.000Z</time>
      </trkpt>
      <trkpt lat="47.30001" lon="6.10967">
        <ele>421.2</ele>
        <time>2013-06-09T10:48:08.000Z</time>
      </trkpt>
      <trkpt lat="47.29999" lon="6.10964">
        <ele>418.9</ele>
        <time>2013-06-09T10:48:10.000Z</time>
      </trkpt>
      <trkpt lat="47.29997" lon="6.10962">
        <ele>418.4</ele>
        <time>2013-06-09T10:48:11.000Z</time>
      </trkpt>
      <trkpt lat="47.29995" lon="6.10958">
        <ele>418.1</ele>
        <time>2013-06-09T10:48:13.000Z</time>
      </trkpt>
      <trkpt lat="47.29993" lon="6.10956">
        <ele>418.3</ele>
        <time>2013-06-09T10:48:14.000Z</time>
      </trkpt>
      <trkpt lat="47.29991" lon="6.10951">
        <ele>418.2</ele>
        <time>2013-06-09T10:48:16.000Z</time>
      </trkpt>
      <trkpt lat="47.2999" lon="6.10949">
        <ele>418.3</ele>
        <time>2013-06-09T10:48:17.000Z</time>
      </trkpt>
      <trkpt lat="47.29987" lon="6.10946">
        <ele>418.9</ele>
        <time>2013-06-09T10:48:19.000Z</time>
      </trkpt>
      <trkpt lat="47.29986" lon="6.10944">
        <ele>419.2</ele>
        <time>2013-06-09T10:48:20.000Z</time>
      </trkpt>
      <trkpt lat="47.29983" lon="6.10941">
        <ele>419.3</ele>
        <time>2013-06-09T10:48:22.000Z</time>
      </trkpt>
      <trkpt lat="47.29982" lon="6.10939">
        <ele>419.5</ele>
        <time>2013-06-09T10:48:23.000Z</time>
      </trkpt>
      <trkpt lat="47.2998" lon="6.10937">
        <ele>420.1</ele>
        <time>2013-06-09T10:48:25.000Z</time>
      </trkpt>
      <trkpt lat="47.29979" lon="6.10935">
        <ele>420.5</ele>
        <time>2013-06-09T10:48:26.000Z</time>
      </trkpt>
      <trkpt lat="47.29975" lon="6.10931">
        <ele>421.5</ele>
        <time>2013-06-09T10:48:29.000Z</time>
      </trkpt>
      <trkpt lat="47.29974" lon="6.10929">
        <ele>422</ele>
        <time>2013-06-09T10:48:30.000Z</time>
      </trkpt>
      <trkpt lat="47.29972" lon="6.10925">
        <ele>422.8</ele>
        <time>2013-06-09T10:48:33.000Z</time>
      </trkpt>
      <trkpt lat="47.29971" lon="6.10924">
        <ele>423</ele>
        <time>2013-06-09T10:48:34.000Z</time>
      </trkpt>
      <trkpt lat="47.29968" lon="6.1092">
        <ele>422.9</ele>
        <time>2013-06-09T10:48:37.000Z</time>
      </trkpt>
      <trkpt lat="47.29967" lon="6.10918">
        <ele>422.9</ele>
        <time>2013-06-09T10:48:38.000Z</time>
      </trkpt>
      <trkpt lat="47.29964" lon="6.10914">
        <ele>422.7</ele>
        <time>2013-06-09T10:48:41.000Z</time>
      </trkpt>
      <trkpt lat="47.29963" lon="6.10913">
        <ele>422.7</ele>
        <time>2013-06-09T10:48:42.000Z</time>
      </trkpt>
      <trkpt lat="47.29961" lon="6.10908">
        <ele>422.8</ele>
        <time>2013-06-09T10:48:45.000Z</time>
      </trkpt>
      <trkpt lat="47.29961" lon="6.10906">
        <ele>421.8</ele>
        <time>2013-06-09T10:48:46.000Z</time>
      </trkpt>
      <trkpt lat="47.29958" lon="6.10901">
        <ele>420.7</ele>
        <time>2013-06-09T10:48:49.000Z</time>
      </trkpt>
      <trkpt lat="47.2995" lon="6.10883">
        <ele>417.5</ele>
        <time>2013-06-09T10:49:07.000Z</time>
      </trkpt>
      <trkpt lat="47.29949" lon="6.10881">
        <ele>417.5</ele>
        <time>2013-06-09T10:49:16.000Z</time>
      </trkpt>
      <trkpt lat="47.29943" lon="6.10872">
        <ele>404</ele>
        <time>2013-06-09T10:49:17.000Z</time>
      </trkpt>
      <trkpt lat="47.2994" lon="6.10867">
        <ele>403.8</ele>
        <time>2013-06-09T10:49:18.000Z</time>
      </trkpt>
      <trkpt lat="47.29936" lon="6.10862">
        <ele>403.4</ele>
        <time>2013-06-09T10:49:19.000Z</time>
      </trkpt>
      <trkpt lat="47.29933" lon="6.10857">
        <ele>402.9</ele>
        <time>2013-06-09T10:49:20.000Z</time>
      </trkpt>
      <trkpt lat="47.29931" lon="6.10854">
        <ele>402.9</ele>
        <time>2013-06-09T10:49:21.000Z</time>
      </trkpt>
      <trkpt lat="47.29929" lon="6.10851">
        <ele>402.9</ele>
        <time>2013-06-09T10:49:22.000Z</time>
      </trkpt>
      <trkpt lat="47.29927" lon="6.10849">
        <ele>401.9</ele>
        <time>2013-06-09T10:49:23.000Z</time>
      </trkpt>
      <trkpt lat="47.29925" lon="6.10846">
        <ele>401.8</ele>
        <time>2013-06-09T10:49:24.000Z</time>
      </trkpt>
      <trkpt lat="47.29924" lon="6.10844">
        <ele>401.7</ele>
        <time>2013-06-09T10:49:25.000Z</time>
      </trkpt>
      <trkpt lat="47.29922" lon="6.10842">
        <ele>401.2</ele>
        <time>2013-06-09T10:49:26.000Z</time>
      </trkpt>
      <trkpt lat="47.2992" lon="6.10839">
        <ele>401</ele>
        <time>2013-06-09T10:49:27.000Z</time>
      </trkpt>
      <trkpt lat="47.29917" lon="6.10836">
        <ele>400.8</ele>
        <time>2013-06-09T10:49:29.000Z</time>
      </trkpt>
      <trkpt lat="47.29916" lon="6.10834">
        <ele>400.6</ele>
        <time>2013-06-09T10:49:30.000Z</time>
      </trkpt>
      <trkpt lat="47.29913" lon="6.10831">
        <ele>400.6</ele>
        <time>2013-06-09T10:49:32.000Z</time>
      </trkpt>
      <trkpt lat="47.29912" lon="6.1083">
        <ele>400.7</ele>
        <time>2013-06-09T10:49:33.000Z</time>
      </trkpt>
      <trkpt lat="47.29909" lon="6.10825">
        <ele>401</ele>
        <time>2013-06-09T10:49:36.000Z</time>
      </trkpt>
      <trkpt lat="47.29908" lon="6.10824">
        <ele>400.7</ele>
        <time>2013-06-09T10:49:37.000Z</time>
      </trkpt>
      <trkpt lat="47.29905" lon="6.1082">
        <ele>399.4</ele>
        <time>2013-06-09T10:49:40.000Z</time>
      </trkpt>
      <trkpt lat="47.29903" lon="6.10819">
        <ele>399</ele>
        <time>2013-06-09T10:49:41.000Z</time>
      </trkpt>
      <trkpt lat="47.299" lon="6.10816">
        <ele>397.8</ele>
        <time>2013-06-09T10:49:44.000Z</time>
      </trkpt>
      <trkpt lat="47.29899" lon="6.10814">
        <ele>397.8</ele>
        <time>2013-06-09T10:49:45.000Z</time>
      </trkpt>
      <trkpt lat="47.29895" lon="6.10811">
        <ele>397.9</ele>
        <time>2013-06-09T10:49:48.000Z</time>
      </trkpt>
      <trkpt lat="47.29894" lon="6.10809">
        <ele>397.4</ele>
        <time>2013-06-09T10:49:49.000Z</time>
      </trkpt>
      <trkpt lat="47.29891" lon="6.10806">
        <ele>396.6</ele>
        <time>2013-06-09T10:49:52.000Z</time>
      </trkpt>
      <trkpt lat="47.2989" lon="6.10804">
        <ele>396.6</ele>
        <time>2013-06-09T10:49:53.000Z</time>
      </trkpt>
      <trkpt lat="47.29887" lon="6.10801">
        <ele>396</ele>
        <time>2013-06-09T10:49:56.000Z</time>
      </trkpt>
      <trkpt lat="47.29885" lon="6.108">
        <ele>396.4</ele>
        <time>2013-06-09T10:49:57.000Z</time>
      </trkpt>
      <trkpt lat="47.29882" lon="6.10797">
        <ele>396.3</ele>
        <time>2013-06-09T10:50:00.000Z</time>
      </trkpt>
      <trkpt lat="47.29881" lon="6.10796">
        <ele>395.8</ele>
        <time>2013-06-09T10:50:01.000Z</time>
      </trkpt>
      <trkpt lat="47.29877" lon="6.10792">
        <ele>394</ele>
        <time>2013-06-09T10:50:04.000Z</time>
      </trkpt>
      <trkpt lat="47.29876" lon="6.10791">
        <ele>393.4</ele>
        <time>2013-06-09T10:50:05.000Z</time>
      </trkpt>
      <trkpt lat="47.29872" lon="6.10787">
        <ele>392.7</ele>
        <time>2013-06-09T10:50:08.000Z</time>
      </trkpt>
      <trkpt lat="47.29871" lon="6.10785">
        <ele>392.5</ele>
        <time>2013-06-09T10:50:09.000Z</time>
      </trkpt>
      <trkpt lat="47.29868" lon="6.10781">
        <ele>391.9</ele>
        <time>2013-06-09T10:50:12.000Z</time>
      </trkpt>
      <trkpt lat="47.29867" lon="6.1078">
        <ele>392.2</ele>
        <time>2013-06-09T10:50:13.000Z</time>
      </trkpt>
      <trkpt lat="47.29863" lon="6.10776">
        <ele>392</ele>
        <time>2013-06-09T10:50:16.000Z</time>
      </trkpt>
      <trkpt lat="47.29862" lon="6.10775">
        <ele>391.7</ele>
        <time>2013-06-09T10:50:17.000Z</time>
      </trkpt>
      <trkpt lat="47.29859" lon="6.10771">
        <ele>390.7</ele>
        <time>2013-06-09T10:50:20.000Z</time>
      </trkpt>
      <trkpt lat="47.29858" lon="6.10769">
        <ele>390.2</ele>
        <time>2013-06-09T10:50:21.000Z</time>
      </trkpt>
      <trkpt lat="47.29855" lon="6.10765">
        <ele>390</ele>
        <time>2013-06-09T10:50:24.000Z</time>
      </trkpt>
      <trkpt lat="47.29854" lon="6.10764">
        <ele>390.5</ele>
        <time>2013-06-09T10:50:25.000Z</time>
      </trkpt>
      <trkpt lat="47.2985" lon="6.1076">
        <ele>391.6</ele>
        <time>2013-06-09T10:50:28.000Z</time>
      </trkpt>
      <trkpt lat="47.29849" lon="6.10759">
        <ele>392.1</ele>
        <time>2013-06-09T10:50:29.000Z</time>
      </trkpt>
      <trkpt lat="47.29846" lon="6.10755">
        <ele>392.7</ele>
        <time>2013-06-09T10:50:32.000Z</time>
      </trkpt>
      <trkpt lat="47.29845" lon="6.10754">
        <ele>392.3</ele>
        <time>2013-06-09T10:50:33.000Z</time>
      </trkpt>
      <trkpt lat="47.29842" lon="6.1075">
        <ele>392.1</ele>
        <time>2013-06-09T10:50:36.000Z</time>
      </trkpt>
      <trkpt lat="47.29841" lon="6.10749">
        <ele>392.3</ele>
        <time>2013-06-09T10:50:37.000Z</time>
      </trkpt>
      <trkpt lat="47.29837" lon="6.10746">
        <ele>392.5</ele>
        <time>2013-06-09T10:50:40.000Z</time>
      </trkpt>
      <trkpt lat="47.29836" lon="6.10745">
        <ele>392.7</ele>
        <time>2013-06-09T10:50:41.000Z</time>
      </trkpt>
      <trkpt lat="47.29832" lon="6.10742">
        <ele>393.4</ele>
        <time>2013-06-09T10:50:44.000Z</time>
      </trkpt>
      <trkpt lat="47.29831" lon="6.10741">
        <ele>393.3</ele>
        <time>2013-06-09T10:50:45.000Z</time>
      </trkpt>
      <trkpt lat="47.29827" lon="6.10738">
        <ele>393</ele>
        <time>2013-06-09T10:50:48.000Z</time>
      </trkpt>
      <trkpt lat="47.29826" lon="6.10738">
        <ele>393.1</ele>
        <time>2013-06-09T10:50:49.000Z</time>
      </trkpt>
      <trkpt lat="47.29822" lon="6.10735">
        <ele>394.4</ele>
        <time>2013-06-09T10:50:52.000Z</time>
      </trkpt>
      <trkpt lat="47.29821" lon="6.10734">
        <ele>394.9</ele>
        <time>2013-06-09T10:50:53.000Z</time>
      </trkpt>
      <trkpt lat="47.29818" lon="6.1073">
        <ele>395.6</ele>
        <time>2013-06-09T10:50:56.000Z</time>
      </trkpt>
      <trkpt lat="47.29817" lon="6.10728">
        <ele>395</ele>
        <time>2013-06-09T10:50:57.000Z</time>
      </trkpt>
      <trkpt lat="47.29815" lon="6.10723">
        <ele>394</ele>
        <time>2013-06-09T10:51:00.000Z</time>
      </trkpt>
      <trkpt lat="47.29814" lon="6.10721">
        <ele>393.7</ele>
        <time>2013-06-09T10:51:01.000Z</time>
      </trkpt>
      <trkpt lat="47.29812" lon="6.10718">
        <ele>392.8</ele>
        <time>2013-06-09T10:51:03.000Z</time>
      </trkpt>
      <trkpt lat="47.29811" lon="6.10716">
        <ele>392.4</ele>
        <time>2013-06-09T10:51:04.000Z</time>
      </trkpt>
      <trkpt lat="47.29809" lon="6.10712">
        <ele>391.6</ele>
        <time>2013-06-09T10:51:06.000Z</time>
      </trkpt>
      <trkpt lat="47.29808" lon="6.1071">
        <ele>391.1</ele>
        <time>2013-06-09T10:51:07.000Z</time>
      </trkpt>
      <trkpt lat="47.29806" lon="6.10706">
        <ele>390.8</ele>
        <time>2013-06-09T10:51:09.000Z</time>
      </trkpt>
      <trkpt lat="47.29805" lon="6.10704">
        <ele>390.9</ele>
        <time>2013-06-09T10:51:10.000Z</time>
      </trkpt>
      <trkpt lat="47.29803" lon="6.10701">
        <ele>391</ele>
        <time>2013-06-09T10:51:12.000Z</time>
      </trkpt>
      <trkpt lat="47.29802" lon="6.10699">
        <ele>391.2</ele>
        <time>2013-06-09T10:51:13.000Z</time>
      </trkpt>
      <trkpt lat="47.29799" lon="6.10693">
        <ele>391</ele>
        <time>2013-06-09T10:51:16.000Z</time>
      </trkpt>
      <trkpt lat="47.29798" lon="6.10692">
        <ele>391.2</ele>
        <time>2013-06-09T10:51:17.000Z</time>
      </trkpt>
      <trkpt lat="47.29795" lon="6.10688">
        <ele>392.3</ele>
        <time>2013-06-09T10:51:20.000Z</time>
      </trkpt>
      <trkpt lat="47.29794" lon="6.10687">
        <ele>392.7</ele>
        <time>2013-06-09T10:51:21.000Z</time>
      </trkpt>
      <trkpt lat="47.2979" lon="6.10686">
        <ele>393.5</ele>
        <time>2013-06-09T10:51:24.000Z</time>
      </trkpt>
      <trkpt lat="47.29789" lon="6.10686">
        <ele>393.5</ele>
        <time>2013-06-09T10:51:25.000Z</time>
      </trkpt>
      <trkpt lat="47.29786" lon="6.10689">
        <ele>392.5</ele>
        <time>2013-06-09T10:51:28.000Z</time>
      </trkpt>
      <trkpt lat="47.29785" lon="6.10691">
        <ele>392.3</ele>
        <time>2013-06-09T10:51:29.000Z</time>
      </trkpt>
      <trkpt lat="47.29783" lon="6.10696">
        <ele>389.9</ele>
        <time>2013-06-09T10:51:32.000Z</time>
      </trkpt>
      <trkpt lat="47.29782" lon="6.10697">
        <ele>389.2</ele>
        <time>2013-06-09T10:51:33.000Z</time>
      </trkpt>
      <trkpt lat="47.29781" lon="6.10703">
        <ele>387.2</ele>
        <time>2013-06-09T10:51:36.000Z</time>
      </trkpt>
      <trkpt lat="47.2978" lon="6.10704">
        <ele>387</ele>
        <time>2013-06-09T10:51:37.000Z</time>
      </trkpt>
      <trkpt lat="47.29779" lon="6.10709">
        <ele>386</ele>
        <time>2013-06-09T10:51:40.000Z</time>
      </trkpt>
      <trkpt lat="47.29778" lon="6.10711">
        <ele>385.5</ele>
        <time>2013-06-09T10:51:41.000Z</time>
      </trkpt>
      <trkpt lat="47.29777" lon="6.10716">
        <ele>384.6</ele>
        <time>2013-06-09T10:51:44.000Z</time>
      </trkpt>
      <trkpt lat="47.29777" lon="6.10718">
        <ele>384.4</ele>
        <time>2013-06-09T10:51:45.000Z</time>
      </trkpt>
      <trkpt lat="47.29777" lon="6.10723">
        <ele>384</ele>
        <time>2013-06-09T10:51:48.000Z</time>
      </trkpt>
      <trkpt lat="47.29778" lon="6.10725">
        <ele>383.7</ele>
        <time>2013-06-09T10:51:49.000Z</time>
      </trkpt>
      <trkpt lat="47.29778" lon="6.1073">
        <ele>383.2</ele>
        <time>2013-06-09T10:51:52.000Z</time>
      </trkpt>
      <trkpt lat="47.29779" lon="6.10731">
        <ele>383</ele>
        <time>2013-06-09T10:51:53.000Z</time>
      </trkpt>
      <trkpt lat="47.29781" lon="6.10736">
        <ele>382.6</ele>
        <time>2013-06-09T10:51:56.000Z</time>
      </trkpt>
      <trkpt lat="47.29782" lon="6.10738">
        <ele>382.3</ele>
        <time>2013-06-09T10:51:57.000Z</time>
      </trkpt>
      <trkpt lat="47.29783" lon="6.10741">
        <ele>381.1</ele>
        <time>2013-06-09T10:51:59.000Z</time>
      </trkpt>
      <trkpt lat="47.29785" lon="6.10743">
        <ele>380.4</ele>
        <time>2013-06-09T10:52:00.000Z</time>
      </trkpt>
      <trkpt lat="47.29787" lon="6.10747">
        <ele>380</ele>
        <time>2013-06-09T10:52:02.000Z</time>
      </trkpt>
      <trkpt lat="47.29788" lon="6.10749">
        <ele>379.9</ele>
        <time>2013-06-09T10:52:03.000Z</time>
      </trkpt>
      <trkpt lat="47.2979" lon="6.10754">
        <ele>379.5</ele>
        <time>2013-06-09T10:52:05.000Z</time>
      </trkpt>
      <trkpt lat="47.29791" lon="6.10756">
        <ele>379.3</ele>
        <time>2013-06-09T10:52:06.000Z</time>
      </trkpt>
      <trkpt lat="47.29793" lon="6.1076">
        <ele>379.3</ele>
        <time>2013-06-09T10:52:08.000Z</time>
      </trkpt>
      <trkpt lat="47.29793" lon="6.10763">
        <ele>379.1</ele>
        <time>2013-06-09T10:52:09.000Z</time>
      </trkpt>
      <trkpt lat="47.29793" lon="6.10767">
        <ele>378.8</ele>
        <time>2013-06-09T10:52:11.000Z</time>
      </trkpt>
      <trkpt lat="47.29793" lon="6.10769">
        <ele>378.9</ele>
        <time>2013-06-09T10:52:12.000Z</time>
      </trkpt>
      <trkpt lat="47.29792" lon="6.10774">
        <ele>379.3</ele>
        <time>2013-06-09T10:52:14.000Z</time>
      </trkpt>
      <trkpt lat="47.29791" lon="6.10776">
        <ele>379.3</ele>
        <time>2013-06-09T10:52:15.000Z</time>
      </trkpt>
      <trkpt lat="47.2979" lon="6.1078">
        <ele>379.7</ele>
        <time>2013-06-09T10:52:17.000Z</time>
      </trkpt>
      <trkpt lat="47.2979" lon="6.10782">
        <ele>379.5</ele>
        <time>2013-06-09T10:52:18.000Z</time>
      </trkpt>
      <trkpt lat="47.29789" lon="6.10786">
        <ele>379.3</ele>
        <time>2013-06-09T10:52:20.000Z</time>
      </trkpt>
      <trkpt lat="47.29788" lon="6.10789">
        <ele>379.1</ele>
        <time>2013-06-09T10:52:21.000Z</time>
      </trkpt>
      <trkpt lat="47.29787" lon="6.10795">
        <ele>378.7</ele>
        <time>2013-06-09T10:52:24.000Z</time>
      </trkpt>
      <trkpt lat="47.29786" lon="6.10797">
        <ele>378.6</ele>
        <time>2013-06-09T10:52:25.000Z</time>
      </trkpt>
      <trkpt lat="47.29785" lon="6.10803">
        <ele>378.9</ele>
        <time>2013-06-09T10:52:28.000Z</time>
      </trkpt>
      <trkpt lat="47.29785" lon="6.10805">
        <ele>379.3</ele>
        <time>2013-06-09T10:52:29.000Z</time>
      </trkpt>
      <trkpt lat="47.29784" lon="6.10811">
        <ele>380</ele>
        <time>2013-06-09T10:52:32.000Z</time>
      </trkpt>
      <trkpt lat="47.29784" lon="6.10813">
        <ele>380.2</ele>
        <time>2013-06-09T10:52:33.000Z</time>
      </trkpt>
      <trkpt lat="47.29783" lon="6.10819">
        <ele>380.9</ele>
        <time>2013-06-09T10:52:36.000Z</time>
      </trkpt>
      <trkpt lat="47.29783" lon="6.10821">
        <ele>380.9</ele>
        <time>2013-06-09T10:52:37.000Z</time>
      </trkpt>
      <trkpt lat="47.29783" lon="6.10827">
        <ele>380.9</ele>
        <time>2013-06-09T10:52:40.000Z</time>
      </trkpt>
      <trkpt lat="47.29783" lon="6.10829">
        <ele>381</ele>
        <time>2013-06-09T10:52:41.000Z</time>
      </trkpt>
      <trkpt lat="47.29783" lon="6.10835">
        <ele>381.1</ele>
        <time>2013-06-09T10:52:44.000Z</time>
      </trkpt>
      <trkpt lat="47.29783" lon="6.10837">
        <ele>381.2</ele>
        <time>2013-06-09T10:52:45.000Z</time>
      </trkpt>
      <trkpt lat="47.29782" lon="6.10843">
        <ele>380.6</ele>
        <time>2013-06-09T10:52:48.000Z</time>
      </trkpt>
      <trkpt lat="47.29782" lon="6.10845">
        <ele>380.4</ele>
        <time>2013-06-09T10:52:49.000Z</time>
      </trkpt>
      <trkpt lat="47.29784" lon="6.10876">
        <ele>379.2</ele>
        <time>2013-06-09T10:53:07.000Z</time>
      </trkpt>
      <trkpt lat="47.29784" lon="6.10882">
        <ele>379.2</ele>
        <time>2013-06-09T10:53:20.000Z</time>
      </trkpt>
      <trkpt lat="47.29783" lon="6.10883">
        <ele>379.2</ele>
        <time>2013-06-09T10:53:21.000Z</time>
      </trkpt>
      <trkpt lat="47.29783" lon="6.10885">
        <ele>379.2</ele>
        <time>2013-06-09T10:53:23.000Z</time>
      </trkpt>
      <trkpt lat="47.29784" lon="6.10892">
        <ele>378.3</ele>
        <time>2013-06-09T10:53:24.000Z</time>
      </trkpt>
      <trkpt lat="47.29784" lon="6.10898">
        <ele>377.8</ele>
        <time>2013-06-09T10:53:25.000Z</time>
      </trkpt>
      <trkpt lat="47.29784" lon="6.10903">
        <ele>377.6</ele>
        <time>2013-06-09T10:53:26.000Z</time>
      </trkpt>
      <trkpt lat="47.29785" lon="6.10907">
        <ele>377.4</ele>
        <time>2013-06-09T10:53:27.000Z</time>
      </trkpt>
      <trkpt lat="47.29785" lon="6.10912">
        <ele>377.1</ele>
        <time>2013-06-09T10:53:28.000Z</time>
      </trkpt>
      <trkpt lat="47.29786" lon="6.10915">
        <ele>376.9</ele>
        <time>2013-06-09T10:53:29.000Z</time>
      </trkpt>
      <trkpt lat="47.29787" lon="6.10919">
        <ele>376.4</ele>
        <time>2013-06-09T10:53:30.000Z</time>
      </trkpt>
      <trkpt lat="47.29787" lon="6.10923">
        <ele>376.3</ele>
        <time>2013-06-09T10:53:31.000Z</time>
      </trkpt>
      <trkpt lat="47.29788" lon="6.10926">
        <ele>376.3</ele>
        <time>2013-06-09T10:53:32.000Z</time>
      </trkpt>
      <trkpt lat="47.29788" lon="6.1093">
        <ele>376.4</ele>
        <time>2013-06-09T10:53:33.000Z</time>
      </trkpt>
      <trkpt lat="47.29789" lon="6.10934">
        <ele>376.3</ele>
        <time>2013-06-09T10:53:34.000Z</time>
      </trkpt>
      <trkpt lat="47.29789" lon="6.10937">
        <ele>376.2</ele>
        <time>2013-06-09T10:53:35.000Z</time>
      </trkpt>
      <trkpt lat="47.29789" lon="6.10941">
        <ele>376.2</ele>
        <time>2013-06-09T10:53:36.000Z</time>
      </trkpt>
      <trkpt lat="47.29789" lon="6.10946">
        <ele>376.3</ele>
        <time>2013-06-09T10:53:38.000Z</time>
      </trkpt>
      <trkpt lat="47.29789" lon="6.10949">
        <ele>376.2</ele>
        <time>2013-06-09T10:53:39.000Z</time>
      </trkpt>
      <trkpt lat="47.29789" lon="6.10954">
        <ele>375.8</ele>
        <time>2013-06-09T10:53:41.000Z</time>
      </trkpt>
      <trkpt lat="47.29789" lon="6.10957">
        <ele>375.9</ele>
        <time>2013-06-09T10:53:42.000Z</time>
      </trkpt>
      <trkpt lat="47.29788" lon="6.10961">
        <ele>376</ele>
        <time>2013-06-09T10:53:44.000Z</time>
      </trkpt>
      <trkpt lat="47.29788" lon="6.10963">
        <ele>375.9</ele>
        <time>2013-06-09T10:53:45.000Z</time>
      </trkpt>
      <trkpt lat="47.29788" lon="6.10968">
        <ele>375.6</ele>
        <time>2013-06-09T10:53:47.000Z</time>
      </trkpt>
      <trkpt lat="47.29788" lon="6.1097">
        <ele>375.4</ele>
        <time>2013-06-09T10:53:48.000Z</time>
      </trkpt>
      <trkpt lat="47.29788" lon="6.10972">
        <ele>375.3</ele>
        <time>2013-06-09T10:53:49.000Z</time>
      </trkpt>
      <trkpt lat="47.29789" lon="6.11">
        <ele>374.9</ele>
        <time>2013-06-09T10:54:05.000Z</time>
      </trkpt>
      <trkpt lat="47.29791" lon="6.11006">
        <ele>374.9</ele>
        <time>2013-06-09T10:54:19.000Z</time>
      </trkpt>
      <trkpt lat="47.29791" lon="6.11006">
        <ele>374.9</ele>
        <time>2013-06-09T10:54:20.000Z</time>
      </trkpt>
      <trkpt lat="47.29791" lon="6.11007">
        <ele>374.9</ele>
        <time>2013-06-09T10:54:21.000Z</time>
      </trkpt>
      <trkpt lat="47.29793" lon="6.11014">
        <ele>381.7</ele>
        <time>2013-06-09T10:54:22.000Z</time>
      </trkpt>
      <trkpt lat="47.29794" lon="6.11018">
        <ele>381.9</ele>
        <time>2013-06-09T10:54:23.000Z</time>
      </trkpt>
      <trkpt lat="47.29795" lon="6.11022">
        <ele>381.8</ele>
        <time>2013-06-09T10:54:24.000Z</time>
      </trkpt>
      <trkpt lat="47.29796" lon="6.11026">
        <ele>381.6</ele>
        <time>2013-06-09T10:54:25.000Z</time>
      </trkpt>
      <trkpt lat="47.29797" lon="6.1103">
        <ele>381.9</ele>
        <time>2013-06-09T10:54:26.000Z</time>
      </trkpt>
      <trkpt lat="47.29797" lon="6.11034">
        <ele>382.3</ele>
        <time>2013-06-09T10:54:27.000Z</time>
      </trkpt>
      <trkpt lat="47.29798" lon="6.11038">
        <ele>382.5</ele>
        <time>2013-06-09T10:54:28.000Z</time>
      </trkpt>
      <trkpt lat="47.29798" lon="6.11042">
        <ele>382.3</ele>
        <time>2013-06-09T10:54:29.000Z</time>
      </trkpt>
      <trkpt lat="47.29799" lon="6.11046">
        <ele>382.1</ele>
        <time>2013-06-09T10:54:30.000Z</time>
      </trkpt>
      <trkpt lat="47.29799" lon="6.11052">
        <ele>381</ele>
        <time>2013-06-09T10:54:32.000Z</time>
      </trkpt>
      <trkpt lat="47.298" lon="6.11055">
        <ele>380.8</ele>
        <time>2013-06-09T10:54:33.000Z</time>
      </trkpt>
      <trkpt lat="47.29801" lon="6.11061">
        <ele>380.5</ele>
        <time>2013-06-09T10:54:35.000Z</time>
      </trkpt>
      <trkpt lat="47.29802" lon="6.11064">
        <ele>380.5</ele>
        <time>2013-06-09T10:54:36.000Z</time>
      </trkpt>
      <trkpt lat="47.29803" lon="6.11068">
        <ele>380.4</ele>
        <time>2013-06-09T10:54:38.000Z</time>
      </trkpt>
      <trkpt lat="47.29803" lon="6.11071">
        <ele>380.2</ele>
        <time>2013-06-09T10:54:39.000Z</time>
      </trkpt>
      <trkpt lat="47.29804" lon="6.11075">
        <ele>379.6</ele>
        <time>2013-06-09T10:54:41.000Z</time>
      </trkpt>
      <trkpt lat="47.29804" lon="6.11078">
        <ele>379.7</ele>
        <time>2013-06-09T10:54:42.000Z</time>
      </trkpt>
      <trkpt lat="47.29805" lon="6.11082">
        <ele>379</ele>
        <time>2013-06-09T10:54:44.000Z</time>
      </trkpt>
      <trkpt lat="47.29805" lon="6.11084">
        <ele>378.9</ele>
        <time>2013-06-09T10:54:45.000Z</time>
      </trkpt>
      <trkpt lat="47.29806" lon="6.11089">
        <ele>378.6</ele>
        <time>2013-06-09T10:54:47.000Z</time>
      </trkpt>
      <trkpt lat="47.29806" lon="6.11092">
        <ele>378.6</ele>
        <time>2013-06-09T10:54:48.000Z</time>
      </trkpt>
      <trkpt lat="47.29807" lon="6.11094">
        <ele>378.5</ele>
        <time>2013-06-09T10:54:49.000Z</time>
      </trkpt>
      <trkpt lat="47.29807" lon="6.11115">
        <ele>380</ele>
        <time>2013-06-09T10:55:05.000Z</time>
      </trkpt>
      <trkpt lat="47.29806" lon="6.11118">
        <ele>380</ele>
        <time>2013-06-09T10:55:15.000Z</time>
      </trkpt>
      <trkpt lat="47.29808" lon="6.11128">
        <ele>379.4</ele>
        <time>2013-06-09T10:55:16.000Z</time>
      </trkpt>
      <trkpt lat="47.2981" lon="6.11135">
        <ele>379.7</ele>
        <time>2013-06-09T10:55:17.000Z</time>
      </trkpt>
      <trkpt lat="47.29812" lon="6.1114">
        <ele>379.6</ele>
        <time>2013-06-09T10:55:18.000Z</time>
      </trkpt>
      <trkpt lat="47.29813" lon="6.11145">
        <ele>379.8</ele>
        <time>2013-06-09T10:55:19.000Z</time>
      </trkpt>
      <trkpt lat="47.29814" lon="6.11149">
        <ele>380</ele>
        <time>2013-06-09T10:55:20.000Z</time>
      </trkpt>
      <trkpt lat="47.29815" lon="6.11153">
        <ele>380.1</ele>
        <time>2013-06-09T10:55:21.000Z</time>
      </trkpt>
      <trkpt lat="47.29816" lon="6.11156">
        <ele>380.4</ele>
        <time>2013-06-09T10:55:22.000Z</time>
      </trkpt>
      <trkpt lat="47.29817" lon="6.11159">
        <ele>380.6</ele>
        <time>2013-06-09T10:55:23.000Z</time>
      </trkpt>
      <trkpt lat="47.29818" lon="6.11165">
        <ele>380.9</ele>
        <time>2013-06-09T10:55:25.000Z</time>
      </trkpt>
      <trkpt lat="47.29818" lon="6.11168">
        <ele>380.8</ele>
        <time>2013-06-09T10:55:26.000Z</time>
      </trkpt>
      <trkpt lat="47.29818" lon="6.11173">
        <ele>380.5</ele>
        <time>2013-06-09T10:55:28.000Z</time>
      </trkpt>
      <trkpt lat="47.29818" lon="6.11175">
        <ele>380.6</ele>
        <time>2013-06-09T10:55:29.000Z</time>
      </trkpt>
      <trkpt lat="47.29818" lon="6.1118">
        <ele>380.8</ele>
        <time>2013-06-09T10:55:31.000Z</time>
      </trkpt>
      <trkpt lat="47.29818" lon="6.11182">
        <ele>380.9</ele>
        <time>2013-06-09T10:55:32.000Z</time>
      </trkpt>
      <trkpt lat="47.29817" lon="6.11189">
        <ele>381.5</ele>
        <time>2013-06-09T10:55:35.000Z</time>
      </trkpt>
      <trkpt lat="47.29817" lon="6.11191">
        <ele>381.8</ele>
        <time>2013-06-09T10:55:36.000Z</time>
      </trkpt>
      <trkpt lat="47.29817" lon="6.11197">
        <ele>381.7</ele>
        <time>2013-06-09T10:55:39.000Z</time>
      </trkpt>
      <trkpt lat="47.29817" lon="6.11199">
        <ele>381.9</ele>
        <time>2013-06-09T10:55:40.000Z</time>
      </trkpt>
      <trkpt lat="47.29817" lon="6.11205">
        <ele>381.9</ele>
        <time>2013-06-09T10:55:43.000Z</time>
      </trkpt>
      <trkpt lat="47.29817" lon="6.11207">
        <ele>381.9</ele>
        <time>2013-06-09T10:55:44.000Z</time>
      </trkpt>
      <trkpt lat="47.29818" lon="6.11213">
        <ele>381.5</ele>
        <time>2013-06-09T10:55:47.000Z</time>
      </trkpt>
      <trkpt lat="47.29819" lon="6.11214">
        <ele>381.3</ele>
        <time>2013-06-09T10:55:48.000Z</time>
      </trkpt>
      <trkpt lat="47.2982" lon="6.11219">
        <ele>381.6</ele>
        <time>2013-06-09T10:55:51.000Z</time>
      </trkpt>
      <trkpt lat="47.2982" lon="6.11221">
        <ele>381.6</ele>
        <time>2013-06-09T10:55:52.000Z</time>
      </trkpt>
      <trkpt lat="47.2982" lon="6.11227">
        <ele>382.2</ele>
        <time>2013-06-09T10:55:55.000Z</time>
      </trkpt>
      <trkpt lat="47.2982" lon="6.11229">
        <ele>382.4</ele>
        <time>2013-06-09T10:55:56.000Z</time>
      </trkpt>
      <trkpt lat="47.29822" lon="6.11233">
        <ele>382.3</ele>
        <time>2013-06-09T10:55:58.000Z</time>
      </trkpt>
      <trkpt lat="47.29822" lon="6.11235">
        <ele>382.3</ele>
        <time>2013-06-09T10:55:59.000Z</time>
      </trkpt>
      <trkpt lat="47.29823" lon="6.1124">
        <ele>381.9</ele>
        <time>2013-06-09T10:56:01.000Z</time>
      </trkpt>
      <trkpt lat="47.29824" lon="6.11242">
        <ele>381.5</ele>
        <time>2013-06-09T10:56:02.000Z</time>
      </trkpt>
      <trkpt lat="47.29825" lon="6.11248">
        <ele>380.9</ele>
        <time>2013-06-09T10:56:05.000Z</time>
      </trkpt>
      <trkpt lat="47.29825" lon="6.1125">
        <ele>380.5</ele>
        <time>2013-06-09T10:56:06.000Z</time>
      </trkpt>
      <trkpt lat="47.29826" lon="6.11255">
        <ele>380.2</ele>
        <time>2013-06-09T10:56:08.000Z</time>
      </trkpt>
      <trkpt lat="47.29827" lon="6.11257">
        <ele>379.8</ele>
        <time>2013-06-09T10:56:09.000Z</time>
      </trkpt>
      <trkpt lat="47.29828" lon="6.11262">
        <ele>379.4</ele>
        <time>2013-06-09T10:56:11.000Z</time>
      </trkpt>
      <trkpt lat="47.29828" lon="6.11264">
        <ele>379.2</ele>
        <time>2013-06-09T10:56:12.000Z</time>
      </trkpt>
      <trkpt lat="47.29829" lon="6.11269">
        <ele>378.9</ele>
        <time>2013-06-09T10:56:14.000Z</time>
      </trkpt>
      <trkpt lat="47.29829" lon="6.11271">
        <ele>379</ele>
        <time>2013-06-09T10:56:15.000Z</time>
      </trkpt>
      <trkpt lat="47.29829" lon="6.11277">
        <ele>378.8</ele>
        <time>2013-06-09T10:56:18.000Z</time>
      </trkpt>
      <trkpt lat="47.29828" lon="6.11279">
        <ele>378.6</ele>
        <time>2013-06-09T10:56:19.000Z</time>
      </trkpt>
      <trkpt lat="47.29826" lon="6.11285">
        <ele>378.6</ele>
        <time>2013-06-09T10:56:22.000Z</time>
      </trkpt>
      <trkpt lat="47.29825" lon="6.11287">
        <ele>378.9</ele>
        <time>2013-06-09T10:56:23.000Z</time>
      </trkpt>
      <trkpt lat="47.29824" lon="6.11292">
        <ele>379.4</ele>
        <time>2013-06-09T10:56:26.000Z</time>
      </trkpt>
      <trkpt lat="47.29823" lon="6.11294">
        <ele>379.6</ele>
        <time>2013-06-09T10:56:27.000Z</time>
      </trkpt>
      <trkpt lat="47.29822" lon="6.11299">
        <ele>380.5</ele>
        <time>2013-06-09T10:56:30.000Z</time>
      </trkpt>
      <trkpt lat="47.29822" lon="6.11301">
        <ele>380.8</ele>
        <time>2013-06-09T10:56:31.000Z</time>
      </trkpt>
      <trkpt lat="47.2982" lon="6.11307">
        <ele>381.9</ele>
        <time>2013-06-09T10:56:34.000Z</time>
      </trkpt>
      <trkpt lat="47.29819" lon="6.11308">
        <ele>382</ele>
        <time>2013-06-09T10:56:35.000Z</time>
      </trkpt>
      <trkpt lat="47.29818" lon="6.11314">
        <ele>383.5</ele>
        <time>2013-06-09T10:56:38.000Z</time>
      </trkpt>
      <trkpt lat="47.29818" lon="6.11316">
        <ele>383.7</ele>
        <time>2013-06-09T10:56:39.000Z</time>
      </trkpt>
      <trkpt lat="47.29819" lon="6.11321">
        <ele>383.7</ele>
        <time>2013-06-09T10:56:42.000Z</time>
      </trkpt>
      <trkpt lat="47.29819" lon="6.11323">
        <ele>383.5</ele>
        <time>2013-06-09T10:56:43.000Z</time>
      </trkpt>
      <trkpt lat="47.29819" lon="6.11329">
        <ele>383.4</ele>
        <time>2013-06-09T10:56:46.000Z</time>
      </trkpt>
      <trkpt lat="47.2982" lon="6.11331">
        <ele>383.4</ele>
        <time>2013-06-09T10:56:47.000Z</time>
      </trkpt>
      <trkpt lat="47.29819" lon="6.11335">
        <ele>383.4</ele>
        <time>2013-06-09T10:56:49.000Z</time>
      </trkpt>
      <trkpt lat="47.2981" lon="6.11364">
        <ele>382.3</ele>
        <time>2013-06-09T10:57:07.000Z</time>
      </trkpt>
      <trkpt lat="47.29807" lon="6.11369">
        <ele>382.3</ele>
        <time>2013-06-09T10:57:20.000Z</time>
      </trkpt>
      <trkpt lat="47.29807" lon="6.11369">
        <ele>382.3</ele>
        <time>2013-06-09T10:57:21.000Z</time>
      </trkpt>
      <trkpt lat="47.29805" lon="6.11371">
        <ele>382.3</ele>
        <time>2013-06-09T10:57:25.000Z</time>
      </trkpt>
      <trkpt lat="47.29804" lon="6.11378">
        <ele>376.8</ele>
        <time>2013-06-09T10:57:26.000Z</time>
      </trkpt>
      <trkpt lat="47.29803" lon="6.11385">
        <ele>376.7</ele>
        <time>2013-06-09T10:57:27.000Z</time>
      </trkpt>
      <trkpt lat="47.29802" lon="6.1139">
        <ele>376.4</ele>
        <time>2013-06-09T10:57:28.000Z</time>
      </trkpt>
      <trkpt lat="47.29801" lon="6.11395">
        <ele>376.1</ele>
        <time>2013-06-09T10:57:29.000Z</time>
      </trkpt>
      <trkpt lat="47.298" lon="6.11399">
        <ele>375.8</ele>
        <time>2013-06-09T10:57:30.000Z</time>
      </trkpt>
      <trkpt lat="47.29799" lon="6.11404">
        <ele>375.7</ele>
        <time>2013-06-09T10:57:31.000Z</time>
      </trkpt>
      <trkpt lat="47.29799" lon="6.11408">
        <ele>375.8</ele>
        <time>2013-06-09T10:57:32.000Z</time>
      </trkpt>
      <trkpt lat="47.29798" lon="6.11411">
        <ele>375.9</ele>
        <time>2013-06-09T10:57:33.000Z</time>
      </trkpt>
      <trkpt lat="47.29797" lon="6.11417">
        <ele>376</ele>
        <time>2013-06-09T10:57:35.000Z</time>
      </trkpt>
      <trkpt lat="47.29796" lon="6.1142">
        <ele>376.2</ele>
        <time>2013-06-09T10:57:36.000Z</time>
      </trkpt>
      <trkpt lat="47.29794" lon="6.11425">
        <ele>376.6</ele>
        <time>2013-06-09T10:57:38.000Z</time>
      </trkpt>
      <trkpt lat="47.29794" lon="6.11427">
        <ele>376.8</ele>
        <time>2013-06-09T10:57:39.000Z</time>
      </trkpt>
      <trkpt lat="47.29793" lon="6.11431">
        <ele>377</ele>
        <time>2013-06-09T10:57:41.000Z</time>
      </trkpt>
      <trkpt lat="47.29792" lon="6.11434">
        <ele>377.3</ele>
        <time>2013-06-09T10:57:42.000Z</time>
      </trkpt>
      <trkpt lat="47.29792" lon="6.11439">
        <ele>377.7</ele>
        <time>2013-06-09T10:57:44.000Z</time>
      </trkpt>
      <trkpt lat="47.29791" lon="6.11441">
        <ele>377.8</ele>
        <time>2013-06-09T10:57:45.000Z</time>
      </trkpt>
      <trkpt lat="47.29791" lon="6.11446">
        <ele>378</ele>
        <time>2013-06-09T10:57:47.000Z</time>
      </trkpt>
      <trkpt lat="47.2979" lon="6.11449">
        <ele>378</ele>
        <time>2013-06-09T10:57:48.000Z</time>
      </trkpt>
      <trkpt lat="47.2979" lon="6.11455">
        <ele>377.7</ele>
        <time>2013-06-09T10:57:51.000Z</time>
      </trkpt>
      <trkpt lat="47.2979" lon="6.11457">
        <ele>377.8</ele>
        <time>2013-06-09T10:57:52.000Z</time>
      </trkpt>
      <trkpt lat="47.2979" lon="6.11463">
        <ele>378.1</ele>
        <time>2013-06-09T10:57:55.000Z</time>
      </trkpt>
      <trkpt lat="47.2979" lon="6.11465">
        <ele>378.2</ele>
        <time>2013-06-09T10:57:56.000Z</time>
      </trkpt>
      <trkpt lat="47.29791" lon="6.11471">
        <ele>378.5</ele>
        <time>2013-06-09T10:57:59.000Z</time>
      </trkpt>
      <trkpt lat="47.29791" lon="6.11473">
        <ele>378.7</ele>
        <time>2013-06-09T10:58:00.000Z</time>
      </trkpt>
      <trkpt lat="47.29791" lon="6.11479">
        <ele>378.7</ele>
        <time>2013-06-09T10:58:03.000Z</time>
      </trkpt>
      <trkpt lat="47.29791" lon="6.11481">
        <ele>378.6</ele>
        <time>2013-06-09T10:58:04.000Z</time>
      </trkpt>
      <trkpt lat="47.29792" lon="6.11487">
        <ele>378.6</ele>
        <time>2013-06-09T10:58:07.000Z</time>
      </trkpt>
      <trkpt lat="47.29792" lon="6.11489">
        <ele>378.7</ele>
        <time>2013-06-09T10:58:08.000Z</time>
      </trkpt>
      <trkpt lat="47.29793" lon="6.11493">
        <ele>378.6</ele>
        <time>2013-06-09T10:58:10.000Z</time>
      </trkpt>
      <trkpt lat="47.29793" lon="6.11496">
        <ele>378.4</ele>
        <time>2013-06-09T10:58:11.000Z</time>
      </trkpt>
      <trkpt lat="47.29793" lon="6.11502">
        <ele>378.5</ele>
        <time>2013-06-09T10:58:14.000Z</time>
      </trkpt>
      <trkpt lat="47.29792" lon="6.11504">
        <ele>378.6</ele>
        <time>2013-06-09T10:58:15.000Z</time>
      </trkpt>
      <trkpt lat="47.29791" lon="6.1151">
        <ele>379.2</ele>
        <time>2013-06-09T10:58:18.000Z</time>
      </trkpt>
      <trkpt lat="47.29791" lon="6.11511">
        <ele>379.5</ele>
        <time>2013-06-09T10:58:19.000Z</time>
      </trkpt>
      <trkpt lat="47.2979" lon="6.11517">
        <ele>380.7</ele>
        <time>2013-06-09T10:58:22.000Z</time>
      </trkpt>
      <trkpt lat="47.2979" lon="6.11519">
        <ele>381.3</ele>
        <time>2013-06-09T10:58:23.000Z</time>
      </trkpt>
      <trkpt lat="47.29791" lon="6.11525">
        <ele>382.1</ele>
        <time>2013-06-09T10:58:26.000Z</time>
      </trkpt>
      <trkpt lat="47.29792" lon="6.11527">
        <ele>382.6</ele>
        <time>2013-06-09T10:58:27.000Z</time>
      </trkpt>
      <trkpt lat="47.29792" lon="6.11532">
        <ele>383.3</ele>
        <time>2013-06-09T10:58:30.000Z</time>
      </trkpt>
      <trkpt lat="47.29792" lon="6.11534">
        <ele>383.2</ele>
        <time>2013-06-09T10:58:31.000Z</time>
      </trkpt>
      <trkpt lat="47.29792" lon="6.1154">
        <ele>382.8</ele>
        <time>2013-06-09T10:58:34.000Z</time>
      </trkpt>
      <trkpt lat="47.29793" lon="6.11542">
        <ele>382.7</ele>
        <time>2013-06-09T10:58:35.000Z</time>
      </trkpt>
      <trkpt lat="47.29794" lon="6.11549">
        <ele>382.2</ele>
        <time>2013-06-09T10:58:38.000Z</time>
      </trkpt>
      <trkpt lat="47.29794" lon="6.11551">
        <ele>382</ele>
        <time>2013-06-09T10:58:39.000Z</time>
      </trkpt>
      <trkpt lat="47.29795" lon="6.11556">
        <ele>381.9</ele>
        <time>2013-06-09T10:58:42.000Z</time>
      </trkpt>
      <trkpt lat="47.29796" lon="6.11558">
        <ele>381.9</ele>
        <time>2013-06-09T10:58:43.000Z</time>
      </trkpt>
      <trkpt lat="47.29797" lon="6.11563">
        <ele>382</ele>
        <time>2013-06-09T10:58:46.000Z</time>
      </trkpt>
      <trkpt lat="47.29798" lon="6.11565">
        <ele>382</ele>
        <time>2013-06-09T10:58:47.000Z</time>
      </trkpt>
      <trkpt lat="47.29798" lon="6.11569">
        <ele>382.4</ele>
        <time>2013-06-09T10:58:49.000Z</time>
      </trkpt>
      <trkpt lat="47.29807" lon="6.11595">
        <ele>387.8</ele>
        <time>2013-06-09T10:59:07.000Z</time>
      </trkpt>
      <trkpt lat="47.29808" lon="6.11602">
        <ele>387.8</ele>
        <time>2013-06-09T10:59:20.000Z</time>
      </trkpt>
      <trkpt lat="47.29808" lon="6.11603">
        <ele>387.8</ele>
        <time>2013-06-09T10:59:21.000Z</time>
      </trkpt>
      <trkpt lat="47.29807" lon="6.11608">
        <ele>385.9</ele>
        <time>2013-06-09T10:59:22.000Z</time>
      </trkpt>
      <trkpt lat="47.29806" lon="6.11612">
        <ele>385.8</ele>
        <time>2013-06-09T10:59:23.000Z</time>
      </trkpt>
      <trkpt lat="47.29804" lon="6.11616">
        <ele>385.6</ele>
        <time>2013-06-09T10:59:24.000Z</time>
      </trkpt>
      <trkpt lat="47.29803" lon="6.1162">
        <ele>385.6</ele>
        <time>2013-06-09T10:59:25.000Z</time>
      </trkpt>
      <trkpt lat="47.29802" lon="6.11623">
        <ele>385.3</ele>
        <time>2013-06-09T10:59:26.000Z</time>
      </trkpt>
      <trkpt lat="47.29801" lon="6.11626">
        <ele>384.7</ele>
        <time>2013-06-09T10:59:27.000Z</time>
      </trkpt>
      <trkpt lat="47.298" lon="6.1163">
        <ele>384.6</ele>
        <time>2013-06-09T10:59:28.000Z</time>
      </trkpt>
      <trkpt lat="47.29799" lon="6.11633">
        <ele>384.6</ele>
        <time>2013-06-09T10:59:29.000Z</time>
      </trkpt>
      <trkpt lat="47.29797" lon="6.11635">
        <ele>384.8</ele>
        <time>2013-06-09T10:59:30.000Z</time>
      </trkpt>
      <trkpt lat="47.29796" lon="6.11639">
        <ele>384.6</ele>
        <time>2013-06-09T10:59:31.000Z</time>
      </trkpt>
      <trkpt lat="47.29794" lon="6.11644">
        <ele>384.3</ele>
        <time>2013-06-09T10:59:33.000Z</time>
      </trkpt>
      <trkpt lat="47.29793" lon="6.11647">
        <ele>384.2</ele>
        <time>2013-06-09T10:59:34.000Z</time>
      </trkpt>
      <trkpt lat="47.29791" lon="6.11651">
        <ele>384</ele>
        <time>2013-06-09T10:59:36.000Z</time>
      </trkpt>
      <trkpt lat="47.29791" lon="6.11654">
        <ele>384</ele>
        <time>2013-06-09T10:59:37.000Z</time>
      </trkpt>
      <trkpt lat="47.29789" lon="6.11659">
        <ele>384</ele>
        <time>2013-06-09T10:59:39.000Z</time>
      </trkpt>
      <trkpt lat="47.29788" lon="6.11661">
        <ele>384.2</ele>
        <time>2013-06-09T10:59:40.000Z</time>
      </trkpt>
      <trkpt lat="47.29787" lon="6.11665">
        <ele>384.2</ele>
        <time>2013-06-09T10:59:42.000Z</time>
      </trkpt>
      <trkpt lat="47.29786" lon="6.11667">
        <ele>384.1</ele>
        <time>2013-06-09T10:59:43.000Z</time>
      </trkpt>
      <trkpt lat="47.29784" lon="6.11671">
        <ele>383.8</ele>
        <time>2013-06-09T10:59:45.000Z</time>
      </trkpt>
      <trkpt lat="47.29783" lon="6.11674">
        <ele>383.9</ele>
        <time>2013-06-09T10:59:46.000Z</time>
      </trkpt>
      <trkpt lat="47.29781" lon="6.11679">
        <ele>384.2</ele>
        <time>2013-06-09T10:59:49.000Z</time>
      </trkpt>
      <trkpt lat="47.2978" lon="6.11681">
        <ele>384.2</ele>
        <time>2013-06-09T10:59:50.000Z</time>
      </trkpt>
      <trkpt lat="47.29777" lon="6.11685">
        <ele>384.1</ele>
        <time>2013-06-09T10:59:53.000Z</time>
      </trkpt>
      <trkpt lat="47.29776" lon="6.11687">
        <ele>384.1</ele>
        <time>2013-06-09T10:59:54.000Z</time>
      </trkpt>
      <trkpt lat="47.29774" lon="6.11692">
        <ele>383.7</ele>
        <time>2013-06-09T10:59:57.000Z</time>
      </trkpt>
      <trkpt lat="47.29773" lon="6.11694">
        <ele>383.4</ele>
        <time>2013-06-09T10:59:58.000Z</time>
      </trkpt>
      <trkpt lat="47.2977" lon="6.11699">
        <ele>383.4</ele>
        <time>2013-06-09T11:00:01.000Z</time>
      </trkpt>
      <trkpt lat="47.2977" lon="6.117">
        <ele>383.2</ele>
        <time>2013-06-09T11:00:02.000Z</time>
      </trkpt>
      <trkpt lat="47.29768" lon="6.11706">
        <ele>383.2</ele>
        <time>2013-06-09T11:00:05.000Z</time>
      </trkpt>
      <trkpt lat="47.29767" lon="6.11708">
        <ele>383.1</ele>
        <time>2013-06-09T11:00:06.000Z</time>
      </trkpt>
      <trkpt lat="47.29765" lon="6.11713">
        <ele>382.8</ele>
        <time>2013-06-09T11:00:09.000Z</time>
      </trkpt>
      <trkpt lat="47.29764" lon="6.11715">
        <ele>382.4</ele>
        <time>2013-06-09T11:00:10.000Z</time>
      </trkpt>
      <trkpt lat="47.29763" lon="6.11721">
        <ele>382</ele>
        <time>2013-06-09T11:00:13.000Z</time>
      </trkpt>
      <trkpt lat="47.29762" lon="6.11723">
        <ele>382.2</ele>
        <time>2013-06-09T11:00:14.000Z</time>
      </trkpt>
      <trkpt lat="47.2976" lon="6.11728">
        <ele>382.6</ele>
        <time>2013-06-09T11:00:17.000Z</time>
      </trkpt>
      <trkpt lat="47.29759" lon="6.1173">
        <ele>382.6</ele>
        <time>2013-06-09T11:00:18.000Z</time>
      </trkpt>
      <trkpt lat="47.29759" lon="6.11737">
        <ele>382.5</ele>
        <time>2013-06-09T11:00:21.000Z</time>
      </trkpt>
      <trkpt lat="47.29758" lon="6.11739">
        <ele>382.4</ele>
        <time>2013-06-09T11:00:22.000Z</time>
      </trkpt>
      <trkpt lat="47.29757" lon="6.11745">
        <ele>382.7</ele>
        <time>2013-06-09T11:00:25.000Z</time>
      </trkpt>
      <trkpt lat="47.29757" lon="6.11747">
        <ele>382.8</ele>
        <time>2013-06-09T11:00:26.000Z</time>
      </trkpt>
      <trkpt lat="47.29755" lon="6.11753">
        <ele>383</ele>
        <time>2013-06-09T11:00:29.000Z</time>
      </trkpt>
      <trkpt lat="47.29754" lon="6.11755">
        <ele>383.1</ele>
        <time>2013-06-09T11:00:30.000Z</time>
      </trkpt>
      <trkpt lat="47.29753" lon="6.1176">
        <ele>383.5</ele>
        <time>2013-06-09T11:00:33.000Z</time>
      </trkpt>
      <trkpt lat="47.29752" lon="6.11762">
        <ele>383.2</ele>
        <time>2013-06-09T11:00:34.000Z</time>
      </trkpt>
      <trkpt lat="47.2975" lon="6.11768">
        <ele>383.2</ele>
        <time>2013-06-09T11:00:37.000Z</time>
      </trkpt>
      <trkpt lat="47.2975" lon="6.11769">
        <ele>383.2</ele>
        <time>2013-06-09T11:00:38.000Z</time>
      </trkpt>
      <trkpt lat="47.29748" lon="6.11775">
        <ele>383.3</ele>
        <time>2013-06-09T11:00:41.000Z</time>
      </trkpt>
      <trkpt lat="47.29747" lon="6.11777">
        <ele>383.5</ele>
        <time>2013-06-09T11:00:42.000Z</time>
      </trkpt>
      <trkpt lat="47.29745" lon="6.11782">
        <ele>383.6</ele>
        <time>2013-06-09T11:00:45.000Z</time>
      </trkpt>
      <trkpt lat="47.29744" lon="6.11783">
        <ele>383.6</ele>
        <time>2013-06-09T11:00:46.000Z</time>
      </trkpt>
      <trkpt lat="47.29742" lon="6.11788">
        <ele>383.6</ele>
        <time>2013-06-09T11:00:49.000Z</time>
      </trkpt>
      <trkpt lat="47.29741" lon="6.1179">
        <ele>383.4</ele>
        <time>2013-06-09T11:00:50.000Z</time>
      </trkpt>
      <trkpt lat="47.29739" lon="6.11795">
        <ele>382.9</ele>
        <time>2013-06-09T11:00:53.000Z</time>
      </trkpt>
      <trkpt lat="47.29738" lon="6.11797">
        <ele>382.9</ele>
        <time>2013-06-09T11:00:54.000Z</time>
      </trkpt>
      <trkpt lat="47.29736" lon="6.11802">
        <ele>382.4</ele>
        <time>2013-06-09T11:00:57.000Z</time>
      </trkpt>
      <trkpt lat="47.29735" lon="6.11804">
        <ele>382.3</ele>
        <time>2013-06-09T11:00:58.000Z</time>
      </trkpt>
      <trkpt lat="47.29733" lon="6.11809">
        <ele>382.5</ele>
        <time>2013-06-09T11:01:01.000Z</time>
      </trkpt>
      <trkpt lat="47.29733" lon="6.11811">
        <ele>382.7</ele>
        <time>2013-06-09T11:01:02.000Z</time>
      </trkpt>
      <trkpt lat="47.29731" lon="6.11816">
        <ele>383.4</ele>
        <time>2013-06-09T11:01:05.000Z</time>
      </trkpt>
      <trkpt lat="47.2973" lon="6.11818">
        <ele>383.1</ele>
        <time>2013-06-09T11:01:06.000Z</time>
      </trkpt>
      <trkpt lat="47.29728" lon="6.11824">
        <ele>382</ele>
        <time>2013-06-09T11:01:09.000Z</time>
      </trkpt>
      <trkpt lat="47.29728" lon="6.11826">
        <ele>381.7</ele>
        <time>2013-06-09T11:01:10.000Z</time>
      </trkpt>
      <trkpt lat="47.29726" lon="6.11831">
        <ele>381.2</ele>
        <time>2013-06-09T11:01:13.000Z</time>
      </trkpt>
      <trkpt lat="47.29725" lon="6.11833">
        <ele>381.8</ele>
        <time>2013-06-09T11:01:14.000Z</time>
      </trkpt>
      <trkpt lat="47.29722" lon="6.11838">
        <ele>382.4</ele>
        <time>2013-06-09T11:01:17.000Z</time>
      </trkpt>
      <trkpt lat="47.29721" lon="6.11839">
        <ele>382.6</ele>
        <time>2013-06-09T11:01:18.000Z</time>
      </trkpt>
      <trkpt lat="47.29719" lon="6.11844">
        <ele>382.5</ele>
        <time>2013-06-09T11:01:21.000Z</time>
      </trkpt>
      <trkpt lat="47.29718" lon="6.11846">
        <ele>382.4</ele>
        <time>2013-06-09T11:01:22.000Z</time>
      </trkpt>
      <trkpt lat="47.29716" lon="6.11852">
        <ele>382.6</ele>
        <time>2013-06-09T11:01:25.000Z</time>
      </trkpt>
      <trkpt lat="47.29716" lon="6.11854">
        <ele>382.8</ele>
        <time>2013-06-09T11:01:26.000Z</time>
      </trkpt>
      <trkpt lat="47.29714" lon="6.11859">
        <ele>382.9</ele>
        <time>2013-06-09T11:01:29.000Z</time>
      </trkpt>
      <trkpt lat="47.29713" lon="6.1186">
        <ele>383.1</ele>
        <time>2013-06-09T11:01:30.000Z</time>
      </trkpt>
      <trkpt lat="47.29711" lon="6.11865">
        <ele>384</ele>
        <time>2013-06-09T11:01:33.000Z</time>
      </trkpt>
      <trkpt lat="47.2971" lon="6.11867">
        <ele>384</ele>
        <time>2013-06-09T11:01:34.000Z</time>
      </trkpt>
      <trkpt lat="47.29708" lon="6.11871">
        <ele>384.4</ele>
        <time>2013-06-09T11:01:37.000Z</time>
      </trkpt>
      <trkpt lat="47.29707" lon="6.11873">
        <ele>384.4</ele>
        <time>2013-06-09T11:01:38.000Z</time>
      </trkpt>
      <trkpt lat="47.29705" lon="6.11878">
        <ele>384.4</ele>
        <time>2013-06-09T11:01:41.000Z</time>
      </trkpt>
      <trkpt lat="47.29705" lon="6.1188">
        <ele>384.5</ele>
        <time>2013-06-09T11:01:42.000Z</time>
      </trkpt>
      <trkpt lat="47.29703" lon="6.11885">
        <ele>384.6</ele>
        <time>2013-06-09T11:01:45.000Z</time>
      </trkpt>
      <trkpt lat="47.29703" lon="6.11887">
        <ele>384.7</ele>
        <time>2013-06-09T11:01:46.000Z</time>
      </trkpt>
      <trkpt lat="47.29702" lon="6.11893">
        <ele>384.3</ele>
        <time>2013-06-09T11:01:49.000Z</time>
      </trkpt>
      <trkpt lat="47.29701" lon="6.11895">
        <ele>383.6</ele>
        <time>2013-06-09T11:01:50.000Z</time>
      </trkpt>
      <trkpt lat="47.297" lon="6.11901">
        <ele>383</ele>
        <time>2013-06-09T11:01:53.000Z</time>
      </trkpt>
      <trkpt lat="47.29699" lon="6.11902">
        <ele>382.9</ele>
        <time>2013-06-09T11:01:54.000Z</time>
      </trkpt>
      <trkpt lat="47.29698" lon="6.11908">
        <ele>382.8</ele>
        <time>2013-06-09T11:01:57.000Z</time>
      </trkpt>
      <trkpt lat="47.29698" lon="6.1191">
        <ele>383.1</ele>
        <time>2013-06-09T11:01:58.000Z</time>
      </trkpt>
      <trkpt lat="47.29696" lon="6.11915">
        <ele>383.9</ele>
        <time>2013-06-09T11:02:01.000Z</time>
      </trkpt>
      <trkpt lat="47.29695" lon="6.11917">
        <ele>384.2</ele>
        <time>2013-06-09T11:02:02.000Z</time>
      </trkpt>
      <trkpt lat="47.29693" lon="6.11922">
        <ele>384.1</ele>
        <time>2013-06-09T11:02:05.000Z</time>
      </trkpt>
      <trkpt lat="47.29693" lon="6.11924">
        <ele>384</ele>
        <time>2013-06-09T11:02:06.000Z</time>
      </trkpt>
      <trkpt lat="47.29691" lon="6.11929">
        <ele>383.4</ele>
        <time>2013-06-09T11:02:09.000Z</time>
      </trkpt>
      <trkpt lat="47.29691" lon="6.11931">
        <ele>383.5</ele>
        <time>2013-06-09T11:02:10.000Z</time>
      </trkpt>
      <trkpt lat="47.29689" lon="6.11937">
        <ele>383.1</ele>
        <time>2013-06-09T11:02:13.000Z</time>
      </trkpt>
      <trkpt lat="47.29689" lon="6.11938">
        <ele>382.9</ele>
        <time>2013-06-09T11:02:14.000Z</time>
      </trkpt>
      <trkpt lat="47.29686" lon="6.11943">
        <ele>382.6</ele>
        <time>2013-06-09T11:02:17.000Z</time>
      </trkpt>
      <trkpt lat="47.29686" lon="6.11945">
        <ele>382.4</ele>
        <time>2013-06-09T11:02:18.000Z</time>
      </trkpt>
      <trkpt lat="47.29683" lon="6.1195">
        <ele>381.7</ele>
        <time>2013-06-09T11:02:21.000Z</time>
      </trkpt>
      <trkpt lat="47.29682" lon="6.11952">
        <ele>381.9</ele>
        <time>2013-06-09T11:02:22.000Z</time>
      </trkpt>
      <trkpt lat="47.2968" lon="6.11957">
        <ele>382.3</ele>
        <time>2013-06-09T11:02:25.000Z</time>
      </trkpt>
      <trkpt lat="47.29679" lon="6.11959">
        <ele>382.5</ele>
        <time>2013-06-09T11:02:26.000Z</time>
      </trkpt>
      <trkpt lat="47.29678" lon="6.11963">
        <ele>382.3</ele>
        <time>2013-06-09T11:02:28.000Z</time>
      </trkpt>
      <trkpt lat="47.29677" lon="6.11965">
        <ele>382.1</ele>
        <time>2013-06-09T11:02:29.000Z</time>
      </trkpt>
      <trkpt lat="47.29675" lon="6.1197">
        <ele>383</ele>
        <time>2013-06-09T11:02:32.000Z</time>
      </trkpt>
      <trkpt lat="47.29674" lon="6.11971">
        <ele>383.1</ele>
        <time>2013-06-09T11:02:33.000Z</time>
      </trkpt>
      <trkpt lat="47.29672" lon="6.11977">
        <ele>383.8</ele>
        <time>2013-06-09T11:02:36.000Z</time>
      </trkpt>
      <trkpt lat="47.29671" lon="6.11978">
        <ele>384</ele>
        <time>2013-06-09T11:02:37.000Z</time>
      </trkpt>
      <trkpt lat="47.2967" lon="6.11984">
        <ele>384.5</ele>
        <time>2013-06-09T11:02:40.000Z</time>
      </trkpt>
      <trkpt lat="47.29669" lon="6.11986">
        <ele>384.6</ele>
        <time>2013-06-09T11:02:41.000Z</time>
      </trkpt>
      <trkpt lat="47.29668" lon="6.11992">
        <ele>384.8</ele>
        <time>2013-06-09T11:02:44.000Z</time>
      </trkpt>
      <trkpt lat="47.29667" lon="6.11994">
        <ele>384.9</ele>
        <time>2013-06-09T11:02:45.000Z</time>
      </trkpt>
      <trkpt lat="47.29666" lon="6.11999">
        <ele>385</ele>
        <time>2013-06-09T11:02:48.000Z</time>
      </trkpt>
      <trkpt lat="47.29665" lon="6.12001">
        <ele>385.1</ele>
        <time>2013-06-09T11:02:49.000Z</time>
      </trkpt>
      <trkpt lat="47.29663" lon="6.12007">
        <ele>385.5</ele>
        <time>2013-06-09T11:02:52.000Z</time>
      </trkpt>
      <trkpt lat="47.29662" lon="6.12008">
        <ele>385.6</ele>
        <time>2013-06-09T11:02:53.000Z</time>
      </trkpt>
      <trkpt lat="47.2966" lon="6.12013">
        <ele>385.8</ele>
        <time>2013-06-09T11:02:56.000Z</time>
      </trkpt>
      <trkpt lat="47.29659" lon="6.12015">
        <ele>385.7</ele>
        <time>2013-06-09T11:02:57.000Z</time>
      </trkpt>
      <trkpt lat="47.29656" lon="6.1202">
        <ele>386.1</ele>
        <time>2013-06-09T11:03:00.000Z</time>
      </trkpt>
      <trkpt lat="47.29656" lon="6.12021">
        <ele>386.2</ele>
        <time>2013-06-09T11:03:01.000Z</time>
      </trkpt>
      <trkpt lat="47.29653" lon="6.12025">
        <ele>386</ele>
        <time>2013-06-09T11:03:04.000Z</time>
      </trkpt>
      <trkpt lat="47.29652" lon="6.12027">
        <ele>385.7</ele>
        <time>2013-06-09T11:03:05.000Z</time>
      </trkpt>
      <trkpt lat="47.2965" lon="6.12031">
        <ele>385.3</ele>
        <time>2013-06-09T11:03:08.000Z</time>
      </trkpt>
      <trkpt lat="47.29649" lon="6.12033">
        <ele>384.8</ele>
        <time>2013-06-09T11:03:09.000Z</time>
      </trkpt>
      <trkpt lat="47.29647" lon="6.12038">
        <ele>384.7</ele>
        <time>2013-06-09T11:03:12.000Z</time>
      </trkpt>
      <trkpt lat="47.29646" lon="6.1204">
        <ele>384.7</ele>
        <time>2013-06-09T11:03:13.000Z</time>
      </trkpt>
      <trkpt lat="47.29645" lon="6.12046">
        <ele>384.8</ele>
        <time>2013-06-09T11:03:16.000Z</time>
      </trkpt>
      <trkpt lat="47.29644" lon="6.12047">
        <ele>384.8</ele>
        <time>2013-06-09T11:03:17.000Z</time>
      </trkpt>
      <trkpt lat="47.29642" lon="6.12052">
        <ele>385.2</ele>
        <time>2013-06-09T11:03:20.000Z</time>
      </trkpt>
      <trkpt lat="47.29641" lon="6.12054">
        <ele>385.2</ele>
        <time>2013-06-09T11:03:21.000Z</time>
      </trkpt>
      <trkpt lat="47.29639" lon="6.12059">
        <ele>385.3</ele>
        <time>2013-06-09T11:03:24.000Z</time>
      </trkpt>
      <trkpt lat="47.29638" lon="6.12061">
        <ele>385.3</ele>
        <time>2013-06-09T11:03:25.000Z</time>
      </trkpt>
      <trkpt lat="47.29636" lon="6.12066">
        <ele>385.7</ele>
        <time>2013-06-09T11:03:28.000Z</time>
      </trkpt>
      <trkpt lat="47.29635" lon="6.12068">
        <ele>385.5</ele>
        <time>2013-06-09T11:03:29.000Z</time>
      </trkpt>
      <trkpt lat="47.29633" lon="6.12074">
        <ele>385.4</ele>
        <time>2013-06-09T11:03:32.000Z</time>
      </trkpt>
      <trkpt lat="47.29633" lon="6.12075">
        <ele>385.7</ele>
        <time>2013-06-09T11:03:33.000Z</time>
      </trkpt>
      <trkpt lat="47.29631" lon="6.12081">
        <ele>385.7</ele>
        <time>2013-06-09T11:03:36.000Z</time>
      </trkpt>
      <trkpt lat="47.2963" lon="6.12083">
        <ele>385.5</ele>
        <time>2013-06-09T11:03:37.000Z</time>
      </trkpt>
      <trkpt lat="47.29628" lon="6.12088">
        <ele>385.8</ele>
        <time>2013-06-09T11:03:40.000Z</time>
      </trkpt>
      <trkpt lat="47.29627" lon="6.12089">
        <ele>385.7</ele>
        <time>2013-06-09T11:03:41.000Z</time>
      </trkpt>
      <trkpt lat="47.29625" lon="6.12094">
        <ele>386.2</ele>
        <time>2013-06-09T11:03:44.000Z</time>
      </trkpt>
      <trkpt lat="47.29624" lon="6.12095">
        <ele>386.6</ele>
        <time>2013-06-09T11:03:45.000Z</time>
      </trkpt>
      <trkpt lat="47.29621" lon="6.121">
        <ele>387.1</ele>
        <time>2013-06-09T11:03:48.000Z</time>
      </trkpt>
      <trkpt lat="47.2962" lon="6.12101">
        <ele>387.1</ele>
        <time>2013-06-09T11:03:49.000Z</time>
      </trkpt>
      <trkpt lat="47.29613" lon="6.1212">
        <ele>395</ele>
        <time>2013-06-09T11:04:07.000Z</time>
      </trkpt>
      <trkpt lat="47.29611" lon="6.12126">
        <ele>395</ele>
        <time>2013-06-09T11:04:21.000Z</time>
      </trkpt>
      <trkpt lat="47.29606" lon="6.12131">
        <ele>395</ele>
        <time>2013-06-09T11:04:22.000Z</time>
      </trkpt>
      <trkpt lat="47.29603" lon="6.12134">
        <ele>394.5</ele>
        <time>2013-06-09T11:04:23.000Z</time>
      </trkpt>
      <trkpt lat="47.296" lon="6.12137">
        <ele>394.2</ele>
        <time>2013-06-09T11:04:24.000Z</time>
      </trkpt>
      <trkpt lat="47.29596" lon="6.12139">
        <ele>394.1</ele>
        <time>2013-06-09T11:04:25.000Z</time>
      </trkpt>
      <trkpt lat="47.29594" lon="6.12141">
        <ele>394</ele>
        <time>2013-06-09T11:04:26.000Z</time>
      </trkpt>
      <trkpt lat="47.29591" lon="6.12143">
        <ele>393.8</ele>
        <time>2013-06-09T11:04:27.000Z</time>
      </trkpt>
      <trkpt lat="47.29588" lon="6.12145">
        <ele>394</ele>
        <time>2013-06-09T11:04:28.000Z</time>
      </trkpt>
      <trkpt lat="47.29586" lon="6.12146">
        <ele>393.7</ele>
        <time>2013-06-09T11:04:29.000Z</time>
      </trkpt>
      <trkpt lat="47.29584" lon="6.12147">
        <ele>393.6</ele>
        <time>2013-06-09T11:04:30.000Z</time>
      </trkpt>
      <trkpt lat="47.29582" lon="6.12149">
        <ele>393.4</ele>
        <time>2013-06-09T11:04:31.000Z</time>
      </trkpt>
      <trkpt lat="47.2958" lon="6.1215">
        <ele>393</ele>
        <time>2013-06-09T11:04:32.000Z</time>
      </trkpt>
      <trkpt lat="47.29576" lon="6.12152">
        <ele>393.2</ele>
        <time>2013-06-09T11:04:34.000Z</time>
      </trkpt>
      <trkpt lat="47.29575" lon="6.12154">
        <ele>393</ele>
        <time>2013-06-09T11:04:35.000Z</time>
      </trkpt>
      <trkpt lat="47.29571" lon="6.12156">
        <ele>392.9</ele>
        <time>2013-06-09T11:04:37.000Z</time>
      </trkpt>
      <trkpt lat="47.29569" lon="6.12157">
        <ele>393</ele>
        <time>2013-06-09T11:04:38.000Z</time>
      </trkpt>
      <trkpt lat="47.29566" lon="6.12159">
        <ele>392.8</ele>
        <time>2013-06-09T11:04:40.000Z</time>
      </trkpt>
      <trkpt lat="47.29564" lon="6.1216">
        <ele>392.4</ele>
        <time>2013-06-09T11:04:41.000Z</time>
      </trkpt>
      <trkpt lat="47.2956" lon="6.12162">
        <ele>392</ele>
        <time>2013-06-09T11:04:43.000Z</time>
      </trkpt>
      <trkpt lat="47.29559" lon="6.12163">
        <ele>392</ele>
        <time>2013-06-09T11:04:44.000Z</time>
      </trkpt>
      <trkpt lat="47.29555" lon="6.12164">
        <ele>391.9</ele>
        <time>2013-06-09T11:04:46.000Z</time>
      </trkpt>
      <trkpt lat="47.29554" lon="6.12165">
        <ele>391.9</ele>
        <time>2013-06-09T11:04:47.000Z</time>
      </trkpt>
      <trkpt lat="47.29551" lon="6.12167">
        <ele>391.9</ele>
        <time>2013-06-09T11:04:49.000Z</time>
      </trkpt>
      <trkpt lat="47.29549" lon="6.12167">
        <ele>391.4</ele>
        <time>2013-06-09T11:04:50.000Z</time>
      </trkpt>
      <trkpt lat="47.29545" lon="6.1217">
        <ele>390.9</ele>
        <time>2013-06-09T11:04:53.000Z</time>
      </trkpt>
      <trkpt lat="47.29544" lon="6.12171">
        <ele>390.9</ele>
        <time>2013-06-09T11:04:54.000Z</time>
      </trkpt>
      <trkpt lat="47.2954" lon="6.12174">
        <ele>390.8</ele>
        <time>2013-06-09T11:04:57.000Z</time>
      </trkpt>
      <trkpt lat="47.29539" lon="6.12174">
        <ele>390.7</ele>
        <time>2013-06-09T11:04:58.000Z</time>
      </trkpt>
      <trkpt lat="47.29535" lon="6.12176">
        <ele>390.6</ele>
        <time>2013-06-09T11:05:01.000Z</time>
      </trkpt>
      <trkpt lat="47.29534" lon="6.12177">
        <ele>390.2</ele>
        <time>2013-06-09T11:05:02.000Z</time>
      </trkpt>
      <trkpt lat="47.29531" lon="6.1218">
        <ele>388.9</ele>
        <time>2013-06-09T11:05:05.000Z</time>
      </trkpt>
      <trkpt lat="47.29529" lon="6.12181">
        <ele>388</ele>
        <time>2013-06-09T11:05:06.000Z</time>
      </trkpt>
      <trkpt lat="47.29526" lon="6.12184">
        <ele>386.2</ele>
        <time>2013-06-09T11:05:09.000Z</time>
      </trkpt>
      <trkpt lat="47.29525" lon="6.12185">
        <ele>386.5</ele>
        <time>2013-06-09T11:05:10.000Z</time>
      </trkpt>
      <trkpt lat="47.29522" lon="6.12188">
        <ele>386.1</ele>
        <time>2013-06-09T11:05:13.000Z</time>
      </trkpt>
      <trkpt lat="47.2952" lon="6.12189">
        <ele>386</ele>
        <time>2013-06-09T11:05:14.000Z</time>
      </trkpt>
      <trkpt lat="47.29517" lon="6.12192">
        <ele>386.3</ele>
        <time>2013-06-09T11:05:17.000Z</time>
      </trkpt>
      <trkpt lat="47.29516" lon="6.12193">
        <ele>386.4</ele>
        <time>2013-06-09T11:05:18.000Z</time>
      </trkpt>
      <trkpt lat="47.29512" lon="6.12197">
        <ele>386.1</ele>
        <time>2013-06-09T11:05:21.000Z</time>
      </trkpt>
      <trkpt lat="47.29511" lon="6.12198">
        <ele>385.6</ele>
        <time>2013-06-09T11:05:22.000Z</time>
      </trkpt>
      <trkpt lat="47.29508" lon="6.12199">
        <ele>384.5</ele>
        <time>2013-06-09T11:05:24.000Z</time>
      </trkpt>
      <trkpt lat="47.29507" lon="6.122">
        <ele>384.1</ele>
        <time>2013-06-09T11:05:25.000Z</time>
      </trkpt>
      <trkpt lat="47.29503" lon="6.12203">
        <ele>383.7</ele>
        <time>2013-06-09T11:05:28.000Z</time>
      </trkpt>
      <trkpt lat="47.29501" lon="6.12204">
        <ele>383.5</ele>
        <time>2013-06-09T11:05:29.000Z</time>
      </trkpt>
      <trkpt lat="47.29497" lon="6.12207">
        <ele>383.1</ele>
        <time>2013-06-09T11:05:32.000Z</time>
      </trkpt>
      <trkpt lat="47.29496" lon="6.12208">
        <ele>383</ele>
        <time>2013-06-09T11:05:33.000Z</time>
      </trkpt>
      <trkpt lat="47.29492" lon="6.12211">
        <ele>382.9</ele>
        <time>2013-06-09T11:05:36.000Z</time>
      </trkpt>
      <trkpt lat="47.29491" lon="6.12212">
        <ele>382.8</ele>
        <time>2013-06-09T11:05:37.000Z</time>
      </trkpt>
      <trkpt lat="47.29487" lon="6.12215">
        <ele>381.7</ele>
        <time>2013-06-09T11:05:40.000Z</time>
      </trkpt>
      <trkpt lat="47.29486" lon="6.12216">
        <ele>381.3</ele>
        <time>2013-06-09T11:05:41.000Z</time>
      </trkpt>
      <trkpt lat="47.29482" lon="6.1222">
        <ele>380.2</ele>
        <time>2013-06-09T11:05:44.000Z</time>
      </trkpt>
      <trkpt lat="47.29481" lon="6.12221">
        <ele>380</ele>
        <time>2013-06-09T11:05:45.000Z</time>
      </trkpt>
      <trkpt lat="47.29478" lon="6.12224">
        <ele>379.5</ele>
        <time>2013-06-09T11:05:47.000Z</time>
      </trkpt>
      <trkpt lat="47.29477" lon="6.12225">
        <ele>379.4</ele>
        <time>2013-06-09T11:05:48.000Z</time>
      </trkpt>
      <trkpt lat="47.29474" lon="6.12227">
        <ele>379.2</ele>
        <time>2013-06-09T11:05:50.000Z</time>
      </trkpt>
      <trkpt lat="47.29473" lon="6.12229">
        <ele>378.7</ele>
        <time>2013-06-09T11:05:51.000Z</time>
      </trkpt>
      <trkpt lat="47.2947" lon="6.12231">
        <ele>377.9</ele>
        <time>2013-06-09T11:05:53.000Z</time>
      </trkpt>
      <trkpt lat="47.29469" lon="6.12233">
        <ele>377.6</ele>
        <time>2013-06-09T11:05:54.000Z</time>
      </trkpt>
      <trkpt lat="47.29466" lon="6.12235">
        <ele>377.5</ele>
        <time>2013-06-09T11:05:56.000Z</time>
      </trkpt>
      <trkpt lat="47.29465" lon="6.12236">
        <ele>377.5</ele>
        <time>2013-06-09T11:05:57.000Z</time>
      </trkpt>
      <trkpt lat="47.29462" lon="6.12239">
        <ele>377</ele>
        <time>2013-06-09T11:05:59.000Z</time>
      </trkpt>
      <trkpt lat="47.29461" lon="6.1224">
        <ele>377</ele>
        <time>2013-06-09T11:06:00.000Z</time>
      </trkpt>
      <trkpt lat="47.29457" lon="6.12243">
        <ele>377.1</ele>
        <time>2013-06-09T11:06:03.000Z</time>
      </trkpt>
      <trkpt lat="47.29456" lon="6.12244">
        <ele>376.9</ele>
        <time>2013-06-09T11:06:04.000Z</time>
      </trkpt>
      <trkpt lat="47.29452" lon="6.12247">
        <ele>377</ele>
        <time>2013-06-09T11:06:07.000Z</time>
      </trkpt>
      <trkpt lat="47.29451" lon="6.12248">
        <ele>376.9</ele>
        <time>2013-06-09T11:06:08.000Z</time>
      </trkpt>
      <trkpt lat="47.29447" lon="6.12251">
        <ele>376.6</ele>
        <time>2013-06-09T11:06:11.000Z</time>
      </trkpt>
      <trkpt lat="47.29446" lon="6.12252">
        <ele>376.5</ele>
        <time>2013-06-09T11:06:12.000Z</time>
      </trkpt>
      <trkpt lat="47.29442" lon="6.12255">
        <ele>375.6</ele>
        <time>2013-06-09T11:06:15.000Z</time>
      </trkpt>
      <trkpt lat="47.29441" lon="6.12257">
        <ele>375.4</ele>
        <time>2013-06-09T11:06:16.000Z</time>
      </trkpt>
      <trkpt lat="47.29438" lon="6.12259">
        <ele>374.9</ele>
        <time>2013-06-09T11:06:18.000Z</time>
      </trkpt>
      <trkpt lat="47.29437" lon="6.1226">
        <ele>374.6</ele>
        <time>2013-06-09T11:06:19.000Z</time>
      </trkpt>
      <trkpt lat="47.29433" lon="6.12264">
        <ele>374.1</ele>
        <time>2013-06-09T11:06:22.000Z</time>
      </trkpt>
      <trkpt lat="47.29432" lon="6.12265">
        <ele>373.9</ele>
        <time>2013-06-09T11:06:23.000Z</time>
      </trkpt>
      <trkpt lat="47.29428" lon="6.12268">
        <ele>373.8</ele>
        <time>2013-06-09T11:06:26.000Z</time>
      </trkpt>
      <trkpt lat="47.29427" lon="6.12269">
        <ele>373.6</ele>
        <time>2013-06-09T11:06:27.000Z</time>
      </trkpt>
      <trkpt lat="47.29423" lon="6.12272">
        <ele>373.6</ele>
        <time>2013-06-09T11:06:30.000Z</time>
      </trkpt>
      <trkpt lat="47.29422" lon="6.12273">
        <ele>373.5</ele>
        <time>2013-06-09T11:06:31.000Z</time>
      </trkpt>
      <trkpt lat="47.29418" lon="6.12275">
        <ele>373.1</ele>
        <time>2013-06-09T11:06:34.000Z</time>
      </trkpt>
      <trkpt lat="47.29417" lon="6.12276">
        <ele>372.9</ele>
        <time>2013-06-09T11:06:35.000Z</time>
      </trkpt>
      <trkpt lat="47.29413" lon="6.12279">
        <ele>372.6</ele>
        <time>2013-06-09T11:06:38.000Z</time>
      </trkpt>
      <trkpt lat="47.29412" lon="6.1228">
        <ele>372.5</ele>
        <time>2013-06-09T11:06:39.000Z</time>
      </trkpt>
      <trkpt lat="47.29408" lon="6.12283">
        <ele>372.6</ele>
        <time>2013-06-09T11:06:42.000Z</time>
      </trkpt>
      <trkpt lat="47.29407" lon="6.12283">
        <ele>372.6</ele>
        <time>2013-06-09T11:06:43.000Z</time>
      </trkpt>
      <trkpt lat="47.29403" lon="6.12286">
        <ele>372.6</ele>
        <time>2013-06-09T11:06:46.000Z</time>
      </trkpt>
      <trkpt lat="47.29402" lon="6.12287">
        <ele>372.6</ele>
        <time>2013-06-09T11:06:47.000Z</time>
      </trkpt>
      <trkpt lat="47.29398" lon="6.1229">
        <ele>372.5</ele>
        <time>2013-06-09T11:06:50.000Z</time>
      </trkpt>
      <trkpt lat="47.29397" lon="6.12291">
        <ele>372.6</ele>
        <time>2013-06-09T11:06:51.000Z</time>
      </trkpt>
      <trkpt lat="47.29394" lon="6.12294">
        <ele>372.9</ele>
        <time>2013-06-09T11:06:54.000Z</time>
      </trkpt>
      <trkpt lat="47.29392" lon="6.12295">
        <ele>373</ele>
        <time>2013-06-09T11:06:55.000Z</time>
      </trkpt>
      <trkpt lat="47.29389" lon="6.12298">
        <ele>373.3</ele>
        <time>2013-06-09T11:06:58.000Z</time>
      </trkpt>
      <trkpt lat="47.29388" lon="6.12299">
        <ele>373.3</ele>
        <time>2013-06-09T11:06:59.000Z</time>
      </trkpt>
      <trkpt lat="47.29384" lon="6.12302">
        <ele>373.3</ele>
        <time>2013-06-09T11:07:02.000Z</time>
      </trkpt>
      <trkpt lat="47.29383" lon="6.12303">
        <ele>373.3</ele>
        <time>2013-06-09T11:07:03.000Z</time>
      </trkpt>
      <trkpt lat="47.29379" lon="6.12305">
        <ele>374.1</ele>
        <time>2013-06-09T11:07:06.000Z</time>
      </trkpt>
      <trkpt lat="47.29378" lon="6.12306">
        <ele>373.9</ele>
        <time>2013-06-09T11:07:07.000Z</time>
      </trkpt>
      <trkpt lat="47.29374" lon="6.12309">
        <ele>374.2</ele>
        <time>2013-06-09T11:07:10.000Z</time>
      </trkpt>
      <trkpt lat="47.29373" lon="6.1231">
        <ele>374.4</ele>
        <time>2013-06-09T11:07:11.000Z</time>
      </trkpt>
      <trkpt lat="47.29369" lon="6.12313">
        <ele>373.8</ele>
        <time>2013-06-09T11:07:14.000Z</time>
      </trkpt>
      <trkpt lat="47.29368" lon="6.12314">
        <ele>373.6</ele>
        <time>2013-06-09T11:07:15.000Z</time>
      </trkpt>
      <trkpt lat="47.29364" lon="6.12316">
        <ele>373.8</ele>
        <time>2013-06-09T11:07:18.000Z</time>
      </trkpt>
      <trkpt lat="47.29363" lon="6.12317">
        <ele>373.9</ele>
        <time>2013-06-09T11:07:19.000Z</time>
      </trkpt>
      <trkpt lat="47.29359" lon="6.1232">
        <ele>374.3</ele>
        <time>2013-06-09T11:07:22.000Z</time>
      </trkpt>
      <trkpt lat="47.29358" lon="6.12321">
        <ele>374.7</ele>
        <time>2013-06-09T11:07:23.000Z</time>
      </trkpt>
      <trkpt lat="47.29354" lon="6.12323">
        <ele>375.3</ele>
        <time>2013-06-09T11:07:26.000Z</time>
      </trkpt>
      <trkpt lat="47.29353" lon="6.12324">
        <ele>375.5</ele>
        <time>2013-06-09T11:07:27.000Z</time>
      </trkpt>
      <trkpt lat="47.2935" lon="6.12327">
        <ele>375.5</ele>
        <time>2013-06-09T11:07:30.000Z</time>
      </trkpt>
      <trkpt lat="47.29348" lon="6.12328">
        <ele>375.8</ele>
        <time>2013-06-09T11:07:31.000Z</time>
      </trkpt>
      <trkpt lat="47.29345" lon="6.12331">
        <ele>376.2</ele>
        <time>2013-06-09T11:07:34.000Z</time>
      </trkpt>
      <trkpt lat="47.29344" lon="6.12332">
        <ele>376.2</ele>
        <time>2013-06-09T11:07:35.000Z</time>
      </trkpt>
      <trkpt lat="47.2934" lon="6.12335">
        <ele>376.8</ele>
        <time>2013-06-09T11:07:38.000Z</time>
      </trkpt>
      <trkpt lat="47.29339" lon="6.12336">
        <ele>377.2</ele>
        <time>2013-06-09T11:07:39.000Z</time>
      </trkpt>
      <trkpt lat="47.29335" lon="6.12339">
        <ele>377.7</ele>
        <time>2013-06-09T11:07:42.000Z</time>
      </trkpt>
      <trkpt lat="47.29334" lon="6.1234">
        <ele>377.7</ele>
        <time>2013-06-09T11:07:43.000Z</time>
      </trkpt>
      <trkpt lat="47.2933" lon="6.12342">
        <ele>377.5</ele>
        <time>2013-06-09T11:07:46.000Z</time>
      </trkpt>
      <trkpt lat="47.29329" lon="6.12343">
        <ele>377.5</ele>
        <time>2013-06-09T11:07:47.000Z</time>
      </trkpt>
      <trkpt lat="47.29325" lon="6.12346">
        <ele>377.5</ele>
        <time>2013-06-09T11:07:50.000Z</time>
      </trkpt>
      <trkpt lat="47.29324" lon="6.12347">
        <ele>377.7</ele>
        <time>2013-06-09T11:07:51.000Z</time>
      </trkpt>
      <trkpt lat="47.2932" lon="6.1235">
        <ele>378.1</ele>
        <time>2013-06-09T11:07:54.000Z</time>
      </trkpt>
      <trkpt lat="47.29319" lon="6.12351">
        <ele>378.3</ele>
        <time>2013-06-09T11:07:55.000Z</time>
      </trkpt>
      <trkpt lat="47.29316" lon="6.12355">
        <ele>379</ele>
        <time>2013-06-09T11:07:58.000Z</time>
      </trkpt>
      <trkpt lat="47.29315" lon="6.12356">
        <ele>379.2</ele>
        <time>2013-06-09T11:07:59.000Z</time>
      </trkpt>
      <trkpt lat="47.29312" lon="6.1236">
        <ele>379.3</ele>
        <time>2013-06-09T11:08:02.000Z</time>
      </trkpt>
      <trkpt lat="47.29311" lon="6.12361">
        <ele>379.4</ele>
        <time>2013-06-09T11:08:03.000Z</time>
      </trkpt>
      <trkpt lat="47.29308" lon="6.12365">
        <ele>379</ele>
        <time>2013-06-09T11:08:06.000Z</time>
      </trkpt>
      <trkpt lat="47.29307" lon="6.12367">
        <ele>379</ele>
        <time>2013-06-09T11:08:07.000Z</time>
      </trkpt>
      <trkpt lat="47.29305" lon="6.12373">
        <ele>379</ele>
        <time>2013-06-09T11:08:10.000Z</time>
      </trkpt>
      <trkpt lat="47.29305" lon="6.12375">
        <ele>378.8</ele>
        <time>2013-06-09T11:08:11.000Z</time>
      </trkpt>
      <trkpt lat="47.29303" lon="6.12381">
        <ele>378.4</ele>
        <time>2013-06-09T11:08:14.000Z</time>
      </trkpt>
      <trkpt lat="47.29303" lon="6.12383">
        <ele>378.1</ele>
        <time>2013-06-09T11:08:15.000Z</time>
      </trkpt>
      <trkpt lat="47.29302" lon="6.12389">
        <ele>377.1</ele>
        <time>2013-06-09T11:08:18.000Z</time>
      </trkpt>
      <trkpt lat="47.29302" lon="6.12391">
        <ele>376.5</ele>
        <time>2013-06-09T11:08:19.000Z</time>
      </trkpt>
      <trkpt lat="47.29301" lon="6.12397">
        <ele>374.4</ele>
        <time>2013-06-09T11:08:22.000Z</time>
      </trkpt>
      <trkpt lat="47.293" lon="6.12399">
        <ele>374.2</ele>
        <time>2013-06-09T11:08:23.000Z</time>
      </trkpt>
      <trkpt lat="47.29298" lon="6.12404">
        <ele>374</ele>
        <time>2013-06-09T11:08:26.000Z</time>
      </trkpt>
      <trkpt lat="47.29297" lon="6.12405">
        <ele>373.9</ele>
        <time>2013-06-09T11:08:27.000Z</time>
      </trkpt>
      <trkpt lat="47.29295" lon="6.1241">
        <ele>373</ele>
        <time>2013-06-09T11:08:30.000Z</time>
      </trkpt>
      <trkpt lat="47.29294" lon="6.12411">
        <ele>372.4</ele>
        <time>2013-06-09T11:08:31.000Z</time>
      </trkpt>
      <trkpt lat="47.29291" lon="6.12415">
        <ele>372.2</ele>
        <time>2013-06-09T11:08:34.000Z</time>
      </trkpt>
      <trkpt lat="47.2929" lon="6.12417">
        <ele>372</ele>
        <time>2013-06-09T11:08:35.000Z</time>
      </trkpt>
      <trkpt lat="47.29288" lon="6.12421">
        <ele>372</ele>
        <time>2013-06-09T11:08:38.000Z</time>
      </trkpt>
      <trkpt lat="47.29287" lon="6.12422">
        <ele>371.6</ele>
        <time>2013-06-09T11:08:39.000Z</time>
      </trkpt>
      <trkpt lat="47.29284" lon="6.12426">
        <ele>371.3</ele>
        <time>2013-06-09T11:08:42.000Z</time>
      </trkpt>
      <trkpt lat="47.29284" lon="6.12428">
        <ele>371.3</ele>
        <time>2013-06-09T11:08:43.000Z</time>
      </trkpt>
      <trkpt lat="47.29281" lon="6.12431">
        <ele>371.1</ele>
        <time>2013-06-09T11:08:46.000Z</time>
      </trkpt>
      <trkpt lat="47.2928" lon="6.12432">
        <ele>371</ele>
        <time>2013-06-09T11:08:47.000Z</time>
      </trkpt>
      <trkpt lat="47.29277" lon="6.12436">
        <ele>371.2</ele>
        <time>2013-06-09T11:08:50.000Z</time>
      </trkpt>
      <trkpt lat="47.29276" lon="6.12437">
        <ele>371.3</ele>
        <time>2013-06-09T11:08:51.000Z</time>
      </trkpt>
      <trkpt lat="47.29273" lon="6.12441">
        <ele>372.3</ele>
        <time>2013-06-09T11:08:55.000Z</time>
      </trkpt>
      <trkpt lat="47.29272" lon="6.12442">
        <ele>372.6</ele>
        <time>2013-06-09T11:08:56.000Z</time>
      </trkpt>
      <trkpt lat="47.29268" lon="6.12444">
        <ele>373.2</ele>
        <time>2013-06-09T11:08:59.000Z</time>
      </trkpt>
      <trkpt lat="47.29267" lon="6.12444">
        <ele>372.9</ele>
        <time>2013-06-09T11:09:00.000Z</time>
      </trkpt>
      <trkpt lat="47.29263" lon="6.12445">
        <ele>372.7</ele>
        <time>2013-06-09T11:09:03.000Z</time>
      </trkpt>
      <trkpt lat="47.29262" lon="6.12445">
        <ele>372.6</ele>
        <time>2013-06-09T11:09:04.000Z</time>
      </trkpt>
      <trkpt lat="47.29258" lon="6.12445">
        <ele>372.4</ele>
        <time>2013-06-09T11:09:07.000Z</time>
      </trkpt>
      <trkpt lat="47.29257" lon="6.12445">
        <ele>372.3</ele>
        <time>2013-06-09T11:09:08.000Z</time>
      </trkpt>
      <trkpt lat="47.29253" lon="6.12445">
        <ele>371.9</ele>
        <time>2013-06-09T11:09:11.000Z</time>
      </trkpt>
      <trkpt lat="47.29252" lon="6.12445">
        <ele>371.8</ele>
        <time>2013-06-09T11:09:12.000Z</time>
      </trkpt>
      <trkpt lat="47.29247" lon="6.12445">
        <ele>371.4</ele>
        <time>2013-06-09T11:09:15.000Z</time>
      </trkpt>
      <trkpt lat="47.29246" lon="6.12445">
        <ele>371.6</ele>
        <time>2013-06-09T11:09:16.000Z</time>
      </trkpt>
      <trkpt lat="47.29242" lon="6.12444">
        <ele>371.6</ele>
        <time>2013-06-09T11:09:19.000Z</time>
      </trkpt>
      <trkpt lat="47.29241" lon="6.12445">
        <ele>371.6</ele>
        <time>2013-06-09T11:09:20.000Z</time>
      </trkpt>
      <trkpt lat="47.29237" lon="6.12444">
        <ele>371.2</ele>
        <time>2013-06-09T11:09:23.000Z</time>
      </trkpt>
      <trkpt lat="47.29236" lon="6.12444">
        <ele>370.9</ele>
        <time>2013-06-09T11:09:24.000Z</time>
      </trkpt>
      <trkpt lat="47.29232" lon="6.12444">
        <ele>369.4</ele>
        <time>2013-06-09T11:09:27.000Z</time>
      </trkpt>
      <trkpt lat="47.29231" lon="6.12444">
        <ele>369</ele>
        <time>2013-06-09T11:09:28.000Z</time>
      </trkpt>
      <trkpt lat="47.29227" lon="6.12444">
        <ele>368.1</ele>
        <time>2013-06-09T11:09:31.000Z</time>
      </trkpt>
      <trkpt lat="47.29226" lon="6.12444">
        <ele>367.9</ele>
        <time>2013-06-09T11:09:32.000Z</time>
      </trkpt>
      <trkpt lat="47.29222" lon="6.12445">
        <ele>367.8</ele>
        <time>2013-06-09T11:09:35.000Z</time>
      </trkpt>
      <trkpt lat="47.29221" lon="6.12445">
        <ele>367.6</ele>
        <time>2013-06-09T11:09:36.000Z</time>
      </trkpt>
      <trkpt lat="47.29217" lon="6.12446">
        <ele>367.6</ele>
        <time>2013-06-09T11:09:39.000Z</time>
      </trkpt>
      <trkpt lat="47.29216" lon="6.12446">
        <ele>367.6</ele>
        <time>2013-06-09T11:09:40.000Z</time>
      </trkpt>
      <trkpt lat="47.29212" lon="6.12447">
        <ele>367.1</ele>
        <time>2013-06-09T11:09:43.000Z</time>
      </trkpt>
      <trkpt lat="47.29211" lon="6.12448">
        <ele>366.9</ele>
        <time>2013-06-09T11:09:44.000Z</time>
      </trkpt>
      <trkpt lat="47.29207" lon="6.12448">
        <ele>366.5</ele>
        <time>2013-06-09T11:09:47.000Z</time>
      </trkpt>
      <trkpt lat="47.29205" lon="6.12448">
        <ele>366.4</ele>
        <time>2013-06-09T11:09:48.000Z</time>
      </trkpt>
      <trkpt lat="47.29201" lon="6.12449">
        <ele>365.6</ele>
        <time>2013-06-09T11:09:51.000Z</time>
      </trkpt>
      <trkpt lat="47.292" lon="6.1245">
        <ele>365.6</ele>
        <time>2013-06-09T11:09:52.000Z</time>
      </trkpt>
      <trkpt lat="47.29197" lon="6.12452">
        <ele>365.9</ele>
        <time>2013-06-09T11:09:55.000Z</time>
      </trkpt>
      <trkpt lat="47.29195" lon="6.12452">
        <ele>366</ele>
        <time>2013-06-09T11:09:56.000Z</time>
      </trkpt>
      <trkpt lat="47.29192" lon="6.12453">
        <ele>365.8</ele>
        <time>2013-06-09T11:09:59.000Z</time>
      </trkpt>
      <trkpt lat="47.2919" lon="6.12454">
        <ele>365.8</ele>
        <time>2013-06-09T11:10:00.000Z</time>
      </trkpt>
      <trkpt lat="47.29186" lon="6.12455">
        <ele>365.3</ele>
        <time>2013-06-09T11:10:03.000Z</time>
      </trkpt>
      <trkpt lat="47.29185" lon="6.12455">
        <ele>365</ele>
        <time>2013-06-09T11:10:04.000Z</time>
      </trkpt>
      <trkpt lat="47.29181" lon="6.12456">
        <ele>364.8</ele>
        <time>2013-06-09T11:10:07.000Z</time>
      </trkpt>
      <trkpt lat="47.2918" lon="6.12457">
        <ele>364.1</ele>
        <time>2013-06-09T11:10:08.000Z</time>
      </trkpt>
      <trkpt lat="47.29175" lon="6.12458">
        <ele>362.9</ele>
        <time>2013-06-09T11:10:11.000Z</time>
      </trkpt>
      <trkpt lat="47.29174" lon="6.12458">
        <ele>362.8</ele>
        <time>2013-06-09T11:10:12.000Z</time>
      </trkpt>
      <trkpt lat="47.2917" lon="6.12459">
        <ele>363.3</ele>
        <time>2013-06-09T11:10:15.000Z</time>
      </trkpt>
      <trkpt lat="47.29168" lon="6.12459">
        <ele>363.3</ele>
        <time>2013-06-09T11:10:16.000Z</time>
      </trkpt>
      <trkpt lat="47.29165" lon="6.12459">
        <ele>363.1</ele>
        <time>2013-06-09T11:10:18.000Z</time>
      </trkpt>
      <trkpt lat="47.29164" lon="6.1246">
        <ele>362.7</ele>
        <time>2013-06-09T11:10:19.000Z</time>
      </trkpt>
      <trkpt lat="47.29159" lon="6.12461">
        <ele>362.6</ele>
        <time>2013-06-09T11:10:22.000Z</time>
      </trkpt>
      <trkpt lat="47.29158" lon="6.12461">
        <ele>362.5</ele>
        <time>2013-06-09T11:10:23.000Z</time>
      </trkpt>
      <trkpt lat="47.29154" lon="6.12462">
        <ele>362.7</ele>
        <time>2013-06-09T11:10:26.000Z</time>
      </trkpt>
      <trkpt lat="47.29153" lon="6.12462">
        <ele>362.5</ele>
        <time>2013-06-09T11:10:27.000Z</time>
      </trkpt>
      <trkpt lat="47.29149" lon="6.12463">
        <ele>362.3</ele>
        <time>2013-06-09T11:10:30.000Z</time>
      </trkpt>
      <trkpt lat="47.29148" lon="6.12464">
        <ele>362.2</ele>
        <time>2013-06-09T11:10:31.000Z</time>
      </trkpt>
      <trkpt lat="47.29145" lon="6.12465">
        <ele>362.4</ele>
        <time>2013-06-09T11:10:34.000Z</time>
      </trkpt>
      <trkpt lat="47.29143" lon="6.12465">
        <ele>362.3</ele>
        <time>2013-06-09T11:10:35.000Z</time>
      </trkpt>
      <trkpt lat="47.2914" lon="6.12466">
        <ele>362</ele>
        <time>2013-06-09T11:10:38.000Z</time>
      </trkpt>
      <trkpt lat="47.29139" lon="6.12466">
        <ele>361.9</ele>
        <time>2013-06-09T11:10:39.000Z</time>
      </trkpt>
      <trkpt lat="47.29135" lon="6.12467">
        <ele>361.8</ele>
        <time>2013-06-09T11:10:42.000Z</time>
      </trkpt>
      <trkpt lat="47.29134" lon="6.12468">
        <ele>361.8</ele>
        <time>2013-06-09T11:10:43.000Z</time>
      </trkpt>
      <trkpt lat="47.2913" lon="6.12469">
        <ele>361.9</ele>
        <time>2013-06-09T11:10:47.000Z</time>
      </trkpt>
      <trkpt lat="47.29129" lon="6.12469">
        <ele>362</ele>
        <time>2013-06-09T11:10:48.000Z</time>
      </trkpt>
      <trkpt lat="47.29128" lon="6.1247">
        <ele>362.2</ele>
        <time>2013-06-09T11:10:49.000Z</time>
      </trkpt>
      <trkpt lat="47.29125" lon="6.12476">
        <ele>369.6</ele>
        <time>2013-06-09T11:11:07.000Z</time>
      </trkpt>
      <trkpt lat="47.29123" lon="6.12477">
        <ele>369.6</ele>
        <time>2013-06-09T11:11:18.000Z</time>
      </trkpt>
      <trkpt lat="47.29115" lon="6.12479">
        <ele>364</ele>
        <time>2013-06-09T11:11:19.000Z</time>
      </trkpt>
      <trkpt lat="47.2911" lon="6.1248">
        <ele>364.3</ele>
        <time>2013-06-09T11:11:20.000Z</time>
      </trkpt>
      <trkpt lat="47.29106" lon="6.12482">
        <ele>364.2</ele>
        <time>2013-06-09T11:11:21.000Z</time>
      </trkpt>
      <trkpt lat="47.29102" lon="6.12483">
        <ele>364.1</ele>
        <time>2013-06-09T11:11:22.000Z</time>
      </trkpt>
      <trkpt lat="47.29099" lon="6.12484">
        <ele>364.2</ele>
        <time>2013-06-09T11:11:23.000Z</time>
      </trkpt>
      <trkpt lat="47.29097" lon="6.12485">
        <ele>364.3</ele>
        <time>2013-06-09T11:11:24.000Z</time>
      </trkpt>
      <trkpt lat="47.29092" lon="6.12487">
        <ele>364.2</ele>
        <time>2013-06-09T11:11:26.000Z</time>
      </trkpt>
      <trkpt lat="47.2909" lon="6.12488">
        <ele>364.2</ele>
        <time>2013-06-09T11:11:27.000Z</time>
      </trkpt>
      <trkpt lat="47.29087" lon="6.12489">
        <ele>364</ele>
        <time>2013-06-09T11:11:29.000Z</time>
      </trkpt>
      <trkpt lat="47.29085" lon="6.1249">
        <ele>363.9</ele>
        <time>2013-06-09T11:11:30.000Z</time>
      </trkpt>
      <trkpt lat="47.29081" lon="6.12492">
        <ele>364.1</ele>
        <time>2013-06-09T11:11:32.000Z</time>
      </trkpt>
      <trkpt lat="47.2908" lon="6.12492">
        <ele>364.2</ele>
        <time>2013-06-09T11:11:33.000Z</time>
      </trkpt>
      <trkpt lat="47.29077" lon="6.12494">
        <ele>364</ele>
        <time>2013-06-09T11:11:35.000Z</time>
      </trkpt>
      <trkpt lat="47.29075" lon="6.12495">
        <ele>364.1</ele>
        <time>2013-06-09T11:11:36.000Z</time>
      </trkpt>
      <trkpt lat="47.29072" lon="6.12496">
        <ele>364</ele>
        <time>2013-06-09T11:11:38.000Z</time>
      </trkpt>
      <trkpt lat="47.29071" lon="6.12497">
        <ele>363.9</ele>
        <time>2013-06-09T11:11:39.000Z</time>
      </trkpt>
      <trkpt lat="47.29067" lon="6.12499">
        <ele>364.3</ele>
        <time>2013-06-09T11:11:42.000Z</time>
      </trkpt>
      <trkpt lat="47.29066" lon="6.125">
        <ele>363.9</ele>
        <time>2013-06-09T11:11:43.000Z</time>
      </trkpt>
      <trkpt lat="47.29062" lon="6.12502">
        <ele>363.8</ele>
        <time>2013-06-09T11:11:46.000Z</time>
      </trkpt>
      <trkpt lat="47.29061" lon="6.12503">
        <ele>364</ele>
        <time>2013-06-09T11:11:47.000Z</time>
      </trkpt>
      <trkpt lat="47.29057" lon="6.12506">
        <ele>363.5</ele>
        <time>2013-06-09T11:11:50.000Z</time>
      </trkpt>
      <trkpt lat="47.29056" lon="6.12507">
        <ele>363.2</ele>
        <time>2013-06-09T11:11:51.000Z</time>
      </trkpt>
      <trkpt lat="47.29052" lon="6.1251">
        <ele>362.8</ele>
        <time>2013-06-09T11:11:54.000Z</time>
      </trkpt>
      <trkpt lat="47.29051" lon="6.12511">
        <ele>362.9</ele>
        <time>2013-06-09T11:11:55.000Z</time>
      </trkpt>
      <trkpt lat="47.29048" lon="6.12513">
        <ele>362.6</ele>
        <time>2013-06-09T11:11:57.000Z</time>
      </trkpt>
      <trkpt lat="47.29047" lon="6.12515">
        <ele>362.6</ele>
        <time>2013-06-09T11:11:58.000Z</time>
      </trkpt>
      <trkpt lat="47.29043" lon="6.12518">
        <ele>362.4</ele>
        <time>2013-06-09T11:12:01.000Z</time>
      </trkpt>
      <trkpt lat="47.29042" lon="6.12519">
        <ele>362.4</ele>
        <time>2013-06-09T11:12:02.000Z</time>
      </trkpt>
      <trkpt lat="47.29039" lon="6.12523">
        <ele>361.7</ele>
        <time>2013-06-09T11:12:05.000Z</time>
      </trkpt>
      <trkpt lat="47.29037" lon="6.12524">
        <ele>361.6</ele>
        <time>2013-06-09T11:12:06.000Z</time>
      </trkpt>
      <trkpt lat="47.29034" lon="6.12527">
        <ele>361.7</ele>
        <time>2013-06-09T11:12:09.000Z</time>
      </trkpt>
      <trkpt lat="47.29033" lon="6.12528">
        <ele>361.7</ele>
        <time>2013-06-09T11:12:10.000Z</time>
      </trkpt>
      <trkpt lat="47.2903" lon="6.12532">
        <ele>361.8</ele>
        <time>2013-06-09T11:12:13.000Z</time>
      </trkpt>
      <trkpt lat="47.29029" lon="6.12533">
        <ele>361.7</ele>
        <time>2013-06-09T11:12:14.000Z</time>
      </trkpt>
      <trkpt lat="47.29026" lon="6.12537">
        <ele>361.6</ele>
        <time>2013-06-09T11:12:17.000Z</time>
      </trkpt>
      <trkpt lat="47.29025" lon="6.12538">
        <ele>361.5</ele>
        <time>2013-06-09T11:12:18.000Z</time>
      </trkpt>
      <trkpt lat="47.29022" lon="6.12542">
        <ele>361.4</ele>
        <time>2013-06-09T11:12:21.000Z</time>
      </trkpt>
      <trkpt lat="47.29022" lon="6.12543">
        <ele>361.5</ele>
        <time>2013-06-09T11:12:22.000Z</time>
      </trkpt>
      <trkpt lat="47.29019" lon="6.12547">
        <ele>361.6</ele>
        <time>2013-06-09T11:12:25.000Z</time>
      </trkpt>
      <trkpt lat="47.29018" lon="6.12549">
        <ele>361.9</ele>
        <time>2013-06-09T11:12:26.000Z</time>
      </trkpt>
      <trkpt lat="47.29015" lon="6.12553">
        <ele>362.2</ele>
        <time>2013-06-09T11:12:29.000Z</time>
      </trkpt>
      <trkpt lat="47.29014" lon="6.12555">
        <ele>362.3</ele>
        <time>2013-06-09T11:12:30.000Z</time>
      </trkpt>
      <trkpt lat="47.29012" lon="6.12559">
        <ele>362.7</ele>
        <time>2013-06-09T11:12:33.000Z</time>
      </trkpt>
      <trkpt lat="47.29011" lon="6.12561">
        <ele>362.5</ele>
        <time>2013-06-09T11:12:34.000Z</time>
      </trkpt>
      <trkpt lat="47.29009" lon="6.12566">
        <ele>361.3</ele>
        <time>2013-06-09T11:12:37.000Z</time>
      </trkpt>
      <trkpt lat="47.29009" lon="6.12567">
        <ele>360.1</ele>
        <time>2013-06-09T11:12:38.000Z</time>
      </trkpt>
      <trkpt lat="47.29006" lon="6.12571">
        <ele>359.1</ele>
        <time>2013-06-09T11:12:41.000Z</time>
      </trkpt>
      <trkpt lat="47.29005" lon="6.12572">
        <ele>359</ele>
        <time>2013-06-09T11:12:42.000Z</time>
      </trkpt>
      <trkpt lat="47.29002" lon="6.12575">
        <ele>358.3</ele>
        <time>2013-06-09T11:12:45.000Z</time>
      </trkpt>
      <trkpt lat="47.29001" lon="6.12576">
        <ele>358.1</ele>
        <time>2013-06-09T11:12:46.000Z</time>
      </trkpt>
      <trkpt lat="47.28999" lon="6.1258">
        <ele>357.2</ele>
        <time>2013-06-09T11:12:49.000Z</time>
      </trkpt>
      <trkpt lat="47.28998" lon="6.12581">
        <ele>356.9</ele>
        <time>2013-06-09T11:12:50.000Z</time>
      </trkpt>
      <trkpt lat="47.28996" lon="6.12586">
        <ele>355.7</ele>
        <time>2013-06-09T11:12:53.000Z</time>
      </trkpt>
      <trkpt lat="47.28995" lon="6.12587">
        <ele>355.2</ele>
        <time>2013-06-09T11:12:54.000Z</time>
      </trkpt>
      <trkpt lat="47.28994" lon="6.12592">
        <ele>354.6</ele>
        <time>2013-06-09T11:12:57.000Z</time>
      </trkpt>
      <trkpt lat="47.28994" lon="6.12594">
        <ele>354.2</ele>
        <time>2013-06-09T11:12:58.000Z</time>
      </trkpt>
      <trkpt lat="47.28993" lon="6.12599">
        <ele>353.5</ele>
        <time>2013-06-09T11:13:01.000Z</time>
      </trkpt>
      <trkpt lat="47.28993" lon="6.12601">
        <ele>353.5</ele>
        <time>2013-06-09T11:13:02.000Z</time>
      </trkpt>
      <trkpt lat="47.28992" lon="6.12606">
        <ele>353.5</ele>
        <time>2013-06-09T11:13:05.000Z</time>
      </trkpt>
      <trkpt lat="47.28991" lon="6.12607">
        <ele>353.3</ele>
        <time>2013-06-09T11:13:06.000Z</time>
      </trkpt>
      <trkpt lat="47.28991" lon="6.12612">
        <ele>353</ele>
        <time>2013-06-09T11:13:09.000Z</time>
      </trkpt>
      <trkpt lat="47.2899" lon="6.12614">
        <ele>353.2</ele>
        <time>2013-06-09T11:13:10.000Z</time>
      </trkpt>
      <trkpt lat="47.28989" lon="6.12619">
        <ele>352.9</ele>
        <time>2013-06-09T11:13:14.000Z</time>
      </trkpt>
      <trkpt lat="47.28988" lon="6.1262">
        <ele>352.8</ele>
        <time>2013-06-09T11:13:15.000Z</time>
      </trkpt>
      <trkpt lat="47.28986" lon="6.12625">
        <ele>350.9</ele>
        <time>2013-06-09T11:13:19.000Z</time>
      </trkpt>
      <trkpt lat="47.28986" lon="6.12627">
        <ele>350.4</ele>
        <time>2013-06-09T11:13:20.000Z</time>
      </trkpt>
      <trkpt lat="47.28985" lon="6.12631">
        <ele>350.3</ele>
        <time>2013-06-09T11:13:23.000Z</time>
      </trkpt>
      <trkpt lat="47.28984" lon="6.12633">
        <ele>349.6</ele>
        <time>2013-06-09T11:13:24.000Z</time>
      </trkpt>
      <trkpt lat="47.28984" lon="6.12638">
        <ele>349.1</ele>
        <time>2013-06-09T11:13:27.000Z</time>
      </trkpt>
      <trkpt lat="47.28983" lon="6.1264">
        <ele>349</ele>
        <time>2013-06-09T11:13:28.000Z</time>
      </trkpt>
      <trkpt lat="47.28982" lon="6.12645">
        <ele>348.8</ele>
        <time>2013-06-09T11:13:32.000Z</time>
      </trkpt>
      <trkpt lat="47.28981" lon="6.12646">
        <ele>349</ele>
        <time>2013-06-09T11:13:33.000Z</time>
      </trkpt>
      <trkpt lat="47.28979" lon="6.12651">
        <ele>348.3</ele>
        <time>2013-06-09T11:13:37.000Z</time>
      </trkpt>
      <trkpt lat="47.28978" lon="6.12653">
        <ele>347.9</ele>
        <time>2013-06-09T11:13:38.000Z</time>
      </trkpt>
      <trkpt lat="47.28976" lon="6.12658">
        <ele>347.7</ele>
        <time>2013-06-09T11:13:42.000Z</time>
      </trkpt>
      <trkpt lat="47.28976" lon="6.1266">
        <ele>347.7</ele>
        <time>2013-06-09T11:13:43.000Z</time>
      </trkpt>
      <trkpt lat="47.28973" lon="6.12665">
        <ele>347.4</ele>
        <time>2013-06-09T11:13:47.000Z</time>
      </trkpt>
      <trkpt lat="47.28973" lon="6.12666">
        <ele>347.6</ele>
        <time>2013-06-09T11:13:48.000Z</time>
      </trkpt>
      <trkpt lat="47.28972" lon="6.12668">
        <ele>347.8</ele>
        <time>2013-06-09T11:13:49.000Z</time>
      </trkpt>
      <trkpt lat="47.28976" lon="6.12691">
        <ele>353.3</ele>
        <time>2013-06-09T11:14:06.000Z</time>
      </trkpt>
      <trkpt lat="47.28976" lon="6.12697">
        <ele>353.3</ele>
        <time>2013-06-09T11:14:18.000Z</time>
      </trkpt>
      <trkpt lat="47.28976" lon="6.12698">
        <ele>353.3</ele>
        <time>2013-06-09T11:14:19.000Z</time>
      </trkpt>
      <trkpt lat="47.28976" lon="6.12699">
        <ele>353.3</ele>
        <time>2013-06-09T11:14:20.000Z</time>
      </trkpt>
      <trkpt lat="47.28974" lon="6.12704">
        <ele>340.8</ele>
        <time>2013-06-09T11:14:21.000Z</time>
      </trkpt>
      <trkpt lat="47.28971" lon="6.12708">
        <ele>340.5</ele>
        <time>2013-06-09T11:14:22.000Z</time>
      </trkpt>
      <trkpt lat="47.28969" lon="6.12712">
        <ele>340.7</ele>
        <time>2013-06-09T11:14:23.000Z</time>
      </trkpt>
      <trkpt lat="47.28967" lon="6.12714">
        <ele>340.6</ele>
        <time>2013-06-09T11:14:24.000Z</time>
      </trkpt>
      <trkpt lat="47.28965" lon="6.12717">
        <ele>340.8</ele>
        <time>2013-06-09T11:14:25.000Z</time>
      </trkpt>
      <trkpt lat="47.28962" lon="6.12722">
        <ele>341</ele>
        <time>2013-06-09T11:14:27.000Z</time>
      </trkpt>
      <trkpt lat="47.2896" lon="6.12723">
        <ele>341.1</ele>
        <time>2013-06-09T11:14:28.000Z</time>
      </trkpt>
      <trkpt lat="47.28957" lon="6.12727">
        <ele>341.2</ele>
        <time>2013-06-09T11:14:30.000Z</time>
      </trkpt>
      <trkpt lat="47.28956" lon="6.12729">
        <ele>341.4</ele>
        <time>2013-06-09T11:14:31.000Z</time>
      </trkpt>
      <trkpt lat="47.28954" lon="6.12733">
        <ele>341.6</ele>
        <time>2013-06-09T11:14:33.000Z</time>
      </trkpt>
      <trkpt lat="47.28953" lon="6.12735">
        <ele>341.5</ele>
        <time>2013-06-09T11:14:34.000Z</time>
      </trkpt>
      <trkpt lat="47.28951" lon="6.12738">
        <ele>341.4</ele>
        <time>2013-06-09T11:14:36.000Z</time>
      </trkpt>
      <trkpt lat="47.2895" lon="6.1274">
        <ele>341.3</ele>
        <time>2013-06-09T11:14:37.000Z</time>
      </trkpt>
      <trkpt lat="47.28948" lon="6.12744">
        <ele>341</ele>
        <time>2013-06-09T11:14:40.000Z</time>
      </trkpt>
      <trkpt lat="47.28947" lon="6.12746">
        <ele>341.5</ele>
        <time>2013-06-09T11:14:41.000Z</time>
      </trkpt>
      <trkpt lat="47.28944" lon="6.12751">
        <ele>341.8</ele>
        <time>2013-06-09T11:14:45.000Z</time>
      </trkpt>
      <trkpt lat="47.28944" lon="6.12752">
        <ele>341.6</ele>
        <time>2013-06-09T11:14:46.000Z</time>
      </trkpt>
      <trkpt lat="47.28944" lon="6.12757">
        <ele>341.7</ele>
        <time>2013-06-09T11:14:49.000Z</time>
      </trkpt>
      <trkpt lat="47.28937" lon="6.12775">
        <ele>339.6</ele>
        <time>2013-06-09T11:15:07.000Z</time>
      </trkpt>
      <trkpt lat="47.28933" lon="6.12779">
        <ele>339.6</ele>
        <time>2013-06-09T11:15:21.000Z</time>
      </trkpt>
      <trkpt lat="47.28931" lon="6.12783">
        <ele>342.5</ele>
        <time>2013-06-09T11:15:22.000Z</time>
      </trkpt>
      <trkpt lat="47.28929" lon="6.12787">
        <ele>342.1</ele>
        <time>2013-06-09T11:15:23.000Z</time>
      </trkpt>
      <trkpt lat="47.28928" lon="6.1279">
        <ele>342.1</ele>
        <time>2013-06-09T11:15:24.000Z</time>
      </trkpt>
      <trkpt lat="47.28926" lon="6.12794">
        <ele>342.2</ele>
        <time>2013-06-09T11:15:25.000Z</time>
      </trkpt>
      <trkpt lat="47.28925" lon="6.12797">
        <ele>342.2</ele>
        <time>2013-06-09T11:15:26.000Z</time>
      </trkpt>
      <trkpt lat="47.28923" lon="6.12802">
        <ele>342.3</ele>
        <time>2013-06-09T11:15:28.000Z</time>
      </trkpt>
      <trkpt lat="47.28921" lon="6.12804">
        <ele>342.3</ele>
        <time>2013-06-09T11:15:29.000Z</time>
      </trkpt>
      <trkpt lat="47.28919" lon="6.12808">
        <ele>341.9</ele>
        <time>2013-06-09T11:15:31.000Z</time>
      </trkpt>
      <trkpt lat="47.28918" lon="6.1281">
        <ele>341.9</ele>
        <time>2013-06-09T11:15:32.000Z</time>
      </trkpt>
      <trkpt lat="47.28915" lon="6.12814">
        <ele>342</ele>
        <time>2013-06-09T11:15:34.000Z</time>
      </trkpt>
      <trkpt lat="47.28914" lon="6.12816">
        <ele>342</ele>
        <time>2013-06-09T11:15:35.000Z</time>
      </trkpt>
      <trkpt lat="47.28912" lon="6.12819">
        <ele>341.7</ele>
        <time>2013-06-09T11:15:37.000Z</time>
      </trkpt>
      <trkpt lat="47.28911" lon="6.12821">
        <ele>341.8</ele>
        <time>2013-06-09T11:15:38.000Z</time>
      </trkpt>
      <trkpt lat="47.28908" lon="6.12826">
        <ele>341.4</ele>
        <time>2013-06-09T11:15:41.000Z</time>
      </trkpt>
      <trkpt lat="47.28907" lon="6.12827">
        <ele>341.2</ele>
        <time>2013-06-09T11:15:42.000Z</time>
      </trkpt>
      <trkpt lat="47.28905" lon="6.12832">
        <ele>341.7</ele>
        <time>2013-06-09T11:15:45.000Z</time>
      </trkpt>
      <trkpt lat="47.28904" lon="6.12834">
        <ele>341.5</ele>
        <time>2013-06-09T11:15:46.000Z</time>
      </trkpt>
      <trkpt lat="47.28901" lon="6.12838">
        <ele>341.6</ele>
        <time>2013-06-09T11:15:49.000Z</time>
      </trkpt>
      <trkpt lat="47.289" lon="6.12839">
        <ele>341.6</ele>
        <time>2013-06-09T11:15:50.000Z</time>
      </trkpt>
      <trkpt lat="47.28896" lon="6.12843">
        <ele>341.1</ele>
        <time>2013-06-09T11:15:53.000Z</time>
      </trkpt>
      <trkpt lat="47.28895" lon="6.12844">
        <ele>341.2</ele>
        <time>2013-06-09T11:15:54.000Z</time>
      </trkpt>
      <trkpt lat="47.28892" lon="6.12846">
        <ele>340.2</ele>
        <time>2013-06-09T11:15:57.000Z</time>
      </trkpt>
      <trkpt lat="47.2889" lon="6.12847">
        <ele>340.1</ele>
        <time>2013-06-09T11:15:58.000Z</time>
      </trkpt>
      <trkpt lat="47.28886" lon="6.12849">
        <ele>339.6</ele>
        <time>2013-06-09T11:16:01.000Z</time>
      </trkpt>
      <trkpt lat="47.28885" lon="6.1285">
        <ele>339.4</ele>
        <time>2013-06-09T11:16:02.000Z</time>
      </trkpt>
      <trkpt lat="47.28882" lon="6.12852">
        <ele>339</ele>
        <time>2013-06-09T11:16:04.000Z</time>
      </trkpt>
      <trkpt lat="47.2888" lon="6.12853">
        <ele>338.8</ele>
        <time>2013-06-09T11:16:05.000Z</time>
      </trkpt>
      <trkpt lat="47.28877" lon="6.12855">
        <ele>338.9</ele>
        <time>2013-06-09T11:16:07.000Z</time>
      </trkpt>
      <trkpt lat="47.28876" lon="6.12856">
        <ele>338.9</ele>
        <time>2013-06-09T11:16:08.000Z</time>
      </trkpt>
      <trkpt lat="47.28873" lon="6.12858">
        <ele>336.2</ele>
        <time>2013-06-09T11:16:10.000Z</time>
      </trkpt>
      <trkpt lat="47.28872" lon="6.12859">
        <ele>335.3</ele>
        <time>2013-06-09T11:16:11.000Z</time>
      </trkpt>
      <trkpt lat="47.28869" lon="6.12861">
        <ele>333.8</ele>
        <time>2013-06-09T11:16:13.000Z</time>
      </trkpt>
      <trkpt lat="47.28867" lon="6.12862">
        <ele>333.1</ele>
        <time>2013-06-09T11:16:14.000Z</time>
      </trkpt>
      <trkpt lat="47.28863" lon="6.12864">
        <ele>331.7</ele>
        <time>2013-06-09T11:16:17.000Z</time>
      </trkpt>
      <trkpt lat="47.28862" lon="6.12864">
        <ele>331.6</ele>
        <time>2013-06-09T11:16:18.000Z</time>
      </trkpt>
      <trkpt lat="47.28858" lon="6.12868">
        <ele>332.6</ele>
        <time>2013-06-09T11:16:22.000Z</time>
      </trkpt>
      <trkpt lat="47.28857" lon="6.12868">
        <ele>332.4</ele>
        <time>2013-06-09T11:16:23.000Z</time>
      </trkpt>
      <trkpt lat="47.28861" lon="6.12866">
        <ele>330.1</ele>
        <time>2013-06-09T11:17:03.000Z</time>
      </trkpt>
      <trkpt lat="47.28861" lon="6.12864">
        <ele>329.6</ele>
        <time>2013-06-09T11:17:04.000Z</time>
      </trkpt>
      <trkpt lat="47.28864" lon="6.1286">
        <ele>326.5</ele>
        <time>2013-06-09T11:17:09.000Z</time>
      </trkpt>
      <trkpt lat="47.28865" lon="6.12859">
        <ele>326.1</ele>
        <time>2013-06-09T11:17:10.000Z</time>
      </trkpt>
      <trkpt lat="47.28868" lon="6.12857">
        <ele>325.9</ele>
        <time>2013-06-09T11:17:14.000Z</time>
      </trkpt>
      <trkpt lat="47.28869" lon="6.12856">
        <ele>326.1</ele>
        <time>2013-06-09T11:17:15.000Z</time>
      </trkpt>
      <trkpt lat="47.28873" lon="6.12853">
        <ele>326.8</ele>
        <time>2013-06-09T11:17:19.000Z</time>
      </trkpt>
      <trkpt lat="47.28874" lon="6.12852">
        <ele>327.1</ele>
        <time>2013-06-09T11:17:20.000Z</time>
      </trkpt>
      <trkpt lat="47.28877" lon="6.12849">
        <ele>327.8</ele>
        <time>2013-06-09T11:17:24.000Z</time>
      </trkpt>
      <trkpt lat="47.28878" lon="6.12848">
        <ele>327.7</ele>
        <time>2013-06-09T11:17:25.000Z</time>
      </trkpt>
      <trkpt lat="47.28882" lon="6.12846">
        <ele>328.1</ele>
        <time>2013-06-09T11:17:29.000Z</time>
      </trkpt>
      <trkpt lat="47.28883" lon="6.12845">
        <ele>328.3</ele>
        <time>2013-06-09T11:17:30.000Z</time>
      </trkpt>
      <trkpt lat="47.28886" lon="6.12843">
        <ele>329.6</ele>
        <time>2013-06-09T11:17:34.000Z</time>
      </trkpt>
      <trkpt lat="47.28887" lon="6.12842">
        <ele>329.8</ele>
        <time>2013-06-09T11:17:35.000Z</time>
      </trkpt>
      <trkpt lat="47.2889" lon="6.1284">
        <ele>330.4</ele>
        <time>2013-06-09T11:17:39.000Z</time>
      </trkpt>
      <trkpt lat="47.28891" lon="6.12839">
        <ele>330.4</ele>
        <time>2013-06-09T11:17:40.000Z</time>
      </trkpt>
      <trkpt lat="47.28894" lon="6.12836">
        <ele>330.7</ele>
        <time>2013-06-09T11:17:44.000Z</time>
      </trkpt>
      <trkpt lat="47.28895" lon="6.12835">
        <ele>330.6</ele>
        <time>2013-06-09T11:17:45.000Z</time>
      </trkpt>
      <trkpt lat="47.28899" lon="6.12832">
        <ele>330.1</ele>
        <time>2013-06-09T11:17:49.000Z</time>
      </trkpt>
      <trkpt lat="47.289" lon="6.12831">
        <ele>329.9</ele>
        <time>2013-06-09T11:17:50.000Z</time>
      </trkpt>
      <trkpt lat="47.28903" lon="6.12828">
        <ele>330</ele>
        <time>2013-06-09T11:17:54.000Z</time>
      </trkpt>
      <trkpt lat="47.28904" lon="6.12828">
        <ele>330.2</ele>
        <time>2013-06-09T11:17:55.000Z</time>
      </trkpt>
      <trkpt lat="47.28906" lon="6.12823">
        <ele>331.4</ele>
        <time>2013-06-09T11:17:59.000Z</time>
      </trkpt>
      <trkpt lat="47.28907" lon="6.12822">
        <ele>331.2</ele>
        <time>2013-06-09T11:18:00.000Z</time>
      </trkpt>
      <trkpt lat="47.2891" lon="6.12818">
        <ele>332.1</ele>
        <time>2013-06-09T11:18:04.000Z</time>
      </trkpt>
      <trkpt lat="47.2891" lon="6.12817">
        <ele>332.3</ele>
        <time>2013-06-09T11:18:05.000Z</time>
      </trkpt>
      <trkpt lat="47.28913" lon="6.12812">
        <ele>333.2</ele>
        <time>2013-06-09T11:18:09.000Z</time>
      </trkpt>
      <trkpt lat="47.28913" lon="6.12811">
        <ele>333.6</ele>
        <time>2013-06-09T11:18:10.000Z</time>
      </trkpt>
      <trkpt lat="47.28916" lon="6.12806">
        <ele>335.2</ele>
        <time>2013-06-09T11:18:14.000Z</time>
      </trkpt>
      <trkpt lat="47.28917" lon="6.12804">
        <ele>335.3</ele>
        <time>2013-06-09T11:18:15.000Z</time>
      </trkpt>
      <trkpt lat="47.28919" lon="6.128">
        <ele>335.7</ele>
        <time>2013-06-09T11:18:18.000Z</time>
      </trkpt>
      <trkpt lat="47.28919" lon="6.12799">
        <ele>336</ele>
        <time>2013-06-09T11:18:19.000Z</time>
      </trkpt>
      <trkpt lat="47.28922" lon="6.12795">
        <ele>336.6</ele>
        <time>2013-06-09T11:18:22.000Z</time>
      </trkpt>
      <trkpt lat="47.28922" lon="6.12793">
        <ele>336.7</ele>
        <time>2013-06-09T11:18:23.000Z</time>
      </trkpt>
      <trkpt lat="47.28925" lon="6.1279">
        <ele>337</ele>
        <time>2013-06-09T11:18:26.000Z</time>
      </trkpt>
      <trkpt lat="47.28926" lon="6.12789">
        <ele>336.8</ele>
        <time>2013-06-09T11:18:27.000Z</time>
      </trkpt>
      <trkpt lat="47.28929" lon="6.12785">
        <ele>335.7</ele>
        <time>2013-06-09T11:18:30.000Z</time>
      </trkpt>
      <trkpt lat="47.28929" lon="6.12784">
        <ele>336</ele>
        <time>2013-06-09T11:18:31.000Z</time>
      </trkpt>
      <trkpt lat="47.28932" lon="6.1278">
        <ele>336.9</ele>
        <time>2013-06-09T11:18:34.000Z</time>
      </trkpt>
      <trkpt lat="47.28933" lon="6.12779">
        <ele>337.1</ele>
        <time>2013-06-09T11:18:35.000Z</time>
      </trkpt>
      <trkpt lat="47.28936" lon="6.12776">
        <ele>337.6</ele>
        <time>2013-06-09T11:18:38.000Z</time>
      </trkpt>
      <trkpt lat="47.28937" lon="6.12775">
        <ele>337.8</ele>
        <time>2013-06-09T11:18:39.000Z</time>
      </trkpt>
      <trkpt lat="47.2894" lon="6.12771">
        <ele>338.1</ele>
        <time>2013-06-09T11:18:42.000Z</time>
      </trkpt>
      <trkpt lat="47.2894" lon="6.1277">
        <ele>338.3</ele>
        <time>2013-06-09T11:18:43.000Z</time>
      </trkpt>
      <trkpt lat="47.28942" lon="6.12765">
        <ele>339.1</ele>
        <time>2013-06-09T11:18:46.000Z</time>
      </trkpt>
      <trkpt lat="47.28942" lon="6.12764">
        <ele>339.6</ele>
        <time>2013-06-09T11:18:47.000Z</time>
      </trkpt>
      <trkpt lat="47.28946" lon="6.12761">
        <ele>340.4</ele>
        <time>2013-06-09T11:18:51.000Z</time>
      </trkpt>
      <trkpt lat="47.28947" lon="6.1276">
        <ele>340.4</ele>
        <time>2013-06-09T11:18:52.000Z</time>
      </trkpt>
      <trkpt lat="47.28951" lon="6.12757">
        <ele>341.2</ele>
        <time>2013-06-09T11:18:57.000Z</time>
      </trkpt>
      <trkpt lat="47.28951" lon="6.12756">
        <ele>341.3</ele>
        <time>2013-06-09T11:18:58.000Z</time>
      </trkpt>
      <trkpt lat="47.28954" lon="6.12753">
        <ele>341.4</ele>
        <time>2013-06-09T11:19:01.000Z</time>
      </trkpt>
      <trkpt lat="47.28955" lon="6.12751">
        <ele>341.4</ele>
        <time>2013-06-09T11:19:02.000Z</time>
      </trkpt>
      <trkpt lat="47.28956" lon="6.12747">
        <ele>341.1</ele>
        <time>2013-06-09T11:19:05.000Z</time>
      </trkpt>
      <trkpt lat="47.28957" lon="6.12745">
        <ele>340.8</ele>
        <time>2013-06-09T11:19:06.000Z</time>
      </trkpt>
      <trkpt lat="47.28958" lon="6.12739">
        <ele>340.6</ele>
        <time>2013-06-09T11:19:10.000Z</time>
      </trkpt>
      <trkpt lat="47.28959" lon="6.12738">
        <ele>341.2</ele>
        <time>2013-06-09T11:19:11.000Z</time>
      </trkpt>
      <trkpt lat="47.2896" lon="6.12733">
        <ele>342</ele>
        <time>2013-06-09T11:19:14.000Z</time>
      </trkpt>
      <trkpt lat="47.2896" lon="6.12731">
        <ele>341.8</ele>
        <time>2013-06-09T11:19:15.000Z</time>
      </trkpt>
      <trkpt lat="47.28961" lon="6.12726">
        <ele>341.6</ele>
        <time>2013-06-09T11:19:18.000Z</time>
      </trkpt>
      <trkpt lat="47.28962" lon="6.12724">
        <ele>341.5</ele>
        <time>2013-06-09T11:19:19.000Z</time>
      </trkpt>
      <trkpt lat="47.28963" lon="6.1272">
        <ele>341.7</ele>
        <time>2013-06-09T11:19:22.000Z</time>
      </trkpt>
      <trkpt lat="47.28963" lon="6.12718">
        <ele>341.9</ele>
        <time>2013-06-09T11:19:23.000Z</time>
      </trkpt>
      <trkpt lat="47.28964" lon="6.12713">
        <ele>342.3</ele>
        <time>2013-06-09T11:19:26.000Z</time>
      </trkpt>
      <trkpt lat="47.28965" lon="6.12711">
        <ele>342.4</ele>
        <time>2013-06-09T11:19:27.000Z</time>
      </trkpt>
      <trkpt lat="47.28966" lon="6.12706">
        <ele>342.8</ele>
        <time>2013-06-09T11:19:30.000Z</time>
      </trkpt>
      <trkpt lat="47.28967" lon="6.12704">
        <ele>343.2</ele>
        <time>2013-06-09T11:19:31.000Z</time>
      </trkpt>
      <trkpt lat="47.28968" lon="6.12699">
        <ele>344.1</ele>
        <time>2013-06-09T11:19:34.000Z</time>
      </trkpt>
      <trkpt lat="47.28968" lon="6.12697">
        <ele>344.3</ele>
        <time>2013-06-09T11:19:35.000Z</time>
      </trkpt>
      <trkpt lat="47.28969" lon="6.12692">
        <ele>345.7</ele>
        <time>2013-06-09T11:19:38.000Z</time>
      </trkpt>
      <trkpt lat="47.2897" lon="6.1269">
        <ele>346.2</ele>
        <time>2013-06-09T11:19:39.000Z</time>
      </trkpt>
      <trkpt lat="47.28971" lon="6.12685">
        <ele>346.8</ele>
        <time>2013-06-09T11:19:42.000Z</time>
      </trkpt>
      <trkpt lat="47.28972" lon="6.12684">
        <ele>347</ele>
        <time>2013-06-09T11:19:43.000Z</time>
      </trkpt>
      <trkpt lat="47.28974" lon="6.12678">
        <ele>347.5</ele>
        <time>2013-06-09T11:19:47.000Z</time>
      </trkpt>
      <trkpt lat="47.28974" lon="6.12676">
        <ele>347.4</ele>
        <time>2013-06-09T11:19:48.000Z</time>
      </trkpt>
      <trkpt lat="47.28976" lon="6.12672">
        <ele>346.3</ele>
        <time>2013-06-09T11:19:51.000Z</time>
      </trkpt>
      <trkpt lat="47.28976" lon="6.1267">
        <ele>346.4</ele>
        <time>2013-06-09T11:19:52.000Z</time>
      </trkpt>
      <trkpt lat="47.28976" lon="6.12665">
        <ele>346.4</ele>
        <time>2013-06-09T11:19:55.000Z</time>
      </trkpt>
      <trkpt lat="47.28977" lon="6.12663">
        <ele>346.6</ele>
        <time>2013-06-09T11:19:56.000Z</time>
      </trkpt>
      <trkpt lat="47.28977" lon="6.12658">
        <ele>347.4</ele>
        <time>2013-06-09T11:19:59.000Z</time>
      </trkpt>
      <trkpt lat="47.28977" lon="6.12656">
        <ele>347.4</ele>
        <time>2013-06-09T11:20:00.000Z</time>
      </trkpt>
      <trkpt lat="47.28978" lon="6.12651">
        <ele>347.6</ele>
        <time>2013-06-09T11:20:03.000Z</time>
      </trkpt>
      <trkpt lat="47.28979" lon="6.1265">
        <ele>347.4</ele>
        <time>2013-06-09T11:20:04.000Z</time>
      </trkpt>
      <trkpt lat="47.2898" lon="6.12644">
        <ele>347</ele>
        <time>2013-06-09T11:20:08.000Z</time>
      </trkpt>
      <trkpt lat="47.2898" lon="6.12643">
        <ele>347</ele>
        <time>2013-06-09T11:20:09.000Z</time>
      </trkpt>
      <trkpt lat="47.28981" lon="6.12636">
        <ele>347.1</ele>
        <time>2013-06-09T11:20:13.000Z</time>
      </trkpt>
      <trkpt lat="47.28981" lon="6.12635">
        <ele>347.3</ele>
        <time>2013-06-09T11:20:14.000Z</time>
      </trkpt>
      <trkpt lat="47.28981" lon="6.12628">
        <ele>347.6</ele>
        <time>2013-06-09T11:20:18.000Z</time>
      </trkpt>
      <trkpt lat="47.28982" lon="6.12627">
        <ele>347.8</ele>
        <time>2013-06-09T11:20:19.000Z</time>
      </trkpt>
      <trkpt lat="47.28984" lon="6.12621">
        <ele>347.5</ele>
        <time>2013-06-09T11:20:23.000Z</time>
      </trkpt>
      <trkpt lat="47.28984" lon="6.1262">
        <ele>347.3</ele>
        <time>2013-06-09T11:20:24.000Z</time>
      </trkpt>
      <trkpt lat="47.28986" lon="6.12615">
        <ele>347.8</ele>
        <time>2013-06-09T11:20:27.000Z</time>
      </trkpt>
      <trkpt lat="47.28987" lon="6.12614">
        <ele>348</ele>
        <time>2013-06-09T11:20:28.000Z</time>
      </trkpt>
      <trkpt lat="47.28988" lon="6.12609">
        <ele>348.4</ele>
        <time>2013-06-09T11:20:31.000Z</time>
      </trkpt>
      <trkpt lat="47.28989" lon="6.12608">
        <ele>348.4</ele>
        <time>2013-06-09T11:20:32.000Z</time>
      </trkpt>
      <trkpt lat="47.2899" lon="6.12603">
        <ele>349.1</ele>
        <time>2013-06-09T11:20:35.000Z</time>
      </trkpt>
      <trkpt lat="47.28991" lon="6.12601">
        <ele>349</ele>
        <time>2013-06-09T11:20:36.000Z</time>
      </trkpt>
      <trkpt lat="47.28992" lon="6.12596">
        <ele>348.9</ele>
        <time>2013-06-09T11:20:39.000Z</time>
      </trkpt>
      <trkpt lat="47.28993" lon="6.12595">
        <ele>348.7</ele>
        <time>2013-06-09T11:20:40.000Z</time>
      </trkpt>
      <trkpt lat="47.28994" lon="6.1259">
        <ele>349.2</ele>
        <time>2013-06-09T11:20:43.000Z</time>
      </trkpt>
      <trkpt lat="47.28995" lon="6.12589">
        <ele>349.3</ele>
        <time>2013-06-09T11:20:44.000Z</time>
      </trkpt>
      <trkpt lat="47.28997" lon="6.12584">
        <ele>349.4</ele>
        <time>2013-06-09T11:20:47.000Z</time>
      </trkpt>
      <trkpt lat="47.28998" lon="6.12583">
        <ele>349.5</ele>
        <time>2013-06-09T11:20:48.000Z</time>
      </trkpt>
      <trkpt lat="47.29" lon="6.12578">
        <ele>348.9</ele>
        <time>2013-06-09T11:20:51.000Z</time>
      </trkpt>
      <trkpt lat="47.29001" lon="6.12577">
        <ele>348.6</ele>
        <time>2013-06-09T11:20:52.000Z</time>
      </trkpt>
      <trkpt lat="47.29003" lon="6.12572">
        <ele>349.8</ele>
        <time>2013-06-09T11:20:55.000Z</time>
      </trkpt>
      <trkpt lat="47.29004" lon="6.12571">
        <ele>350.3</ele>
        <time>2013-06-09T11:20:56.000Z</time>
      </trkpt>
      <trkpt lat="47.29006" lon="6.12566">
        <ele>351.7</ele>
        <time>2013-06-09T11:20:59.000Z</time>
      </trkpt>
      <trkpt lat="47.29007" lon="6.12565">
        <ele>352.1</ele>
        <time>2013-06-09T11:21:00.000Z</time>
      </trkpt>
      <trkpt lat="47.29009" lon="6.12562">
        <ele>352.6</ele>
        <time>2013-06-09T11:21:03.000Z</time>
      </trkpt>
      <trkpt lat="47.2901" lon="6.1256">
        <ele>352.9</ele>
        <time>2013-06-09T11:21:04.000Z</time>
      </trkpt>
      <trkpt lat="47.29013" lon="6.12555">
        <ele>353.9</ele>
        <time>2013-06-09T11:21:08.000Z</time>
      </trkpt>
      <trkpt lat="47.29014" lon="6.12554">
        <ele>353.8</ele>
        <time>2013-06-09T11:21:09.000Z</time>
      </trkpt>
      <trkpt lat="47.29015" lon="6.1255">
        <ele>353.8</ele>
        <time>2013-06-09T11:21:12.000Z</time>
      </trkpt>
      <trkpt lat="47.29016" lon="6.12548">
        <ele>353.9</ele>
        <time>2013-06-09T11:21:13.000Z</time>
      </trkpt>
      <trkpt lat="47.29018" lon="6.12544">
        <ele>353.9</ele>
        <time>2013-06-09T11:21:16.000Z</time>
      </trkpt>
      <trkpt lat="47.29019" lon="6.12543">
        <ele>354.1</ele>
        <time>2013-06-09T11:21:17.000Z</time>
      </trkpt>
      <trkpt lat="47.29021" lon="6.12539">
        <ele>354.5</ele>
        <time>2013-06-09T11:21:20.000Z</time>
      </trkpt>
      <trkpt lat="47.29022" lon="6.12538">
        <ele>354</ele>
        <time>2013-06-09T11:21:21.000Z</time>
      </trkpt>
      <trkpt lat="47.29025" lon="6.12534">
        <ele>353.9</ele>
        <time>2013-06-09T11:21:24.000Z</time>
      </trkpt>
      <trkpt lat="47.29026" lon="6.12533">
        <ele>353.8</ele>
        <time>2013-06-09T11:21:25.000Z</time>
      </trkpt>
      <trkpt lat="47.29028" lon="6.12529">
        <ele>354</ele>
        <time>2013-06-09T11:21:28.000Z</time>
      </trkpt>
      <trkpt lat="47.29029" lon="6.12527">
        <ele>353.9</ele>
        <time>2013-06-09T11:21:29.000Z</time>
      </trkpt>
      <trkpt lat="47.29032" lon="6.12523">
        <ele>353.6</ele>
        <time>2013-06-09T11:21:32.000Z</time>
      </trkpt>
      <trkpt lat="47.29033" lon="6.12522">
        <ele>353.5</ele>
        <time>2013-06-09T11:21:33.000Z</time>
      </trkpt>
      <trkpt lat="47.29036" lon="6.12518">
        <ele>353.5</ele>
        <time>2013-06-09T11:21:36.000Z</time>
      </trkpt>
      <trkpt lat="47.29037" lon="6.12517">
        <ele>354</ele>
        <time>2013-06-09T11:21:37.000Z</time>
      </trkpt>
      <trkpt lat="47.29039" lon="6.12512">
        <ele>354.2</ele>
        <time>2013-06-09T11:21:40.000Z</time>
      </trkpt>
      <trkpt lat="47.2904" lon="6.12511">
        <ele>354.5</ele>
        <time>2013-06-09T11:21:41.000Z</time>
      </trkpt>
      <trkpt lat="47.29044" lon="6.12507">
        <ele>354.5</ele>
        <time>2013-06-09T11:21:44.000Z</time>
      </trkpt>
      <trkpt lat="47.29045" lon="6.12506">
        <ele>354.5</ele>
        <time>2013-06-09T11:21:45.000Z</time>
      </trkpt>
      <trkpt lat="47.29048" lon="6.12502">
        <ele>355.2</ele>
        <time>2013-06-09T11:21:48.000Z</time>
      </trkpt>
      <trkpt lat="47.29048" lon="6.12501">
        <ele>355.5</ele>
        <time>2013-06-09T11:21:49.000Z</time>
      </trkpt>
      <trkpt lat="47.29054" lon="6.12498">
        <ele>358.6</ele>
        <time>2013-06-09T11:22:07.000Z</time>
      </trkpt>
      <trkpt lat="47.29056" lon="6.12494">
        <ele>358.6</ele>
        <time>2013-06-09T11:22:19.000Z</time>
      </trkpt>
      <trkpt lat="47.29062" lon="6.1249">
        <ele>358.5</ele>
        <time>2013-06-09T11:22:20.000Z</time>
      </trkpt>
      <trkpt lat="47.29068" lon="6.12487">
        <ele>358</ele>
        <time>2013-06-09T11:22:21.000Z</time>
      </trkpt>
      <trkpt lat="47.29072" lon="6.12485">
        <ele>357.8</ele>
        <time>2013-06-09T11:22:22.000Z</time>
      </trkpt>
      <trkpt lat="47.29075" lon="6.12483">
        <ele>357.7</ele>
        <time>2013-06-09T11:22:23.000Z</time>
      </trkpt>
      <trkpt lat="47.29079" lon="6.12481">
        <ele>358</ele>
        <time>2013-06-09T11:22:24.000Z</time>
      </trkpt>
      <trkpt lat="47.29082" lon="6.1248">
        <ele>357.7</ele>
        <time>2013-06-09T11:22:25.000Z</time>
      </trkpt>
      <trkpt lat="47.29084" lon="6.12479">
        <ele>357.6</ele>
        <time>2013-06-09T11:22:26.000Z</time>
      </trkpt>
      <trkpt lat="47.29087" lon="6.12478">
        <ele>357.3</ele>
        <time>2013-06-09T11:22:27.000Z</time>
      </trkpt>
      <trkpt lat="47.29089" lon="6.12477">
        <ele>357.1</ele>
        <time>2013-06-09T11:22:28.000Z</time>
      </trkpt>
      <trkpt lat="47.29093" lon="6.12475">
        <ele>356.8</ele>
        <time>2013-06-09T11:22:30.000Z</time>
      </trkpt>
      <trkpt lat="47.29095" lon="6.12474">
        <ele>356.7</ele>
        <time>2013-06-09T11:22:31.000Z</time>
      </trkpt>
      <trkpt lat="47.29098" lon="6.12473">
        <ele>356.4</ele>
        <time>2013-06-09T11:22:33.000Z</time>
      </trkpt>
      <trkpt lat="47.29099" lon="6.12473">
        <ele>356.4</ele>
        <time>2013-06-09T11:22:34.000Z</time>
      </trkpt>
      <trkpt lat="47.29103" lon="6.12472">
        <ele>356.3</ele>
        <time>2013-06-09T11:22:36.000Z</time>
      </trkpt>
      <trkpt lat="47.29104" lon="6.12471">
        <ele>354.9</ele>
        <time>2013-06-09T11:22:37.000Z</time>
      </trkpt>
      <trkpt lat="47.29107" lon="6.1247">
        <ele>354.5</ele>
        <time>2013-06-09T11:22:39.000Z</time>
      </trkpt>
      <trkpt lat="47.29109" lon="6.12469">
        <ele>354.3</ele>
        <time>2013-06-09T11:22:40.000Z</time>
      </trkpt>
      <trkpt lat="47.29112" lon="6.12468">
        <ele>354.2</ele>
        <time>2013-06-09T11:22:42.000Z</time>
      </trkpt>
      <trkpt lat="47.29113" lon="6.12467">
        <ele>354.5</ele>
        <time>2013-06-09T11:22:43.000Z</time>
      </trkpt>
      <trkpt lat="47.29116" lon="6.12467">
        <ele>354.8</ele>
        <time>2013-06-09T11:22:45.000Z</time>
      </trkpt>
      <trkpt lat="47.29118" lon="6.12466">
        <ele>355</ele>
        <time>2013-06-09T11:22:46.000Z</time>
      </trkpt>
      <trkpt lat="47.29122" lon="6.12465">
        <ele>355.3</ele>
        <time>2013-06-09T11:22:49.000Z</time>
      </trkpt>
      <trkpt lat="47.29123" lon="6.12464">
        <ele>355.3</ele>
        <time>2013-06-09T11:22:50.000Z</time>
      </trkpt>
      <trkpt lat="47.29127" lon="6.12463">
        <ele>355.8</ele>
        <time>2013-06-09T11:22:53.000Z</time>
      </trkpt>
      <trkpt lat="47.29128" lon="6.12463">
        <ele>355.8</ele>
        <time>2013-06-09T11:22:54.000Z</time>
      </trkpt>
      <trkpt lat="47.29132" lon="6.12462">
        <ele>356.2</ele>
        <time>2013-06-09T11:22:57.000Z</time>
      </trkpt>
      <trkpt lat="47.29133" lon="6.12462">
        <ele>356.1</ele>
        <time>2013-06-09T11:22:58.000Z</time>
      </trkpt>
      <trkpt lat="47.29137" lon="6.12461">
        <ele>356.6</ele>
        <time>2013-06-09T11:23:01.000Z</time>
      </trkpt>
      <trkpt lat="47.29138" lon="6.1246">
        <ele>356.4</ele>
        <time>2013-06-09T11:23:02.000Z</time>
      </trkpt>
      <trkpt lat="47.29141" lon="6.12459">
        <ele>355.8</ele>
        <time>2013-06-09T11:23:05.000Z</time>
      </trkpt>
      <trkpt lat="47.29143" lon="6.12458">
        <ele>355.7</ele>
        <time>2013-06-09T11:23:06.000Z</time>
      </trkpt>
      <trkpt lat="47.29146" lon="6.12457">
        <ele>355.3</ele>
        <time>2013-06-09T11:23:09.000Z</time>
      </trkpt>
      <trkpt lat="47.29148" lon="6.12457">
        <ele>355.2</ele>
        <time>2013-06-09T11:23:10.000Z</time>
      </trkpt>
      <trkpt lat="47.29151" lon="6.12456">
        <ele>355.3</ele>
        <time>2013-06-09T11:23:13.000Z</time>
      </trkpt>
      <trkpt lat="47.29153" lon="6.12456">
        <ele>355.2</ele>
        <time>2013-06-09T11:23:14.000Z</time>
      </trkpt>
      <trkpt lat="47.29156" lon="6.12455">
        <ele>355.1</ele>
        <time>2013-06-09T11:23:17.000Z</time>
      </trkpt>
      <trkpt lat="47.29157" lon="6.12455">
        <ele>355.4</ele>
        <time>2013-06-09T11:23:18.000Z</time>
      </trkpt>
      <trkpt lat="47.29161" lon="6.12454">
        <ele>355.5</ele>
        <time>2013-06-09T11:23:21.000Z</time>
      </trkpt>
      <trkpt lat="47.29162" lon="6.12454">
        <ele>355.5</ele>
        <time>2013-06-09T11:23:22.000Z</time>
      </trkpt>
      <trkpt lat="47.29166" lon="6.12452">
        <ele>356.2</ele>
        <time>2013-06-09T11:23:25.000Z</time>
      </trkpt>
      <trkpt lat="47.29167" lon="6.12452">
        <ele>356.4</ele>
        <time>2013-06-09T11:23:26.000Z</time>
      </trkpt>
      <trkpt lat="47.2917" lon="6.1245">
        <ele>356.3</ele>
        <time>2013-06-09T11:23:29.000Z</time>
      </trkpt>
      <trkpt lat="47.29172" lon="6.1245">
        <ele>356.3</ele>
        <time>2013-06-09T11:23:30.000Z</time>
      </trkpt>
      <trkpt lat="47.29175" lon="6.12449">
        <ele>356.6</ele>
        <time>2013-06-09T11:23:33.000Z</time>
      </trkpt>
      <trkpt lat="47.29176" lon="6.12449">
        <ele>356.7</ele>
        <time>2013-06-09T11:23:34.000Z</time>
      </trkpt>
      <trkpt lat="47.2918" lon="6.12448">
        <ele>357.2</ele>
        <time>2013-06-09T11:23:37.000Z</time>
      </trkpt>
      <trkpt lat="47.29181" lon="6.12448">
        <ele>357.5</ele>
        <time>2013-06-09T11:23:38.000Z</time>
      </trkpt>
      <trkpt lat="47.29184" lon="6.12447">
        <ele>358.1</ele>
        <time>2013-06-09T11:23:40.000Z</time>
      </trkpt>
      <trkpt lat="47.29185" lon="6.12447">
        <ele>358.5</ele>
        <time>2013-06-09T11:23:41.000Z</time>
      </trkpt>
      <trkpt lat="47.2919" lon="6.12447">
        <ele>359.2</ele>
        <time>2013-06-09T11:23:45.000Z</time>
      </trkpt>
      <trkpt lat="47.29191" lon="6.12447">
        <ele>359.1</ele>
        <time>2013-06-09T11:23:46.000Z</time>
      </trkpt>
      <trkpt lat="47.29195" lon="6.12446">
        <ele>360</ele>
        <time>2013-06-09T11:23:50.000Z</time>
      </trkpt>
      <trkpt lat="47.29196" lon="6.12446">
        <ele>360.2</ele>
        <time>2013-06-09T11:23:51.000Z</time>
      </trkpt>
      <trkpt lat="47.292" lon="6.12445">
        <ele>361</ele>
        <time>2013-06-09T11:23:55.000Z</time>
      </trkpt>
      <trkpt lat="47.29201" lon="6.12444">
        <ele>361.3</ele>
        <time>2013-06-09T11:23:56.000Z</time>
      </trkpt>
      <trkpt lat="47.29205" lon="6.12443">
        <ele>361.3</ele>
        <time>2013-06-09T11:24:00.000Z</time>
      </trkpt>
      <trkpt lat="47.29206" lon="6.12442">
        <ele>361.2</ele>
        <time>2013-06-09T11:24:01.000Z</time>
      </trkpt>
      <trkpt lat="47.2921" lon="6.1244">
        <ele>361.2</ele>
        <time>2013-06-09T11:24:05.000Z</time>
      </trkpt>
      <trkpt lat="47.29211" lon="6.12439">
        <ele>360.8</ele>
        <time>2013-06-09T11:24:06.000Z</time>
      </trkpt>
      <trkpt lat="47.29215" lon="6.12439">
        <ele>360.6</ele>
        <time>2013-06-09T11:24:09.000Z</time>
      </trkpt>
      <trkpt lat="47.29216" lon="6.12439">
        <ele>360.7</ele>
        <time>2013-06-09T11:24:10.000Z</time>
      </trkpt>
      <trkpt lat="47.2922" lon="6.12439">
        <ele>361.3</ele>
        <time>2013-06-09T11:24:13.000Z</time>
      </trkpt>
      <trkpt lat="47.29221" lon="6.12439">
        <ele>361.3</ele>
        <time>2013-06-09T11:24:14.000Z</time>
      </trkpt>
      <trkpt lat="47.29224" lon="6.1244">
        <ele>361.9</ele>
        <time>2013-06-09T11:24:17.000Z</time>
      </trkpt>
      <trkpt lat="47.29226" lon="6.1244">
        <ele>361.9</ele>
        <time>2013-06-09T11:24:18.000Z</time>
      </trkpt>
      <trkpt lat="47.29229" lon="6.12441">
        <ele>362.6</ele>
        <time>2013-06-09T11:24:21.000Z</time>
      </trkpt>
      <trkpt lat="47.2923" lon="6.12441">
        <ele>362.7</ele>
        <time>2013-06-09T11:24:22.000Z</time>
      </trkpt>
      <trkpt lat="47.29234" lon="6.12441">
        <ele>363.2</ele>
        <time>2013-06-09T11:24:25.000Z</time>
      </trkpt>
      <trkpt lat="47.29235" lon="6.12441">
        <ele>363.3</ele>
        <time>2013-06-09T11:24:26.000Z</time>
      </trkpt>
      <trkpt lat="47.29239" lon="6.12441">
        <ele>363.5</ele>
        <time>2013-06-09T11:24:29.000Z</time>
      </trkpt>
      <trkpt lat="47.2924" lon="6.12441">
        <ele>363.8</ele>
        <time>2013-06-09T11:24:30.000Z</time>
      </trkpt>
      <trkpt lat="47.29244" lon="6.12442">
        <ele>364</ele>
        <time>2013-06-09T11:24:33.000Z</time>
      </trkpt>
      <trkpt lat="47.29245" lon="6.12443">
        <ele>364.3</ele>
        <time>2013-06-09T11:24:34.000Z</time>
      </trkpt>
      <trkpt lat="47.29249" lon="6.12443">
        <ele>365.2</ele>
        <time>2013-06-09T11:24:37.000Z</time>
      </trkpt>
      <trkpt lat="47.29251" lon="6.12443">
        <ele>365.3</ele>
        <time>2013-06-09T11:24:38.000Z</time>
      </trkpt>
      <trkpt lat="47.29255" lon="6.12443">
        <ele>365.9</ele>
        <time>2013-06-09T11:24:41.000Z</time>
      </trkpt>
      <trkpt lat="47.29256" lon="6.12444">
        <ele>366.2</ele>
        <time>2013-06-09T11:24:42.000Z</time>
      </trkpt>
      <trkpt lat="47.2926" lon="6.12443">
        <ele>366.8</ele>
        <time>2013-06-09T11:24:45.000Z</time>
      </trkpt>
      <trkpt lat="47.29261" lon="6.12443">
        <ele>367.1</ele>
        <time>2013-06-09T11:24:46.000Z</time>
      </trkpt>
      <trkpt lat="47.29265" lon="6.12442">
        <ele>367.7</ele>
        <time>2013-06-09T11:24:49.000Z</time>
      </trkpt>
      <trkpt lat="47.29266" lon="6.12441">
        <ele>367.8</ele>
        <time>2013-06-09T11:24:50.000Z</time>
      </trkpt>
      <trkpt lat="47.2927" lon="6.12438">
        <ele>367.4</ele>
        <time>2013-06-09T11:24:54.000Z</time>
      </trkpt>
      <trkpt lat="47.29271" lon="6.12437">
        <ele>367.4</ele>
        <time>2013-06-09T11:24:55.000Z</time>
      </trkpt>
      <trkpt lat="47.29273" lon="6.12434">
        <ele>367.6</ele>
        <time>2013-06-09T11:24:58.000Z</time>
      </trkpt>
      <trkpt lat="47.29274" lon="6.12433">
        <ele>367.8</ele>
        <time>2013-06-09T11:24:59.000Z</time>
      </trkpt>
      <trkpt lat="47.29277" lon="6.12428">
        <ele>367.9</ele>
        <time>2013-06-09T11:25:03.000Z</time>
      </trkpt>
      <trkpt lat="47.29278" lon="6.12428">
        <ele>368</ele>
        <time>2013-06-09T11:25:04.000Z</time>
      </trkpt>
      <trkpt lat="47.29281" lon="6.12422">
        <ele>368</ele>
        <time>2013-06-09T11:25:08.000Z</time>
      </trkpt>
      <trkpt lat="47.29282" lon="6.12421">
        <ele>368.2</ele>
        <time>2013-06-09T11:25:09.000Z</time>
      </trkpt>
      <trkpt lat="47.29284" lon="6.12416">
        <ele>368.3</ele>
        <time>2013-06-09T11:25:13.000Z</time>
      </trkpt>
      <trkpt lat="47.29285" lon="6.12415">
        <ele>368.1</ele>
        <time>2013-06-09T11:25:14.000Z</time>
      </trkpt>
      <trkpt lat="47.29287" lon="6.12409">
        <ele>368.9</ele>
        <time>2013-06-09T11:25:18.000Z</time>
      </trkpt>
      <trkpt lat="47.29288" lon="6.12408">
        <ele>368</ele>
        <time>2013-06-09T11:25:19.000Z</time>
      </trkpt>
      <trkpt lat="47.2929" lon="6.12404">
        <ele>368</ele>
        <time>2013-06-09T11:25:22.000Z</time>
      </trkpt>
      <trkpt lat="47.29291" lon="6.12402">
        <ele>367.9</ele>
        <time>2013-06-09T11:25:23.000Z</time>
      </trkpt>
      <trkpt lat="47.29293" lon="6.12398">
        <ele>368.2</ele>
        <time>2013-06-09T11:25:26.000Z</time>
      </trkpt>
      <trkpt lat="47.29293" lon="6.12396">
        <ele>368.1</ele>
        <time>2013-06-09T11:25:27.000Z</time>
      </trkpt>
      <trkpt lat="47.29294" lon="6.12391">
        <ele>367.4</ele>
        <time>2013-06-09T11:25:30.000Z</time>
      </trkpt>
      <trkpt lat="47.29294" lon="6.1239">
        <ele>367.1</ele>
        <time>2013-06-09T11:25:31.000Z</time>
      </trkpt>
      <trkpt lat="47.29295" lon="6.12384">
        <ele>367.8</ele>
        <time>2013-06-09T11:25:34.000Z</time>
      </trkpt>
      <trkpt lat="47.29296" lon="6.12382">
        <ele>368.2</ele>
        <time>2013-06-09T11:25:35.000Z</time>
      </trkpt>
      <trkpt lat="47.29297" lon="6.12377">
        <ele>369.3</ele>
        <time>2013-06-09T11:25:38.000Z</time>
      </trkpt>
      <trkpt lat="47.29297" lon="6.12375">
        <ele>369.8</ele>
        <time>2013-06-09T11:25:39.000Z</time>
      </trkpt>
      <trkpt lat="47.29299" lon="6.1237">
        <ele>370.1</ele>
        <time>2013-06-09T11:25:42.000Z</time>
      </trkpt>
      <trkpt lat="47.293" lon="6.12368">
        <ele>370.3</ele>
        <time>2013-06-09T11:25:43.000Z</time>
      </trkpt>
      <trkpt lat="47.29303" lon="6.12364">
        <ele>370.8</ele>
        <time>2013-06-09T11:25:46.000Z</time>
      </trkpt>
      <trkpt lat="47.29304" lon="6.12363">
        <ele>370.7</ele>
        <time>2013-06-09T11:25:47.000Z</time>
      </trkpt>
      <trkpt lat="47.29307" lon="6.12359">
        <ele>371.9</ele>
        <time>2013-06-09T11:25:50.000Z</time>
      </trkpt>
      <trkpt lat="47.29308" lon="6.12358">
        <ele>372.7</ele>
        <time>2013-06-09T11:25:51.000Z</time>
      </trkpt>
      <trkpt lat="47.29312" lon="6.12355">
        <ele>374.8</ele>
        <time>2013-06-09T11:25:54.000Z</time>
      </trkpt>
      <trkpt lat="47.29313" lon="6.12354">
        <ele>375.4</ele>
        <time>2013-06-09T11:25:55.000Z</time>
      </trkpt>
      <trkpt lat="47.29317" lon="6.12352">
        <ele>375.8</ele>
        <time>2013-06-09T11:25:58.000Z</time>
      </trkpt>
      <trkpt lat="47.29318" lon="6.12351">
        <ele>375.9</ele>
        <time>2013-06-09T11:25:59.000Z</time>
      </trkpt>
      <trkpt lat="47.29321" lon="6.12348">
        <ele>375.7</ele>
        <time>2013-06-09T11:26:02.000Z</time>
      </trkpt>
      <trkpt lat="47.29322" lon="6.12347">
        <ele>375.9</ele>
        <time>2013-06-09T11:26:03.000Z</time>
      </trkpt>
      <trkpt lat="47.29326" lon="6.12345">
        <ele>376.1</ele>
        <time>2013-06-09T11:26:06.000Z</time>
      </trkpt>
      <trkpt lat="47.29327" lon="6.12344">
        <ele>376.3</ele>
        <time>2013-06-09T11:26:07.000Z</time>
      </trkpt>
      <trkpt lat="47.29331" lon="6.12341">
        <ele>376.7</ele>
        <time>2013-06-09T11:26:10.000Z</time>
      </trkpt>
      <trkpt lat="47.29332" lon="6.1234">
        <ele>376.8</ele>
        <time>2013-06-09T11:26:11.000Z</time>
      </trkpt>
      <trkpt lat="47.29336" lon="6.12338">
        <ele>377.5</ele>
        <time>2013-06-09T11:26:14.000Z</time>
      </trkpt>
      <trkpt lat="47.29337" lon="6.12337">
        <ele>377.9</ele>
        <time>2013-06-09T11:26:15.000Z</time>
      </trkpt>
      <trkpt lat="47.2934" lon="6.12334">
        <ele>379.8</ele>
        <time>2013-06-09T11:26:18.000Z</time>
      </trkpt>
      <trkpt lat="47.29341" lon="6.12333">
        <ele>380.1</ele>
        <time>2013-06-09T11:26:19.000Z</time>
      </trkpt>
      <trkpt lat="47.29345" lon="6.1233">
        <ele>380.1</ele>
        <time>2013-06-09T11:26:22.000Z</time>
      </trkpt>
      <trkpt lat="47.29346" lon="6.12329">
        <ele>380.1</ele>
        <time>2013-06-09T11:26:23.000Z</time>
      </trkpt>
      <trkpt lat="47.29349" lon="6.12325">
        <ele>381.4</ele>
        <time>2013-06-09T11:26:26.000Z</time>
      </trkpt>
      <trkpt lat="47.2935" lon="6.12324">
        <ele>381.6</ele>
        <time>2013-06-09T11:26:27.000Z</time>
      </trkpt>
      <trkpt lat="47.29353" lon="6.12321">
        <ele>382.1</ele>
        <time>2013-06-09T11:26:30.000Z</time>
      </trkpt>
      <trkpt lat="47.29354" lon="6.1232">
        <ele>382.2</ele>
        <time>2013-06-09T11:26:31.000Z</time>
      </trkpt>
      <trkpt lat="47.29358" lon="6.12317">
        <ele>382.1</ele>
        <time>2013-06-09T11:26:34.000Z</time>
      </trkpt>
      <trkpt lat="47.29359" lon="6.12315">
        <ele>382.2</ele>
        <time>2013-06-09T11:26:35.000Z</time>
      </trkpt>
      <trkpt lat="47.29362" lon="6.12312">
        <ele>383.1</ele>
        <time>2013-06-09T11:26:38.000Z</time>
      </trkpt>
      <trkpt lat="47.29363" lon="6.12311">
        <ele>383.1</ele>
        <time>2013-06-09T11:26:39.000Z</time>
      </trkpt>
      <trkpt lat="47.29366" lon="6.12308">
        <ele>384</ele>
        <time>2013-06-09T11:26:42.000Z</time>
      </trkpt>
      <trkpt lat="47.29367" lon="6.12307">
        <ele>384.2</ele>
        <time>2013-06-09T11:26:43.000Z</time>
      </trkpt>
      <trkpt lat="47.2937" lon="6.12304">
        <ele>384.8</ele>
        <time>2013-06-09T11:26:46.000Z</time>
      </trkpt>
      <trkpt lat="47.29372" lon="6.12303">
        <ele>385.1</ele>
        <time>2013-06-09T11:26:47.000Z</time>
      </trkpt>
      <trkpt lat="47.29373" lon="6.12302">
        <ele>385.4</ele>
        <time>2013-06-09T11:26:48.000Z</time>
      </trkpt>
      <trkpt lat="47.29377" lon="6.123">
        <ele>370.8</ele>
        <time>2013-06-09T11:27:00.000Z</time>
      </trkpt>
      <trkpt lat="47.29381" lon="6.12295">
        <ele>370.8</ele>
        <time>2013-06-09T11:27:16.000Z</time>
      </trkpt>
      <trkpt lat="47.29381" lon="6.12295">
        <ele>370.8</ele>
        <time>2013-06-09T11:27:17.000Z</time>
      </trkpt>
      <trkpt lat="47.29388" lon="6.1229">
        <ele>373.8</ele>
        <time>2013-06-09T11:27:18.000Z</time>
      </trkpt>
      <trkpt lat="47.29392" lon="6.12287">
        <ele>373.6</ele>
        <time>2013-06-09T11:27:19.000Z</time>
      </trkpt>
      <trkpt lat="47.29396" lon="6.12284">
        <ele>373.4</ele>
        <time>2013-06-09T11:27:20.000Z</time>
      </trkpt>
      <trkpt lat="47.294" lon="6.12282">
        <ele>373.3</ele>
        <time>2013-06-09T11:27:21.000Z</time>
      </trkpt>
      <trkpt lat="47.29403" lon="6.1228">
        <ele>373.1</ele>
        <time>2013-06-09T11:27:22.000Z</time>
      </trkpt>
      <trkpt lat="47.29406" lon="6.12278">
        <ele>373</ele>
        <time>2013-06-09T11:27:23.000Z</time>
      </trkpt>
      <trkpt lat="47.29409" lon="6.12276">
        <ele>372.9</ele>
        <time>2013-06-09T11:27:24.000Z</time>
      </trkpt>
      <trkpt lat="47.29411" lon="6.12274">
        <ele>372.8</ele>
        <time>2013-06-09T11:27:25.000Z</time>
      </trkpt>
      <trkpt lat="47.29414" lon="6.12273">
        <ele>372.7</ele>
        <time>2013-06-09T11:27:26.000Z</time>
      </trkpt>
      <trkpt lat="47.29416" lon="6.12271">
        <ele>372.7</ele>
        <time>2013-06-09T11:27:27.000Z</time>
      </trkpt>
      <trkpt lat="47.29418" lon="6.1227">
        <ele>372.7</ele>
        <time>2013-06-09T11:27:28.000Z</time>
      </trkpt>
      <trkpt lat="47.29422" lon="6.12267">
        <ele>372.7</ele>
        <time>2013-06-09T11:27:30.000Z</time>
      </trkpt>
      <trkpt lat="47.29424" lon="6.12266">
        <ele>372.7</ele>
        <time>2013-06-09T11:27:31.000Z</time>
      </trkpt>
      <trkpt lat="47.29428" lon="6.12264">
        <ele>372.5</ele>
        <time>2013-06-09T11:27:33.000Z</time>
      </trkpt>
      <trkpt lat="47.29429" lon="6.12263">
        <ele>372.5</ele>
        <time>2013-06-09T11:27:34.000Z</time>
      </trkpt>
      <trkpt lat="47.29432" lon="6.12261">
        <ele>372.3</ele>
        <time>2013-06-09T11:27:36.000Z</time>
      </trkpt>
      <trkpt lat="47.29433" lon="6.12259">
        <ele>372.2</ele>
        <time>2013-06-09T11:27:37.000Z</time>
      </trkpt>
      <trkpt lat="47.29437" lon="6.12256">
        <ele>371.9</ele>
        <time>2013-06-09T11:27:40.000Z</time>
      </trkpt>
      <trkpt lat="47.29438" lon="6.12255">
        <ele>371.9</ele>
        <time>2013-06-09T11:27:41.000Z</time>
      </trkpt>
      <trkpt lat="47.29442" lon="6.12252">
        <ele>372</ele>
        <time>2013-06-09T11:27:44.000Z</time>
      </trkpt>
      <trkpt lat="47.29443" lon="6.12251">
        <ele>372.1</ele>
        <time>2013-06-09T11:27:45.000Z</time>
      </trkpt>
      <trkpt lat="47.29447" lon="6.12247">
        <ele>372.3</ele>
        <time>2013-06-09T11:27:48.000Z</time>
      </trkpt>
      <trkpt lat="47.29448" lon="6.12246">
        <ele>372.5</ele>
        <time>2013-06-09T11:27:49.000Z</time>
      </trkpt>
      <trkpt lat="47.29452" lon="6.12243">
        <ele>372.4</ele>
        <time>2013-06-09T11:27:52.000Z</time>
      </trkpt>
      <trkpt lat="47.29453" lon="6.12242">
        <ele>372.3</ele>
        <time>2013-06-09T11:27:53.000Z</time>
      </trkpt>
      <trkpt lat="47.29456" lon="6.12239">
        <ele>372.2</ele>
        <time>2013-06-09T11:27:56.000Z</time>
      </trkpt>
      <trkpt lat="47.29457" lon="6.12238">
        <ele>372.3</ele>
        <time>2013-06-09T11:27:57.000Z</time>
      </trkpt>
      <trkpt lat="47.29461" lon="6.12236">
        <ele>372.2</ele>
        <time>2013-06-09T11:28:00.000Z</time>
      </trkpt>
      <trkpt lat="47.29462" lon="6.12235">
        <ele>372.3</ele>
        <time>2013-06-09T11:28:01.000Z</time>
      </trkpt>
      <trkpt lat="47.29465" lon="6.12232">
        <ele>373.3</ele>
        <time>2013-06-09T11:28:04.000Z</time>
      </trkpt>
      <trkpt lat="47.29466" lon="6.12231">
        <ele>373.5</ele>
        <time>2013-06-09T11:28:05.000Z</time>
      </trkpt>
      <trkpt lat="47.2947" lon="6.12228">
        <ele>374.2</ele>
        <time>2013-06-09T11:28:08.000Z</time>
      </trkpt>
      <trkpt lat="47.29471" lon="6.12227">
        <ele>374.4</ele>
        <time>2013-06-09T11:28:09.000Z</time>
      </trkpt>
      <trkpt lat="47.29474" lon="6.12225">
        <ele>375.2</ele>
        <time>2013-06-09T11:28:12.000Z</time>
      </trkpt>
      <trkpt lat="47.29475" lon="6.12224">
        <ele>375.8</ele>
        <time>2013-06-09T11:28:13.000Z</time>
      </trkpt>
      <trkpt lat="47.29478" lon="6.12221">
        <ele>376.5</ele>
        <time>2013-06-09T11:28:16.000Z</time>
      </trkpt>
      <trkpt lat="47.29479" lon="6.1222">
        <ele>376.6</ele>
        <time>2013-06-09T11:28:17.000Z</time>
      </trkpt>
      <trkpt lat="47.29482" lon="6.12217">
        <ele>377</ele>
        <time>2013-06-09T11:28:20.000Z</time>
      </trkpt>
      <trkpt lat="47.29483" lon="6.12216">
        <ele>377.1</ele>
        <time>2013-06-09T11:28:21.000Z</time>
      </trkpt>
      <trkpt lat="47.29487" lon="6.12213">
        <ele>377.3</ele>
        <time>2013-06-09T11:28:24.000Z</time>
      </trkpt>
      <trkpt lat="47.29488" lon="6.12212">
        <ele>377.4</ele>
        <time>2013-06-09T11:28:25.000Z</time>
      </trkpt>
      <trkpt lat="47.29491" lon="6.12209">
        <ele>377.6</ele>
        <time>2013-06-09T11:28:28.000Z</time>
      </trkpt>
      <trkpt lat="47.29492" lon="6.12209">
        <ele>377.7</ele>
        <time>2013-06-09T11:28:29.000Z</time>
      </trkpt>
      <trkpt lat="47.29496" lon="6.12206">
        <ele>377.8</ele>
        <time>2013-06-09T11:28:32.000Z</time>
      </trkpt>
      <trkpt lat="47.29497" lon="6.12205">
        <ele>377.6</ele>
        <time>2013-06-09T11:28:33.000Z</time>
      </trkpt>
      <trkpt lat="47.29501" lon="6.12202">
        <ele>377.2</ele>
        <time>2013-06-09T11:28:36.000Z</time>
      </trkpt>
      <trkpt lat="47.29502" lon="6.12201">
        <ele>377.1</ele>
        <time>2013-06-09T11:28:37.000Z</time>
      </trkpt>
      <trkpt lat="47.29505" lon="6.12198">
        <ele>376.6</ele>
        <time>2013-06-09T11:28:40.000Z</time>
      </trkpt>
      <trkpt lat="47.29506" lon="6.12196">
        <ele>376.3</ele>
        <time>2013-06-09T11:28:41.000Z</time>
      </trkpt>
      <trkpt lat="47.29508" lon="6.12191">
        <ele>376</ele>
        <time>2013-06-09T11:28:44.000Z</time>
      </trkpt>
      <trkpt lat="47.29509" lon="6.1219">
        <ele>375.7</ele>
        <time>2013-06-09T11:28:45.000Z</time>
      </trkpt>
      <trkpt lat="47.29513" lon="6.12186">
        <ele>375.5</ele>
        <time>2013-06-09T11:28:48.000Z</time>
      </trkpt>
      <trkpt lat="47.29514" lon="6.12185">
        <ele>375.6</ele>
        <time>2013-06-09T11:28:49.000Z</time>
      </trkpt>
      <trkpt lat="47.29517" lon="6.12183">
        <ele>375.6</ele>
        <time>2013-06-09T11:28:52.000Z</time>
      </trkpt>
      <trkpt lat="47.29519" lon="6.12183">
        <ele>375.8</ele>
        <time>2013-06-09T11:28:53.000Z</time>
      </trkpt>
      <trkpt lat="47.29522" lon="6.1218">
        <ele>376.4</ele>
        <time>2013-06-09T11:28:56.000Z</time>
      </trkpt>
      <trkpt lat="47.29523" lon="6.1218">
        <ele>376.4</ele>
        <time>2013-06-09T11:28:57.000Z</time>
      </trkpt>
      <trkpt lat="47.29526" lon="6.12177">
        <ele>376.9</ele>
        <time>2013-06-09T11:29:00.000Z</time>
      </trkpt>
      <trkpt lat="47.29527" lon="6.12176">
        <ele>377.2</ele>
        <time>2013-06-09T11:29:01.000Z</time>
      </trkpt>
      <trkpt lat="47.2953" lon="6.12174">
        <ele>377.6</ele>
        <time>2013-06-09T11:29:04.000Z</time>
      </trkpt>
      <trkpt lat="47.29532" lon="6.12173">
        <ele>377.7</ele>
        <time>2013-06-09T11:29:05.000Z</time>
      </trkpt>
      <trkpt lat="47.29535" lon="6.12171">
        <ele>377.8</ele>
        <time>2013-06-09T11:29:08.000Z</time>
      </trkpt>
      <trkpt lat="47.29536" lon="6.12171">
        <ele>378</ele>
        <time>2013-06-09T11:29:09.000Z</time>
      </trkpt>
      <trkpt lat="47.2954" lon="6.12169">
        <ele>377.8</ele>
        <time>2013-06-09T11:29:12.000Z</time>
      </trkpt>
      <trkpt lat="47.29541" lon="6.12168">
        <ele>377.8</ele>
        <time>2013-06-09T11:29:13.000Z</time>
      </trkpt>
      <trkpt lat="47.29545" lon="6.12165">
        <ele>377.6</ele>
        <time>2013-06-09T11:29:16.000Z</time>
      </trkpt>
      <trkpt lat="47.29546" lon="6.12164">
        <ele>377.7</ele>
        <time>2013-06-09T11:29:17.000Z</time>
      </trkpt>
      <trkpt lat="47.29549" lon="6.12161">
        <ele>377.8</ele>
        <time>2013-06-09T11:29:20.000Z</time>
      </trkpt>
      <trkpt lat="47.2955" lon="6.12159">
        <ele>377.7</ele>
        <time>2013-06-09T11:29:21.000Z</time>
      </trkpt>
      <trkpt lat="47.29554" lon="6.12156">
        <ele>378.2</ele>
        <time>2013-06-09T11:29:24.000Z</time>
      </trkpt>
      <trkpt lat="47.29555" lon="6.12155">
        <ele>378.2</ele>
        <time>2013-06-09T11:29:25.000Z</time>
      </trkpt>
      <trkpt lat="47.29559" lon="6.12153">
        <ele>378.7</ele>
        <time>2013-06-09T11:29:28.000Z</time>
      </trkpt>
      <trkpt lat="47.29561" lon="6.12152">
        <ele>378.7</ele>
        <time>2013-06-09T11:29:29.000Z</time>
      </trkpt>
      <trkpt lat="47.29564" lon="6.12149">
        <ele>378.7</ele>
        <time>2013-06-09T11:29:32.000Z</time>
      </trkpt>
      <trkpt lat="47.29566" lon="6.12148">
        <ele>378.9</ele>
        <time>2013-06-09T11:29:33.000Z</time>
      </trkpt>
      <trkpt lat="47.29569" lon="6.12145">
        <ele>379</ele>
        <time>2013-06-09T11:29:36.000Z</time>
      </trkpt>
      <trkpt lat="47.2957" lon="6.12144">
        <ele>379</ele>
        <time>2013-06-09T11:29:37.000Z</time>
      </trkpt>
      <trkpt lat="47.29574" lon="6.12141">
        <ele>379.2</ele>
        <time>2013-06-09T11:29:40.000Z</time>
      </trkpt>
      <trkpt lat="47.29575" lon="6.12141">
        <ele>379.1</ele>
        <time>2013-06-09T11:29:41.000Z</time>
      </trkpt>
      <trkpt lat="47.29579" lon="6.12138">
        <ele>378.9</ele>
        <time>2013-06-09T11:29:44.000Z</time>
      </trkpt>
      <trkpt lat="47.2958" lon="6.12137">
        <ele>378.9</ele>
        <time>2013-06-09T11:29:45.000Z</time>
      </trkpt>
      <trkpt lat="47.29583" lon="6.12134">
        <ele>379.2</ele>
        <time>2013-06-09T11:29:48.000Z</time>
      </trkpt>
      <trkpt lat="47.29584" lon="6.12133">
        <ele>379.3</ele>
        <time>2013-06-09T11:29:49.000Z</time>
      </trkpt>
      <trkpt lat="47.29596" lon="6.12123">
        <ele>382.2</ele>
        <time>2013-06-09T11:30:02.000Z</time>
      </trkpt>
      <trkpt lat="47.29599" lon="6.12121">
        <ele>382.2</ele>
        <time>2013-06-09T11:30:18.000Z</time>
      </trkpt>
      <trkpt lat="47.296" lon="6.1212">
        <ele>382.2</ele>
        <time>2013-06-09T11:30:19.000Z</time>
      </trkpt>
      <trkpt lat="47.296" lon="6.1212">
        <ele>382.2</ele>
        <time>2013-06-09T11:30:20.000Z</time>
      </trkpt>
      <trkpt lat="47.29604" lon="6.12116">
        <ele>386.1</ele>
        <time>2013-06-09T11:30:21.000Z</time>
      </trkpt>
      <trkpt lat="47.29608" lon="6.12113">
        <ele>385.9</ele>
        <time>2013-06-09T11:30:22.000Z</time>
      </trkpt>
      <trkpt lat="47.29612" lon="6.12109">
        <ele>385.3</ele>
        <time>2013-06-09T11:30:23.000Z</time>
      </trkpt>
      <trkpt lat="47.29615" lon="6.12106">
        <ele>384.9</ele>
        <time>2013-06-09T11:30:24.000Z</time>
      </trkpt>
      <trkpt lat="47.29617" lon="6.12103">
        <ele>384.7</ele>
        <time>2013-06-09T11:30:25.000Z</time>
      </trkpt>
      <trkpt lat="47.29619" lon="6.12101">
        <ele>384.3</ele>
        <time>2013-06-09T11:30:26.000Z</time>
      </trkpt>
      <trkpt lat="47.29621" lon="6.12098">
        <ele>384.3</ele>
        <time>2013-06-09T11:30:27.000Z</time>
      </trkpt>
      <trkpt lat="47.29623" lon="6.12096">
        <ele>384.2</ele>
        <time>2013-06-09T11:30:28.000Z</time>
      </trkpt>
      <trkpt lat="47.29626" lon="6.12092">
        <ele>384</ele>
        <time>2013-06-09T11:30:30.000Z</time>
      </trkpt>
      <trkpt lat="47.29628" lon="6.1209">
        <ele>382.7</ele>
        <time>2013-06-09T11:30:31.000Z</time>
      </trkpt>
      <trkpt lat="47.29631" lon="6.12086">
        <ele>381.5</ele>
        <time>2013-06-09T11:30:33.000Z</time>
      </trkpt>
      <trkpt lat="47.29632" lon="6.12084">
        <ele>381.3</ele>
        <time>2013-06-09T11:30:34.000Z</time>
      </trkpt>
      <trkpt lat="47.29634" lon="6.1208">
        <ele>381.6</ele>
        <time>2013-06-09T11:30:36.000Z</time>
      </trkpt>
      <trkpt lat="47.29635" lon="6.12079">
        <ele>381.6</ele>
        <time>2013-06-09T11:30:37.000Z</time>
      </trkpt>
      <trkpt lat="47.29638" lon="6.12075">
        <ele>381.5</ele>
        <time>2013-06-09T11:30:40.000Z</time>
      </trkpt>
      <trkpt lat="47.29639" lon="6.12073">
        <ele>381.4</ele>
        <time>2013-06-09T11:30:41.000Z</time>
      </trkpt>
      <trkpt lat="47.29642" lon="6.12069">
        <ele>381.5</ele>
        <time>2013-06-09T11:30:44.000Z</time>
      </trkpt>
      <trkpt lat="47.29643" lon="6.12067">
        <ele>381.7</ele>
        <time>2013-06-09T11:30:45.000Z</time>
      </trkpt>
      <trkpt lat="47.29645" lon="6.12063">
        <ele>382.2</ele>
        <time>2013-06-09T11:30:48.000Z</time>
      </trkpt>
      <trkpt lat="47.29646" lon="6.12061">
        <ele>382.2</ele>
        <time>2013-06-09T11:30:49.000Z</time>
      </trkpt>
      <trkpt lat="47.29649" lon="6.12056">
        <ele>381.7</ele>
        <time>2013-06-09T11:30:52.000Z</time>
      </trkpt>
      <trkpt lat="47.29649" lon="6.12055">
        <ele>381.7</ele>
        <time>2013-06-09T11:30:53.000Z</time>
      </trkpt>
      <trkpt lat="47.29652" lon="6.1205">
        <ele>381.4</ele>
        <time>2013-06-09T11:30:56.000Z</time>
      </trkpt>
      <trkpt lat="47.29653" lon="6.12048">
        <ele>380.9</ele>
        <time>2013-06-09T11:30:57.000Z</time>
      </trkpt>
      <trkpt lat="47.29654" lon="6.12044">
        <ele>380.5</ele>
        <time>2013-06-09T11:30:59.000Z</time>
      </trkpt>
      <trkpt lat="47.29655" lon="6.12042">
        <ele>380.4</ele>
        <time>2013-06-09T11:31:00.000Z</time>
      </trkpt>
      <trkpt lat="47.29658" lon="6.12037">
        <ele>380.3</ele>
        <time>2013-06-09T11:31:03.000Z</time>
      </trkpt>
      <trkpt lat="47.29658" lon="6.12036">
        <ele>380.3</ele>
        <time>2013-06-09T11:31:04.000Z</time>
      </trkpt>
      <trkpt lat="47.29661" lon="6.1203">
        <ele>379.7</ele>
        <time>2013-06-09T11:31:07.000Z</time>
      </trkpt>
      <trkpt lat="47.29661" lon="6.12028">
        <ele>379.8</ele>
        <time>2013-06-09T11:31:08.000Z</time>
      </trkpt>
      <trkpt lat="47.29663" lon="6.12023">
        <ele>380</ele>
        <time>2013-06-09T11:31:11.000Z</time>
      </trkpt>
      <trkpt lat="47.29664" lon="6.12021">
        <ele>380.1</ele>
        <time>2013-06-09T11:31:12.000Z</time>
      </trkpt>
      <trkpt lat="47.29667" lon="6.12016">
        <ele>380.4</ele>
        <time>2013-06-09T11:31:15.000Z</time>
      </trkpt>
      <trkpt lat="47.29667" lon="6.12014">
        <ele>380.3</ele>
        <time>2013-06-09T11:31:16.000Z</time>
      </trkpt>
      <trkpt lat="47.2967" lon="6.12009">
        <ele>380.3</ele>
        <time>2013-06-09T11:31:19.000Z</time>
      </trkpt>
      <trkpt lat="47.29671" lon="6.12008">
        <ele>380.3</ele>
        <time>2013-06-09T11:31:20.000Z</time>
      </trkpt>
      <trkpt lat="47.29673" lon="6.12002">
        <ele>380.7</ele>
        <time>2013-06-09T11:31:23.000Z</time>
      </trkpt>
      <trkpt lat="47.29673" lon="6.12001">
        <ele>380.9</ele>
        <time>2013-06-09T11:31:24.000Z</time>
      </trkpt>
      <trkpt lat="47.29675" lon="6.11995">
        <ele>381</ele>
        <time>2013-06-09T11:31:27.000Z</time>
      </trkpt>
      <trkpt lat="47.29676" lon="6.11993">
        <ele>381.2</ele>
        <time>2013-06-09T11:31:28.000Z</time>
      </trkpt>
      <trkpt lat="47.29678" lon="6.11988">
        <ele>380.9</ele>
        <time>2013-06-09T11:31:31.000Z</time>
      </trkpt>
      <trkpt lat="47.29678" lon="6.11986">
        <ele>380.9</ele>
        <time>2013-06-09T11:31:32.000Z</time>
      </trkpt>
      <trkpt lat="47.29681" lon="6.11981">
        <ele>381.4</ele>
        <time>2013-06-09T11:31:35.000Z</time>
      </trkpt>
      <trkpt lat="47.29681" lon="6.11979">
        <ele>381.2</ele>
        <time>2013-06-09T11:31:36.000Z</time>
      </trkpt>
      <trkpt lat="47.29683" lon="6.11974">
        <ele>381.5</ele>
        <time>2013-06-09T11:31:39.000Z</time>
      </trkpt>
      <trkpt lat="47.29684" lon="6.11972">
        <ele>381.5</ele>
        <time>2013-06-09T11:31:40.000Z</time>
      </trkpt>
      <trkpt lat="47.29685" lon="6.11966">
        <ele>381.6</ele>
        <time>2013-06-09T11:31:43.000Z</time>
      </trkpt>
      <trkpt lat="47.29686" lon="6.11964">
        <ele>381.8</ele>
        <time>2013-06-09T11:31:44.000Z</time>
      </trkpt>
      <trkpt lat="47.29688" lon="6.1196">
        <ele>382.2</ele>
        <time>2013-06-09T11:31:47.000Z</time>
      </trkpt>
      <trkpt lat="47.29689" lon="6.11958">
        <ele>382.2</ele>
        <time>2013-06-09T11:31:48.000Z</time>
      </trkpt>
      <trkpt lat="47.29691" lon="6.11953">
        <ele>382.5</ele>
        <time>2013-06-09T11:31:51.000Z</time>
      </trkpt>
      <trkpt lat="47.29691" lon="6.11951">
        <ele>382.3</ele>
        <time>2013-06-09T11:31:52.000Z</time>
      </trkpt>
      <trkpt lat="47.29692" lon="6.11945">
        <ele>381.5</ele>
        <time>2013-06-09T11:31:55.000Z</time>
      </trkpt>
      <trkpt lat="47.29692" lon="6.11942">
        <ele>381.7</ele>
        <time>2013-06-09T11:31:56.000Z</time>
      </trkpt>
      <trkpt lat="47.29694" lon="6.11936">
        <ele>382</ele>
        <time>2013-06-09T11:31:59.000Z</time>
      </trkpt>
      <trkpt lat="47.29695" lon="6.11935">
        <ele>382</ele>
        <time>2013-06-09T11:32:00.000Z</time>
      </trkpt>
      <trkpt lat="47.29697" lon="6.1193">
        <ele>382</ele>
        <time>2013-06-09T11:32:03.000Z</time>
      </trkpt>
      <trkpt lat="47.29698" lon="6.11928">
        <ele>382.1</ele>
        <time>2013-06-09T11:32:04.000Z</time>
      </trkpt>
      <trkpt lat="47.297" lon="6.11923">
        <ele>382.1</ele>
        <time>2013-06-09T11:32:07.000Z</time>
      </trkpt>
      <trkpt lat="47.29701" lon="6.11921">
        <ele>382</ele>
        <time>2013-06-09T11:32:08.000Z</time>
      </trkpt>
      <trkpt lat="47.29702" lon="6.11916">
        <ele>382.2</ele>
        <time>2013-06-09T11:32:11.000Z</time>
      </trkpt>
      <trkpt lat="47.29703" lon="6.11915">
        <ele>382.4</ele>
        <time>2013-06-09T11:32:12.000Z</time>
      </trkpt>
      <trkpt lat="47.29705" lon="6.1191">
        <ele>382.2</ele>
        <time>2013-06-09T11:32:15.000Z</time>
      </trkpt>
      <trkpt lat="47.29706" lon="6.11909">
        <ele>382.5</ele>
        <time>2013-06-09T11:32:16.000Z</time>
      </trkpt>
      <trkpt lat="47.29707" lon="6.11904">
        <ele>382.6</ele>
        <time>2013-06-09T11:32:19.000Z</time>
      </trkpt>
      <trkpt lat="47.29707" lon="6.11902">
        <ele>382.8</ele>
        <time>2013-06-09T11:32:20.000Z</time>
      </trkpt>
      <trkpt lat="47.29709" lon="6.11897">
        <ele>382.4</ele>
        <time>2013-06-09T11:32:23.000Z</time>
      </trkpt>
      <trkpt lat="47.29709" lon="6.11895">
        <ele>382.4</ele>
        <time>2013-06-09T11:32:24.000Z</time>
      </trkpt>
      <trkpt lat="47.29711" lon="6.1189">
        <ele>383</ele>
        <time>2013-06-09T11:32:27.000Z</time>
      </trkpt>
      <trkpt lat="47.29711" lon="6.11888">
        <ele>383</ele>
        <time>2013-06-09T11:32:28.000Z</time>
      </trkpt>
      <trkpt lat="47.29712" lon="6.11882">
        <ele>383.2</ele>
        <time>2013-06-09T11:32:31.000Z</time>
      </trkpt>
      <trkpt lat="47.29713" lon="6.11881">
        <ele>383.2</ele>
        <time>2013-06-09T11:32:32.000Z</time>
      </trkpt>
      <trkpt lat="47.29715" lon="6.11876">
        <ele>383</ele>
        <time>2013-06-09T11:32:35.000Z</time>
      </trkpt>
      <trkpt lat="47.29716" lon="6.11874">
        <ele>382.8</ele>
        <time>2013-06-09T11:32:36.000Z</time>
      </trkpt>
      <trkpt lat="47.29718" lon="6.11869">
        <ele>382.9</ele>
        <time>2013-06-09T11:32:39.000Z</time>
      </trkpt>
      <trkpt lat="47.29718" lon="6.11867">
        <ele>382.9</ele>
        <time>2013-06-09T11:32:40.000Z</time>
      </trkpt>
      <trkpt lat="47.29721" lon="6.11862">
        <ele>382.6</ele>
        <time>2013-06-09T11:32:43.000Z</time>
      </trkpt>
      <trkpt lat="47.29722" lon="6.1186">
        <ele>382.4</ele>
        <time>2013-06-09T11:32:44.000Z</time>
      </trkpt>
      <trkpt lat="47.29724" lon="6.11855">
        <ele>381.8</ele>
        <time>2013-06-09T11:32:47.000Z</time>
      </trkpt>
      <trkpt lat="47.29725" lon="6.11854">
        <ele>381.5</ele>
        <time>2013-06-09T11:32:48.000Z</time>
      </trkpt>
      <trkpt lat="47.29727" lon="6.11849">
        <ele>382.4</ele>
        <time>2013-06-09T11:32:51.000Z</time>
      </trkpt>
      <trkpt lat="47.29728" lon="6.11847">
        <ele>381.8</ele>
        <time>2013-06-09T11:32:52.000Z</time>
      </trkpt>
      <trkpt lat="47.29729" lon="6.11842">
        <ele>382.6</ele>
        <time>2013-06-09T11:32:55.000Z</time>
      </trkpt>
      <trkpt lat="47.2973" lon="6.1184">
        <ele>382.8</ele>
        <time>2013-06-09T11:32:56.000Z</time>
      </trkpt>
      <trkpt lat="47.29731" lon="6.11834">
        <ele>383.2</ele>
        <time>2013-06-09T11:32:59.000Z</time>
      </trkpt>
      <trkpt lat="47.29731" lon="6.11832">
        <ele>383.2</ele>
        <time>2013-06-09T11:33:00.000Z</time>
      </trkpt>
      <trkpt lat="47.29733" lon="6.11826">
        <ele>383.4</ele>
        <time>2013-06-09T11:33:03.000Z</time>
      </trkpt>
      <trkpt lat="47.29734" lon="6.11824">
        <ele>382.7</ele>
        <time>2013-06-09T11:33:04.000Z</time>
      </trkpt>
      <trkpt lat="47.29735" lon="6.11819">
        <ele>380.9</ele>
        <time>2013-06-09T11:33:07.000Z</time>
      </trkpt>
      <trkpt lat="47.29736" lon="6.11817">
        <ele>380.5</ele>
        <time>2013-06-09T11:33:08.000Z</time>
      </trkpt>
      <trkpt lat="47.29737" lon="6.11811">
        <ele>380.3</ele>
        <time>2013-06-09T11:33:11.000Z</time>
      </trkpt>
      <trkpt lat="47.29738" lon="6.11809">
        <ele>380.2</ele>
        <time>2013-06-09T11:33:12.000Z</time>
      </trkpt>
      <trkpt lat="47.2974" lon="6.11803">
        <ele>380.4</ele>
        <time>2013-06-09T11:33:15.000Z</time>
      </trkpt>
      <trkpt lat="47.29741" lon="6.11802">
        <ele>380.6</ele>
        <time>2013-06-09T11:33:16.000Z</time>
      </trkpt>
      <trkpt lat="47.29743" lon="6.11797">
        <ele>380.7</ele>
        <time>2013-06-09T11:33:19.000Z</time>
      </trkpt>
      <trkpt lat="47.29743" lon="6.11796">
        <ele>380.5</ele>
        <time>2013-06-09T11:33:20.000Z</time>
      </trkpt>
      <trkpt lat="47.29746" lon="6.11791">
        <ele>380.4</ele>
        <time>2013-06-09T11:33:23.000Z</time>
      </trkpt>
      <trkpt lat="47.29747" lon="6.11789">
        <ele>380.4</ele>
        <time>2013-06-09T11:33:24.000Z</time>
      </trkpt>
      <trkpt lat="47.29749" lon="6.11785">
        <ele>381.2</ele>
        <time>2013-06-09T11:33:27.000Z</time>
      </trkpt>
      <trkpt lat="47.2975" lon="6.11783">
        <ele>381.5</ele>
        <time>2013-06-09T11:33:28.000Z</time>
      </trkpt>
      <trkpt lat="47.29752" lon="6.11778">
        <ele>381.1</ele>
        <time>2013-06-09T11:33:31.000Z</time>
      </trkpt>
      <trkpt lat="47.29753" lon="6.11777">
        <ele>381.2</ele>
        <time>2013-06-09T11:33:32.000Z</time>
      </trkpt>
      <trkpt lat="47.29754" lon="6.11771">
        <ele>380.8</ele>
        <time>2013-06-09T11:33:35.000Z</time>
      </trkpt>
      <trkpt lat="47.29755" lon="6.1177">
        <ele>381</ele>
        <time>2013-06-09T11:33:36.000Z</time>
      </trkpt>
      <trkpt lat="47.29757" lon="6.11764">
        <ele>381.3</ele>
        <time>2013-06-09T11:33:39.000Z</time>
      </trkpt>
      <trkpt lat="47.29757" lon="6.11763">
        <ele>381.5</ele>
        <time>2013-06-09T11:33:40.000Z</time>
      </trkpt>
      <trkpt lat="47.29759" lon="6.11758">
        <ele>382.1</ele>
        <time>2013-06-09T11:33:43.000Z</time>
      </trkpt>
      <trkpt lat="47.2976" lon="6.11756">
        <ele>382.2</ele>
        <time>2013-06-09T11:33:44.000Z</time>
      </trkpt>
      <trkpt lat="47.29761" lon="6.11751">
        <ele>382.2</ele>
        <time>2013-06-09T11:33:47.000Z</time>
      </trkpt>
      <trkpt lat="47.29762" lon="6.11749">
        <ele>382.1</ele>
        <time>2013-06-09T11:33:48.000Z</time>
      </trkpt>
      <trkpt lat="47.29764" lon="6.11744">
        <ele>381.2</ele>
        <time>2013-06-09T11:33:51.000Z</time>
      </trkpt>
      <trkpt lat="47.29764" lon="6.11742">
        <ele>381</ele>
        <time>2013-06-09T11:33:52.000Z</time>
      </trkpt>
      <trkpt lat="47.29766" lon="6.11736">
        <ele>378.5</ele>
        <time>2013-06-09T11:33:55.000Z</time>
      </trkpt>
      <trkpt lat="47.29767" lon="6.11734">
        <ele>378.5</ele>
        <time>2013-06-09T11:33:56.000Z</time>
      </trkpt>
      <trkpt lat="47.29767" lon="6.1173">
        <ele>378.4</ele>
        <time>2013-06-09T11:33:58.000Z</time>
      </trkpt>
      <trkpt lat="47.29768" lon="6.11728">
        <ele>378.4</ele>
        <time>2013-06-09T11:33:59.000Z</time>
      </trkpt>
      <trkpt lat="47.29769" lon="6.11722">
        <ele>378.6</ele>
        <time>2013-06-09T11:34:02.000Z</time>
      </trkpt>
      <trkpt lat="47.2977" lon="6.1172">
        <ele>378.4</ele>
        <time>2013-06-09T11:34:03.000Z</time>
      </trkpt>
      <trkpt lat="47.29771" lon="6.11715">
        <ele>378.9</ele>
        <time>2013-06-09T11:34:06.000Z</time>
      </trkpt>
      <trkpt lat="47.29772" lon="6.11713">
        <ele>379.3</ele>
        <time>2013-06-09T11:34:07.000Z</time>
      </trkpt>
      <trkpt lat="47.29774" lon="6.11707">
        <ele>379.6</ele>
        <time>2013-06-09T11:34:10.000Z</time>
      </trkpt>
      <trkpt lat="47.29775" lon="6.11705">
        <ele>379.7</ele>
        <time>2013-06-09T11:34:11.000Z</time>
      </trkpt>
      <trkpt lat="47.29776" lon="6.117">
        <ele>379.8</ele>
        <time>2013-06-09T11:34:14.000Z</time>
      </trkpt>
      <trkpt lat="47.29777" lon="6.11698">
        <ele>379.9</ele>
        <time>2013-06-09T11:34:15.000Z</time>
      </trkpt>
      <trkpt lat="47.29779" lon="6.11693">
        <ele>379.8</ele>
        <time>2013-06-09T11:34:18.000Z</time>
      </trkpt>
      <trkpt lat="47.2978" lon="6.11691">
        <ele>380</ele>
        <time>2013-06-09T11:34:19.000Z</time>
      </trkpt>
      <trkpt lat="47.29782" lon="6.11685">
        <ele>380.5</ele>
        <time>2013-06-09T11:34:22.000Z</time>
      </trkpt>
      <trkpt lat="47.29782" lon="6.11684">
        <ele>380.7</ele>
        <time>2013-06-09T11:34:23.000Z</time>
      </trkpt>
      <trkpt lat="47.29783" lon="6.11677">
        <ele>380.4</ele>
        <time>2013-06-09T11:34:26.000Z</time>
      </trkpt>
      <trkpt lat="47.29784" lon="6.11675">
        <ele>380</ele>
        <time>2013-06-09T11:34:27.000Z</time>
      </trkpt>
      <trkpt lat="47.29785" lon="6.11671">
        <ele>379.7</ele>
        <time>2013-06-09T11:34:29.000Z</time>
      </trkpt>
      <trkpt lat="47.29786" lon="6.11669">
        <ele>379.7</ele>
        <time>2013-06-09T11:34:30.000Z</time>
      </trkpt>
      <trkpt lat="47.29787" lon="6.11663">
        <ele>379.8</ele>
        <time>2013-06-09T11:34:33.000Z</time>
      </trkpt>
      <trkpt lat="47.29788" lon="6.11661">
        <ele>379.9</ele>
        <time>2013-06-09T11:34:34.000Z</time>
      </trkpt>
      <trkpt lat="47.29789" lon="6.11654">
        <ele>379.4</ele>
        <time>2013-06-09T11:34:37.000Z</time>
      </trkpt>
      <trkpt lat="47.29789" lon="6.11652">
        <ele>379.4</ele>
        <time>2013-06-09T11:34:38.000Z</time>
      </trkpt>
      <trkpt lat="47.29791" lon="6.11646">
        <ele>379.7</ele>
        <time>2013-06-09T11:34:41.000Z</time>
      </trkpt>
      <trkpt lat="47.29791" lon="6.11644">
        <ele>379.5</ele>
        <time>2013-06-09T11:34:42.000Z</time>
      </trkpt>
      <trkpt lat="47.29792" lon="6.11639">
        <ele>380.4</ele>
        <time>2013-06-09T11:34:45.000Z</time>
      </trkpt>
      <trkpt lat="47.29793" lon="6.11637">
        <ele>380.2</ele>
        <time>2013-06-09T11:34:46.000Z</time>
      </trkpt>
      <trkpt lat="47.29795" lon="6.11632">
        <ele>380.4</ele>
        <time>2013-06-09T11:34:49.000Z</time>
      </trkpt>
      <trkpt lat="47.29796" lon="6.11631">
        <ele>380.5</ele>
        <time>2013-06-09T11:34:50.000Z</time>
      </trkpt>
      <trkpt lat="47.29798" lon="6.11626">
        <ele>381.4</ele>
        <time>2013-06-09T11:34:54.000Z</time>
      </trkpt>
      <trkpt lat="47.29799" lon="6.11624">
        <ele>381.3</ele>
        <time>2013-06-09T11:34:55.000Z</time>
      </trkpt>
      <trkpt lat="47.298" lon="6.11619">
        <ele>381.7</ele>
        <time>2013-06-09T11:34:58.000Z</time>
      </trkpt>
      <trkpt lat="47.298" lon="6.11617">
        <ele>381.7</ele>
        <time>2013-06-09T11:34:59.000Z</time>
      </trkpt>
      <trkpt lat="47.29802" lon="6.11612">
        <ele>381.4</ele>
        <time>2013-06-09T11:35:02.000Z</time>
      </trkpt>
      <trkpt lat="47.29802" lon="6.1161">
        <ele>381.5</ele>
        <time>2013-06-09T11:35:03.000Z</time>
      </trkpt>
      <trkpt lat="47.29802" lon="6.11604">
        <ele>381.8</ele>
        <time>2013-06-09T11:35:06.000Z</time>
      </trkpt>
      <trkpt lat="47.29802" lon="6.11602">
        <ele>381.8</ele>
        <time>2013-06-09T11:35:07.000Z</time>
      </trkpt>
      <trkpt lat="47.29801" lon="6.11597">
        <ele>380.9</ele>
        <time>2013-06-09T11:35:10.000Z</time>
      </trkpt>
      <trkpt lat="47.298" lon="6.11595">
        <ele>380.7</ele>
        <time>2013-06-09T11:35:11.000Z</time>
      </trkpt>
      <trkpt lat="47.29798" lon="6.11589">
        <ele>381.3</ele>
        <time>2013-06-09T11:35:14.000Z</time>
      </trkpt>
      <trkpt lat="47.29798" lon="6.11587">
        <ele>381.2</ele>
        <time>2013-06-09T11:35:15.000Z</time>
      </trkpt>
      <trkpt lat="47.29798" lon="6.1158">
        <ele>380.9</ele>
        <time>2013-06-09T11:35:18.000Z</time>
      </trkpt>
      <trkpt lat="47.29797" lon="6.11578">
        <ele>380.9</ele>
        <time>2013-06-09T11:35:19.000Z</time>
      </trkpt>
      <trkpt lat="47.29796" lon="6.11573">
        <ele>380.1</ele>
        <time>2013-06-09T11:35:22.000Z</time>
      </trkpt>
      <trkpt lat="47.29796" lon="6.11571">
        <ele>380</ele>
        <time>2013-06-09T11:35:23.000Z</time>
      </trkpt>
      <trkpt lat="47.29795" lon="6.11566">
        <ele>380</ele>
        <time>2013-06-09T11:35:26.000Z</time>
      </trkpt>
      <trkpt lat="47.29794" lon="6.11564">
        <ele>380.1</ele>
        <time>2013-06-09T11:35:27.000Z</time>
      </trkpt>
      <trkpt lat="47.29794" lon="6.11557">
        <ele>380.6</ele>
        <time>2013-06-09T11:35:30.000Z</time>
      </trkpt>
      <trkpt lat="47.29794" lon="6.11555">
        <ele>380.8</ele>
        <time>2013-06-09T11:35:31.000Z</time>
      </trkpt>
      <trkpt lat="47.29794" lon="6.1155">
        <ele>380.9</ele>
        <time>2013-06-09T11:35:33.000Z</time>
      </trkpt>
      <trkpt lat="47.29794" lon="6.11548">
        <ele>380.9</ele>
        <time>2013-06-09T11:35:34.000Z</time>
      </trkpt>
      <trkpt lat="47.29794" lon="6.11543">
        <ele>379.8</ele>
        <time>2013-06-09T11:35:36.000Z</time>
      </trkpt>
      <trkpt lat="47.29793" lon="6.11541">
        <ele>378.9</ele>
        <time>2013-06-09T11:35:37.000Z</time>
      </trkpt>
      <trkpt lat="47.29793" lon="6.11536">
        <ele>377.8</ele>
        <time>2013-06-09T11:35:39.000Z</time>
      </trkpt>
      <trkpt lat="47.29793" lon="6.11534">
        <ele>378.1</ele>
        <time>2013-06-09T11:35:40.000Z</time>
      </trkpt>
      <trkpt lat="47.29793" lon="6.11529">
        <ele>378.4</ele>
        <time>2013-06-09T11:35:42.000Z</time>
      </trkpt>
      <trkpt lat="47.29792" lon="6.11527">
        <ele>378.8</ele>
        <time>2013-06-09T11:35:43.000Z</time>
      </trkpt>
      <trkpt lat="47.29791" lon="6.11521">
        <ele>379</ele>
        <time>2013-06-09T11:35:46.000Z</time>
      </trkpt>
      <trkpt lat="47.29791" lon="6.11518">
        <ele>379</ele>
        <time>2013-06-09T11:35:47.000Z</time>
      </trkpt>
      <trkpt lat="47.2979" lon="6.11514">
        <ele>378.5</ele>
        <time>2013-06-09T11:35:49.000Z</time>
      </trkpt>
      <trkpt lat="47.2979" lon="6.11512">
        <ele>378.5</ele>
        <time>2013-06-09T11:35:50.000Z</time>
      </trkpt>
      <trkpt lat="47.29789" lon="6.11505">
        <ele>378.6</ele>
        <time>2013-06-09T11:35:53.000Z</time>
      </trkpt>
      <trkpt lat="47.29789" lon="6.11503">
        <ele>378.7</ele>
        <time>2013-06-09T11:35:54.000Z</time>
      </trkpt>
      <trkpt lat="47.29789" lon="6.11497">
        <ele>379</ele>
        <time>2013-06-09T11:35:57.000Z</time>
      </trkpt>
      <trkpt lat="47.29789" lon="6.11495">
        <ele>378.2</ele>
        <time>2013-06-09T11:35:58.000Z</time>
      </trkpt>
      <trkpt lat="47.29789" lon="6.11488">
        <ele>378.9</ele>
        <time>2013-06-09T11:36:01.000Z</time>
      </trkpt>
      <trkpt lat="47.29789" lon="6.11486">
        <ele>379.4</ele>
        <time>2013-06-09T11:36:02.000Z</time>
      </trkpt>
      <trkpt lat="47.29789" lon="6.1148">
        <ele>380.2</ele>
        <time>2013-06-09T11:36:05.000Z</time>
      </trkpt>
      <trkpt lat="47.29789" lon="6.11478">
        <ele>380.4</ele>
        <time>2013-06-09T11:36:06.000Z</time>
      </trkpt>
      <trkpt lat="47.29789" lon="6.11472">
        <ele>380.7</ele>
        <time>2013-06-09T11:36:09.000Z</time>
      </trkpt>
      <trkpt lat="47.29789" lon="6.1147">
        <ele>380.8</ele>
        <time>2013-06-09T11:36:10.000Z</time>
      </trkpt>
      <trkpt lat="47.29789" lon="6.11464">
        <ele>380.3</ele>
        <time>2013-06-09T11:36:13.000Z</time>
      </trkpt>
      <trkpt lat="47.29789" lon="6.11462">
        <ele>380.1</ele>
        <time>2013-06-09T11:36:14.000Z</time>
      </trkpt>
      <trkpt lat="47.29789" lon="6.11455">
        <ele>379.8</ele>
        <time>2013-06-09T11:36:17.000Z</time>
      </trkpt>
      <trkpt lat="47.29789" lon="6.11453">
        <ele>379.7</ele>
        <time>2013-06-09T11:36:18.000Z</time>
      </trkpt>
      <trkpt lat="47.29789" lon="6.11448">
        <ele>379.9</ele>
        <time>2013-06-09T11:36:21.000Z</time>
      </trkpt>
      <trkpt lat="47.2979" lon="6.11446">
        <ele>379.9</ele>
        <time>2013-06-09T11:36:22.000Z</time>
      </trkpt>
      <trkpt lat="47.29792" lon="6.11441">
        <ele>379.6</ele>
        <time>2013-06-09T11:36:25.000Z</time>
      </trkpt>
      <trkpt lat="47.29792" lon="6.11439">
        <ele>379.5</ele>
        <time>2013-06-09T11:36:26.000Z</time>
      </trkpt>
      <trkpt lat="47.29794" lon="6.11433">
        <ele>379.5</ele>
        <time>2013-06-09T11:36:29.000Z</time>
      </trkpt>
      <trkpt lat="47.29795" lon="6.11431">
        <ele>379.6</ele>
        <time>2013-06-09T11:36:30.000Z</time>
      </trkpt>
      <trkpt lat="47.29796" lon="6.11426">
        <ele>379.3</ele>
        <time>2013-06-09T11:36:33.000Z</time>
      </trkpt>
      <trkpt lat="47.29796" lon="6.11424">
        <ele>378.1</ele>
        <time>2013-06-09T11:36:34.000Z</time>
      </trkpt>
      <trkpt lat="47.29797" lon="6.11418">
        <ele>377.9</ele>
        <time>2013-06-09T11:36:37.000Z</time>
      </trkpt>
      <trkpt lat="47.29797" lon="6.11417">
        <ele>377.7</ele>
        <time>2013-06-09T11:36:38.000Z</time>
      </trkpt>
      <trkpt lat="47.29797" lon="6.1141">
        <ele>377.4</ele>
        <time>2013-06-09T11:36:42.000Z</time>
      </trkpt>
      <trkpt lat="47.29798" lon="6.11409">
        <ele>377.7</ele>
        <time>2013-06-09T11:36:43.000Z</time>
      </trkpt>
      <trkpt lat="47.29801" lon="6.11404">
        <ele>378.5</ele>
        <time>2013-06-09T11:36:46.000Z</time>
      </trkpt>
      <trkpt lat="47.29802" lon="6.11403">
        <ele>378.6</ele>
        <time>2013-06-09T11:36:47.000Z</time>
      </trkpt>
      <trkpt lat="47.29804" lon="6.11398">
        <ele>379.8</ele>
        <time>2013-06-09T11:36:50.000Z</time>
      </trkpt>
      <trkpt lat="47.29805" lon="6.11396">
        <ele>380.1</ele>
        <time>2013-06-09T11:36:51.000Z</time>
      </trkpt>
      <trkpt lat="47.29808" lon="6.11391">
        <ele>380.8</ele>
        <time>2013-06-09T11:36:54.000Z</time>
      </trkpt>
      <trkpt lat="47.29809" lon="6.1139">
        <ele>381</ele>
        <time>2013-06-09T11:36:55.000Z</time>
      </trkpt>
      <trkpt lat="47.2981" lon="6.11384">
        <ele>382.2</ele>
        <time>2013-06-09T11:36:58.000Z</time>
      </trkpt>
      <trkpt lat="47.29811" lon="6.11382">
        <ele>382.4</ele>
        <time>2013-06-09T11:36:59.000Z</time>
      </trkpt>
      <trkpt lat="47.29813" lon="6.11377">
        <ele>382.4</ele>
        <time>2013-06-09T11:37:02.000Z</time>
      </trkpt>
      <trkpt lat="47.29813" lon="6.11375">
        <ele>382.7</ele>
        <time>2013-06-09T11:37:03.000Z</time>
      </trkpt>
      <trkpt lat="47.29815" lon="6.11369">
        <ele>381.9</ele>
        <time>2013-06-09T11:37:06.000Z</time>
      </trkpt>
      <trkpt lat="47.29815" lon="6.11368">
        <ele>381.6</ele>
        <time>2013-06-09T11:37:07.000Z</time>
      </trkpt>
      <trkpt lat="47.29817" lon="6.11362">
        <ele>381.2</ele>
        <time>2013-06-09T11:37:10.000Z</time>
      </trkpt>
      <trkpt lat="47.29817" lon="6.1136">
        <ele>381.2</ele>
        <time>2013-06-09T11:37:11.000Z</time>
      </trkpt>
      <trkpt lat="47.29817" lon="6.11354">
        <ele>380.6</ele>
        <time>2013-06-09T11:37:14.000Z</time>
      </trkpt>
      <trkpt lat="47.29817" lon="6.11352">
        <ele>380.2</ele>
        <time>2013-06-09T11:37:15.000Z</time>
      </trkpt>
      <trkpt lat="47.29818" lon="6.11346">
        <ele>380.2</ele>
        <time>2013-06-09T11:37:18.000Z</time>
      </trkpt>
      <trkpt lat="47.29818" lon="6.11344">
        <ele>380.4</ele>
        <time>2013-06-09T11:37:19.000Z</time>
      </trkpt>
      <trkpt lat="47.29818" lon="6.11338">
        <ele>381.8</ele>
        <time>2013-06-09T11:37:22.000Z</time>
      </trkpt>
      <trkpt lat="47.29818" lon="6.11336">
        <ele>382</ele>
        <time>2013-06-09T11:37:23.000Z</time>
      </trkpt>
      <trkpt lat="47.29819" lon="6.1133">
        <ele>383</ele>
        <time>2013-06-09T11:37:26.000Z</time>
      </trkpt>
      <trkpt lat="47.2982" lon="6.11328">
        <ele>383.6</ele>
        <time>2013-06-09T11:37:27.000Z</time>
      </trkpt>
      <trkpt lat="47.29821" lon="6.11322">
        <ele>384.3</ele>
        <time>2013-06-09T11:37:30.000Z</time>
      </trkpt>
      <trkpt lat="47.29822" lon="6.1132">
        <ele>384.5</ele>
        <time>2013-06-09T11:37:31.000Z</time>
      </trkpt>
      <trkpt lat="47.29822" lon="6.11314">
        <ele>384.3</ele>
        <time>2013-06-09T11:37:34.000Z</time>
      </trkpt>
      <trkpt lat="47.29822" lon="6.11312">
        <ele>384</ele>
        <time>2013-06-09T11:37:35.000Z</time>
      </trkpt>
      <trkpt lat="47.29822" lon="6.11307">
        <ele>382.7</ele>
        <time>2013-06-09T11:37:37.000Z</time>
      </trkpt>
      <trkpt lat="47.29822" lon="6.11305">
        <ele>382.5</ele>
        <time>2013-06-09T11:37:38.000Z</time>
      </trkpt>
      <trkpt lat="47.29822" lon="6.11298">
        <ele>382.2</ele>
        <time>2013-06-09T11:37:41.000Z</time>
      </trkpt>
      <trkpt lat="47.29822" lon="6.11296">
        <ele>382.5</ele>
        <time>2013-06-09T11:37:42.000Z</time>
      </trkpt>
      <trkpt lat="47.29822" lon="6.1129">
        <ele>383.1</ele>
        <time>2013-06-09T11:37:45.000Z</time>
      </trkpt>
      <trkpt lat="47.29822" lon="6.11288">
        <ele>383.4</ele>
        <time>2013-06-09T11:37:46.000Z</time>
      </trkpt>
      <trkpt lat="47.29821" lon="6.11282">
        <ele>383.9</ele>
        <time>2013-06-09T11:37:49.000Z</time>
      </trkpt>
      <trkpt lat="47.29821" lon="6.1128">
        <ele>383.7</ele>
        <time>2013-06-09T11:37:50.000Z</time>
      </trkpt>
      <trkpt lat="47.29821" lon="6.11274">
        <ele>383.6</ele>
        <time>2013-06-09T11:37:53.000Z</time>
      </trkpt>
      <trkpt lat="47.29822" lon="6.11272">
        <ele>383.9</ele>
        <time>2013-06-09T11:37:54.000Z</time>
      </trkpt>
      <trkpt lat="47.29822" lon="6.11266">
        <ele>384.1</ele>
        <time>2013-06-09T11:37:57.000Z</time>
      </trkpt>
      <trkpt lat="47.29822" lon="6.11264">
        <ele>383.8</ele>
        <time>2013-06-09T11:37:58.000Z</time>
      </trkpt>
      <trkpt lat="47.29821" lon="6.11258">
        <ele>382.1</ele>
        <time>2013-06-09T11:38:01.000Z</time>
      </trkpt>
      <trkpt lat="47.29821" lon="6.11256">
        <ele>381.6</ele>
        <time>2013-06-09T11:38:02.000Z</time>
      </trkpt>
      <trkpt lat="47.29821" lon="6.1125">
        <ele>381.2</ele>
        <time>2013-06-09T11:38:05.000Z</time>
      </trkpt>
      <trkpt lat="47.29821" lon="6.11248">
        <ele>381.3</ele>
        <time>2013-06-09T11:38:06.000Z</time>
      </trkpt>
      <trkpt lat="47.2982" lon="6.11242">
        <ele>381.7</ele>
        <time>2013-06-09T11:38:09.000Z</time>
      </trkpt>
      <trkpt lat="47.2982" lon="6.1124">
        <ele>381.7</ele>
        <time>2013-06-09T11:38:10.000Z</time>
      </trkpt>
      <trkpt lat="47.29819" lon="6.11234">
        <ele>380.8</ele>
        <time>2013-06-09T11:38:13.000Z</time>
      </trkpt>
      <trkpt lat="47.29819" lon="6.11232">
        <ele>380.4</ele>
        <time>2013-06-09T11:38:14.000Z</time>
      </trkpt>
      <trkpt lat="47.29818" lon="6.11226">
        <ele>379.3</ele>
        <time>2013-06-09T11:38:17.000Z</time>
      </trkpt>
      <trkpt lat="47.29818" lon="6.11224">
        <ele>379</ele>
        <time>2013-06-09T11:38:18.000Z</time>
      </trkpt>
      <trkpt lat="47.29818" lon="6.11218">
        <ele>378.8</ele>
        <time>2013-06-09T11:38:21.000Z</time>
      </trkpt>
      <trkpt lat="47.29818" lon="6.11216">
        <ele>378.7</ele>
        <time>2013-06-09T11:38:22.000Z</time>
      </trkpt>
      <trkpt lat="47.29818" lon="6.1121">
        <ele>377.9</ele>
        <time>2013-06-09T11:38:25.000Z</time>
      </trkpt>
      <trkpt lat="47.29817" lon="6.11208">
        <ele>377.8</ele>
        <time>2013-06-09T11:38:26.000Z</time>
      </trkpt>
      <trkpt lat="47.29817" lon="6.11202">
        <ele>377.3</ele>
        <time>2013-06-09T11:38:29.000Z</time>
      </trkpt>
      <trkpt lat="47.29817" lon="6.112">
        <ele>377.3</ele>
        <time>2013-06-09T11:38:30.000Z</time>
      </trkpt>
      <trkpt lat="47.29817" lon="6.11193">
        <ele>377.5</ele>
        <time>2013-06-09T11:38:33.000Z</time>
      </trkpt>
      <trkpt lat="47.29817" lon="6.11191">
        <ele>377.9</ele>
        <time>2013-06-09T11:38:34.000Z</time>
      </trkpt>
      <trkpt lat="47.29817" lon="6.11185">
        <ele>378.2</ele>
        <time>2013-06-09T11:38:37.000Z</time>
      </trkpt>
      <trkpt lat="47.29816" lon="6.11183">
        <ele>378.4</ele>
        <time>2013-06-09T11:38:38.000Z</time>
      </trkpt>
      <trkpt lat="47.29815" lon="6.11178">
        <ele>379</ele>
        <time>2013-06-09T11:38:41.000Z</time>
      </trkpt>
      <trkpt lat="47.29815" lon="6.11176">
        <ele>379.1</ele>
        <time>2013-06-09T11:38:42.000Z</time>
      </trkpt>
      <trkpt lat="47.29814" lon="6.1117">
        <ele>378.8</ele>
        <time>2013-06-09T11:38:45.000Z</time>
      </trkpt>
      <trkpt lat="47.29813" lon="6.11168">
        <ele>378.1</ele>
        <time>2013-06-09T11:38:46.000Z</time>
      </trkpt>
      <trkpt lat="47.29813" lon="6.11162">
        <ele>378.3</ele>
        <time>2013-06-09T11:38:49.000Z</time>
      </trkpt>
      <trkpt lat="47.29812" lon="6.1116">
        <ele>378.4</ele>
        <time>2013-06-09T11:38:50.000Z</time>
      </trkpt>
      <trkpt lat="47.29812" lon="6.11153">
        <ele>379.2</ele>
        <time>2013-06-09T11:38:53.000Z</time>
      </trkpt>
      <trkpt lat="47.29811" lon="6.11152">
        <ele>379.2</ele>
        <time>2013-06-09T11:38:54.000Z</time>
      </trkpt>
      <trkpt lat="47.29811" lon="6.11145">
        <ele>379.7</ele>
        <time>2013-06-09T11:38:58.000Z</time>
      </trkpt>
      <trkpt lat="47.29811" lon="6.11144">
        <ele>379.9</ele>
        <time>2013-06-09T11:38:59.000Z</time>
      </trkpt>
      <trkpt lat="47.2981" lon="6.11139">
        <ele>380.8</ele>
        <time>2013-06-09T11:39:05.000Z</time>
      </trkpt>
      <trkpt lat="47.2981" lon="6.11137">
        <ele>381</ele>
        <time>2013-06-09T11:39:06.000Z</time>
      </trkpt>
      <trkpt lat="47.29808" lon="6.11132">
        <ele>380.9</ele>
        <time>2013-06-09T11:39:09.000Z</time>
      </trkpt>
      <trkpt lat="47.29808" lon="6.1113">
        <ele>380.6</ele>
        <time>2013-06-09T11:39:10.000Z</time>
      </trkpt>
      <trkpt lat="47.29807" lon="6.11123">
        <ele>379.9</ele>
        <time>2013-06-09T11:39:13.000Z</time>
      </trkpt>
      <trkpt lat="47.29806" lon="6.11121">
        <ele>380</ele>
        <time>2013-06-09T11:39:14.000Z</time>
      </trkpt>
      <trkpt lat="47.29805" lon="6.11115">
        <ele>380.7</ele>
        <time>2013-06-09T11:39:17.000Z</time>
      </trkpt>
      <trkpt lat="47.29804" lon="6.11113">
        <ele>380.8</ele>
        <time>2013-06-09T11:39:18.000Z</time>
      </trkpt>
      <trkpt lat="47.29803" lon="6.11107">
        <ele>379.4</ele>
        <time>2013-06-09T11:39:21.000Z</time>
      </trkpt>
      <trkpt lat="47.29803" lon="6.11105">
        <ele>379.1</ele>
        <time>2013-06-09T11:39:22.000Z</time>
      </trkpt>
      <trkpt lat="47.29801" lon="6.11099">
        <ele>380</ele>
        <time>2013-06-09T11:39:25.000Z</time>
      </trkpt>
      <trkpt lat="47.29801" lon="6.11097">
        <ele>380.3</ele>
        <time>2013-06-09T11:39:26.000Z</time>
      </trkpt>
      <trkpt lat="47.298" lon="6.11091">
        <ele>380.4</ele>
        <time>2013-06-09T11:39:29.000Z</time>
      </trkpt>
      <trkpt lat="47.298" lon="6.11089">
        <ele>380.4</ele>
        <time>2013-06-09T11:39:30.000Z</time>
      </trkpt>
      <trkpt lat="47.29799" lon="6.11084">
        <ele>380.6</ele>
        <time>2013-06-09T11:39:33.000Z</time>
      </trkpt>
      <trkpt lat="47.29799" lon="6.11082">
        <ele>380.6</ele>
        <time>2013-06-09T11:39:34.000Z</time>
      </trkpt>
      <trkpt lat="47.29799" lon="6.11076">
        <ele>381</ele>
        <time>2013-06-09T11:39:37.000Z</time>
      </trkpt>
      <trkpt lat="47.29798" lon="6.11074">
        <ele>381</ele>
        <time>2013-06-09T11:39:38.000Z</time>
      </trkpt>
      <trkpt lat="47.29797" lon="6.11069">
        <ele>380.5</ele>
        <time>2013-06-09T11:39:41.000Z</time>
      </trkpt>
      <trkpt lat="47.29796" lon="6.11067">
        <ele>380.2</ele>
        <time>2013-06-09T11:39:42.000Z</time>
      </trkpt>
      <trkpt lat="47.29795" lon="6.11061">
        <ele>379.5</ele>
        <time>2013-06-09T11:39:45.000Z</time>
      </trkpt>
      <trkpt lat="47.29795" lon="6.11059">
        <ele>379.4</ele>
        <time>2013-06-09T11:39:46.000Z</time>
      </trkpt>
      <trkpt lat="47.29795" lon="6.11053">
        <ele>379.6</ele>
        <time>2013-06-09T11:39:49.000Z</time>
      </trkpt>
      <trkpt lat="47.29794" lon="6.11051">
        <ele>379.7</ele>
        <time>2013-06-09T11:39:50.000Z</time>
      </trkpt>
      <trkpt lat="47.29794" lon="6.11045">
        <ele>379</ele>
        <time>2013-06-09T11:39:53.000Z</time>
      </trkpt>
      <trkpt lat="47.29793" lon="6.11044">
        <ele>379</ele>
        <time>2013-06-09T11:39:54.000Z</time>
      </trkpt>
      <trkpt lat="47.29792" lon="6.11038">
        <ele>379.5</ele>
        <time>2013-06-09T11:39:57.000Z</time>
      </trkpt>
      <trkpt lat="47.29792" lon="6.11037">
        <ele>379.8</ele>
        <time>2013-06-09T11:39:58.000Z</time>
      </trkpt>
      <trkpt lat="47.29791" lon="6.11031">
        <ele>379.3</ele>
        <time>2013-06-09T11:40:01.000Z</time>
      </trkpt>
      <trkpt lat="47.2979" lon="6.11029">
        <ele>379</ele>
        <time>2013-06-09T11:40:02.000Z</time>
      </trkpt>
      <trkpt lat="47.29789" lon="6.11023">
        <ele>377.9</ele>
        <time>2013-06-09T11:40:05.000Z</time>
      </trkpt>
      <trkpt lat="47.29789" lon="6.11021">
        <ele>376.9</ele>
        <time>2013-06-09T11:40:06.000Z</time>
      </trkpt>
      <trkpt lat="47.29788" lon="6.11016">
        <ele>374.5</ele>
        <time>2013-06-09T11:40:08.000Z</time>
      </trkpt>
      <trkpt lat="47.29788" lon="6.11014">
        <ele>373.9</ele>
        <time>2013-06-09T11:40:09.000Z</time>
      </trkpt>
      <trkpt lat="47.29788" lon="6.11009">
        <ele>373</ele>
        <time>2013-06-09T11:40:11.000Z</time>
      </trkpt>
      <trkpt lat="47.29788" lon="6.11006">
        <ele>372.7</ele>
        <time>2013-06-09T11:40:12.000Z</time>
      </trkpt>
      <trkpt lat="47.29787" lon="6.11002">
        <ele>372.2</ele>
        <time>2013-06-09T11:40:14.000Z</time>
      </trkpt>
      <trkpt lat="47.29787" lon="6.10999">
        <ele>372</ele>
        <time>2013-06-09T11:40:15.000Z</time>
      </trkpt>
      <trkpt lat="47.29787" lon="6.10995">
        <ele>371.4</ele>
        <time>2013-06-09T11:40:17.000Z</time>
      </trkpt>
      <trkpt lat="47.29787" lon="6.10992">
        <ele>370.9</ele>
        <time>2013-06-09T11:40:18.000Z</time>
      </trkpt>
      <trkpt lat="47.29786" lon="6.10987">
        <ele>370.5</ele>
        <time>2013-06-09T11:40:20.000Z</time>
      </trkpt>
      <trkpt lat="47.29786" lon="6.10985">
        <ele>370.6</ele>
        <time>2013-06-09T11:40:21.000Z</time>
      </trkpt>
      <trkpt lat="47.29785" lon="6.10979">
        <ele>371.3</ele>
        <time>2013-06-09T11:40:24.000Z</time>
      </trkpt>
      <trkpt lat="47.29785" lon="6.10976">
        <ele>371.5</ele>
        <time>2013-06-09T11:40:25.000Z</time>
      </trkpt>
      <trkpt lat="47.29784" lon="6.1097">
        <ele>371.2</ele>
        <time>2013-06-09T11:40:28.000Z</time>
      </trkpt>
      <trkpt lat="47.29784" lon="6.10968">
        <ele>371.4</ele>
        <time>2013-06-09T11:40:29.000Z</time>
      </trkpt>
      <trkpt lat="47.29783" lon="6.10963">
        <ele>372.5</ele>
        <time>2013-06-09T11:40:32.000Z</time>
      </trkpt>
      <trkpt lat="47.29783" lon="6.10961">
        <ele>372.8</ele>
        <time>2013-06-09T11:40:33.000Z</time>
      </trkpt>
      <trkpt lat="47.29783" lon="6.10955">
        <ele>373.2</ele>
        <time>2013-06-09T11:40:36.000Z</time>
      </trkpt>
      <trkpt lat="47.29783" lon="6.10953">
        <ele>373.4</ele>
        <time>2013-06-09T11:40:37.000Z</time>
      </trkpt>
      <trkpt lat="47.29784" lon="6.10947">
        <ele>373.9</ele>
        <time>2013-06-09T11:40:40.000Z</time>
      </trkpt>
      <trkpt lat="47.29784" lon="6.10945">
        <ele>374.2</ele>
        <time>2013-06-09T11:40:41.000Z</time>
      </trkpt>
      <trkpt lat="47.29784" lon="6.1094">
        <ele>373.3</ele>
        <time>2013-06-09T11:40:44.000Z</time>
      </trkpt>
      <trkpt lat="47.29784" lon="6.10938">
        <ele>372.8</ele>
        <time>2013-06-09T11:40:45.000Z</time>
      </trkpt>
      <trkpt lat="47.29783" lon="6.10932">
        <ele>372.4</ele>
        <time>2013-06-09T11:40:48.000Z</time>
      </trkpt>
      <trkpt lat="47.29782" lon="6.1093">
        <ele>372.7</ele>
        <time>2013-06-09T11:40:49.000Z</time>
      </trkpt>
      <trkpt lat="47.29781" lon="6.10924">
        <ele>373.3</ele>
        <time>2013-06-09T11:40:52.000Z</time>
      </trkpt>
      <trkpt lat="47.29781" lon="6.10922">
        <ele>373.3</ele>
        <time>2013-06-09T11:40:53.000Z</time>
      </trkpt>
      <trkpt lat="47.29781" lon="6.10916">
        <ele>373.4</ele>
        <time>2013-06-09T11:40:56.000Z</time>
      </trkpt>
      <trkpt lat="47.29781" lon="6.10914">
        <ele>373.2</ele>
        <time>2013-06-09T11:40:57.000Z</time>
      </trkpt>
      <trkpt lat="47.29782" lon="6.10908">
        <ele>371.2</ele>
        <time>2013-06-09T11:41:00.000Z</time>
      </trkpt>
      <trkpt lat="47.29782" lon="6.10905">
        <ele>370.8</ele>
        <time>2013-06-09T11:41:01.000Z</time>
      </trkpt>
      <trkpt lat="47.29782" lon="6.10901">
        <ele>371.3</ele>
        <time>2013-06-09T11:41:03.000Z</time>
      </trkpt>
      <trkpt lat="47.29782" lon="6.10898">
        <ele>371.4</ele>
        <time>2013-06-09T11:41:04.000Z</time>
      </trkpt>
      <trkpt lat="47.29782" lon="6.10892">
        <ele>372.5</ele>
        <time>2013-06-09T11:41:07.000Z</time>
      </trkpt>
      <trkpt lat="47.29783" lon="6.1089">
        <ele>372.4</ele>
        <time>2013-06-09T11:41:08.000Z</time>
      </trkpt>
      <trkpt lat="47.29783" lon="6.10884">
        <ele>373</ele>
        <time>2013-06-09T11:41:11.000Z</time>
      </trkpt>
      <trkpt lat="47.29782" lon="6.10882">
        <ele>373.1</ele>
        <time>2013-06-09T11:41:12.000Z</time>
      </trkpt>
      <trkpt lat="47.29783" lon="6.10877">
        <ele>373.2</ele>
        <time>2013-06-09T11:41:15.000Z</time>
      </trkpt>
      <trkpt lat="47.29783" lon="6.10875">
        <ele>373.3</ele>
        <time>2013-06-09T11:41:16.000Z</time>
      </trkpt>
      <trkpt lat="47.29784" lon="6.1087">
        <ele>373.6</ele>
        <time>2013-06-09T11:41:19.000Z</time>
      </trkpt>
      <trkpt lat="47.29784" lon="6.10868">
        <ele>373.5</ele>
        <time>2013-06-09T11:41:20.000Z</time>
      </trkpt>
      <trkpt lat="47.29785" lon="6.10862">
        <ele>373.6</ele>
        <time>2013-06-09T11:41:23.000Z</time>
      </trkpt>
      <trkpt lat="47.29785" lon="6.1086">
        <ele>373.9</ele>
        <time>2013-06-09T11:41:24.000Z</time>
      </trkpt>
      <trkpt lat="47.29786" lon="6.10854">
        <ele>374.6</ele>
        <time>2013-06-09T11:41:27.000Z</time>
      </trkpt>
      <trkpt lat="47.29786" lon="6.10852">
        <ele>374.6</ele>
        <time>2013-06-09T11:41:28.000Z</time>
      </trkpt>
      <trkpt lat="47.29787" lon="6.10846">
        <ele>374.6</ele>
        <time>2013-06-09T11:41:31.000Z</time>
      </trkpt>
      <trkpt lat="47.29787" lon="6.10844">
        <ele>373.9</ele>
        <time>2013-06-09T11:41:32.000Z</time>
      </trkpt>
      <trkpt lat="47.29787" lon="6.10837">
        <ele>372.7</ele>
        <time>2013-06-09T11:41:35.000Z</time>
      </trkpt>
      <trkpt lat="47.29787" lon="6.10835">
        <ele>372.8</ele>
        <time>2013-06-09T11:41:36.000Z</time>
      </trkpt>
      <trkpt lat="47.29787" lon="6.1083">
        <ele>372.5</ele>
        <time>2013-06-09T11:41:38.000Z</time>
      </trkpt>
      <trkpt lat="47.29787" lon="6.10828">
        <ele>372.4</ele>
        <time>2013-06-09T11:41:39.000Z</time>
      </trkpt>
      <trkpt lat="47.29788" lon="6.10823">
        <ele>371.4</ele>
        <time>2013-06-09T11:41:41.000Z</time>
      </trkpt>
      <trkpt lat="47.29788" lon="6.10821">
        <ele>371</ele>
        <time>2013-06-09T11:41:42.000Z</time>
      </trkpt>
      <trkpt lat="47.29787" lon="6.10814">
        <ele>371.2</ele>
        <time>2013-06-09T11:41:45.000Z</time>
      </trkpt>
      <trkpt lat="47.29787" lon="6.10812">
        <ele>371.3</ele>
        <time>2013-06-09T11:41:46.000Z</time>
      </trkpt>
      <trkpt lat="47.29786" lon="6.10806">
        <ele>371.7</ele>
        <time>2013-06-09T11:41:49.000Z</time>
      </trkpt>
      <trkpt lat="47.29786" lon="6.10804">
        <ele>371.9</ele>
        <time>2013-06-09T11:41:50.000Z</time>
      </trkpt>
      <trkpt lat="47.29786" lon="6.10798">
        <ele>372.4</ele>
        <time>2013-06-09T11:41:53.000Z</time>
      </trkpt>
      <trkpt lat="47.29786" lon="6.10796">
        <ele>372.4</ele>
        <time>2013-06-09T11:41:54.000Z</time>
      </trkpt>
      <trkpt lat="47.29786" lon="6.1079">
        <ele>372.8</ele>
        <time>2013-06-09T11:41:57.000Z</time>
      </trkpt>
      <trkpt lat="47.29786" lon="6.10787">
        <ele>373</ele>
        <time>2013-06-09T11:41:58.000Z</time>
      </trkpt>
      <trkpt lat="47.29786" lon="6.10782">
        <ele>373.9</ele>
        <time>2013-06-09T11:42:01.000Z</time>
      </trkpt>
      <trkpt lat="47.29786" lon="6.1078">
        <ele>374.1</ele>
        <time>2013-06-09T11:42:02.000Z</time>
      </trkpt>
      <trkpt lat="47.29785" lon="6.10774">
        <ele>374.3</ele>
        <time>2013-06-09T11:42:05.000Z</time>
      </trkpt>
      <trkpt lat="47.29785" lon="6.10773">
        <ele>374.6</ele>
        <time>2013-06-09T11:42:06.000Z</time>
      </trkpt>
      <trkpt lat="47.29783" lon="6.10767">
        <ele>374.8</ele>
        <time>2013-06-09T11:42:09.000Z</time>
      </trkpt>
      <trkpt lat="47.29783" lon="6.10765">
        <ele>374.7</ele>
        <time>2013-06-09T11:42:10.000Z</time>
      </trkpt>
      <trkpt lat="47.29782" lon="6.1076">
        <ele>374.8</ele>
        <time>2013-06-09T11:42:13.000Z</time>
      </trkpt>
      <trkpt lat="47.29781" lon="6.10758">
        <ele>374.8</ele>
        <time>2013-06-09T11:42:14.000Z</time>
      </trkpt>
      <trkpt lat="47.29779" lon="6.10753">
        <ele>375.3</ele>
        <time>2013-06-09T11:42:17.000Z</time>
      </trkpt>
      <trkpt lat="47.29779" lon="6.10752">
        <ele>375.3</ele>
        <time>2013-06-09T11:42:18.000Z</time>
      </trkpt>
      <trkpt lat="47.29777" lon="6.10747">
        <ele>375.4</ele>
        <time>2013-06-09T11:42:21.000Z</time>
      </trkpt>
      <trkpt lat="47.29777" lon="6.10745">
        <ele>375.6</ele>
        <time>2013-06-09T11:42:22.000Z</time>
      </trkpt>
      <trkpt lat="47.29776" lon="6.1074">
        <ele>375.4</ele>
        <time>2013-06-09T11:42:25.000Z</time>
      </trkpt>
      <trkpt lat="47.29775" lon="6.10739">
        <ele>375.4</ele>
        <time>2013-06-09T11:42:26.000Z</time>
      </trkpt>
      <trkpt lat="47.29774" lon="6.10734">
        <ele>375.7</ele>
        <time>2013-06-09T11:42:29.000Z</time>
      </trkpt>
      <trkpt lat="47.29774" lon="6.10732">
        <ele>375.5</ele>
        <time>2013-06-09T11:42:30.000Z</time>
      </trkpt>
      <trkpt lat="47.29773" lon="6.10727">
        <ele>375.4</ele>
        <time>2013-06-09T11:42:33.000Z</time>
      </trkpt>
      <trkpt lat="47.29773" lon="6.10725">
        <ele>375.6</ele>
        <time>2013-06-09T11:42:34.000Z</time>
      </trkpt>
      <trkpt lat="47.29773" lon="6.1072">
        <ele>375.1</ele>
        <time>2013-06-09T11:42:37.000Z</time>
      </trkpt>
      <trkpt lat="47.29773" lon="6.10718">
        <ele>375.1</ele>
        <time>2013-06-09T11:42:38.000Z</time>
      </trkpt>
      <trkpt lat="47.29774" lon="6.10711">
        <ele>374.7</ele>
        <time>2013-06-09T11:42:41.000Z</time>
      </trkpt>
      <trkpt lat="47.29774" lon="6.10709">
        <ele>374.4</ele>
        <time>2013-06-09T11:42:42.000Z</time>
      </trkpt>
      <trkpt lat="47.29775" lon="6.10705">
        <ele>374</ele>
        <time>2013-06-09T11:42:44.000Z</time>
      </trkpt>
      <trkpt lat="47.29775" lon="6.10703">
        <ele>374</ele>
        <time>2013-06-09T11:42:45.000Z</time>
      </trkpt>
      <trkpt lat="47.29776" lon="6.10699">
        <ele>374.8</ele>
        <time>2013-06-09T11:42:47.000Z</time>
      </trkpt>
      <trkpt lat="47.29777" lon="6.10696">
        <ele>374.8</ele>
        <time>2013-06-09T11:42:48.000Z</time>
      </trkpt>
      <trkpt lat="47.29779" lon="6.10692">
        <ele>374.8</ele>
        <time>2013-06-09T11:42:50.000Z</time>
      </trkpt>
      <trkpt lat="47.2978" lon="6.1069">
        <ele>374.9</ele>
        <time>2013-06-09T11:42:51.000Z</time>
      </trkpt>
      <trkpt lat="47.29781" lon="6.10686">
        <ele>375.6</ele>
        <time>2013-06-09T11:42:53.000Z</time>
      </trkpt>
      <trkpt lat="47.29783" lon="6.10685">
        <ele>375.6</ele>
        <time>2013-06-09T11:42:54.000Z</time>
      </trkpt>
      <trkpt lat="47.29785" lon="6.10682">
        <ele>375.9</ele>
        <time>2013-06-09T11:42:56.000Z</time>
      </trkpt>
      <trkpt lat="47.29786" lon="6.1068">
        <ele>376.1</ele>
        <time>2013-06-09T11:42:57.000Z</time>
      </trkpt>
      <trkpt lat="47.2979" lon="6.10679">
        <ele>376.5</ele>
        <time>2013-06-09T11:43:00.000Z</time>
      </trkpt>
      <trkpt lat="47.29792" lon="6.10679">
        <ele>376.6</ele>
        <time>2013-06-09T11:43:01.000Z</time>
      </trkpt>
      <trkpt lat="47.29796" lon="6.10679">
        <ele>377.4</ele>
        <time>2013-06-09T11:43:04.000Z</time>
      </trkpt>
      <trkpt lat="47.29796" lon="6.1068">
        <ele>377.5</ele>
        <time>2013-06-09T11:43:05.000Z</time>
      </trkpt>
      <trkpt lat="47.29799" lon="6.10684">
        <ele>378.1</ele>
        <time>2013-06-09T11:43:08.000Z</time>
      </trkpt>
      <trkpt lat="47.29799" lon="6.10686">
        <ele>377.9</ele>
        <time>2013-06-09T11:43:09.000Z</time>
      </trkpt>
      <trkpt lat="47.29801" lon="6.10691">
        <ele>377.9</ele>
        <time>2013-06-09T11:43:13.000Z</time>
      </trkpt>
      <trkpt lat="47.29802" lon="6.10693">
        <ele>377.8</ele>
        <time>2013-06-09T11:43:14.000Z</time>
      </trkpt>
      <trkpt lat="47.29804" lon="6.10696">
        <ele>377.5</ele>
        <time>2013-06-09T11:43:17.000Z</time>
      </trkpt>
      <trkpt lat="47.29805" lon="6.10697">
        <ele>377.3</ele>
        <time>2013-06-09T11:43:18.000Z</time>
      </trkpt>
      <trkpt lat="47.29807" lon="6.10703">
        <ele>377.3</ele>
        <time>2013-06-09T11:43:22.000Z</time>
      </trkpt>
      <trkpt lat="47.29808" lon="6.10704">
        <ele>377.4</ele>
        <time>2013-06-09T11:43:23.000Z</time>
      </trkpt>
      <trkpt lat="47.29811" lon="6.10708">
        <ele>377.7</ele>
        <time>2013-06-09T11:43:27.000Z</time>
      </trkpt>
      <trkpt lat="47.29812" lon="6.10709">
        <ele>377.4</ele>
        <time>2013-06-09T11:43:28.000Z</time>
      </trkpt>
      <trkpt lat="47.29815" lon="6.10714">
        <ele>377.7</ele>
        <time>2013-06-09T11:43:31.000Z</time>
      </trkpt>
      <trkpt lat="47.29816" lon="6.10715">
        <ele>377.6</ele>
        <time>2013-06-09T11:43:32.000Z</time>
      </trkpt>
      <trkpt lat="47.29818" lon="6.10719">
        <ele>377.5</ele>
        <time>2013-06-09T11:43:35.000Z</time>
      </trkpt>
      <trkpt lat="47.29819" lon="6.1072">
        <ele>377.5</ele>
        <time>2013-06-09T11:43:36.000Z</time>
      </trkpt>
      <trkpt lat="47.29821" lon="6.10724">
        <ele>378</ele>
        <time>2013-06-09T11:43:39.000Z</time>
      </trkpt>
      <trkpt lat="47.29822" lon="6.10725">
        <ele>378.2</ele>
        <time>2013-06-09T11:43:40.000Z</time>
      </trkpt>
      <trkpt lat="47.29825" lon="6.10729">
        <ele>379.3</ele>
        <time>2013-06-09T11:43:44.000Z</time>
      </trkpt>
      <trkpt lat="47.29826" lon="6.1073">
        <ele>379.5</ele>
        <time>2013-06-09T11:43:45.000Z</time>
      </trkpt>
      <trkpt lat="47.2983" lon="6.10732">
        <ele>379.3</ele>
        <time>2013-06-09T11:43:49.000Z</time>
      </trkpt>
      <trkpt lat="47.29831" lon="6.10733">
        <ele>379.6</ele>
        <time>2013-06-09T11:43:50.000Z</time>
      </trkpt>
      <trkpt lat="47.29835" lon="6.10736">
        <ele>381.3</ele>
        <time>2013-06-09T11:43:55.000Z</time>
      </trkpt>
      <trkpt lat="47.29836" lon="6.10736">
        <ele>381.9</ele>
        <time>2013-06-09T11:43:56.000Z</time>
      </trkpt>
      <trkpt lat="47.29839" lon="6.10738">
        <ele>382.6</ele>
        <time>2013-06-09T11:44:00.000Z</time>
      </trkpt>
      <trkpt lat="47.2984" lon="6.10739">
        <ele>382.5</ele>
        <time>2013-06-09T11:44:01.000Z</time>
      </trkpt>
      <trkpt lat="47.29842" lon="6.10743">
        <ele>384.3</ele>
        <time>2013-06-09T11:44:04.000Z</time>
      </trkpt>
      <trkpt lat="47.29843" lon="6.10744">
        <ele>384.5</ele>
        <time>2013-06-09T11:44:05.000Z</time>
      </trkpt>
      <trkpt lat="47.29846" lon="6.10748">
        <ele>385.1</ele>
        <time>2013-06-09T11:44:09.000Z</time>
      </trkpt>
      <trkpt lat="47.29847" lon="6.10749">
        <ele>385.3</ele>
        <time>2013-06-09T11:44:10.000Z</time>
      </trkpt>
      <trkpt lat="47.29851" lon="6.10751">
        <ele>385.2</ele>
        <time>2013-06-09T11:44:14.000Z</time>
      </trkpt>
      <trkpt lat="47.29852" lon="6.10752">
        <ele>385.3</ele>
        <time>2013-06-09T11:44:15.000Z</time>
      </trkpt>
      <trkpt lat="47.29855" lon="6.10755">
        <ele>385.9</ele>
        <time>2013-06-09T11:44:18.000Z</time>
      </trkpt>
      <trkpt lat="47.29856" lon="6.10756">
        <ele>386.1</ele>
        <time>2013-06-09T11:44:19.000Z</time>
      </trkpt>
      <trkpt lat="47.29859" lon="6.10759">
        <ele>386.7</ele>
        <time>2013-06-09T11:44:22.000Z</time>
      </trkpt>
      <trkpt lat="47.2986" lon="6.1076">
        <ele>387.1</ele>
        <time>2013-06-09T11:44:23.000Z</time>
      </trkpt>
      <trkpt lat="47.29863" lon="6.10764">
        <ele>388.1</ele>
        <time>2013-06-09T11:44:27.000Z</time>
      </trkpt>
      <trkpt lat="47.29864" lon="6.10765">
        <ele>388.6</ele>
        <time>2013-06-09T11:44:28.000Z</time>
      </trkpt>
      <trkpt lat="47.29867" lon="6.10767">
        <ele>389.4</ele>
        <time>2013-06-09T11:44:31.000Z</time>
      </trkpt>
      <trkpt lat="47.29868" lon="6.10768">
        <ele>389.5</ele>
        <time>2013-06-09T11:44:32.000Z</time>
      </trkpt>
      <trkpt lat="47.29871" lon="6.10772">
        <ele>389.2</ele>
        <time>2013-06-09T11:44:35.000Z</time>
      </trkpt>
      <trkpt lat="47.29872" lon="6.10772">
        <ele>389.3</ele>
        <time>2013-06-09T11:44:36.000Z</time>
      </trkpt>
      <trkpt lat="47.29875" lon="6.10775">
        <ele>390.2</ele>
        <time>2013-06-09T11:44:39.000Z</time>
      </trkpt>
      <trkpt lat="47.29876" lon="6.10776">
        <ele>390.5</ele>
        <time>2013-06-09T11:44:40.000Z</time>
      </trkpt>
      <trkpt lat="47.29879" lon="6.10779">
        <ele>391</ele>
        <time>2013-06-09T11:44:43.000Z</time>
      </trkpt>
      <trkpt lat="47.2988" lon="6.1078">
        <ele>391.3</ele>
        <time>2013-06-09T11:44:44.000Z</time>
      </trkpt>
      <trkpt lat="47.29883" lon="6.10784">
        <ele>392.1</ele>
        <time>2013-06-09T11:44:48.000Z</time>
      </trkpt>
      <trkpt lat="47.29884" lon="6.10785">
        <ele>392.4</ele>
        <time>2013-06-09T11:44:49.000Z</time>
      </trkpt>
      <trkpt lat="47.29888" lon="6.10789">
        <ele>393.5</ele>
        <time>2013-06-09T11:44:53.000Z</time>
      </trkpt>
      <trkpt lat="47.29888" lon="6.1079">
        <ele>393.9</ele>
        <time>2013-06-09T11:44:54.000Z</time>
      </trkpt>
      <trkpt lat="47.29891" lon="6.10794">
        <ele>394.8</ele>
        <time>2013-06-09T11:44:57.000Z</time>
      </trkpt>
      <trkpt lat="47.29891" lon="6.10796">
        <ele>395.1</ele>
        <time>2013-06-09T11:44:58.000Z</time>
      </trkpt>
      <trkpt lat="47.29894" lon="6.10798">
        <ele>395.9</ele>
        <time>2013-06-09T11:45:01.000Z</time>
      </trkpt>
      <trkpt lat="47.29895" lon="6.10799">
        <ele>396.1</ele>
        <time>2013-06-09T11:45:02.000Z</time>
      </trkpt>
      <trkpt lat="47.29898" lon="6.10802">
        <ele>397</ele>
        <time>2013-06-09T11:45:05.000Z</time>
      </trkpt>
      <trkpt lat="47.29899" lon="6.10804">
        <ele>397.4</ele>
        <time>2013-06-09T11:45:06.000Z</time>
      </trkpt>
      <trkpt lat="47.29902" lon="6.10808">
        <ele>398.1</ele>
        <time>2013-06-09T11:45:09.000Z</time>
      </trkpt>
      <trkpt lat="47.29902" lon="6.10809">
        <ele>398.5</ele>
        <time>2013-06-09T11:45:10.000Z</time>
      </trkpt>
      <trkpt lat="47.29905" lon="6.10812">
        <ele>398.7</ele>
        <time>2013-06-09T11:45:13.000Z</time>
      </trkpt>
      <trkpt lat="47.29906" lon="6.10813">
        <ele>399</ele>
        <time>2013-06-09T11:45:14.000Z</time>
      </trkpt>
      <trkpt lat="47.29909" lon="6.10817">
        <ele>399.5</ele>
        <time>2013-06-09T11:45:17.000Z</time>
      </trkpt>
      <trkpt lat="47.29909" lon="6.10818">
        <ele>399.6</ele>
        <time>2013-06-09T11:45:18.000Z</time>
      </trkpt>
      <trkpt lat="47.29913" lon="6.10822">
        <ele>400.3</ele>
        <time>2013-06-09T11:45:22.000Z</time>
      </trkpt>
      <trkpt lat="47.29914" lon="6.10823">
        <ele>400.3</ele>
        <time>2013-06-09T11:45:23.000Z</time>
      </trkpt>
      <trkpt lat="47.29916" lon="6.10827">
        <ele>400.8</ele>
        <time>2013-06-09T11:45:26.000Z</time>
      </trkpt>
      <trkpt lat="47.29917" lon="6.10829">
        <ele>400.9</ele>
        <time>2013-06-09T11:45:27.000Z</time>
      </trkpt>
      <trkpt lat="47.2992" lon="6.10834">
        <ele>401.2</ele>
        <time>2013-06-09T11:45:30.000Z</time>
      </trkpt>
      <trkpt lat="47.29921" lon="6.10836">
        <ele>401.4</ele>
        <time>2013-06-09T11:45:31.000Z</time>
      </trkpt>
      <trkpt lat="47.29923" lon="6.10839">
        <ele>401.9</ele>
        <time>2013-06-09T11:45:33.000Z</time>
      </trkpt>
      <trkpt lat="47.29924" lon="6.1084">
        <ele>401.7</ele>
        <time>2013-06-09T11:45:34.000Z</time>
      </trkpt>
      <trkpt lat="47.29927" lon="6.10845">
        <ele>401.9</ele>
        <time>2013-06-09T11:45:37.000Z</time>
      </trkpt>
      <trkpt lat="47.29928" lon="6.10846">
        <ele>402.1</ele>
        <time>2013-06-09T11:45:38.000Z</time>
      </trkpt>
      <trkpt lat="47.2993" lon="6.1085">
        <ele>402.5</ele>
        <time>2013-06-09T11:45:41.000Z</time>
      </trkpt>
      <trkpt lat="47.29931" lon="6.10851">
        <ele>402.6</ele>
        <time>2013-06-09T11:45:42.000Z</time>
      </trkpt>
      <trkpt lat="47.29934" lon="6.10855">
        <ele>403.2</ele>
        <time>2013-06-09T11:45:45.000Z</time>
      </trkpt>
      <trkpt lat="47.29935" lon="6.10856">
        <ele>403</ele>
        <time>2013-06-09T11:45:46.000Z</time>
      </trkpt>
      <trkpt lat="47.29939" lon="6.1086">
        <ele>402.9</ele>
        <time>2013-06-09T11:45:49.000Z</time>
      </trkpt>
      <trkpt lat="47.2994" lon="6.10861">
        <ele>402.9</ele>
        <time>2013-06-09T11:45:50.000Z</time>
      </trkpt>
      <trkpt lat="47.29943" lon="6.10865">
        <ele>402.6</ele>
        <time>2013-06-09T11:45:53.000Z</time>
      </trkpt>
      <trkpt lat="47.29944" lon="6.10866">
        <ele>402.6</ele>
        <time>2013-06-09T11:45:54.000Z</time>
      </trkpt>
      <trkpt lat="47.29947" lon="6.1087">
        <ele>402.8</ele>
        <time>2013-06-09T11:45:57.000Z</time>
      </trkpt>
      <trkpt lat="47.29948" lon="6.10871">
        <ele>403</ele>
        <time>2013-06-09T11:45:58.000Z</time>
      </trkpt>
      <trkpt lat="47.29951" lon="6.10874">
        <ele>403.1</ele>
        <time>2013-06-09T11:46:01.000Z</time>
      </trkpt>
      <trkpt lat="47.29951" lon="6.10876">
        <ele>403.1</ele>
        <time>2013-06-09T11:46:02.000Z</time>
      </trkpt>
      <trkpt lat="47.29954" lon="6.1088">
        <ele>403.1</ele>
        <time>2013-06-09T11:46:05.000Z</time>
      </trkpt>
      <trkpt lat="47.29954" lon="6.10881">
        <ele>403.4</ele>
        <time>2013-06-09T11:46:06.000Z</time>
      </trkpt>
      <trkpt lat="47.29956" lon="6.10887">
        <ele>404.2</ele>
        <time>2013-06-09T11:46:10.000Z</time>
      </trkpt>
      <trkpt lat="47.29957" lon="6.10888">
        <ele>404.3</ele>
        <time>2013-06-09T11:46:11.000Z</time>
      </trkpt>
      <trkpt lat="47.29958" lon="6.10893">
        <ele>405.6</ele>
        <time>2013-06-09T11:46:15.000Z</time>
      </trkpt>
      <trkpt lat="47.29959" lon="6.10895">
        <ele>406</ele>
        <time>2013-06-09T11:46:16.000Z</time>
      </trkpt>
      <trkpt lat="47.29961" lon="6.109">
        <ele>406.4</ele>
        <time>2013-06-09T11:46:20.000Z</time>
      </trkpt>
      <trkpt lat="47.29962" lon="6.10901">
        <ele>406.4</ele>
        <time>2013-06-09T11:46:21.000Z</time>
      </trkpt>
      <trkpt lat="47.29964" lon="6.10905">
        <ele>406.1</ele>
        <time>2013-06-09T11:46:24.000Z</time>
      </trkpt>
      <trkpt lat="47.29965" lon="6.10907">
        <ele>406.2</ele>
        <time>2013-06-09T11:46:25.000Z</time>
      </trkpt>
      <trkpt lat="47.29967" lon="6.10911">
        <ele>406</ele>
        <time>2013-06-09T11:46:28.000Z</time>
      </trkpt>
      <trkpt lat="47.29967" lon="6.10912">
        <ele>406</ele>
        <time>2013-06-09T11:46:29.000Z</time>
      </trkpt>
      <trkpt lat="47.29969" lon="6.10916">
        <ele>406.7</ele>
        <time>2013-06-09T11:46:32.000Z</time>
      </trkpt>
      <trkpt lat="47.2997" lon="6.10918">
        <ele>406.6</ele>
        <time>2013-06-09T11:46:33.000Z</time>
      </trkpt>
      <trkpt lat="47.29973" lon="6.10922">
        <ele>407.3</ele>
        <time>2013-06-09T11:46:36.000Z</time>
      </trkpt>
      <trkpt lat="47.29974" lon="6.10923">
        <ele>407.2</ele>
        <time>2013-06-09T11:46:37.000Z</time>
      </trkpt>
      <trkpt lat="47.29977" lon="6.10927">
        <ele>407.2</ele>
        <time>2013-06-09T11:46:40.000Z</time>
      </trkpt>
      <trkpt lat="47.29978" lon="6.10928">
        <ele>407.3</ele>
        <time>2013-06-09T11:46:41.000Z</time>
      </trkpt>
      <trkpt lat="47.2998" lon="6.10931">
        <ele>408</ele>
        <time>2013-06-09T11:46:44.000Z</time>
      </trkpt>
      <trkpt lat="47.29981" lon="6.10932">
        <ele>408.3</ele>
        <time>2013-06-09T11:46:45.000Z</time>
      </trkpt>
      <trkpt lat="47.29984" lon="6.10936">
        <ele>410.1</ele>
        <time>2013-06-09T11:46:49.000Z</time>
      </trkpt>
      <trkpt lat="47.29991" lon="6.10942">
        <ele>420.2</ele>
        <time>2013-06-09T11:46:58.000Z</time>
      </trkpt>
      <trkpt lat="47.29993" lon="6.10948">
        <ele>420.2</ele>
        <time>2013-06-09T11:47:15.000Z</time>
      </trkpt>
      <trkpt lat="47.29993" lon="6.10948">
        <ele>420.2</ele>
        <time>2013-06-09T11:47:16.000Z</time>
      </trkpt>
      <trkpt lat="47.29994" lon="6.1095">
        <ele>420.2</ele>
        <time>2013-06-09T11:47:21.000Z</time>
      </trkpt>
      <trkpt lat="47.29997" lon="6.10955">
        <ele>425.2</ele>
        <time>2013-06-09T11:47:22.000Z</time>
      </trkpt>
      <trkpt lat="47.29999" lon="6.10959">
        <ele>425</ele>
        <time>2013-06-09T11:47:23.000Z</time>
      </trkpt>
      <trkpt lat="47.30002" lon="6.10963">
        <ele>424.7</ele>
        <time>2013-06-09T11:47:24.000Z</time>
      </trkpt>
      <trkpt lat="47.30004" lon="6.10966">
        <ele>424.8</ele>
        <time>2013-06-09T11:47:25.000Z</time>
      </trkpt>
      <trkpt lat="47.30007" lon="6.10969">
        <ele>424.8</ele>
        <time>2013-06-09T11:47:26.000Z</time>
      </trkpt>
      <trkpt lat="47.30009" lon="6.10972">
        <ele>424.9</ele>
        <time>2013-06-09T11:47:27.000Z</time>
      </trkpt>
      <trkpt lat="47.30011" lon="6.10974">
        <ele>424.6</ele>
        <time>2013-06-09T11:47:28.000Z</time>
      </trkpt>
      <trkpt lat="47.30013" lon="6.10975">
        <ele>424.3</ele>
        <time>2013-06-09T11:47:29.000Z</time>
      </trkpt>
      <trkpt lat="47.30015" lon="6.10976">
        <ele>424.1</ele>
        <time>2013-06-09T11:47:30.000Z</time>
      </trkpt>
      <trkpt lat="47.30019" lon="6.10979">
        <ele>423.6</ele>
        <time>2013-06-09T11:47:32.000Z</time>
      </trkpt>
      <trkpt lat="47.3002" lon="6.1098">
        <ele>423.4</ele>
        <time>2013-06-09T11:47:33.000Z</time>
      </trkpt>
      <trkpt lat="47.30023" lon="6.10983">
        <ele>423.4</ele>
        <time>2013-06-09T11:47:35.000Z</time>
      </trkpt>
      <trkpt lat="47.30025" lon="6.10984">
        <ele>423.4</ele>
        <time>2013-06-09T11:47:36.000Z</time>
      </trkpt>
      <trkpt lat="47.30028" lon="6.10987">
        <ele>423.1</ele>
        <time>2013-06-09T11:47:39.000Z</time>
      </trkpt>
      <trkpt lat="47.30029" lon="6.10988">
        <ele>422.9</ele>
        <time>2013-06-09T11:47:40.000Z</time>
      </trkpt>
      <trkpt lat="47.30032" lon="6.10991">
        <ele>422.7</ele>
        <time>2013-06-09T11:47:43.000Z</time>
      </trkpt>
      <trkpt lat="47.30033" lon="6.10991">
        <ele>422.5</ele>
        <time>2013-06-09T11:47:44.000Z</time>
      </trkpt>
      <trkpt lat="47.30037" lon="6.10992">
        <ele>422</ele>
        <time>2013-06-09T11:47:48.000Z</time>
      </trkpt>
      <trkpt lat="47.30038" lon="6.10993">
        <ele>422.2</ele>
        <time>2013-06-09T11:47:49.000Z</time>
      </trkpt>
      <trkpt lat="47.30045" lon="6.10999">
        <ele>428.6</ele>
        <time>2013-06-09T11:48:00.000Z</time>
      </trkpt>
      <trkpt lat="47.30046" lon="6.11005">
        <ele>428.6</ele>
        <time>2013-06-09T11:48:16.000Z</time>
      </trkpt>
      <trkpt lat="47.30046" lon="6.11005">
        <ele>428.6</ele>
        <time>2013-06-09T11:48:17.000Z</time>
      </trkpt>
      <trkpt lat="47.30047" lon="6.11007">
        <ele>428.6</ele>
        <time>2013-06-09T11:48:21.000Z</time>
      </trkpt>
      <trkpt lat="47.3005" lon="6.1101">
        <ele>424.7</ele>
        <time>2013-06-09T11:48:22.000Z</time>
      </trkpt>
      <trkpt lat="47.30054" lon="6.11012">
        <ele>424.9</ele>
        <time>2013-06-09T11:48:23.000Z</time>
      </trkpt>
      <trkpt lat="47.30057" lon="6.11015">
        <ele>424.7</ele>
        <time>2013-06-09T11:48:24.000Z</time>
      </trkpt>
      <trkpt lat="47.3006" lon="6.11016">
        <ele>425.5</ele>
        <time>2013-06-09T11:48:25.000Z</time>
      </trkpt>
      <trkpt lat="47.30062" lon="6.11018">
        <ele>426.2</ele>
        <time>2013-06-09T11:48:26.000Z</time>
      </trkpt>
      <trkpt lat="47.30065" lon="6.11019">
        <ele>426</ele>
        <time>2013-06-09T11:48:27.000Z</time>
      </trkpt>
      <trkpt lat="47.30067" lon="6.11021">
        <ele>426.2</ele>
        <time>2013-06-09T11:48:28.000Z</time>
      </trkpt>
      <trkpt lat="47.30069" lon="6.11022">
        <ele>426.1</ele>
        <time>2013-06-09T11:48:29.000Z</time>
      </trkpt>
      <trkpt lat="47.30071" lon="6.11024">
        <ele>426</ele>
        <time>2013-06-09T11:48:30.000Z</time>
      </trkpt>
      <trkpt lat="47.30075" lon="6.11026">
        <ele>426.2</ele>
        <time>2013-06-09T11:48:32.000Z</time>
      </trkpt>
      <trkpt lat="47.30076" lon="6.11027">
        <ele>426.3</ele>
        <time>2013-06-09T11:48:33.000Z</time>
      </trkpt>
      <trkpt lat="47.30079" lon="6.1103">
        <ele>427.5</ele>
        <time>2013-06-09T11:48:35.000Z</time>
      </trkpt>
      <trkpt lat="47.3008" lon="6.11032">
        <ele>427.8</ele>
        <time>2013-06-09T11:48:36.000Z</time>
      </trkpt>
      <trkpt lat="47.30082" lon="6.11035">
        <ele>428.3</ele>
        <time>2013-06-09T11:48:38.000Z</time>
      </trkpt>
      <trkpt lat="47.30083" lon="6.11036">
        <ele>428.3</ele>
        <time>2013-06-09T11:48:39.000Z</time>
      </trkpt>
      <trkpt lat="47.30086" lon="6.11041">
        <ele>429.3</ele>
        <time>2013-06-09T11:48:42.000Z</time>
      </trkpt>
      <trkpt lat="47.30086" lon="6.11042">
        <ele>429.8</ele>
        <time>2013-06-09T11:48:43.000Z</time>
      </trkpt>
      <trkpt lat="47.30088" lon="6.11047">
        <ele>433</ele>
        <time>2013-06-09T11:48:46.000Z</time>
      </trkpt>
      <trkpt lat="47.30089" lon="6.11049">
        <ele>433.5</ele>
        <time>2013-06-09T11:48:47.000Z</time>
      </trkpt>
      <trkpt lat="47.30091" lon="6.11052">
        <ele>432.8</ele>
        <time>2013-06-09T11:48:49.000Z</time>
      </trkpt>
      <trkpt lat="47.30092" lon="6.11053">
        <ele>433.5</ele>
        <time>2013-06-09T11:48:50.000Z</time>
      </trkpt>
      <trkpt lat="47.30095" lon="6.11056">
        <ele>433.3</ele>
        <time>2013-06-09T11:48:53.000Z</time>
      </trkpt>
      <trkpt lat="47.30096" lon="6.11057">
        <ele>433.2</ele>
        <time>2013-06-09T11:48:54.000Z</time>
      </trkpt>
      <trkpt lat="47.301" lon="6.11061">
        <ele>431.9</ele>
        <time>2013-06-09T11:48:58.000Z</time>
      </trkpt>
      <trkpt lat="47.301" lon="6.11062">
        <ele>431.6</ele>
        <time>2013-06-09T11:48:59.000Z</time>
      </trkpt>
      <trkpt lat="47.30103" lon="6.11067">
        <ele>431.1</ele>
        <time>2013-06-09T11:49:03.000Z</time>
      </trkpt>
      <trkpt lat="47.30104" lon="6.11068">
        <ele>431.3</ele>
        <time>2013-06-09T11:49:04.000Z</time>
      </trkpt>
      <trkpt lat="47.30106" lon="6.11072">
        <ele>430.9</ele>
        <time>2013-06-09T11:49:08.000Z</time>
      </trkpt>
      <trkpt lat="47.30107" lon="6.11073">
        <ele>430.5</ele>
        <time>2013-06-09T11:49:09.000Z</time>
      </trkpt>
      <trkpt lat="47.3011" lon="6.11077">
        <ele>430.8</ele>
        <time>2013-06-09T11:49:13.000Z</time>
      </trkpt>
      <trkpt lat="47.30111" lon="6.11078">
        <ele>431</ele>
        <time>2013-06-09T11:49:14.000Z</time>
      </trkpt>
      <trkpt lat="47.30113" lon="6.11082">
        <ele>430.9</ele>
        <time>2013-06-09T11:49:17.000Z</time>
      </trkpt>
      <trkpt lat="47.30114" lon="6.11083">
        <ele>430.8</ele>
        <time>2013-06-09T11:49:18.000Z</time>
      </trkpt>
      <trkpt lat="47.30116" lon="6.11087">
        <ele>430.7</ele>
        <time>2013-06-09T11:49:21.000Z</time>
      </trkpt>
      <trkpt lat="47.30117" lon="6.11089">
        <ele>430.7</ele>
        <time>2013-06-09T11:49:22.000Z</time>
      </trkpt>
      <trkpt lat="47.30119" lon="6.11093">
        <ele>430.4</ele>
        <time>2013-06-09T11:49:25.000Z</time>
      </trkpt>
      <trkpt lat="47.3012" lon="6.11094">
        <ele>430.3</ele>
        <time>2013-06-09T11:49:26.000Z</time>
      </trkpt>
      <trkpt lat="47.30123" lon="6.11097">
        <ele>430.2</ele>
        <time>2013-06-09T11:49:29.000Z</time>
      </trkpt>
      <trkpt lat="47.30124" lon="6.11098">
        <ele>430.6</ele>
        <time>2013-06-09T11:49:30.000Z</time>
      </trkpt>
      <trkpt lat="47.30127" lon="6.11101">
        <ele>430.5</ele>
        <time>2013-06-09T11:49:33.000Z</time>
      </trkpt>
      <trkpt lat="47.30128" lon="6.11102">
        <ele>430.4</ele>
        <time>2013-06-09T11:49:34.000Z</time>
      </trkpt>
      <trkpt lat="47.30131" lon="6.11105">
        <ele>431</ele>
        <time>2013-06-09T11:49:37.000Z</time>
      </trkpt>
      <trkpt lat="47.30132" lon="6.11106">
        <ele>431</ele>
        <time>2013-06-09T11:49:38.000Z</time>
      </trkpt>
      <trkpt lat="47.30135" lon="6.11109">
        <ele>431.3</ele>
        <time>2013-06-09T11:49:41.000Z</time>
      </trkpt>
      <trkpt lat="47.30136" lon="6.1111">
        <ele>431.1</ele>
        <time>2013-06-09T11:49:42.000Z</time>
      </trkpt>
      <trkpt lat="47.30139" lon="6.11113">
        <ele>430.7</ele>
        <time>2013-06-09T11:49:45.000Z</time>
      </trkpt>
      <trkpt lat="47.3014" lon="6.11114">
        <ele>430.5</ele>
        <time>2013-06-09T11:49:46.000Z</time>
      </trkpt>
      <trkpt lat="47.30143" lon="6.11118">
        <ele>430.7</ele>
        <time>2013-06-09T11:49:50.000Z</time>
      </trkpt>
      <trkpt lat="47.30144" lon="6.11119">
        <ele>430.9</ele>
        <time>2013-06-09T11:49:51.000Z</time>
      </trkpt>
      <trkpt lat="47.30146" lon="6.11123">
        <ele>431</ele>
        <time>2013-06-09T11:49:54.000Z</time>
      </trkpt>
      <trkpt lat="47.30147" lon="6.11124">
        <ele>431.1</ele>
        <time>2013-06-09T11:49:55.000Z</time>
      </trkpt>
      <trkpt lat="47.3015" lon="6.11128">
        <ele>431.3</ele>
        <time>2013-06-09T11:49:58.000Z</time>
      </trkpt>
      <trkpt lat="47.30151" lon="6.11129">
        <ele>431.1</ele>
        <time>2013-06-09T11:49:59.000Z</time>
      </trkpt>
      <trkpt lat="47.30154" lon="6.11132">
        <ele>431.5</ele>
        <time>2013-06-09T11:50:03.000Z</time>
      </trkpt>
      <trkpt lat="47.30155" lon="6.11133">
        <ele>431.8</ele>
        <time>2013-06-09T11:50:04.000Z</time>
      </trkpt>
      <trkpt lat="47.30158" lon="6.11136">
        <ele>431.6</ele>
        <time>2013-06-09T11:50:07.000Z</time>
      </trkpt>
      <trkpt lat="47.30159" lon="6.11137">
        <ele>431.8</ele>
        <time>2013-06-09T11:50:08.000Z</time>
      </trkpt>
      <trkpt lat="47.30161" lon="6.11141">
        <ele>432.7</ele>
        <time>2013-06-09T11:50:11.000Z</time>
      </trkpt>
      <trkpt lat="47.30162" lon="6.11142">
        <ele>433.1</ele>
        <time>2013-06-09T11:50:12.000Z</time>
      </trkpt>
      <trkpt lat="47.30165" lon="6.11147">
        <ele>433.9</ele>
        <time>2013-06-09T11:50:16.000Z</time>
      </trkpt>
      <trkpt lat="47.30166" lon="6.11147">
        <ele>433.9</ele>
        <time>2013-06-09T11:50:17.000Z</time>
      </trkpt>
      <trkpt lat="47.30169" lon="6.11151">
        <ele>434.5</ele>
        <time>2013-06-09T11:50:21.000Z</time>
      </trkpt>
      <trkpt lat="47.3017" lon="6.11151">
        <ele>434.5</ele>
        <time>2013-06-09T11:50:22.000Z</time>
      </trkpt>
      <trkpt lat="47.30173" lon="6.11154">
        <ele>434.8</ele>
        <time>2013-06-09T11:50:26.000Z</time>
      </trkpt>
      <trkpt lat="47.30174" lon="6.11155">
        <ele>434.9</ele>
        <time>2013-06-09T11:50:27.000Z</time>
      </trkpt>
      <trkpt lat="47.30177" lon="6.1116">
        <ele>435</ele>
        <time>2013-06-09T11:50:31.000Z</time>
      </trkpt>
      <trkpt lat="47.30178" lon="6.11161">
        <ele>435.1</ele>
        <time>2013-06-09T11:50:32.000Z</time>
      </trkpt>
      <trkpt lat="47.30181" lon="6.11164">
        <ele>435.8</ele>
        <time>2013-06-09T11:50:35.000Z</time>
      </trkpt>
      <trkpt lat="47.30182" lon="6.11165">
        <ele>436.2</ele>
        <time>2013-06-09T11:50:36.000Z</time>
      </trkpt>
      <trkpt lat="47.30184" lon="6.11169">
        <ele>437.2</ele>
        <time>2013-06-09T11:50:39.000Z</time>
      </trkpt>
      <trkpt lat="47.30185" lon="6.11171">
        <ele>437.4</ele>
        <time>2013-06-09T11:50:40.000Z</time>
      </trkpt>
      <trkpt lat="47.30188" lon="6.11175">
        <ele>438.3</ele>
        <time>2013-06-09T11:50:44.000Z</time>
      </trkpt>
      <trkpt lat="47.30188" lon="6.11176">
        <ele>438.6</ele>
        <time>2013-06-09T11:50:45.000Z</time>
      </trkpt>
      <trkpt lat="47.30192" lon="6.1118">
        <ele>439.6</ele>
        <time>2013-06-09T11:50:49.000Z</time>
      </trkpt>
      <trkpt lat="47.30193" lon="6.11181">
        <ele>439.5</ele>
        <time>2013-06-09T11:50:50.000Z</time>
      </trkpt>
      <trkpt lat="47.30196" lon="6.11183">
        <ele>439.8</ele>
        <time>2013-06-09T11:50:54.000Z</time>
      </trkpt>
      <trkpt lat="47.30197" lon="6.11184">
        <ele>439.9</ele>
        <time>2013-06-09T11:50:55.000Z</time>
      </trkpt>
      <trkpt lat="47.302" lon="6.11186">
        <ele>439.3</ele>
        <time>2013-06-09T11:50:58.000Z</time>
      </trkpt>
      <trkpt lat="47.30201" lon="6.11187">
        <ele>439.4</ele>
        <time>2013-06-09T11:50:59.000Z</time>
      </trkpt>
      <trkpt lat="47.30204" lon="6.11191">
        <ele>440.1</ele>
        <time>2013-06-09T11:51:02.000Z</time>
      </trkpt>
      <trkpt lat="47.30205" lon="6.11192">
        <ele>440</ele>
        <time>2013-06-09T11:51:03.000Z</time>
      </trkpt>
      <trkpt lat="47.30208" lon="6.11197">
        <ele>439.4</ele>
        <time>2013-06-09T11:51:07.000Z</time>
      </trkpt>
      <trkpt lat="47.30209" lon="6.11198">
        <ele>439.4</ele>
        <time>2013-06-09T11:51:08.000Z</time>
      </trkpt>
      <trkpt lat="47.30212" lon="6.112">
        <ele>439.6</ele>
        <time>2013-06-09T11:51:12.000Z</time>
      </trkpt>
      <trkpt lat="47.30213" lon="6.11201">
        <ele>439.9</ele>
        <time>2013-06-09T11:51:13.000Z</time>
      </trkpt>
      <trkpt lat="47.30216" lon="6.11205">
        <ele>440.8</ele>
        <time>2013-06-09T11:51:17.000Z</time>
      </trkpt>
      <trkpt lat="47.30216" lon="6.11207">
        <ele>441</ele>
        <time>2013-06-09T11:51:18.000Z</time>
      </trkpt>
      <trkpt lat="47.30219" lon="6.11211">
        <ele>441.4</ele>
        <time>2013-06-09T11:51:21.000Z</time>
      </trkpt>
      <trkpt lat="47.30219" lon="6.11212">
        <ele>441.5</ele>
        <time>2013-06-09T11:51:22.000Z</time>
      </trkpt>
      <trkpt lat="47.30222" lon="6.11215">
        <ele>441.9</ele>
        <time>2013-06-09T11:51:25.000Z</time>
      </trkpt>
      <trkpt lat="47.30223" lon="6.11217">
        <ele>442.1</ele>
        <time>2013-06-09T11:51:26.000Z</time>
      </trkpt>
      <trkpt lat="47.30225" lon="6.11221">
        <ele>442.6</ele>
        <time>2013-06-09T11:51:29.000Z</time>
      </trkpt>
      <trkpt lat="47.30226" lon="6.11222">
        <ele>442.9</ele>
        <time>2013-06-09T11:51:30.000Z</time>
      </trkpt>
      <trkpt lat="47.30228" lon="6.11226">
        <ele>443.4</ele>
        <time>2013-06-09T11:51:33.000Z</time>
      </trkpt>
      <trkpt lat="47.30229" lon="6.11228">
        <ele>443.7</ele>
        <time>2013-06-09T11:51:34.000Z</time>
      </trkpt>
      <trkpt lat="47.30231" lon="6.11232">
        <ele>444.8</ele>
        <time>2013-06-09T11:51:37.000Z</time>
      </trkpt>
      <trkpt lat="47.30232" lon="6.11234">
        <ele>445.2</ele>
        <time>2013-06-09T11:51:38.000Z</time>
      </trkpt>
      <trkpt lat="47.30234" lon="6.11238">
        <ele>445.7</ele>
        <time>2013-06-09T11:51:41.000Z</time>
      </trkpt>
      <trkpt lat="47.30235" lon="6.1124">
        <ele>445.7</ele>
        <time>2013-06-09T11:51:42.000Z</time>
      </trkpt>
      <trkpt lat="47.30237" lon="6.11244">
        <ele>445.8</ele>
        <time>2013-06-09T11:51:45.000Z</time>
      </trkpt>
      <trkpt lat="47.30238" lon="6.11246">
        <ele>446</ele>
        <time>2013-06-09T11:51:46.000Z</time>
      </trkpt>
      <trkpt lat="47.3024" lon="6.1125">
        <ele>445.7</ele>
        <time>2013-06-09T11:51:49.000Z</time>
      </trkpt>
      <trkpt lat="47.30241" lon="6.11252">
        <ele>445.7</ele>
        <time>2013-06-09T11:51:50.000Z</time>
      </trkpt>
      <trkpt lat="47.30243" lon="6.11256">
        <ele>446</ele>
        <time>2013-06-09T11:51:53.000Z</time>
      </trkpt>
      <trkpt lat="47.30243" lon="6.11258">
        <ele>446.1</ele>
        <time>2013-06-09T11:51:54.000Z</time>
      </trkpt>
      <trkpt lat="47.30244" lon="6.11263">
        <ele>446.2</ele>
        <time>2013-06-09T11:51:57.000Z</time>
      </trkpt>
      <trkpt lat="47.30245" lon="6.11265">
        <ele>446.6</ele>
        <time>2013-06-09T11:51:58.000Z</time>
      </trkpt>
      <trkpt lat="47.30247" lon="6.11269">
        <ele>446.9</ele>
        <time>2013-06-09T11:52:01.000Z</time>
      </trkpt>
      <trkpt lat="47.30247" lon="6.11271">
        <ele>446.8</ele>
        <time>2013-06-09T11:52:02.000Z</time>
      </trkpt>
      <trkpt lat="47.30249" lon="6.11275">
        <ele>447.4</ele>
        <time>2013-06-09T11:52:05.000Z</time>
      </trkpt>
      <trkpt lat="47.3025" lon="6.11276">
        <ele>447.3</ele>
        <time>2013-06-09T11:52:06.000Z</time>
      </trkpt>
      <trkpt lat="47.30252" lon="6.11281">
        <ele>447.6</ele>
        <time>2013-06-09T11:52:10.000Z</time>
      </trkpt>
      <trkpt lat="47.30252" lon="6.11282">
        <ele>447.7</ele>
        <time>2013-06-09T11:52:11.000Z</time>
      </trkpt>
      <trkpt lat="47.30254" lon="6.11287">
        <ele>447.8</ele>
        <time>2013-06-09T11:52:15.000Z</time>
      </trkpt>
      <trkpt lat="47.30255" lon="6.11289">
        <ele>447.5</ele>
        <time>2013-06-09T11:52:16.000Z</time>
      </trkpt>
      <trkpt lat="47.30256" lon="6.11294">
        <ele>446.8</ele>
        <time>2013-06-09T11:52:19.000Z</time>
      </trkpt>
      <trkpt lat="47.30256" lon="6.11295">
        <ele>446.6</ele>
        <time>2013-06-09T11:52:20.000Z</time>
      </trkpt>
      <trkpt lat="47.30257" lon="6.11301">
        <ele>446.8</ele>
        <time>2013-06-09T11:52:23.000Z</time>
      </trkpt>
      <trkpt lat="47.30258" lon="6.11303">
        <ele>447</ele>
        <time>2013-06-09T11:52:24.000Z</time>
      </trkpt>
      <trkpt lat="47.30259" lon="6.11309">
        <ele>448.4</ele>
        <time>2013-06-09T11:52:28.000Z</time>
      </trkpt>
      <trkpt lat="47.30259" lon="6.1131">
        <ele>448.6</ele>
        <time>2013-06-09T11:52:29.000Z</time>
      </trkpt>
      <trkpt lat="47.3026" lon="6.11316">
        <ele>449.8</ele>
        <time>2013-06-09T11:52:33.000Z</time>
      </trkpt>
      <trkpt lat="47.3026" lon="6.11317">
        <ele>449.9</ele>
        <time>2013-06-09T11:52:34.000Z</time>
      </trkpt>
      <trkpt lat="47.30262" lon="6.11323">
        <ele>449.8</ele>
        <time>2013-06-09T11:52:38.000Z</time>
      </trkpt>
      <trkpt lat="47.30262" lon="6.11324">
        <ele>449.6</ele>
        <time>2013-06-09T11:52:39.000Z</time>
      </trkpt>
      <trkpt lat="47.30263" lon="6.11329">
        <ele>450.8</ele>
        <time>2013-06-09T11:52:44.000Z</time>
      </trkpt>
      <trkpt lat="47.30264" lon="6.11331">
        <ele>450.9</ele>
        <time>2013-06-09T11:52:45.000Z</time>
      </trkpt>
      <trkpt lat="47.30264" lon="6.11337">
        <ele>451.3</ele>
        <time>2013-06-09T11:52:49.000Z</time>
      </trkpt>
      <trkpt lat="47.30264" lon="6.11339">
        <ele>451</ele>
        <time>2013-06-09T11:52:50.000Z</time>
      </trkpt>
      <trkpt lat="47.30265" lon="6.11344">
        <ele>451.4</ele>
        <time>2013-06-09T11:52:53.000Z</time>
      </trkpt>
      <trkpt lat="47.30265" lon="6.11346">
        <ele>451.5</ele>
        <time>2013-06-09T11:52:54.000Z</time>
      </trkpt>
      <trkpt lat="47.30266" lon="6.1135">
        <ele>452.3</ele>
        <time>2013-06-09T11:52:57.000Z</time>
      </trkpt>
      <trkpt lat="47.30267" lon="6.11352">
        <ele>452.6</ele>
        <time>2013-06-09T11:52:58.000Z</time>
      </trkpt>
      <trkpt lat="47.30268" lon="6.11358">
        <ele>453.4</ele>
        <time>2013-06-09T11:53:02.000Z</time>
      </trkpt>
      <trkpt lat="47.30268" lon="6.1136">
        <ele>453.9</ele>
        <time>2013-06-09T11:53:03.000Z</time>
      </trkpt>
      <trkpt lat="47.30269" lon="6.11364">
        <ele>454.9</ele>
        <time>2013-06-09T11:53:06.000Z</time>
      </trkpt>
      <trkpt lat="47.30269" lon="6.11366">
        <ele>455.2</ele>
        <time>2013-06-09T11:53:07.000Z</time>
      </trkpt>
      <trkpt lat="47.3027" lon="6.11372">
        <ele>456.8</ele>
        <time>2013-06-09T11:53:11.000Z</time>
      </trkpt>
      <trkpt lat="47.3027" lon="6.11374">
        <ele>457.5</ele>
        <time>2013-06-09T11:53:12.000Z</time>
      </trkpt>
      <trkpt lat="47.30272" lon="6.11379">
        <ele>459</ele>
        <time>2013-06-09T11:53:16.000Z</time>
      </trkpt>
      <trkpt lat="47.30272" lon="6.1138">
        <ele>459.3</ele>
        <time>2013-06-09T11:53:17.000Z</time>
      </trkpt>
      <trkpt lat="47.30273" lon="6.11385">
        <ele>459</ele>
        <time>2013-06-09T11:53:23.000Z</time>
      </trkpt>
      <trkpt lat="47.30274" lon="6.11386">
        <ele>459.2</ele>
        <time>2013-06-09T11:53:24.000Z</time>
      </trkpt>
      <trkpt lat="47.30275" lon="6.11391">
        <ele>459.3</ele>
        <time>2013-06-09T11:53:27.000Z</time>
      </trkpt>
      <trkpt lat="47.30275" lon="6.11393">
        <ele>459</ele>
        <time>2013-06-09T11:53:28.000Z</time>
      </trkpt>
      <trkpt lat="47.30276" lon="6.11398">
        <ele>459.2</ele>
        <time>2013-06-09T11:53:31.000Z</time>
      </trkpt>
      <trkpt lat="47.30277" lon="6.114">
        <ele>459.3</ele>
        <time>2013-06-09T11:53:32.000Z</time>
      </trkpt>
      <trkpt lat="47.30279" lon="6.11405">
        <ele>459.2</ele>
        <time>2013-06-09T11:53:35.000Z</time>
      </trkpt>
      <trkpt lat="47.3028" lon="6.11407">
        <ele>459.3</ele>
        <time>2013-06-09T11:53:36.000Z</time>
      </trkpt>
      <trkpt lat="47.30282" lon="6.11412">
        <ele>459.1</ele>
        <time>2013-06-09T11:53:39.000Z</time>
      </trkpt>
      <trkpt lat="47.30283" lon="6.11413">
        <ele>459</ele>
        <time>2013-06-09T11:53:40.000Z</time>
      </trkpt>
      <trkpt lat="47.30285" lon="6.11417">
        <ele>457.9</ele>
        <time>2013-06-09T11:53:43.000Z</time>
      </trkpt>
      <trkpt lat="47.30286" lon="6.11419">
        <ele>458.1</ele>
        <time>2013-06-09T11:53:44.000Z</time>
      </trkpt>
      <trkpt lat="47.30288" lon="6.11423">
        <ele>458.1</ele>
        <time>2013-06-09T11:53:47.000Z</time>
      </trkpt>
      <trkpt lat="47.30289" lon="6.11425">
        <ele>458.1</ele>
        <time>2013-06-09T11:53:48.000Z</time>
      </trkpt>
      <trkpt lat="47.30291" lon="6.11429">
        <ele>459.2</ele>
        <time>2013-06-09T11:53:51.000Z</time>
      </trkpt>
      <trkpt lat="47.30292" lon="6.1143">
        <ele>459.8</ele>
        <time>2013-06-09T11:53:52.000Z</time>
      </trkpt>
      <trkpt lat="47.30293" lon="6.11435">
        <ele>461.2</ele>
        <time>2013-06-09T11:53:55.000Z</time>
      </trkpt>
      <trkpt lat="47.30294" lon="6.11436">
        <ele>461.4</ele>
        <time>2013-06-09T11:53:56.000Z</time>
      </trkpt>
      <trkpt lat="47.30297" lon="6.1144">
        <ele>462.4</ele>
        <time>2013-06-09T11:54:00.000Z</time>
      </trkpt>
      <trkpt lat="47.30298" lon="6.11441">
        <ele>462.9</ele>
        <time>2013-06-09T11:54:01.000Z</time>
      </trkpt>
      <trkpt lat="47.303" lon="6.11445">
        <ele>464.7</ele>
        <time>2013-06-09T11:54:05.000Z</time>
      </trkpt>
      <trkpt lat="47.30301" lon="6.11446">
        <ele>464.9</ele>
        <time>2013-06-09T11:54:06.000Z</time>
      </trkpt>
      <trkpt lat="47.30304" lon="6.11449">
        <ele>465.6</ele>
        <time>2013-06-09T11:54:10.000Z</time>
      </trkpt>
      <trkpt lat="47.30305" lon="6.1145">
        <ele>465.6</ele>
        <time>2013-06-09T11:54:11.000Z</time>
      </trkpt>
      <trkpt lat="47.30308" lon="6.11453">
        <ele>466</ele>
        <time>2013-06-09T11:54:14.000Z</time>
      </trkpt>
      <trkpt lat="47.30309" lon="6.11454">
        <ele>466.2</ele>
        <time>2013-06-09T11:54:15.000Z</time>
      </trkpt>
      <trkpt lat="47.30312" lon="6.11458">
        <ele>466.9</ele>
        <time>2013-06-09T11:54:18.000Z</time>
      </trkpt>
      <trkpt lat="47.30312" lon="6.11459">
        <ele>467.1</ele>
        <time>2013-06-09T11:54:19.000Z</time>
      </trkpt>
      <trkpt lat="47.30315" lon="6.11462">
        <ele>467.6</ele>
        <time>2013-06-09T11:54:22.000Z</time>
      </trkpt>
      <trkpt lat="47.30316" lon="6.11464">
        <ele>468</ele>
        <time>2013-06-09T11:54:23.000Z</time>
      </trkpt>
      <trkpt lat="47.30317" lon="6.11468">
        <ele>469.8</ele>
        <time>2013-06-09T11:54:29.000Z</time>
      </trkpt>
      <trkpt lat="47.30318" lon="6.1147">
        <ele>470.2</ele>
        <time>2013-06-09T11:54:30.000Z</time>
      </trkpt>
      <trkpt lat="47.30322" lon="6.11474">
        <ele>470.3</ele>
        <time>2013-06-09T11:54:34.000Z</time>
      </trkpt>
      <trkpt lat="47.30322" lon="6.11475">
        <ele>470.5</ele>
        <time>2013-06-09T11:54:35.000Z</time>
      </trkpt>
      <trkpt lat="47.30325" lon="6.11478">
        <ele>471</ele>
        <time>2013-06-09T11:54:38.000Z</time>
      </trkpt>
      <trkpt lat="47.30326" lon="6.1148">
        <ele>471</ele>
        <time>2013-06-09T11:54:39.000Z</time>
      </trkpt>
      <trkpt lat="47.30328" lon="6.11484">
        <ele>470.3</ele>
        <time>2013-06-09T11:54:42.000Z</time>
      </trkpt>
      <trkpt lat="47.30328" lon="6.11486">
        <ele>469.9</ele>
        <time>2013-06-09T11:54:43.000Z</time>
      </trkpt>
      <trkpt lat="47.30331" lon="6.11491">
        <ele>469.8</ele>
        <time>2013-06-09T11:54:46.000Z</time>
      </trkpt>
      <trkpt lat="47.30331" lon="6.11492">
        <ele>469.9</ele>
        <time>2013-06-09T11:54:47.000Z</time>
      </trkpt>
      <trkpt lat="47.30333" lon="6.11497">
        <ele>470.2</ele>
        <time>2013-06-09T11:54:50.000Z</time>
      </trkpt>
      <trkpt lat="47.30334" lon="6.11498">
        <ele>470.3</ele>
        <time>2013-06-09T11:54:51.000Z</time>
      </trkpt>
      <trkpt lat="47.30337" lon="6.11501">
        <ele>471.4</ele>
        <time>2013-06-09T11:55:10.000Z</time>
      </trkpt>
      <trkpt lat="47.30338" lon="6.11502">
        <ele>471.4</ele>
        <time>2013-06-09T11:55:11.000Z</time>
      </trkpt>
      <trkpt lat="47.30341" lon="6.11506">
        <ele>471.8</ele>
        <time>2013-06-09T11:55:14.000Z</time>
      </trkpt>
      <trkpt lat="47.30342" lon="6.11508">
        <ele>471.9</ele>
        <time>2013-06-09T11:55:15.000Z</time>
      </trkpt>
      <trkpt lat="47.30344" lon="6.11512">
        <ele>472.5</ele>
        <time>2013-06-09T11:55:18.000Z</time>
      </trkpt>
      <trkpt lat="47.30345" lon="6.11513">
        <ele>472.7</ele>
        <time>2013-06-09T11:55:19.000Z</time>
      </trkpt>
      <trkpt lat="47.30348" lon="6.11516">
        <ele>473.6</ele>
        <time>2013-06-09T11:55:23.000Z</time>
      </trkpt>
      <trkpt lat="47.30349" lon="6.11516">
        <ele>473.9</ele>
        <time>2013-06-09T11:55:24.000Z</time>
      </trkpt>
      <trkpt lat="47.30352" lon="6.1152">
        <ele>474.8</ele>
        <time>2013-06-09T11:55:28.000Z</time>
      </trkpt>
      <trkpt lat="47.30352" lon="6.11521">
        <ele>475.1</ele>
        <time>2013-06-09T11:55:29.000Z</time>
      </trkpt>
      <trkpt lat="47.30355" lon="6.11525">
        <ele>476.3</ele>
        <time>2013-06-09T11:55:32.000Z</time>
      </trkpt>
      <trkpt lat="47.30356" lon="6.11526">
        <ele>476.6</ele>
        <time>2013-06-09T11:55:33.000Z</time>
      </trkpt>
      <trkpt lat="47.30358" lon="6.1153">
        <ele>476.9</ele>
        <time>2013-06-09T11:55:36.000Z</time>
      </trkpt>
      <trkpt lat="47.30359" lon="6.11532">
        <ele>476.9</ele>
        <time>2013-06-09T11:55:37.000Z</time>
      </trkpt>
      <trkpt lat="47.30361" lon="6.11535">
        <ele>477.3</ele>
        <time>2013-06-09T11:55:40.000Z</time>
      </trkpt>
      <trkpt lat="47.30362" lon="6.11536">
        <ele>477.2</ele>
        <time>2013-06-09T11:55:41.000Z</time>
      </trkpt>
      <trkpt lat="47.30364" lon="6.1154">
        <ele>477.2</ele>
        <time>2013-06-09T11:55:44.000Z</time>
      </trkpt>
      <trkpt lat="47.30365" lon="6.11541">
        <ele>477.2</ele>
        <time>2013-06-09T11:55:45.000Z</time>
      </trkpt>
      <trkpt lat="47.30368" lon="6.11546">
        <ele>477.1</ele>
        <time>2013-06-09T11:55:49.000Z</time>
      </trkpt>
      <trkpt lat="47.30369" lon="6.11547">
        <ele>477</ele>
        <time>2013-06-09T11:55:50.000Z</time>
      </trkpt>
      <trkpt lat="47.30371" lon="6.11551">
        <ele>477.1</ele>
        <time>2013-06-09T11:55:54.000Z</time>
      </trkpt>
      <trkpt lat="47.30372" lon="6.11552">
        <ele>477.1</ele>
        <time>2013-06-09T11:55:55.000Z</time>
      </trkpt>
      <trkpt lat="47.30375" lon="6.11556">
        <ele>477.4</ele>
        <time>2013-06-09T11:55:59.000Z</time>
      </trkpt>
      <trkpt lat="47.30376" lon="6.11557">
        <ele>477.7</ele>
        <time>2013-06-09T11:56:00.000Z</time>
      </trkpt>
      <trkpt lat="47.30378" lon="6.11561">
        <ele>478.5</ele>
        <time>2013-06-09T11:56:04.000Z</time>
      </trkpt>
      <trkpt lat="47.30379" lon="6.11562">
        <ele>479</ele>
        <time>2013-06-09T11:56:05.000Z</time>
      </trkpt>
      <trkpt lat="47.30382" lon="6.11566">
        <ele>480.3</ele>
        <time>2013-06-09T11:56:09.000Z</time>
      </trkpt>
      <trkpt lat="47.30383" lon="6.11567">
        <ele>480.7</ele>
        <time>2013-06-09T11:56:10.000Z</time>
      </trkpt>
      <trkpt lat="47.30385" lon="6.11571">
        <ele>480.9</ele>
        <time>2013-06-09T11:56:13.000Z</time>
      </trkpt>
      <trkpt lat="47.30386" lon="6.11572">
        <ele>481.2</ele>
        <time>2013-06-09T11:56:14.000Z</time>
      </trkpt>
      <trkpt lat="47.30388" lon="6.11577">
        <ele>481.6</ele>
        <time>2013-06-09T11:56:17.000Z</time>
      </trkpt>
      <trkpt lat="47.30389" lon="6.11578">
        <ele>481.6</ele>
        <time>2013-06-09T11:56:18.000Z</time>
      </trkpt>
      <trkpt lat="47.30392" lon="6.11582">
        <ele>482.6</ele>
        <time>2013-06-09T11:56:22.000Z</time>
      </trkpt>
      <trkpt lat="47.30392" lon="6.11583">
        <ele>482.7</ele>
        <time>2013-06-09T11:56:23.000Z</time>
      </trkpt>
      <trkpt lat="47.30395" lon="6.11588">
        <ele>483.6</ele>
        <time>2013-06-09T11:56:27.000Z</time>
      </trkpt>
      <trkpt lat="47.30395" lon="6.11589">
        <ele>484.1</ele>
        <time>2013-06-09T11:56:28.000Z</time>
      </trkpt>
      <trkpt lat="47.30397" lon="6.11593">
        <ele>485.1</ele>
        <time>2013-06-09T11:56:32.000Z</time>
      </trkpt>
      <trkpt lat="47.30398" lon="6.11594">
        <ele>485.4</ele>
        <time>2013-06-09T11:56:33.000Z</time>
      </trkpt>
      <trkpt lat="47.30401" lon="6.11598">
        <ele>486.2</ele>
        <time>2013-06-09T11:56:38.000Z</time>
      </trkpt>
      <trkpt lat="47.30402" lon="6.11599">
        <ele>486</ele>
        <time>2013-06-09T11:56:39.000Z</time>
      </trkpt>
      <trkpt lat="47.30404" lon="6.11603">
        <ele>486.5</ele>
        <time>2013-06-09T11:56:43.000Z</time>
      </trkpt>
      <trkpt lat="47.30405" lon="6.11604">
        <ele>486.8</ele>
        <time>2013-06-09T11:56:44.000Z</time>
      </trkpt>
      <trkpt lat="47.30408" lon="6.11609">
        <ele>487</ele>
        <time>2013-06-09T11:56:48.000Z</time>
      </trkpt>
      <trkpt lat="47.30408" lon="6.1161">
        <ele>486.9</ele>
        <time>2013-06-09T11:56:49.000Z</time>
      </trkpt>
      <trkpt lat="47.30411" lon="6.11615">
        <ele>486.8</ele>
        <time>2013-06-09T11:56:53.000Z</time>
      </trkpt>
      <trkpt lat="47.30412" lon="6.11616">
        <ele>487</ele>
        <time>2013-06-09T11:56:54.000Z</time>
      </trkpt>
      <trkpt lat="47.30413" lon="6.11621">
        <ele>487.4</ele>
        <time>2013-06-09T11:56:57.000Z</time>
      </trkpt>
      <trkpt lat="47.30414" lon="6.11622">
        <ele>487.7</ele>
        <time>2013-06-09T11:56:58.000Z</time>
      </trkpt>
      <trkpt lat="47.30417" lon="6.11627">
        <ele>488.4</ele>
        <time>2013-06-09T11:57:02.000Z</time>
      </trkpt>
      <trkpt lat="47.30417" lon="6.11628">
        <ele>488.6</ele>
        <time>2013-06-09T11:57:03.000Z</time>
      </trkpt>
      <trkpt lat="47.3042" lon="6.11633">
        <ele>488.9</ele>
        <time>2013-06-09T11:57:07.000Z</time>
      </trkpt>
      <trkpt lat="47.30421" lon="6.11635">
        <ele>489.1</ele>
        <time>2013-06-09T11:57:08.000Z</time>
      </trkpt>
      <trkpt lat="47.30423" lon="6.11639">
        <ele>489.4</ele>
        <time>2013-06-09T11:57:11.000Z</time>
      </trkpt>
      <trkpt lat="47.30423" lon="6.1164">
        <ele>489.6</ele>
        <time>2013-06-09T11:57:12.000Z</time>
      </trkpt>
      <trkpt lat="47.30426" lon="6.11645">
        <ele>490.3</ele>
        <time>2013-06-09T11:57:16.000Z</time>
      </trkpt>
      <trkpt lat="47.30427" lon="6.11646">
        <ele>490.4</ele>
        <time>2013-06-09T11:57:17.000Z</time>
      </trkpt>
      <trkpt lat="47.30429" lon="6.11651">
        <ele>491.3</ele>
        <time>2013-06-09T11:57:21.000Z</time>
      </trkpt>
      <trkpt lat="47.3043" lon="6.11652">
        <ele>491.1</ele>
        <time>2013-06-09T11:57:22.000Z</time>
      </trkpt>
      <trkpt lat="47.30433" lon="6.11656">
        <ele>491.6</ele>
        <time>2013-06-09T11:57:26.000Z</time>
      </trkpt>
      <trkpt lat="47.30434" lon="6.11657">
        <ele>491.8</ele>
        <time>2013-06-09T11:57:27.000Z</time>
      </trkpt>
      <trkpt lat="47.30437" lon="6.11661">
        <ele>491.7</ele>
        <time>2013-06-09T11:57:31.000Z</time>
      </trkpt>
      <trkpt lat="47.30438" lon="6.11662">
        <ele>491.6</ele>
        <time>2013-06-09T11:57:32.000Z</time>
      </trkpt>
      <trkpt lat="47.30441" lon="6.11665">
        <ele>491.7</ele>
        <time>2013-06-09T11:57:35.000Z</time>
      </trkpt>
      <trkpt lat="47.30441" lon="6.11666">
        <ele>491.8</ele>
        <time>2013-06-09T11:57:36.000Z</time>
      </trkpt>
      <trkpt lat="47.30445" lon="6.1167">
        <ele>492.7</ele>
        <time>2013-06-09T11:57:40.000Z</time>
      </trkpt>
      <trkpt lat="47.30445" lon="6.11671">
        <ele>492.8</ele>
        <time>2013-06-09T11:57:41.000Z</time>
      </trkpt>
      <trkpt lat="47.30448" lon="6.11676">
        <ele>493</ele>
        <time>2013-06-09T11:57:45.000Z</time>
      </trkpt>
      <trkpt lat="47.30449" lon="6.11677">
        <ele>493.2</ele>
        <time>2013-06-09T11:57:46.000Z</time>
      </trkpt>
      <trkpt lat="47.30451" lon="6.11679">
        <ele>493.5</ele>
        <time>2013-06-09T11:57:49.000Z</time>
      </trkpt>
      <trkpt lat="47.30465" lon="6.11688">
        <ele>484.5</ele>
        <time>2013-06-09T11:58:04.000Z</time>
      </trkpt>
      <trkpt lat="47.30468" lon="6.11691">
        <ele>484.5</ele>
        <time>2013-06-09T11:58:21.000Z</time>
      </trkpt>
      <trkpt lat="47.30472" lon="6.11696">
        <ele>498.7</ele>
        <time>2013-06-09T11:58:22.000Z</time>
      </trkpt>
      <trkpt lat="47.30474" lon="6.117">
        <ele>498.4</ele>
        <time>2013-06-09T11:58:23.000Z</time>
      </trkpt>
      <trkpt lat="47.30476" lon="6.11704">
        <ele>498.3</ele>
        <time>2013-06-09T11:58:24.000Z</time>
      </trkpt>
      <trkpt lat="47.30478" lon="6.11707">
        <ele>498.7</ele>
        <time>2013-06-09T11:58:25.000Z</time>
      </trkpt>
      <trkpt lat="47.30479" lon="6.1171">
        <ele>498.8</ele>
        <time>2013-06-09T11:58:26.000Z</time>
      </trkpt>
      <trkpt lat="47.30482" lon="6.11714">
        <ele>498.7</ele>
        <time>2013-06-09T11:58:28.000Z</time>
      </trkpt>
      <trkpt lat="47.30484" lon="6.11716">
        <ele>498.8</ele>
        <time>2013-06-09T11:58:29.000Z</time>
      </trkpt>
      <trkpt lat="47.30486" lon="6.11719">
        <ele>498.8</ele>
        <time>2013-06-09T11:58:31.000Z</time>
      </trkpt>
      <trkpt lat="47.30487" lon="6.11721">
        <ele>499.1</ele>
        <time>2013-06-09T11:58:32.000Z</time>
      </trkpt>
      <trkpt lat="47.30489" lon="6.11724">
        <ele>499.8</ele>
        <time>2013-06-09T11:58:34.000Z</time>
      </trkpt>
      <trkpt lat="47.3049" lon="6.11726">
        <ele>499.4</ele>
        <time>2013-06-09T11:58:35.000Z</time>
      </trkpt>
      <trkpt lat="47.30493" lon="6.1173">
        <ele>499.7</ele>
        <time>2013-06-09T11:58:38.000Z</time>
      </trkpt>
      <trkpt lat="47.30494" lon="6.11731">
        <ele>499.9</ele>
        <time>2013-06-09T11:58:39.000Z</time>
      </trkpt>
      <trkpt lat="47.30497" lon="6.11734">
        <ele>500.6</ele>
        <time>2013-06-09T11:58:42.000Z</time>
      </trkpt>
      <trkpt lat="47.30498" lon="6.11735">
        <ele>500.7</ele>
        <time>2013-06-09T11:58:43.000Z</time>
      </trkpt>
      <trkpt lat="47.30501" lon="6.11737">
        <ele>501.3</ele>
        <time>2013-06-09T11:58:46.000Z</time>
      </trkpt>
      <trkpt lat="47.30502" lon="6.11738">
        <ele>501.5</ele>
        <time>2013-06-09T11:58:47.000Z</time>
      </trkpt>
      <trkpt lat="47.30504" lon="6.1174">
        <ele>501.5</ele>
        <time>2013-06-09T11:58:49.000Z</time>
      </trkpt>
      <trkpt lat="47.30516" lon="6.11745">
        <ele>502.2</ele>
        <time>2013-06-09T11:59:03.000Z</time>
      </trkpt>
      <trkpt lat="47.30519" lon="6.11746">
        <ele>502.2</ele>
        <time>2013-06-09T11:59:24.000Z</time>
      </trkpt>
      <trkpt lat="47.30527" lon="6.11745">
        <ele>504.6</ele>
        <time>2013-06-09T11:59:25.000Z</time>
      </trkpt>
      <trkpt lat="47.30531" lon="6.11744">
        <ele>504.3</ele>
        <time>2013-06-09T11:59:26.000Z</time>
      </trkpt>
      <trkpt lat="47.30535" lon="6.11742">
        <ele>504</ele>
        <time>2013-06-09T11:59:27.000Z</time>
      </trkpt>
      <trkpt lat="47.30538" lon="6.1174">
        <ele>503.3</ele>
        <time>2013-06-09T11:59:28.000Z</time>
      </trkpt>
      <trkpt lat="47.30541" lon="6.11738">
        <ele>502.9</ele>
        <time>2013-06-09T11:59:29.000Z</time>
      </trkpt>
      <trkpt lat="47.30543" lon="6.11736">
        <ele>502.4</ele>
        <time>2013-06-09T11:59:30.000Z</time>
      </trkpt>
      <trkpt lat="47.30546" lon="6.11734">
        <ele>502.2</ele>
        <time>2013-06-09T11:59:32.000Z</time>
      </trkpt>
      <trkpt lat="47.30547" lon="6.11732">
        <ele>502</ele>
        <time>2013-06-09T11:59:33.000Z</time>
      </trkpt>
      <trkpt lat="47.30549" lon="6.11727">
        <ele>502.2</ele>
        <time>2013-06-09T11:59:36.000Z</time>
      </trkpt>
      <trkpt lat="47.3055" lon="6.11726">
        <ele>502.2</ele>
        <time>2013-06-09T11:59:37.000Z</time>
      </trkpt>
      <trkpt lat="47.30553" lon="6.11722">
        <ele>502.4</ele>
        <time>2013-06-09T11:59:40.000Z</time>
      </trkpt>
      <trkpt lat="47.30553" lon="6.11721">
        <ele>502.4</ele>
        <time>2013-06-09T11:59:41.000Z</time>
      </trkpt>
      <trkpt lat="47.30556" lon="6.11715">
        <ele>502.7</ele>
        <time>2013-06-09T11:59:45.000Z</time>
      </trkpt>
      <trkpt lat="47.30556" lon="6.11714">
        <ele>502.5</ele>
        <time>2013-06-09T11:59:46.000Z</time>
      </trkpt>
      <trkpt lat="47.30558" lon="6.11709">
        <ele>503.1</ele>
        <time>2013-06-09T11:59:50.000Z</time>
      </trkpt>
      <trkpt lat="47.30559" lon="6.11707">
        <ele>503.5</ele>
        <time>2013-06-09T11:59:51.000Z</time>
      </trkpt>
      <trkpt lat="47.30562" lon="6.11703">
        <ele>504.7</ele>
        <time>2013-06-09T11:59:56.000Z</time>
      </trkpt>
      <trkpt lat="47.30562" lon="6.11702">
        <ele>505.1</ele>
        <time>2013-06-09T11:59:57.000Z</time>
      </trkpt>
      <trkpt lat="47.30565" lon="6.11698">
        <ele>505.7</ele>
        <time>2013-06-09T12:00:01.000Z</time>
      </trkpt>
      <trkpt lat="47.30566" lon="6.11697">
        <ele>505.9</ele>
        <time>2013-06-09T12:00:02.000Z</time>
      </trkpt>
      <trkpt lat="47.30568" lon="6.11693">
        <ele>505.7</ele>
        <time>2013-06-09T12:00:06.000Z</time>
      </trkpt>
      <trkpt lat="47.30569" lon="6.11691">
        <ele>505.6</ele>
        <time>2013-06-09T12:00:07.000Z</time>
      </trkpt>
      <trkpt lat="47.30571" lon="6.11687">
        <ele>505.1</ele>
        <time>2013-06-09T12:00:11.000Z</time>
      </trkpt>
      <trkpt lat="47.30572" lon="6.11687">
        <ele>505.1</ele>
        <time>2013-06-09T12:00:12.000Z</time>
      </trkpt>
      <trkpt lat="47.30574" lon="6.11681">
        <ele>505.4</ele>
        <time>2013-06-09T12:00:25.000Z</time>
      </trkpt>
      <trkpt lat="47.30574" lon="6.1168">
        <ele>505.4</ele>
        <time>2013-06-09T12:00:26.000Z</time>
      </trkpt>
      <trkpt lat="47.30575" lon="6.11675">
        <ele>505.4</ele>
        <time>2013-06-09T12:00:49.000Z</time>
      </trkpt>
    </trkseg>
  </trk>
</gpx>